<?xml version="1.0" encoding="UTF-8" standalone="no" ?>
<gpx xmlns="http://www.topografix.com/GPX/1/1" xmlns:xsi="http://www.w3.org/2001/XMLSchema-instance" xsi:schemaLocation="http://www.topografix.com/GPX/1/1 http://www.topografix.com/GPX/1/1/gpx.xsd" version="1.1" creator="VisuGPX - https://www.visugpx.com">
  <metadata>
    <name>coteaux du plateau de lachaux</name>
  </metadata>
  <trk>
    <name><![CDATA[coteaux du plateau de lachaux_1]]></name>
    <extensions>
      <line xmlns="http://www.topografix.com/GPX/gpx_style/0/2">
        <color>0000FF</color>
        <width>4</width>
      </line>
    </extensions>
    <trkseg>
      <trkpt lat="45.84976" lon="3.08454">
        <ele>491</ele>
        <time>2021-08-15T05:30:11Z</time>
      </trkpt>
      <trkpt lat="45.84975" lon="3.08455">
        <ele>491</ele>
        <time>2021-08-15T05:30:12Z</time>
      </trkpt>
      <trkpt lat="45.84975" lon="3.08456">
        <ele>491</ele>
        <time>2021-08-15T05:30:13Z</time>
      </trkpt>
      <trkpt lat="45.84975" lon="3.08458">
        <ele>491</ele>
        <time>2021-08-15T05:30:14Z</time>
      </trkpt>
      <trkpt lat="45.84974" lon="3.08459">
        <ele>491</ele>
        <time>2021-08-15T05:30:15Z</time>
      </trkpt>
      <trkpt lat="45.84974" lon="3.0846">
        <ele>491</ele>
        <time>2021-08-15T05:30:16Z</time>
      </trkpt>
      <trkpt lat="45.84975" lon="3.08461">
        <ele>491</ele>
        <time>2021-08-15T05:30:17Z</time>
      </trkpt>
      <trkpt lat="45.84975" lon="3.08462">
        <ele>491</ele>
        <time>2021-08-15T05:30:18Z</time>
      </trkpt>
      <trkpt lat="45.84976" lon="3.08463">
        <ele>491</ele>
        <time>2021-08-15T05:30:19Z</time>
      </trkpt>
      <trkpt lat="45.84977" lon="3.08463">
        <ele>491</ele>
        <time>2021-08-15T05:30:20Z</time>
      </trkpt>
      <trkpt lat="45.84977" lon="3.08464">
        <ele>491</ele>
        <time>2021-08-15T05:30:21Z</time>
      </trkpt>
      <trkpt lat="45.84979" lon="3.08464">
        <ele>491</ele>
        <time>2021-08-15T05:30:22Z</time>
      </trkpt>
      <trkpt lat="45.84979" lon="3.08465">
        <ele>491</ele>
        <time>2021-08-15T05:30:23Z</time>
      </trkpt>
      <trkpt lat="45.8498" lon="3.08465">
        <ele>491</ele>
        <time>2021-08-15T05:30:24Z</time>
      </trkpt>
      <trkpt lat="45.8498" lon="3.08465">
        <ele>491</ele>
        <time>2021-08-15T05:30:25Z</time>
      </trkpt>
      <trkpt lat="45.84981" lon="3.08466">
        <ele>491</ele>
        <time>2021-08-15T05:30:26Z</time>
      </trkpt>
      <trkpt lat="45.84982" lon="3.08466">
        <ele>491</ele>
        <time>2021-08-15T05:30:27Z</time>
      </trkpt>
      <trkpt lat="45.84983" lon="3.08466">
        <ele>491</ele>
        <time>2021-08-15T05:30:28Z</time>
      </trkpt>
      <trkpt lat="45.84985" lon="3.08465">
        <ele>491</ele>
        <time>2021-08-15T05:30:29Z</time>
      </trkpt>
      <trkpt lat="45.84986" lon="3.08465">
        <ele>491</ele>
        <time>2021-08-15T05:30:30Z</time>
      </trkpt>
      <trkpt lat="45.84987" lon="3.08466">
        <ele>491</ele>
        <time>2021-08-15T05:30:31Z</time>
      </trkpt>
      <trkpt lat="45.84988" lon="3.08466">
        <ele>491</ele>
        <time>2021-08-15T05:30:32Z</time>
      </trkpt>
      <trkpt lat="45.84989" lon="3.08466">
        <ele>491</ele>
        <time>2021-08-15T05:30:33Z</time>
      </trkpt>
      <trkpt lat="45.84991" lon="3.08466">
        <ele>491</ele>
        <time>2021-08-15T05:30:34Z</time>
      </trkpt>
      <trkpt lat="45.84992" lon="3.08467">
        <ele>491</ele>
        <time>2021-08-15T05:30:35Z</time>
      </trkpt>
      <trkpt lat="45.84993" lon="3.08468">
        <ele>491</ele>
        <time>2021-08-15T05:30:36Z</time>
      </trkpt>
      <trkpt lat="45.84994" lon="3.08469">
        <ele>491</ele>
        <time>2021-08-15T05:30:37Z</time>
      </trkpt>
      <trkpt lat="45.84995" lon="3.08471">
        <ele>491</ele>
        <time>2021-08-15T05:30:38Z</time>
      </trkpt>
      <trkpt lat="45.84996" lon="3.08472">
        <ele>491</ele>
        <time>2021-08-15T05:30:39Z</time>
      </trkpt>
      <trkpt lat="45.84997" lon="3.08474">
        <ele>491</ele>
        <time>2021-08-15T05:30:40Z</time>
      </trkpt>
      <trkpt lat="45.84997" lon="3.08476">
        <ele>491</ele>
        <time>2021-08-15T05:30:41Z</time>
      </trkpt>
      <trkpt lat="45.84997" lon="3.08477">
        <ele>491</ele>
        <time>2021-08-15T05:30:42Z</time>
      </trkpt>
      <trkpt lat="45.84997" lon="3.08479">
        <ele>491</ele>
        <time>2021-08-15T05:30:43Z</time>
      </trkpt>
      <trkpt lat="45.84997" lon="3.08481">
        <ele>491</ele>
        <time>2021-08-15T05:30:44Z</time>
      </trkpt>
      <trkpt lat="45.84996" lon="3.08483">
        <ele>491</ele>
        <time>2021-08-15T05:30:45Z</time>
      </trkpt>
      <trkpt lat="45.84996" lon="3.08484">
        <ele>491</ele>
        <time>2021-08-15T05:30:46Z</time>
      </trkpt>
      <trkpt lat="45.84996" lon="3.08486">
        <ele>491</ele>
        <time>2021-08-15T05:30:47Z</time>
      </trkpt>
      <trkpt lat="45.84995" lon="3.08488">
        <ele>491</ele>
        <time>2021-08-15T05:30:48Z</time>
      </trkpt>
      <trkpt lat="45.84995" lon="3.0849">
        <ele>491</ele>
        <time>2021-08-15T05:30:49Z</time>
      </trkpt>
      <trkpt lat="45.84995" lon="3.08492">
        <ele>491</ele>
        <time>2021-08-15T05:30:50Z</time>
      </trkpt>
      <trkpt lat="45.84995" lon="3.08494">
        <ele>491</ele>
        <time>2021-08-15T05:30:51Z</time>
      </trkpt>
      <trkpt lat="45.84996" lon="3.08495">
        <ele>491</ele>
        <time>2021-08-15T05:30:52Z</time>
      </trkpt>
      <trkpt lat="45.84996" lon="3.08497">
        <ele>491</ele>
        <time>2021-08-15T05:30:53Z</time>
      </trkpt>
      <trkpt lat="45.84997" lon="3.08499">
        <ele>491</ele>
        <time>2021-08-15T05:30:54Z</time>
      </trkpt>
      <trkpt lat="45.84998" lon="3.085">
        <ele>491</ele>
        <time>2021-08-15T05:30:55Z</time>
      </trkpt>
      <trkpt lat="45.84998" lon="3.085">
        <ele>491</ele>
        <time>2021-08-15T05:30:56Z</time>
      </trkpt>
      <trkpt lat="45.84998" lon="3.085">
        <ele>491</ele>
        <time>2021-08-15T05:30:57Z</time>
      </trkpt>
      <trkpt lat="45.84998" lon="3.085">
        <ele>491</ele>
        <time>2021-08-15T05:30:58Z</time>
      </trkpt>
      <trkpt lat="45.84998" lon="3.08499">
        <ele>491</ele>
        <time>2021-08-15T05:31:00Z</time>
      </trkpt>
      <trkpt lat="45.84998" lon="3.08495">
        <ele>491</ele>
        <time>2021-08-15T05:31:01Z</time>
      </trkpt>
      <trkpt lat="45.84998" lon="3.08495">
        <ele>491</ele>
        <time>2021-08-15T05:31:02Z</time>
      </trkpt>
      <trkpt lat="45.84998" lon="3.08494">
        <ele>491</ele>
        <time>2021-08-15T05:31:03Z</time>
      </trkpt>
      <trkpt lat="45.84998" lon="3.08493">
        <ele>491</ele>
        <time>2021-08-15T05:31:04Z</time>
      </trkpt>
      <trkpt lat="45.84998" lon="3.08492">
        <ele>491</ele>
        <time>2021-08-15T05:31:05Z</time>
      </trkpt>
      <trkpt lat="45.84998" lon="3.08491">
        <ele>491</ele>
        <time>2021-08-15T05:31:06Z</time>
      </trkpt>
      <trkpt lat="45.84997" lon="3.0849">
        <ele>491</ele>
        <time>2021-08-15T05:31:07Z</time>
      </trkpt>
      <trkpt lat="45.84997" lon="3.08489">
        <ele>491</ele>
        <time>2021-08-15T05:31:08Z</time>
      </trkpt>
      <trkpt lat="45.84997" lon="3.08487">
        <ele>491</ele>
        <time>2021-08-15T05:31:09Z</time>
      </trkpt>
      <trkpt lat="45.84996" lon="3.08486">
        <ele>491</ele>
        <time>2021-08-15T05:31:10Z</time>
      </trkpt>
      <trkpt lat="45.84996" lon="3.08484">
        <ele>491</ele>
        <time>2021-08-15T05:31:11Z</time>
      </trkpt>
      <trkpt lat="45.84995" lon="3.08483">
        <ele>491</ele>
        <time>2021-08-15T05:31:12Z</time>
      </trkpt>
      <trkpt lat="45.84995" lon="3.08481">
        <ele>491</ele>
        <time>2021-08-15T05:31:13Z</time>
      </trkpt>
      <trkpt lat="45.84995" lon="3.08479">
        <ele>491</ele>
        <time>2021-08-15T05:31:14Z</time>
      </trkpt>
      <trkpt lat="45.84994" lon="3.08478">
        <ele>491</ele>
        <time>2021-08-15T05:31:15Z</time>
      </trkpt>
      <trkpt lat="45.84994" lon="3.08476">
        <ele>491</ele>
        <time>2021-08-15T05:31:16Z</time>
      </trkpt>
      <trkpt lat="45.84993" lon="3.08475">
        <ele>491</ele>
        <time>2021-08-15T05:31:17Z</time>
      </trkpt>
      <trkpt lat="45.84992" lon="3.08473">
        <ele>491</ele>
        <time>2021-08-15T05:31:18Z</time>
      </trkpt>
      <trkpt lat="45.84992" lon="3.08472">
        <ele>491</ele>
        <time>2021-08-15T05:31:19Z</time>
      </trkpt>
      <trkpt lat="45.84991" lon="3.08471">
        <ele>491</ele>
        <time>2021-08-15T05:31:20Z</time>
      </trkpt>
      <trkpt lat="45.8499" lon="3.0847">
        <ele>491</ele>
        <time>2021-08-15T05:31:21Z</time>
      </trkpt>
      <trkpt lat="45.84989" lon="3.08469">
        <ele>491</ele>
        <time>2021-08-15T05:31:22Z</time>
      </trkpt>
      <trkpt lat="45.84989" lon="3.08468">
        <ele>491</ele>
        <time>2021-08-15T05:31:23Z</time>
      </trkpt>
      <trkpt lat="45.84988" lon="3.08468">
        <ele>491</ele>
        <time>2021-08-15T05:31:24Z</time>
      </trkpt>
      <trkpt lat="45.84987" lon="3.08467">
        <ele>491</ele>
        <time>2021-08-15T05:31:25Z</time>
      </trkpt>
      <trkpt lat="45.84986" lon="3.08467">
        <ele>491</ele>
        <time>2021-08-15T05:31:26Z</time>
      </trkpt>
      <trkpt lat="45.84985" lon="3.08466">
        <ele>491</ele>
        <time>2021-08-15T05:31:27Z</time>
      </trkpt>
      <trkpt lat="45.84983" lon="3.08466">
        <ele>491</ele>
        <time>2021-08-15T05:31:28Z</time>
      </trkpt>
      <trkpt lat="45.84982" lon="3.08466">
        <ele>491</ele>
        <time>2021-08-15T05:31:29Z</time>
      </trkpt>
      <trkpt lat="45.84981" lon="3.08465">
        <ele>491</ele>
        <time>2021-08-15T05:31:30Z</time>
      </trkpt>
      <trkpt lat="45.8498" lon="3.08465">
        <ele>491</ele>
        <time>2021-08-15T05:31:31Z</time>
      </trkpt>
      <trkpt lat="45.84978" lon="3.08465">
        <ele>491</ele>
        <time>2021-08-15T05:31:32Z</time>
      </trkpt>
      <trkpt lat="45.84976" lon="3.08465">
        <ele>491</ele>
        <time>2021-08-15T05:31:33Z</time>
      </trkpt>
      <trkpt lat="45.84975" lon="3.08465">
        <ele>491</ele>
        <time>2021-08-15T05:31:34Z</time>
      </trkpt>
      <trkpt lat="45.84973" lon="3.08464">
        <ele>491</ele>
        <time>2021-08-15T05:31:35Z</time>
      </trkpt>
      <trkpt lat="45.84971" lon="3.08465">
        <ele>491</ele>
        <time>2021-08-15T05:31:36Z</time>
      </trkpt>
      <trkpt lat="45.8497" lon="3.08465">
        <ele>491</ele>
        <time>2021-08-15T05:31:37Z</time>
      </trkpt>
      <trkpt lat="45.84969" lon="3.08465">
        <ele>491</ele>
        <time>2021-08-15T05:31:38Z</time>
      </trkpt>
      <trkpt lat="45.84967" lon="3.08466">
        <ele>491</ele>
        <time>2021-08-15T05:31:39Z</time>
      </trkpt>
      <trkpt lat="45.84966" lon="3.08467">
        <ele>491</ele>
        <time>2021-08-15T05:31:40Z</time>
      </trkpt>
      <trkpt lat="45.84966" lon="3.08467">
        <ele>491</ele>
        <time>2021-08-15T05:31:41Z</time>
      </trkpt>
      <trkpt lat="45.84965" lon="3.08468">
        <ele>491</ele>
        <time>2021-08-15T05:31:42Z</time>
      </trkpt>
      <trkpt lat="45.84965" lon="3.08469">
        <ele>491</ele>
        <time>2021-08-15T05:31:43Z</time>
      </trkpt>
      <trkpt lat="45.84964" lon="3.0847">
        <ele>491</ele>
        <time>2021-08-15T05:31:44Z</time>
      </trkpt>
      <trkpt lat="45.84964" lon="3.08472">
        <ele>491</ele>
        <time>2021-08-15T05:31:45Z</time>
      </trkpt>
      <trkpt lat="45.84963" lon="3.08473">
        <ele>491</ele>
        <time>2021-08-15T05:31:46Z</time>
      </trkpt>
      <trkpt lat="45.84963" lon="3.08474">
        <ele>491</ele>
        <time>2021-08-15T05:31:47Z</time>
      </trkpt>
      <trkpt lat="45.84963" lon="3.08476">
        <ele>491</ele>
        <time>2021-08-15T05:31:48Z</time>
      </trkpt>
      <trkpt lat="45.84962" lon="3.08477">
        <ele>491</ele>
        <time>2021-08-15T05:31:49Z</time>
      </trkpt>
      <trkpt lat="45.84962" lon="3.08479">
        <ele>491</ele>
        <time>2021-08-15T05:31:50Z</time>
      </trkpt>
      <trkpt lat="45.84961" lon="3.0848">
        <ele>491</ele>
        <time>2021-08-15T05:31:51Z</time>
      </trkpt>
      <trkpt lat="45.84961" lon="3.08481">
        <ele>491</ele>
        <time>2021-08-15T05:31:52Z</time>
      </trkpt>
      <trkpt lat="45.8496" lon="3.08483">
        <ele>491</ele>
        <time>2021-08-15T05:31:53Z</time>
      </trkpt>
      <trkpt lat="45.84959" lon="3.08484">
        <ele>491</ele>
        <time>2021-08-15T05:31:54Z</time>
      </trkpt>
      <trkpt lat="45.84959" lon="3.08485">
        <ele>491</ele>
        <time>2021-08-15T05:31:55Z</time>
      </trkpt>
      <trkpt lat="45.84959" lon="3.08487">
        <ele>491</ele>
        <time>2021-08-15T05:31:56Z</time>
      </trkpt>
      <trkpt lat="45.84958" lon="3.08489">
        <ele>491</ele>
        <time>2021-08-15T05:31:57Z</time>
      </trkpt>
      <trkpt lat="45.84958" lon="3.08491">
        <ele>491</ele>
        <time>2021-08-15T05:31:59Z</time>
      </trkpt>
      <trkpt lat="45.84956" lon="3.08496">
        <ele>491</ele>
        <time>2021-08-15T05:32:00Z</time>
      </trkpt>
      <trkpt lat="45.84956" lon="3.08496">
        <ele>491</ele>
        <time>2021-08-15T05:32:01Z</time>
      </trkpt>
      <trkpt lat="45.84956" lon="3.08497">
        <ele>491</ele>
        <time>2021-08-15T05:32:02Z</time>
      </trkpt>
      <trkpt lat="45.84956" lon="3.08497">
        <ele>491</ele>
        <time>2021-08-15T05:32:03Z</time>
      </trkpt>
      <trkpt lat="45.84956" lon="3.08498">
        <ele>491</ele>
        <time>2021-08-15T05:32:04Z</time>
      </trkpt>
      <trkpt lat="45.84956" lon="3.08499">
        <ele>491</ele>
        <time>2021-08-15T05:32:05Z</time>
      </trkpt>
      <trkpt lat="45.84955" lon="3.085">
        <ele>491</ele>
        <time>2021-08-15T05:32:06Z</time>
      </trkpt>
      <trkpt lat="45.84955" lon="3.08501">
        <ele>491</ele>
        <time>2021-08-15T05:32:07Z</time>
      </trkpt>
      <trkpt lat="45.84955" lon="3.08502">
        <ele>491</ele>
        <time>2021-08-15T05:32:08Z</time>
      </trkpt>
      <trkpt lat="45.84955" lon="3.08503">
        <ele>491</ele>
        <time>2021-08-15T05:32:09Z</time>
      </trkpt>
      <trkpt lat="45.84955" lon="3.08503">
        <ele>491</ele>
        <time>2021-08-15T05:32:10Z</time>
      </trkpt>
      <trkpt lat="45.84955" lon="3.08504">
        <ele>491</ele>
        <time>2021-08-15T05:32:11Z</time>
      </trkpt>
      <trkpt lat="45.84954" lon="3.08505">
        <ele>491</ele>
        <time>2021-08-15T05:32:12Z</time>
      </trkpt>
      <trkpt lat="45.84954" lon="3.08505">
        <ele>491</ele>
        <time>2021-08-15T05:32:13Z</time>
      </trkpt>
      <trkpt lat="45.84953" lon="3.08506">
        <ele>491</ele>
        <time>2021-08-15T05:32:14Z</time>
      </trkpt>
      <trkpt lat="45.84953" lon="3.08508">
        <ele>491</ele>
        <time>2021-08-15T05:32:15Z</time>
      </trkpt>
      <trkpt lat="45.84953" lon="3.08509">
        <ele>491</ele>
        <time>2021-08-15T05:32:16Z</time>
      </trkpt>
      <trkpt lat="45.84953" lon="3.0851">
        <ele>491</ele>
        <time>2021-08-15T05:32:17Z</time>
      </trkpt>
      <trkpt lat="45.84953" lon="3.08511">
        <ele>491</ele>
        <time>2021-08-15T05:32:18Z</time>
      </trkpt>
      <trkpt lat="45.84953" lon="3.08513">
        <ele>491</ele>
        <time>2021-08-15T05:32:19Z</time>
      </trkpt>
      <trkpt lat="45.84952" lon="3.08515">
        <ele>491</ele>
        <time>2021-08-15T05:32:20Z</time>
      </trkpt>
      <trkpt lat="45.84952" lon="3.08516">
        <ele>491</ele>
        <time>2021-08-15T05:32:21Z</time>
      </trkpt>
      <trkpt lat="45.84952" lon="3.08518">
        <ele>491</ele>
        <time>2021-08-15T05:32:22Z</time>
      </trkpt>
      <trkpt lat="45.84952" lon="3.0852">
        <ele>491</ele>
        <time>2021-08-15T05:32:23Z</time>
      </trkpt>
      <trkpt lat="45.84952" lon="3.08522">
        <ele>491</ele>
        <time>2021-08-15T05:32:24Z</time>
      </trkpt>
      <trkpt lat="45.84952" lon="3.08524">
        <ele>491</ele>
        <time>2021-08-15T05:32:25Z</time>
      </trkpt>
      <trkpt lat="45.84951" lon="3.08526">
        <ele>491</ele>
        <time>2021-08-15T05:32:26Z</time>
      </trkpt>
      <trkpt lat="45.84951" lon="3.08528">
        <ele>491</ele>
        <time>2021-08-15T05:32:27Z</time>
      </trkpt>
      <trkpt lat="45.84951" lon="3.0853">
        <ele>491</ele>
        <time>2021-08-15T05:32:28Z</time>
      </trkpt>
      <trkpt lat="45.8495" lon="3.08532">
        <ele>491</ele>
        <time>2021-08-15T05:32:29Z</time>
      </trkpt>
      <trkpt lat="45.8495" lon="3.08534">
        <ele>491</ele>
        <time>2021-08-15T05:32:30Z</time>
      </trkpt>
      <trkpt lat="45.8495" lon="3.08537">
        <ele>491</ele>
        <time>2021-08-15T05:32:31Z</time>
      </trkpt>
      <trkpt lat="45.8495" lon="3.08539">
        <ele>491</ele>
        <time>2021-08-15T05:32:32Z</time>
      </trkpt>
      <trkpt lat="45.8495" lon="3.08541">
        <ele>491</ele>
        <time>2021-08-15T05:32:33Z</time>
      </trkpt>
      <trkpt lat="45.8495" lon="3.08543">
        <ele>491</ele>
        <time>2021-08-15T05:32:34Z</time>
      </trkpt>
      <trkpt lat="45.8495" lon="3.08545">
        <ele>491</ele>
        <time>2021-08-15T05:32:35Z</time>
      </trkpt>
      <trkpt lat="45.8495" lon="3.08548">
        <ele>491</ele>
        <time>2021-08-15T05:32:36Z</time>
      </trkpt>
      <trkpt lat="45.8495" lon="3.0855">
        <ele>491</ele>
        <time>2021-08-15T05:32:37Z</time>
      </trkpt>
      <trkpt lat="45.8495" lon="3.08552">
        <ele>491</ele>
        <time>2021-08-15T05:32:38Z</time>
      </trkpt>
      <trkpt lat="45.84951" lon="3.08555">
        <ele>491</ele>
        <time>2021-08-15T05:32:39Z</time>
      </trkpt>
      <trkpt lat="45.84951" lon="3.08558">
        <ele>491</ele>
        <time>2021-08-15T05:32:40Z</time>
      </trkpt>
      <trkpt lat="45.84951" lon="3.08563">
        <ele>491</ele>
        <time>2021-08-15T05:32:41Z</time>
      </trkpt>
      <trkpt lat="45.84952" lon="3.08567">
        <ele>491</ele>
        <time>2021-08-15T05:32:42Z</time>
      </trkpt>
      <trkpt lat="45.84953" lon="3.08571">
        <ele>491</ele>
        <time>2021-08-15T05:32:43Z</time>
      </trkpt>
      <trkpt lat="45.84953" lon="3.08575">
        <ele>491</ele>
        <time>2021-08-15T05:32:44Z</time>
      </trkpt>
      <trkpt lat="45.84954" lon="3.08578">
        <ele>491</ele>
        <time>2021-08-15T05:32:45Z</time>
      </trkpt>
      <trkpt lat="45.84955" lon="3.08581">
        <ele>491</ele>
        <time>2021-08-15T05:32:46Z</time>
      </trkpt>
      <trkpt lat="45.84956" lon="3.08584">
        <ele>491</ele>
        <time>2021-08-15T05:32:47Z</time>
      </trkpt>
      <trkpt lat="45.84957" lon="3.08586">
        <ele>491</ele>
        <time>2021-08-15T05:32:48Z</time>
      </trkpt>
      <trkpt lat="45.84958" lon="3.08587">
        <ele>491</ele>
        <time>2021-08-15T05:32:49Z</time>
      </trkpt>
      <trkpt lat="45.84959" lon="3.08589">
        <ele>491</ele>
        <time>2021-08-15T05:32:50Z</time>
      </trkpt>
      <trkpt lat="45.84961" lon="3.08591">
        <ele>491</ele>
        <time>2021-08-15T05:32:51Z</time>
      </trkpt>
      <trkpt lat="45.84962" lon="3.08592">
        <ele>491</ele>
        <time>2021-08-15T05:32:52Z</time>
      </trkpt>
      <trkpt lat="45.84963" lon="3.08594">
        <ele>491</ele>
        <time>2021-08-15T05:32:53Z</time>
      </trkpt>
      <trkpt lat="45.84965" lon="3.08596">
        <ele>491</ele>
        <time>2021-08-15T05:32:54Z</time>
      </trkpt>
      <trkpt lat="45.84966" lon="3.08597">
        <ele>491</ele>
        <time>2021-08-15T05:32:55Z</time>
      </trkpt>
      <trkpt lat="45.84967" lon="3.08598">
        <ele>491</ele>
        <time>2021-08-15T05:32:56Z</time>
      </trkpt>
      <trkpt lat="45.84968" lon="3.08599">
        <ele>491</ele>
        <time>2021-08-15T05:32:57Z</time>
      </trkpt>
      <trkpt lat="45.8497" lon="3.086">
        <ele>491</ele>
        <time>2021-08-15T05:32:58Z</time>
      </trkpt>
      <trkpt lat="45.84971" lon="3.08601">
        <ele>491</ele>
        <time>2021-08-15T05:33:00Z</time>
      </trkpt>
      <trkpt lat="45.84977" lon="3.08603">
        <ele>491</ele>
        <time>2021-08-15T05:33:01Z</time>
      </trkpt>
      <trkpt lat="45.84977" lon="3.08603">
        <ele>491</ele>
        <time>2021-08-15T05:33:02Z</time>
      </trkpt>
      <trkpt lat="45.84979" lon="3.08603">
        <ele>491</ele>
        <time>2021-08-15T05:33:03Z</time>
      </trkpt>
      <trkpt lat="45.84979" lon="3.08603">
        <ele>491</ele>
        <time>2021-08-15T05:33:04Z</time>
      </trkpt>
      <trkpt lat="45.8498" lon="3.08603">
        <ele>491</ele>
        <time>2021-08-15T05:33:05Z</time>
      </trkpt>
      <trkpt lat="45.84981" lon="3.08604">
        <ele>491</ele>
        <time>2021-08-15T05:33:06Z</time>
      </trkpt>
      <trkpt lat="45.84982" lon="3.08604">
        <ele>491</ele>
        <time>2021-08-15T05:33:07Z</time>
      </trkpt>
      <trkpt lat="45.84983" lon="3.08604">
        <ele>491</ele>
        <time>2021-08-15T05:33:08Z</time>
      </trkpt>
      <trkpt lat="45.84983" lon="3.08604">
        <ele>491</ele>
        <time>2021-08-15T05:33:09Z</time>
      </trkpt>
      <trkpt lat="45.84985" lon="3.08605">
        <ele>491</ele>
        <time>2021-08-15T05:33:10Z</time>
      </trkpt>
      <trkpt lat="45.84986" lon="3.08605">
        <ele>491</ele>
        <time>2021-08-15T05:33:11Z</time>
      </trkpt>
      <trkpt lat="45.84987" lon="3.08606">
        <ele>491</ele>
        <time>2021-08-15T05:33:12Z</time>
      </trkpt>
      <trkpt lat="45.84988" lon="3.08606">
        <ele>491</ele>
        <time>2021-08-15T05:33:13Z</time>
      </trkpt>
      <trkpt lat="45.84989" lon="3.08607">
        <ele>491</ele>
        <time>2021-08-15T05:33:14Z</time>
      </trkpt>
      <trkpt lat="45.8499" lon="3.08608">
        <ele>491</ele>
        <time>2021-08-15T05:33:15Z</time>
      </trkpt>
      <trkpt lat="45.84991" lon="3.08608">
        <ele>491</ele>
        <time>2021-08-15T05:33:16Z</time>
      </trkpt>
      <trkpt lat="45.84992" lon="3.08608">
        <ele>491</ele>
        <time>2021-08-15T05:33:17Z</time>
      </trkpt>
      <trkpt lat="45.84994" lon="3.08609">
        <ele>491</ele>
        <time>2021-08-15T05:33:18Z</time>
      </trkpt>
      <trkpt lat="45.84995" lon="3.08609">
        <ele>491</ele>
        <time>2021-08-15T05:33:19Z</time>
      </trkpt>
      <trkpt lat="45.84996" lon="3.08609">
        <ele>491</ele>
        <time>2021-08-15T05:33:20Z</time>
      </trkpt>
      <trkpt lat="45.84998" lon="3.08609">
        <ele>491</ele>
        <time>2021-08-15T05:33:21Z</time>
      </trkpt>
      <trkpt lat="45.85" lon="3.08609">
        <ele>491</ele>
        <time>2021-08-15T05:33:22Z</time>
      </trkpt>
      <trkpt lat="45.85001" lon="3.08609">
        <ele>491</ele>
        <time>2021-08-15T05:33:23Z</time>
      </trkpt>
      <trkpt lat="45.85003" lon="3.0861">
        <ele>491</ele>
        <time>2021-08-15T05:33:24Z</time>
      </trkpt>
      <trkpt lat="45.85004" lon="3.0861">
        <ele>491</ele>
        <time>2021-08-15T05:33:25Z</time>
      </trkpt>
      <trkpt lat="45.85005" lon="3.08611">
        <ele>491</ele>
        <time>2021-08-15T05:33:26Z</time>
      </trkpt>
      <trkpt lat="45.85006" lon="3.08612">
        <ele>491</ele>
        <time>2021-08-15T05:33:27Z</time>
      </trkpt>
      <trkpt lat="45.85007" lon="3.08613">
        <ele>491</ele>
        <time>2021-08-15T05:33:28Z</time>
      </trkpt>
      <trkpt lat="45.85008" lon="3.08614">
        <ele>491</ele>
        <time>2021-08-15T05:33:29Z</time>
      </trkpt>
      <trkpt lat="45.85009" lon="3.08615">
        <ele>491</ele>
        <time>2021-08-15T05:33:30Z</time>
      </trkpt>
      <trkpt lat="45.8501" lon="3.08617">
        <ele>491</ele>
        <time>2021-08-15T05:33:31Z</time>
      </trkpt>
      <trkpt lat="45.85011" lon="3.08618">
        <ele>491</ele>
        <time>2021-08-15T05:33:32Z</time>
      </trkpt>
      <trkpt lat="45.85012" lon="3.0862">
        <ele>491</ele>
        <time>2021-08-15T05:33:33Z</time>
      </trkpt>
      <trkpt lat="45.85013" lon="3.08621">
        <ele>491</ele>
        <time>2021-08-15T05:33:34Z</time>
      </trkpt>
      <trkpt lat="45.85013" lon="3.08622">
        <ele>491</ele>
        <time>2021-08-15T05:33:35Z</time>
      </trkpt>
      <trkpt lat="45.85014" lon="3.08623">
        <ele>491</ele>
        <time>2021-08-15T05:33:36Z</time>
      </trkpt>
      <trkpt lat="45.85015" lon="3.08624">
        <ele>491</ele>
        <time>2021-08-15T05:33:37Z</time>
      </trkpt>
      <trkpt lat="45.85016" lon="3.08624">
        <ele>491</ele>
        <time>2021-08-15T05:33:38Z</time>
      </trkpt>
      <trkpt lat="45.85017" lon="3.08624">
        <ele>491</ele>
        <time>2021-08-15T05:33:39Z</time>
      </trkpt>
      <trkpt lat="45.85019" lon="3.08624">
        <ele>491</ele>
        <time>2021-08-15T05:33:40Z</time>
      </trkpt>
      <trkpt lat="45.85021" lon="3.08623">
        <ele>491</ele>
        <time>2021-08-15T05:33:41Z</time>
      </trkpt>
      <trkpt lat="45.85023" lon="3.08622">
        <ele>491</ele>
        <time>2021-08-15T05:33:42Z</time>
      </trkpt>
      <trkpt lat="45.85025" lon="3.08621">
        <ele>491</ele>
        <time>2021-08-15T05:33:43Z</time>
      </trkpt>
      <trkpt lat="45.85028" lon="3.0862">
        <ele>491</ele>
        <time>2021-08-15T05:33:44Z</time>
      </trkpt>
      <trkpt lat="45.8503" lon="3.08619">
        <ele>491</ele>
        <time>2021-08-15T05:33:45Z</time>
      </trkpt>
      <trkpt lat="45.85032" lon="3.08619">
        <ele>491</ele>
        <time>2021-08-15T05:33:46Z</time>
      </trkpt>
      <trkpt lat="45.85035" lon="3.08618">
        <ele>491</ele>
        <time>2021-08-15T05:33:47Z</time>
      </trkpt>
      <trkpt lat="45.85037" lon="3.08618">
        <ele>491</ele>
        <time>2021-08-15T05:33:48Z</time>
      </trkpt>
      <trkpt lat="45.85039" lon="3.08618">
        <ele>491</ele>
        <time>2021-08-15T05:33:49Z</time>
      </trkpt>
      <trkpt lat="45.85041" lon="3.08619">
        <ele>491</ele>
        <time>2021-08-15T05:33:50Z</time>
      </trkpt>
      <trkpt lat="45.85043" lon="3.0862">
        <ele>491</ele>
        <time>2021-08-15T05:33:51Z</time>
      </trkpt>
      <trkpt lat="45.85046" lon="3.08621">
        <ele>491</ele>
        <time>2021-08-15T05:33:52Z</time>
      </trkpt>
      <trkpt lat="45.85047" lon="3.08621">
        <ele>491</ele>
        <time>2021-08-15T05:33:53Z</time>
      </trkpt>
      <trkpt lat="45.85049" lon="3.08621">
        <ele>491</ele>
        <time>2021-08-15T05:33:54Z</time>
      </trkpt>
      <trkpt lat="45.8505" lon="3.0862">
        <ele>491</ele>
        <time>2021-08-15T05:33:55Z</time>
      </trkpt>
      <trkpt lat="45.85051" lon="3.08619">
        <ele>491</ele>
        <time>2021-08-15T05:33:56Z</time>
      </trkpt>
      <trkpt lat="45.85052" lon="3.08618">
        <ele>491</ele>
        <time>2021-08-15T05:33:57Z</time>
      </trkpt>
      <trkpt lat="45.85053" lon="3.08617">
        <ele>491</ele>
        <time>2021-08-15T05:33:58Z</time>
      </trkpt>
      <trkpt lat="45.85054" lon="3.08615">
        <ele>491</ele>
        <time>2021-08-15T05:33:59Z</time>
      </trkpt>
      <trkpt lat="45.85055" lon="3.08614">
        <ele>491</ele>
        <time>2021-08-15T05:34:00Z</time>
      </trkpt>
      <trkpt lat="45.85056" lon="3.08613">
        <ele>491</ele>
        <time>2021-08-15T05:34:01Z</time>
      </trkpt>
      <trkpt lat="45.85057" lon="3.08613">
        <ele>491</ele>
        <time>2021-08-15T05:34:02Z</time>
      </trkpt>
      <trkpt lat="45.85058" lon="3.08612">
        <ele>491</ele>
        <time>2021-08-15T05:34:03Z</time>
      </trkpt>
      <trkpt lat="45.85059" lon="3.08612">
        <ele>491</ele>
        <time>2021-08-15T05:34:04Z</time>
      </trkpt>
      <trkpt lat="45.85061" lon="3.08612">
        <ele>491</ele>
        <time>2021-08-15T05:34:05Z</time>
      </trkpt>
      <trkpt lat="45.85061" lon="3.0861">
        <ele>491</ele>
        <time>2021-08-15T05:34:06Z</time>
      </trkpt>
      <trkpt lat="45.85062" lon="3.08609">
        <ele>491</ele>
        <time>2021-08-15T05:34:07Z</time>
      </trkpt>
      <trkpt lat="45.85063" lon="3.08607">
        <ele>491</ele>
        <time>2021-08-15T05:34:08Z</time>
      </trkpt>
      <trkpt lat="45.85064" lon="3.08605">
        <ele>491</ele>
        <time>2021-08-15T05:34:09Z</time>
      </trkpt>
      <trkpt lat="45.85066" lon="3.08603">
        <ele>491</ele>
        <time>2021-08-15T05:34:10Z</time>
      </trkpt>
      <trkpt lat="45.85067" lon="3.08601">
        <ele>491</ele>
        <time>2021-08-15T05:34:11Z</time>
      </trkpt>
      <trkpt lat="45.85068" lon="3.086">
        <ele>491</ele>
        <time>2021-08-15T05:34:12Z</time>
      </trkpt>
      <trkpt lat="45.85069" lon="3.08598">
        <ele>491</ele>
        <time>2021-08-15T05:34:13Z</time>
      </trkpt>
      <trkpt lat="45.85069" lon="3.08597">
        <ele>491</ele>
        <time>2021-08-15T05:34:14Z</time>
      </trkpt>
      <trkpt lat="45.8507" lon="3.08596">
        <ele>491</ele>
        <time>2021-08-15T05:34:15Z</time>
      </trkpt>
      <trkpt lat="45.8507" lon="3.08595">
        <ele>491</ele>
        <time>2021-08-15T05:34:16Z</time>
      </trkpt>
      <trkpt lat="45.85071" lon="3.08594">
        <ele>491</ele>
        <time>2021-08-15T05:34:17Z</time>
      </trkpt>
      <trkpt lat="45.85072" lon="3.08593">
        <ele>491</ele>
        <time>2021-08-15T05:34:18Z</time>
      </trkpt>
      <trkpt lat="45.85074" lon="3.08592">
        <ele>491</ele>
        <time>2021-08-15T05:34:19Z</time>
      </trkpt>
      <trkpt lat="45.85075" lon="3.08592">
        <ele>491</ele>
        <time>2021-08-15T05:34:20Z</time>
      </trkpt>
      <trkpt lat="45.85076" lon="3.08591">
        <ele>491</ele>
        <time>2021-08-15T05:34:21Z</time>
      </trkpt>
      <trkpt lat="45.85077" lon="3.0859">
        <ele>491</ele>
        <time>2021-08-15T05:34:22Z</time>
      </trkpt>
      <trkpt lat="45.85078" lon="3.08589">
        <ele>491</ele>
        <time>2021-08-15T05:34:22Z</time>
      </trkpt>
      <trkpt lat="45.85078" lon="3.08588">
        <ele>491</ele>
        <time>2021-08-15T05:34:23Z</time>
      </trkpt>
      <trkpt lat="45.85079" lon="3.08587">
        <ele>491</ele>
        <time>2021-08-15T05:34:24Z</time>
      </trkpt>
      <trkpt lat="45.85079" lon="3.08586">
        <ele>491</ele>
        <time>2021-08-15T05:34:25Z</time>
      </trkpt>
      <trkpt lat="45.8508" lon="3.08585">
        <ele>491</ele>
        <time>2021-08-15T05:34:26Z</time>
      </trkpt>
      <trkpt lat="45.85081" lon="3.08584">
        <ele>491</ele>
        <time>2021-08-15T05:34:27Z</time>
      </trkpt>
      <trkpt lat="45.85082" lon="3.08582">
        <ele>491</ele>
        <time>2021-08-15T05:34:28Z</time>
      </trkpt>
      <trkpt lat="45.85083" lon="3.08581">
        <ele>491</ele>
        <time>2021-08-15T05:34:29Z</time>
      </trkpt>
      <trkpt lat="45.85083" lon="3.0858">
        <ele>491</ele>
        <time>2021-08-15T05:34:30Z</time>
      </trkpt>
      <trkpt lat="45.85085" lon="3.08578">
        <ele>491</ele>
        <time>2021-08-15T05:34:31Z</time>
      </trkpt>
      <trkpt lat="45.85086" lon="3.08577">
        <ele>491</ele>
        <time>2021-08-15T05:34:32Z</time>
      </trkpt>
      <trkpt lat="45.85088" lon="3.08576">
        <ele>491</ele>
        <time>2021-08-15T05:34:33Z</time>
      </trkpt>
      <trkpt lat="45.85088" lon="3.08575">
        <ele>491</ele>
        <time>2021-08-15T05:34:34Z</time>
      </trkpt>
      <trkpt lat="45.8509" lon="3.08575">
        <ele>491</ele>
        <time>2021-08-15T05:34:35Z</time>
      </trkpt>
      <trkpt lat="45.85091" lon="3.08574">
        <ele>491</ele>
        <time>2021-08-15T05:34:36Z</time>
      </trkpt>
      <trkpt lat="45.85093" lon="3.08573">
        <ele>491</ele>
        <time>2021-08-15T05:34:37Z</time>
      </trkpt>
      <trkpt lat="45.85094" lon="3.08572">
        <ele>491</ele>
        <time>2021-08-15T05:34:38Z</time>
      </trkpt>
      <trkpt lat="45.85095" lon="3.08571">
        <ele>491</ele>
        <time>2021-08-15T05:34:39Z</time>
      </trkpt>
      <trkpt lat="45.85096" lon="3.0857">
        <ele>491</ele>
        <time>2021-08-15T05:34:40Z</time>
      </trkpt>
      <trkpt lat="45.85098" lon="3.08568">
        <ele>491</ele>
        <time>2021-08-15T05:34:41Z</time>
      </trkpt>
      <trkpt lat="45.85099" lon="3.08567">
        <ele>491</ele>
        <time>2021-08-15T05:34:42Z</time>
      </trkpt>
      <trkpt lat="45.851" lon="3.08566">
        <ele>491</ele>
        <time>2021-08-15T05:34:43Z</time>
      </trkpt>
      <trkpt lat="45.85102" lon="3.08565">
        <ele>491</ele>
        <time>2021-08-15T05:34:44Z</time>
      </trkpt>
      <trkpt lat="45.85103" lon="3.08563">
        <ele>491</ele>
        <time>2021-08-15T05:34:45Z</time>
      </trkpt>
      <trkpt lat="45.85104" lon="3.08562">
        <ele>491</ele>
        <time>2021-08-15T05:34:46Z</time>
      </trkpt>
      <trkpt lat="45.85106" lon="3.08561">
        <ele>491</ele>
        <time>2021-08-15T05:34:47Z</time>
      </trkpt>
      <trkpt lat="45.85107" lon="3.0856">
        <ele>491</ele>
        <time>2021-08-15T05:34:48Z</time>
      </trkpt>
      <trkpt lat="45.85109" lon="3.08559">
        <ele>491</ele>
        <time>2021-08-15T05:34:49Z</time>
      </trkpt>
      <trkpt lat="45.85111" lon="3.08558">
        <ele>491</ele>
        <time>2021-08-15T05:34:50Z</time>
      </trkpt>
      <trkpt lat="45.85112" lon="3.08557">
        <ele>491</ele>
        <time>2021-08-15T05:34:51Z</time>
      </trkpt>
      <trkpt lat="45.85113" lon="3.08556">
        <ele>491</ele>
        <time>2021-08-15T05:34:52Z</time>
      </trkpt>
      <trkpt lat="45.85115" lon="3.08555">
        <ele>491</ele>
        <time>2021-08-15T05:34:53Z</time>
      </trkpt>
      <trkpt lat="45.85116" lon="3.08555">
        <ele>491</ele>
        <time>2021-08-15T05:34:54Z</time>
      </trkpt>
      <trkpt lat="45.85118" lon="3.08554">
        <ele>491</ele>
        <time>2021-08-15T05:34:55Z</time>
      </trkpt>
      <trkpt lat="45.85119" lon="3.08554">
        <ele>491</ele>
        <time>2021-08-15T05:34:56Z</time>
      </trkpt>
      <trkpt lat="45.85121" lon="3.08554">
        <ele>491</ele>
        <time>2021-08-15T05:34:57Z</time>
      </trkpt>
      <trkpt lat="45.85122" lon="3.08553">
        <ele>491</ele>
        <time>2021-08-15T05:34:58Z</time>
      </trkpt>
      <trkpt lat="45.85123" lon="3.08553">
        <ele>491</ele>
        <time>2021-08-15T05:35:00Z</time>
      </trkpt>
      <trkpt lat="45.85128" lon="3.08549">
        <ele>491</ele>
        <time>2021-08-15T05:35:01Z</time>
      </trkpt>
      <trkpt lat="45.85128" lon="3.08549">
        <ele>491</ele>
        <time>2021-08-15T05:35:02Z</time>
      </trkpt>
      <trkpt lat="45.8513" lon="3.08549">
        <ele>491</ele>
        <time>2021-08-15T05:35:03Z</time>
      </trkpt>
      <trkpt lat="45.8513" lon="3.08548">
        <ele>491</ele>
        <time>2021-08-15T05:35:04Z</time>
      </trkpt>
      <trkpt lat="45.85132" lon="3.08548">
        <ele>491</ele>
        <time>2021-08-15T05:35:05Z</time>
      </trkpt>
      <trkpt lat="45.85134" lon="3.08547">
        <ele>491</ele>
        <time>2021-08-15T05:35:06Z</time>
      </trkpt>
      <trkpt lat="45.85135" lon="3.08545">
        <ele>491</ele>
        <time>2021-08-15T05:35:07Z</time>
      </trkpt>
      <trkpt lat="45.85137" lon="3.08544">
        <ele>491</ele>
        <time>2021-08-15T05:35:08Z</time>
      </trkpt>
      <trkpt lat="45.85139" lon="3.08543">
        <ele>491</ele>
        <time>2021-08-15T05:35:09Z</time>
      </trkpt>
      <trkpt lat="45.8514" lon="3.08541">
        <ele>491</ele>
        <time>2021-08-15T05:35:10Z</time>
      </trkpt>
      <trkpt lat="45.85142" lon="3.08539">
        <ele>491</ele>
        <time>2021-08-15T05:35:11Z</time>
      </trkpt>
      <trkpt lat="45.85143" lon="3.08538">
        <ele>491</ele>
        <time>2021-08-15T05:35:12Z</time>
      </trkpt>
      <trkpt lat="45.85145" lon="3.08537">
        <ele>491</ele>
        <time>2021-08-15T05:35:13Z</time>
      </trkpt>
      <trkpt lat="45.85146" lon="3.08536">
        <ele>491</ele>
        <time>2021-08-15T05:35:14Z</time>
      </trkpt>
      <trkpt lat="45.85148" lon="3.08535">
        <ele>491</ele>
        <time>2021-08-15T05:35:15Z</time>
      </trkpt>
      <trkpt lat="45.85148" lon="3.08534">
        <ele>491</ele>
        <time>2021-08-15T05:35:16Z</time>
      </trkpt>
      <trkpt lat="45.8515" lon="3.08533">
        <ele>491</ele>
        <time>2021-08-15T05:35:17Z</time>
      </trkpt>
      <trkpt lat="45.85152" lon="3.08532">
        <ele>491</ele>
        <time>2021-08-15T05:35:18Z</time>
      </trkpt>
      <trkpt lat="45.85153" lon="3.08531">
        <ele>491</ele>
        <time>2021-08-15T05:35:19Z</time>
      </trkpt>
      <trkpt lat="45.85155" lon="3.08531">
        <ele>491</ele>
        <time>2021-08-15T05:35:20Z</time>
      </trkpt>
      <trkpt lat="45.85156" lon="3.0853">
        <ele>491</ele>
        <time>2021-08-15T05:35:21Z</time>
      </trkpt>
      <trkpt lat="45.85158" lon="3.0853">
        <ele>491</ele>
        <time>2021-08-15T05:35:22Z</time>
      </trkpt>
      <trkpt lat="45.8516" lon="3.0853">
        <ele>491</ele>
        <time>2021-08-15T05:35:23Z</time>
      </trkpt>
      <trkpt lat="45.85162" lon="3.08531">
        <ele>491</ele>
        <time>2021-08-15T05:35:24Z</time>
      </trkpt>
      <trkpt lat="45.85163" lon="3.08531">
        <ele>491</ele>
        <time>2021-08-15T05:35:25Z</time>
      </trkpt>
      <trkpt lat="45.85165" lon="3.08531">
        <ele>491</ele>
        <time>2021-08-15T05:35:26Z</time>
      </trkpt>
      <trkpt lat="45.85166" lon="3.08531">
        <ele>491</ele>
        <time>2021-08-15T05:35:27Z</time>
      </trkpt>
      <trkpt lat="45.85168" lon="3.08531">
        <ele>491</ele>
        <time>2021-08-15T05:35:28Z</time>
      </trkpt>
      <trkpt lat="45.85169" lon="3.0853">
        <ele>491</ele>
        <time>2021-08-15T05:35:29Z</time>
      </trkpt>
      <trkpt lat="45.85172" lon="3.08529">
        <ele>491</ele>
        <time>2021-08-15T05:35:30Z</time>
      </trkpt>
      <trkpt lat="45.85173" lon="3.08529">
        <ele>491</ele>
        <time>2021-08-15T05:35:31Z</time>
      </trkpt>
      <trkpt lat="45.85174" lon="3.08528">
        <ele>491</ele>
        <time>2021-08-15T05:35:32Z</time>
      </trkpt>
      <trkpt lat="45.85175" lon="3.08528">
        <ele>491</ele>
        <time>2021-08-15T05:35:33Z</time>
      </trkpt>
      <trkpt lat="45.85176" lon="3.08527">
        <ele>491</ele>
        <time>2021-08-15T05:35:34Z</time>
      </trkpt>
      <trkpt lat="45.85177" lon="3.08527">
        <ele>491</ele>
        <time>2021-08-15T05:35:35Z</time>
      </trkpt>
      <trkpt lat="45.85178" lon="3.08526">
        <ele>491</ele>
        <time>2021-08-15T05:35:36Z</time>
      </trkpt>
      <trkpt lat="45.85179" lon="3.08526">
        <ele>491</ele>
        <time>2021-08-15T05:35:37Z</time>
      </trkpt>
      <trkpt lat="45.85179" lon="3.08525">
        <ele>491</ele>
        <time>2021-08-15T05:35:38Z</time>
      </trkpt>
      <trkpt lat="45.8518" lon="3.08524">
        <ele>491</ele>
        <time>2021-08-15T05:35:39Z</time>
      </trkpt>
      <trkpt lat="45.85181" lon="3.08523">
        <ele>491</ele>
        <time>2021-08-15T05:35:40Z</time>
      </trkpt>
      <trkpt lat="45.85182" lon="3.08521">
        <ele>491</ele>
        <time>2021-08-15T05:35:41Z</time>
      </trkpt>
      <trkpt lat="45.85183" lon="3.0852">
        <ele>491</ele>
        <time>2021-08-15T05:35:42Z</time>
      </trkpt>
      <trkpt lat="45.85184" lon="3.08519">
        <ele>491</ele>
        <time>2021-08-15T05:35:43Z</time>
      </trkpt>
      <trkpt lat="45.85185" lon="3.08517">
        <ele>491</ele>
        <time>2021-08-15T05:35:44Z</time>
      </trkpt>
      <trkpt lat="45.85187" lon="3.08516">
        <ele>491</ele>
        <time>2021-08-15T05:35:45Z</time>
      </trkpt>
      <trkpt lat="45.85188" lon="3.08515">
        <ele>491</ele>
        <time>2021-08-15T05:35:46Z</time>
      </trkpt>
      <trkpt lat="45.85189" lon="3.08514">
        <ele>491</ele>
        <time>2021-08-15T05:35:47Z</time>
      </trkpt>
      <trkpt lat="45.85191" lon="3.08513">
        <ele>491</ele>
        <time>2021-08-15T05:35:48Z</time>
      </trkpt>
      <trkpt lat="45.85192" lon="3.08512">
        <ele>491</ele>
        <time>2021-08-15T05:35:49Z</time>
      </trkpt>
      <trkpt lat="45.85194" lon="3.0851">
        <ele>491</ele>
        <time>2021-08-15T05:35:50Z</time>
      </trkpt>
      <trkpt lat="45.85196" lon="3.08509">
        <ele>491</ele>
        <time>2021-08-15T05:35:51Z</time>
      </trkpt>
      <trkpt lat="45.85197" lon="3.08508">
        <ele>491</ele>
        <time>2021-08-15T05:35:52Z</time>
      </trkpt>
      <trkpt lat="45.85198" lon="3.08507">
        <ele>491</ele>
        <time>2021-08-15T05:35:53Z</time>
      </trkpt>
      <trkpt lat="45.852" lon="3.08506">
        <ele>491</ele>
        <time>2021-08-15T05:35:54Z</time>
      </trkpt>
      <trkpt lat="45.85201" lon="3.08505">
        <ele>491</ele>
        <time>2021-08-15T05:35:55Z</time>
      </trkpt>
      <trkpt lat="45.85202" lon="3.08504">
        <ele>491</ele>
        <time>2021-08-15T05:35:56Z</time>
      </trkpt>
      <trkpt lat="45.85203" lon="3.08503">
        <ele>491</ele>
        <time>2021-08-15T05:35:57Z</time>
      </trkpt>
      <trkpt lat="45.85205" lon="3.08502">
        <ele>491</ele>
        <time>2021-08-15T05:35:59Z</time>
      </trkpt>
      <trkpt lat="45.85211" lon="3.08498">
        <ele>491</ele>
        <time>2021-08-15T05:36:00Z</time>
      </trkpt>
      <trkpt lat="45.85212" lon="3.08498">
        <ele>491</ele>
        <time>2021-08-15T05:36:01Z</time>
      </trkpt>
      <trkpt lat="45.85212" lon="3.08498">
        <ele>491</ele>
        <time>2021-08-15T05:36:02Z</time>
      </trkpt>
      <trkpt lat="45.85214" lon="3.08497">
        <ele>491</ele>
        <time>2021-08-15T05:36:03Z</time>
      </trkpt>
      <trkpt lat="45.85215" lon="3.08496">
        <ele>491</ele>
        <time>2021-08-15T05:36:04Z</time>
      </trkpt>
      <trkpt lat="45.85216" lon="3.08495">
        <ele>491</ele>
        <time>2021-08-15T05:36:05Z</time>
      </trkpt>
      <trkpt lat="45.85218" lon="3.08494">
        <ele>491</ele>
        <time>2021-08-15T05:36:06Z</time>
      </trkpt>
      <trkpt lat="45.85219" lon="3.08493">
        <ele>491</ele>
        <time>2021-08-15T05:36:07Z</time>
      </trkpt>
      <trkpt lat="45.85221" lon="3.08492">
        <ele>491</ele>
        <time>2021-08-15T05:36:08Z</time>
      </trkpt>
      <trkpt lat="45.85222" lon="3.0849">
        <ele>491</ele>
        <time>2021-08-15T05:36:09Z</time>
      </trkpt>
      <trkpt lat="45.85224" lon="3.08489">
        <ele>491</ele>
        <time>2021-08-15T05:36:10Z</time>
      </trkpt>
      <trkpt lat="45.85225" lon="3.08488">
        <ele>491</ele>
        <time>2021-08-15T05:36:11Z</time>
      </trkpt>
      <trkpt lat="45.85226" lon="3.08487">
        <ele>491</ele>
        <time>2021-08-15T05:36:12Z</time>
      </trkpt>
      <trkpt lat="45.85227" lon="3.08486">
        <ele>491</ele>
        <time>2021-08-15T05:36:13Z</time>
      </trkpt>
      <trkpt lat="45.85229" lon="3.08485">
        <ele>491</ele>
        <time>2021-08-15T05:36:14Z</time>
      </trkpt>
      <trkpt lat="45.8523" lon="3.08485">
        <ele>491</ele>
        <time>2021-08-15T05:36:15Z</time>
      </trkpt>
      <trkpt lat="45.85232" lon="3.08484">
        <ele>491</ele>
        <time>2021-08-15T05:36:16Z</time>
      </trkpt>
      <trkpt lat="45.85233" lon="3.08483">
        <ele>491</ele>
        <time>2021-08-15T05:36:17Z</time>
      </trkpt>
      <trkpt lat="45.85235" lon="3.08482">
        <ele>491</ele>
        <time>2021-08-15T05:36:18Z</time>
      </trkpt>
      <trkpt lat="45.85236" lon="3.08481">
        <ele>491</ele>
        <time>2021-08-15T05:36:19Z</time>
      </trkpt>
      <trkpt lat="45.85238" lon="3.0848">
        <ele>491</ele>
        <time>2021-08-15T05:36:20Z</time>
      </trkpt>
      <trkpt lat="45.85239" lon="3.08479">
        <ele>491</ele>
        <time>2021-08-15T05:36:21Z</time>
      </trkpt>
      <trkpt lat="45.8524" lon="3.08479">
        <ele>491</ele>
        <time>2021-08-15T05:36:22Z</time>
      </trkpt>
      <trkpt lat="45.85242" lon="3.08478">
        <ele>491</ele>
        <time>2021-08-15T05:36:23Z</time>
      </trkpt>
      <trkpt lat="45.85243" lon="3.08477">
        <ele>491</ele>
        <time>2021-08-15T05:36:24Z</time>
      </trkpt>
      <trkpt lat="45.85244" lon="3.08476">
        <ele>491</ele>
        <time>2021-08-15T05:36:25Z</time>
      </trkpt>
      <trkpt lat="45.85246" lon="3.08475">
        <ele>491</ele>
        <time>2021-08-15T05:36:26Z</time>
      </trkpt>
      <trkpt lat="45.85247" lon="3.08475">
        <ele>491</ele>
        <time>2021-08-15T05:36:27Z</time>
      </trkpt>
      <trkpt lat="45.85249" lon="3.08474">
        <ele>491</ele>
        <time>2021-08-15T05:36:28Z</time>
      </trkpt>
      <trkpt lat="45.85251" lon="3.08473">
        <ele>491</ele>
        <time>2021-08-15T05:36:29Z</time>
      </trkpt>
      <trkpt lat="45.85252" lon="3.08473">
        <ele>491</ele>
        <time>2021-08-15T05:36:30Z</time>
      </trkpt>
      <trkpt lat="45.85254" lon="3.08472">
        <ele>491</ele>
        <time>2021-08-15T05:36:31Z</time>
      </trkpt>
      <trkpt lat="45.85255" lon="3.08471">
        <ele>491</ele>
        <time>2021-08-15T05:36:32Z</time>
      </trkpt>
      <trkpt lat="45.85257" lon="3.0847">
        <ele>491</ele>
        <time>2021-08-15T05:36:33Z</time>
      </trkpt>
      <trkpt lat="45.85259" lon="3.0847">
        <ele>491</ele>
        <time>2021-08-15T05:36:34Z</time>
      </trkpt>
      <trkpt lat="45.8526" lon="3.08469">
        <ele>491</ele>
        <time>2021-08-15T05:36:35Z</time>
      </trkpt>
      <trkpt lat="45.85262" lon="3.08469">
        <ele>491</ele>
        <time>2021-08-15T05:36:36Z</time>
      </trkpt>
      <trkpt lat="45.85263" lon="3.08468">
        <ele>491</ele>
        <time>2021-08-15T05:36:37Z</time>
      </trkpt>
      <trkpt lat="45.85265" lon="3.08468">
        <ele>491</ele>
        <time>2021-08-15T05:36:38Z</time>
      </trkpt>
      <trkpt lat="45.85266" lon="3.08467">
        <ele>491</ele>
        <time>2021-08-15T05:36:39Z</time>
      </trkpt>
      <trkpt lat="45.85268" lon="3.08467">
        <ele>491</ele>
        <time>2021-08-15T05:36:40Z</time>
      </trkpt>
      <trkpt lat="45.85269" lon="3.08466">
        <ele>491</ele>
        <time>2021-08-15T05:36:41Z</time>
      </trkpt>
      <trkpt lat="45.85271" lon="3.08466">
        <ele>491</ele>
        <time>2021-08-15T05:36:42Z</time>
      </trkpt>
      <trkpt lat="45.85272" lon="3.08465">
        <ele>491</ele>
        <time>2021-08-15T05:36:43Z</time>
      </trkpt>
      <trkpt lat="45.85275" lon="3.08465">
        <ele>491</ele>
        <time>2021-08-15T05:36:44Z</time>
      </trkpt>
      <trkpt lat="45.85276" lon="3.08464">
        <ele>491</ele>
        <time>2021-08-15T05:36:45Z</time>
      </trkpt>
      <trkpt lat="45.85278" lon="3.08464">
        <ele>491</ele>
        <time>2021-08-15T05:36:46Z</time>
      </trkpt>
      <trkpt lat="45.85279" lon="3.08463">
        <ele>491</ele>
        <time>2021-08-15T05:36:47Z</time>
      </trkpt>
      <trkpt lat="45.85281" lon="3.08463">
        <ele>491</ele>
        <time>2021-08-15T05:36:48Z</time>
      </trkpt>
      <trkpt lat="45.85283" lon="3.08462">
        <ele>491</ele>
        <time>2021-08-15T05:36:49Z</time>
      </trkpt>
      <trkpt lat="45.85284" lon="3.08462">
        <ele>491</ele>
        <time>2021-08-15T05:36:50Z</time>
      </trkpt>
      <trkpt lat="45.85286" lon="3.08462">
        <ele>491</ele>
        <time>2021-08-15T05:36:51Z</time>
      </trkpt>
      <trkpt lat="45.85288" lon="3.08461">
        <ele>491</ele>
        <time>2021-08-15T05:36:52Z</time>
      </trkpt>
      <trkpt lat="45.8529" lon="3.08461">
        <ele>491</ele>
        <time>2021-08-15T05:36:53Z</time>
      </trkpt>
      <trkpt lat="45.85291" lon="3.08461">
        <ele>491</ele>
        <time>2021-08-15T05:36:54Z</time>
      </trkpt>
      <trkpt lat="45.85291" lon="3.0846">
        <ele>491</ele>
        <time>2021-08-15T05:36:55Z</time>
      </trkpt>
      <trkpt lat="45.85292" lon="3.08459">
        <ele>491</ele>
        <time>2021-08-15T05:36:56Z</time>
      </trkpt>
      <trkpt lat="45.85292" lon="3.08458">
        <ele>491</ele>
        <time>2021-08-15T05:36:57Z</time>
      </trkpt>
      <trkpt lat="45.85292" lon="3.08457">
        <ele>491</ele>
        <time>2021-08-15T05:36:59Z</time>
      </trkpt>
      <trkpt lat="45.85292" lon="3.08452">
        <ele>491</ele>
        <time>2021-08-15T05:37:00Z</time>
      </trkpt>
      <trkpt lat="45.85292" lon="3.08451">
        <ele>491</ele>
        <time>2021-08-15T05:37:01Z</time>
      </trkpt>
      <trkpt lat="45.85292" lon="3.0845">
        <ele>491</ele>
        <time>2021-08-15T05:37:02Z</time>
      </trkpt>
      <trkpt lat="45.85292" lon="3.08449">
        <ele>491</ele>
        <time>2021-08-15T05:37:03Z</time>
      </trkpt>
      <trkpt lat="45.85292" lon="3.08447">
        <ele>491</ele>
        <time>2021-08-15T05:37:04Z</time>
      </trkpt>
      <trkpt lat="45.85292" lon="3.08446">
        <ele>491</ele>
        <time>2021-08-15T05:37:05Z</time>
      </trkpt>
      <trkpt lat="45.85292" lon="3.08444">
        <ele>491</ele>
        <time>2021-08-15T05:37:06Z</time>
      </trkpt>
      <trkpt lat="45.85292" lon="3.08442">
        <ele>491</ele>
        <time>2021-08-15T05:37:07Z</time>
      </trkpt>
      <trkpt lat="45.85292" lon="3.08439">
        <ele>491</ele>
        <time>2021-08-15T05:37:08Z</time>
      </trkpt>
      <trkpt lat="45.85292" lon="3.08437">
        <ele>491</ele>
        <time>2021-08-15T05:37:09Z</time>
      </trkpt>
      <trkpt lat="45.85291" lon="3.08435">
        <ele>491</ele>
        <time>2021-08-15T05:37:10Z</time>
      </trkpt>
      <trkpt lat="45.85291" lon="3.08433">
        <ele>491</ele>
        <time>2021-08-15T05:37:11Z</time>
      </trkpt>
      <trkpt lat="45.85291" lon="3.08431">
        <ele>491</ele>
        <time>2021-08-15T05:37:12Z</time>
      </trkpt>
      <trkpt lat="45.85292" lon="3.08429">
        <ele>491</ele>
        <time>2021-08-15T05:37:13Z</time>
      </trkpt>
      <trkpt lat="45.85292" lon="3.08427">
        <ele>491</ele>
        <time>2021-08-15T05:37:14Z</time>
      </trkpt>
      <trkpt lat="45.85292" lon="3.08424">
        <ele>491</ele>
        <time>2021-08-15T05:37:15Z</time>
      </trkpt>
      <trkpt lat="45.85291" lon="3.08422">
        <ele>491</ele>
        <time>2021-08-15T05:37:16Z</time>
      </trkpt>
      <trkpt lat="45.85291" lon="3.0842">
        <ele>491</ele>
        <time>2021-08-15T05:37:17Z</time>
      </trkpt>
      <trkpt lat="45.85291" lon="3.08417">
        <ele>491</ele>
        <time>2021-08-15T05:37:18Z</time>
      </trkpt>
      <trkpt lat="45.85291" lon="3.08415">
        <ele>491</ele>
        <time>2021-08-15T05:37:19Z</time>
      </trkpt>
      <trkpt lat="45.85291" lon="3.08413">
        <ele>491</ele>
        <time>2021-08-15T05:37:20Z</time>
      </trkpt>
      <trkpt lat="45.85291" lon="3.0841">
        <ele>491</ele>
        <time>2021-08-15T05:37:21Z</time>
      </trkpt>
      <trkpt lat="45.85291" lon="3.08408">
        <ele>491</ele>
        <time>2021-08-15T05:37:22Z</time>
      </trkpt>
      <trkpt lat="45.85291" lon="3.08406">
        <ele>491</ele>
        <time>2021-08-15T05:37:23Z</time>
      </trkpt>
      <trkpt lat="45.85291" lon="3.08404">
        <ele>491</ele>
        <time>2021-08-15T05:37:24Z</time>
      </trkpt>
      <trkpt lat="45.85291" lon="3.08402">
        <ele>491</ele>
        <time>2021-08-15T05:37:25Z</time>
      </trkpt>
      <trkpt lat="45.85291" lon="3.084">
        <ele>491</ele>
        <time>2021-08-15T05:37:26Z</time>
      </trkpt>
      <trkpt lat="45.85291" lon="3.08398">
        <ele>491</ele>
        <time>2021-08-15T05:37:27Z</time>
      </trkpt>
      <trkpt lat="45.85291" lon="3.08396">
        <ele>491</ele>
        <time>2021-08-15T05:37:28Z</time>
      </trkpt>
      <trkpt lat="45.85291" lon="3.08393">
        <ele>491</ele>
        <time>2021-08-15T05:37:29Z</time>
      </trkpt>
      <trkpt lat="45.85291" lon="3.08391">
        <ele>491</ele>
        <time>2021-08-15T05:37:30Z</time>
      </trkpt>
      <trkpt lat="45.85291" lon="3.08389">
        <ele>491</ele>
        <time>2021-08-15T05:37:31Z</time>
      </trkpt>
      <trkpt lat="45.85291" lon="3.08386">
        <ele>491</ele>
        <time>2021-08-15T05:37:32Z</time>
      </trkpt>
      <trkpt lat="45.8529" lon="3.08384">
        <ele>491</ele>
        <time>2021-08-15T05:37:33Z</time>
      </trkpt>
      <trkpt lat="45.8529" lon="3.08382">
        <ele>491</ele>
        <time>2021-08-15T05:37:34Z</time>
      </trkpt>
      <trkpt lat="45.8529" lon="3.0838">
        <ele>491</ele>
        <time>2021-08-15T05:37:35Z</time>
      </trkpt>
      <trkpt lat="45.85289" lon="3.08377">
        <ele>491</ele>
        <time>2021-08-15T05:37:36Z</time>
      </trkpt>
      <trkpt lat="45.85289" lon="3.08375">
        <ele>491</ele>
        <time>2021-08-15T05:37:37Z</time>
      </trkpt>
      <trkpt lat="45.85289" lon="3.08373">
        <ele>491</ele>
        <time>2021-08-15T05:37:38Z</time>
      </trkpt>
      <trkpt lat="45.85289" lon="3.08371">
        <ele>491</ele>
        <time>2021-08-15T05:37:39Z</time>
      </trkpt>
      <trkpt lat="45.85289" lon="3.08369">
        <ele>491</ele>
        <time>2021-08-15T05:37:40Z</time>
      </trkpt>
      <trkpt lat="45.85289" lon="3.08367">
        <ele>491</ele>
        <time>2021-08-15T05:37:41Z</time>
      </trkpt>
      <trkpt lat="45.85288" lon="3.08365">
        <ele>491</ele>
        <time>2021-08-15T05:37:42Z</time>
      </trkpt>
      <trkpt lat="45.85288" lon="3.08363">
        <ele>491</ele>
        <time>2021-08-15T05:37:43Z</time>
      </trkpt>
      <trkpt lat="45.85288" lon="3.08361">
        <ele>491</ele>
        <time>2021-08-15T05:37:44Z</time>
      </trkpt>
      <trkpt lat="45.85288" lon="3.08359">
        <ele>491</ele>
        <time>2021-08-15T05:37:45Z</time>
      </trkpt>
      <trkpt lat="45.85288" lon="3.08356">
        <ele>491</ele>
        <time>2021-08-15T05:37:46Z</time>
      </trkpt>
      <trkpt lat="45.85287" lon="3.08354">
        <ele>491</ele>
        <time>2021-08-15T05:37:47Z</time>
      </trkpt>
      <trkpt lat="45.85287" lon="3.08351">
        <ele>491</ele>
        <time>2021-08-15T05:37:48Z</time>
      </trkpt>
      <trkpt lat="45.85287" lon="3.08349">
        <ele>491</ele>
        <time>2021-08-15T05:37:49Z</time>
      </trkpt>
      <trkpt lat="45.85287" lon="3.08347">
        <ele>491</ele>
        <time>2021-08-15T05:37:50Z</time>
      </trkpt>
      <trkpt lat="45.85286" lon="3.08344">
        <ele>491</ele>
        <time>2021-08-15T05:37:51Z</time>
      </trkpt>
      <trkpt lat="45.85286" lon="3.08342">
        <ele>491</ele>
        <time>2021-08-15T05:37:52Z</time>
      </trkpt>
      <trkpt lat="45.85285" lon="3.0834">
        <ele>491</ele>
        <time>2021-08-15T05:37:53Z</time>
      </trkpt>
      <trkpt lat="45.85284" lon="3.08338">
        <ele>491</ele>
        <time>2021-08-15T05:37:54Z</time>
      </trkpt>
      <trkpt lat="45.85284" lon="3.08336">
        <ele>491</ele>
        <time>2021-08-15T05:37:55Z</time>
      </trkpt>
      <trkpt lat="45.85284" lon="3.08334">
        <ele>491</ele>
        <time>2021-08-15T05:37:56Z</time>
      </trkpt>
      <trkpt lat="45.85283" lon="3.08332">
        <ele>491</ele>
        <time>2021-08-15T05:37:57Z</time>
      </trkpt>
      <trkpt lat="45.85283" lon="3.0833">
        <ele>491</ele>
        <time>2021-08-15T05:37:59Z</time>
      </trkpt>
      <trkpt lat="45.85282" lon="3.08328">
        <ele>491</ele>
        <time>2021-08-15T05:38:00Z</time>
      </trkpt>
      <trkpt lat="45.8528" lon="3.08319">
        <ele>491</ele>
        <time>2021-08-15T05:38:01Z</time>
      </trkpt>
      <trkpt lat="45.8528" lon="3.08318">
        <ele>491</ele>
        <time>2021-08-15T05:38:02Z</time>
      </trkpt>
      <trkpt lat="45.85279" lon="3.08317">
        <ele>491</ele>
        <time>2021-08-15T05:38:03Z</time>
      </trkpt>
      <trkpt lat="45.85278" lon="3.08316">
        <ele>491</ele>
        <time>2021-08-15T05:38:04Z</time>
      </trkpt>
      <trkpt lat="45.85278" lon="3.08314">
        <ele>491</ele>
        <time>2021-08-15T05:38:05Z</time>
      </trkpt>
      <trkpt lat="45.85277" lon="3.08312">
        <ele>491</ele>
        <time>2021-08-15T05:38:06Z</time>
      </trkpt>
      <trkpt lat="45.85276" lon="3.0831">
        <ele>491</ele>
        <time>2021-08-15T05:38:07Z</time>
      </trkpt>
      <trkpt lat="45.85275" lon="3.08308">
        <ele>491</ele>
        <time>2021-08-15T05:38:08Z</time>
      </trkpt>
      <trkpt lat="45.85275" lon="3.08306">
        <ele>491</ele>
        <time>2021-08-15T05:38:09Z</time>
      </trkpt>
      <trkpt lat="45.85274" lon="3.08304">
        <ele>491</ele>
        <time>2021-08-15T05:38:10Z</time>
      </trkpt>
      <trkpt lat="45.85273" lon="3.08302">
        <ele>491</ele>
        <time>2021-08-15T05:38:11Z</time>
      </trkpt>
      <trkpt lat="45.85272" lon="3.083">
        <ele>491</ele>
        <time>2021-08-15T05:38:12Z</time>
      </trkpt>
      <trkpt lat="45.85272" lon="3.08298">
        <ele>491</ele>
        <time>2021-08-15T05:38:13Z</time>
      </trkpt>
      <trkpt lat="45.85271" lon="3.08296">
        <ele>491</ele>
        <time>2021-08-15T05:38:14Z</time>
      </trkpt>
      <trkpt lat="45.8527" lon="3.08295">
        <ele>491</ele>
        <time>2021-08-15T05:38:15Z</time>
      </trkpt>
      <trkpt lat="45.85269" lon="3.08293">
        <ele>491</ele>
        <time>2021-08-15T05:38:16Z</time>
      </trkpt>
      <trkpt lat="45.85269" lon="3.08291">
        <ele>491</ele>
        <time>2021-08-15T05:38:17Z</time>
      </trkpt>
      <trkpt lat="45.85268" lon="3.08289">
        <ele>491</ele>
        <time>2021-08-15T05:38:18Z</time>
      </trkpt>
      <trkpt lat="45.85268" lon="3.08287">
        <ele>491</ele>
        <time>2021-08-15T05:38:19Z</time>
      </trkpt>
      <trkpt lat="45.85267" lon="3.08285">
        <ele>491</ele>
        <time>2021-08-15T05:38:20Z</time>
      </trkpt>
      <trkpt lat="45.85266" lon="3.08284">
        <ele>491</ele>
        <time>2021-08-15T05:38:21Z</time>
      </trkpt>
      <trkpt lat="45.85266" lon="3.08282">
        <ele>491</ele>
        <time>2021-08-15T05:38:22Z</time>
      </trkpt>
      <trkpt lat="45.85265" lon="3.0828">
        <ele>491</ele>
        <time>2021-08-15T05:38:23Z</time>
      </trkpt>
      <trkpt lat="45.85264" lon="3.08278">
        <ele>491</ele>
        <time>2021-08-15T05:38:24Z</time>
      </trkpt>
      <trkpt lat="45.85263" lon="3.08276">
        <ele>491</ele>
        <time>2021-08-15T05:38:25Z</time>
      </trkpt>
      <trkpt lat="45.85263" lon="3.08274">
        <ele>491</ele>
        <time>2021-08-15T05:38:26Z</time>
      </trkpt>
      <trkpt lat="45.85263" lon="3.08272">
        <ele>491</ele>
        <time>2021-08-15T05:38:27Z</time>
      </trkpt>
      <trkpt lat="45.85263" lon="3.0827">
        <ele>491</ele>
        <time>2021-08-15T05:38:28Z</time>
      </trkpt>
      <trkpt lat="45.85262" lon="3.08268">
        <ele>491</ele>
        <time>2021-08-15T05:38:29Z</time>
      </trkpt>
      <trkpt lat="45.85262" lon="3.08266">
        <ele>491</ele>
        <time>2021-08-15T05:38:30Z</time>
      </trkpt>
      <trkpt lat="45.85261" lon="3.08264">
        <ele>491</ele>
        <time>2021-08-15T05:38:31Z</time>
      </trkpt>
      <trkpt lat="45.85261" lon="3.08262">
        <ele>491</ele>
        <time>2021-08-15T05:38:32Z</time>
      </trkpt>
      <trkpt lat="45.8526" lon="3.08261">
        <ele>491</ele>
        <time>2021-08-15T05:38:33Z</time>
      </trkpt>
      <trkpt lat="45.8526" lon="3.08259">
        <ele>491</ele>
        <time>2021-08-15T05:38:34Z</time>
      </trkpt>
      <trkpt lat="45.8526" lon="3.08257">
        <ele>491</ele>
        <time>2021-08-15T05:38:35Z</time>
      </trkpt>
      <trkpt lat="45.8526" lon="3.08255">
        <ele>491</ele>
        <time>2021-08-15T05:38:36Z</time>
      </trkpt>
      <trkpt lat="45.85259" lon="3.08254">
        <ele>491</ele>
        <time>2021-08-15T05:38:37Z</time>
      </trkpt>
      <trkpt lat="45.85259" lon="3.08252">
        <ele>491</ele>
        <time>2021-08-15T05:38:37Z</time>
      </trkpt>
      <trkpt lat="45.85259" lon="3.0825">
        <ele>491</ele>
        <time>2021-08-15T05:38:38Z</time>
      </trkpt>
      <trkpt lat="45.85258" lon="3.08249">
        <ele>491</ele>
        <time>2021-08-15T05:38:39Z</time>
      </trkpt>
      <trkpt lat="45.85258" lon="3.08247">
        <ele>491</ele>
        <time>2021-08-15T05:38:40Z</time>
      </trkpt>
      <trkpt lat="45.85258" lon="3.08245">
        <ele>491</ele>
        <time>2021-08-15T05:38:41Z</time>
      </trkpt>
      <trkpt lat="45.85257" lon="3.08243">
        <ele>491</ele>
        <time>2021-08-15T05:38:42Z</time>
      </trkpt>
      <trkpt lat="45.85257" lon="3.0824">
        <ele>491</ele>
        <time>2021-08-15T05:38:43Z</time>
      </trkpt>
      <trkpt lat="45.85257" lon="3.08238">
        <ele>491</ele>
        <time>2021-08-15T05:38:44Z</time>
      </trkpt>
      <trkpt lat="45.85257" lon="3.08236">
        <ele>491</ele>
        <time>2021-08-15T05:38:45Z</time>
      </trkpt>
      <trkpt lat="45.85257" lon="3.08233">
        <ele>491</ele>
        <time>2021-08-15T05:38:46Z</time>
      </trkpt>
      <trkpt lat="45.85257" lon="3.08231">
        <ele>491</ele>
        <time>2021-08-15T05:38:47Z</time>
      </trkpt>
      <trkpt lat="45.85257" lon="3.08229">
        <ele>491</ele>
        <time>2021-08-15T05:38:48Z</time>
      </trkpt>
      <trkpt lat="45.85257" lon="3.08227">
        <ele>491</ele>
        <time>2021-08-15T05:38:49Z</time>
      </trkpt>
      <trkpt lat="45.85257" lon="3.08225">
        <ele>491</ele>
        <time>2021-08-15T05:38:50Z</time>
      </trkpt>
      <trkpt lat="45.85257" lon="3.08223">
        <ele>491</ele>
        <time>2021-08-15T05:38:51Z</time>
      </trkpt>
      <trkpt lat="45.85257" lon="3.08221">
        <ele>491</ele>
        <time>2021-08-15T05:38:52Z</time>
      </trkpt>
      <trkpt lat="45.85257" lon="3.08219">
        <ele>491</ele>
        <time>2021-08-15T05:38:53Z</time>
      </trkpt>
      <trkpt lat="45.85257" lon="3.08217">
        <ele>491</ele>
        <time>2021-08-15T05:38:54Z</time>
      </trkpt>
      <trkpt lat="45.85257" lon="3.08215">
        <ele>491</ele>
        <time>2021-08-15T05:38:55Z</time>
      </trkpt>
      <trkpt lat="45.85257" lon="3.08214">
        <ele>491</ele>
        <time>2021-08-15T05:38:56Z</time>
      </trkpt>
      <trkpt lat="45.85257" lon="3.08212">
        <ele>491</ele>
        <time>2021-08-15T05:38:58Z</time>
      </trkpt>
      <trkpt lat="45.85256" lon="3.08207">
        <ele>491</ele>
        <time>2021-08-15T05:38:59Z</time>
      </trkpt>
      <trkpt lat="45.85256" lon="3.08207">
        <ele>491</ele>
        <time>2021-08-15T05:39:00Z</time>
      </trkpt>
      <trkpt lat="45.85256" lon="3.08206">
        <ele>491</ele>
        <time>2021-08-15T05:39:01Z</time>
      </trkpt>
      <trkpt lat="45.85256" lon="3.08205">
        <ele>491</ele>
        <time>2021-08-15T05:39:02Z</time>
      </trkpt>
      <trkpt lat="45.85256" lon="3.08203">
        <ele>491</ele>
        <time>2021-08-15T05:39:03Z</time>
      </trkpt>
      <trkpt lat="45.85256" lon="3.08202">
        <ele>491</ele>
        <time>2021-08-15T05:39:04Z</time>
      </trkpt>
      <trkpt lat="45.85256" lon="3.08201">
        <ele>491</ele>
        <time>2021-08-15T05:39:05Z</time>
      </trkpt>
      <trkpt lat="45.85256" lon="3.08199">
        <ele>491</ele>
        <time>2021-08-15T05:39:06Z</time>
      </trkpt>
      <trkpt lat="45.85255" lon="3.08198">
        <ele>491</ele>
        <time>2021-08-15T05:39:07Z</time>
      </trkpt>
      <trkpt lat="45.85255" lon="3.08196">
        <ele>491</ele>
        <time>2021-08-15T05:39:08Z</time>
      </trkpt>
      <trkpt lat="45.85255" lon="3.08194">
        <ele>491</ele>
        <time>2021-08-15T05:39:09Z</time>
      </trkpt>
      <trkpt lat="45.85255" lon="3.08192">
        <ele>491</ele>
        <time>2021-08-15T05:39:10Z</time>
      </trkpt>
      <trkpt lat="45.85255" lon="3.0819">
        <ele>491</ele>
        <time>2021-08-15T05:39:11Z</time>
      </trkpt>
      <trkpt lat="45.85255" lon="3.08188">
        <ele>491</ele>
        <time>2021-08-15T05:39:12Z</time>
      </trkpt>
      <trkpt lat="45.85255" lon="3.08186">
        <ele>491</ele>
        <time>2021-08-15T05:39:13Z</time>
      </trkpt>
      <trkpt lat="45.85255" lon="3.08184">
        <ele>491</ele>
        <time>2021-08-15T05:39:14Z</time>
      </trkpt>
      <trkpt lat="45.85254" lon="3.08182">
        <ele>491</ele>
        <time>2021-08-15T05:39:15Z</time>
      </trkpt>
      <trkpt lat="45.85254" lon="3.0818">
        <ele>491</ele>
        <time>2021-08-15T05:39:16Z</time>
      </trkpt>
      <trkpt lat="45.85254" lon="3.08178">
        <ele>491</ele>
        <time>2021-08-15T05:39:17Z</time>
      </trkpt>
      <trkpt lat="45.85254" lon="3.08176">
        <ele>491</ele>
        <time>2021-08-15T05:39:18Z</time>
      </trkpt>
      <trkpt lat="45.85254" lon="3.08174">
        <ele>491</ele>
        <time>2021-08-15T05:39:19Z</time>
      </trkpt>
      <trkpt lat="45.85254" lon="3.08172">
        <ele>491</ele>
        <time>2021-08-15T05:39:20Z</time>
      </trkpt>
      <trkpt lat="45.85254" lon="3.0817">
        <ele>491</ele>
        <time>2021-08-15T05:39:21Z</time>
      </trkpt>
      <trkpt lat="45.85254" lon="3.08169">
        <ele>491</ele>
        <time>2021-08-15T05:39:22Z</time>
      </trkpt>
      <trkpt lat="45.85254" lon="3.08167">
        <ele>491</ele>
        <time>2021-08-15T05:39:23Z</time>
      </trkpt>
      <trkpt lat="45.85254" lon="3.08166">
        <ele>491</ele>
        <time>2021-08-15T05:39:24Z</time>
      </trkpt>
      <trkpt lat="45.85253" lon="3.08164">
        <ele>491</ele>
        <time>2021-08-15T05:39:25Z</time>
      </trkpt>
      <trkpt lat="45.85252" lon="3.08163">
        <ele>491</ele>
        <time>2021-08-15T05:39:26Z</time>
      </trkpt>
      <trkpt lat="45.85252" lon="3.08161">
        <ele>491</ele>
        <time>2021-08-15T05:39:27Z</time>
      </trkpt>
      <trkpt lat="45.85251" lon="3.08159">
        <ele>491</ele>
        <time>2021-08-15T05:39:28Z</time>
      </trkpt>
      <trkpt lat="45.85251" lon="3.08157">
        <ele>491</ele>
        <time>2021-08-15T05:39:29Z</time>
      </trkpt>
      <trkpt lat="45.85251" lon="3.08156">
        <ele>491</ele>
        <time>2021-08-15T05:39:30Z</time>
      </trkpt>
      <trkpt lat="45.85251" lon="3.08153">
        <ele>491</ele>
        <time>2021-08-15T05:39:31Z</time>
      </trkpt>
      <trkpt lat="45.8525" lon="3.08151">
        <ele>491</ele>
        <time>2021-08-15T05:39:32Z</time>
      </trkpt>
      <trkpt lat="45.8525" lon="3.08148">
        <ele>491</ele>
        <time>2021-08-15T05:39:33Z</time>
      </trkpt>
      <trkpt lat="45.85249" lon="3.08145">
        <ele>491</ele>
        <time>2021-08-15T05:39:34Z</time>
      </trkpt>
      <trkpt lat="45.85249" lon="3.08142">
        <ele>491</ele>
        <time>2021-08-15T05:39:35Z</time>
      </trkpt>
      <trkpt lat="45.85248" lon="3.0814">
        <ele>491</ele>
        <time>2021-08-15T05:39:36Z</time>
      </trkpt>
      <trkpt lat="45.85248" lon="3.08137">
        <ele>491</ele>
        <time>2021-08-15T05:39:37Z</time>
      </trkpt>
      <trkpt lat="45.85248" lon="3.08135">
        <ele>491</ele>
        <time>2021-08-15T05:39:38Z</time>
      </trkpt>
      <trkpt lat="45.85247" lon="3.08133">
        <ele>491</ele>
        <time>2021-08-15T05:39:39Z</time>
      </trkpt>
      <trkpt lat="45.85246" lon="3.0813">
        <ele>491</ele>
        <time>2021-08-15T05:39:40Z</time>
      </trkpt>
      <trkpt lat="45.85246" lon="3.08128">
        <ele>491</ele>
        <time>2021-08-15T05:39:41Z</time>
      </trkpt>
      <trkpt lat="45.85245" lon="3.08126">
        <ele>491</ele>
        <time>2021-08-15T05:39:42Z</time>
      </trkpt>
      <trkpt lat="45.85244" lon="3.08124">
        <ele>491</ele>
        <time>2021-08-15T05:39:43Z</time>
      </trkpt>
      <trkpt lat="45.85244" lon="3.08122">
        <ele>491</ele>
        <time>2021-08-15T05:39:44Z</time>
      </trkpt>
      <trkpt lat="45.85243" lon="3.08121">
        <ele>491</ele>
        <time>2021-08-15T05:39:45Z</time>
      </trkpt>
      <trkpt lat="45.85242" lon="3.08119">
        <ele>491</ele>
        <time>2021-08-15T05:39:46Z</time>
      </trkpt>
      <trkpt lat="45.85241" lon="3.08118">
        <ele>491</ele>
        <time>2021-08-15T05:39:47Z</time>
      </trkpt>
      <trkpt lat="45.85239" lon="3.08117">
        <ele>491</ele>
        <time>2021-08-15T05:39:48Z</time>
      </trkpt>
      <trkpt lat="45.85239" lon="3.08116">
        <ele>491</ele>
        <time>2021-08-15T05:39:49Z</time>
      </trkpt>
      <trkpt lat="45.85238" lon="3.08114">
        <ele>491</ele>
        <time>2021-08-15T05:39:50Z</time>
      </trkpt>
      <trkpt lat="45.85236" lon="3.08113">
        <ele>491</ele>
        <time>2021-08-15T05:39:51Z</time>
      </trkpt>
      <trkpt lat="45.85236" lon="3.08112">
        <ele>491</ele>
        <time>2021-08-15T05:39:52Z</time>
      </trkpt>
      <trkpt lat="45.85234" lon="3.08111">
        <ele>491</ele>
        <time>2021-08-15T05:39:53Z</time>
      </trkpt>
      <trkpt lat="45.85233" lon="3.08109">
        <ele>491</ele>
        <time>2021-08-15T05:39:54Z</time>
      </trkpt>
      <trkpt lat="45.85232" lon="3.08107">
        <ele>491</ele>
        <time>2021-08-15T05:39:55Z</time>
      </trkpt>
      <trkpt lat="45.8523" lon="3.08106">
        <ele>491</ele>
        <time>2021-08-15T05:39:56Z</time>
      </trkpt>
      <trkpt lat="45.8523" lon="3.08104">
        <ele>491</ele>
        <time>2021-08-15T05:39:57Z</time>
      </trkpt>
      <trkpt lat="45.85229" lon="3.08103">
        <ele>491</ele>
        <time>2021-08-15T05:39:59Z</time>
      </trkpt>
      <trkpt lat="45.85226" lon="3.08096">
        <ele>491</ele>
        <time>2021-08-15T05:40:00Z</time>
      </trkpt>
      <trkpt lat="45.85225" lon="3.08096">
        <ele>491</ele>
        <time>2021-08-15T05:40:01Z</time>
      </trkpt>
      <trkpt lat="45.85225" lon="3.08095">
        <ele>491</ele>
        <time>2021-08-15T05:40:02Z</time>
      </trkpt>
      <trkpt lat="45.85225" lon="3.08094">
        <ele>491</ele>
        <time>2021-08-15T05:40:03Z</time>
      </trkpt>
      <trkpt lat="45.85225" lon="3.08093">
        <ele>491</ele>
        <time>2021-08-15T05:40:04Z</time>
      </trkpt>
      <trkpt lat="45.85224" lon="3.08092">
        <ele>491</ele>
        <time>2021-08-15T05:40:05Z</time>
      </trkpt>
      <trkpt lat="45.85224" lon="3.08091">
        <ele>491</ele>
        <time>2021-08-15T05:40:06Z</time>
      </trkpt>
      <trkpt lat="45.85224" lon="3.0809">
        <ele>491</ele>
        <time>2021-08-15T05:40:07Z</time>
      </trkpt>
      <trkpt lat="45.85224" lon="3.08088">
        <ele>491</ele>
        <time>2021-08-15T05:40:08Z</time>
      </trkpt>
      <trkpt lat="45.85224" lon="3.08087">
        <ele>491</ele>
        <time>2021-08-15T05:40:09Z</time>
      </trkpt>
      <trkpt lat="45.85223" lon="3.08086">
        <ele>491</ele>
        <time>2021-08-15T05:40:10Z</time>
      </trkpt>
      <trkpt lat="45.85223" lon="3.08085">
        <ele>491</ele>
        <time>2021-08-15T05:40:11Z</time>
      </trkpt>
      <trkpt lat="45.85223" lon="3.08083">
        <ele>491</ele>
        <time>2021-08-15T05:40:12Z</time>
      </trkpt>
      <trkpt lat="45.85223" lon="3.08082">
        <ele>491</ele>
        <time>2021-08-15T05:40:13Z</time>
      </trkpt>
      <trkpt lat="45.85222" lon="3.0808">
        <ele>491</ele>
        <time>2021-08-15T05:40:14Z</time>
      </trkpt>
      <trkpt lat="45.85222" lon="3.08078">
        <ele>491</ele>
        <time>2021-08-15T05:40:15Z</time>
      </trkpt>
      <trkpt lat="45.85222" lon="3.08077">
        <ele>491</ele>
        <time>2021-08-15T05:40:16Z</time>
      </trkpt>
      <trkpt lat="45.85222" lon="3.08075">
        <ele>491</ele>
        <time>2021-08-15T05:40:17Z</time>
      </trkpt>
      <trkpt lat="45.85222" lon="3.08073">
        <ele>491</ele>
        <time>2021-08-15T05:40:18Z</time>
      </trkpt>
      <trkpt lat="45.85222" lon="3.08071">
        <ele>491</ele>
        <time>2021-08-15T05:40:19Z</time>
      </trkpt>
      <trkpt lat="45.85222" lon="3.0807">
        <ele>491</ele>
        <time>2021-08-15T05:40:20Z</time>
      </trkpt>
      <trkpt lat="45.85222" lon="3.08068">
        <ele>491</ele>
        <time>2021-08-15T05:40:21Z</time>
      </trkpt>
      <trkpt lat="45.85221" lon="3.08066">
        <ele>491</ele>
        <time>2021-08-15T05:40:22Z</time>
      </trkpt>
      <trkpt lat="45.85221" lon="3.08065">
        <ele>491</ele>
        <time>2021-08-15T05:40:23Z</time>
      </trkpt>
      <trkpt lat="45.85222" lon="3.08063">
        <ele>491</ele>
        <time>2021-08-15T05:40:24Z</time>
      </trkpt>
      <trkpt lat="45.85222" lon="3.08062">
        <ele>491</ele>
        <time>2021-08-15T05:40:25Z</time>
      </trkpt>
      <trkpt lat="45.85222" lon="3.0806">
        <ele>491</ele>
        <time>2021-08-15T05:40:26Z</time>
      </trkpt>
      <trkpt lat="45.85222" lon="3.08059">
        <ele>491</ele>
        <time>2021-08-15T05:40:27Z</time>
      </trkpt>
      <trkpt lat="45.85222" lon="3.08057">
        <ele>491</ele>
        <time>2021-08-15T05:40:28Z</time>
      </trkpt>
      <trkpt lat="45.85222" lon="3.08056">
        <ele>491</ele>
        <time>2021-08-15T05:40:29Z</time>
      </trkpt>
      <trkpt lat="45.85222" lon="3.08054">
        <ele>491</ele>
        <time>2021-08-15T05:40:30Z</time>
      </trkpt>
      <trkpt lat="45.85222" lon="3.08052">
        <ele>491</ele>
        <time>2021-08-15T05:40:31Z</time>
      </trkpt>
      <trkpt lat="45.85222" lon="3.0805">
        <ele>491</ele>
        <time>2021-08-15T05:40:32Z</time>
      </trkpt>
      <trkpt lat="45.85222" lon="3.08048">
        <ele>491</ele>
        <time>2021-08-15T05:40:33Z</time>
      </trkpt>
      <trkpt lat="45.85222" lon="3.08046">
        <ele>491</ele>
        <time>2021-08-15T05:40:34Z</time>
      </trkpt>
      <trkpt lat="45.85222" lon="3.08044">
        <ele>491</ele>
        <time>2021-08-15T05:40:35Z</time>
      </trkpt>
      <trkpt lat="45.85222" lon="3.08042">
        <ele>491</ele>
        <time>2021-08-15T05:40:36Z</time>
      </trkpt>
      <trkpt lat="45.85223" lon="3.08041">
        <ele>491</ele>
        <time>2021-08-15T05:40:37Z</time>
      </trkpt>
      <trkpt lat="45.85223" lon="3.08039">
        <ele>491</ele>
        <time>2021-08-15T05:40:38Z</time>
      </trkpt>
      <trkpt lat="45.85223" lon="3.08037">
        <ele>491</ele>
        <time>2021-08-15T05:40:39Z</time>
      </trkpt>
      <trkpt lat="45.85223" lon="3.08035">
        <ele>491</ele>
        <time>2021-08-15T05:40:40Z</time>
      </trkpt>
      <trkpt lat="45.85223" lon="3.08034">
        <ele>491</ele>
        <time>2021-08-15T05:40:41Z</time>
      </trkpt>
      <trkpt lat="45.85224" lon="3.08032">
        <ele>491</ele>
        <time>2021-08-15T05:40:42Z</time>
      </trkpt>
      <trkpt lat="45.85224" lon="3.0803">
        <ele>491</ele>
        <time>2021-08-15T05:40:43Z</time>
      </trkpt>
      <trkpt lat="45.85224" lon="3.08029">
        <ele>491</ele>
        <time>2021-08-15T05:40:44Z</time>
      </trkpt>
      <trkpt lat="45.85225" lon="3.08028">
        <ele>491</ele>
        <time>2021-08-15T05:40:45Z</time>
      </trkpt>
      <trkpt lat="45.85225" lon="3.08026">
        <ele>491</ele>
        <time>2021-08-15T05:40:46Z</time>
      </trkpt>
      <trkpt lat="45.85226" lon="3.08024">
        <ele>491</ele>
        <time>2021-08-15T05:40:47Z</time>
      </trkpt>
      <trkpt lat="45.85226" lon="3.08023">
        <ele>491</ele>
        <time>2021-08-15T05:40:48Z</time>
      </trkpt>
      <trkpt lat="45.85226" lon="3.08021">
        <ele>491</ele>
        <time>2021-08-15T05:40:49Z</time>
      </trkpt>
      <trkpt lat="45.85227" lon="3.08019">
        <ele>491</ele>
        <time>2021-08-15T05:40:50Z</time>
      </trkpt>
      <trkpt lat="45.85227" lon="3.08018">
        <ele>491</ele>
        <time>2021-08-15T05:40:51Z</time>
      </trkpt>
      <trkpt lat="45.85227" lon="3.08016">
        <ele>491</ele>
        <time>2021-08-15T05:40:52Z</time>
      </trkpt>
      <trkpt lat="45.85228" lon="3.08015">
        <ele>491</ele>
        <time>2021-08-15T05:40:53Z</time>
      </trkpt>
      <trkpt lat="45.85228" lon="3.08013">
        <ele>491</ele>
        <time>2021-08-15T05:40:54Z</time>
      </trkpt>
      <trkpt lat="45.85228" lon="3.08011">
        <ele>491</ele>
        <time>2021-08-15T05:40:55Z</time>
      </trkpt>
      <trkpt lat="45.85229" lon="3.0801">
        <ele>491</ele>
        <time>2021-08-15T05:40:56Z</time>
      </trkpt>
      <trkpt lat="45.85229" lon="3.08008">
        <ele>491</ele>
        <time>2021-08-15T05:40:58Z</time>
      </trkpt>
      <trkpt lat="45.8523" lon="3.08003">
        <ele>491</ele>
        <time>2021-08-15T05:40:59Z</time>
      </trkpt>
      <trkpt lat="45.8523" lon="3.08003">
        <ele>491</ele>
        <time>2021-08-15T05:41:00Z</time>
      </trkpt>
      <trkpt lat="45.8523" lon="3.08002">
        <ele>491</ele>
        <time>2021-08-15T05:41:01Z</time>
      </trkpt>
      <trkpt lat="45.8523" lon="3.08002">
        <ele>491</ele>
        <time>2021-08-15T05:41:02Z</time>
      </trkpt>
      <trkpt lat="45.8523" lon="3.08001">
        <ele>491</ele>
        <time>2021-08-15T05:41:03Z</time>
      </trkpt>
      <trkpt lat="45.8523" lon="3.08">
        <ele>491</ele>
        <time>2021-08-15T05:41:04Z</time>
      </trkpt>
      <trkpt lat="45.8523" lon="3.07999">
        <ele>491</ele>
        <time>2021-08-15T05:41:05Z</time>
      </trkpt>
      <trkpt lat="45.85231" lon="3.07997">
        <ele>491</ele>
        <time>2021-08-15T05:41:06Z</time>
      </trkpt>
      <trkpt lat="45.85231" lon="3.07996">
        <ele>491</ele>
        <time>2021-08-15T05:41:07Z</time>
      </trkpt>
      <trkpt lat="45.85231" lon="3.07994">
        <ele>491</ele>
        <time>2021-08-15T05:41:08Z</time>
      </trkpt>
      <trkpt lat="45.85232" lon="3.07993">
        <ele>491</ele>
        <time>2021-08-15T05:41:09Z</time>
      </trkpt>
      <trkpt lat="45.85233" lon="3.07991">
        <ele>491</ele>
        <time>2021-08-15T05:41:10Z</time>
      </trkpt>
      <trkpt lat="45.85233" lon="3.07989">
        <ele>491</ele>
        <time>2021-08-15T05:41:11Z</time>
      </trkpt>
      <trkpt lat="45.85233" lon="3.07987">
        <ele>491</ele>
        <time>2021-08-15T05:41:12Z</time>
      </trkpt>
      <trkpt lat="45.85234" lon="3.07985">
        <ele>491</ele>
        <time>2021-08-15T05:41:13Z</time>
      </trkpt>
      <trkpt lat="45.85234" lon="3.07983">
        <ele>491</ele>
        <time>2021-08-15T05:41:14Z</time>
      </trkpt>
      <trkpt lat="45.85235" lon="3.07981">
        <ele>491</ele>
        <time>2021-08-15T05:41:15Z</time>
      </trkpt>
      <trkpt lat="45.85235" lon="3.07979">
        <ele>491</ele>
        <time>2021-08-15T05:41:16Z</time>
      </trkpt>
      <trkpt lat="45.85236" lon="3.07976">
        <ele>491</ele>
        <time>2021-08-15T05:41:17Z</time>
      </trkpt>
      <trkpt lat="45.85236" lon="3.07974">
        <ele>491</ele>
        <time>2021-08-15T05:41:18Z</time>
      </trkpt>
      <trkpt lat="45.85236" lon="3.07972">
        <ele>491</ele>
        <time>2021-08-15T05:41:19Z</time>
      </trkpt>
      <trkpt lat="45.85236" lon="3.0797">
        <ele>491</ele>
        <time>2021-08-15T05:41:20Z</time>
      </trkpt>
      <trkpt lat="45.85236" lon="3.07968">
        <ele>491</ele>
        <time>2021-08-15T05:41:21Z</time>
      </trkpt>
      <trkpt lat="45.85237" lon="3.07966">
        <ele>491</ele>
        <time>2021-08-15T05:41:22Z</time>
      </trkpt>
      <trkpt lat="45.85237" lon="3.07964">
        <ele>491</ele>
        <time>2021-08-15T05:41:23Z</time>
      </trkpt>
      <trkpt lat="45.85238" lon="3.07962">
        <ele>491</ele>
        <time>2021-08-15T05:41:24Z</time>
      </trkpt>
      <trkpt lat="45.85238" lon="3.07959">
        <ele>491</ele>
        <time>2021-08-15T05:41:25Z</time>
      </trkpt>
      <trkpt lat="45.85238" lon="3.07957">
        <ele>491</ele>
        <time>2021-08-15T05:41:26Z</time>
      </trkpt>
      <trkpt lat="45.85238" lon="3.07955">
        <ele>491</ele>
        <time>2021-08-15T05:41:27Z</time>
      </trkpt>
      <trkpt lat="45.85238" lon="3.07953">
        <ele>491</ele>
        <time>2021-08-15T05:41:28Z</time>
      </trkpt>
      <trkpt lat="45.85238" lon="3.0795">
        <ele>491</ele>
        <time>2021-08-15T05:41:29Z</time>
      </trkpt>
      <trkpt lat="45.85238" lon="3.07948">
        <ele>491</ele>
        <time>2021-08-15T05:41:30Z</time>
      </trkpt>
      <trkpt lat="45.85239" lon="3.07946">
        <ele>491</ele>
        <time>2021-08-15T05:41:31Z</time>
      </trkpt>
      <trkpt lat="45.85239" lon="3.07943">
        <ele>491</ele>
        <time>2021-08-15T05:41:32Z</time>
      </trkpt>
      <trkpt lat="45.85239" lon="3.07941">
        <ele>491</ele>
        <time>2021-08-15T05:41:33Z</time>
      </trkpt>
      <trkpt lat="45.85239" lon="3.07939">
        <ele>491</ele>
        <time>2021-08-15T05:41:34Z</time>
      </trkpt>
      <trkpt lat="45.85238" lon="3.07937">
        <ele>491</ele>
        <time>2021-08-15T05:41:35Z</time>
      </trkpt>
      <trkpt lat="45.85238" lon="3.07935">
        <ele>491</ele>
        <time>2021-08-15T05:41:36Z</time>
      </trkpt>
      <trkpt lat="45.85238" lon="3.07933">
        <ele>491</ele>
        <time>2021-08-15T05:41:37Z</time>
      </trkpt>
      <trkpt lat="45.85238" lon="3.07931">
        <ele>491</ele>
        <time>2021-08-15T05:41:38Z</time>
      </trkpt>
      <trkpt lat="45.85238" lon="3.07929">
        <ele>491</ele>
        <time>2021-08-15T05:41:39Z</time>
      </trkpt>
      <trkpt lat="45.85238" lon="3.07926">
        <ele>491</ele>
        <time>2021-08-15T05:41:40Z</time>
      </trkpt>
      <trkpt lat="45.85238" lon="3.07924">
        <ele>491</ele>
        <time>2021-08-15T05:41:41Z</time>
      </trkpt>
      <trkpt lat="45.85238" lon="3.07922">
        <ele>491</ele>
        <time>2021-08-15T05:41:42Z</time>
      </trkpt>
      <trkpt lat="45.85238" lon="3.0792">
        <ele>491</ele>
        <time>2021-08-15T05:41:43Z</time>
      </trkpt>
      <trkpt lat="45.85238" lon="3.07918">
        <ele>491</ele>
        <time>2021-08-15T05:41:44Z</time>
      </trkpt>
      <trkpt lat="45.85237" lon="3.07916">
        <ele>491</ele>
        <time>2021-08-15T05:41:45Z</time>
      </trkpt>
      <trkpt lat="45.85237" lon="3.07913">
        <ele>491</ele>
        <time>2021-08-15T05:41:46Z</time>
      </trkpt>
      <trkpt lat="45.85236" lon="3.07911">
        <ele>491</ele>
        <time>2021-08-15T05:41:47Z</time>
      </trkpt>
      <trkpt lat="45.85236" lon="3.07909">
        <ele>491</ele>
        <time>2021-08-15T05:41:48Z</time>
      </trkpt>
      <trkpt lat="45.85236" lon="3.07906">
        <ele>491</ele>
        <time>2021-08-15T05:41:49Z</time>
      </trkpt>
      <trkpt lat="45.85236" lon="3.07904">
        <ele>491</ele>
        <time>2021-08-15T05:41:50Z</time>
      </trkpt>
      <trkpt lat="45.85236" lon="3.07902">
        <ele>491</ele>
        <time>2021-08-15T05:41:51Z</time>
      </trkpt>
      <trkpt lat="45.85236" lon="3.079">
        <ele>491</ele>
        <time>2021-08-15T05:41:52Z</time>
      </trkpt>
      <trkpt lat="45.85235" lon="3.07898">
        <ele>491</ele>
        <time>2021-08-15T05:41:53Z</time>
      </trkpt>
      <trkpt lat="45.85235" lon="3.07895">
        <ele>491</ele>
        <time>2021-08-15T05:41:54Z</time>
      </trkpt>
      <trkpt lat="45.85235" lon="3.07893">
        <ele>491</ele>
        <time>2021-08-15T05:41:55Z</time>
      </trkpt>
      <trkpt lat="45.85234" lon="3.07891">
        <ele>491</ele>
        <time>2021-08-15T05:41:57Z</time>
      </trkpt>
      <trkpt lat="45.85233" lon="3.07882">
        <ele>491</ele>
        <time>2021-08-15T05:41:59Z</time>
      </trkpt>
      <trkpt lat="45.85233" lon="3.07878">
        <ele>491</ele>
        <time>2021-08-15T05:42:00Z</time>
      </trkpt>
      <trkpt lat="45.85233" lon="3.07877">
        <ele>491</ele>
        <time>2021-08-15T05:42:01Z</time>
      </trkpt>
      <trkpt lat="45.85232" lon="3.07876">
        <ele>491</ele>
        <time>2021-08-15T05:42:02Z</time>
      </trkpt>
      <trkpt lat="45.85232" lon="3.07874">
        <ele>491</ele>
        <time>2021-08-15T05:42:03Z</time>
      </trkpt>
      <trkpt lat="45.85231" lon="3.07872">
        <ele>491</ele>
        <time>2021-08-15T05:42:04Z</time>
      </trkpt>
      <trkpt lat="45.85231" lon="3.0787">
        <ele>491</ele>
        <time>2021-08-15T05:42:05Z</time>
      </trkpt>
      <trkpt lat="45.85231" lon="3.07868">
        <ele>491</ele>
        <time>2021-08-15T05:42:06Z</time>
      </trkpt>
      <trkpt lat="45.8523" lon="3.07865">
        <ele>491</ele>
        <time>2021-08-15T05:42:07Z</time>
      </trkpt>
      <trkpt lat="45.8523" lon="3.07863">
        <ele>491</ele>
        <time>2021-08-15T05:42:08Z</time>
      </trkpt>
      <trkpt lat="45.8523" lon="3.07861">
        <ele>491</ele>
        <time>2021-08-15T05:42:09Z</time>
      </trkpt>
      <trkpt lat="45.85229" lon="3.07858">
        <ele>491</ele>
        <time>2021-08-15T05:42:10Z</time>
      </trkpt>
      <trkpt lat="45.85229" lon="3.07856">
        <ele>491</ele>
        <time>2021-08-15T05:42:11Z</time>
      </trkpt>
      <trkpt lat="45.85228" lon="3.07854">
        <ele>491</ele>
        <time>2021-08-15T05:42:12Z</time>
      </trkpt>
      <trkpt lat="45.85228" lon="3.07851">
        <ele>491</ele>
        <time>2021-08-15T05:42:13Z</time>
      </trkpt>
      <trkpt lat="45.85227" lon="3.07849">
        <ele>491</ele>
        <time>2021-08-15T05:42:14Z</time>
      </trkpt>
      <trkpt lat="45.85227" lon="3.07846">
        <ele>491</ele>
        <time>2021-08-15T05:42:15Z</time>
      </trkpt>
      <trkpt lat="45.85226" lon="3.07844">
        <ele>491</ele>
        <time>2021-08-15T05:42:16Z</time>
      </trkpt>
      <trkpt lat="45.85226" lon="3.07841">
        <ele>491</ele>
        <time>2021-08-15T05:42:17Z</time>
      </trkpt>
      <trkpt lat="45.85225" lon="3.07839">
        <ele>491</ele>
        <time>2021-08-15T05:42:18Z</time>
      </trkpt>
      <trkpt lat="45.85225" lon="3.07836">
        <ele>491</ele>
        <time>2021-08-15T05:42:19Z</time>
      </trkpt>
      <trkpt lat="45.85224" lon="3.07834">
        <ele>491</ele>
        <time>2021-08-15T05:42:20Z</time>
      </trkpt>
      <trkpt lat="45.85224" lon="3.07831">
        <ele>491</ele>
        <time>2021-08-15T05:42:21Z</time>
      </trkpt>
      <trkpt lat="45.85223" lon="3.07829">
        <ele>491</ele>
        <time>2021-08-15T05:42:22Z</time>
      </trkpt>
      <trkpt lat="45.85223" lon="3.07826">
        <ele>491</ele>
        <time>2021-08-15T05:42:23Z</time>
      </trkpt>
      <trkpt lat="45.85222" lon="3.07823">
        <ele>491</ele>
        <time>2021-08-15T05:42:24Z</time>
      </trkpt>
      <trkpt lat="45.85221" lon="3.0782">
        <ele>491</ele>
        <time>2021-08-15T05:42:25Z</time>
      </trkpt>
      <trkpt lat="45.85221" lon="3.07817">
        <ele>491</ele>
        <time>2021-08-15T05:42:26Z</time>
      </trkpt>
      <trkpt lat="45.8522" lon="3.07815">
        <ele>491</ele>
        <time>2021-08-15T05:42:27Z</time>
      </trkpt>
      <trkpt lat="45.8522" lon="3.07812">
        <ele>491</ele>
        <time>2021-08-15T05:42:28Z</time>
      </trkpt>
      <trkpt lat="45.85219" lon="3.0781">
        <ele>491</ele>
        <time>2021-08-15T05:42:29Z</time>
      </trkpt>
      <trkpt lat="45.85218" lon="3.07807">
        <ele>491</ele>
        <time>2021-08-15T05:42:30Z</time>
      </trkpt>
      <trkpt lat="45.85218" lon="3.07805">
        <ele>491</ele>
        <time>2021-08-15T05:42:31Z</time>
      </trkpt>
      <trkpt lat="45.85218" lon="3.07802">
        <ele>491</ele>
        <time>2021-08-15T05:42:32Z</time>
      </trkpt>
      <trkpt lat="45.85217" lon="3.078">
        <ele>491</ele>
        <time>2021-08-15T05:42:33Z</time>
      </trkpt>
      <trkpt lat="45.85217" lon="3.07798">
        <ele>491</ele>
        <time>2021-08-15T05:42:34Z</time>
      </trkpt>
      <trkpt lat="45.85217" lon="3.07795">
        <ele>491</ele>
        <time>2021-08-15T05:42:35Z</time>
      </trkpt>
      <trkpt lat="45.85217" lon="3.07793">
        <ele>491</ele>
        <time>2021-08-15T05:42:36Z</time>
      </trkpt>
      <trkpt lat="45.85216" lon="3.07791">
        <ele>491</ele>
        <time>2021-08-15T05:42:37Z</time>
      </trkpt>
      <trkpt lat="45.85216" lon="3.07788">
        <ele>491</ele>
        <time>2021-08-15T05:42:38Z</time>
      </trkpt>
      <trkpt lat="45.85215" lon="3.07785">
        <ele>491</ele>
        <time>2021-08-15T05:42:39Z</time>
      </trkpt>
      <trkpt lat="45.85215" lon="3.07782">
        <ele>491</ele>
        <time>2021-08-15T05:42:40Z</time>
      </trkpt>
      <trkpt lat="45.85214" lon="3.07778">
        <ele>491</ele>
        <time>2021-08-15T05:42:41Z</time>
      </trkpt>
      <trkpt lat="45.85212" lon="3.07774">
        <ele>491</ele>
        <time>2021-08-15T05:42:42Z</time>
      </trkpt>
      <trkpt lat="45.85212" lon="3.0777">
        <ele>491</ele>
        <time>2021-08-15T05:42:43Z</time>
      </trkpt>
      <trkpt lat="45.8521" lon="3.07766">
        <ele>491</ele>
        <time>2021-08-15T05:42:44Z</time>
      </trkpt>
      <trkpt lat="45.85209" lon="3.07762">
        <ele>491</ele>
        <time>2021-08-15T05:42:45Z</time>
      </trkpt>
      <trkpt lat="45.85207" lon="3.07759">
        <ele>491</ele>
        <time>2021-08-15T05:42:46Z</time>
      </trkpt>
      <trkpt lat="45.85206" lon="3.07756">
        <ele>491</ele>
        <time>2021-08-15T05:42:47Z</time>
      </trkpt>
      <trkpt lat="45.85204" lon="3.07752">
        <ele>491</ele>
        <time>2021-08-15T05:42:48Z</time>
      </trkpt>
      <trkpt lat="45.85203" lon="3.0775">
        <ele>491</ele>
        <time>2021-08-15T05:42:49Z</time>
      </trkpt>
      <trkpt lat="45.85201" lon="3.07747">
        <ele>491</ele>
        <time>2021-08-15T05:42:50Z</time>
      </trkpt>
      <trkpt lat="45.852" lon="3.07745">
        <ele>491</ele>
        <time>2021-08-15T05:42:51Z</time>
      </trkpt>
      <trkpt lat="45.85198" lon="3.07744">
        <ele>491</ele>
        <time>2021-08-15T05:42:52Z</time>
      </trkpt>
      <trkpt lat="45.85197" lon="3.07743">
        <ele>491</ele>
        <time>2021-08-15T05:42:52Z</time>
      </trkpt>
      <trkpt lat="45.85194" lon="3.07741">
        <ele>491</ele>
        <time>2021-08-15T05:42:53Z</time>
      </trkpt>
      <trkpt lat="45.85193" lon="3.0774">
        <ele>491</ele>
        <time>2021-08-15T05:42:54Z</time>
      </trkpt>
      <trkpt lat="45.85191" lon="3.07739">
        <ele>491</ele>
        <time>2021-08-15T05:42:55Z</time>
      </trkpt>
      <trkpt lat="45.85191" lon="3.07738">
        <ele>491</ele>
        <time>2021-08-15T05:42:56Z</time>
      </trkpt>
      <trkpt lat="45.8519" lon="3.07738">
        <ele>491</ele>
        <time>2021-08-15T05:42:58Z</time>
      </trkpt>
      <trkpt lat="45.8519" lon="3.07735">
        <ele>491</ele>
        <time>2021-08-15T05:42:59Z</time>
      </trkpt>
      <trkpt lat="45.8519" lon="3.07735">
        <ele>491</ele>
        <time>2021-08-15T05:43:00Z</time>
      </trkpt>
      <trkpt lat="45.8519" lon="3.07734">
        <ele>491</ele>
        <time>2021-08-15T05:43:01Z</time>
      </trkpt>
      <trkpt lat="45.8519" lon="3.07733">
        <ele>491</ele>
        <time>2021-08-15T05:43:02Z</time>
      </trkpt>
      <trkpt lat="45.85189" lon="3.07732">
        <ele>491</ele>
        <time>2021-08-15T05:43:03Z</time>
      </trkpt>
      <trkpt lat="45.85189" lon="3.07731">
        <ele>491</ele>
        <time>2021-08-15T05:43:04Z</time>
      </trkpt>
      <trkpt lat="45.85188" lon="3.07729">
        <ele>491</ele>
        <time>2021-08-15T05:43:05Z</time>
      </trkpt>
      <trkpt lat="45.85188" lon="3.07727">
        <ele>491</ele>
        <time>2021-08-15T05:43:06Z</time>
      </trkpt>
      <trkpt lat="45.85187" lon="3.07726">
        <ele>491</ele>
        <time>2021-08-15T05:43:07Z</time>
      </trkpt>
      <trkpt lat="45.85186" lon="3.07724">
        <ele>491</ele>
        <time>2021-08-15T05:43:08Z</time>
      </trkpt>
      <trkpt lat="45.85186" lon="3.07723">
        <ele>491</ele>
        <time>2021-08-15T05:43:09Z</time>
      </trkpt>
      <trkpt lat="45.85185" lon="3.07721">
        <ele>491</ele>
        <time>2021-08-15T05:43:10Z</time>
      </trkpt>
      <trkpt lat="45.85185" lon="3.0772">
        <ele>491</ele>
        <time>2021-08-15T05:43:11Z</time>
      </trkpt>
      <trkpt lat="45.85184" lon="3.07718">
        <ele>491</ele>
        <time>2021-08-15T05:43:12Z</time>
      </trkpt>
      <trkpt lat="45.85183" lon="3.07717">
        <ele>491</ele>
        <time>2021-08-15T05:43:13Z</time>
      </trkpt>
      <trkpt lat="45.85183" lon="3.07716">
        <ele>491</ele>
        <time>2021-08-15T05:43:14Z</time>
      </trkpt>
      <trkpt lat="45.85182" lon="3.07714">
        <ele>491</ele>
        <time>2021-08-15T05:43:15Z</time>
      </trkpt>
      <trkpt lat="45.85181" lon="3.07713">
        <ele>491</ele>
        <time>2021-08-15T05:43:16Z</time>
      </trkpt>
      <trkpt lat="45.85181" lon="3.07711">
        <ele>491</ele>
        <time>2021-08-15T05:43:17Z</time>
      </trkpt>
      <trkpt lat="45.8518" lon="3.0771">
        <ele>491</ele>
        <time>2021-08-15T05:43:18Z</time>
      </trkpt>
      <trkpt lat="45.8518" lon="3.07708">
        <ele>491</ele>
        <time>2021-08-15T05:43:19Z</time>
      </trkpt>
      <trkpt lat="45.85179" lon="3.07706">
        <ele>491</ele>
        <time>2021-08-15T05:43:20Z</time>
      </trkpt>
      <trkpt lat="45.85178" lon="3.07705">
        <ele>491</ele>
        <time>2021-08-15T05:43:21Z</time>
      </trkpt>
      <trkpt lat="45.85178" lon="3.07703">
        <ele>491</ele>
        <time>2021-08-15T05:43:22Z</time>
      </trkpt>
      <trkpt lat="45.85178" lon="3.07701">
        <ele>491</ele>
        <time>2021-08-15T05:43:23Z</time>
      </trkpt>
      <trkpt lat="45.85177" lon="3.07699">
        <ele>491</ele>
        <time>2021-08-15T05:43:24Z</time>
      </trkpt>
      <trkpt lat="45.85177" lon="3.07697">
        <ele>491</ele>
        <time>2021-08-15T05:43:25Z</time>
      </trkpt>
      <trkpt lat="45.85177" lon="3.07696">
        <ele>491</ele>
        <time>2021-08-15T05:43:26Z</time>
      </trkpt>
      <trkpt lat="45.85176" lon="3.07694">
        <ele>491</ele>
        <time>2021-08-15T05:43:27Z</time>
      </trkpt>
      <trkpt lat="45.85176" lon="3.07692">
        <ele>491</ele>
        <time>2021-08-15T05:43:28Z</time>
      </trkpt>
      <trkpt lat="45.85176" lon="3.0769">
        <ele>491</ele>
        <time>2021-08-15T05:43:29Z</time>
      </trkpt>
      <trkpt lat="45.85176" lon="3.07688">
        <ele>491</ele>
        <time>2021-08-15T05:43:30Z</time>
      </trkpt>
      <trkpt lat="45.85175" lon="3.07687">
        <ele>491</ele>
        <time>2021-08-15T05:43:31Z</time>
      </trkpt>
      <trkpt lat="45.85175" lon="3.07685">
        <ele>491</ele>
        <time>2021-08-15T05:43:32Z</time>
      </trkpt>
      <trkpt lat="45.85175" lon="3.07683">
        <ele>491</ele>
        <time>2021-08-15T05:43:33Z</time>
      </trkpt>
      <trkpt lat="45.85175" lon="3.07681">
        <ele>491</ele>
        <time>2021-08-15T05:43:34Z</time>
      </trkpt>
      <trkpt lat="45.85174" lon="3.07679">
        <ele>491</ele>
        <time>2021-08-15T05:43:35Z</time>
      </trkpt>
      <trkpt lat="45.85173" lon="3.07677">
        <ele>491</ele>
        <time>2021-08-15T05:43:36Z</time>
      </trkpt>
      <trkpt lat="45.85173" lon="3.07674">
        <ele>491</ele>
        <time>2021-08-15T05:43:37Z</time>
      </trkpt>
      <trkpt lat="45.85173" lon="3.07672">
        <ele>491</ele>
        <time>2021-08-15T05:43:38Z</time>
      </trkpt>
      <trkpt lat="45.85173" lon="3.0767">
        <ele>491</ele>
        <time>2021-08-15T05:43:39Z</time>
      </trkpt>
      <trkpt lat="45.85173" lon="3.07668">
        <ele>491</ele>
        <time>2021-08-15T05:43:40Z</time>
      </trkpt>
      <trkpt lat="45.85172" lon="3.07666">
        <ele>491</ele>
        <time>2021-08-15T05:43:41Z</time>
      </trkpt>
      <trkpt lat="45.85172" lon="3.07664">
        <ele>491</ele>
        <time>2021-08-15T05:43:42Z</time>
      </trkpt>
      <trkpt lat="45.85172" lon="3.07662">
        <ele>491</ele>
        <time>2021-08-15T05:43:43Z</time>
      </trkpt>
      <trkpt lat="45.85171" lon="3.0766">
        <ele>491</ele>
        <time>2021-08-15T05:43:44Z</time>
      </trkpt>
      <trkpt lat="45.8517" lon="3.07658">
        <ele>491</ele>
        <time>2021-08-15T05:43:45Z</time>
      </trkpt>
      <trkpt lat="45.8517" lon="3.07656">
        <ele>491</ele>
        <time>2021-08-15T05:43:46Z</time>
      </trkpt>
      <trkpt lat="45.85169" lon="3.07654">
        <ele>491</ele>
        <time>2021-08-15T05:43:47Z</time>
      </trkpt>
      <trkpt lat="45.85169" lon="3.07652">
        <ele>491</ele>
        <time>2021-08-15T05:43:48Z</time>
      </trkpt>
      <trkpt lat="45.85169" lon="3.0765">
        <ele>491</ele>
        <time>2021-08-15T05:43:49Z</time>
      </trkpt>
      <trkpt lat="45.85169" lon="3.07648">
        <ele>491</ele>
        <time>2021-08-15T05:43:50Z</time>
      </trkpt>
      <trkpt lat="45.85168" lon="3.07646">
        <ele>491</ele>
        <time>2021-08-15T05:43:51Z</time>
      </trkpt>
      <trkpt lat="45.85168" lon="3.07644">
        <ele>491</ele>
        <time>2021-08-15T05:43:52Z</time>
      </trkpt>
      <trkpt lat="45.85168" lon="3.07642">
        <ele>491</ele>
        <time>2021-08-15T05:43:53Z</time>
      </trkpt>
      <trkpt lat="45.85167" lon="3.0764">
        <ele>491</ele>
        <time>2021-08-15T05:43:54Z</time>
      </trkpt>
      <trkpt lat="45.85167" lon="3.07638">
        <ele>491</ele>
        <time>2021-08-15T05:43:55Z</time>
      </trkpt>
      <trkpt lat="45.85167" lon="3.07636">
        <ele>491</ele>
        <time>2021-08-15T05:43:57Z</time>
      </trkpt>
      <trkpt lat="45.85166" lon="3.07629">
        <ele>491</ele>
        <time>2021-08-15T05:43:58Z</time>
      </trkpt>
      <trkpt lat="45.85166" lon="3.07628">
        <ele>491</ele>
        <time>2021-08-15T05:43:59Z</time>
      </trkpt>
      <trkpt lat="45.85166" lon="3.07627">
        <ele>491</ele>
        <time>2021-08-15T05:44:00Z</time>
      </trkpt>
      <trkpt lat="45.85166" lon="3.07626">
        <ele>491</ele>
        <time>2021-08-15T05:44:01Z</time>
      </trkpt>
      <trkpt lat="45.85166" lon="3.07624">
        <ele>491</ele>
        <time>2021-08-15T05:44:02Z</time>
      </trkpt>
      <trkpt lat="45.85166" lon="3.07623">
        <ele>491</ele>
        <time>2021-08-15T05:44:03Z</time>
      </trkpt>
      <trkpt lat="45.85165" lon="3.07621">
        <ele>491</ele>
        <time>2021-08-15T05:44:04Z</time>
      </trkpt>
      <trkpt lat="45.85165" lon="3.07619">
        <ele>491</ele>
        <time>2021-08-15T05:44:05Z</time>
      </trkpt>
      <trkpt lat="45.85165" lon="3.07618">
        <ele>491</ele>
        <time>2021-08-15T05:44:06Z</time>
      </trkpt>
      <trkpt lat="45.85164" lon="3.07616">
        <ele>491</ele>
        <time>2021-08-15T05:44:07Z</time>
      </trkpt>
      <trkpt lat="45.85164" lon="3.07614">
        <ele>491</ele>
        <time>2021-08-15T05:44:08Z</time>
      </trkpt>
      <trkpt lat="45.85164" lon="3.07612">
        <ele>491</ele>
        <time>2021-08-15T05:44:09Z</time>
      </trkpt>
      <trkpt lat="45.85163" lon="3.0761">
        <ele>491</ele>
        <time>2021-08-15T05:44:10Z</time>
      </trkpt>
      <trkpt lat="45.85163" lon="3.07608">
        <ele>491</ele>
        <time>2021-08-15T05:44:11Z</time>
      </trkpt>
      <trkpt lat="45.85163" lon="3.07606">
        <ele>491</ele>
        <time>2021-08-15T05:44:12Z</time>
      </trkpt>
      <trkpt lat="45.85162" lon="3.07604">
        <ele>491</ele>
        <time>2021-08-15T05:44:13Z</time>
      </trkpt>
      <trkpt lat="45.85162" lon="3.07602">
        <ele>491</ele>
        <time>2021-08-15T05:44:14Z</time>
      </trkpt>
      <trkpt lat="45.85162" lon="3.076">
        <ele>491</ele>
        <time>2021-08-15T05:44:15Z</time>
      </trkpt>
      <trkpt lat="45.85161" lon="3.07598">
        <ele>491</ele>
        <time>2021-08-15T05:44:16Z</time>
      </trkpt>
      <trkpt lat="45.85161" lon="3.07596">
        <ele>491</ele>
        <time>2021-08-15T05:44:17Z</time>
      </trkpt>
      <trkpt lat="45.85161" lon="3.07593">
        <ele>491</ele>
        <time>2021-08-15T05:44:18Z</time>
      </trkpt>
      <trkpt lat="45.85161" lon="3.07591">
        <ele>491</ele>
        <time>2021-08-15T05:44:19Z</time>
      </trkpt>
      <trkpt lat="45.8516" lon="3.07589">
        <ele>491</ele>
        <time>2021-08-15T05:44:20Z</time>
      </trkpt>
      <trkpt lat="45.8516" lon="3.07587">
        <ele>491</ele>
        <time>2021-08-15T05:44:21Z</time>
      </trkpt>
      <trkpt lat="45.8516" lon="3.07585">
        <ele>491</ele>
        <time>2021-08-15T05:44:22Z</time>
      </trkpt>
      <trkpt lat="45.85159" lon="3.07583">
        <ele>491</ele>
        <time>2021-08-15T05:44:23Z</time>
      </trkpt>
      <trkpt lat="45.85159" lon="3.07581">
        <ele>491</ele>
        <time>2021-08-15T05:44:24Z</time>
      </trkpt>
      <trkpt lat="45.85158" lon="3.07579">
        <ele>491</ele>
        <time>2021-08-15T05:44:25Z</time>
      </trkpt>
      <trkpt lat="45.85158" lon="3.07577">
        <ele>491</ele>
        <time>2021-08-15T05:44:26Z</time>
      </trkpt>
      <trkpt lat="45.85157" lon="3.07575">
        <ele>491</ele>
        <time>2021-08-15T05:44:27Z</time>
      </trkpt>
      <trkpt lat="45.85156" lon="3.07573">
        <ele>491</ele>
        <time>2021-08-15T05:44:28Z</time>
      </trkpt>
      <trkpt lat="45.85156" lon="3.07571">
        <ele>491</ele>
        <time>2021-08-15T05:44:29Z</time>
      </trkpt>
      <trkpt lat="45.85156" lon="3.07569">
        <ele>491</ele>
        <time>2021-08-15T05:44:30Z</time>
      </trkpt>
      <trkpt lat="45.85155" lon="3.07566">
        <ele>491</ele>
        <time>2021-08-15T05:44:31Z</time>
      </trkpt>
      <trkpt lat="45.85155" lon="3.07564">
        <ele>491</ele>
        <time>2021-08-15T05:44:32Z</time>
      </trkpt>
      <trkpt lat="45.85154" lon="3.07562">
        <ele>491</ele>
        <time>2021-08-15T05:44:33Z</time>
      </trkpt>
      <trkpt lat="45.85154" lon="3.0756">
        <ele>491</ele>
        <time>2021-08-15T05:44:34Z</time>
      </trkpt>
      <trkpt lat="45.85153" lon="3.07558">
        <ele>491</ele>
        <time>2021-08-15T05:44:35Z</time>
      </trkpt>
      <trkpt lat="45.85152" lon="3.07556">
        <ele>491</ele>
        <time>2021-08-15T05:44:36Z</time>
      </trkpt>
      <trkpt lat="45.85152" lon="3.07554">
        <ele>491</ele>
        <time>2021-08-15T05:44:37Z</time>
      </trkpt>
      <trkpt lat="45.85152" lon="3.07552">
        <ele>491</ele>
        <time>2021-08-15T05:44:38Z</time>
      </trkpt>
      <trkpt lat="45.85151" lon="3.0755">
        <ele>491</ele>
        <time>2021-08-15T05:44:39Z</time>
      </trkpt>
      <trkpt lat="45.8515" lon="3.07548">
        <ele>491</ele>
        <time>2021-08-15T05:44:40Z</time>
      </trkpt>
      <trkpt lat="45.85149" lon="3.07546">
        <ele>491</ele>
        <time>2021-08-15T05:44:41Z</time>
      </trkpt>
      <trkpt lat="45.85148" lon="3.07544">
        <ele>491</ele>
        <time>2021-08-15T05:44:42Z</time>
      </trkpt>
      <trkpt lat="45.85148" lon="3.07542">
        <ele>491</ele>
        <time>2021-08-15T05:44:43Z</time>
      </trkpt>
      <trkpt lat="45.85148" lon="3.0754">
        <ele>491</ele>
        <time>2021-08-15T05:44:44Z</time>
      </trkpt>
      <trkpt lat="45.85147" lon="3.07539">
        <ele>491</ele>
        <time>2021-08-15T05:44:45Z</time>
      </trkpt>
      <trkpt lat="45.85146" lon="3.07537">
        <ele>491</ele>
        <time>2021-08-15T05:44:46Z</time>
      </trkpt>
      <trkpt lat="45.85146" lon="3.07536">
        <ele>491</ele>
        <time>2021-08-15T05:44:47Z</time>
      </trkpt>
      <trkpt lat="45.85145" lon="3.07534">
        <ele>491</ele>
        <time>2021-08-15T05:44:48Z</time>
      </trkpt>
      <trkpt lat="45.85145" lon="3.07532">
        <ele>491</ele>
        <time>2021-08-15T05:44:49Z</time>
      </trkpt>
      <trkpt lat="45.85144" lon="3.07531">
        <ele>491</ele>
        <time>2021-08-15T05:44:50Z</time>
      </trkpt>
      <trkpt lat="45.85144" lon="3.07529">
        <ele>491</ele>
        <time>2021-08-15T05:44:51Z</time>
      </trkpt>
      <trkpt lat="45.85143" lon="3.07527">
        <ele>491</ele>
        <time>2021-08-15T05:44:52Z</time>
      </trkpt>
      <trkpt lat="45.85142" lon="3.07525">
        <ele>491</ele>
        <time>2021-08-15T05:44:53Z</time>
      </trkpt>
      <trkpt lat="45.85142" lon="3.07523">
        <ele>491</ele>
        <time>2021-08-15T05:44:54Z</time>
      </trkpt>
      <trkpt lat="45.85141" lon="3.07521">
        <ele>491</ele>
        <time>2021-08-15T05:44:56Z</time>
      </trkpt>
      <trkpt lat="45.85139" lon="3.07513">
        <ele>491</ele>
        <time>2021-08-15T05:44:58Z</time>
      </trkpt>
      <trkpt lat="45.85138" lon="3.07509">
        <ele>491</ele>
        <time>2021-08-15T05:44:59Z</time>
      </trkpt>
      <trkpt lat="45.85138" lon="3.07509">
        <ele>491</ele>
        <time>2021-08-15T05:45:00Z</time>
      </trkpt>
      <trkpt lat="45.85137" lon="3.07508">
        <ele>491</ele>
        <time>2021-08-15T05:45:01Z</time>
      </trkpt>
      <trkpt lat="45.85137" lon="3.07507">
        <ele>491</ele>
        <time>2021-08-15T05:45:02Z</time>
      </trkpt>
      <trkpt lat="45.85137" lon="3.07506">
        <ele>491</ele>
        <time>2021-08-15T05:45:03Z</time>
      </trkpt>
      <trkpt lat="45.85136" lon="3.07505">
        <ele>491</ele>
        <time>2021-08-15T05:45:04Z</time>
      </trkpt>
      <trkpt lat="45.85136" lon="3.07503">
        <ele>491</ele>
        <time>2021-08-15T05:45:05Z</time>
      </trkpt>
      <trkpt lat="45.85135" lon="3.07502">
        <ele>491</ele>
        <time>2021-08-15T05:45:06Z</time>
      </trkpt>
      <trkpt lat="45.85135" lon="3.07501">
        <ele>491</ele>
        <time>2021-08-15T05:45:07Z</time>
      </trkpt>
      <trkpt lat="45.85135" lon="3.07499">
        <ele>491</ele>
        <time>2021-08-15T05:45:08Z</time>
      </trkpt>
      <trkpt lat="45.85135" lon="3.07498">
        <ele>491</ele>
        <time>2021-08-15T05:45:09Z</time>
      </trkpt>
      <trkpt lat="45.85134" lon="3.07496">
        <ele>491</ele>
        <time>2021-08-15T05:45:10Z</time>
      </trkpt>
      <trkpt lat="45.85134" lon="3.07495">
        <ele>491</ele>
        <time>2021-08-15T05:45:11Z</time>
      </trkpt>
      <trkpt lat="45.85134" lon="3.07494">
        <ele>491</ele>
        <time>2021-08-15T05:45:12Z</time>
      </trkpt>
      <trkpt lat="45.85133" lon="3.07493">
        <ele>491</ele>
        <time>2021-08-15T05:45:13Z</time>
      </trkpt>
      <trkpt lat="45.85133" lon="3.07492">
        <ele>491</ele>
        <time>2021-08-15T05:45:14Z</time>
      </trkpt>
      <trkpt lat="45.85133" lon="3.0749">
        <ele>491</ele>
        <time>2021-08-15T05:45:15Z</time>
      </trkpt>
      <trkpt lat="45.85132" lon="3.07489">
        <ele>491</ele>
        <time>2021-08-15T05:45:16Z</time>
      </trkpt>
      <trkpt lat="45.85132" lon="3.07488">
        <ele>491</ele>
        <time>2021-08-15T05:45:17Z</time>
      </trkpt>
      <trkpt lat="45.85132" lon="3.07487">
        <ele>491</ele>
        <time>2021-08-15T05:45:18Z</time>
      </trkpt>
      <trkpt lat="45.85131" lon="3.07485">
        <ele>491</ele>
        <time>2021-08-15T05:45:19Z</time>
      </trkpt>
      <trkpt lat="45.8513" lon="3.07484">
        <ele>491</ele>
        <time>2021-08-15T05:45:20Z</time>
      </trkpt>
      <trkpt lat="45.8513" lon="3.07482">
        <ele>491</ele>
        <time>2021-08-15T05:45:21Z</time>
      </trkpt>
      <trkpt lat="45.8513" lon="3.0748">
        <ele>491</ele>
        <time>2021-08-15T05:45:22Z</time>
      </trkpt>
      <trkpt lat="45.8513" lon="3.07479">
        <ele>491</ele>
        <time>2021-08-15T05:45:23Z</time>
      </trkpt>
      <trkpt lat="45.85129" lon="3.07477">
        <ele>491</ele>
        <time>2021-08-15T05:45:24Z</time>
      </trkpt>
      <trkpt lat="45.85128" lon="3.07476">
        <ele>491</ele>
        <time>2021-08-15T05:45:25Z</time>
      </trkpt>
      <trkpt lat="45.85128" lon="3.07474">
        <ele>491</ele>
        <time>2021-08-15T05:45:26Z</time>
      </trkpt>
      <trkpt lat="45.85127" lon="3.07472">
        <ele>491</ele>
        <time>2021-08-15T05:45:27Z</time>
      </trkpt>
      <trkpt lat="45.85127" lon="3.0747">
        <ele>491</ele>
        <time>2021-08-15T05:45:28Z</time>
      </trkpt>
      <trkpt lat="45.85127" lon="3.07468">
        <ele>491</ele>
        <time>2021-08-15T05:45:29Z</time>
      </trkpt>
      <trkpt lat="45.85127" lon="3.07466">
        <ele>491</ele>
        <time>2021-08-15T05:45:30Z</time>
      </trkpt>
      <trkpt lat="45.85126" lon="3.07465">
        <ele>491</ele>
        <time>2021-08-15T05:45:31Z</time>
      </trkpt>
      <trkpt lat="45.85125" lon="3.07463">
        <ele>491</ele>
        <time>2021-08-15T05:45:32Z</time>
      </trkpt>
      <trkpt lat="45.85125" lon="3.07461">
        <ele>491</ele>
        <time>2021-08-15T05:45:33Z</time>
      </trkpt>
      <trkpt lat="45.85125" lon="3.07459">
        <ele>491</ele>
        <time>2021-08-15T05:45:34Z</time>
      </trkpt>
      <trkpt lat="45.85124" lon="3.07457">
        <ele>491</ele>
        <time>2021-08-15T05:45:35Z</time>
      </trkpt>
      <trkpt lat="45.85124" lon="3.07456">
        <ele>491</ele>
        <time>2021-08-15T05:45:36Z</time>
      </trkpt>
      <trkpt lat="45.85124" lon="3.07454">
        <ele>491</ele>
        <time>2021-08-15T05:45:37Z</time>
      </trkpt>
      <trkpt lat="45.85123" lon="3.07453">
        <ele>491</ele>
        <time>2021-08-15T05:45:38Z</time>
      </trkpt>
      <trkpt lat="45.85123" lon="3.07451">
        <ele>491</ele>
        <time>2021-08-15T05:45:39Z</time>
      </trkpt>
      <trkpt lat="45.85122" lon="3.07449">
        <ele>491</ele>
        <time>2021-08-15T05:45:40Z</time>
      </trkpt>
      <trkpt lat="45.85122" lon="3.07448">
        <ele>491</ele>
        <time>2021-08-15T05:45:41Z</time>
      </trkpt>
      <trkpt lat="45.85121" lon="3.07446">
        <ele>491</ele>
        <time>2021-08-15T05:45:42Z</time>
      </trkpt>
      <trkpt lat="45.85121" lon="3.07445">
        <ele>491</ele>
        <time>2021-08-15T05:45:43Z</time>
      </trkpt>
      <trkpt lat="45.8512" lon="3.07443">
        <ele>491</ele>
        <time>2021-08-15T05:45:44Z</time>
      </trkpt>
      <trkpt lat="45.85119" lon="3.07442">
        <ele>491</ele>
        <time>2021-08-15T05:45:45Z</time>
      </trkpt>
      <trkpt lat="45.85118" lon="3.0744">
        <ele>491</ele>
        <time>2021-08-15T05:45:46Z</time>
      </trkpt>
      <trkpt lat="45.85118" lon="3.07439">
        <ele>491</ele>
        <time>2021-08-15T05:45:47Z</time>
      </trkpt>
      <trkpt lat="45.85117" lon="3.07437">
        <ele>491</ele>
        <time>2021-08-15T05:45:48Z</time>
      </trkpt>
      <trkpt lat="45.85116" lon="3.07436">
        <ele>491</ele>
        <time>2021-08-15T05:45:49Z</time>
      </trkpt>
      <trkpt lat="45.85115" lon="3.07434">
        <ele>491</ele>
        <time>2021-08-15T05:45:50Z</time>
      </trkpt>
      <trkpt lat="45.85115" lon="3.07432">
        <ele>491</ele>
        <time>2021-08-15T05:45:51Z</time>
      </trkpt>
      <trkpt lat="45.85114" lon="3.07431">
        <ele>491</ele>
        <time>2021-08-15T05:45:52Z</time>
      </trkpt>
      <trkpt lat="45.85113" lon="3.07429">
        <ele>491</ele>
        <time>2021-08-15T05:45:53Z</time>
      </trkpt>
      <trkpt lat="45.85112" lon="3.07428">
        <ele>491</ele>
        <time>2021-08-15T05:45:54Z</time>
      </trkpt>
      <trkpt lat="45.85111" lon="3.07426">
        <ele>491</ele>
        <time>2021-08-15T05:45:55Z</time>
      </trkpt>
      <trkpt lat="45.85111" lon="3.07425">
        <ele>491</ele>
        <time>2021-08-15T05:45:57Z</time>
      </trkpt>
      <trkpt lat="45.85107" lon="3.0742">
        <ele>491</ele>
        <time>2021-08-15T05:45:58Z</time>
      </trkpt>
      <trkpt lat="45.85107" lon="3.0742">
        <ele>491</ele>
        <time>2021-08-15T05:45:59Z</time>
      </trkpt>
      <trkpt lat="45.85107" lon="3.07419">
        <ele>491</ele>
        <time>2021-08-15T05:46:00Z</time>
      </trkpt>
      <trkpt lat="45.85106" lon="3.07418">
        <ele>491</ele>
        <time>2021-08-15T05:46:01Z</time>
      </trkpt>
      <trkpt lat="45.85106" lon="3.07417">
        <ele>491</ele>
        <time>2021-08-15T05:46:02Z</time>
      </trkpt>
      <trkpt lat="45.85106" lon="3.07416">
        <ele>491</ele>
        <time>2021-08-15T05:46:03Z</time>
      </trkpt>
      <trkpt lat="45.85104" lon="3.07415">
        <ele>491</ele>
        <time>2021-08-15T05:46:04Z</time>
      </trkpt>
      <trkpt lat="45.85103" lon="3.07414">
        <ele>491</ele>
        <time>2021-08-15T05:46:05Z</time>
      </trkpt>
      <trkpt lat="45.85103" lon="3.07413">
        <ele>491</ele>
        <time>2021-08-15T05:46:06Z</time>
      </trkpt>
      <trkpt lat="45.85102" lon="3.07412">
        <ele>491</ele>
        <time>2021-08-15T05:46:07Z</time>
      </trkpt>
      <trkpt lat="45.85101" lon="3.0741">
        <ele>491</ele>
        <time>2021-08-15T05:46:08Z</time>
      </trkpt>
      <trkpt lat="45.851" lon="3.07409">
        <ele>491</ele>
        <time>2021-08-15T05:46:09Z</time>
      </trkpt>
      <trkpt lat="45.85099" lon="3.07408">
        <ele>491</ele>
        <time>2021-08-15T05:46:10Z</time>
      </trkpt>
      <trkpt lat="45.85098" lon="3.07407">
        <ele>491</ele>
        <time>2021-08-15T05:46:11Z</time>
      </trkpt>
      <trkpt lat="45.85097" lon="3.07405">
        <ele>491</ele>
        <time>2021-08-15T05:46:12Z</time>
      </trkpt>
      <trkpt lat="45.85096" lon="3.07404">
        <ele>491</ele>
        <time>2021-08-15T05:46:13Z</time>
      </trkpt>
      <trkpt lat="45.85095" lon="3.07403">
        <ele>491</ele>
        <time>2021-08-15T05:46:14Z</time>
      </trkpt>
      <trkpt lat="45.85094" lon="3.07401">
        <ele>491</ele>
        <time>2021-08-15T05:46:15Z</time>
      </trkpt>
      <trkpt lat="45.85093" lon="3.074">
        <ele>491</ele>
        <time>2021-08-15T05:46:16Z</time>
      </trkpt>
      <trkpt lat="45.85091" lon="3.07398">
        <ele>491</ele>
        <time>2021-08-15T05:46:17Z</time>
      </trkpt>
      <trkpt lat="45.85091" lon="3.07396">
        <ele>491</ele>
        <time>2021-08-15T05:46:18Z</time>
      </trkpt>
      <trkpt lat="45.8509" lon="3.07394">
        <ele>491</ele>
        <time>2021-08-15T05:46:19Z</time>
      </trkpt>
      <trkpt lat="45.85088" lon="3.07392">
        <ele>491</ele>
        <time>2021-08-15T05:46:20Z</time>
      </trkpt>
      <trkpt lat="45.85088" lon="3.0739">
        <ele>491</ele>
        <time>2021-08-15T05:46:21Z</time>
      </trkpt>
      <trkpt lat="45.85086" lon="3.07389">
        <ele>491</ele>
        <time>2021-08-15T05:46:22Z</time>
      </trkpt>
      <trkpt lat="45.85085" lon="3.07386">
        <ele>491</ele>
        <time>2021-08-15T05:46:23Z</time>
      </trkpt>
      <trkpt lat="45.85084" lon="3.07385">
        <ele>491</ele>
        <time>2021-08-15T05:46:24Z</time>
      </trkpt>
      <trkpt lat="45.85083" lon="3.07383">
        <ele>491</ele>
        <time>2021-08-15T05:46:25Z</time>
      </trkpt>
      <trkpt lat="45.85082" lon="3.07381">
        <ele>491</ele>
        <time>2021-08-15T05:46:26Z</time>
      </trkpt>
      <trkpt lat="45.8508" lon="3.0738">
        <ele>491</ele>
        <time>2021-08-15T05:46:27Z</time>
      </trkpt>
      <trkpt lat="45.85079" lon="3.07378">
        <ele>491</ele>
        <time>2021-08-15T05:46:28Z</time>
      </trkpt>
      <trkpt lat="45.85078" lon="3.07377">
        <ele>491</ele>
        <time>2021-08-15T05:46:29Z</time>
      </trkpt>
      <trkpt lat="45.85077" lon="3.07375">
        <ele>491</ele>
        <time>2021-08-15T05:46:30Z</time>
      </trkpt>
      <trkpt lat="45.85076" lon="3.07373">
        <ele>491</ele>
        <time>2021-08-15T05:46:31Z</time>
      </trkpt>
      <trkpt lat="45.85075" lon="3.07372">
        <ele>491</ele>
        <time>2021-08-15T05:46:32Z</time>
      </trkpt>
      <trkpt lat="45.85074" lon="3.0737">
        <ele>491</ele>
        <time>2021-08-15T05:46:33Z</time>
      </trkpt>
      <trkpt lat="45.85073" lon="3.07369">
        <ele>491</ele>
        <time>2021-08-15T05:46:34Z</time>
      </trkpt>
      <trkpt lat="45.85072" lon="3.07367">
        <ele>491</ele>
        <time>2021-08-15T05:46:35Z</time>
      </trkpt>
      <trkpt lat="45.8507" lon="3.07365">
        <ele>491</ele>
        <time>2021-08-15T05:46:36Z</time>
      </trkpt>
      <trkpt lat="45.8507" lon="3.07364">
        <ele>491</ele>
        <time>2021-08-15T05:46:37Z</time>
      </trkpt>
      <trkpt lat="45.85069" lon="3.07362">
        <ele>491</ele>
        <time>2021-08-15T05:46:38Z</time>
      </trkpt>
      <trkpt lat="45.85067" lon="3.0736">
        <ele>491</ele>
        <time>2021-08-15T05:46:39Z</time>
      </trkpt>
      <trkpt lat="45.85066" lon="3.07358">
        <ele>491</ele>
        <time>2021-08-15T05:46:40Z</time>
      </trkpt>
      <trkpt lat="45.85065" lon="3.07357">
        <ele>491</ele>
        <time>2021-08-15T05:46:41Z</time>
      </trkpt>
      <trkpt lat="45.85064" lon="3.07355">
        <ele>491</ele>
        <time>2021-08-15T05:46:42Z</time>
      </trkpt>
      <trkpt lat="45.85062" lon="3.07353">
        <ele>491</ele>
        <time>2021-08-15T05:46:43Z</time>
      </trkpt>
      <trkpt lat="45.85061" lon="3.07351">
        <ele>491</ele>
        <time>2021-08-15T05:46:44Z</time>
      </trkpt>
      <trkpt lat="45.85059" lon="3.07349">
        <ele>491</ele>
        <time>2021-08-15T05:46:45Z</time>
      </trkpt>
      <trkpt lat="45.85058" lon="3.07347">
        <ele>491</ele>
        <time>2021-08-15T05:46:46Z</time>
      </trkpt>
      <trkpt lat="45.85056" lon="3.07345">
        <ele>491</ele>
        <time>2021-08-15T05:46:47Z</time>
      </trkpt>
      <trkpt lat="45.85055" lon="3.07343">
        <ele>491</ele>
        <time>2021-08-15T05:46:48Z</time>
      </trkpt>
      <trkpt lat="45.85054" lon="3.07341">
        <ele>491</ele>
        <time>2021-08-15T05:46:49Z</time>
      </trkpt>
      <trkpt lat="45.85052" lon="3.07339">
        <ele>491</ele>
        <time>2021-08-15T05:46:50Z</time>
      </trkpt>
      <trkpt lat="45.85051" lon="3.07337">
        <ele>491</ele>
        <time>2021-08-15T05:46:51Z</time>
      </trkpt>
      <trkpt lat="45.85049" lon="3.07336">
        <ele>491</ele>
        <time>2021-08-15T05:46:52Z</time>
      </trkpt>
      <trkpt lat="45.85049" lon="3.07334">
        <ele>491</ele>
        <time>2021-08-15T05:46:53Z</time>
      </trkpt>
      <trkpt lat="45.85047" lon="3.07332">
        <ele>491</ele>
        <time>2021-08-15T05:46:54Z</time>
      </trkpt>
      <trkpt lat="45.85046" lon="3.0733">
        <ele>491</ele>
        <time>2021-08-15T05:46:55Z</time>
      </trkpt>
      <trkpt lat="45.85045" lon="3.07328">
        <ele>491</ele>
        <time>2021-08-15T05:46:57Z</time>
      </trkpt>
      <trkpt lat="45.8504" lon="3.07321">
        <ele>491</ele>
        <time>2021-08-15T05:46:58Z</time>
      </trkpt>
      <trkpt lat="45.8504" lon="3.07321">
        <ele>491</ele>
        <time>2021-08-15T05:46:59Z</time>
      </trkpt>
      <trkpt lat="45.8504" lon="3.0732">
        <ele>491</ele>
        <time>2021-08-15T05:47:00Z</time>
      </trkpt>
      <trkpt lat="45.85039" lon="3.07319">
        <ele>491</ele>
        <time>2021-08-15T05:47:01Z</time>
      </trkpt>
      <trkpt lat="45.85038" lon="3.07318">
        <ele>491</ele>
        <time>2021-08-15T05:47:02Z</time>
      </trkpt>
      <trkpt lat="45.85037" lon="3.07316">
        <ele>491</ele>
        <time>2021-08-15T05:47:03Z</time>
      </trkpt>
      <trkpt lat="45.85037" lon="3.07314">
        <ele>491</ele>
        <time>2021-08-15T05:47:04Z</time>
      </trkpt>
      <trkpt lat="45.85035" lon="3.07312">
        <ele>491</ele>
        <time>2021-08-15T05:47:05Z</time>
      </trkpt>
      <trkpt lat="45.85034" lon="3.0731">
        <ele>491</ele>
        <time>2021-08-15T05:47:06Z</time>
      </trkpt>
      <trkpt lat="45.85033" lon="3.07308">
        <ele>491</ele>
        <time>2021-08-15T05:47:07Z</time>
      </trkpt>
      <trkpt lat="45.85032" lon="3.07307">
        <ele>491</ele>
        <time>2021-08-15T05:47:07Z</time>
      </trkpt>
      <trkpt lat="45.85031" lon="3.07305">
        <ele>491</ele>
        <time>2021-08-15T05:47:08Z</time>
      </trkpt>
      <trkpt lat="45.8503" lon="3.07303">
        <ele>491</ele>
        <time>2021-08-15T05:47:09Z</time>
      </trkpt>
      <trkpt lat="45.85028" lon="3.07301">
        <ele>491</ele>
        <time>2021-08-15T05:47:10Z</time>
      </trkpt>
      <trkpt lat="45.85027" lon="3.07299">
        <ele>491</ele>
        <time>2021-08-15T05:47:11Z</time>
      </trkpt>
      <trkpt lat="45.85026" lon="3.07297">
        <ele>491</ele>
        <time>2021-08-15T05:47:12Z</time>
      </trkpt>
      <trkpt lat="45.85025" lon="3.07295">
        <ele>491</ele>
        <time>2021-08-15T05:47:13Z</time>
      </trkpt>
      <trkpt lat="45.85024" lon="3.07293">
        <ele>491</ele>
        <time>2021-08-15T05:47:14Z</time>
      </trkpt>
      <trkpt lat="45.85023" lon="3.07291">
        <ele>491</ele>
        <time>2021-08-15T05:47:15Z</time>
      </trkpt>
      <trkpt lat="45.85022" lon="3.07289">
        <ele>491</ele>
        <time>2021-08-15T05:47:16Z</time>
      </trkpt>
      <trkpt lat="45.85022" lon="3.07287">
        <ele>491</ele>
        <time>2021-08-15T05:47:17Z</time>
      </trkpt>
      <trkpt lat="45.85022" lon="3.07285">
        <ele>491</ele>
        <time>2021-08-15T05:47:18Z</time>
      </trkpt>
      <trkpt lat="45.85022" lon="3.07283">
        <ele>491</ele>
        <time>2021-08-15T05:47:19Z</time>
      </trkpt>
      <trkpt lat="45.85022" lon="3.07281">
        <ele>491</ele>
        <time>2021-08-15T05:47:20Z</time>
      </trkpt>
      <trkpt lat="45.85022" lon="3.07279">
        <ele>491</ele>
        <time>2021-08-15T05:47:21Z</time>
      </trkpt>
      <trkpt lat="45.85022" lon="3.07277">
        <ele>491</ele>
        <time>2021-08-15T05:47:22Z</time>
      </trkpt>
      <trkpt lat="45.85022" lon="3.07275">
        <ele>491</ele>
        <time>2021-08-15T05:47:23Z</time>
      </trkpt>
      <trkpt lat="45.85022" lon="3.07273">
        <ele>491</ele>
        <time>2021-08-15T05:47:24Z</time>
      </trkpt>
      <trkpt lat="45.85022" lon="3.07271">
        <ele>491</ele>
        <time>2021-08-15T05:47:25Z</time>
      </trkpt>
      <trkpt lat="45.85022" lon="3.07269">
        <ele>491</ele>
        <time>2021-08-15T05:47:26Z</time>
      </trkpt>
      <trkpt lat="45.85022" lon="3.07266">
        <ele>491</ele>
        <time>2021-08-15T05:47:27Z</time>
      </trkpt>
      <trkpt lat="45.85022" lon="3.07264">
        <ele>491</ele>
        <time>2021-08-15T05:47:28Z</time>
      </trkpt>
      <trkpt lat="45.85022" lon="3.07262">
        <ele>491</ele>
        <time>2021-08-15T05:47:29Z</time>
      </trkpt>
      <trkpt lat="45.85022" lon="3.07259">
        <ele>491</ele>
        <time>2021-08-15T05:47:30Z</time>
      </trkpt>
      <trkpt lat="45.85022" lon="3.07257">
        <ele>491</ele>
        <time>2021-08-15T05:47:31Z</time>
      </trkpt>
      <trkpt lat="45.85022" lon="3.07255">
        <ele>491</ele>
        <time>2021-08-15T05:47:32Z</time>
      </trkpt>
      <trkpt lat="45.85022" lon="3.07253">
        <ele>491</ele>
        <time>2021-08-15T05:47:33Z</time>
      </trkpt>
      <trkpt lat="45.85022" lon="3.07251">
        <ele>491</ele>
        <time>2021-08-15T05:47:34Z</time>
      </trkpt>
      <trkpt lat="45.85022" lon="3.07249">
        <ele>491</ele>
        <time>2021-08-15T05:47:35Z</time>
      </trkpt>
      <trkpt lat="45.85022" lon="3.07246">
        <ele>491</ele>
        <time>2021-08-15T05:47:36Z</time>
      </trkpt>
      <trkpt lat="45.85022" lon="3.07244">
        <ele>491</ele>
        <time>2021-08-15T05:47:37Z</time>
      </trkpt>
      <trkpt lat="45.85023" lon="3.07242">
        <ele>491</ele>
        <time>2021-08-15T05:47:38Z</time>
      </trkpt>
      <trkpt lat="45.85023" lon="3.07239">
        <ele>491</ele>
        <time>2021-08-15T05:47:39Z</time>
      </trkpt>
      <trkpt lat="45.85023" lon="3.07237">
        <ele>491</ele>
        <time>2021-08-15T05:47:40Z</time>
      </trkpt>
      <trkpt lat="45.85023" lon="3.07235">
        <ele>491</ele>
        <time>2021-08-15T05:47:41Z</time>
      </trkpt>
      <trkpt lat="45.85023" lon="3.07232">
        <ele>491</ele>
        <time>2021-08-15T05:47:42Z</time>
      </trkpt>
      <trkpt lat="45.85023" lon="3.0723">
        <ele>491</ele>
        <time>2021-08-15T05:47:43Z</time>
      </trkpt>
      <trkpt lat="45.85024" lon="3.07227">
        <ele>491</ele>
        <time>2021-08-15T05:47:44Z</time>
      </trkpt>
      <trkpt lat="45.85024" lon="3.07225">
        <ele>491</ele>
        <time>2021-08-15T05:47:45Z</time>
      </trkpt>
      <trkpt lat="45.85024" lon="3.07222">
        <ele>491</ele>
        <time>2021-08-15T05:47:46Z</time>
      </trkpt>
      <trkpt lat="45.85023" lon="3.0722">
        <ele>491</ele>
        <time>2021-08-15T05:47:47Z</time>
      </trkpt>
      <trkpt lat="45.85023" lon="3.07218">
        <ele>491</ele>
        <time>2021-08-15T05:47:48Z</time>
      </trkpt>
      <trkpt lat="45.85023" lon="3.07215">
        <ele>491</ele>
        <time>2021-08-15T05:47:49Z</time>
      </trkpt>
      <trkpt lat="45.85023" lon="3.07213">
        <ele>491</ele>
        <time>2021-08-15T05:47:50Z</time>
      </trkpt>
      <trkpt lat="45.85023" lon="3.0721">
        <ele>491</ele>
        <time>2021-08-15T05:47:51Z</time>
      </trkpt>
      <trkpt lat="45.85024" lon="3.07208">
        <ele>491</ele>
        <time>2021-08-15T05:47:52Z</time>
      </trkpt>
      <trkpt lat="45.85024" lon="3.07206">
        <ele>491</ele>
        <time>2021-08-15T05:47:53Z</time>
      </trkpt>
      <trkpt lat="45.85024" lon="3.07203">
        <ele>491</ele>
        <time>2021-08-15T05:47:55Z</time>
      </trkpt>
      <trkpt lat="45.85025" lon="3.07195">
        <ele>491</ele>
        <time>2021-08-15T05:47:57Z</time>
      </trkpt>
      <trkpt lat="45.85025" lon="3.0719">
        <ele>491</ele>
        <time>2021-08-15T05:47:58Z</time>
      </trkpt>
      <trkpt lat="45.85025" lon="3.0719">
        <ele>491</ele>
        <time>2021-08-15T05:47:59Z</time>
      </trkpt>
      <trkpt lat="45.85025" lon="3.07189">
        <ele>491</ele>
        <time>2021-08-15T05:48:00Z</time>
      </trkpt>
      <trkpt lat="45.85025" lon="3.07188">
        <ele>491</ele>
        <time>2021-08-15T05:48:01Z</time>
      </trkpt>
      <trkpt lat="45.85025" lon="3.07186">
        <ele>491</ele>
        <time>2021-08-15T05:48:02Z</time>
      </trkpt>
      <trkpt lat="45.85025" lon="3.07185">
        <ele>491</ele>
        <time>2021-08-15T05:48:03Z</time>
      </trkpt>
      <trkpt lat="45.85025" lon="3.07183">
        <ele>491</ele>
        <time>2021-08-15T05:48:04Z</time>
      </trkpt>
      <trkpt lat="45.85025" lon="3.07181">
        <ele>491</ele>
        <time>2021-08-15T05:48:05Z</time>
      </trkpt>
      <trkpt lat="45.85025" lon="3.07179">
        <ele>491</ele>
        <time>2021-08-15T05:48:06Z</time>
      </trkpt>
      <trkpt lat="45.85025" lon="3.07178">
        <ele>491</ele>
        <time>2021-08-15T05:48:07Z</time>
      </trkpt>
      <trkpt lat="45.85025" lon="3.07176">
        <ele>491</ele>
        <time>2021-08-15T05:48:08Z</time>
      </trkpt>
      <trkpt lat="45.85025" lon="3.07173">
        <ele>491</ele>
        <time>2021-08-15T05:48:09Z</time>
      </trkpt>
      <trkpt lat="45.85025" lon="3.07171">
        <ele>491</ele>
        <time>2021-08-15T05:48:10Z</time>
      </trkpt>
      <trkpt lat="45.85025" lon="3.07169">
        <ele>491</ele>
        <time>2021-08-15T05:48:11Z</time>
      </trkpt>
      <trkpt lat="45.85025" lon="3.07167">
        <ele>491</ele>
        <time>2021-08-15T05:48:12Z</time>
      </trkpt>
      <trkpt lat="45.85026" lon="3.07165">
        <ele>491</ele>
        <time>2021-08-15T05:48:13Z</time>
      </trkpt>
      <trkpt lat="45.85026" lon="3.07163">
        <ele>491</ele>
        <time>2021-08-15T05:48:14Z</time>
      </trkpt>
      <trkpt lat="45.85027" lon="3.07161">
        <ele>491</ele>
        <time>2021-08-15T05:48:15Z</time>
      </trkpt>
      <trkpt lat="45.85027" lon="3.07159">
        <ele>491</ele>
        <time>2021-08-15T05:48:16Z</time>
      </trkpt>
      <trkpt lat="45.85027" lon="3.07157">
        <ele>491</ele>
        <time>2021-08-15T05:48:17Z</time>
      </trkpt>
      <trkpt lat="45.85027" lon="3.07155">
        <ele>491</ele>
        <time>2021-08-15T05:48:18Z</time>
      </trkpt>
      <trkpt lat="45.85028" lon="3.07152">
        <ele>491</ele>
        <time>2021-08-15T05:48:19Z</time>
      </trkpt>
      <trkpt lat="45.85028" lon="3.0715">
        <ele>491</ele>
        <time>2021-08-15T05:48:20Z</time>
      </trkpt>
      <trkpt lat="45.85028" lon="3.07148">
        <ele>491</ele>
        <time>2021-08-15T05:48:21Z</time>
      </trkpt>
      <trkpt lat="45.85028" lon="3.07146">
        <ele>491</ele>
        <time>2021-08-15T05:48:22Z</time>
      </trkpt>
      <trkpt lat="45.85028" lon="3.07143">
        <ele>491</ele>
        <time>2021-08-15T05:48:23Z</time>
      </trkpt>
      <trkpt lat="45.85028" lon="3.07141">
        <ele>491</ele>
        <time>2021-08-15T05:48:24Z</time>
      </trkpt>
      <trkpt lat="45.85028" lon="3.07139">
        <ele>491</ele>
        <time>2021-08-15T05:48:25Z</time>
      </trkpt>
      <trkpt lat="45.85028" lon="3.07138">
        <ele>491</ele>
        <time>2021-08-15T05:48:26Z</time>
      </trkpt>
      <trkpt lat="45.85029" lon="3.07136">
        <ele>491</ele>
        <time>2021-08-15T05:48:27Z</time>
      </trkpt>
      <trkpt lat="45.85029" lon="3.07133">
        <ele>491</ele>
        <time>2021-08-15T05:48:28Z</time>
      </trkpt>
      <trkpt lat="45.85029" lon="3.07131">
        <ele>491</ele>
        <time>2021-08-15T05:48:29Z</time>
      </trkpt>
      <trkpt lat="45.85029" lon="3.07129">
        <ele>491</ele>
        <time>2021-08-15T05:48:30Z</time>
      </trkpt>
      <trkpt lat="45.85029" lon="3.07127">
        <ele>491</ele>
        <time>2021-08-15T05:48:31Z</time>
      </trkpt>
      <trkpt lat="45.85029" lon="3.07124">
        <ele>491</ele>
        <time>2021-08-15T05:48:32Z</time>
      </trkpt>
      <trkpt lat="45.8503" lon="3.07122">
        <ele>491</ele>
        <time>2021-08-15T05:48:33Z</time>
      </trkpt>
      <trkpt lat="45.8503" lon="3.0712">
        <ele>491</ele>
        <time>2021-08-15T05:48:34Z</time>
      </trkpt>
      <trkpt lat="45.8503" lon="3.07117">
        <ele>491</ele>
        <time>2021-08-15T05:48:35Z</time>
      </trkpt>
      <trkpt lat="45.8503" lon="3.07115">
        <ele>491</ele>
        <time>2021-08-15T05:48:36Z</time>
      </trkpt>
      <trkpt lat="45.8503" lon="3.07113">
        <ele>491</ele>
        <time>2021-08-15T05:48:37Z</time>
      </trkpt>
      <trkpt lat="45.8503" lon="3.07111">
        <ele>491</ele>
        <time>2021-08-15T05:48:38Z</time>
      </trkpt>
      <trkpt lat="45.8503" lon="3.07108">
        <ele>491</ele>
        <time>2021-08-15T05:48:39Z</time>
      </trkpt>
      <trkpt lat="45.8503" lon="3.07106">
        <ele>491</ele>
        <time>2021-08-15T05:48:40Z</time>
      </trkpt>
      <trkpt lat="45.85031" lon="3.07103">
        <ele>491</ele>
        <time>2021-08-15T05:48:41Z</time>
      </trkpt>
      <trkpt lat="45.85031" lon="3.07101">
        <ele>491</ele>
        <time>2021-08-15T05:48:42Z</time>
      </trkpt>
      <trkpt lat="45.85031" lon="3.07099">
        <ele>491</ele>
        <time>2021-08-15T05:48:43Z</time>
      </trkpt>
      <trkpt lat="45.85031" lon="3.07096">
        <ele>491</ele>
        <time>2021-08-15T05:48:44Z</time>
      </trkpt>
      <trkpt lat="45.85032" lon="3.07094">
        <ele>491</ele>
        <time>2021-08-15T05:48:45Z</time>
      </trkpt>
      <trkpt lat="45.85032" lon="3.07092">
        <ele>491</ele>
        <time>2021-08-15T05:48:46Z</time>
      </trkpt>
      <trkpt lat="45.85032" lon="3.07089">
        <ele>491</ele>
        <time>2021-08-15T05:48:47Z</time>
      </trkpt>
      <trkpt lat="45.85032" lon="3.07087">
        <ele>491</ele>
        <time>2021-08-15T05:48:48Z</time>
      </trkpt>
      <trkpt lat="45.85032" lon="3.07085">
        <ele>491</ele>
        <time>2021-08-15T05:48:49Z</time>
      </trkpt>
      <trkpt lat="45.85032" lon="3.07082">
        <ele>491</ele>
        <time>2021-08-15T05:48:50Z</time>
      </trkpt>
      <trkpt lat="45.85032" lon="3.0708">
        <ele>491</ele>
        <time>2021-08-15T05:48:51Z</time>
      </trkpt>
      <trkpt lat="45.85032" lon="3.07078">
        <ele>491</ele>
        <time>2021-08-15T05:48:52Z</time>
      </trkpt>
      <trkpt lat="45.85032" lon="3.07076">
        <ele>491</ele>
        <time>2021-08-15T05:48:53Z</time>
      </trkpt>
      <trkpt lat="45.85032" lon="3.07074">
        <ele>491</ele>
        <time>2021-08-15T05:48:54Z</time>
      </trkpt>
      <trkpt lat="45.85033" lon="3.07071">
        <ele>491</ele>
        <time>2021-08-15T05:48:56Z</time>
      </trkpt>
      <trkpt lat="45.85034" lon="3.07062">
        <ele>491</ele>
        <time>2021-08-15T05:48:57Z</time>
      </trkpt>
      <trkpt lat="45.85034" lon="3.07061">
        <ele>491</ele>
        <time>2021-08-15T05:48:58Z</time>
      </trkpt>
      <trkpt lat="45.85034" lon="3.0706">
        <ele>491</ele>
        <time>2021-08-15T05:48:59Z</time>
      </trkpt>
      <trkpt lat="45.85034" lon="3.07059">
        <ele>491</ele>
        <time>2021-08-15T05:49:00Z</time>
      </trkpt>
      <trkpt lat="45.85034" lon="3.07057">
        <ele>491</ele>
        <time>2021-08-15T05:49:01Z</time>
      </trkpt>
      <trkpt lat="45.85035" lon="3.07055">
        <ele>491</ele>
        <time>2021-08-15T05:49:02Z</time>
      </trkpt>
      <trkpt lat="45.85035" lon="3.07053">
        <ele>491</ele>
        <time>2021-08-15T05:49:03Z</time>
      </trkpt>
      <trkpt lat="45.85035" lon="3.0705">
        <ele>491</ele>
        <time>2021-08-15T05:49:04Z</time>
      </trkpt>
      <trkpt lat="45.85035" lon="3.07048">
        <ele>491</ele>
        <time>2021-08-15T05:49:05Z</time>
      </trkpt>
      <trkpt lat="45.85035" lon="3.07046">
        <ele>491</ele>
        <time>2021-08-15T05:49:06Z</time>
      </trkpt>
      <trkpt lat="45.85036" lon="3.07044">
        <ele>491</ele>
        <time>2021-08-15T05:49:07Z</time>
      </trkpt>
      <trkpt lat="45.85037" lon="3.07041">
        <ele>491</ele>
        <time>2021-08-15T05:49:08Z</time>
      </trkpt>
      <trkpt lat="45.85037" lon="3.07039">
        <ele>491</ele>
        <time>2021-08-15T05:49:09Z</time>
      </trkpt>
      <trkpt lat="45.85037" lon="3.07036">
        <ele>491</ele>
        <time>2021-08-15T05:49:10Z</time>
      </trkpt>
      <trkpt lat="45.85037" lon="3.07034">
        <ele>491</ele>
        <time>2021-08-15T05:49:11Z</time>
      </trkpt>
      <trkpt lat="45.85038" lon="3.07031">
        <ele>491</ele>
        <time>2021-08-15T05:49:12Z</time>
      </trkpt>
      <trkpt lat="45.85038" lon="3.07029">
        <ele>491</ele>
        <time>2021-08-15T05:49:13Z</time>
      </trkpt>
      <trkpt lat="45.85039" lon="3.07026">
        <ele>491</ele>
        <time>2021-08-15T05:49:14Z</time>
      </trkpt>
      <trkpt lat="45.8504" lon="3.07023">
        <ele>491</ele>
        <time>2021-08-15T05:49:15Z</time>
      </trkpt>
      <trkpt lat="45.8504" lon="3.07021">
        <ele>491</ele>
        <time>2021-08-15T05:49:16Z</time>
      </trkpt>
      <trkpt lat="45.8504" lon="3.07018">
        <ele>491</ele>
        <time>2021-08-15T05:49:17Z</time>
      </trkpt>
      <trkpt lat="45.8504" lon="3.07016">
        <ele>491</ele>
        <time>2021-08-15T05:49:18Z</time>
      </trkpt>
      <trkpt lat="45.8504" lon="3.07013">
        <ele>491</ele>
        <time>2021-08-15T05:49:19Z</time>
      </trkpt>
      <trkpt lat="45.8504" lon="3.07011">
        <ele>491</ele>
        <time>2021-08-15T05:49:20Z</time>
      </trkpt>
      <trkpt lat="45.8504" lon="3.07009">
        <ele>491</ele>
        <time>2021-08-15T05:49:21Z</time>
      </trkpt>
      <trkpt lat="45.8504" lon="3.07007">
        <ele>491</ele>
        <time>2021-08-15T05:49:22Z</time>
      </trkpt>
      <trkpt lat="45.8504" lon="3.07004">
        <ele>491</ele>
        <time>2021-08-15T05:49:23Z</time>
      </trkpt>
      <trkpt lat="45.8504" lon="3.07002">
        <ele>491</ele>
        <time>2021-08-15T05:49:24Z</time>
      </trkpt>
      <trkpt lat="45.8504" lon="3.06999">
        <ele>491</ele>
        <time>2021-08-15T05:49:25Z</time>
      </trkpt>
      <trkpt lat="45.8504" lon="3.06997">
        <ele>491</ele>
        <time>2021-08-15T05:49:26Z</time>
      </trkpt>
      <trkpt lat="45.8504" lon="3.06995">
        <ele>491</ele>
        <time>2021-08-15T05:49:27Z</time>
      </trkpt>
      <trkpt lat="45.8504" lon="3.06993">
        <ele>491</ele>
        <time>2021-08-15T05:49:28Z</time>
      </trkpt>
      <trkpt lat="45.8504" lon="3.06991">
        <ele>491</ele>
        <time>2021-08-15T05:49:29Z</time>
      </trkpt>
      <trkpt lat="45.8504" lon="3.06988">
        <ele>491</ele>
        <time>2021-08-15T05:49:30Z</time>
      </trkpt>
      <trkpt lat="45.8504" lon="3.06986">
        <ele>491</ele>
        <time>2021-08-15T05:49:31Z</time>
      </trkpt>
      <trkpt lat="45.8504" lon="3.06984">
        <ele>491</ele>
        <time>2021-08-15T05:49:32Z</time>
      </trkpt>
      <trkpt lat="45.8504" lon="3.06982">
        <ele>491</ele>
        <time>2021-08-15T05:49:33Z</time>
      </trkpt>
      <trkpt lat="45.85039" lon="3.06979">
        <ele>491</ele>
        <time>2021-08-15T05:49:34Z</time>
      </trkpt>
      <trkpt lat="45.85038" lon="3.06977">
        <ele>491</ele>
        <time>2021-08-15T05:49:35Z</time>
      </trkpt>
      <trkpt lat="45.85038" lon="3.06975">
        <ele>491</ele>
        <time>2021-08-15T05:49:36Z</time>
      </trkpt>
      <trkpt lat="45.85037" lon="3.06972">
        <ele>491</ele>
        <time>2021-08-15T05:49:37Z</time>
      </trkpt>
      <trkpt lat="45.85037" lon="3.0697">
        <ele>491</ele>
        <time>2021-08-15T05:49:38Z</time>
      </trkpt>
      <trkpt lat="45.85037" lon="3.06968">
        <ele>491</ele>
        <time>2021-08-15T05:49:39Z</time>
      </trkpt>
      <trkpt lat="45.85037" lon="3.06966">
        <ele>491</ele>
        <time>2021-08-15T05:49:40Z</time>
      </trkpt>
      <trkpt lat="45.85037" lon="3.06964">
        <ele>491</ele>
        <time>2021-08-15T05:49:41Z</time>
      </trkpt>
      <trkpt lat="45.85037" lon="3.06962">
        <ele>491</ele>
        <time>2021-08-15T05:49:42Z</time>
      </trkpt>
      <trkpt lat="45.85037" lon="3.0696">
        <ele>491</ele>
        <time>2021-08-15T05:49:43Z</time>
      </trkpt>
      <trkpt lat="45.85037" lon="3.06957">
        <ele>491</ele>
        <time>2021-08-15T05:49:44Z</time>
      </trkpt>
      <trkpt lat="45.85037" lon="3.06955">
        <ele>491</ele>
        <time>2021-08-15T05:49:45Z</time>
      </trkpt>
      <trkpt lat="45.85036" lon="3.06953">
        <ele>491</ele>
        <time>2021-08-15T05:49:46Z</time>
      </trkpt>
      <trkpt lat="45.85036" lon="3.0695">
        <ele>491</ele>
        <time>2021-08-15T05:49:47Z</time>
      </trkpt>
      <trkpt lat="45.85035" lon="3.06948">
        <ele>491</ele>
        <time>2021-08-15T05:49:48Z</time>
      </trkpt>
      <trkpt lat="45.85035" lon="3.06946">
        <ele>491</ele>
        <time>2021-08-15T05:49:49Z</time>
      </trkpt>
      <trkpt lat="45.85035" lon="3.06944">
        <ele>491</ele>
        <time>2021-08-15T05:49:50Z</time>
      </trkpt>
      <trkpt lat="45.85035" lon="3.06942">
        <ele>491</ele>
        <time>2021-08-15T05:49:51Z</time>
      </trkpt>
      <trkpt lat="45.85035" lon="3.0694">
        <ele>491</ele>
        <time>2021-08-15T05:49:52Z</time>
      </trkpt>
      <trkpt lat="45.85034" lon="3.06938">
        <ele>491</ele>
        <time>2021-08-15T05:49:53Z</time>
      </trkpt>
      <trkpt lat="45.85034" lon="3.06936">
        <ele>491</ele>
        <time>2021-08-15T05:49:54Z</time>
      </trkpt>
      <trkpt lat="45.85034" lon="3.06935">
        <ele>491</ele>
        <time>2021-08-15T05:49:56Z</time>
      </trkpt>
      <trkpt lat="45.85033" lon="3.06928">
        <ele>491</ele>
        <time>2021-08-15T05:49:57Z</time>
      </trkpt>
      <trkpt lat="45.85033" lon="3.06927">
        <ele>491</ele>
        <time>2021-08-15T05:49:58Z</time>
      </trkpt>
      <trkpt lat="45.85033" lon="3.06926">
        <ele>491</ele>
        <time>2021-08-15T05:49:59Z</time>
      </trkpt>
      <trkpt lat="45.85033" lon="3.06925">
        <ele>491</ele>
        <time>2021-08-15T05:50:00Z</time>
      </trkpt>
      <trkpt lat="45.85033" lon="3.06923">
        <ele>491</ele>
        <time>2021-08-15T05:50:01Z</time>
      </trkpt>
      <trkpt lat="45.85032" lon="3.06921">
        <ele>491</ele>
        <time>2021-08-15T05:50:02Z</time>
      </trkpt>
      <trkpt lat="45.85032" lon="3.06918">
        <ele>491</ele>
        <time>2021-08-15T05:50:03Z</time>
      </trkpt>
      <trkpt lat="45.85032" lon="3.06916">
        <ele>491</ele>
        <time>2021-08-15T05:50:04Z</time>
      </trkpt>
      <trkpt lat="45.85032" lon="3.06914">
        <ele>491</ele>
        <time>2021-08-15T05:50:05Z</time>
      </trkpt>
      <trkpt lat="45.85032" lon="3.06912">
        <ele>491</ele>
        <time>2021-08-15T05:50:06Z</time>
      </trkpt>
      <trkpt lat="45.85032" lon="3.0691">
        <ele>491</ele>
        <time>2021-08-15T05:50:07Z</time>
      </trkpt>
      <trkpt lat="45.85032" lon="3.06908">
        <ele>491</ele>
        <time>2021-08-15T05:50:08Z</time>
      </trkpt>
      <trkpt lat="45.85031" lon="3.06905">
        <ele>491</ele>
        <time>2021-08-15T05:50:09Z</time>
      </trkpt>
      <trkpt lat="45.85031" lon="3.06903">
        <ele>491</ele>
        <time>2021-08-15T05:50:10Z</time>
      </trkpt>
      <trkpt lat="45.85031" lon="3.06901">
        <ele>491</ele>
        <time>2021-08-15T05:50:11Z</time>
      </trkpt>
      <trkpt lat="45.85031" lon="3.06899">
        <ele>491</ele>
        <time>2021-08-15T05:50:12Z</time>
      </trkpt>
      <trkpt lat="45.85031" lon="3.06896">
        <ele>491</ele>
        <time>2021-08-15T05:50:13Z</time>
      </trkpt>
      <trkpt lat="45.85031" lon="3.06894">
        <ele>491</ele>
        <time>2021-08-15T05:50:14Z</time>
      </trkpt>
      <trkpt lat="45.85031" lon="3.06892">
        <ele>491</ele>
        <time>2021-08-15T05:50:15Z</time>
      </trkpt>
      <trkpt lat="45.85031" lon="3.0689">
        <ele>491</ele>
        <time>2021-08-15T05:50:16Z</time>
      </trkpt>
      <trkpt lat="45.85031" lon="3.06888">
        <ele>491</ele>
        <time>2021-08-15T05:50:17Z</time>
      </trkpt>
      <trkpt lat="45.85031" lon="3.06885">
        <ele>491</ele>
        <time>2021-08-15T05:50:18Z</time>
      </trkpt>
      <trkpt lat="45.85031" lon="3.06883">
        <ele>491</ele>
        <time>2021-08-15T05:50:19Z</time>
      </trkpt>
      <trkpt lat="45.85031" lon="3.0688">
        <ele>491</ele>
        <time>2021-08-15T05:50:20Z</time>
      </trkpt>
      <trkpt lat="45.85031" lon="3.06878">
        <ele>491</ele>
        <time>2021-08-15T05:50:21Z</time>
      </trkpt>
      <trkpt lat="45.8503" lon="3.06875">
        <ele>491</ele>
        <time>2021-08-15T05:50:22Z</time>
      </trkpt>
      <trkpt lat="45.8503" lon="3.06873">
        <ele>491</ele>
        <time>2021-08-15T05:50:23Z</time>
      </trkpt>
      <trkpt lat="45.8503" lon="3.06871">
        <ele>491</ele>
        <time>2021-08-15T05:50:24Z</time>
      </trkpt>
      <trkpt lat="45.8503" lon="3.06868">
        <ele>491</ele>
        <time>2021-08-15T05:50:25Z</time>
      </trkpt>
      <trkpt lat="45.85029" lon="3.06866">
        <ele>491</ele>
        <time>2021-08-15T05:50:26Z</time>
      </trkpt>
      <trkpt lat="45.85029" lon="3.06864">
        <ele>491</ele>
        <time>2021-08-15T05:50:27Z</time>
      </trkpt>
      <trkpt lat="45.85029" lon="3.06862">
        <ele>491</ele>
        <time>2021-08-15T05:50:28Z</time>
      </trkpt>
      <trkpt lat="45.85029" lon="3.0686">
        <ele>491</ele>
        <time>2021-08-15T05:50:29Z</time>
      </trkpt>
      <trkpt lat="45.85028" lon="3.06858">
        <ele>491</ele>
        <time>2021-08-15T05:50:30Z</time>
      </trkpt>
      <trkpt lat="45.85028" lon="3.06856">
        <ele>491</ele>
        <time>2021-08-15T05:50:31Z</time>
      </trkpt>
      <trkpt lat="45.85028" lon="3.06853">
        <ele>491</ele>
        <time>2021-08-15T05:50:32Z</time>
      </trkpt>
      <trkpt lat="45.85027" lon="3.06851">
        <ele>491</ele>
        <time>2021-08-15T05:50:33Z</time>
      </trkpt>
      <trkpt lat="45.85027" lon="3.06849">
        <ele>491</ele>
        <time>2021-08-15T05:50:34Z</time>
      </trkpt>
      <trkpt lat="45.85027" lon="3.06847">
        <ele>491</ele>
        <time>2021-08-15T05:50:35Z</time>
      </trkpt>
      <trkpt lat="45.85026" lon="3.06845">
        <ele>491</ele>
        <time>2021-08-15T05:50:36Z</time>
      </trkpt>
      <trkpt lat="45.85025" lon="3.06843">
        <ele>491</ele>
        <time>2021-08-15T05:50:37Z</time>
      </trkpt>
      <trkpt lat="45.85025" lon="3.06841">
        <ele>491</ele>
        <time>2021-08-15T05:50:38Z</time>
      </trkpt>
      <trkpt lat="45.85025" lon="3.06839">
        <ele>491</ele>
        <time>2021-08-15T05:50:39Z</time>
      </trkpt>
      <trkpt lat="45.85025" lon="3.06837">
        <ele>491</ele>
        <time>2021-08-15T05:50:40Z</time>
      </trkpt>
      <trkpt lat="45.85025" lon="3.06835">
        <ele>491</ele>
        <time>2021-08-15T05:50:41Z</time>
      </trkpt>
      <trkpt lat="45.85024" lon="3.06833">
        <ele>491</ele>
        <time>2021-08-15T05:50:42Z</time>
      </trkpt>
      <trkpt lat="45.85024" lon="3.06831">
        <ele>491</ele>
        <time>2021-08-15T05:50:43Z</time>
      </trkpt>
      <trkpt lat="45.85024" lon="3.06829">
        <ele>491</ele>
        <time>2021-08-15T05:50:44Z</time>
      </trkpt>
      <trkpt lat="45.85023" lon="3.06827">
        <ele>491</ele>
        <time>2021-08-15T05:50:45Z</time>
      </trkpt>
      <trkpt lat="45.85022" lon="3.06824">
        <ele>491</ele>
        <time>2021-08-15T05:50:46Z</time>
      </trkpt>
      <trkpt lat="45.85022" lon="3.06822">
        <ele>491</ele>
        <time>2021-08-15T05:50:47Z</time>
      </trkpt>
      <trkpt lat="45.85022" lon="3.06819">
        <ele>491</ele>
        <time>2021-08-15T05:50:48Z</time>
      </trkpt>
      <trkpt lat="45.85021" lon="3.06817">
        <ele>491</ele>
        <time>2021-08-15T05:50:49Z</time>
      </trkpt>
      <trkpt lat="45.8502" lon="3.06815">
        <ele>491</ele>
        <time>2021-08-15T05:50:50Z</time>
      </trkpt>
      <trkpt lat="45.8502" lon="3.06812">
        <ele>491</ele>
        <time>2021-08-15T05:50:51Z</time>
      </trkpt>
      <trkpt lat="45.85019" lon="3.0681">
        <ele>491</ele>
        <time>2021-08-15T05:50:52Z</time>
      </trkpt>
      <trkpt lat="45.85019" lon="3.06807">
        <ele>491</ele>
        <time>2021-08-15T05:50:53Z</time>
      </trkpt>
      <trkpt lat="45.85019" lon="3.06805">
        <ele>491</ele>
        <time>2021-08-15T05:50:54Z</time>
      </trkpt>
      <trkpt lat="45.85019" lon="3.06803">
        <ele>491</ele>
        <time>2021-08-15T05:50:56Z</time>
      </trkpt>
      <trkpt lat="45.85017" lon="3.06793">
        <ele>491</ele>
        <time>2021-08-15T05:50:57Z</time>
      </trkpt>
      <trkpt lat="45.85017" lon="3.06793">
        <ele>491</ele>
        <time>2021-08-15T05:50:58Z</time>
      </trkpt>
      <trkpt lat="45.85017" lon="3.06792">
        <ele>491</ele>
        <time>2021-08-15T05:50:59Z</time>
      </trkpt>
      <trkpt lat="45.85016" lon="3.0679">
        <ele>491</ele>
        <time>2021-08-15T05:51:00Z</time>
      </trkpt>
      <trkpt lat="45.85016" lon="3.06788">
        <ele>491</ele>
        <time>2021-08-15T05:51:01Z</time>
      </trkpt>
      <trkpt lat="45.85016" lon="3.06786">
        <ele>491</ele>
        <time>2021-08-15T05:51:02Z</time>
      </trkpt>
      <trkpt lat="45.85016" lon="3.06784">
        <ele>491</ele>
        <time>2021-08-15T05:51:03Z</time>
      </trkpt>
      <trkpt lat="45.85015" lon="3.06782">
        <ele>491</ele>
        <time>2021-08-15T05:51:04Z</time>
      </trkpt>
      <trkpt lat="45.85015" lon="3.0678">
        <ele>491</ele>
        <time>2021-08-15T05:51:05Z</time>
      </trkpt>
      <trkpt lat="45.85014" lon="3.06778">
        <ele>491</ele>
        <time>2021-08-15T05:51:06Z</time>
      </trkpt>
      <trkpt lat="45.85014" lon="3.06776">
        <ele>491</ele>
        <time>2021-08-15T05:51:07Z</time>
      </trkpt>
      <trkpt lat="45.85013" lon="3.06774">
        <ele>491</ele>
        <time>2021-08-15T05:51:08Z</time>
      </trkpt>
      <trkpt lat="45.85013" lon="3.06771">
        <ele>491</ele>
        <time>2021-08-15T05:51:09Z</time>
      </trkpt>
      <trkpt lat="45.85013" lon="3.06769">
        <ele>491</ele>
        <time>2021-08-15T05:51:10Z</time>
      </trkpt>
      <trkpt lat="45.85012" lon="3.06766">
        <ele>491</ele>
        <time>2021-08-15T05:51:11Z</time>
      </trkpt>
      <trkpt lat="45.85012" lon="3.06764">
        <ele>491</ele>
        <time>2021-08-15T05:51:12Z</time>
      </trkpt>
      <trkpt lat="45.85012" lon="3.06761">
        <ele>491</ele>
        <time>2021-08-15T05:51:13Z</time>
      </trkpt>
      <trkpt lat="45.85011" lon="3.06759">
        <ele>491</ele>
        <time>2021-08-15T05:51:14Z</time>
      </trkpt>
      <trkpt lat="45.85011" lon="3.06757">
        <ele>491</ele>
        <time>2021-08-15T05:51:15Z</time>
      </trkpt>
      <trkpt lat="45.8501" lon="3.06754">
        <ele>491</ele>
        <time>2021-08-15T05:51:16Z</time>
      </trkpt>
      <trkpt lat="45.8501" lon="3.06752">
        <ele>491</ele>
        <time>2021-08-15T05:51:17Z</time>
      </trkpt>
      <trkpt lat="45.85009" lon="3.0675">
        <ele>491</ele>
        <time>2021-08-15T05:51:18Z</time>
      </trkpt>
      <trkpt lat="45.85009" lon="3.06748">
        <ele>491</ele>
        <time>2021-08-15T05:51:19Z</time>
      </trkpt>
      <trkpt lat="45.85008" lon="3.06746">
        <ele>491</ele>
        <time>2021-08-15T05:51:20Z</time>
      </trkpt>
      <trkpt lat="45.85008" lon="3.06743">
        <ele>491</ele>
        <time>2021-08-15T05:51:21Z</time>
      </trkpt>
      <trkpt lat="45.85007" lon="3.06741">
        <ele>491</ele>
        <time>2021-08-15T05:51:22Z</time>
      </trkpt>
      <trkpt lat="45.85007" lon="3.06739">
        <ele>491</ele>
        <time>2021-08-15T05:51:22Z</time>
      </trkpt>
      <trkpt lat="45.85007" lon="3.06737">
        <ele>491</ele>
        <time>2021-08-15T05:51:23Z</time>
      </trkpt>
      <trkpt lat="45.85007" lon="3.06734">
        <ele>491</ele>
        <time>2021-08-15T05:51:24Z</time>
      </trkpt>
      <trkpt lat="45.85006" lon="3.06732">
        <ele>491</ele>
        <time>2021-08-15T05:51:25Z</time>
      </trkpt>
      <trkpt lat="45.85006" lon="3.0673">
        <ele>491</ele>
        <time>2021-08-15T05:51:26Z</time>
      </trkpt>
      <trkpt lat="45.85006" lon="3.06728">
        <ele>491</ele>
        <time>2021-08-15T05:51:27Z</time>
      </trkpt>
      <trkpt lat="45.85006" lon="3.06726">
        <ele>491</ele>
        <time>2021-08-15T05:51:28Z</time>
      </trkpt>
      <trkpt lat="45.85006" lon="3.06723">
        <ele>491</ele>
        <time>2021-08-15T05:51:29Z</time>
      </trkpt>
      <trkpt lat="45.85006" lon="3.06721">
        <ele>491</ele>
        <time>2021-08-15T05:51:30Z</time>
      </trkpt>
      <trkpt lat="45.85006" lon="3.06719">
        <ele>491</ele>
        <time>2021-08-15T05:51:31Z</time>
      </trkpt>
      <trkpt lat="45.85005" lon="3.06718">
        <ele>491</ele>
        <time>2021-08-15T05:51:32Z</time>
      </trkpt>
      <trkpt lat="45.85005" lon="3.06716">
        <ele>491</ele>
        <time>2021-08-15T05:51:33Z</time>
      </trkpt>
      <trkpt lat="45.85005" lon="3.06714">
        <ele>491</ele>
        <time>2021-08-15T05:51:34Z</time>
      </trkpt>
      <trkpt lat="45.85005" lon="3.06713">
        <ele>491</ele>
        <time>2021-08-15T05:51:35Z</time>
      </trkpt>
      <trkpt lat="45.85005" lon="3.06711">
        <ele>491</ele>
        <time>2021-08-15T05:51:36Z</time>
      </trkpt>
      <trkpt lat="45.85006" lon="3.06709">
        <ele>491</ele>
        <time>2021-08-15T05:51:37Z</time>
      </trkpt>
      <trkpt lat="45.85006" lon="3.06707">
        <ele>491</ele>
        <time>2021-08-15T05:51:38Z</time>
      </trkpt>
      <trkpt lat="45.85006" lon="3.06706">
        <ele>491</ele>
        <time>2021-08-15T05:51:39Z</time>
      </trkpt>
      <trkpt lat="45.85006" lon="3.06704">
        <ele>491</ele>
        <time>2021-08-15T05:51:40Z</time>
      </trkpt>
      <trkpt lat="45.85006" lon="3.06702">
        <ele>491</ele>
        <time>2021-08-15T05:51:41Z</time>
      </trkpt>
      <trkpt lat="45.85005" lon="3.067">
        <ele>491</ele>
        <time>2021-08-15T05:51:42Z</time>
      </trkpt>
      <trkpt lat="45.85005" lon="3.06698">
        <ele>491</ele>
        <time>2021-08-15T05:51:43Z</time>
      </trkpt>
      <trkpt lat="45.85004" lon="3.06696">
        <ele>491</ele>
        <time>2021-08-15T05:51:44Z</time>
      </trkpt>
      <trkpt lat="45.85004" lon="3.06695">
        <ele>491</ele>
        <time>2021-08-15T05:51:45Z</time>
      </trkpt>
      <trkpt lat="45.85004" lon="3.06693">
        <ele>491</ele>
        <time>2021-08-15T05:51:46Z</time>
      </trkpt>
      <trkpt lat="45.85004" lon="3.06691">
        <ele>491</ele>
        <time>2021-08-15T05:51:47Z</time>
      </trkpt>
      <trkpt lat="45.85004" lon="3.0669">
        <ele>491</ele>
        <time>2021-08-15T05:51:48Z</time>
      </trkpt>
      <trkpt lat="45.85004" lon="3.06688">
        <ele>491</ele>
        <time>2021-08-15T05:51:49Z</time>
      </trkpt>
      <trkpt lat="45.85003" lon="3.06686">
        <ele>491</ele>
        <time>2021-08-15T05:51:50Z</time>
      </trkpt>
      <trkpt lat="45.85003" lon="3.06685">
        <ele>491</ele>
        <time>2021-08-15T05:51:51Z</time>
      </trkpt>
      <trkpt lat="45.85003" lon="3.06683">
        <ele>491</ele>
        <time>2021-08-15T05:51:52Z</time>
      </trkpt>
      <trkpt lat="45.85002" lon="3.06681">
        <ele>491</ele>
        <time>2021-08-15T05:51:53Z</time>
      </trkpt>
      <trkpt lat="45.85002" lon="3.0668">
        <ele>491</ele>
        <time>2021-08-15T05:51:54Z</time>
      </trkpt>
      <trkpt lat="45.85002" lon="3.06678">
        <ele>491</ele>
        <time>2021-08-15T05:51:55Z</time>
      </trkpt>
      <trkpt lat="45.85002" lon="3.06676">
        <ele>491</ele>
        <time>2021-08-15T05:51:56Z</time>
      </trkpt>
      <trkpt lat="45.85002" lon="3.06674">
        <ele>491</ele>
        <time>2021-08-15T05:51:57Z</time>
      </trkpt>
      <trkpt lat="45.85002" lon="3.06672">
        <ele>491</ele>
        <time>2021-08-15T05:51:58Z</time>
      </trkpt>
      <trkpt lat="45.85002" lon="3.0667">
        <ele>491</ele>
        <time>2021-08-15T05:51:59Z</time>
      </trkpt>
      <trkpt lat="45.85001" lon="3.06668">
        <ele>491</ele>
        <time>2021-08-15T05:52:00Z</time>
      </trkpt>
      <trkpt lat="45.85001" lon="3.06665">
        <ele>491</ele>
        <time>2021-08-15T05:52:01Z</time>
      </trkpt>
      <trkpt lat="45.85001" lon="3.06663">
        <ele>491</ele>
        <time>2021-08-15T05:52:02Z</time>
      </trkpt>
      <trkpt lat="45.85001" lon="3.06661">
        <ele>491</ele>
        <time>2021-08-15T05:52:03Z</time>
      </trkpt>
      <trkpt lat="45.85001" lon="3.06658">
        <ele>491</ele>
        <time>2021-08-15T05:52:04Z</time>
      </trkpt>
      <trkpt lat="45.85" lon="3.06656">
        <ele>491</ele>
        <time>2021-08-15T05:52:05Z</time>
      </trkpt>
      <trkpt lat="45.85" lon="3.06654">
        <ele>491</ele>
        <time>2021-08-15T05:52:06Z</time>
      </trkpt>
      <trkpt lat="45.85" lon="3.06651">
        <ele>491</ele>
        <time>2021-08-15T05:52:07Z</time>
      </trkpt>
      <trkpt lat="45.84999" lon="3.06649">
        <ele>491</ele>
        <time>2021-08-15T05:52:08Z</time>
      </trkpt>
      <trkpt lat="45.84999" lon="3.06646">
        <ele>491</ele>
        <time>2021-08-15T05:52:09Z</time>
      </trkpt>
      <trkpt lat="45.84998" lon="3.06644">
        <ele>491</ele>
        <time>2021-08-15T05:52:10Z</time>
      </trkpt>
      <trkpt lat="45.84998" lon="3.06641">
        <ele>491</ele>
        <time>2021-08-15T05:52:11Z</time>
      </trkpt>
      <trkpt lat="45.84998" lon="3.06639">
        <ele>491</ele>
        <time>2021-08-15T05:52:12Z</time>
      </trkpt>
      <trkpt lat="45.84998" lon="3.06636">
        <ele>491</ele>
        <time>2021-08-15T05:52:13Z</time>
      </trkpt>
      <trkpt lat="45.84998" lon="3.06634">
        <ele>491</ele>
        <time>2021-08-15T05:52:14Z</time>
      </trkpt>
      <trkpt lat="45.84998" lon="3.06631">
        <ele>491</ele>
        <time>2021-08-15T05:52:15Z</time>
      </trkpt>
      <trkpt lat="45.84998" lon="3.06629">
        <ele>491</ele>
        <time>2021-08-15T05:52:16Z</time>
      </trkpt>
      <trkpt lat="45.84997" lon="3.06627">
        <ele>491</ele>
        <time>2021-08-15T05:52:17Z</time>
      </trkpt>
      <trkpt lat="45.84997" lon="3.06625">
        <ele>491</ele>
        <time>2021-08-15T05:52:18Z</time>
      </trkpt>
      <trkpt lat="45.84996" lon="3.06623">
        <ele>491</ele>
        <time>2021-08-15T05:52:19Z</time>
      </trkpt>
      <trkpt lat="45.84996" lon="3.06621">
        <ele>491</ele>
        <time>2021-08-15T05:52:20Z</time>
      </trkpt>
      <trkpt lat="45.84996" lon="3.06619">
        <ele>491</ele>
        <time>2021-08-15T05:52:21Z</time>
      </trkpt>
      <trkpt lat="45.84995" lon="3.06616">
        <ele>491</ele>
        <time>2021-08-15T05:52:22Z</time>
      </trkpt>
      <trkpt lat="45.84995" lon="3.06614">
        <ele>491</ele>
        <time>2021-08-15T05:52:23Z</time>
      </trkpt>
      <trkpt lat="45.84995" lon="3.06612">
        <ele>491</ele>
        <time>2021-08-15T05:52:24Z</time>
      </trkpt>
      <trkpt lat="45.84995" lon="3.0661">
        <ele>491</ele>
        <time>2021-08-15T05:52:25Z</time>
      </trkpt>
      <trkpt lat="45.84995" lon="3.06608">
        <ele>491</ele>
        <time>2021-08-15T05:52:26Z</time>
      </trkpt>
      <trkpt lat="45.84995" lon="3.06606">
        <ele>491</ele>
        <time>2021-08-15T05:52:27Z</time>
      </trkpt>
      <trkpt lat="45.84995" lon="3.06604">
        <ele>491</ele>
        <time>2021-08-15T05:52:28Z</time>
      </trkpt>
      <trkpt lat="45.84995" lon="3.06602">
        <ele>491</ele>
        <time>2021-08-15T05:52:29Z</time>
      </trkpt>
      <trkpt lat="45.84995" lon="3.066">
        <ele>491</ele>
        <time>2021-08-15T05:52:30Z</time>
      </trkpt>
      <trkpt lat="45.84995" lon="3.06597">
        <ele>491</ele>
        <time>2021-08-15T05:52:31Z</time>
      </trkpt>
      <trkpt lat="45.84994" lon="3.06596">
        <ele>491</ele>
        <time>2021-08-15T05:52:32Z</time>
      </trkpt>
      <trkpt lat="45.84994" lon="3.06593">
        <ele>491</ele>
        <time>2021-08-15T05:52:33Z</time>
      </trkpt>
      <trkpt lat="45.84994" lon="3.06592">
        <ele>491</ele>
        <time>2021-08-15T05:52:34Z</time>
      </trkpt>
      <trkpt lat="45.84994" lon="3.0659">
        <ele>491</ele>
        <time>2021-08-15T05:52:35Z</time>
      </trkpt>
      <trkpt lat="45.84994" lon="3.06588">
        <ele>491</ele>
        <time>2021-08-15T05:52:36Z</time>
      </trkpt>
      <trkpt lat="45.84994" lon="3.06586">
        <ele>491</ele>
        <time>2021-08-15T05:52:37Z</time>
      </trkpt>
      <trkpt lat="45.84994" lon="3.06584">
        <ele>491</ele>
        <time>2021-08-15T05:52:38Z</time>
      </trkpt>
      <trkpt lat="45.84995" lon="3.06582">
        <ele>491</ele>
        <time>2021-08-15T05:52:39Z</time>
      </trkpt>
      <trkpt lat="45.84995" lon="3.06581">
        <ele>491</ele>
        <time>2021-08-15T05:52:40Z</time>
      </trkpt>
      <trkpt lat="45.84995" lon="3.06579">
        <ele>491</ele>
        <time>2021-08-15T05:52:41Z</time>
      </trkpt>
      <trkpt lat="45.84994" lon="3.06577">
        <ele>491</ele>
        <time>2021-08-15T05:52:42Z</time>
      </trkpt>
      <trkpt lat="45.84994" lon="3.06575">
        <ele>491</ele>
        <time>2021-08-15T05:52:43Z</time>
      </trkpt>
      <trkpt lat="45.84994" lon="3.06573">
        <ele>491</ele>
        <time>2021-08-15T05:52:44Z</time>
      </trkpt>
      <trkpt lat="45.84994" lon="3.06571">
        <ele>491</ele>
        <time>2021-08-15T05:52:45Z</time>
      </trkpt>
      <trkpt lat="45.84994" lon="3.06569">
        <ele>491</ele>
        <time>2021-08-15T05:52:46Z</time>
      </trkpt>
      <trkpt lat="45.84994" lon="3.06566">
        <ele>491</ele>
        <time>2021-08-15T05:52:47Z</time>
      </trkpt>
      <trkpt lat="45.84995" lon="3.06564">
        <ele>491</ele>
        <time>2021-08-15T05:52:48Z</time>
      </trkpt>
      <trkpt lat="45.84995" lon="3.06561">
        <ele>491</ele>
        <time>2021-08-15T05:52:49Z</time>
      </trkpt>
      <trkpt lat="45.84995" lon="3.06559">
        <ele>491</ele>
        <time>2021-08-15T05:52:50Z</time>
      </trkpt>
      <trkpt lat="45.84995" lon="3.06556">
        <ele>491</ele>
        <time>2021-08-15T05:52:51Z</time>
      </trkpt>
      <trkpt lat="45.84994" lon="3.06553">
        <ele>491</ele>
        <time>2021-08-15T05:52:52Z</time>
      </trkpt>
      <trkpt lat="45.84994" lon="3.0655">
        <ele>491</ele>
        <time>2021-08-15T05:52:53Z</time>
      </trkpt>
      <trkpt lat="45.84994" lon="3.06547">
        <ele>491</ele>
        <time>2021-08-15T05:52:55Z</time>
      </trkpt>
      <trkpt lat="45.84994" lon="3.06544">
        <ele>491</ele>
        <time>2021-08-15T05:52:56Z</time>
      </trkpt>
      <trkpt lat="45.84995" lon="3.06533">
        <ele>491</ele>
        <time>2021-08-15T05:52:57Z</time>
      </trkpt>
      <trkpt lat="45.84995" lon="3.06533">
        <ele>491</ele>
        <time>2021-08-15T05:52:58Z</time>
      </trkpt>
      <trkpt lat="45.84995" lon="3.06531">
        <ele>491</ele>
        <time>2021-08-15T05:52:59Z</time>
      </trkpt>
      <trkpt lat="45.84995" lon="3.06529">
        <ele>491</ele>
        <time>2021-08-15T05:53:00Z</time>
      </trkpt>
      <trkpt lat="45.84994" lon="3.06527">
        <ele>491</ele>
        <time>2021-08-15T05:53:01Z</time>
      </trkpt>
      <trkpt lat="45.84994" lon="3.06525">
        <ele>491</ele>
        <time>2021-08-15T05:53:02Z</time>
      </trkpt>
      <trkpt lat="45.84994" lon="3.06523">
        <ele>491</ele>
        <time>2021-08-15T05:53:03Z</time>
      </trkpt>
      <trkpt lat="45.84994" lon="3.0652">
        <ele>491</ele>
        <time>2021-08-15T05:53:04Z</time>
      </trkpt>
      <trkpt lat="45.84994" lon="3.06517">
        <ele>491</ele>
        <time>2021-08-15T05:53:05Z</time>
      </trkpt>
      <trkpt lat="45.84994" lon="3.06513">
        <ele>491</ele>
        <time>2021-08-15T05:53:06Z</time>
      </trkpt>
      <trkpt lat="45.84994" lon="3.0651">
        <ele>491</ele>
        <time>2021-08-15T05:53:07Z</time>
      </trkpt>
      <trkpt lat="45.84993" lon="3.06507">
        <ele>491</ele>
        <time>2021-08-15T05:53:08Z</time>
      </trkpt>
      <trkpt lat="45.84993" lon="3.06504">
        <ele>491</ele>
        <time>2021-08-15T05:53:09Z</time>
      </trkpt>
      <trkpt lat="45.84993" lon="3.06501">
        <ele>491</ele>
        <time>2021-08-15T05:53:10Z</time>
      </trkpt>
      <trkpt lat="45.84993" lon="3.06497">
        <ele>491</ele>
        <time>2021-08-15T05:53:11Z</time>
      </trkpt>
      <trkpt lat="45.84993" lon="3.06494">
        <ele>491</ele>
        <time>2021-08-15T05:53:12Z</time>
      </trkpt>
      <trkpt lat="45.84993" lon="3.06491">
        <ele>491</ele>
        <time>2021-08-15T05:53:13Z</time>
      </trkpt>
      <trkpt lat="45.84993" lon="3.06488">
        <ele>491</ele>
        <time>2021-08-15T05:53:14Z</time>
      </trkpt>
      <trkpt lat="45.84993" lon="3.06486">
        <ele>491</ele>
        <time>2021-08-15T05:53:15Z</time>
      </trkpt>
      <trkpt lat="45.84993" lon="3.06483">
        <ele>491</ele>
        <time>2021-08-15T05:53:16Z</time>
      </trkpt>
      <trkpt lat="45.84993" lon="3.0648">
        <ele>491</ele>
        <time>2021-08-15T05:53:17Z</time>
      </trkpt>
      <trkpt lat="45.84993" lon="3.06478">
        <ele>491</ele>
        <time>2021-08-15T05:53:18Z</time>
      </trkpt>
      <trkpt lat="45.84993" lon="3.06475">
        <ele>491</ele>
        <time>2021-08-15T05:53:19Z</time>
      </trkpt>
      <trkpt lat="45.84993" lon="3.06472">
        <ele>491</ele>
        <time>2021-08-15T05:53:20Z</time>
      </trkpt>
      <trkpt lat="45.84993" lon="3.0647">
        <ele>491</ele>
        <time>2021-08-15T05:53:21Z</time>
      </trkpt>
      <trkpt lat="45.84993" lon="3.06468">
        <ele>491</ele>
        <time>2021-08-15T05:53:22Z</time>
      </trkpt>
      <trkpt lat="45.84994" lon="3.06466">
        <ele>491</ele>
        <time>2021-08-15T05:53:23Z</time>
      </trkpt>
      <trkpt lat="45.84994" lon="3.06463">
        <ele>491</ele>
        <time>2021-08-15T05:53:24Z</time>
      </trkpt>
      <trkpt lat="45.84994" lon="3.06461">
        <ele>491</ele>
        <time>2021-08-15T05:53:25Z</time>
      </trkpt>
      <trkpt lat="45.84994" lon="3.06458">
        <ele>491</ele>
        <time>2021-08-15T05:53:26Z</time>
      </trkpt>
      <trkpt lat="45.84995" lon="3.06456">
        <ele>491</ele>
        <time>2021-08-15T05:53:27Z</time>
      </trkpt>
      <trkpt lat="45.84995" lon="3.06453">
        <ele>491</ele>
        <time>2021-08-15T05:53:28Z</time>
      </trkpt>
      <trkpt lat="45.84995" lon="3.0645">
        <ele>491</ele>
        <time>2021-08-15T05:53:29Z</time>
      </trkpt>
      <trkpt lat="45.84995" lon="3.06447">
        <ele>491</ele>
        <time>2021-08-15T05:53:30Z</time>
      </trkpt>
      <trkpt lat="45.84995" lon="3.06445">
        <ele>491</ele>
        <time>2021-08-15T05:53:31Z</time>
      </trkpt>
      <trkpt lat="45.84995" lon="3.06442">
        <ele>491</ele>
        <time>2021-08-15T05:53:32Z</time>
      </trkpt>
      <trkpt lat="45.84995" lon="3.0644">
        <ele>491</ele>
        <time>2021-08-15T05:53:33Z</time>
      </trkpt>
      <trkpt lat="45.84995" lon="3.06437">
        <ele>491</ele>
        <time>2021-08-15T05:53:34Z</time>
      </trkpt>
      <trkpt lat="45.84995" lon="3.06435">
        <ele>491</ele>
        <time>2021-08-15T05:53:35Z</time>
      </trkpt>
      <trkpt lat="45.84995" lon="3.06433">
        <ele>491</ele>
        <time>2021-08-15T05:53:36Z</time>
      </trkpt>
      <trkpt lat="45.84995" lon="3.06431">
        <ele>491</ele>
        <time>2021-08-15T05:53:37Z</time>
      </trkpt>
      <trkpt lat="45.84995" lon="3.06429">
        <ele>491</ele>
        <time>2021-08-15T05:53:38Z</time>
      </trkpt>
      <trkpt lat="45.84995" lon="3.06427">
        <ele>491</ele>
        <time>2021-08-15T05:53:39Z</time>
      </trkpt>
      <trkpt lat="45.84995" lon="3.06425">
        <ele>491</ele>
        <time>2021-08-15T05:53:40Z</time>
      </trkpt>
      <trkpt lat="45.84995" lon="3.06423">
        <ele>491</ele>
        <time>2021-08-15T05:53:41Z</time>
      </trkpt>
      <trkpt lat="45.84995" lon="3.06421">
        <ele>491</ele>
        <time>2021-08-15T05:53:42Z</time>
      </trkpt>
      <trkpt lat="45.84995" lon="3.06419">
        <ele>491</ele>
        <time>2021-08-15T05:53:43Z</time>
      </trkpt>
      <trkpt lat="45.84995" lon="3.06417">
        <ele>491</ele>
        <time>2021-08-15T05:53:44Z</time>
      </trkpt>
      <trkpt lat="45.84994" lon="3.06415">
        <ele>491</ele>
        <time>2021-08-15T05:53:45Z</time>
      </trkpt>
      <trkpt lat="45.84995" lon="3.06414">
        <ele>491</ele>
        <time>2021-08-15T05:53:46Z</time>
      </trkpt>
      <trkpt lat="45.84995" lon="3.06412">
        <ele>491</ele>
        <time>2021-08-15T05:53:47Z</time>
      </trkpt>
      <trkpt lat="45.84995" lon="3.0641">
        <ele>491</ele>
        <time>2021-08-15T05:53:48Z</time>
      </trkpt>
      <trkpt lat="45.84995" lon="3.06407">
        <ele>491</ele>
        <time>2021-08-15T05:53:49Z</time>
      </trkpt>
      <trkpt lat="45.84995" lon="3.06405">
        <ele>491</ele>
        <time>2021-08-15T05:53:50Z</time>
      </trkpt>
      <trkpt lat="45.84995" lon="3.06403">
        <ele>491</ele>
        <time>2021-08-15T05:53:51Z</time>
      </trkpt>
      <trkpt lat="45.84995" lon="3.06401">
        <ele>491</ele>
        <time>2021-08-15T05:53:52Z</time>
      </trkpt>
      <trkpt lat="45.84995" lon="3.06399">
        <ele>491</ele>
        <time>2021-08-15T05:53:53Z</time>
      </trkpt>
      <trkpt lat="45.84995" lon="3.06396">
        <ele>491</ele>
        <time>2021-08-15T05:53:54Z</time>
      </trkpt>
      <trkpt lat="45.84995" lon="3.06394">
        <ele>491</ele>
        <time>2021-08-15T05:53:56Z</time>
      </trkpt>
      <trkpt lat="45.84996" lon="3.06386">
        <ele>491</ele>
        <time>2021-08-15T05:53:57Z</time>
      </trkpt>
      <trkpt lat="45.84996" lon="3.06385">
        <ele>491</ele>
        <time>2021-08-15T05:53:58Z</time>
      </trkpt>
      <trkpt lat="45.84997" lon="3.06384">
        <ele>491</ele>
        <time>2021-08-15T05:53:59Z</time>
      </trkpt>
      <trkpt lat="45.84997" lon="3.06383">
        <ele>491</ele>
        <time>2021-08-15T05:54:00Z</time>
      </trkpt>
      <trkpt lat="45.84998" lon="3.06381">
        <ele>491</ele>
        <time>2021-08-15T05:54:01Z</time>
      </trkpt>
      <trkpt lat="45.84998" lon="3.06379">
        <ele>491</ele>
        <time>2021-08-15T05:54:02Z</time>
      </trkpt>
      <trkpt lat="45.84998" lon="3.06377">
        <ele>491</ele>
        <time>2021-08-15T05:54:03Z</time>
      </trkpt>
      <trkpt lat="45.84998" lon="3.06374">
        <ele>491</ele>
        <time>2021-08-15T05:54:04Z</time>
      </trkpt>
      <trkpt lat="45.84998" lon="3.06372">
        <ele>491</ele>
        <time>2021-08-15T05:54:05Z</time>
      </trkpt>
      <trkpt lat="45.84998" lon="3.0637">
        <ele>491</ele>
        <time>2021-08-15T05:54:06Z</time>
      </trkpt>
      <trkpt lat="45.84998" lon="3.06367">
        <ele>491</ele>
        <time>2021-08-15T05:54:07Z</time>
      </trkpt>
      <trkpt lat="45.84998" lon="3.06365">
        <ele>491</ele>
        <time>2021-08-15T05:54:08Z</time>
      </trkpt>
      <trkpt lat="45.84998" lon="3.06362">
        <ele>491</ele>
        <time>2021-08-15T05:54:09Z</time>
      </trkpt>
      <trkpt lat="45.84998" lon="3.0636">
        <ele>491</ele>
        <time>2021-08-15T05:54:10Z</time>
      </trkpt>
      <trkpt lat="45.84998" lon="3.06357">
        <ele>491</ele>
        <time>2021-08-15T05:54:11Z</time>
      </trkpt>
      <trkpt lat="45.84998" lon="3.06355">
        <ele>491</ele>
        <time>2021-08-15T05:54:12Z</time>
      </trkpt>
      <trkpt lat="45.84999" lon="3.06352">
        <ele>491</ele>
        <time>2021-08-15T05:54:13Z</time>
      </trkpt>
      <trkpt lat="45.84999" lon="3.06349">
        <ele>491</ele>
        <time>2021-08-15T05:54:14Z</time>
      </trkpt>
      <trkpt lat="45.85" lon="3.06346">
        <ele>491</ele>
        <time>2021-08-15T05:54:15Z</time>
      </trkpt>
      <trkpt lat="45.85" lon="3.06343">
        <ele>491</ele>
        <time>2021-08-15T05:54:16Z</time>
      </trkpt>
      <trkpt lat="45.85" lon="3.0634">
        <ele>491</ele>
        <time>2021-08-15T05:54:17Z</time>
      </trkpt>
      <trkpt lat="45.85" lon="3.06338">
        <ele>491</ele>
        <time>2021-08-15T05:54:18Z</time>
      </trkpt>
      <trkpt lat="45.85001" lon="3.06336">
        <ele>491</ele>
        <time>2021-08-15T05:54:19Z</time>
      </trkpt>
      <trkpt lat="45.85001" lon="3.06334">
        <ele>491</ele>
        <time>2021-08-15T05:54:20Z</time>
      </trkpt>
      <trkpt lat="45.85001" lon="3.06332">
        <ele>491</ele>
        <time>2021-08-15T05:54:21Z</time>
      </trkpt>
      <trkpt lat="45.85003" lon="3.06329">
        <ele>491</ele>
        <time>2021-08-15T05:54:22Z</time>
      </trkpt>
      <trkpt lat="45.85003" lon="3.06327">
        <ele>491</ele>
        <time>2021-08-15T05:54:23Z</time>
      </trkpt>
      <trkpt lat="45.85004" lon="3.06325">
        <ele>491</ele>
        <time>2021-08-15T05:54:24Z</time>
      </trkpt>
      <trkpt lat="45.85004" lon="3.06323">
        <ele>491</ele>
        <time>2021-08-15T05:54:25Z</time>
      </trkpt>
      <trkpt lat="45.85005" lon="3.06321">
        <ele>491</ele>
        <time>2021-08-15T05:54:26Z</time>
      </trkpt>
      <trkpt lat="45.85006" lon="3.06319">
        <ele>491</ele>
        <time>2021-08-15T05:54:27Z</time>
      </trkpt>
      <trkpt lat="45.85007" lon="3.06317">
        <ele>491</ele>
        <time>2021-08-15T05:54:28Z</time>
      </trkpt>
      <trkpt lat="45.85008" lon="3.06315">
        <ele>491</ele>
        <time>2021-08-15T05:54:29Z</time>
      </trkpt>
      <trkpt lat="45.85009" lon="3.06312">
        <ele>491</ele>
        <time>2021-08-15T05:54:30Z</time>
      </trkpt>
      <trkpt lat="45.85009" lon="3.0631">
        <ele>491</ele>
        <time>2021-08-15T05:54:31Z</time>
      </trkpt>
      <trkpt lat="45.8501" lon="3.06308">
        <ele>491</ele>
        <time>2021-08-15T05:54:32Z</time>
      </trkpt>
      <trkpt lat="45.8501" lon="3.06307">
        <ele>491</ele>
        <time>2021-08-15T05:54:33Z</time>
      </trkpt>
      <trkpt lat="45.85011" lon="3.06304">
        <ele>491</ele>
        <time>2021-08-15T05:54:34Z</time>
      </trkpt>
      <trkpt lat="45.85012" lon="3.06303">
        <ele>491</ele>
        <time>2021-08-15T05:54:35Z</time>
      </trkpt>
      <trkpt lat="45.85012" lon="3.06301">
        <ele>491</ele>
        <time>2021-08-15T05:54:36Z</time>
      </trkpt>
      <trkpt lat="45.85013" lon="3.06299">
        <ele>491</ele>
        <time>2021-08-15T05:54:37Z</time>
      </trkpt>
      <trkpt lat="45.85014" lon="3.06297">
        <ele>491</ele>
        <time>2021-08-15T05:54:38Z</time>
      </trkpt>
      <trkpt lat="45.85015" lon="3.06295">
        <ele>491</ele>
        <time>2021-08-15T05:54:39Z</time>
      </trkpt>
      <trkpt lat="45.85016" lon="3.06293">
        <ele>491</ele>
        <time>2021-08-15T05:54:40Z</time>
      </trkpt>
      <trkpt lat="45.85016" lon="3.06291">
        <ele>491</ele>
        <time>2021-08-15T05:54:41Z</time>
      </trkpt>
      <trkpt lat="45.85017" lon="3.06289">
        <ele>491</ele>
        <time>2021-08-15T05:54:42Z</time>
      </trkpt>
      <trkpt lat="45.85018" lon="3.06286">
        <ele>491</ele>
        <time>2021-08-15T05:54:43Z</time>
      </trkpt>
      <trkpt lat="45.85019" lon="3.06284">
        <ele>491</ele>
        <time>2021-08-15T05:54:44Z</time>
      </trkpt>
      <trkpt lat="45.85019" lon="3.06282">
        <ele>491</ele>
        <time>2021-08-15T05:54:45Z</time>
      </trkpt>
      <trkpt lat="45.8502" lon="3.0628">
        <ele>491</ele>
        <time>2021-08-15T05:54:46Z</time>
      </trkpt>
      <trkpt lat="45.85021" lon="3.06278">
        <ele>491</ele>
        <time>2021-08-15T05:54:47Z</time>
      </trkpt>
      <trkpt lat="45.85022" lon="3.06276">
        <ele>491</ele>
        <time>2021-08-15T05:54:48Z</time>
      </trkpt>
      <trkpt lat="45.85022" lon="3.06274">
        <ele>491</ele>
        <time>2021-08-15T05:54:49Z</time>
      </trkpt>
      <trkpt lat="45.85022" lon="3.06272">
        <ele>491</ele>
        <time>2021-08-15T05:54:50Z</time>
      </trkpt>
      <trkpt lat="45.85024" lon="3.06271">
        <ele>491</ele>
        <time>2021-08-15T05:54:51Z</time>
      </trkpt>
      <trkpt lat="45.85024" lon="3.06269">
        <ele>491</ele>
        <time>2021-08-15T05:54:52Z</time>
      </trkpt>
      <trkpt lat="45.85025" lon="3.06267">
        <ele>491</ele>
        <time>2021-08-15T05:54:54Z</time>
      </trkpt>
      <trkpt lat="45.85025" lon="3.06266">
        <ele>491</ele>
        <time>2021-08-15T05:54:55Z</time>
      </trkpt>
      <trkpt lat="45.85028" lon="3.06261">
        <ele>491</ele>
        <time>2021-08-15T05:54:56Z</time>
      </trkpt>
      <trkpt lat="45.85029" lon="3.0626">
        <ele>491</ele>
        <time>2021-08-15T05:54:57Z</time>
      </trkpt>
      <trkpt lat="45.85029" lon="3.0626">
        <ele>491</ele>
        <time>2021-08-15T05:54:58Z</time>
      </trkpt>
      <trkpt lat="45.85029" lon="3.06258">
        <ele>491</ele>
        <time>2021-08-15T05:54:59Z</time>
      </trkpt>
      <trkpt lat="45.8503" lon="3.06257">
        <ele>491</ele>
        <time>2021-08-15T05:55:00Z</time>
      </trkpt>
      <trkpt lat="45.85031" lon="3.06255">
        <ele>491</ele>
        <time>2021-08-15T05:55:01Z</time>
      </trkpt>
      <trkpt lat="45.85031" lon="3.06253">
        <ele>491</ele>
        <time>2021-08-15T05:55:02Z</time>
      </trkpt>
      <trkpt lat="45.85032" lon="3.06252">
        <ele>491</ele>
        <time>2021-08-15T05:55:03Z</time>
      </trkpt>
      <trkpt lat="45.85033" lon="3.0625">
        <ele>491</ele>
        <time>2021-08-15T05:55:04Z</time>
      </trkpt>
      <trkpt lat="45.85034" lon="3.06248">
        <ele>491</ele>
        <time>2021-08-15T05:55:05Z</time>
      </trkpt>
      <trkpt lat="45.85035" lon="3.06247">
        <ele>491</ele>
        <time>2021-08-15T05:55:06Z</time>
      </trkpt>
      <trkpt lat="45.85035" lon="3.06245">
        <ele>491</ele>
        <time>2021-08-15T05:55:07Z</time>
      </trkpt>
      <trkpt lat="45.85037" lon="3.06244">
        <ele>491</ele>
        <time>2021-08-15T05:55:08Z</time>
      </trkpt>
      <trkpt lat="45.85038" lon="3.06243">
        <ele>491</ele>
        <time>2021-08-15T05:55:09Z</time>
      </trkpt>
      <trkpt lat="45.85039" lon="3.06242">
        <ele>491</ele>
        <time>2021-08-15T05:55:10Z</time>
      </trkpt>
      <trkpt lat="45.8504" lon="3.06241">
        <ele>491</ele>
        <time>2021-08-15T05:55:11Z</time>
      </trkpt>
      <trkpt lat="45.85041" lon="3.0624">
        <ele>491</ele>
        <time>2021-08-15T05:55:12Z</time>
      </trkpt>
      <trkpt lat="45.85042" lon="3.06238">
        <ele>491</ele>
        <time>2021-08-15T05:55:13Z</time>
      </trkpt>
      <trkpt lat="45.85043" lon="3.06237">
        <ele>491</ele>
        <time>2021-08-15T05:55:14Z</time>
      </trkpt>
      <trkpt lat="45.85044" lon="3.06236">
        <ele>491</ele>
        <time>2021-08-15T05:55:15Z</time>
      </trkpt>
      <trkpt lat="45.85045" lon="3.06234">
        <ele>491</ele>
        <time>2021-08-15T05:55:16Z</time>
      </trkpt>
      <trkpt lat="45.85046" lon="3.06233">
        <ele>491</ele>
        <time>2021-08-15T05:55:17Z</time>
      </trkpt>
      <trkpt lat="45.85047" lon="3.06232">
        <ele>491</ele>
        <time>2021-08-15T05:55:18Z</time>
      </trkpt>
      <trkpt lat="45.85048" lon="3.0623">
        <ele>491</ele>
        <time>2021-08-15T05:55:19Z</time>
      </trkpt>
      <trkpt lat="45.85049" lon="3.06229">
        <ele>491</ele>
        <time>2021-08-15T05:55:20Z</time>
      </trkpt>
      <trkpt lat="45.85049" lon="3.06228">
        <ele>491</ele>
        <time>2021-08-15T05:55:21Z</time>
      </trkpt>
      <trkpt lat="45.85051" lon="3.06227">
        <ele>491</ele>
        <time>2021-08-15T05:55:22Z</time>
      </trkpt>
      <trkpt lat="45.85051" lon="3.06225">
        <ele>491</ele>
        <time>2021-08-15T05:55:23Z</time>
      </trkpt>
      <trkpt lat="45.85052" lon="3.06223">
        <ele>491</ele>
        <time>2021-08-15T05:55:24Z</time>
      </trkpt>
      <trkpt lat="45.85052" lon="3.06221">
        <ele>491</ele>
        <time>2021-08-15T05:55:25Z</time>
      </trkpt>
      <trkpt lat="45.85053" lon="3.06219">
        <ele>491</ele>
        <time>2021-08-15T05:55:26Z</time>
      </trkpt>
      <trkpt lat="45.85053" lon="3.06218">
        <ele>491</ele>
        <time>2021-08-15T05:55:27Z</time>
      </trkpt>
      <trkpt lat="45.85053" lon="3.06216">
        <ele>491</ele>
        <time>2021-08-15T05:55:28Z</time>
      </trkpt>
      <trkpt lat="45.85054" lon="3.06215">
        <ele>491</ele>
        <time>2021-08-15T05:55:29Z</time>
      </trkpt>
      <trkpt lat="45.85054" lon="3.06214">
        <ele>491</ele>
        <time>2021-08-15T05:55:30Z</time>
      </trkpt>
      <trkpt lat="45.85055" lon="3.06213">
        <ele>491</ele>
        <time>2021-08-15T05:55:31Z</time>
      </trkpt>
      <trkpt lat="45.85055" lon="3.06213">
        <ele>491</ele>
        <time>2021-08-15T05:55:32Z</time>
      </trkpt>
      <trkpt lat="45.85056" lon="3.06212">
        <ele>491</ele>
        <time>2021-08-15T05:55:33Z</time>
      </trkpt>
      <trkpt lat="45.85056" lon="3.06211">
        <ele>491</ele>
        <time>2021-08-15T05:55:34Z</time>
      </trkpt>
      <trkpt lat="45.85057" lon="3.06209">
        <ele>491</ele>
        <time>2021-08-15T05:55:35Z</time>
      </trkpt>
      <trkpt lat="45.85057" lon="3.06208">
        <ele>491</ele>
        <time>2021-08-15T05:55:36Z</time>
      </trkpt>
      <trkpt lat="45.85057" lon="3.06207">
        <ele>491</ele>
        <time>2021-08-15T05:55:37Z</time>
      </trkpt>
      <trkpt lat="45.85058" lon="3.06206">
        <ele>491</ele>
        <time>2021-08-15T05:55:37Z</time>
      </trkpt>
      <trkpt lat="45.85058" lon="3.06205">
        <ele>491</ele>
        <time>2021-08-15T05:55:38Z</time>
      </trkpt>
      <trkpt lat="45.85059" lon="3.06203">
        <ele>491</ele>
        <time>2021-08-15T05:55:39Z</time>
      </trkpt>
      <trkpt lat="45.8506" lon="3.06202">
        <ele>491</ele>
        <time>2021-08-15T05:55:40Z</time>
      </trkpt>
      <trkpt lat="45.85061" lon="3.06201">
        <ele>491</ele>
        <time>2021-08-15T05:55:41Z</time>
      </trkpt>
      <trkpt lat="45.85061" lon="3.06199">
        <ele>491</ele>
        <time>2021-08-15T05:55:42Z</time>
      </trkpt>
      <trkpt lat="45.85061" lon="3.06198">
        <ele>491</ele>
        <time>2021-08-15T05:55:43Z</time>
      </trkpt>
      <trkpt lat="45.85062" lon="3.06197">
        <ele>491</ele>
        <time>2021-08-15T05:55:44Z</time>
      </trkpt>
      <trkpt lat="45.85063" lon="3.06196">
        <ele>491</ele>
        <time>2021-08-15T05:55:45Z</time>
      </trkpt>
      <trkpt lat="45.85064" lon="3.06195">
        <ele>491</ele>
        <time>2021-08-15T05:55:46Z</time>
      </trkpt>
      <trkpt lat="45.85064" lon="3.06194">
        <ele>491</ele>
        <time>2021-08-15T05:55:47Z</time>
      </trkpt>
      <trkpt lat="45.85065" lon="3.06194">
        <ele>491</ele>
        <time>2021-08-15T05:55:48Z</time>
      </trkpt>
      <trkpt lat="45.85066" lon="3.06193">
        <ele>491</ele>
        <time>2021-08-15T05:55:49Z</time>
      </trkpt>
      <trkpt lat="45.85067" lon="3.06192">
        <ele>491</ele>
        <time>2021-08-15T05:55:50Z</time>
      </trkpt>
      <trkpt lat="45.85067" lon="3.06191">
        <ele>491</ele>
        <time>2021-08-15T05:55:51Z</time>
      </trkpt>
      <trkpt lat="45.85068" lon="3.0619">
        <ele>491</ele>
        <time>2021-08-15T05:55:53Z</time>
      </trkpt>
      <trkpt lat="45.85071" lon="3.06185">
        <ele>491</ele>
        <time>2021-08-15T05:55:55Z</time>
      </trkpt>
      <trkpt lat="45.85074" lon="3.06183">
        <ele>491</ele>
        <time>2021-08-15T05:55:56Z</time>
      </trkpt>
      <trkpt lat="45.85074" lon="3.06182">
        <ele>491</ele>
        <time>2021-08-15T05:55:57Z</time>
      </trkpt>
      <trkpt lat="45.85075" lon="3.06182">
        <ele>491</ele>
        <time>2021-08-15T05:55:58Z</time>
      </trkpt>
      <trkpt lat="45.85076" lon="3.06181">
        <ele>491</ele>
        <time>2021-08-15T05:55:59Z</time>
      </trkpt>
      <trkpt lat="45.85076" lon="3.06181">
        <ele>491</ele>
        <time>2021-08-15T05:56:00Z</time>
      </trkpt>
      <trkpt lat="45.85077" lon="3.0618">
        <ele>491</ele>
        <time>2021-08-15T05:56:01Z</time>
      </trkpt>
      <trkpt lat="45.85078" lon="3.06179">
        <ele>491</ele>
        <time>2021-08-15T05:56:02Z</time>
      </trkpt>
      <trkpt lat="45.85079" lon="3.06178">
        <ele>491</ele>
        <time>2021-08-15T05:56:03Z</time>
      </trkpt>
      <trkpt lat="45.85081" lon="3.06177">
        <ele>491</ele>
        <time>2021-08-15T05:56:04Z</time>
      </trkpt>
      <trkpt lat="45.85082" lon="3.06176">
        <ele>491</ele>
        <time>2021-08-15T05:56:05Z</time>
      </trkpt>
      <trkpt lat="45.85083" lon="3.06176">
        <ele>491</ele>
        <time>2021-08-15T05:56:06Z</time>
      </trkpt>
      <trkpt lat="45.85085" lon="3.06175">
        <ele>491</ele>
        <time>2021-08-15T05:56:07Z</time>
      </trkpt>
      <trkpt lat="45.85086" lon="3.06174">
        <ele>491</ele>
        <time>2021-08-15T05:56:08Z</time>
      </trkpt>
      <trkpt lat="45.85088" lon="3.06173">
        <ele>491</ele>
        <time>2021-08-15T05:56:09Z</time>
      </trkpt>
      <trkpt lat="45.8509" lon="3.06172">
        <ele>491</ele>
        <time>2021-08-15T05:56:10Z</time>
      </trkpt>
      <trkpt lat="45.85091" lon="3.06171">
        <ele>491</ele>
        <time>2021-08-15T05:56:11Z</time>
      </trkpt>
      <trkpt lat="45.85093" lon="3.0617">
        <ele>491</ele>
        <time>2021-08-15T05:56:12Z</time>
      </trkpt>
      <trkpt lat="45.85094" lon="3.06169">
        <ele>491</ele>
        <time>2021-08-15T05:56:13Z</time>
      </trkpt>
      <trkpt lat="45.85096" lon="3.06168">
        <ele>491</ele>
        <time>2021-08-15T05:56:14Z</time>
      </trkpt>
      <trkpt lat="45.85097" lon="3.06166">
        <ele>491</ele>
        <time>2021-08-15T05:56:15Z</time>
      </trkpt>
      <trkpt lat="45.85098" lon="3.06165">
        <ele>491</ele>
        <time>2021-08-15T05:56:16Z</time>
      </trkpt>
      <trkpt lat="45.85099" lon="3.06164">
        <ele>491</ele>
        <time>2021-08-15T05:56:17Z</time>
      </trkpt>
      <trkpt lat="45.851" lon="3.06162">
        <ele>491</ele>
        <time>2021-08-15T05:56:18Z</time>
      </trkpt>
      <trkpt lat="45.85101" lon="3.06161">
        <ele>491</ele>
        <time>2021-08-15T05:56:19Z</time>
      </trkpt>
      <trkpt lat="45.85103" lon="3.06159">
        <ele>491</ele>
        <time>2021-08-15T05:56:20Z</time>
      </trkpt>
      <trkpt lat="45.85103" lon="3.06158">
        <ele>491</ele>
        <time>2021-08-15T05:56:21Z</time>
      </trkpt>
      <trkpt lat="45.85104" lon="3.06157">
        <ele>491</ele>
        <time>2021-08-15T05:56:22Z</time>
      </trkpt>
      <trkpt lat="45.85106" lon="3.06155">
        <ele>491</ele>
        <time>2021-08-15T05:56:23Z</time>
      </trkpt>
      <trkpt lat="45.85106" lon="3.06154">
        <ele>491</ele>
        <time>2021-08-15T05:56:24Z</time>
      </trkpt>
      <trkpt lat="45.85107" lon="3.06153">
        <ele>491</ele>
        <time>2021-08-15T05:56:25Z</time>
      </trkpt>
      <trkpt lat="45.85109" lon="3.06151">
        <ele>491</ele>
        <time>2021-08-15T05:56:26Z</time>
      </trkpt>
      <trkpt lat="45.85109" lon="3.0615">
        <ele>491</ele>
        <time>2021-08-15T05:56:27Z</time>
      </trkpt>
      <trkpt lat="45.85111" lon="3.06149">
        <ele>491</ele>
        <time>2021-08-15T05:56:28Z</time>
      </trkpt>
      <trkpt lat="45.85112" lon="3.06148">
        <ele>491</ele>
        <time>2021-08-15T05:56:29Z</time>
      </trkpt>
      <trkpt lat="45.85113" lon="3.06146">
        <ele>491</ele>
        <time>2021-08-15T05:56:30Z</time>
      </trkpt>
      <trkpt lat="45.85114" lon="3.06145">
        <ele>491</ele>
        <time>2021-08-15T05:56:31Z</time>
      </trkpt>
      <trkpt lat="45.85116" lon="3.06144">
        <ele>491</ele>
        <time>2021-08-15T05:56:32Z</time>
      </trkpt>
      <trkpt lat="45.85117" lon="3.06143">
        <ele>491</ele>
        <time>2021-08-15T05:56:33Z</time>
      </trkpt>
      <trkpt lat="45.85117" lon="3.06141">
        <ele>491</ele>
        <time>2021-08-15T05:56:34Z</time>
      </trkpt>
      <trkpt lat="45.85118" lon="3.0614">
        <ele>491</ele>
        <time>2021-08-15T05:56:35Z</time>
      </trkpt>
      <trkpt lat="45.85119" lon="3.06139">
        <ele>491</ele>
        <time>2021-08-15T05:56:36Z</time>
      </trkpt>
      <trkpt lat="45.85121" lon="3.06137">
        <ele>491</ele>
        <time>2021-08-15T05:56:37Z</time>
      </trkpt>
      <trkpt lat="45.85122" lon="3.06136">
        <ele>491</ele>
        <time>2021-08-15T05:56:38Z</time>
      </trkpt>
      <trkpt lat="45.85123" lon="3.06134">
        <ele>491</ele>
        <time>2021-08-15T05:56:39Z</time>
      </trkpt>
      <trkpt lat="45.85124" lon="3.06133">
        <ele>491</ele>
        <time>2021-08-15T05:56:40Z</time>
      </trkpt>
      <trkpt lat="45.85125" lon="3.06132">
        <ele>491</ele>
        <time>2021-08-15T05:56:41Z</time>
      </trkpt>
      <trkpt lat="45.85127" lon="3.0613">
        <ele>491</ele>
        <time>2021-08-15T05:56:42Z</time>
      </trkpt>
      <trkpt lat="45.85128" lon="3.06129">
        <ele>491</ele>
        <time>2021-08-15T05:56:43Z</time>
      </trkpt>
      <trkpt lat="45.85129" lon="3.06128">
        <ele>491</ele>
        <time>2021-08-15T05:56:44Z</time>
      </trkpt>
      <trkpt lat="45.8513" lon="3.06127">
        <ele>491</ele>
        <time>2021-08-15T05:56:45Z</time>
      </trkpt>
      <trkpt lat="45.85132" lon="3.06125">
        <ele>491</ele>
        <time>2021-08-15T05:56:46Z</time>
      </trkpt>
      <trkpt lat="45.85133" lon="3.06124">
        <ele>491</ele>
        <time>2021-08-15T05:56:47Z</time>
      </trkpt>
      <trkpt lat="45.85134" lon="3.06123">
        <ele>491</ele>
        <time>2021-08-15T05:56:48Z</time>
      </trkpt>
      <trkpt lat="45.85135" lon="3.06122">
        <ele>491</ele>
        <time>2021-08-15T05:56:49Z</time>
      </trkpt>
      <trkpt lat="45.85137" lon="3.06121">
        <ele>491</ele>
        <time>2021-08-15T05:56:50Z</time>
      </trkpt>
      <trkpt lat="45.85138" lon="3.06119">
        <ele>491</ele>
        <time>2021-08-15T05:56:51Z</time>
      </trkpt>
      <trkpt lat="45.85139" lon="3.06118">
        <ele>491</ele>
        <time>2021-08-15T05:56:55Z</time>
      </trkpt>
      <trkpt lat="45.85146" lon="3.06111">
        <ele>491</ele>
        <time>2021-08-15T05:56:56Z</time>
      </trkpt>
      <trkpt lat="45.85146" lon="3.06111">
        <ele>491</ele>
        <time>2021-08-15T05:56:57Z</time>
      </trkpt>
      <trkpt lat="45.85147" lon="3.0611">
        <ele>491</ele>
        <time>2021-08-15T05:56:58Z</time>
      </trkpt>
      <trkpt lat="45.85148" lon="3.06109">
        <ele>491</ele>
        <time>2021-08-15T05:56:59Z</time>
      </trkpt>
      <trkpt lat="45.85149" lon="3.06108">
        <ele>491</ele>
        <time>2021-08-15T05:57:00Z</time>
      </trkpt>
      <trkpt lat="45.85151" lon="3.06107">
        <ele>491</ele>
        <time>2021-08-15T05:57:01Z</time>
      </trkpt>
      <trkpt lat="45.85152" lon="3.06105">
        <ele>491</ele>
        <time>2021-08-15T05:57:02Z</time>
      </trkpt>
      <trkpt lat="45.85154" lon="3.06104">
        <ele>491</ele>
        <time>2021-08-15T05:57:03Z</time>
      </trkpt>
      <trkpt lat="45.85155" lon="3.06103">
        <ele>491</ele>
        <time>2021-08-15T05:57:04Z</time>
      </trkpt>
      <trkpt lat="45.85157" lon="3.06101">
        <ele>491</ele>
        <time>2021-08-15T05:57:05Z</time>
      </trkpt>
      <trkpt lat="45.85158" lon="3.061">
        <ele>491</ele>
        <time>2021-08-15T05:57:06Z</time>
      </trkpt>
      <trkpt lat="45.8516" lon="3.06098">
        <ele>491</ele>
        <time>2021-08-15T05:57:07Z</time>
      </trkpt>
      <trkpt lat="45.85161" lon="3.06097">
        <ele>491</ele>
        <time>2021-08-15T05:57:08Z</time>
      </trkpt>
      <trkpt lat="45.85162" lon="3.06096">
        <ele>491</ele>
        <time>2021-08-15T05:57:09Z</time>
      </trkpt>
      <trkpt lat="45.85163" lon="3.06095">
        <ele>491</ele>
        <time>2021-08-15T05:57:10Z</time>
      </trkpt>
      <trkpt lat="45.85164" lon="3.06094">
        <ele>491</ele>
        <time>2021-08-15T05:57:11Z</time>
      </trkpt>
      <trkpt lat="45.85166" lon="3.06092">
        <ele>491</ele>
        <time>2021-08-15T05:57:12Z</time>
      </trkpt>
      <trkpt lat="45.85167" lon="3.06091">
        <ele>491</ele>
        <time>2021-08-15T05:57:13Z</time>
      </trkpt>
      <trkpt lat="45.85169" lon="3.0609">
        <ele>491</ele>
        <time>2021-08-15T05:57:14Z</time>
      </trkpt>
      <trkpt lat="45.8517" lon="3.06088">
        <ele>491</ele>
        <time>2021-08-15T05:57:15Z</time>
      </trkpt>
      <trkpt lat="45.85172" lon="3.06086">
        <ele>491</ele>
        <time>2021-08-15T05:57:16Z</time>
      </trkpt>
      <trkpt lat="45.85173" lon="3.06084">
        <ele>491</ele>
        <time>2021-08-15T05:57:17Z</time>
      </trkpt>
      <trkpt lat="45.85175" lon="3.06082">
        <ele>491</ele>
        <time>2021-08-15T05:57:18Z</time>
      </trkpt>
      <trkpt lat="45.85177" lon="3.0608">
        <ele>491</ele>
        <time>2021-08-15T05:57:19Z</time>
      </trkpt>
      <trkpt lat="45.85178" lon="3.06078">
        <ele>491</ele>
        <time>2021-08-15T05:57:20Z</time>
      </trkpt>
      <trkpt lat="45.8518" lon="3.06076">
        <ele>491</ele>
        <time>2021-08-15T05:57:21Z</time>
      </trkpt>
      <trkpt lat="45.85181" lon="3.06074">
        <ele>491</ele>
        <time>2021-08-15T05:57:22Z</time>
      </trkpt>
      <trkpt lat="45.85183" lon="3.06073">
        <ele>491</ele>
        <time>2021-08-15T05:57:23Z</time>
      </trkpt>
      <trkpt lat="45.85184" lon="3.06071">
        <ele>491</ele>
        <time>2021-08-15T05:57:24Z</time>
      </trkpt>
      <trkpt lat="45.85185" lon="3.06069">
        <ele>491</ele>
        <time>2021-08-15T05:57:25Z</time>
      </trkpt>
      <trkpt lat="45.85186" lon="3.06067">
        <ele>491</ele>
        <time>2021-08-15T05:57:26Z</time>
      </trkpt>
      <trkpt lat="45.85187" lon="3.06065">
        <ele>491</ele>
        <time>2021-08-15T05:57:27Z</time>
      </trkpt>
      <trkpt lat="45.85188" lon="3.06062">
        <ele>491</ele>
        <time>2021-08-15T05:57:28Z</time>
      </trkpt>
      <trkpt lat="45.85188" lon="3.0606">
        <ele>491</ele>
        <time>2021-08-15T05:57:29Z</time>
      </trkpt>
      <trkpt lat="45.85189" lon="3.06058">
        <ele>491</ele>
        <time>2021-08-15T05:57:30Z</time>
      </trkpt>
      <trkpt lat="45.8519" lon="3.06055">
        <ele>491</ele>
        <time>2021-08-15T05:57:31Z</time>
      </trkpt>
      <trkpt lat="45.85191" lon="3.06052">
        <ele>491</ele>
        <time>2021-08-15T05:57:32Z</time>
      </trkpt>
      <trkpt lat="45.85192" lon="3.0605">
        <ele>491</ele>
        <time>2021-08-15T05:57:33Z</time>
      </trkpt>
      <trkpt lat="45.85193" lon="3.06048">
        <ele>491</ele>
        <time>2021-08-15T05:57:34Z</time>
      </trkpt>
      <trkpt lat="45.85194" lon="3.06045">
        <ele>491</ele>
        <time>2021-08-15T05:57:35Z</time>
      </trkpt>
      <trkpt lat="45.85195" lon="3.06043">
        <ele>491</ele>
        <time>2021-08-15T05:57:36Z</time>
      </trkpt>
      <trkpt lat="45.85196" lon="3.06041">
        <ele>491</ele>
        <time>2021-08-15T05:57:37Z</time>
      </trkpt>
      <trkpt lat="45.85197" lon="3.06038">
        <ele>491</ele>
        <time>2021-08-15T05:57:38Z</time>
      </trkpt>
      <trkpt lat="45.85197" lon="3.06036">
        <ele>491</ele>
        <time>2021-08-15T05:57:39Z</time>
      </trkpt>
      <trkpt lat="45.85198" lon="3.06034">
        <ele>491</ele>
        <time>2021-08-15T05:57:40Z</time>
      </trkpt>
      <trkpt lat="45.85199" lon="3.06032">
        <ele>491</ele>
        <time>2021-08-15T05:57:41Z</time>
      </trkpt>
      <trkpt lat="45.852" lon="3.06029">
        <ele>491</ele>
        <time>2021-08-15T05:57:42Z</time>
      </trkpt>
      <trkpt lat="45.852" lon="3.06028">
        <ele>491</ele>
        <time>2021-08-15T05:57:43Z</time>
      </trkpt>
      <trkpt lat="45.85201" lon="3.06026">
        <ele>491</ele>
        <time>2021-08-15T05:57:44Z</time>
      </trkpt>
      <trkpt lat="45.85201" lon="3.06024">
        <ele>491</ele>
        <time>2021-08-15T05:57:45Z</time>
      </trkpt>
      <trkpt lat="45.85202" lon="3.06022">
        <ele>491</ele>
        <time>2021-08-15T05:57:46Z</time>
      </trkpt>
      <trkpt lat="45.85203" lon="3.06021">
        <ele>491</ele>
        <time>2021-08-15T05:57:47Z</time>
      </trkpt>
      <trkpt lat="45.85203" lon="3.06019">
        <ele>491</ele>
        <time>2021-08-15T05:57:48Z</time>
      </trkpt>
      <trkpt lat="45.85204" lon="3.06017">
        <ele>491</ele>
        <time>2021-08-15T05:57:49Z</time>
      </trkpt>
      <trkpt lat="45.85205" lon="3.06015">
        <ele>491</ele>
        <time>2021-08-15T05:57:50Z</time>
      </trkpt>
      <trkpt lat="45.85207" lon="3.06013">
        <ele>491</ele>
        <time>2021-08-15T05:57:51Z</time>
      </trkpt>
      <trkpt lat="45.85208" lon="3.06011">
        <ele>491</ele>
        <time>2021-08-15T05:57:53Z</time>
      </trkpt>
      <trkpt lat="45.85212" lon="3.06002">
        <ele>491</ele>
        <time>2021-08-15T05:57:55Z</time>
      </trkpt>
      <trkpt lat="45.85215" lon="3.05997">
        <ele>491</ele>
        <time>2021-08-15T05:57:56Z</time>
      </trkpt>
      <trkpt lat="45.85215" lon="3.05997">
        <ele>491</ele>
        <time>2021-08-15T05:57:57Z</time>
      </trkpt>
      <trkpt lat="45.85215" lon="3.05996">
        <ele>491</ele>
        <time>2021-08-15T05:57:58Z</time>
      </trkpt>
      <trkpt lat="45.85215" lon="3.05994">
        <ele>491</ele>
        <time>2021-08-15T05:57:59Z</time>
      </trkpt>
      <trkpt lat="45.85216" lon="3.05993">
        <ele>491</ele>
        <time>2021-08-15T05:58:00Z</time>
      </trkpt>
      <trkpt lat="45.85217" lon="3.05991">
        <ele>491</ele>
        <time>2021-08-15T05:58:01Z</time>
      </trkpt>
      <trkpt lat="45.85218" lon="3.05989">
        <ele>491</ele>
        <time>2021-08-15T05:58:02Z</time>
      </trkpt>
      <trkpt lat="45.85218" lon="3.05987">
        <ele>491</ele>
        <time>2021-08-15T05:58:03Z</time>
      </trkpt>
      <trkpt lat="45.85219" lon="3.05985">
        <ele>491</ele>
        <time>2021-08-15T05:58:04Z</time>
      </trkpt>
      <trkpt lat="45.8522" lon="3.05983">
        <ele>491</ele>
        <time>2021-08-15T05:58:05Z</time>
      </trkpt>
      <trkpt lat="45.85221" lon="3.05982">
        <ele>491</ele>
        <time>2021-08-15T05:58:06Z</time>
      </trkpt>
      <trkpt lat="45.85222" lon="3.0598">
        <ele>491</ele>
        <time>2021-08-15T05:58:07Z</time>
      </trkpt>
      <trkpt lat="45.85223" lon="3.05978">
        <ele>491</ele>
        <time>2021-08-15T05:58:08Z</time>
      </trkpt>
      <trkpt lat="45.85223" lon="3.05976">
        <ele>491</ele>
        <time>2021-08-15T05:58:09Z</time>
      </trkpt>
      <trkpt lat="45.85224" lon="3.05975">
        <ele>491</ele>
        <time>2021-08-15T05:58:10Z</time>
      </trkpt>
      <trkpt lat="45.85225" lon="3.05973">
        <ele>491</ele>
        <time>2021-08-15T05:58:11Z</time>
      </trkpt>
      <trkpt lat="45.85225" lon="3.0597">
        <ele>491</ele>
        <time>2021-08-15T05:58:12Z</time>
      </trkpt>
      <trkpt lat="45.85226" lon="3.05968">
        <ele>491</ele>
        <time>2021-08-15T05:58:13Z</time>
      </trkpt>
      <trkpt lat="45.85227" lon="3.05965">
        <ele>491</ele>
        <time>2021-08-15T05:58:14Z</time>
      </trkpt>
      <trkpt lat="45.85228" lon="3.05962">
        <ele>491</ele>
        <time>2021-08-15T05:58:15Z</time>
      </trkpt>
      <trkpt lat="45.85229" lon="3.0596">
        <ele>491</ele>
        <time>2021-08-15T05:58:16Z</time>
      </trkpt>
      <trkpt lat="45.8523" lon="3.05957">
        <ele>491</ele>
        <time>2021-08-15T05:58:17Z</time>
      </trkpt>
      <trkpt lat="45.85231" lon="3.05955">
        <ele>491</ele>
        <time>2021-08-15T05:58:18Z</time>
      </trkpt>
      <trkpt lat="45.85231" lon="3.05953">
        <ele>491</ele>
        <time>2021-08-15T05:58:19Z</time>
      </trkpt>
      <trkpt lat="45.85233" lon="3.05951">
        <ele>491</ele>
        <time>2021-08-15T05:58:20Z</time>
      </trkpt>
      <trkpt lat="45.85233" lon="3.05949">
        <ele>491</ele>
        <time>2021-08-15T05:58:21Z</time>
      </trkpt>
      <trkpt lat="45.85233" lon="3.05947">
        <ele>491</ele>
        <time>2021-08-15T05:58:22Z</time>
      </trkpt>
      <trkpt lat="45.85235" lon="3.05945">
        <ele>491</ele>
        <time>2021-08-15T05:58:23Z</time>
      </trkpt>
      <trkpt lat="45.85235" lon="3.05943">
        <ele>491</ele>
        <time>2021-08-15T05:58:24Z</time>
      </trkpt>
      <trkpt lat="45.85236" lon="3.05941">
        <ele>491</ele>
        <time>2021-08-15T05:58:25Z</time>
      </trkpt>
      <trkpt lat="45.85236" lon="3.05939">
        <ele>491</ele>
        <time>2021-08-15T05:58:26Z</time>
      </trkpt>
      <trkpt lat="45.85237" lon="3.05938">
        <ele>491</ele>
        <time>2021-08-15T05:58:27Z</time>
      </trkpt>
      <trkpt lat="45.85238" lon="3.05936">
        <ele>491</ele>
        <time>2021-08-15T05:58:28Z</time>
      </trkpt>
      <trkpt lat="45.85239" lon="3.05934">
        <ele>491</ele>
        <time>2021-08-15T05:58:29Z</time>
      </trkpt>
      <trkpt lat="45.85239" lon="3.05931">
        <ele>491</ele>
        <time>2021-08-15T05:58:30Z</time>
      </trkpt>
      <trkpt lat="45.8524" lon="3.05929">
        <ele>491</ele>
        <time>2021-08-15T05:58:31Z</time>
      </trkpt>
      <trkpt lat="45.85241" lon="3.05927">
        <ele>491</ele>
        <time>2021-08-15T05:58:32Z</time>
      </trkpt>
      <trkpt lat="45.85241" lon="3.05925">
        <ele>491</ele>
        <time>2021-08-15T05:58:33Z</time>
      </trkpt>
      <trkpt lat="45.85242" lon="3.05923">
        <ele>491</ele>
        <time>2021-08-15T05:58:34Z</time>
      </trkpt>
      <trkpt lat="45.85243" lon="3.0592">
        <ele>491</ele>
        <time>2021-08-15T05:58:35Z</time>
      </trkpt>
      <trkpt lat="45.85243" lon="3.05918">
        <ele>491</ele>
        <time>2021-08-15T05:58:36Z</time>
      </trkpt>
      <trkpt lat="45.85244" lon="3.05916">
        <ele>491</ele>
        <time>2021-08-15T05:58:37Z</time>
      </trkpt>
      <trkpt lat="45.85244" lon="3.05913">
        <ele>491</ele>
        <time>2021-08-15T05:58:38Z</time>
      </trkpt>
      <trkpt lat="45.85245" lon="3.05911">
        <ele>491</ele>
        <time>2021-08-15T05:58:39Z</time>
      </trkpt>
      <trkpt lat="45.85246" lon="3.05909">
        <ele>491</ele>
        <time>2021-08-15T05:58:40Z</time>
      </trkpt>
      <trkpt lat="45.85247" lon="3.05907">
        <ele>491</ele>
        <time>2021-08-15T05:58:41Z</time>
      </trkpt>
      <trkpt lat="45.85248" lon="3.05904">
        <ele>491</ele>
        <time>2021-08-15T05:58:42Z</time>
      </trkpt>
      <trkpt lat="45.85248" lon="3.05902">
        <ele>491</ele>
        <time>2021-08-15T05:58:43Z</time>
      </trkpt>
      <trkpt lat="45.85249" lon="3.059">
        <ele>491</ele>
        <time>2021-08-15T05:58:44Z</time>
      </trkpt>
      <trkpt lat="45.85249" lon="3.05898">
        <ele>491</ele>
        <time>2021-08-15T05:58:45Z</time>
      </trkpt>
      <trkpt lat="45.8525" lon="3.05895">
        <ele>491</ele>
        <time>2021-08-15T05:58:46Z</time>
      </trkpt>
      <trkpt lat="45.85251" lon="3.05893">
        <ele>491</ele>
        <time>2021-08-15T05:58:47Z</time>
      </trkpt>
      <trkpt lat="45.85251" lon="3.05891">
        <ele>491</ele>
        <time>2021-08-15T05:58:48Z</time>
      </trkpt>
      <trkpt lat="45.85251" lon="3.05889">
        <ele>491</ele>
        <time>2021-08-15T05:58:49Z</time>
      </trkpt>
      <trkpt lat="45.85252" lon="3.05886">
        <ele>491</ele>
        <time>2021-08-15T05:58:50Z</time>
      </trkpt>
      <trkpt lat="45.85252" lon="3.05884">
        <ele>491</ele>
        <time>2021-08-15T05:58:51Z</time>
      </trkpt>
      <trkpt lat="45.85254" lon="3.05882">
        <ele>491</ele>
        <time>2021-08-15T05:58:52Z</time>
      </trkpt>
      <trkpt lat="45.85254" lon="3.0588">
        <ele>491</ele>
        <time>2021-08-15T05:58:54Z</time>
      </trkpt>
      <trkpt lat="45.85255" lon="3.0587">
        <ele>491</ele>
        <time>2021-08-15T05:58:55Z</time>
      </trkpt>
      <trkpt lat="45.85255" lon="3.05869">
        <ele>491</ele>
        <time>2021-08-15T05:58:56Z</time>
      </trkpt>
      <trkpt lat="45.85256" lon="3.05868">
        <ele>491</ele>
        <time>2021-08-15T05:58:57Z</time>
      </trkpt>
      <trkpt lat="45.85257" lon="3.05866">
        <ele>491</ele>
        <time>2021-08-15T05:58:58Z</time>
      </trkpt>
      <trkpt lat="45.85257" lon="3.05865">
        <ele>491</ele>
        <time>2021-08-15T05:58:59Z</time>
      </trkpt>
      <trkpt lat="45.85257" lon="3.05863">
        <ele>491</ele>
        <time>2021-08-15T05:59:00Z</time>
      </trkpt>
      <trkpt lat="45.85257" lon="3.05861">
        <ele>491</ele>
        <time>2021-08-15T05:59:01Z</time>
      </trkpt>
      <trkpt lat="45.85257" lon="3.05858">
        <ele>491</ele>
        <time>2021-08-15T05:59:02Z</time>
      </trkpt>
      <trkpt lat="45.85259" lon="3.05856">
        <ele>491</ele>
        <time>2021-08-15T05:59:03Z</time>
      </trkpt>
      <trkpt lat="45.85259" lon="3.05854">
        <ele>491</ele>
        <time>2021-08-15T05:59:04Z</time>
      </trkpt>
      <trkpt lat="45.8526" lon="3.05852">
        <ele>491</ele>
        <time>2021-08-15T05:59:05Z</time>
      </trkpt>
      <trkpt lat="45.8526" lon="3.0585">
        <ele>491</ele>
        <time>2021-08-15T05:59:06Z</time>
      </trkpt>
      <trkpt lat="45.85261" lon="3.05847">
        <ele>491</ele>
        <time>2021-08-15T05:59:07Z</time>
      </trkpt>
      <trkpt lat="45.85262" lon="3.05845">
        <ele>491</ele>
        <time>2021-08-15T05:59:08Z</time>
      </trkpt>
      <trkpt lat="45.85262" lon="3.05843">
        <ele>491</ele>
        <time>2021-08-15T05:59:09Z</time>
      </trkpt>
      <trkpt lat="45.85263" lon="3.05841">
        <ele>491</ele>
        <time>2021-08-15T05:59:10Z</time>
      </trkpt>
      <trkpt lat="45.85263" lon="3.05839">
        <ele>491</ele>
        <time>2021-08-15T05:59:11Z</time>
      </trkpt>
      <trkpt lat="45.85264" lon="3.05836">
        <ele>491</ele>
        <time>2021-08-15T05:59:12Z</time>
      </trkpt>
      <trkpt lat="45.85265" lon="3.05834">
        <ele>491</ele>
        <time>2021-08-15T05:59:13Z</time>
      </trkpt>
      <trkpt lat="45.85265" lon="3.05832">
        <ele>491</ele>
        <time>2021-08-15T05:59:14Z</time>
      </trkpt>
      <trkpt lat="45.85266" lon="3.0583">
        <ele>491</ele>
        <time>2021-08-15T05:59:15Z</time>
      </trkpt>
      <trkpt lat="45.85267" lon="3.05828">
        <ele>491</ele>
        <time>2021-08-15T05:59:16Z</time>
      </trkpt>
      <trkpt lat="45.85267" lon="3.05826">
        <ele>491</ele>
        <time>2021-08-15T05:59:17Z</time>
      </trkpt>
      <trkpt lat="45.85268" lon="3.05823">
        <ele>491</ele>
        <time>2021-08-15T05:59:18Z</time>
      </trkpt>
      <trkpt lat="45.85268" lon="3.05821">
        <ele>491</ele>
        <time>2021-08-15T05:59:19Z</time>
      </trkpt>
      <trkpt lat="45.85269" lon="3.0582">
        <ele>491</ele>
        <time>2021-08-15T05:59:20Z</time>
      </trkpt>
      <trkpt lat="45.85269" lon="3.05818">
        <ele>491</ele>
        <time>2021-08-15T05:59:21Z</time>
      </trkpt>
      <trkpt lat="45.8527" lon="3.05816">
        <ele>491</ele>
        <time>2021-08-15T05:59:22Z</time>
      </trkpt>
      <trkpt lat="45.85271" lon="3.05814">
        <ele>491</ele>
        <time>2021-08-15T05:59:23Z</time>
      </trkpt>
      <trkpt lat="45.85272" lon="3.05812">
        <ele>491</ele>
        <time>2021-08-15T05:59:24Z</time>
      </trkpt>
      <trkpt lat="45.85272" lon="3.05809">
        <ele>491</ele>
        <time>2021-08-15T05:59:25Z</time>
      </trkpt>
      <trkpt lat="45.85273" lon="3.05807">
        <ele>491</ele>
        <time>2021-08-15T05:59:26Z</time>
      </trkpt>
      <trkpt lat="45.85275" lon="3.05804">
        <ele>491</ele>
        <time>2021-08-15T05:59:27Z</time>
      </trkpt>
      <trkpt lat="45.85275" lon="3.05802">
        <ele>491</ele>
        <time>2021-08-15T05:59:28Z</time>
      </trkpt>
      <trkpt lat="45.85276" lon="3.058">
        <ele>491</ele>
        <time>2021-08-15T05:59:29Z</time>
      </trkpt>
      <trkpt lat="45.85277" lon="3.05797">
        <ele>491</ele>
        <time>2021-08-15T05:59:30Z</time>
      </trkpt>
      <trkpt lat="45.85278" lon="3.05795">
        <ele>491</ele>
        <time>2021-08-15T05:59:31Z</time>
      </trkpt>
      <trkpt lat="45.85278" lon="3.05794">
        <ele>491</ele>
        <time>2021-08-15T05:59:32Z</time>
      </trkpt>
      <trkpt lat="45.8528" lon="3.05792">
        <ele>491</ele>
        <time>2021-08-15T05:59:33Z</time>
      </trkpt>
      <trkpt lat="45.85281" lon="3.0579">
        <ele>491</ele>
        <time>2021-08-15T05:59:34Z</time>
      </trkpt>
      <trkpt lat="45.85281" lon="3.05788">
        <ele>491</ele>
        <time>2021-08-15T05:59:35Z</time>
      </trkpt>
      <trkpt lat="45.85283" lon="3.05786">
        <ele>491</ele>
        <time>2021-08-15T05:59:36Z</time>
      </trkpt>
      <trkpt lat="45.85284" lon="3.05784">
        <ele>491</ele>
        <time>2021-08-15T05:59:37Z</time>
      </trkpt>
      <trkpt lat="45.85285" lon="3.05782">
        <ele>491</ele>
        <time>2021-08-15T05:59:38Z</time>
      </trkpt>
      <trkpt lat="45.85286" lon="3.0578">
        <ele>491</ele>
        <time>2021-08-15T05:59:39Z</time>
      </trkpt>
      <trkpt lat="45.85287" lon="3.05779">
        <ele>491</ele>
        <time>2021-08-15T05:59:40Z</time>
      </trkpt>
      <trkpt lat="45.85287" lon="3.05778">
        <ele>491</ele>
        <time>2021-08-15T05:59:41Z</time>
      </trkpt>
      <trkpt lat="45.85288" lon="3.05777">
        <ele>491</ele>
        <time>2021-08-15T05:59:42Z</time>
      </trkpt>
      <trkpt lat="45.85289" lon="3.05776">
        <ele>491</ele>
        <time>2021-08-15T05:59:43Z</time>
      </trkpt>
      <trkpt lat="45.85289" lon="3.05775">
        <ele>491</ele>
        <time>2021-08-15T05:59:44Z</time>
      </trkpt>
      <trkpt lat="45.8529" lon="3.05775">
        <ele>491</ele>
        <time>2021-08-15T05:59:45Z</time>
      </trkpt>
      <trkpt lat="45.85291" lon="3.05775">
        <ele>491</ele>
        <time>2021-08-15T05:59:46Z</time>
      </trkpt>
      <trkpt lat="45.85291" lon="3.05775">
        <ele>491</ele>
        <time>2021-08-15T05:59:47Z</time>
      </trkpt>
      <trkpt lat="45.85292" lon="3.05774">
        <ele>491</ele>
        <time>2021-08-15T05:59:48Z</time>
      </trkpt>
      <trkpt lat="45.85293" lon="3.05774">
        <ele>491</ele>
        <time>2021-08-15T05:59:49Z</time>
      </trkpt>
      <trkpt lat="45.85294" lon="3.05774">
        <ele>491</ele>
        <time>2021-08-15T05:59:50Z</time>
      </trkpt>
      <trkpt lat="45.85295" lon="3.05774">
        <ele>491</ele>
        <time>2021-08-15T05:59:51Z</time>
      </trkpt>
      <trkpt lat="45.85296" lon="3.05774">
        <ele>491</ele>
        <time>2021-08-15T05:59:52Z</time>
      </trkpt>
      <trkpt lat="45.85297" lon="3.05773">
        <ele>491</ele>
        <time>2021-08-15T05:59:53Z</time>
      </trkpt>
      <trkpt lat="45.85302" lon="3.05771">
        <ele>491</ele>
        <time>2021-08-15T05:59:54Z</time>
      </trkpt>
      <trkpt lat="45.85302" lon="3.05771">
        <ele>491</ele>
        <time>2021-08-15T05:59:55Z</time>
      </trkpt>
      <trkpt lat="45.85302" lon="3.05771">
        <ele>491</ele>
        <time>2021-08-15T05:59:56Z</time>
      </trkpt>
      <trkpt lat="45.85304" lon="3.05771">
        <ele>491</ele>
        <time>2021-08-15T05:59:57Z</time>
      </trkpt>
      <trkpt lat="45.85304" lon="3.0577">
        <ele>491</ele>
        <time>2021-08-15T05:59:58Z</time>
      </trkpt>
      <trkpt lat="45.85305" lon="3.0577">
        <ele>491</ele>
        <time>2021-08-15T05:59:59Z</time>
      </trkpt>
      <trkpt lat="45.85307" lon="3.0577">
        <ele>491</ele>
        <time>2021-08-15T06:00:00Z</time>
      </trkpt>
      <trkpt lat="45.85308" lon="3.05769">
        <ele>491</ele>
        <time>2021-08-15T06:00:01Z</time>
      </trkpt>
      <trkpt lat="45.85309" lon="3.05768">
        <ele>491</ele>
        <time>2021-08-15T06:00:02Z</time>
      </trkpt>
      <trkpt lat="45.8531" lon="3.05768">
        <ele>491</ele>
        <time>2021-08-15T06:00:03Z</time>
      </trkpt>
      <trkpt lat="45.85311" lon="3.05767">
        <ele>491</ele>
        <time>2021-08-15T06:00:04Z</time>
      </trkpt>
      <trkpt lat="45.85312" lon="3.05766">
        <ele>491</ele>
        <time>2021-08-15T06:00:05Z</time>
      </trkpt>
      <trkpt lat="45.85313" lon="3.05765">
        <ele>491</ele>
        <time>2021-08-15T06:00:06Z</time>
      </trkpt>
      <trkpt lat="45.85314" lon="3.05764">
        <ele>491</ele>
        <time>2021-08-15T06:00:07Z</time>
      </trkpt>
      <trkpt lat="45.85315" lon="3.05763">
        <ele>491</ele>
        <time>2021-08-15T06:00:08Z</time>
      </trkpt>
      <trkpt lat="45.85317" lon="3.05762">
        <ele>491</ele>
        <time>2021-08-15T06:00:09Z</time>
      </trkpt>
      <trkpt lat="45.85317" lon="3.05761">
        <ele>491</ele>
        <time>2021-08-15T06:00:10Z</time>
      </trkpt>
      <trkpt lat="45.85318" lon="3.05761">
        <ele>491</ele>
        <time>2021-08-15T06:00:11Z</time>
      </trkpt>
      <trkpt lat="45.8532" lon="3.0576">
        <ele>491</ele>
        <time>2021-08-15T06:00:12Z</time>
      </trkpt>
      <trkpt lat="45.85321" lon="3.05759">
        <ele>491</ele>
        <time>2021-08-15T06:00:13Z</time>
      </trkpt>
      <trkpt lat="45.85322" lon="3.05757">
        <ele>491</ele>
        <time>2021-08-15T06:00:14Z</time>
      </trkpt>
      <trkpt lat="45.85323" lon="3.05756">
        <ele>491</ele>
        <time>2021-08-15T06:00:15Z</time>
      </trkpt>
      <trkpt lat="45.85325" lon="3.05755">
        <ele>491</ele>
        <time>2021-08-15T06:00:16Z</time>
      </trkpt>
      <trkpt lat="45.85326" lon="3.05755">
        <ele>491</ele>
        <time>2021-08-15T06:00:17Z</time>
      </trkpt>
      <trkpt lat="45.85327" lon="3.05754">
        <ele>491</ele>
        <time>2021-08-15T06:00:18Z</time>
      </trkpt>
      <trkpt lat="45.85328" lon="3.05752">
        <ele>491</ele>
        <time>2021-08-15T06:00:19Z</time>
      </trkpt>
      <trkpt lat="45.85329" lon="3.05751">
        <ele>491</ele>
        <time>2021-08-15T06:00:20Z</time>
      </trkpt>
      <trkpt lat="45.8533" lon="3.0575">
        <ele>491</ele>
        <time>2021-08-15T06:00:21Z</time>
      </trkpt>
      <trkpt lat="45.85332" lon="3.05749">
        <ele>491</ele>
        <time>2021-08-15T06:00:22Z</time>
      </trkpt>
      <trkpt lat="45.85333" lon="3.05748">
        <ele>491</ele>
        <time>2021-08-15T06:00:23Z</time>
      </trkpt>
      <trkpt lat="45.85334" lon="3.05746">
        <ele>491</ele>
        <time>2021-08-15T06:00:24Z</time>
      </trkpt>
      <trkpt lat="45.85335" lon="3.05745">
        <ele>491</ele>
        <time>2021-08-15T06:00:25Z</time>
      </trkpt>
      <trkpt lat="45.85336" lon="3.05743">
        <ele>491</ele>
        <time>2021-08-15T06:00:26Z</time>
      </trkpt>
      <trkpt lat="45.85338" lon="3.05741">
        <ele>491</ele>
        <time>2021-08-15T06:00:27Z</time>
      </trkpt>
      <trkpt lat="45.85339" lon="3.0574">
        <ele>491</ele>
        <time>2021-08-15T06:00:28Z</time>
      </trkpt>
      <trkpt lat="45.8534" lon="3.05738">
        <ele>491</ele>
        <time>2021-08-15T06:00:29Z</time>
      </trkpt>
      <trkpt lat="45.85341" lon="3.05736">
        <ele>491</ele>
        <time>2021-08-15T06:00:30Z</time>
      </trkpt>
      <trkpt lat="45.85342" lon="3.05735">
        <ele>491</ele>
        <time>2021-08-15T06:00:31Z</time>
      </trkpt>
      <trkpt lat="45.85343" lon="3.05734">
        <ele>491</ele>
        <time>2021-08-15T06:00:32Z</time>
      </trkpt>
      <trkpt lat="45.85344" lon="3.05732">
        <ele>491</ele>
        <time>2021-08-15T06:00:33Z</time>
      </trkpt>
      <trkpt lat="45.85345" lon="3.05731">
        <ele>491</ele>
        <time>2021-08-15T06:00:34Z</time>
      </trkpt>
      <trkpt lat="45.85346" lon="3.0573">
        <ele>491</ele>
        <time>2021-08-15T06:00:35Z</time>
      </trkpt>
      <trkpt lat="45.85347" lon="3.05729">
        <ele>491</ele>
        <time>2021-08-15T06:00:36Z</time>
      </trkpt>
      <trkpt lat="45.85348" lon="3.05728">
        <ele>491</ele>
        <time>2021-08-15T06:00:37Z</time>
      </trkpt>
      <trkpt lat="45.85349" lon="3.05726">
        <ele>491</ele>
        <time>2021-08-15T06:00:38Z</time>
      </trkpt>
      <trkpt lat="45.85351" lon="3.05725">
        <ele>491</ele>
        <time>2021-08-15T06:00:39Z</time>
      </trkpt>
      <trkpt lat="45.85352" lon="3.05724">
        <ele>491</ele>
        <time>2021-08-15T06:00:40Z</time>
      </trkpt>
      <trkpt lat="45.85353" lon="3.05723">
        <ele>491</ele>
        <time>2021-08-15T06:00:41Z</time>
      </trkpt>
      <trkpt lat="45.85354" lon="3.05722">
        <ele>491</ele>
        <time>2021-08-15T06:00:42Z</time>
      </trkpt>
      <trkpt lat="45.85356" lon="3.0572">
        <ele>491</ele>
        <time>2021-08-15T06:00:43Z</time>
      </trkpt>
      <trkpt lat="45.85357" lon="3.05719">
        <ele>491</ele>
        <time>2021-08-15T06:00:44Z</time>
      </trkpt>
      <trkpt lat="45.85358" lon="3.05718">
        <ele>491</ele>
        <time>2021-08-15T06:00:45Z</time>
      </trkpt>
      <trkpt lat="45.85359" lon="3.05716">
        <ele>491</ele>
        <time>2021-08-15T06:00:46Z</time>
      </trkpt>
      <trkpt lat="45.8536" lon="3.05715">
        <ele>491</ele>
        <time>2021-08-15T06:00:47Z</time>
      </trkpt>
      <trkpt lat="45.85362" lon="3.05714">
        <ele>491</ele>
        <time>2021-08-15T06:00:48Z</time>
      </trkpt>
      <trkpt lat="45.85362" lon="3.05713">
        <ele>491</ele>
        <time>2021-08-15T06:00:49Z</time>
      </trkpt>
      <trkpt lat="45.85363" lon="3.05711">
        <ele>491</ele>
        <time>2021-08-15T06:00:50Z</time>
      </trkpt>
      <trkpt lat="45.85364" lon="3.0571">
        <ele>491</ele>
        <time>2021-08-15T06:00:51Z</time>
      </trkpt>
      <trkpt lat="45.85365" lon="3.05709">
        <ele>491</ele>
        <time>2021-08-15T06:00:52Z</time>
      </trkpt>
      <trkpt lat="45.85366" lon="3.05708">
        <ele>491</ele>
        <time>2021-08-15T06:00:54Z</time>
      </trkpt>
      <trkpt lat="45.8537" lon="3.05704">
        <ele>491</ele>
        <time>2021-08-15T06:00:55Z</time>
      </trkpt>
      <trkpt lat="45.85371" lon="3.05703">
        <ele>491</ele>
        <time>2021-08-15T06:00:56Z</time>
      </trkpt>
      <trkpt lat="45.85371" lon="3.05702">
        <ele>491</ele>
        <time>2021-08-15T06:00:57Z</time>
      </trkpt>
      <trkpt lat="45.85373" lon="3.05701">
        <ele>491</ele>
        <time>2021-08-15T06:00:58Z</time>
      </trkpt>
      <trkpt lat="45.85374" lon="3.05699">
        <ele>491</ele>
        <time>2021-08-15T06:00:59Z</time>
      </trkpt>
      <trkpt lat="45.85375" lon="3.05698">
        <ele>491</ele>
        <time>2021-08-15T06:01:00Z</time>
      </trkpt>
      <trkpt lat="45.85376" lon="3.05696">
        <ele>491</ele>
        <time>2021-08-15T06:01:01Z</time>
      </trkpt>
      <trkpt lat="45.85377" lon="3.05694">
        <ele>491</ele>
        <time>2021-08-15T06:01:02Z</time>
      </trkpt>
      <trkpt lat="45.85378" lon="3.05692">
        <ele>491</ele>
        <time>2021-08-15T06:01:03Z</time>
      </trkpt>
      <trkpt lat="45.8538" lon="3.0569">
        <ele>491</ele>
        <time>2021-08-15T06:01:04Z</time>
      </trkpt>
      <trkpt lat="45.85381" lon="3.05688">
        <ele>491</ele>
        <time>2021-08-15T06:01:05Z</time>
      </trkpt>
      <trkpt lat="45.85383" lon="3.05686">
        <ele>491</ele>
        <time>2021-08-15T06:01:06Z</time>
      </trkpt>
      <trkpt lat="45.85384" lon="3.05684">
        <ele>491</ele>
        <time>2021-08-15T06:01:07Z</time>
      </trkpt>
      <trkpt lat="45.85386" lon="3.05682">
        <ele>491</ele>
        <time>2021-08-15T06:01:08Z</time>
      </trkpt>
      <trkpt lat="45.85387" lon="3.05681">
        <ele>491</ele>
        <time>2021-08-15T06:01:09Z</time>
      </trkpt>
      <trkpt lat="45.85388" lon="3.05679">
        <ele>491</ele>
        <time>2021-08-15T06:01:10Z</time>
      </trkpt>
      <trkpt lat="45.8539" lon="3.05677">
        <ele>491</ele>
        <time>2021-08-15T06:01:11Z</time>
      </trkpt>
      <trkpt lat="45.85391" lon="3.05675">
        <ele>491</ele>
        <time>2021-08-15T06:01:12Z</time>
      </trkpt>
      <trkpt lat="45.85392" lon="3.05674">
        <ele>491</ele>
        <time>2021-08-15T06:01:13Z</time>
      </trkpt>
      <trkpt lat="45.85393" lon="3.05672">
        <ele>491</ele>
        <time>2021-08-15T06:01:14Z</time>
      </trkpt>
      <trkpt lat="45.85394" lon="3.0567">
        <ele>491</ele>
        <time>2021-08-15T06:01:15Z</time>
      </trkpt>
      <trkpt lat="45.85395" lon="3.05669">
        <ele>491</ele>
        <time>2021-08-15T06:01:16Z</time>
      </trkpt>
      <trkpt lat="45.85396" lon="3.05667">
        <ele>491</ele>
        <time>2021-08-15T06:01:17Z</time>
      </trkpt>
      <trkpt lat="45.85398" lon="3.05665">
        <ele>491</ele>
        <time>2021-08-15T06:01:18Z</time>
      </trkpt>
      <trkpt lat="45.85399" lon="3.05663">
        <ele>491</ele>
        <time>2021-08-15T06:01:19Z</time>
      </trkpt>
      <trkpt lat="45.854" lon="3.05662">
        <ele>491</ele>
        <time>2021-08-15T06:01:20Z</time>
      </trkpt>
      <trkpt lat="45.85401" lon="3.0566">
        <ele>491</ele>
        <time>2021-08-15T06:01:21Z</time>
      </trkpt>
      <trkpt lat="45.85401" lon="3.05658">
        <ele>491</ele>
        <time>2021-08-15T06:01:22Z</time>
      </trkpt>
      <trkpt lat="45.85402" lon="3.05657">
        <ele>491</ele>
        <time>2021-08-15T06:01:23Z</time>
      </trkpt>
      <trkpt lat="45.85403" lon="3.05655">
        <ele>491</ele>
        <time>2021-08-15T06:01:24Z</time>
      </trkpt>
      <trkpt lat="45.85405" lon="3.05653">
        <ele>491</ele>
        <time>2021-08-15T06:01:25Z</time>
      </trkpt>
      <trkpt lat="45.85405" lon="3.05652">
        <ele>491</ele>
        <time>2021-08-15T06:01:26Z</time>
      </trkpt>
      <trkpt lat="45.85406" lon="3.0565">
        <ele>491</ele>
        <time>2021-08-15T06:01:27Z</time>
      </trkpt>
      <trkpt lat="45.85407" lon="3.05649">
        <ele>491</ele>
        <time>2021-08-15T06:01:28Z</time>
      </trkpt>
      <trkpt lat="45.85408" lon="3.05647">
        <ele>491</ele>
        <time>2021-08-15T06:01:29Z</time>
      </trkpt>
      <trkpt lat="45.85408" lon="3.05646">
        <ele>491</ele>
        <time>2021-08-15T06:01:30Z</time>
      </trkpt>
      <trkpt lat="45.85409" lon="3.05645">
        <ele>491</ele>
        <time>2021-08-15T06:01:31Z</time>
      </trkpt>
      <trkpt lat="45.8541" lon="3.05643">
        <ele>491</ele>
        <time>2021-08-15T06:01:32Z</time>
      </trkpt>
      <trkpt lat="45.85411" lon="3.05642">
        <ele>491</ele>
        <time>2021-08-15T06:01:33Z</time>
      </trkpt>
      <trkpt lat="45.85412" lon="3.05641">
        <ele>491</ele>
        <time>2021-08-15T06:01:34Z</time>
      </trkpt>
      <trkpt lat="45.85413" lon="3.0564">
        <ele>491</ele>
        <time>2021-08-15T06:01:35Z</time>
      </trkpt>
      <trkpt lat="45.85413" lon="3.05639">
        <ele>491</ele>
        <time>2021-08-15T06:01:36Z</time>
      </trkpt>
      <trkpt lat="45.85414" lon="3.05638">
        <ele>491</ele>
        <time>2021-08-15T06:01:37Z</time>
      </trkpt>
      <trkpt lat="45.85415" lon="3.05637">
        <ele>491</ele>
        <time>2021-08-15T06:01:38Z</time>
      </trkpt>
      <trkpt lat="45.85416" lon="3.05636">
        <ele>491</ele>
        <time>2021-08-15T06:01:39Z</time>
      </trkpt>
      <trkpt lat="45.85417" lon="3.05635">
        <ele>491</ele>
        <time>2021-08-15T06:01:40Z</time>
      </trkpt>
      <trkpt lat="45.85417" lon="3.05634">
        <ele>491</ele>
        <time>2021-08-15T06:01:41Z</time>
      </trkpt>
      <trkpt lat="45.85418" lon="3.05633">
        <ele>491</ele>
        <time>2021-08-15T06:01:42Z</time>
      </trkpt>
      <trkpt lat="45.85419" lon="3.05631">
        <ele>491</ele>
        <time>2021-08-15T06:01:43Z</time>
      </trkpt>
      <trkpt lat="45.8542" lon="3.0563">
        <ele>491</ele>
        <time>2021-08-15T06:01:44Z</time>
      </trkpt>
      <trkpt lat="45.85421" lon="3.05629">
        <ele>491</ele>
        <time>2021-08-15T06:01:45Z</time>
      </trkpt>
      <trkpt lat="45.85421" lon="3.05628">
        <ele>491</ele>
        <time>2021-08-15T06:01:46Z</time>
      </trkpt>
      <trkpt lat="45.85422" lon="3.05626">
        <ele>491</ele>
        <time>2021-08-15T06:01:47Z</time>
      </trkpt>
      <trkpt lat="45.85423" lon="3.05625">
        <ele>491</ele>
        <time>2021-08-15T06:01:48Z</time>
      </trkpt>
      <trkpt lat="45.85423" lon="3.05623">
        <ele>491</ele>
        <time>2021-08-15T06:01:49Z</time>
      </trkpt>
      <trkpt lat="45.85423" lon="3.05622">
        <ele>491</ele>
        <time>2021-08-15T06:01:50Z</time>
      </trkpt>
      <trkpt lat="45.85424" lon="3.0562">
        <ele>491</ele>
        <time>2021-08-15T06:01:51Z</time>
      </trkpt>
      <trkpt lat="45.85425" lon="3.05619">
        <ele>491</ele>
        <time>2021-08-15T06:01:53Z</time>
      </trkpt>
      <trkpt lat="45.85426" lon="3.05618">
        <ele>491</ele>
        <time>2021-08-15T06:01:54Z</time>
      </trkpt>
      <trkpt lat="45.85428" lon="3.05614">
        <ele>491</ele>
        <time>2021-08-15T06:01:55Z</time>
      </trkpt>
      <trkpt lat="45.85428" lon="3.05614">
        <ele>491</ele>
        <time>2021-08-15T06:01:56Z</time>
      </trkpt>
      <trkpt lat="45.85428" lon="3.05614">
        <ele>491</ele>
        <time>2021-08-15T06:01:57Z</time>
      </trkpt>
      <trkpt lat="45.85429" lon="3.05613">
        <ele>491</ele>
        <time>2021-08-15T06:01:58Z</time>
      </trkpt>
      <trkpt lat="45.85429" lon="3.05612">
        <ele>491</ele>
        <time>2021-08-15T06:01:59Z</time>
      </trkpt>
      <trkpt lat="45.85429" lon="3.05612">
        <ele>491</ele>
        <time>2021-08-15T06:02:00Z</time>
      </trkpt>
      <trkpt lat="45.8543" lon="3.05611">
        <ele>491</ele>
        <time>2021-08-15T06:02:01Z</time>
      </trkpt>
      <trkpt lat="45.85431" lon="3.0561">
        <ele>491</ele>
        <time>2021-08-15T06:02:02Z</time>
      </trkpt>
      <trkpt lat="45.85431" lon="3.0561">
        <ele>491</ele>
        <time>2021-08-15T06:02:03Z</time>
      </trkpt>
      <trkpt lat="45.85431" lon="3.05609">
        <ele>491</ele>
        <time>2021-08-15T06:02:04Z</time>
      </trkpt>
      <trkpt lat="45.85432" lon="3.05608">
        <ele>491</ele>
        <time>2021-08-15T06:02:05Z</time>
      </trkpt>
      <trkpt lat="45.85432" lon="3.05608">
        <ele>491</ele>
        <time>2021-08-15T06:02:06Z</time>
      </trkpt>
      <trkpt lat="45.85432" lon="3.05607">
        <ele>491</ele>
        <time>2021-08-15T06:02:07Z</time>
      </trkpt>
      <trkpt lat="45.85432" lon="3.05606">
        <ele>491</ele>
        <time>2021-08-15T06:02:08Z</time>
      </trkpt>
      <trkpt lat="45.85433" lon="3.05606">
        <ele>491</ele>
        <time>2021-08-15T06:02:09Z</time>
      </trkpt>
      <trkpt lat="45.85434" lon="3.05605">
        <ele>491</ele>
        <time>2021-08-15T06:02:10Z</time>
      </trkpt>
      <trkpt lat="45.85434" lon="3.05604">
        <ele>491</ele>
        <time>2021-08-15T06:02:11Z</time>
      </trkpt>
      <trkpt lat="45.85435" lon="3.05603">
        <ele>491</ele>
        <time>2021-08-15T06:02:12Z</time>
      </trkpt>
      <trkpt lat="45.85436" lon="3.05601">
        <ele>491</ele>
        <time>2021-08-15T06:02:13Z</time>
      </trkpt>
      <trkpt lat="45.85436" lon="3.056">
        <ele>491</ele>
        <time>2021-08-15T06:02:14Z</time>
      </trkpt>
      <trkpt lat="45.85437" lon="3.05599">
        <ele>491</ele>
        <time>2021-08-15T06:02:15Z</time>
      </trkpt>
      <trkpt lat="45.85438" lon="3.05598">
        <ele>491</ele>
        <time>2021-08-15T06:02:16Z</time>
      </trkpt>
      <trkpt lat="45.85438" lon="3.05596">
        <ele>491</ele>
        <time>2021-08-15T06:02:17Z</time>
      </trkpt>
      <trkpt lat="45.85439" lon="3.05595">
        <ele>491</ele>
        <time>2021-08-15T06:02:18Z</time>
      </trkpt>
      <trkpt lat="45.8544" lon="3.05594">
        <ele>491</ele>
        <time>2021-08-15T06:02:19Z</time>
      </trkpt>
      <trkpt lat="45.8544" lon="3.05593">
        <ele>491</ele>
        <time>2021-08-15T06:02:20Z</time>
      </trkpt>
      <trkpt lat="45.85441" lon="3.05591">
        <ele>491</ele>
        <time>2021-08-15T06:02:21Z</time>
      </trkpt>
      <trkpt lat="45.85442" lon="3.05589">
        <ele>491</ele>
        <time>2021-08-15T06:02:22Z</time>
      </trkpt>
      <trkpt lat="45.85443" lon="3.05588">
        <ele>491</ele>
        <time>2021-08-15T06:02:23Z</time>
      </trkpt>
      <trkpt lat="45.85444" lon="3.05586">
        <ele>491</ele>
        <time>2021-08-15T06:02:24Z</time>
      </trkpt>
      <trkpt lat="45.85444" lon="3.05585">
        <ele>491</ele>
        <time>2021-08-15T06:02:25Z</time>
      </trkpt>
      <trkpt lat="45.85445" lon="3.05584">
        <ele>491</ele>
        <time>2021-08-15T06:02:26Z</time>
      </trkpt>
      <trkpt lat="45.85445" lon="3.05582">
        <ele>491</ele>
        <time>2021-08-15T06:02:27Z</time>
      </trkpt>
      <trkpt lat="45.85446" lon="3.05581">
        <ele>491</ele>
        <time>2021-08-15T06:02:28Z</time>
      </trkpt>
      <trkpt lat="45.85447" lon="3.0558">
        <ele>491</ele>
        <time>2021-08-15T06:02:29Z</time>
      </trkpt>
      <trkpt lat="45.85447" lon="3.05579">
        <ele>491</ele>
        <time>2021-08-15T06:02:30Z</time>
      </trkpt>
      <trkpt lat="45.85447" lon="3.05578">
        <ele>491</ele>
        <time>2021-08-15T06:02:31Z</time>
      </trkpt>
      <trkpt lat="45.85448" lon="3.05577">
        <ele>491</ele>
        <time>2021-08-15T06:02:32Z</time>
      </trkpt>
      <trkpt lat="45.85449" lon="3.05576">
        <ele>491</ele>
        <time>2021-08-15T06:02:33Z</time>
      </trkpt>
      <trkpt lat="45.85449" lon="3.05574">
        <ele>491</ele>
        <time>2021-08-15T06:02:34Z</time>
      </trkpt>
      <trkpt lat="45.8545" lon="3.05572">
        <ele>491</ele>
        <time>2021-08-15T06:02:35Z</time>
      </trkpt>
      <trkpt lat="45.8545" lon="3.0557">
        <ele>491</ele>
        <time>2021-08-15T06:02:36Z</time>
      </trkpt>
      <trkpt lat="45.85451" lon="3.05569">
        <ele>491</ele>
        <time>2021-08-15T06:02:37Z</time>
      </trkpt>
      <trkpt lat="45.85452" lon="3.05567">
        <ele>491</ele>
        <time>2021-08-15T06:02:38Z</time>
      </trkpt>
      <trkpt lat="45.85453" lon="3.05566">
        <ele>491</ele>
        <time>2021-08-15T06:02:39Z</time>
      </trkpt>
      <trkpt lat="45.85453" lon="3.05564">
        <ele>491</ele>
        <time>2021-08-15T06:02:40Z</time>
      </trkpt>
      <trkpt lat="45.85454" lon="3.05562">
        <ele>491</ele>
        <time>2021-08-15T06:02:41Z</time>
      </trkpt>
      <trkpt lat="45.85455" lon="3.05561">
        <ele>491</ele>
        <time>2021-08-15T06:02:42Z</time>
      </trkpt>
      <trkpt lat="45.85455" lon="3.0556">
        <ele>491</ele>
        <time>2021-08-15T06:02:43Z</time>
      </trkpt>
      <trkpt lat="45.85456" lon="3.05558">
        <ele>491</ele>
        <time>2021-08-15T06:02:44Z</time>
      </trkpt>
      <trkpt lat="45.85457" lon="3.05557">
        <ele>491</ele>
        <time>2021-08-15T06:02:45Z</time>
      </trkpt>
      <trkpt lat="45.85457" lon="3.05555">
        <ele>491</ele>
        <time>2021-08-15T06:02:46Z</time>
      </trkpt>
      <trkpt lat="45.85458" lon="3.05554">
        <ele>491</ele>
        <time>2021-08-15T06:02:47Z</time>
      </trkpt>
      <trkpt lat="45.85459" lon="3.05553">
        <ele>491</ele>
        <time>2021-08-15T06:02:48Z</time>
      </trkpt>
      <trkpt lat="45.8546" lon="3.05552">
        <ele>491</ele>
        <time>2021-08-15T06:02:49Z</time>
      </trkpt>
      <trkpt lat="45.8546" lon="3.0555">
        <ele>491</ele>
        <time>2021-08-15T06:02:50Z</time>
      </trkpt>
      <trkpt lat="45.8546" lon="3.05549">
        <ele>491</ele>
        <time>2021-08-15T06:02:51Z</time>
      </trkpt>
      <trkpt lat="45.85461" lon="3.05547">
        <ele>491</ele>
        <time>2021-08-15T06:02:52Z</time>
      </trkpt>
      <trkpt lat="45.85461" lon="3.05546">
        <ele>491</ele>
        <time>2021-08-15T06:02:53Z</time>
      </trkpt>
      <trkpt lat="45.85461" lon="3.05544">
        <ele>491</ele>
        <time>2021-08-15T06:02:54Z</time>
      </trkpt>
      <trkpt lat="45.85461" lon="3.05543">
        <ele>491</ele>
        <time>2021-08-15T06:02:55Z</time>
      </trkpt>
      <trkpt lat="45.85462" lon="3.05541">
        <ele>491</ele>
        <time>2021-08-15T06:02:56Z</time>
      </trkpt>
      <trkpt lat="45.85462" lon="3.05538">
        <ele>491</ele>
        <time>2021-08-15T06:02:57Z</time>
      </trkpt>
      <trkpt lat="45.85463" lon="3.05536">
        <ele>491</ele>
        <time>2021-08-15T06:02:58Z</time>
      </trkpt>
      <trkpt lat="45.85463" lon="3.05534">
        <ele>491</ele>
        <time>2021-08-15T06:02:59Z</time>
      </trkpt>
      <trkpt lat="45.85464" lon="3.05532">
        <ele>491</ele>
        <time>2021-08-15T06:03:00Z</time>
      </trkpt>
      <trkpt lat="45.85465" lon="3.0553">
        <ele>491</ele>
        <time>2021-08-15T06:03:01Z</time>
      </trkpt>
      <trkpt lat="45.85465" lon="3.05527">
        <ele>491</ele>
        <time>2021-08-15T06:03:02Z</time>
      </trkpt>
      <trkpt lat="45.85466" lon="3.05525">
        <ele>491</ele>
        <time>2021-08-15T06:03:03Z</time>
      </trkpt>
      <trkpt lat="45.85467" lon="3.05523">
        <ele>491</ele>
        <time>2021-08-15T06:03:04Z</time>
      </trkpt>
      <trkpt lat="45.85468" lon="3.05521">
        <ele>491</ele>
        <time>2021-08-15T06:03:05Z</time>
      </trkpt>
      <trkpt lat="45.85469" lon="3.05519">
        <ele>491</ele>
        <time>2021-08-15T06:03:06Z</time>
      </trkpt>
      <trkpt lat="45.8547" lon="3.05518">
        <ele>491</ele>
        <time>2021-08-15T06:03:07Z</time>
      </trkpt>
      <trkpt lat="45.85471" lon="3.05516">
        <ele>491</ele>
        <time>2021-08-15T06:03:08Z</time>
      </trkpt>
      <trkpt lat="45.85471" lon="3.05514">
        <ele>491</ele>
        <time>2021-08-15T06:03:09Z</time>
      </trkpt>
      <trkpt lat="45.85472" lon="3.05513">
        <ele>491</ele>
        <time>2021-08-15T06:03:10Z</time>
      </trkpt>
      <trkpt lat="45.85473" lon="3.05511">
        <ele>491</ele>
        <time>2021-08-15T06:03:11Z</time>
      </trkpt>
      <trkpt lat="45.85474" lon="3.05509">
        <ele>491</ele>
        <time>2021-08-15T06:03:12Z</time>
      </trkpt>
      <trkpt lat="45.85474" lon="3.05508">
        <ele>491</ele>
        <time>2021-08-15T06:03:13Z</time>
      </trkpt>
      <trkpt lat="45.85476" lon="3.05506">
        <ele>491</ele>
        <time>2021-08-15T06:03:14Z</time>
      </trkpt>
      <trkpt lat="45.85476" lon="3.05505">
        <ele>491</ele>
        <time>2021-08-15T06:03:15Z</time>
      </trkpt>
      <trkpt lat="45.85477" lon="3.05503">
        <ele>491</ele>
        <time>2021-08-15T06:03:16Z</time>
      </trkpt>
      <trkpt lat="45.85477" lon="3.05501">
        <ele>491</ele>
        <time>2021-08-15T06:03:17Z</time>
      </trkpt>
      <trkpt lat="45.85478" lon="3.05499">
        <ele>491</ele>
        <time>2021-08-15T06:03:18Z</time>
      </trkpt>
      <trkpt lat="45.85479" lon="3.05498">
        <ele>491</ele>
        <time>2021-08-15T06:03:19Z</time>
      </trkpt>
      <trkpt lat="45.85479" lon="3.05496">
        <ele>491</ele>
        <time>2021-08-15T06:03:20Z</time>
      </trkpt>
      <trkpt lat="45.8548" lon="3.05494">
        <ele>491</ele>
        <time>2021-08-15T06:03:21Z</time>
      </trkpt>
      <trkpt lat="45.8548" lon="3.05492">
        <ele>491</ele>
        <time>2021-08-15T06:03:22Z</time>
      </trkpt>
      <trkpt lat="45.85481" lon="3.0549">
        <ele>491</ele>
        <time>2021-08-15T06:03:23Z</time>
      </trkpt>
      <trkpt lat="45.85481" lon="3.05488">
        <ele>491</ele>
        <time>2021-08-15T06:03:24Z</time>
      </trkpt>
      <trkpt lat="45.85482" lon="3.05486">
        <ele>491</ele>
        <time>2021-08-15T06:03:25Z</time>
      </trkpt>
      <trkpt lat="45.85483" lon="3.05484">
        <ele>491</ele>
        <time>2021-08-15T06:03:26Z</time>
      </trkpt>
      <trkpt lat="45.85483" lon="3.05482">
        <ele>491</ele>
        <time>2021-08-15T06:03:27Z</time>
      </trkpt>
      <trkpt lat="45.85484" lon="3.0548">
        <ele>491</ele>
        <time>2021-08-15T06:03:28Z</time>
      </trkpt>
      <trkpt lat="45.85485" lon="3.05478">
        <ele>491</ele>
        <time>2021-08-15T06:03:29Z</time>
      </trkpt>
      <trkpt lat="45.85486" lon="3.05476">
        <ele>491</ele>
        <time>2021-08-15T06:03:30Z</time>
      </trkpt>
      <trkpt lat="45.85486" lon="3.05474">
        <ele>491</ele>
        <time>2021-08-15T06:03:31Z</time>
      </trkpt>
      <trkpt lat="45.85487" lon="3.05472">
        <ele>491</ele>
        <time>2021-08-15T06:03:32Z</time>
      </trkpt>
      <trkpt lat="45.85489" lon="3.0547">
        <ele>491</ele>
        <time>2021-08-15T06:03:33Z</time>
      </trkpt>
      <trkpt lat="45.85489" lon="3.05469">
        <ele>491</ele>
        <time>2021-08-15T06:03:34Z</time>
      </trkpt>
      <trkpt lat="45.8549" lon="3.05467">
        <ele>491</ele>
        <time>2021-08-15T06:03:35Z</time>
      </trkpt>
      <trkpt lat="45.8549" lon="3.05466">
        <ele>491</ele>
        <time>2021-08-15T06:03:36Z</time>
      </trkpt>
      <trkpt lat="45.85491" lon="3.05464">
        <ele>491</ele>
        <time>2021-08-15T06:03:37Z</time>
      </trkpt>
      <trkpt lat="45.85492" lon="3.05463">
        <ele>491</ele>
        <time>2021-08-15T06:03:38Z</time>
      </trkpt>
      <trkpt lat="45.85492" lon="3.05461">
        <ele>491</ele>
        <time>2021-08-15T06:03:39Z</time>
      </trkpt>
      <trkpt lat="45.85492" lon="3.0546">
        <ele>491</ele>
        <time>2021-08-15T06:03:40Z</time>
      </trkpt>
      <trkpt lat="45.85494" lon="3.05458">
        <ele>491</ele>
        <time>2021-08-15T06:03:41Z</time>
      </trkpt>
      <trkpt lat="45.85494" lon="3.05456">
        <ele>491</ele>
        <time>2021-08-15T06:03:42Z</time>
      </trkpt>
      <trkpt lat="45.85495" lon="3.05454">
        <ele>491</ele>
        <time>2021-08-15T06:03:43Z</time>
      </trkpt>
      <trkpt lat="45.85495" lon="3.05453">
        <ele>491</ele>
        <time>2021-08-15T06:03:44Z</time>
      </trkpt>
      <trkpt lat="45.85495" lon="3.05451">
        <ele>491</ele>
        <time>2021-08-15T06:03:45Z</time>
      </trkpt>
      <trkpt lat="45.85497" lon="3.0545">
        <ele>491</ele>
        <time>2021-08-15T06:03:46Z</time>
      </trkpt>
      <trkpt lat="45.85498" lon="3.05448">
        <ele>491</ele>
        <time>2021-08-15T06:03:47Z</time>
      </trkpt>
      <trkpt lat="45.85499" lon="3.05447">
        <ele>491</ele>
        <time>2021-08-15T06:03:48Z</time>
      </trkpt>
      <trkpt lat="45.855" lon="3.05446">
        <ele>491</ele>
        <time>2021-08-15T06:03:49Z</time>
      </trkpt>
      <trkpt lat="45.85501" lon="3.05444">
        <ele>491</ele>
        <time>2021-08-15T06:03:50Z</time>
      </trkpt>
      <trkpt lat="45.85502" lon="3.05443">
        <ele>491</ele>
        <time>2021-08-15T06:03:52Z</time>
      </trkpt>
      <trkpt lat="45.85505" lon="3.0544">
        <ele>491</ele>
        <time>2021-08-15T06:03:54Z</time>
      </trkpt>
      <trkpt lat="45.85506" lon="3.05437">
        <ele>491</ele>
        <time>2021-08-15T06:03:55Z</time>
      </trkpt>
      <trkpt lat="45.85506" lon="3.05437">
        <ele>491</ele>
        <time>2021-08-15T06:03:56Z</time>
      </trkpt>
      <trkpt lat="45.85507" lon="3.05436">
        <ele>491</ele>
        <time>2021-08-15T06:03:57Z</time>
      </trkpt>
      <trkpt lat="45.85508" lon="3.05435">
        <ele>491</ele>
        <time>2021-08-15T06:03:58Z</time>
      </trkpt>
      <trkpt lat="45.85508" lon="3.05434">
        <ele>491</ele>
        <time>2021-08-15T06:03:59Z</time>
      </trkpt>
      <trkpt lat="45.85509" lon="3.05433">
        <ele>491</ele>
        <time>2021-08-15T06:04:00Z</time>
      </trkpt>
      <trkpt lat="45.8551" lon="3.05432">
        <ele>491</ele>
        <time>2021-08-15T06:04:01Z</time>
      </trkpt>
      <trkpt lat="45.8551" lon="3.0543">
        <ele>491</ele>
        <time>2021-08-15T06:04:02Z</time>
      </trkpt>
      <trkpt lat="45.8551" lon="3.05429">
        <ele>491</ele>
        <time>2021-08-15T06:04:03Z</time>
      </trkpt>
      <trkpt lat="45.8551" lon="3.05427">
        <ele>491</ele>
        <time>2021-08-15T06:04:04Z</time>
      </trkpt>
      <trkpt lat="45.85511" lon="3.05426">
        <ele>491</ele>
        <time>2021-08-15T06:04:05Z</time>
      </trkpt>
      <trkpt lat="45.85511" lon="3.05424">
        <ele>491</ele>
        <time>2021-08-15T06:04:06Z</time>
      </trkpt>
      <trkpt lat="45.85511" lon="3.05423">
        <ele>491</ele>
        <time>2021-08-15T06:04:07Z</time>
      </trkpt>
      <trkpt lat="45.85511" lon="3.05421">
        <ele>491</ele>
        <time>2021-08-15T06:04:07Z</time>
      </trkpt>
      <trkpt lat="45.85512" lon="3.05419">
        <ele>491</ele>
        <time>2021-08-15T06:04:08Z</time>
      </trkpt>
      <trkpt lat="45.85513" lon="3.05417">
        <ele>491</ele>
        <time>2021-08-15T06:04:09Z</time>
      </trkpt>
      <trkpt lat="45.85513" lon="3.05416">
        <ele>491</ele>
        <time>2021-08-15T06:04:10Z</time>
      </trkpt>
      <trkpt lat="45.85513" lon="3.05414">
        <ele>491</ele>
        <time>2021-08-15T06:04:11Z</time>
      </trkpt>
      <trkpt lat="45.85513" lon="3.05413">
        <ele>491</ele>
        <time>2021-08-15T06:04:12Z</time>
      </trkpt>
      <trkpt lat="45.85513" lon="3.05411">
        <ele>491</ele>
        <time>2021-08-15T06:04:13Z</time>
      </trkpt>
      <trkpt lat="45.85513" lon="3.0541">
        <ele>491</ele>
        <time>2021-08-15T06:04:14Z</time>
      </trkpt>
      <trkpt lat="45.85514" lon="3.05408">
        <ele>491</ele>
        <time>2021-08-15T06:04:15Z</time>
      </trkpt>
      <trkpt lat="45.85514" lon="3.05407">
        <ele>491</ele>
        <time>2021-08-15T06:04:16Z</time>
      </trkpt>
      <trkpt lat="45.85514" lon="3.05405">
        <ele>491</ele>
        <time>2021-08-15T06:04:17Z</time>
      </trkpt>
      <trkpt lat="45.85515" lon="3.05404">
        <ele>491</ele>
        <time>2021-08-15T06:04:18Z</time>
      </trkpt>
      <trkpt lat="45.85515" lon="3.05403">
        <ele>491</ele>
        <time>2021-08-15T06:04:19Z</time>
      </trkpt>
      <trkpt lat="45.85515" lon="3.05402">
        <ele>491</ele>
        <time>2021-08-15T06:04:20Z</time>
      </trkpt>
      <trkpt lat="45.85515" lon="3.054">
        <ele>491</ele>
        <time>2021-08-15T06:04:21Z</time>
      </trkpt>
      <trkpt lat="45.85515" lon="3.05399">
        <ele>491</ele>
        <time>2021-08-15T06:04:22Z</time>
      </trkpt>
      <trkpt lat="45.85515" lon="3.05398">
        <ele>491</ele>
        <time>2021-08-15T06:04:23Z</time>
      </trkpt>
      <trkpt lat="45.85516" lon="3.05397">
        <ele>491</ele>
        <time>2021-08-15T06:04:24Z</time>
      </trkpt>
      <trkpt lat="45.85516" lon="3.05396">
        <ele>491</ele>
        <time>2021-08-15T06:04:25Z</time>
      </trkpt>
      <trkpt lat="45.85516" lon="3.05394">
        <ele>491</ele>
        <time>2021-08-15T06:04:26Z</time>
      </trkpt>
      <trkpt lat="45.85516" lon="3.05393">
        <ele>491</ele>
        <time>2021-08-15T06:04:27Z</time>
      </trkpt>
      <trkpt lat="45.85517" lon="3.05391">
        <ele>491</ele>
        <time>2021-08-15T06:04:28Z</time>
      </trkpt>
      <trkpt lat="45.85517" lon="3.05389">
        <ele>491</ele>
        <time>2021-08-15T06:04:29Z</time>
      </trkpt>
      <trkpt lat="45.85517" lon="3.05387">
        <ele>491</ele>
        <time>2021-08-15T06:04:30Z</time>
      </trkpt>
      <trkpt lat="45.85517" lon="3.05385">
        <ele>491</ele>
        <time>2021-08-15T06:04:31Z</time>
      </trkpt>
      <trkpt lat="45.85518" lon="3.05384">
        <ele>491</ele>
        <time>2021-08-15T06:04:32Z</time>
      </trkpt>
      <trkpt lat="45.85518" lon="3.05383">
        <ele>491</ele>
        <time>2021-08-15T06:04:33Z</time>
      </trkpt>
      <trkpt lat="45.85518" lon="3.05381">
        <ele>491</ele>
        <time>2021-08-15T06:04:34Z</time>
      </trkpt>
      <trkpt lat="45.85519" lon="3.0538">
        <ele>491</ele>
        <time>2021-08-15T06:04:35Z</time>
      </trkpt>
      <trkpt lat="45.85519" lon="3.05378">
        <ele>491</ele>
        <time>2021-08-15T06:04:36Z</time>
      </trkpt>
      <trkpt lat="45.8552" lon="3.05377">
        <ele>491</ele>
        <time>2021-08-15T06:04:37Z</time>
      </trkpt>
      <trkpt lat="45.8552" lon="3.05375">
        <ele>491</ele>
        <time>2021-08-15T06:04:38Z</time>
      </trkpt>
      <trkpt lat="45.8552" lon="3.05373">
        <ele>491</ele>
        <time>2021-08-15T06:04:39Z</time>
      </trkpt>
      <trkpt lat="45.85521" lon="3.0537">
        <ele>491</ele>
        <time>2021-08-15T06:04:40Z</time>
      </trkpt>
      <trkpt lat="45.8552" lon="3.05366">
        <ele>491</ele>
        <time>2021-08-15T06:04:41Z</time>
      </trkpt>
      <trkpt lat="45.85521" lon="3.05362">
        <ele>491</ele>
        <time>2021-08-15T06:04:42Z</time>
      </trkpt>
      <trkpt lat="45.85521" lon="3.05359">
        <ele>491</ele>
        <time>2021-08-15T06:04:43Z</time>
      </trkpt>
      <trkpt lat="45.85521" lon="3.05357">
        <ele>491</ele>
        <time>2021-08-15T06:04:44Z</time>
      </trkpt>
      <trkpt lat="45.85521" lon="3.05354">
        <ele>491</ele>
        <time>2021-08-15T06:04:45Z</time>
      </trkpt>
      <trkpt lat="45.85521" lon="3.05352">
        <ele>491</ele>
        <time>2021-08-15T06:04:46Z</time>
      </trkpt>
      <trkpt lat="45.85522" lon="3.0535">
        <ele>491</ele>
        <time>2021-08-15T06:04:47Z</time>
      </trkpt>
      <trkpt lat="45.85522" lon="3.05348">
        <ele>491</ele>
        <time>2021-08-15T06:04:48Z</time>
      </trkpt>
      <trkpt lat="45.85523" lon="3.05345">
        <ele>491</ele>
        <time>2021-08-15T06:04:49Z</time>
      </trkpt>
      <trkpt lat="45.85523" lon="3.05343">
        <ele>491</ele>
        <time>2021-08-15T06:04:50Z</time>
      </trkpt>
      <trkpt lat="45.85523" lon="3.0534">
        <ele>491</ele>
        <time>2021-08-15T06:04:52Z</time>
      </trkpt>
      <trkpt lat="45.85525" lon="3.05329">
        <ele>491</ele>
        <time>2021-08-15T06:04:53Z</time>
      </trkpt>
      <trkpt lat="45.85525" lon="3.05329">
        <ele>491</ele>
        <time>2021-08-15T06:04:54Z</time>
      </trkpt>
      <trkpt lat="45.85525" lon="3.05328">
        <ele>491</ele>
        <time>2021-08-15T06:04:55Z</time>
      </trkpt>
      <trkpt lat="45.85525" lon="3.05326">
        <ele>491</ele>
        <time>2021-08-15T06:04:56Z</time>
      </trkpt>
      <trkpt lat="45.85525" lon="3.05324">
        <ele>491</ele>
        <time>2021-08-15T06:04:57Z</time>
      </trkpt>
      <trkpt lat="45.85525" lon="3.05323">
        <ele>491</ele>
        <time>2021-08-15T06:04:58Z</time>
      </trkpt>
      <trkpt lat="45.85526" lon="3.05321">
        <ele>491</ele>
        <time>2021-08-15T06:04:59Z</time>
      </trkpt>
      <trkpt lat="45.85526" lon="3.05319">
        <ele>491</ele>
        <time>2021-08-15T06:05:00Z</time>
      </trkpt>
      <trkpt lat="45.85526" lon="3.05317">
        <ele>491</ele>
        <time>2021-08-15T06:05:01Z</time>
      </trkpt>
      <trkpt lat="45.85527" lon="3.05315">
        <ele>491</ele>
        <time>2021-08-15T06:05:02Z</time>
      </trkpt>
      <trkpt lat="45.85528" lon="3.05313">
        <ele>491</ele>
        <time>2021-08-15T06:05:03Z</time>
      </trkpt>
      <trkpt lat="45.85528" lon="3.05311">
        <ele>491</ele>
        <time>2021-08-15T06:05:04Z</time>
      </trkpt>
      <trkpt lat="45.85529" lon="3.05309">
        <ele>491</ele>
        <time>2021-08-15T06:05:05Z</time>
      </trkpt>
      <trkpt lat="45.85529" lon="3.05307">
        <ele>491</ele>
        <time>2021-08-15T06:05:06Z</time>
      </trkpt>
      <trkpt lat="45.85531" lon="3.05306">
        <ele>491</ele>
        <time>2021-08-15T06:05:07Z</time>
      </trkpt>
      <trkpt lat="45.85531" lon="3.05304">
        <ele>491</ele>
        <time>2021-08-15T06:05:08Z</time>
      </trkpt>
      <trkpt lat="45.85532" lon="3.05302">
        <ele>491</ele>
        <time>2021-08-15T06:05:09Z</time>
      </trkpt>
      <trkpt lat="45.85532" lon="3.05301">
        <ele>491</ele>
        <time>2021-08-15T06:05:10Z</time>
      </trkpt>
      <trkpt lat="45.85533" lon="3.05299">
        <ele>491</ele>
        <time>2021-08-15T06:05:11Z</time>
      </trkpt>
      <trkpt lat="45.85534" lon="3.05297">
        <ele>491</ele>
        <time>2021-08-15T06:05:12Z</time>
      </trkpt>
      <trkpt lat="45.85534" lon="3.05295">
        <ele>491</ele>
        <time>2021-08-15T06:05:13Z</time>
      </trkpt>
      <trkpt lat="45.85534" lon="3.05293">
        <ele>491</ele>
        <time>2021-08-15T06:05:14Z</time>
      </trkpt>
      <trkpt lat="45.85534" lon="3.05292">
        <ele>491</ele>
        <time>2021-08-15T06:05:15Z</time>
      </trkpt>
      <trkpt lat="45.85535" lon="3.0529">
        <ele>491</ele>
        <time>2021-08-15T06:05:16Z</time>
      </trkpt>
      <trkpt lat="45.85535" lon="3.05289">
        <ele>491</ele>
        <time>2021-08-15T06:05:17Z</time>
      </trkpt>
      <trkpt lat="45.85535" lon="3.05287">
        <ele>491</ele>
        <time>2021-08-15T06:05:18Z</time>
      </trkpt>
      <trkpt lat="45.85536" lon="3.05285">
        <ele>491</ele>
        <time>2021-08-15T06:05:19Z</time>
      </trkpt>
      <trkpt lat="45.85536" lon="3.05283">
        <ele>491</ele>
        <time>2021-08-15T06:05:20Z</time>
      </trkpt>
      <trkpt lat="45.85537" lon="3.05282">
        <ele>491</ele>
        <time>2021-08-15T06:05:21Z</time>
      </trkpt>
      <trkpt lat="45.85537" lon="3.0528">
        <ele>491</ele>
        <time>2021-08-15T06:05:22Z</time>
      </trkpt>
      <trkpt lat="45.85537" lon="3.05278">
        <ele>491</ele>
        <time>2021-08-15T06:05:23Z</time>
      </trkpt>
      <trkpt lat="45.85537" lon="3.05276">
        <ele>491</ele>
        <time>2021-08-15T06:05:24Z</time>
      </trkpt>
      <trkpt lat="45.85538" lon="3.05274">
        <ele>491</ele>
        <time>2021-08-15T06:05:25Z</time>
      </trkpt>
      <trkpt lat="45.85538" lon="3.05272">
        <ele>491</ele>
        <time>2021-08-15T06:05:26Z</time>
      </trkpt>
      <trkpt lat="45.85538" lon="3.0527">
        <ele>491</ele>
        <time>2021-08-15T06:05:27Z</time>
      </trkpt>
      <trkpt lat="45.85537" lon="3.05268">
        <ele>491</ele>
        <time>2021-08-15T06:05:28Z</time>
      </trkpt>
      <trkpt lat="45.85537" lon="3.05266">
        <ele>491</ele>
        <time>2021-08-15T06:05:29Z</time>
      </trkpt>
      <trkpt lat="45.85537" lon="3.05264">
        <ele>491</ele>
        <time>2021-08-15T06:05:30Z</time>
      </trkpt>
      <trkpt lat="45.85537" lon="3.05262">
        <ele>491</ele>
        <time>2021-08-15T06:05:31Z</time>
      </trkpt>
      <trkpt lat="45.85537" lon="3.0526">
        <ele>491</ele>
        <time>2021-08-15T06:05:32Z</time>
      </trkpt>
      <trkpt lat="45.85537" lon="3.05258">
        <ele>491</ele>
        <time>2021-08-15T06:05:33Z</time>
      </trkpt>
      <trkpt lat="45.85537" lon="3.05256">
        <ele>491</ele>
        <time>2021-08-15T06:05:34Z</time>
      </trkpt>
      <trkpt lat="45.85537" lon="3.05254">
        <ele>491</ele>
        <time>2021-08-15T06:05:35Z</time>
      </trkpt>
      <trkpt lat="45.85538" lon="3.05252">
        <ele>491</ele>
        <time>2021-08-15T06:05:36Z</time>
      </trkpt>
      <trkpt lat="45.85538" lon="3.05249">
        <ele>491</ele>
        <time>2021-08-15T06:05:37Z</time>
      </trkpt>
      <trkpt lat="45.85538" lon="3.05247">
        <ele>491</ele>
        <time>2021-08-15T06:05:38Z</time>
      </trkpt>
      <trkpt lat="45.85539" lon="3.05245">
        <ele>491</ele>
        <time>2021-08-15T06:05:39Z</time>
      </trkpt>
      <trkpt lat="45.85539" lon="3.05243">
        <ele>491</ele>
        <time>2021-08-15T06:05:40Z</time>
      </trkpt>
      <trkpt lat="45.8554" lon="3.0524">
        <ele>491</ele>
        <time>2021-08-15T06:05:41Z</time>
      </trkpt>
      <trkpt lat="45.85541" lon="3.05238">
        <ele>491</ele>
        <time>2021-08-15T06:05:42Z</time>
      </trkpt>
      <trkpt lat="45.85541" lon="3.05237">
        <ele>491</ele>
        <time>2021-08-15T06:05:43Z</time>
      </trkpt>
      <trkpt lat="45.85542" lon="3.05235">
        <ele>491</ele>
        <time>2021-08-15T06:05:44Z</time>
      </trkpt>
      <trkpt lat="45.85542" lon="3.05233">
        <ele>491</ele>
        <time>2021-08-15T06:05:45Z</time>
      </trkpt>
      <trkpt lat="45.85543" lon="3.05231">
        <ele>491</ele>
        <time>2021-08-15T06:05:46Z</time>
      </trkpt>
      <trkpt lat="45.85543" lon="3.05229">
        <ele>491</ele>
        <time>2021-08-15T06:05:47Z</time>
      </trkpt>
      <trkpt lat="45.85544" lon="3.05227">
        <ele>491</ele>
        <time>2021-08-15T06:05:48Z</time>
      </trkpt>
      <trkpt lat="45.85544" lon="3.05225">
        <ele>491</ele>
        <time>2021-08-15T06:05:49Z</time>
      </trkpt>
      <trkpt lat="45.85545" lon="3.05223">
        <ele>491</ele>
        <time>2021-08-15T06:05:50Z</time>
      </trkpt>
      <trkpt lat="45.85545" lon="3.05221">
        <ele>491</ele>
        <time>2021-08-15T06:05:52Z</time>
      </trkpt>
      <trkpt lat="45.85547" lon="3.05213">
        <ele>491</ele>
        <time>2021-08-15T06:05:53Z</time>
      </trkpt>
      <trkpt lat="45.85547" lon="3.05212">
        <ele>491</ele>
        <time>2021-08-15T06:05:54Z</time>
      </trkpt>
      <trkpt lat="45.85548" lon="3.05212">
        <ele>491</ele>
        <time>2021-08-15T06:05:55Z</time>
      </trkpt>
      <trkpt lat="45.85548" lon="3.05211">
        <ele>491</ele>
        <time>2021-08-15T06:05:56Z</time>
      </trkpt>
      <trkpt lat="45.85549" lon="3.0521">
        <ele>491</ele>
        <time>2021-08-15T06:05:57Z</time>
      </trkpt>
      <trkpt lat="45.85549" lon="3.05208">
        <ele>491</ele>
        <time>2021-08-15T06:05:58Z</time>
      </trkpt>
      <trkpt lat="45.8555" lon="3.05207">
        <ele>491</ele>
        <time>2021-08-15T06:05:59Z</time>
      </trkpt>
      <trkpt lat="45.8555" lon="3.05206">
        <ele>491</ele>
        <time>2021-08-15T06:06:00Z</time>
      </trkpt>
      <trkpt lat="45.85551" lon="3.05204">
        <ele>491</ele>
        <time>2021-08-15T06:06:01Z</time>
      </trkpt>
      <trkpt lat="45.85552" lon="3.05203">
        <ele>491</ele>
        <time>2021-08-15T06:06:02Z</time>
      </trkpt>
      <trkpt lat="45.85552" lon="3.05201">
        <ele>491</ele>
        <time>2021-08-15T06:06:03Z</time>
      </trkpt>
      <trkpt lat="45.85552" lon="3.052">
        <ele>491</ele>
        <time>2021-08-15T06:06:04Z</time>
      </trkpt>
      <trkpt lat="45.85552" lon="3.05198">
        <ele>491</ele>
        <time>2021-08-15T06:06:05Z</time>
      </trkpt>
      <trkpt lat="45.85552" lon="3.05195">
        <ele>491</ele>
        <time>2021-08-15T06:06:06Z</time>
      </trkpt>
      <trkpt lat="45.85552" lon="3.05193">
        <ele>491</ele>
        <time>2021-08-15T06:06:07Z</time>
      </trkpt>
      <trkpt lat="45.85552" lon="3.05191">
        <ele>491</ele>
        <time>2021-08-15T06:06:08Z</time>
      </trkpt>
      <trkpt lat="45.85552" lon="3.05188">
        <ele>491</ele>
        <time>2021-08-15T06:06:09Z</time>
      </trkpt>
      <trkpt lat="45.85552" lon="3.05185">
        <ele>491</ele>
        <time>2021-08-15T06:06:10Z</time>
      </trkpt>
      <trkpt lat="45.85552" lon="3.05181">
        <ele>491</ele>
        <time>2021-08-15T06:06:11Z</time>
      </trkpt>
      <trkpt lat="45.85552" lon="3.05178">
        <ele>491</ele>
        <time>2021-08-15T06:06:12Z</time>
      </trkpt>
      <trkpt lat="45.85552" lon="3.05174">
        <ele>491</ele>
        <time>2021-08-15T06:06:13Z</time>
      </trkpt>
      <trkpt lat="45.85551" lon="3.05171">
        <ele>491</ele>
        <time>2021-08-15T06:06:14Z</time>
      </trkpt>
      <trkpt lat="45.8555" lon="3.05167">
        <ele>491</ele>
        <time>2021-08-15T06:06:15Z</time>
      </trkpt>
      <trkpt lat="45.8555" lon="3.05164">
        <ele>491</ele>
        <time>2021-08-15T06:06:16Z</time>
      </trkpt>
      <trkpt lat="45.8555" lon="3.0516">
        <ele>491</ele>
        <time>2021-08-15T06:06:17Z</time>
      </trkpt>
      <trkpt lat="45.85549" lon="3.05157">
        <ele>491</ele>
        <time>2021-08-15T06:06:18Z</time>
      </trkpt>
      <trkpt lat="45.85549" lon="3.05153">
        <ele>491</ele>
        <time>2021-08-15T06:06:19Z</time>
      </trkpt>
      <trkpt lat="45.85548" lon="3.0515">
        <ele>491</ele>
        <time>2021-08-15T06:06:20Z</time>
      </trkpt>
      <trkpt lat="45.85548" lon="3.05147">
        <ele>491</ele>
        <time>2021-08-15T06:06:21Z</time>
      </trkpt>
      <trkpt lat="45.85548" lon="3.05144">
        <ele>491</ele>
        <time>2021-08-15T06:06:22Z</time>
      </trkpt>
      <trkpt lat="45.85548" lon="3.05141">
        <ele>491</ele>
        <time>2021-08-15T06:06:23Z</time>
      </trkpt>
      <trkpt lat="45.85548" lon="3.05139">
        <ele>491</ele>
        <time>2021-08-15T06:06:24Z</time>
      </trkpt>
      <trkpt lat="45.85547" lon="3.05136">
        <ele>491</ele>
        <time>2021-08-15T06:06:25Z</time>
      </trkpt>
      <trkpt lat="45.85546" lon="3.05133">
        <ele>491</ele>
        <time>2021-08-15T06:06:26Z</time>
      </trkpt>
      <trkpt lat="45.85546" lon="3.0513">
        <ele>491</ele>
        <time>2021-08-15T06:06:27Z</time>
      </trkpt>
      <trkpt lat="45.85546" lon="3.05127">
        <ele>491</ele>
        <time>2021-08-15T06:06:28Z</time>
      </trkpt>
      <trkpt lat="45.85546" lon="3.05125">
        <ele>491</ele>
        <time>2021-08-15T06:06:29Z</time>
      </trkpt>
      <trkpt lat="45.85546" lon="3.05122">
        <ele>491</ele>
        <time>2021-08-15T06:06:30Z</time>
      </trkpt>
      <trkpt lat="45.85546" lon="3.0512">
        <ele>491</ele>
        <time>2021-08-15T06:06:31Z</time>
      </trkpt>
      <trkpt lat="45.85546" lon="3.05117">
        <ele>491</ele>
        <time>2021-08-15T06:06:32Z</time>
      </trkpt>
      <trkpt lat="45.85546" lon="3.05115">
        <ele>491</ele>
        <time>2021-08-15T06:06:33Z</time>
      </trkpt>
      <trkpt lat="45.85546" lon="3.05113">
        <ele>491</ele>
        <time>2021-08-15T06:06:34Z</time>
      </trkpt>
      <trkpt lat="45.85546" lon="3.05111">
        <ele>491</ele>
        <time>2021-08-15T06:06:35Z</time>
      </trkpt>
      <trkpt lat="45.85547" lon="3.05108">
        <ele>491</ele>
        <time>2021-08-15T06:06:36Z</time>
      </trkpt>
      <trkpt lat="45.85547" lon="3.05105">
        <ele>491</ele>
        <time>2021-08-15T06:06:37Z</time>
      </trkpt>
      <trkpt lat="45.85547" lon="3.05102">
        <ele>491</ele>
        <time>2021-08-15T06:06:38Z</time>
      </trkpt>
      <trkpt lat="45.85547" lon="3.051">
        <ele>491</ele>
        <time>2021-08-15T06:06:39Z</time>
      </trkpt>
      <trkpt lat="45.85548" lon="3.05097">
        <ele>491</ele>
        <time>2021-08-15T06:06:40Z</time>
      </trkpt>
      <trkpt lat="45.85548" lon="3.05095">
        <ele>491</ele>
        <time>2021-08-15T06:06:41Z</time>
      </trkpt>
      <trkpt lat="45.85549" lon="3.05093">
        <ele>491</ele>
        <time>2021-08-15T06:06:42Z</time>
      </trkpt>
      <trkpt lat="45.85549" lon="3.05091">
        <ele>491</ele>
        <time>2021-08-15T06:06:43Z</time>
      </trkpt>
      <trkpt lat="45.8555" lon="3.05088">
        <ele>491</ele>
        <time>2021-08-15T06:06:44Z</time>
      </trkpt>
      <trkpt lat="45.85551" lon="3.05086">
        <ele>491</ele>
        <time>2021-08-15T06:06:45Z</time>
      </trkpt>
      <trkpt lat="45.85552" lon="3.05084">
        <ele>491</ele>
        <time>2021-08-15T06:06:46Z</time>
      </trkpt>
      <trkpt lat="45.85552" lon="3.05081">
        <ele>491</ele>
        <time>2021-08-15T06:06:47Z</time>
      </trkpt>
      <trkpt lat="45.85552" lon="3.05079">
        <ele>491</ele>
        <time>2021-08-15T06:06:48Z</time>
      </trkpt>
      <trkpt lat="45.85552" lon="3.05077">
        <ele>491</ele>
        <time>2021-08-15T06:06:49Z</time>
      </trkpt>
      <trkpt lat="45.85552" lon="3.05075">
        <ele>491</ele>
        <time>2021-08-15T06:06:50Z</time>
      </trkpt>
      <trkpt lat="45.85553" lon="3.05073">
        <ele>491</ele>
        <time>2021-08-15T06:06:51Z</time>
      </trkpt>
      <trkpt lat="45.85553" lon="3.0507">
        <ele>491</ele>
        <time>2021-08-15T06:06:53Z</time>
      </trkpt>
      <trkpt lat="45.85555" lon="3.0506">
        <ele>491</ele>
        <time>2021-08-15T06:06:54Z</time>
      </trkpt>
      <trkpt lat="45.85555" lon="3.05059">
        <ele>491</ele>
        <time>2021-08-15T06:06:55Z</time>
      </trkpt>
      <trkpt lat="45.85555" lon="3.05058">
        <ele>491</ele>
        <time>2021-08-15T06:06:56Z</time>
      </trkpt>
      <trkpt lat="45.85555" lon="3.05056">
        <ele>491</ele>
        <time>2021-08-15T06:06:57Z</time>
      </trkpt>
      <trkpt lat="45.85555" lon="3.05054">
        <ele>491</ele>
        <time>2021-08-15T06:06:58Z</time>
      </trkpt>
      <trkpt lat="45.85556" lon="3.05052">
        <ele>491</ele>
        <time>2021-08-15T06:06:59Z</time>
      </trkpt>
      <trkpt lat="45.85557" lon="3.0505">
        <ele>491</ele>
        <time>2021-08-15T06:07:00Z</time>
      </trkpt>
      <trkpt lat="45.85558" lon="3.05049">
        <ele>491</ele>
        <time>2021-08-15T06:07:01Z</time>
      </trkpt>
      <trkpt lat="45.85559" lon="3.05047">
        <ele>491</ele>
        <time>2021-08-15T06:07:02Z</time>
      </trkpt>
      <trkpt lat="45.85559" lon="3.05046">
        <ele>491</ele>
        <time>2021-08-15T06:07:03Z</time>
      </trkpt>
      <trkpt lat="45.8556" lon="3.05044">
        <ele>491</ele>
        <time>2021-08-15T06:07:04Z</time>
      </trkpt>
      <trkpt lat="45.85561" lon="3.05041">
        <ele>491</ele>
        <time>2021-08-15T06:07:05Z</time>
      </trkpt>
      <trkpt lat="45.85562" lon="3.05039">
        <ele>491</ele>
        <time>2021-08-15T06:07:06Z</time>
      </trkpt>
      <trkpt lat="45.85563" lon="3.05037">
        <ele>491</ele>
        <time>2021-08-15T06:07:07Z</time>
      </trkpt>
      <trkpt lat="45.85564" lon="3.05035">
        <ele>491</ele>
        <time>2021-08-15T06:07:08Z</time>
      </trkpt>
      <trkpt lat="45.85565" lon="3.05034">
        <ele>491</ele>
        <time>2021-08-15T06:07:09Z</time>
      </trkpt>
      <trkpt lat="45.85566" lon="3.05032">
        <ele>491</ele>
        <time>2021-08-15T06:07:10Z</time>
      </trkpt>
      <trkpt lat="45.85567" lon="3.05031">
        <ele>491</ele>
        <time>2021-08-15T06:07:11Z</time>
      </trkpt>
      <trkpt lat="45.85568" lon="3.0503">
        <ele>491</ele>
        <time>2021-08-15T06:07:12Z</time>
      </trkpt>
      <trkpt lat="45.85569" lon="3.05029">
        <ele>491</ele>
        <time>2021-08-15T06:07:13Z</time>
      </trkpt>
      <trkpt lat="45.8557" lon="3.05029">
        <ele>491</ele>
        <time>2021-08-15T06:07:14Z</time>
      </trkpt>
      <trkpt lat="45.85572" lon="3.05028">
        <ele>491</ele>
        <time>2021-08-15T06:07:15Z</time>
      </trkpt>
      <trkpt lat="45.85573" lon="3.05028">
        <ele>491</ele>
        <time>2021-08-15T06:07:16Z</time>
      </trkpt>
      <trkpt lat="45.85574" lon="3.05027">
        <ele>491</ele>
        <time>2021-08-15T06:07:17Z</time>
      </trkpt>
      <trkpt lat="45.85576" lon="3.05026">
        <ele>491</ele>
        <time>2021-08-15T06:07:18Z</time>
      </trkpt>
      <trkpt lat="45.85577" lon="3.05025">
        <ele>491</ele>
        <time>2021-08-15T06:07:19Z</time>
      </trkpt>
      <trkpt lat="45.85578" lon="3.05024">
        <ele>491</ele>
        <time>2021-08-15T06:07:20Z</time>
      </trkpt>
      <trkpt lat="45.85579" lon="3.05023">
        <ele>491</ele>
        <time>2021-08-15T06:07:21Z</time>
      </trkpt>
      <trkpt lat="45.8558" lon="3.05022">
        <ele>491</ele>
        <time>2021-08-15T06:07:22Z</time>
      </trkpt>
      <trkpt lat="45.85582" lon="3.05021">
        <ele>491</ele>
        <time>2021-08-15T06:07:23Z</time>
      </trkpt>
      <trkpt lat="45.85583" lon="3.0502">
        <ele>491</ele>
        <time>2021-08-15T06:07:24Z</time>
      </trkpt>
      <trkpt lat="45.85584" lon="3.05019">
        <ele>491</ele>
        <time>2021-08-15T06:07:25Z</time>
      </trkpt>
      <trkpt lat="45.85585" lon="3.05018">
        <ele>491</ele>
        <time>2021-08-15T06:07:26Z</time>
      </trkpt>
      <trkpt lat="45.85586" lon="3.05017">
        <ele>491</ele>
        <time>2021-08-15T06:07:27Z</time>
      </trkpt>
      <trkpt lat="45.85587" lon="3.05016">
        <ele>491</ele>
        <time>2021-08-15T06:07:28Z</time>
      </trkpt>
      <trkpt lat="45.85588" lon="3.05016">
        <ele>491</ele>
        <time>2021-08-15T06:07:29Z</time>
      </trkpt>
      <trkpt lat="45.8559" lon="3.05015">
        <ele>491</ele>
        <time>2021-08-15T06:07:30Z</time>
      </trkpt>
      <trkpt lat="45.85591" lon="3.05015">
        <ele>491</ele>
        <time>2021-08-15T06:07:31Z</time>
      </trkpt>
      <trkpt lat="45.85592" lon="3.05014">
        <ele>491</ele>
        <time>2021-08-15T06:07:32Z</time>
      </trkpt>
      <trkpt lat="45.85593" lon="3.05013">
        <ele>491</ele>
        <time>2021-08-15T06:07:33Z</time>
      </trkpt>
      <trkpt lat="45.85595" lon="3.05012">
        <ele>491</ele>
        <time>2021-08-15T06:07:34Z</time>
      </trkpt>
      <trkpt lat="45.85596" lon="3.05012">
        <ele>491</ele>
        <time>2021-08-15T06:07:35Z</time>
      </trkpt>
      <trkpt lat="45.85598" lon="3.05011">
        <ele>491</ele>
        <time>2021-08-15T06:07:36Z</time>
      </trkpt>
      <trkpt lat="45.856" lon="3.0501">
        <ele>491</ele>
        <time>2021-08-15T06:07:37Z</time>
      </trkpt>
      <trkpt lat="45.85601" lon="3.05009">
        <ele>491</ele>
        <time>2021-08-15T06:07:38Z</time>
      </trkpt>
      <trkpt lat="45.85603" lon="3.05008">
        <ele>491</ele>
        <time>2021-08-15T06:07:39Z</time>
      </trkpt>
      <trkpt lat="45.85604" lon="3.05007">
        <ele>491</ele>
        <time>2021-08-15T06:07:40Z</time>
      </trkpt>
      <trkpt lat="45.85606" lon="3.05007">
        <ele>491</ele>
        <time>2021-08-15T06:07:41Z</time>
      </trkpt>
      <trkpt lat="45.85608" lon="3.05006">
        <ele>491</ele>
        <time>2021-08-15T06:07:42Z</time>
      </trkpt>
      <trkpt lat="45.85609" lon="3.05006">
        <ele>491</ele>
        <time>2021-08-15T06:07:43Z</time>
      </trkpt>
      <trkpt lat="45.85611" lon="3.05005">
        <ele>491</ele>
        <time>2021-08-15T06:07:44Z</time>
      </trkpt>
      <trkpt lat="45.85612" lon="3.05005">
        <ele>491</ele>
        <time>2021-08-15T06:07:45Z</time>
      </trkpt>
      <trkpt lat="45.85614" lon="3.05004">
        <ele>491</ele>
        <time>2021-08-15T06:07:46Z</time>
      </trkpt>
      <trkpt lat="45.85616" lon="3.05004">
        <ele>491</ele>
        <time>2021-08-15T06:07:47Z</time>
      </trkpt>
      <trkpt lat="45.85617" lon="3.05003">
        <ele>491</ele>
        <time>2021-08-15T06:07:48Z</time>
      </trkpt>
      <trkpt lat="45.85619" lon="3.05002">
        <ele>491</ele>
        <time>2021-08-15T06:07:49Z</time>
      </trkpt>
      <trkpt lat="45.8562" lon="3.05001">
        <ele>491</ele>
        <time>2021-08-15T06:07:51Z</time>
      </trkpt>
      <trkpt lat="45.85621" lon="3.04999">
        <ele>491</ele>
        <time>2021-08-15T06:07:52Z</time>
      </trkpt>
      <trkpt lat="45.85625" lon="3.04993">
        <ele>491</ele>
        <time>2021-08-15T06:07:53Z</time>
      </trkpt>
      <trkpt lat="45.85626" lon="3.04993">
        <ele>491</ele>
        <time>2021-08-15T06:07:54Z</time>
      </trkpt>
      <trkpt lat="45.85626" lon="3.04992">
        <ele>491</ele>
        <time>2021-08-15T06:07:55Z</time>
      </trkpt>
      <trkpt lat="45.85626" lon="3.04992">
        <ele>491</ele>
        <time>2021-08-15T06:07:56Z</time>
      </trkpt>
      <trkpt lat="45.85627" lon="3.04991">
        <ele>491</ele>
        <time>2021-08-15T06:07:57Z</time>
      </trkpt>
      <trkpt lat="45.85628" lon="3.04991">
        <ele>491</ele>
        <time>2021-08-15T06:07:58Z</time>
      </trkpt>
      <trkpt lat="45.85628" lon="3.0499">
        <ele>491</ele>
        <time>2021-08-15T06:07:59Z</time>
      </trkpt>
      <trkpt lat="45.85629" lon="3.04989">
        <ele>491</ele>
        <time>2021-08-15T06:08:00Z</time>
      </trkpt>
      <trkpt lat="45.8563" lon="3.04987">
        <ele>491</ele>
        <time>2021-08-15T06:08:01Z</time>
      </trkpt>
      <trkpt lat="45.85631" lon="3.04985">
        <ele>491</ele>
        <time>2021-08-15T06:08:02Z</time>
      </trkpt>
      <trkpt lat="45.85631" lon="3.04984">
        <ele>491</ele>
        <time>2021-08-15T06:08:03Z</time>
      </trkpt>
      <trkpt lat="45.85632" lon="3.04982">
        <ele>491</ele>
        <time>2021-08-15T06:08:04Z</time>
      </trkpt>
      <trkpt lat="45.85634" lon="3.0498">
        <ele>491</ele>
        <time>2021-08-15T06:08:05Z</time>
      </trkpt>
      <trkpt lat="45.85634" lon="3.04979">
        <ele>491</ele>
        <time>2021-08-15T06:08:06Z</time>
      </trkpt>
      <trkpt lat="45.85635" lon="3.04977">
        <ele>491</ele>
        <time>2021-08-15T06:08:07Z</time>
      </trkpt>
      <trkpt lat="45.85637" lon="3.04976">
        <ele>491</ele>
        <time>2021-08-15T06:08:08Z</time>
      </trkpt>
      <trkpt lat="45.85637" lon="3.04975">
        <ele>491</ele>
        <time>2021-08-15T06:08:09Z</time>
      </trkpt>
      <trkpt lat="45.85639" lon="3.04973">
        <ele>491</ele>
        <time>2021-08-15T06:08:10Z</time>
      </trkpt>
      <trkpt lat="45.8564" lon="3.04972">
        <ele>491</ele>
        <time>2021-08-15T06:08:11Z</time>
      </trkpt>
      <trkpt lat="45.85642" lon="3.0497">
        <ele>491</ele>
        <time>2021-08-15T06:08:12Z</time>
      </trkpt>
      <trkpt lat="45.85643" lon="3.04968">
        <ele>491</ele>
        <time>2021-08-15T06:08:13Z</time>
      </trkpt>
      <trkpt lat="45.85643" lon="3.04966">
        <ele>491</ele>
        <time>2021-08-15T06:08:14Z</time>
      </trkpt>
      <trkpt lat="45.85645" lon="3.04965">
        <ele>491</ele>
        <time>2021-08-15T06:08:15Z</time>
      </trkpt>
      <trkpt lat="45.85646" lon="3.04963">
        <ele>491</ele>
        <time>2021-08-15T06:08:16Z</time>
      </trkpt>
      <trkpt lat="45.85648" lon="3.04962">
        <ele>491</ele>
        <time>2021-08-15T06:08:17Z</time>
      </trkpt>
      <trkpt lat="45.85649" lon="3.0496">
        <ele>491</ele>
        <time>2021-08-15T06:08:18Z</time>
      </trkpt>
      <trkpt lat="45.8565" lon="3.04959">
        <ele>491</ele>
        <time>2021-08-15T06:08:19Z</time>
      </trkpt>
      <trkpt lat="45.85651" lon="3.04957">
        <ele>491</ele>
        <time>2021-08-15T06:08:20Z</time>
      </trkpt>
      <trkpt lat="45.85653" lon="3.04955">
        <ele>491</ele>
        <time>2021-08-15T06:08:21Z</time>
      </trkpt>
      <trkpt lat="45.85654" lon="3.04954">
        <ele>491</ele>
        <time>2021-08-15T06:08:22Z</time>
      </trkpt>
      <trkpt lat="45.85656" lon="3.04952">
        <ele>491</ele>
        <time>2021-08-15T06:08:22Z</time>
      </trkpt>
      <trkpt lat="45.85658" lon="3.0495">
        <ele>491</ele>
        <time>2021-08-15T06:08:23Z</time>
      </trkpt>
      <trkpt lat="45.85659" lon="3.04949">
        <ele>491</ele>
        <time>2021-08-15T06:08:24Z</time>
      </trkpt>
      <trkpt lat="45.85661" lon="3.04947">
        <ele>491</ele>
        <time>2021-08-15T06:08:25Z</time>
      </trkpt>
      <trkpt lat="45.85663" lon="3.04945">
        <ele>491</ele>
        <time>2021-08-15T06:08:26Z</time>
      </trkpt>
      <trkpt lat="45.85664" lon="3.04944">
        <ele>491</ele>
        <time>2021-08-15T06:08:27Z</time>
      </trkpt>
      <trkpt lat="45.85666" lon="3.04943">
        <ele>491</ele>
        <time>2021-08-15T06:08:28Z</time>
      </trkpt>
      <trkpt lat="45.85667" lon="3.04942">
        <ele>491</ele>
        <time>2021-08-15T06:08:29Z</time>
      </trkpt>
      <trkpt lat="45.8567" lon="3.0494">
        <ele>491</ele>
        <time>2021-08-15T06:08:30Z</time>
      </trkpt>
      <trkpt lat="45.85671" lon="3.04939">
        <ele>491</ele>
        <time>2021-08-15T06:08:31Z</time>
      </trkpt>
      <trkpt lat="45.85673" lon="3.04937">
        <ele>491</ele>
        <time>2021-08-15T06:08:32Z</time>
      </trkpt>
      <trkpt lat="45.85675" lon="3.04936">
        <ele>491</ele>
        <time>2021-08-15T06:08:33Z</time>
      </trkpt>
      <trkpt lat="45.85676" lon="3.04935">
        <ele>491</ele>
        <time>2021-08-15T06:08:34Z</time>
      </trkpt>
      <trkpt lat="45.85678" lon="3.04934">
        <ele>491</ele>
        <time>2021-08-15T06:08:35Z</time>
      </trkpt>
      <trkpt lat="45.85679" lon="3.04932">
        <ele>491</ele>
        <time>2021-08-15T06:08:36Z</time>
      </trkpt>
      <trkpt lat="45.85681" lon="3.04931">
        <ele>491</ele>
        <time>2021-08-15T06:08:37Z</time>
      </trkpt>
      <trkpt lat="45.85682" lon="3.04929">
        <ele>491</ele>
        <time>2021-08-15T06:08:38Z</time>
      </trkpt>
      <trkpt lat="45.85684" lon="3.04928">
        <ele>491</ele>
        <time>2021-08-15T06:08:39Z</time>
      </trkpt>
      <trkpt lat="45.85685" lon="3.04927">
        <ele>491</ele>
        <time>2021-08-15T06:08:40Z</time>
      </trkpt>
      <trkpt lat="45.85687" lon="3.04926">
        <ele>491</ele>
        <time>2021-08-15T06:08:41Z</time>
      </trkpt>
      <trkpt lat="45.85688" lon="3.04925">
        <ele>491</ele>
        <time>2021-08-15T06:08:42Z</time>
      </trkpt>
      <trkpt lat="45.85689" lon="3.04923">
        <ele>491</ele>
        <time>2021-08-15T06:08:43Z</time>
      </trkpt>
      <trkpt lat="45.8569" lon="3.04922">
        <ele>491</ele>
        <time>2021-08-15T06:08:44Z</time>
      </trkpt>
      <trkpt lat="45.85691" lon="3.0492">
        <ele>491</ele>
        <time>2021-08-15T06:08:45Z</time>
      </trkpt>
      <trkpt lat="45.85692" lon="3.04918">
        <ele>491</ele>
        <time>2021-08-15T06:08:46Z</time>
      </trkpt>
      <trkpt lat="45.85693" lon="3.04916">
        <ele>491</ele>
        <time>2021-08-15T06:08:47Z</time>
      </trkpt>
      <trkpt lat="45.85694" lon="3.04915">
        <ele>491</ele>
        <time>2021-08-15T06:08:48Z</time>
      </trkpt>
      <trkpt lat="45.85695" lon="3.04913">
        <ele>491</ele>
        <time>2021-08-15T06:08:50Z</time>
      </trkpt>
      <trkpt lat="45.85697" lon="3.04911">
        <ele>491</ele>
        <time>2021-08-15T06:08:51Z</time>
      </trkpt>
      <trkpt lat="45.85698" lon="3.0491">
        <ele>491</ele>
        <time>2021-08-15T06:08:52Z</time>
      </trkpt>
      <trkpt lat="45.85703" lon="3.04902">
        <ele>491</ele>
        <time>2021-08-15T06:08:53Z</time>
      </trkpt>
      <trkpt lat="45.85703" lon="3.04902">
        <ele>491</ele>
        <time>2021-08-15T06:08:54Z</time>
      </trkpt>
      <trkpt lat="45.85704" lon="3.04901">
        <ele>491</ele>
        <time>2021-08-15T06:08:55Z</time>
      </trkpt>
      <trkpt lat="45.85706" lon="3.049">
        <ele>491</ele>
        <time>2021-08-15T06:08:56Z</time>
      </trkpt>
      <trkpt lat="45.85707" lon="3.04899">
        <ele>491</ele>
        <time>2021-08-15T06:08:57Z</time>
      </trkpt>
      <trkpt lat="45.85709" lon="3.04897">
        <ele>491</ele>
        <time>2021-08-15T06:08:58Z</time>
      </trkpt>
      <trkpt lat="45.85711" lon="3.04895">
        <ele>491</ele>
        <time>2021-08-15T06:08:59Z</time>
      </trkpt>
      <trkpt lat="45.85712" lon="3.04893">
        <ele>491</ele>
        <time>2021-08-15T06:09:00Z</time>
      </trkpt>
      <trkpt lat="45.85714" lon="3.0489">
        <ele>491</ele>
        <time>2021-08-15T06:09:01Z</time>
      </trkpt>
      <trkpt lat="45.85716" lon="3.04888">
        <ele>491</ele>
        <time>2021-08-15T06:09:02Z</time>
      </trkpt>
      <trkpt lat="45.85717" lon="3.04885">
        <ele>491</ele>
        <time>2021-08-15T06:09:03Z</time>
      </trkpt>
      <trkpt lat="45.85719" lon="3.04883">
        <ele>491</ele>
        <time>2021-08-15T06:09:04Z</time>
      </trkpt>
      <trkpt lat="45.85721" lon="3.04881">
        <ele>491</ele>
        <time>2021-08-15T06:09:05Z</time>
      </trkpt>
      <trkpt lat="45.85722" lon="3.04879">
        <ele>491</ele>
        <time>2021-08-15T06:09:06Z</time>
      </trkpt>
      <trkpt lat="45.85724" lon="3.04877">
        <ele>491</ele>
        <time>2021-08-15T06:09:07Z</time>
      </trkpt>
      <trkpt lat="45.85726" lon="3.04875">
        <ele>491</ele>
        <time>2021-08-15T06:09:08Z</time>
      </trkpt>
      <trkpt lat="45.85728" lon="3.04873">
        <ele>491</ele>
        <time>2021-08-15T06:09:09Z</time>
      </trkpt>
      <trkpt lat="45.8573" lon="3.04871">
        <ele>491</ele>
        <time>2021-08-15T06:09:10Z</time>
      </trkpt>
      <trkpt lat="45.85732" lon="3.04869">
        <ele>491</ele>
        <time>2021-08-15T06:09:11Z</time>
      </trkpt>
      <trkpt lat="45.85734" lon="3.04867">
        <ele>491</ele>
        <time>2021-08-15T06:09:12Z</time>
      </trkpt>
      <trkpt lat="45.85737" lon="3.04865">
        <ele>491</ele>
        <time>2021-08-15T06:09:13Z</time>
      </trkpt>
      <trkpt lat="45.85739" lon="3.04862">
        <ele>491</ele>
        <time>2021-08-15T06:09:14Z</time>
      </trkpt>
      <trkpt lat="45.85741" lon="3.0486">
        <ele>491</ele>
        <time>2021-08-15T06:09:15Z</time>
      </trkpt>
      <trkpt lat="45.85743" lon="3.04858">
        <ele>491</ele>
        <time>2021-08-15T06:09:16Z</time>
      </trkpt>
      <trkpt lat="45.85745" lon="3.04857">
        <ele>491</ele>
        <time>2021-08-15T06:09:17Z</time>
      </trkpt>
      <trkpt lat="45.85748" lon="3.04855">
        <ele>491</ele>
        <time>2021-08-15T06:09:18Z</time>
      </trkpt>
      <trkpt lat="45.85749" lon="3.04854">
        <ele>491</ele>
        <time>2021-08-15T06:09:19Z</time>
      </trkpt>
      <trkpt lat="45.85751" lon="3.04852">
        <ele>491</ele>
        <time>2021-08-15T06:09:20Z</time>
      </trkpt>
      <trkpt lat="45.85753" lon="3.04851">
        <ele>491</ele>
        <time>2021-08-15T06:09:21Z</time>
      </trkpt>
      <trkpt lat="45.85754" lon="3.04849">
        <ele>491</ele>
        <time>2021-08-15T06:09:22Z</time>
      </trkpt>
      <trkpt lat="45.85756" lon="3.04847">
        <ele>491</ele>
        <time>2021-08-15T06:09:23Z</time>
      </trkpt>
      <trkpt lat="45.85758" lon="3.04845">
        <ele>491</ele>
        <time>2021-08-15T06:09:24Z</time>
      </trkpt>
      <trkpt lat="45.85759" lon="3.04843">
        <ele>491</ele>
        <time>2021-08-15T06:09:25Z</time>
      </trkpt>
      <trkpt lat="45.85761" lon="3.04842">
        <ele>491</ele>
        <time>2021-08-15T06:09:26Z</time>
      </trkpt>
      <trkpt lat="45.85762" lon="3.04841">
        <ele>491</ele>
        <time>2021-08-15T06:09:27Z</time>
      </trkpt>
      <trkpt lat="45.85764" lon="3.04841">
        <ele>491</ele>
        <time>2021-08-15T06:09:28Z</time>
      </trkpt>
      <trkpt lat="45.85766" lon="3.0484">
        <ele>491</ele>
        <time>2021-08-15T06:09:29Z</time>
      </trkpt>
      <trkpt lat="45.85767" lon="3.0484">
        <ele>491</ele>
        <time>2021-08-15T06:09:30Z</time>
      </trkpt>
      <trkpt lat="45.85769" lon="3.0484">
        <ele>491</ele>
        <time>2021-08-15T06:09:31Z</time>
      </trkpt>
      <trkpt lat="45.8577" lon="3.04839">
        <ele>491</ele>
        <time>2021-08-15T06:09:32Z</time>
      </trkpt>
      <trkpt lat="45.85772" lon="3.04839">
        <ele>491</ele>
        <time>2021-08-15T06:09:33Z</time>
      </trkpt>
      <trkpt lat="45.85774" lon="3.04838">
        <ele>491</ele>
        <time>2021-08-15T06:09:34Z</time>
      </trkpt>
      <trkpt lat="45.85775" lon="3.04837">
        <ele>491</ele>
        <time>2021-08-15T06:09:35Z</time>
      </trkpt>
      <trkpt lat="45.85777" lon="3.04837">
        <ele>491</ele>
        <time>2021-08-15T06:09:36Z</time>
      </trkpt>
      <trkpt lat="45.85778" lon="3.04836">
        <ele>491</ele>
        <time>2021-08-15T06:09:37Z</time>
      </trkpt>
      <trkpt lat="45.8578" lon="3.04835">
        <ele>491</ele>
        <time>2021-08-15T06:09:38Z</time>
      </trkpt>
      <trkpt lat="45.85781" lon="3.04835">
        <ele>491</ele>
        <time>2021-08-15T06:09:39Z</time>
      </trkpt>
      <trkpt lat="45.85783" lon="3.04834">
        <ele>491</ele>
        <time>2021-08-15T06:09:40Z</time>
      </trkpt>
      <trkpt lat="45.85784" lon="3.04834">
        <ele>491</ele>
        <time>2021-08-15T06:09:41Z</time>
      </trkpt>
      <trkpt lat="45.85785" lon="3.04834">
        <ele>491</ele>
        <time>2021-08-15T06:09:42Z</time>
      </trkpt>
      <trkpt lat="45.85787" lon="3.04834">
        <ele>491</ele>
        <time>2021-08-15T06:09:43Z</time>
      </trkpt>
      <trkpt lat="45.85788" lon="3.04833">
        <ele>491</ele>
        <time>2021-08-15T06:09:44Z</time>
      </trkpt>
      <trkpt lat="45.8579" lon="3.04833">
        <ele>491</ele>
        <time>2021-08-15T06:09:45Z</time>
      </trkpt>
      <trkpt lat="45.85792" lon="3.04833">
        <ele>491</ele>
        <time>2021-08-15T06:09:46Z</time>
      </trkpt>
      <trkpt lat="45.85794" lon="3.04832">
        <ele>491</ele>
        <time>2021-08-15T06:09:47Z</time>
      </trkpt>
      <trkpt lat="45.85796" lon="3.04832">
        <ele>491</ele>
        <time>2021-08-15T06:09:48Z</time>
      </trkpt>
      <trkpt lat="45.85798" lon="3.04831">
        <ele>491</ele>
        <time>2021-08-15T06:09:50Z</time>
      </trkpt>
      <trkpt lat="45.858" lon="3.0483">
        <ele>491</ele>
        <time>2021-08-15T06:09:51Z</time>
      </trkpt>
      <trkpt lat="45.85802" lon="3.04829">
        <ele>491</ele>
        <time>2021-08-15T06:09:52Z</time>
      </trkpt>
      <trkpt lat="45.85809" lon="3.04827">
        <ele>491</ele>
        <time>2021-08-15T06:09:53Z</time>
      </trkpt>
      <trkpt lat="45.85809" lon="3.04827">
        <ele>491</ele>
        <time>2021-08-15T06:09:54Z</time>
      </trkpt>
      <trkpt lat="45.85811" lon="3.04826">
        <ele>491</ele>
        <time>2021-08-15T06:09:55Z</time>
      </trkpt>
      <trkpt lat="45.85812" lon="3.04826">
        <ele>491</ele>
        <time>2021-08-15T06:09:56Z</time>
      </trkpt>
      <trkpt lat="45.85814" lon="3.04825">
        <ele>491</ele>
        <time>2021-08-15T06:09:57Z</time>
      </trkpt>
      <trkpt lat="45.85815" lon="3.04825">
        <ele>491</ele>
        <time>2021-08-15T06:09:58Z</time>
      </trkpt>
      <trkpt lat="45.85816" lon="3.04824">
        <ele>491</ele>
        <time>2021-08-15T06:09:59Z</time>
      </trkpt>
      <trkpt lat="45.85818" lon="3.04823">
        <ele>491</ele>
        <time>2021-08-15T06:10:00Z</time>
      </trkpt>
      <trkpt lat="45.8582" lon="3.04823">
        <ele>491</ele>
        <time>2021-08-15T06:10:01Z</time>
      </trkpt>
      <trkpt lat="45.85821" lon="3.04822">
        <ele>491</ele>
        <time>2021-08-15T06:10:02Z</time>
      </trkpt>
      <trkpt lat="45.85823" lon="3.04821">
        <ele>491</ele>
        <time>2021-08-15T06:10:03Z</time>
      </trkpt>
      <trkpt lat="45.85825" lon="3.0482">
        <ele>491</ele>
        <time>2021-08-15T06:10:04Z</time>
      </trkpt>
      <trkpt lat="45.85827" lon="3.04819">
        <ele>491</ele>
        <time>2021-08-15T06:10:05Z</time>
      </trkpt>
      <trkpt lat="45.85829" lon="3.04818">
        <ele>491</ele>
        <time>2021-08-15T06:10:06Z</time>
      </trkpt>
      <trkpt lat="45.85831" lon="3.04817">
        <ele>491</ele>
        <time>2021-08-15T06:10:07Z</time>
      </trkpt>
      <trkpt lat="45.85833" lon="3.04816">
        <ele>491</ele>
        <time>2021-08-15T06:10:08Z</time>
      </trkpt>
      <trkpt lat="45.85835" lon="3.04815">
        <ele>491</ele>
        <time>2021-08-15T06:10:09Z</time>
      </trkpt>
      <trkpt lat="45.85836" lon="3.04814">
        <ele>491</ele>
        <time>2021-08-15T06:10:10Z</time>
      </trkpt>
      <trkpt lat="45.85838" lon="3.04813">
        <ele>491</ele>
        <time>2021-08-15T06:10:11Z</time>
      </trkpt>
      <trkpt lat="45.8584" lon="3.04813">
        <ele>491</ele>
        <time>2021-08-15T06:10:12Z</time>
      </trkpt>
      <trkpt lat="45.85842" lon="3.04812">
        <ele>491</ele>
        <time>2021-08-15T06:10:13Z</time>
      </trkpt>
      <trkpt lat="45.85844" lon="3.04811">
        <ele>491</ele>
        <time>2021-08-15T06:10:14Z</time>
      </trkpt>
      <trkpt lat="45.85845" lon="3.0481">
        <ele>491</ele>
        <time>2021-08-15T06:10:15Z</time>
      </trkpt>
      <trkpt lat="45.85848" lon="3.04809">
        <ele>491</ele>
        <time>2021-08-15T06:10:16Z</time>
      </trkpt>
      <trkpt lat="45.85849" lon="3.04809">
        <ele>491</ele>
        <time>2021-08-15T06:10:17Z</time>
      </trkpt>
      <trkpt lat="45.85851" lon="3.04808">
        <ele>491</ele>
        <time>2021-08-15T06:10:19Z</time>
      </trkpt>
      <trkpt lat="45.85854" lon="3.04806">
        <ele>491</ele>
        <time>2021-08-15T06:10:21Z</time>
      </trkpt>
      <trkpt lat="45.85857" lon="3.04805">
        <ele>491</ele>
        <time>2021-08-15T06:10:22Z</time>
      </trkpt>
      <trkpt lat="45.85859" lon="3.04804">
        <ele>491</ele>
        <time>2021-08-15T06:10:23Z</time>
      </trkpt>
      <trkpt lat="45.8586" lon="3.04803">
        <ele>491</ele>
        <time>2021-08-15T06:10:24Z</time>
      </trkpt>
      <trkpt lat="45.85863" lon="3.04803">
        <ele>491</ele>
        <time>2021-08-15T06:10:25Z</time>
      </trkpt>
      <trkpt lat="45.85864" lon="3.04802">
        <ele>491</ele>
        <time>2021-08-15T06:10:26Z</time>
      </trkpt>
      <trkpt lat="45.85865" lon="3.04801">
        <ele>491</ele>
        <time>2021-08-15T06:10:27Z</time>
      </trkpt>
      <trkpt lat="45.85867" lon="3.04801">
        <ele>491</ele>
        <time>2021-08-15T06:10:28Z</time>
      </trkpt>
      <trkpt lat="45.85868" lon="3.048">
        <ele>491</ele>
        <time>2021-08-15T06:10:29Z</time>
      </trkpt>
      <trkpt lat="45.85869" lon="3.048">
        <ele>491</ele>
        <time>2021-08-15T06:10:30Z</time>
      </trkpt>
      <trkpt lat="45.8587" lon="3.04799">
        <ele>491</ele>
        <time>2021-08-15T06:10:31Z</time>
      </trkpt>
      <trkpt lat="45.85871" lon="3.04799">
        <ele>491</ele>
        <time>2021-08-15T06:10:32Z</time>
      </trkpt>
      <trkpt lat="45.85872" lon="3.04798">
        <ele>491</ele>
        <time>2021-08-15T06:10:33Z</time>
      </trkpt>
      <trkpt lat="45.85873" lon="3.04798">
        <ele>491</ele>
        <time>2021-08-15T06:10:34Z</time>
      </trkpt>
      <trkpt lat="45.85875" lon="3.04797">
        <ele>491</ele>
        <time>2021-08-15T06:10:35Z</time>
      </trkpt>
      <trkpt lat="45.85876" lon="3.04797">
        <ele>491</ele>
        <time>2021-08-15T06:10:36Z</time>
      </trkpt>
      <trkpt lat="45.85877" lon="3.04796">
        <ele>491</ele>
        <time>2021-08-15T06:10:37Z</time>
      </trkpt>
      <trkpt lat="45.85878" lon="3.04796">
        <ele>491</ele>
        <time>2021-08-15T06:10:38Z</time>
      </trkpt>
      <trkpt lat="45.8588" lon="3.04795">
        <ele>491</ele>
        <time>2021-08-15T06:10:39Z</time>
      </trkpt>
      <trkpt lat="45.85881" lon="3.04795">
        <ele>491</ele>
        <time>2021-08-15T06:10:40Z</time>
      </trkpt>
      <trkpt lat="45.85884" lon="3.04794">
        <ele>491</ele>
        <time>2021-08-15T06:10:41Z</time>
      </trkpt>
      <trkpt lat="45.85885" lon="3.04793">
        <ele>491</ele>
        <time>2021-08-15T06:10:42Z</time>
      </trkpt>
      <trkpt lat="45.85887" lon="3.04793">
        <ele>491</ele>
        <time>2021-08-15T06:10:43Z</time>
      </trkpt>
      <trkpt lat="45.85888" lon="3.04792">
        <ele>491</ele>
        <time>2021-08-15T06:10:44Z</time>
      </trkpt>
      <trkpt lat="45.8589" lon="3.04791">
        <ele>491</ele>
        <time>2021-08-15T06:10:45Z</time>
      </trkpt>
      <trkpt lat="45.85891" lon="3.0479">
        <ele>491</ele>
        <time>2021-08-15T06:10:46Z</time>
      </trkpt>
      <trkpt lat="45.85893" lon="3.04789">
        <ele>491</ele>
        <time>2021-08-15T06:10:47Z</time>
      </trkpt>
      <trkpt lat="45.85894" lon="3.04789">
        <ele>491</ele>
        <time>2021-08-15T06:10:48Z</time>
      </trkpt>
      <trkpt lat="45.85896" lon="3.04788">
        <ele>491</ele>
        <time>2021-08-15T06:10:49Z</time>
      </trkpt>
      <trkpt lat="45.85897" lon="3.04788">
        <ele>491</ele>
        <time>2021-08-15T06:10:50Z</time>
      </trkpt>
      <trkpt lat="45.85899" lon="3.04787">
        <ele>491</ele>
        <time>2021-08-15T06:10:52Z</time>
      </trkpt>
      <trkpt lat="45.85904" lon="3.04783">
        <ele>491</ele>
        <time>2021-08-15T06:10:53Z</time>
      </trkpt>
      <trkpt lat="45.85904" lon="3.04783">
        <ele>491</ele>
        <time>2021-08-15T06:10:54Z</time>
      </trkpt>
      <trkpt lat="45.85905" lon="3.04783">
        <ele>491</ele>
        <time>2021-08-15T06:10:55Z</time>
      </trkpt>
      <trkpt lat="45.85906" lon="3.04782">
        <ele>491</ele>
        <time>2021-08-15T06:10:56Z</time>
      </trkpt>
      <trkpt lat="45.85907" lon="3.04782">
        <ele>491</ele>
        <time>2021-08-15T06:10:57Z</time>
      </trkpt>
      <trkpt lat="45.85909" lon="3.04781">
        <ele>491</ele>
        <time>2021-08-15T06:10:58Z</time>
      </trkpt>
      <trkpt lat="45.8591" lon="3.04781">
        <ele>491</ele>
        <time>2021-08-15T06:10:59Z</time>
      </trkpt>
      <trkpt lat="45.85911" lon="3.0478">
        <ele>491</ele>
        <time>2021-08-15T06:11:00Z</time>
      </trkpt>
      <trkpt lat="45.85912" lon="3.0478">
        <ele>491</ele>
        <time>2021-08-15T06:11:01Z</time>
      </trkpt>
      <trkpt lat="45.85914" lon="3.04779">
        <ele>491</ele>
        <time>2021-08-15T06:11:02Z</time>
      </trkpt>
      <trkpt lat="45.85915" lon="3.04779">
        <ele>491</ele>
        <time>2021-08-15T06:11:03Z</time>
      </trkpt>
      <trkpt lat="45.85917" lon="3.04778">
        <ele>491</ele>
        <time>2021-08-15T06:11:04Z</time>
      </trkpt>
      <trkpt lat="45.85918" lon="3.04778">
        <ele>491</ele>
        <time>2021-08-15T06:11:05Z</time>
      </trkpt>
      <trkpt lat="45.8592" lon="3.04777">
        <ele>491</ele>
        <time>2021-08-15T06:11:06Z</time>
      </trkpt>
      <trkpt lat="45.85922" lon="3.04777">
        <ele>491</ele>
        <time>2021-08-15T06:11:07Z</time>
      </trkpt>
      <trkpt lat="45.85924" lon="3.04776">
        <ele>491</ele>
        <time>2021-08-15T06:11:08Z</time>
      </trkpt>
      <trkpt lat="45.85926" lon="3.04776">
        <ele>491</ele>
        <time>2021-08-15T06:11:09Z</time>
      </trkpt>
      <trkpt lat="45.85928" lon="3.04775">
        <ele>491</ele>
        <time>2021-08-15T06:11:10Z</time>
      </trkpt>
      <trkpt lat="45.8593" lon="3.04775">
        <ele>491</ele>
        <time>2021-08-15T06:11:11Z</time>
      </trkpt>
      <trkpt lat="45.85931" lon="3.04774">
        <ele>491</ele>
        <time>2021-08-15T06:11:12Z</time>
      </trkpt>
      <trkpt lat="45.85933" lon="3.04774">
        <ele>491</ele>
        <time>2021-08-15T06:11:13Z</time>
      </trkpt>
      <trkpt lat="45.85934" lon="3.04774">
        <ele>491</ele>
        <time>2021-08-15T06:11:14Z</time>
      </trkpt>
      <trkpt lat="45.85935" lon="3.04773">
        <ele>491</ele>
        <time>2021-08-15T06:11:15Z</time>
      </trkpt>
      <trkpt lat="45.85937" lon="3.04773">
        <ele>491</ele>
        <time>2021-08-15T06:11:16Z</time>
      </trkpt>
      <trkpt lat="45.85938" lon="3.04772">
        <ele>491</ele>
        <time>2021-08-15T06:11:17Z</time>
      </trkpt>
      <trkpt lat="45.85939" lon="3.04771">
        <ele>491</ele>
        <time>2021-08-15T06:11:18Z</time>
      </trkpt>
      <trkpt lat="45.85941" lon="3.0477">
        <ele>491</ele>
        <time>2021-08-15T06:11:19Z</time>
      </trkpt>
      <trkpt lat="45.85941" lon="3.04769">
        <ele>491</ele>
        <time>2021-08-15T06:11:20Z</time>
      </trkpt>
      <trkpt lat="45.85943" lon="3.04769">
        <ele>491</ele>
        <time>2021-08-15T06:11:21Z</time>
      </trkpt>
      <trkpt lat="45.85944" lon="3.04768">
        <ele>491</ele>
        <time>2021-08-15T06:11:22Z</time>
      </trkpt>
      <trkpt lat="45.85945" lon="3.04768">
        <ele>491</ele>
        <time>2021-08-15T06:11:23Z</time>
      </trkpt>
      <trkpt lat="45.85946" lon="3.04767">
        <ele>491</ele>
        <time>2021-08-15T06:11:24Z</time>
      </trkpt>
      <trkpt lat="45.85948" lon="3.04766">
        <ele>491</ele>
        <time>2021-08-15T06:11:25Z</time>
      </trkpt>
      <trkpt lat="45.85949" lon="3.04765">
        <ele>491</ele>
        <time>2021-08-15T06:11:26Z</time>
      </trkpt>
      <trkpt lat="45.8595" lon="3.04765">
        <ele>491</ele>
        <time>2021-08-15T06:11:27Z</time>
      </trkpt>
      <trkpt lat="45.85952" lon="3.04764">
        <ele>491</ele>
        <time>2021-08-15T06:11:28Z</time>
      </trkpt>
      <trkpt lat="45.85954" lon="3.04764">
        <ele>491</ele>
        <time>2021-08-15T06:11:29Z</time>
      </trkpt>
      <trkpt lat="45.85956" lon="3.04763">
        <ele>491</ele>
        <time>2021-08-15T06:11:30Z</time>
      </trkpt>
      <trkpt lat="45.85958" lon="3.04762">
        <ele>491</ele>
        <time>2021-08-15T06:11:31Z</time>
      </trkpt>
      <trkpt lat="45.8596" lon="3.04761">
        <ele>491</ele>
        <time>2021-08-15T06:11:32Z</time>
      </trkpt>
      <trkpt lat="45.85962" lon="3.0476">
        <ele>491</ele>
        <time>2021-08-15T06:11:33Z</time>
      </trkpt>
      <trkpt lat="45.85963" lon="3.04759">
        <ele>491</ele>
        <time>2021-08-15T06:11:34Z</time>
      </trkpt>
      <trkpt lat="45.85965" lon="3.04758">
        <ele>491</ele>
        <time>2021-08-15T06:11:35Z</time>
      </trkpt>
      <trkpt lat="45.85967" lon="3.04757">
        <ele>491</ele>
        <time>2021-08-15T06:11:36Z</time>
      </trkpt>
      <trkpt lat="45.85969" lon="3.04756">
        <ele>491</ele>
        <time>2021-08-15T06:11:37Z</time>
      </trkpt>
      <trkpt lat="45.8597" lon="3.04754">
        <ele>491</ele>
        <time>2021-08-15T06:11:38Z</time>
      </trkpt>
      <trkpt lat="45.85972" lon="3.04752">
        <ele>491</ele>
        <time>2021-08-15T06:11:39Z</time>
      </trkpt>
      <trkpt lat="45.85974" lon="3.04751">
        <ele>491</ele>
        <time>2021-08-15T06:11:40Z</time>
      </trkpt>
      <trkpt lat="45.85975" lon="3.04749">
        <ele>491</ele>
        <time>2021-08-15T06:11:41Z</time>
      </trkpt>
      <trkpt lat="45.85977" lon="3.04748">
        <ele>491</ele>
        <time>2021-08-15T06:11:42Z</time>
      </trkpt>
      <trkpt lat="45.85979" lon="3.04748">
        <ele>491</ele>
        <time>2021-08-15T06:11:43Z</time>
      </trkpt>
      <trkpt lat="45.85981" lon="3.04748">
        <ele>491</ele>
        <time>2021-08-15T06:11:44Z</time>
      </trkpt>
      <trkpt lat="45.85982" lon="3.04748">
        <ele>491</ele>
        <time>2021-08-15T06:11:45Z</time>
      </trkpt>
      <trkpt lat="45.85984" lon="3.04749">
        <ele>491</ele>
        <time>2021-08-15T06:11:46Z</time>
      </trkpt>
      <trkpt lat="45.85984" lon="3.04749">
        <ele>491</ele>
        <time>2021-08-15T06:11:47Z</time>
      </trkpt>
      <trkpt lat="45.85985" lon="3.0475">
        <ele>491</ele>
        <time>2021-08-15T06:11:48Z</time>
      </trkpt>
      <trkpt lat="45.85986" lon="3.0475">
        <ele>491</ele>
        <time>2021-08-15T06:11:49Z</time>
      </trkpt>
      <trkpt lat="45.85987" lon="3.04751">
        <ele>491</ele>
        <time>2021-08-15T06:11:51Z</time>
      </trkpt>
      <trkpt lat="45.8599" lon="3.04756">
        <ele>491</ele>
        <time>2021-08-15T06:11:52Z</time>
      </trkpt>
      <trkpt lat="45.8599" lon="3.04756">
        <ele>491</ele>
        <time>2021-08-15T06:11:53Z</time>
      </trkpt>
      <trkpt lat="45.8599" lon="3.04757">
        <ele>491</ele>
        <time>2021-08-15T06:11:54Z</time>
      </trkpt>
      <trkpt lat="45.8599" lon="3.04757">
        <ele>491</ele>
        <time>2021-08-15T06:11:55Z</time>
      </trkpt>
      <trkpt lat="45.85991" lon="3.04758">
        <ele>491</ele>
        <time>2021-08-15T06:11:56Z</time>
      </trkpt>
      <trkpt lat="45.85992" lon="3.04759">
        <ele>491</ele>
        <time>2021-08-15T06:11:57Z</time>
      </trkpt>
      <trkpt lat="45.85992" lon="3.0476">
        <ele>491</ele>
        <time>2021-08-15T06:11:58Z</time>
      </trkpt>
      <trkpt lat="45.85993" lon="3.04761">
        <ele>491</ele>
        <time>2021-08-15T06:11:59Z</time>
      </trkpt>
      <trkpt lat="45.85994" lon="3.04762">
        <ele>491</ele>
        <time>2021-08-15T06:12:00Z</time>
      </trkpt>
      <trkpt lat="45.85994" lon="3.04763">
        <ele>491</ele>
        <time>2021-08-15T06:12:01Z</time>
      </trkpt>
      <trkpt lat="45.85995" lon="3.04764">
        <ele>491</ele>
        <time>2021-08-15T06:12:02Z</time>
      </trkpt>
      <trkpt lat="45.85995" lon="3.04765">
        <ele>491</ele>
        <time>2021-08-15T06:12:03Z</time>
      </trkpt>
      <trkpt lat="45.85996" lon="3.04766">
        <ele>491</ele>
        <time>2021-08-15T06:12:04Z</time>
      </trkpt>
      <trkpt lat="45.85997" lon="3.04767">
        <ele>491</ele>
        <time>2021-08-15T06:12:05Z</time>
      </trkpt>
      <trkpt lat="45.85997" lon="3.04768">
        <ele>491</ele>
        <time>2021-08-15T06:12:06Z</time>
      </trkpt>
      <trkpt lat="45.85998" lon="3.04769">
        <ele>491</ele>
        <time>2021-08-15T06:12:07Z</time>
      </trkpt>
      <trkpt lat="45.85999" lon="3.0477">
        <ele>491</ele>
        <time>2021-08-15T06:12:08Z</time>
      </trkpt>
      <trkpt lat="45.86" lon="3.04771">
        <ele>491</ele>
        <time>2021-08-15T06:12:09Z</time>
      </trkpt>
      <trkpt lat="45.86001" lon="3.04772">
        <ele>491</ele>
        <time>2021-08-15T06:12:10Z</time>
      </trkpt>
      <trkpt lat="45.86002" lon="3.04773">
        <ele>491</ele>
        <time>2021-08-15T06:12:11Z</time>
      </trkpt>
      <trkpt lat="45.86003" lon="3.04774">
        <ele>491</ele>
        <time>2021-08-15T06:12:12Z</time>
      </trkpt>
      <trkpt lat="45.86004" lon="3.04775">
        <ele>491</ele>
        <time>2021-08-15T06:12:13Z</time>
      </trkpt>
      <trkpt lat="45.86004" lon="3.04777">
        <ele>491</ele>
        <time>2021-08-15T06:12:14Z</time>
      </trkpt>
      <trkpt lat="45.86005" lon="3.04779">
        <ele>491</ele>
        <time>2021-08-15T06:12:15Z</time>
      </trkpt>
      <trkpt lat="45.86006" lon="3.04781">
        <ele>491</ele>
        <time>2021-08-15T06:12:16Z</time>
      </trkpt>
      <trkpt lat="45.86007" lon="3.04783">
        <ele>491</ele>
        <time>2021-08-15T06:12:17Z</time>
      </trkpt>
      <trkpt lat="45.86008" lon="3.04786">
        <ele>491</ele>
        <time>2021-08-15T06:12:18Z</time>
      </trkpt>
      <trkpt lat="45.8601" lon="3.04789">
        <ele>491</ele>
        <time>2021-08-15T06:12:19Z</time>
      </trkpt>
      <trkpt lat="45.86011" lon="3.04792">
        <ele>491</ele>
        <time>2021-08-15T06:12:20Z</time>
      </trkpt>
      <trkpt lat="45.86011" lon="3.04795">
        <ele>491</ele>
        <time>2021-08-15T06:12:21Z</time>
      </trkpt>
      <trkpt lat="45.86012" lon="3.04798">
        <ele>491</ele>
        <time>2021-08-15T06:12:22Z</time>
      </trkpt>
      <trkpt lat="45.86013" lon="3.048">
        <ele>491</ele>
        <time>2021-08-15T06:12:23Z</time>
      </trkpt>
      <trkpt lat="45.86014" lon="3.04803">
        <ele>491</ele>
        <time>2021-08-15T06:12:24Z</time>
      </trkpt>
      <trkpt lat="45.86015" lon="3.04804">
        <ele>491</ele>
        <time>2021-08-15T06:12:25Z</time>
      </trkpt>
      <trkpt lat="45.86016" lon="3.04807">
        <ele>491</ele>
        <time>2021-08-15T06:12:26Z</time>
      </trkpt>
      <trkpt lat="45.86017" lon="3.04809">
        <ele>491</ele>
        <time>2021-08-15T06:12:27Z</time>
      </trkpt>
      <trkpt lat="45.86018" lon="3.04811">
        <ele>491</ele>
        <time>2021-08-15T06:12:28Z</time>
      </trkpt>
      <trkpt lat="45.86018" lon="3.04812">
        <ele>491</ele>
        <time>2021-08-15T06:12:29Z</time>
      </trkpt>
      <trkpt lat="45.8602" lon="3.04814">
        <ele>491</ele>
        <time>2021-08-15T06:12:30Z</time>
      </trkpt>
      <trkpt lat="45.8602" lon="3.04816">
        <ele>491</ele>
        <time>2021-08-15T06:12:31Z</time>
      </trkpt>
      <trkpt lat="45.86021" lon="3.04818">
        <ele>491</ele>
        <time>2021-08-15T06:12:32Z</time>
      </trkpt>
      <trkpt lat="45.86021" lon="3.0482">
        <ele>491</ele>
        <time>2021-08-15T06:12:33Z</time>
      </trkpt>
      <trkpt lat="45.86022" lon="3.04822">
        <ele>491</ele>
        <time>2021-08-15T06:12:34Z</time>
      </trkpt>
      <trkpt lat="45.86023" lon="3.04824">
        <ele>491</ele>
        <time>2021-08-15T06:12:35Z</time>
      </trkpt>
      <trkpt lat="45.86023" lon="3.04826">
        <ele>491</ele>
        <time>2021-08-15T06:12:36Z</time>
      </trkpt>
      <trkpt lat="45.86025" lon="3.04828">
        <ele>491</ele>
        <time>2021-08-15T06:12:37Z</time>
      </trkpt>
      <trkpt lat="45.86026" lon="3.04829">
        <ele>491</ele>
        <time>2021-08-15T06:12:37Z</time>
      </trkpt>
      <trkpt lat="45.86027" lon="3.04831">
        <ele>491</ele>
        <time>2021-08-15T06:12:38Z</time>
      </trkpt>
      <trkpt lat="45.86028" lon="3.04832">
        <ele>491</ele>
        <time>2021-08-15T06:12:39Z</time>
      </trkpt>
      <trkpt lat="45.86029" lon="3.04834">
        <ele>491</ele>
        <time>2021-08-15T06:12:40Z</time>
      </trkpt>
      <trkpt lat="45.8603" lon="3.04836">
        <ele>491</ele>
        <time>2021-08-15T06:12:41Z</time>
      </trkpt>
      <trkpt lat="45.86031" lon="3.04838">
        <ele>491</ele>
        <time>2021-08-15T06:12:42Z</time>
      </trkpt>
      <trkpt lat="45.86032" lon="3.0484">
        <ele>491</ele>
        <time>2021-08-15T06:12:43Z</time>
      </trkpt>
      <trkpt lat="45.86033" lon="3.04842">
        <ele>491</ele>
        <time>2021-08-15T06:12:44Z</time>
      </trkpt>
      <trkpt lat="45.86035" lon="3.04844">
        <ele>491</ele>
        <time>2021-08-15T06:12:45Z</time>
      </trkpt>
      <trkpt lat="45.86036" lon="3.04847">
        <ele>491</ele>
        <time>2021-08-15T06:12:46Z</time>
      </trkpt>
      <trkpt lat="45.86037" lon="3.04849">
        <ele>491</ele>
        <time>2021-08-15T06:12:47Z</time>
      </trkpt>
      <trkpt lat="45.86038" lon="3.04852">
        <ele>491</ele>
        <time>2021-08-15T06:12:48Z</time>
      </trkpt>
      <trkpt lat="45.86039" lon="3.04854">
        <ele>491</ele>
        <time>2021-08-15T06:12:50Z</time>
      </trkpt>
      <trkpt lat="45.86045" lon="3.0486">
        <ele>491</ele>
        <time>2021-08-15T06:12:51Z</time>
      </trkpt>
      <trkpt lat="45.86046" lon="3.04861">
        <ele>491</ele>
        <time>2021-08-15T06:12:52Z</time>
      </trkpt>
      <trkpt lat="45.86047" lon="3.04861">
        <ele>491</ele>
        <time>2021-08-15T06:12:53Z</time>
      </trkpt>
      <trkpt lat="45.86047" lon="3.04862">
        <ele>491</ele>
        <time>2021-08-15T06:12:54Z</time>
      </trkpt>
      <trkpt lat="45.86049" lon="3.04863">
        <ele>491</ele>
        <time>2021-08-15T06:12:55Z</time>
      </trkpt>
      <trkpt lat="45.8605" lon="3.04864">
        <ele>491</ele>
        <time>2021-08-15T06:12:56Z</time>
      </trkpt>
      <trkpt lat="45.86052" lon="3.04866">
        <ele>491</ele>
        <time>2021-08-15T06:12:57Z</time>
      </trkpt>
      <trkpt lat="45.86053" lon="3.04867">
        <ele>491</ele>
        <time>2021-08-15T06:12:58Z</time>
      </trkpt>
      <trkpt lat="45.86054" lon="3.04869">
        <ele>491</ele>
        <time>2021-08-15T06:12:59Z</time>
      </trkpt>
      <trkpt lat="45.86055" lon="3.04871">
        <ele>491</ele>
        <time>2021-08-15T06:13:00Z</time>
      </trkpt>
      <trkpt lat="45.86056" lon="3.04873">
        <ele>491</ele>
        <time>2021-08-15T06:13:01Z</time>
      </trkpt>
      <trkpt lat="45.86058" lon="3.04875">
        <ele>491</ele>
        <time>2021-08-15T06:13:02Z</time>
      </trkpt>
      <trkpt lat="45.86059" lon="3.04876">
        <ele>491</ele>
        <time>2021-08-15T06:13:03Z</time>
      </trkpt>
      <trkpt lat="45.8606" lon="3.04878">
        <ele>491</ele>
        <time>2021-08-15T06:13:04Z</time>
      </trkpt>
      <trkpt lat="45.86062" lon="3.0488">
        <ele>491</ele>
        <time>2021-08-15T06:13:05Z</time>
      </trkpt>
      <trkpt lat="45.86062" lon="3.04882">
        <ele>491</ele>
        <time>2021-08-15T06:13:06Z</time>
      </trkpt>
      <trkpt lat="45.86063" lon="3.04885">
        <ele>491</ele>
        <time>2021-08-15T06:13:07Z</time>
      </trkpt>
      <trkpt lat="45.86065" lon="3.04887">
        <ele>491</ele>
        <time>2021-08-15T06:13:08Z</time>
      </trkpt>
      <trkpt lat="45.86066" lon="3.0489">
        <ele>491</ele>
        <time>2021-08-15T06:13:09Z</time>
      </trkpt>
      <trkpt lat="45.86067" lon="3.04892">
        <ele>491</ele>
        <time>2021-08-15T06:13:10Z</time>
      </trkpt>
      <trkpt lat="45.86068" lon="3.04894">
        <ele>491</ele>
        <time>2021-08-15T06:13:11Z</time>
      </trkpt>
      <trkpt lat="45.8607" lon="3.04895">
        <ele>491</ele>
        <time>2021-08-15T06:13:12Z</time>
      </trkpt>
      <trkpt lat="45.86071" lon="3.04897">
        <ele>491</ele>
        <time>2021-08-15T06:13:13Z</time>
      </trkpt>
      <trkpt lat="45.86073" lon="3.04899">
        <ele>491</ele>
        <time>2021-08-15T06:13:14Z</time>
      </trkpt>
      <trkpt lat="45.86074" lon="3.049">
        <ele>491</ele>
        <time>2021-08-15T06:13:15Z</time>
      </trkpt>
      <trkpt lat="45.86075" lon="3.04902">
        <ele>491</ele>
        <time>2021-08-15T06:13:16Z</time>
      </trkpt>
      <trkpt lat="45.86076" lon="3.04904">
        <ele>491</ele>
        <time>2021-08-15T06:13:17Z</time>
      </trkpt>
      <trkpt lat="45.86077" lon="3.04905">
        <ele>491</ele>
        <time>2021-08-15T06:13:18Z</time>
      </trkpt>
      <trkpt lat="45.86079" lon="3.04907">
        <ele>491</ele>
        <time>2021-08-15T06:13:19Z</time>
      </trkpt>
      <trkpt lat="45.8608" lon="3.04908">
        <ele>491</ele>
        <time>2021-08-15T06:13:20Z</time>
      </trkpt>
      <trkpt lat="45.86081" lon="3.04909">
        <ele>491</ele>
        <time>2021-08-15T06:13:21Z</time>
      </trkpt>
      <trkpt lat="45.86083" lon="3.04911">
        <ele>491</ele>
        <time>2021-08-15T06:13:22Z</time>
      </trkpt>
      <trkpt lat="45.86083" lon="3.04912">
        <ele>491</ele>
        <time>2021-08-15T06:13:23Z</time>
      </trkpt>
      <trkpt lat="45.86085" lon="3.04913">
        <ele>491</ele>
        <time>2021-08-15T06:13:24Z</time>
      </trkpt>
      <trkpt lat="45.86086" lon="3.04915">
        <ele>491</ele>
        <time>2021-08-15T06:13:25Z</time>
      </trkpt>
      <trkpt lat="45.86086" lon="3.04917">
        <ele>491</ele>
        <time>2021-08-15T06:13:26Z</time>
      </trkpt>
      <trkpt lat="45.86087" lon="3.04919">
        <ele>491</ele>
        <time>2021-08-15T06:13:27Z</time>
      </trkpt>
      <trkpt lat="45.86089" lon="3.0492">
        <ele>491</ele>
        <time>2021-08-15T06:13:28Z</time>
      </trkpt>
      <trkpt lat="45.86089" lon="3.04922">
        <ele>491</ele>
        <time>2021-08-15T06:13:29Z</time>
      </trkpt>
      <trkpt lat="45.86091" lon="3.04924">
        <ele>491</ele>
        <time>2021-08-15T06:13:30Z</time>
      </trkpt>
      <trkpt lat="45.86092" lon="3.04925">
        <ele>491</ele>
        <time>2021-08-15T06:13:31Z</time>
      </trkpt>
      <trkpt lat="45.86092" lon="3.04927">
        <ele>491</ele>
        <time>2021-08-15T06:13:32Z</time>
      </trkpt>
      <trkpt lat="45.86094" lon="3.04929">
        <ele>491</ele>
        <time>2021-08-15T06:13:33Z</time>
      </trkpt>
      <trkpt lat="45.86095" lon="3.04931">
        <ele>491</ele>
        <time>2021-08-15T06:13:34Z</time>
      </trkpt>
      <trkpt lat="45.86095" lon="3.04933">
        <ele>491</ele>
        <time>2021-08-15T06:13:35Z</time>
      </trkpt>
      <trkpt lat="45.86097" lon="3.04935">
        <ele>491</ele>
        <time>2021-08-15T06:13:36Z</time>
      </trkpt>
      <trkpt lat="45.86098" lon="3.04937">
        <ele>491</ele>
        <time>2021-08-15T06:13:37Z</time>
      </trkpt>
      <trkpt lat="45.86099" lon="3.04939">
        <ele>491</ele>
        <time>2021-08-15T06:13:38Z</time>
      </trkpt>
      <trkpt lat="45.861" lon="3.04941">
        <ele>491</ele>
        <time>2021-08-15T06:13:39Z</time>
      </trkpt>
      <trkpt lat="45.86101" lon="3.04942">
        <ele>491</ele>
        <time>2021-08-15T06:13:40Z</time>
      </trkpt>
      <trkpt lat="45.86102" lon="3.04943">
        <ele>491</ele>
        <time>2021-08-15T06:13:41Z</time>
      </trkpt>
      <trkpt lat="45.86104" lon="3.04945">
        <ele>491</ele>
        <time>2021-08-15T06:13:42Z</time>
      </trkpt>
      <trkpt lat="45.86105" lon="3.04946">
        <ele>491</ele>
        <time>2021-08-15T06:13:43Z</time>
      </trkpt>
      <trkpt lat="45.86107" lon="3.04947">
        <ele>491</ele>
        <time>2021-08-15T06:13:44Z</time>
      </trkpt>
      <trkpt lat="45.86108" lon="3.04949">
        <ele>491</ele>
        <time>2021-08-15T06:13:45Z</time>
      </trkpt>
      <trkpt lat="45.86109" lon="3.0495">
        <ele>491</ele>
        <time>2021-08-15T06:13:46Z</time>
      </trkpt>
      <trkpt lat="45.8611" lon="3.04951">
        <ele>491</ele>
        <time>2021-08-15T06:13:47Z</time>
      </trkpt>
      <trkpt lat="45.86112" lon="3.04953">
        <ele>491</ele>
        <time>2021-08-15T06:13:48Z</time>
      </trkpt>
      <trkpt lat="45.86113" lon="3.04956">
        <ele>491</ele>
        <time>2021-08-15T06:13:49Z</time>
      </trkpt>
      <trkpt lat="45.86113" lon="3.04959">
        <ele>491</ele>
        <time>2021-08-15T06:13:51Z</time>
      </trkpt>
      <trkpt lat="45.86117" lon="3.04968">
        <ele>491</ele>
        <time>2021-08-15T06:13:52Z</time>
      </trkpt>
      <trkpt lat="45.86117" lon="3.04969">
        <ele>491</ele>
        <time>2021-08-15T06:13:53Z</time>
      </trkpt>
      <trkpt lat="45.86118" lon="3.04969">
        <ele>491</ele>
        <time>2021-08-15T06:13:54Z</time>
      </trkpt>
      <trkpt lat="45.86119" lon="3.04971">
        <ele>491</ele>
        <time>2021-08-15T06:13:55Z</time>
      </trkpt>
      <trkpt lat="45.8612" lon="3.04972">
        <ele>491</ele>
        <time>2021-08-15T06:13:56Z</time>
      </trkpt>
      <trkpt lat="45.8612" lon="3.04974">
        <ele>491</ele>
        <time>2021-08-15T06:13:57Z</time>
      </trkpt>
      <trkpt lat="45.86121" lon="3.04976">
        <ele>491</ele>
        <time>2021-08-15T06:13:58Z</time>
      </trkpt>
      <trkpt lat="45.86123" lon="3.04978">
        <ele>491</ele>
        <time>2021-08-15T06:13:59Z</time>
      </trkpt>
      <trkpt lat="45.86124" lon="3.0498">
        <ele>491</ele>
        <time>2021-08-15T06:14:00Z</time>
      </trkpt>
      <trkpt lat="45.86125" lon="3.04982">
        <ele>491</ele>
        <time>2021-08-15T06:14:01Z</time>
      </trkpt>
      <trkpt lat="45.86126" lon="3.04984">
        <ele>491</ele>
        <time>2021-08-15T06:14:02Z</time>
      </trkpt>
      <trkpt lat="45.86127" lon="3.04987">
        <ele>491</ele>
        <time>2021-08-15T06:14:03Z</time>
      </trkpt>
      <trkpt lat="45.86128" lon="3.04989">
        <ele>491</ele>
        <time>2021-08-15T06:14:04Z</time>
      </trkpt>
      <trkpt lat="45.86129" lon="3.04991">
        <ele>491</ele>
        <time>2021-08-15T06:14:05Z</time>
      </trkpt>
      <trkpt lat="45.86131" lon="3.04994">
        <ele>491</ele>
        <time>2021-08-15T06:14:06Z</time>
      </trkpt>
      <trkpt lat="45.86131" lon="3.04996">
        <ele>491</ele>
        <time>2021-08-15T06:14:07Z</time>
      </trkpt>
      <trkpt lat="45.86132" lon="3.04997">
        <ele>491</ele>
        <time>2021-08-15T06:14:08Z</time>
      </trkpt>
      <trkpt lat="45.86134" lon="3.04999">
        <ele>491</ele>
        <time>2021-08-15T06:14:09Z</time>
      </trkpt>
      <trkpt lat="45.86134" lon="3.05001">
        <ele>491</ele>
        <time>2021-08-15T06:14:10Z</time>
      </trkpt>
      <trkpt lat="45.86136" lon="3.05003">
        <ele>491</ele>
        <time>2021-08-15T06:14:11Z</time>
      </trkpt>
      <trkpt lat="45.86137" lon="3.05005">
        <ele>491</ele>
        <time>2021-08-15T06:14:12Z</time>
      </trkpt>
      <trkpt lat="45.86138" lon="3.05007">
        <ele>491</ele>
        <time>2021-08-15T06:14:13Z</time>
      </trkpt>
      <trkpt lat="45.86139" lon="3.05009">
        <ele>491</ele>
        <time>2021-08-15T06:14:14Z</time>
      </trkpt>
      <trkpt lat="45.8614" lon="3.05011">
        <ele>491</ele>
        <time>2021-08-15T06:14:15Z</time>
      </trkpt>
      <trkpt lat="45.8614" lon="3.05013">
        <ele>491</ele>
        <time>2021-08-15T06:14:16Z</time>
      </trkpt>
      <trkpt lat="45.86141" lon="3.05015">
        <ele>491</ele>
        <time>2021-08-15T06:14:17Z</time>
      </trkpt>
      <trkpt lat="45.86142" lon="3.05016">
        <ele>491</ele>
        <time>2021-08-15T06:14:18Z</time>
      </trkpt>
      <trkpt lat="45.86143" lon="3.05018">
        <ele>491</ele>
        <time>2021-08-15T06:14:19Z</time>
      </trkpt>
      <trkpt lat="45.86143" lon="3.0502">
        <ele>491</ele>
        <time>2021-08-15T06:14:20Z</time>
      </trkpt>
      <trkpt lat="45.86144" lon="3.05021">
        <ele>491</ele>
        <time>2021-08-15T06:14:21Z</time>
      </trkpt>
      <trkpt lat="45.86145" lon="3.05023">
        <ele>491</ele>
        <time>2021-08-15T06:14:22Z</time>
      </trkpt>
      <trkpt lat="45.86145" lon="3.05025">
        <ele>491</ele>
        <time>2021-08-15T06:14:23Z</time>
      </trkpt>
      <trkpt lat="45.86146" lon="3.05027">
        <ele>491</ele>
        <time>2021-08-15T06:14:24Z</time>
      </trkpt>
      <trkpt lat="45.86147" lon="3.05029">
        <ele>491</ele>
        <time>2021-08-15T06:14:25Z</time>
      </trkpt>
      <trkpt lat="45.86148" lon="3.05031">
        <ele>491</ele>
        <time>2021-08-15T06:14:26Z</time>
      </trkpt>
      <trkpt lat="45.86149" lon="3.05033">
        <ele>491</ele>
        <time>2021-08-15T06:14:27Z</time>
      </trkpt>
      <trkpt lat="45.86149" lon="3.05035">
        <ele>491</ele>
        <time>2021-08-15T06:14:28Z</time>
      </trkpt>
      <trkpt lat="45.8615" lon="3.05036">
        <ele>491</ele>
        <time>2021-08-15T06:14:29Z</time>
      </trkpt>
      <trkpt lat="45.86151" lon="3.05038">
        <ele>491</ele>
        <time>2021-08-15T06:14:30Z</time>
      </trkpt>
      <trkpt lat="45.86152" lon="3.05041">
        <ele>491</ele>
        <time>2021-08-15T06:14:31Z</time>
      </trkpt>
      <trkpt lat="45.86152" lon="3.05043">
        <ele>491</ele>
        <time>2021-08-15T06:14:32Z</time>
      </trkpt>
      <trkpt lat="45.86153" lon="3.05044">
        <ele>491</ele>
        <time>2021-08-15T06:14:33Z</time>
      </trkpt>
      <trkpt lat="45.86154" lon="3.05046">
        <ele>491</ele>
        <time>2021-08-15T06:14:34Z</time>
      </trkpt>
      <trkpt lat="45.86155" lon="3.05047">
        <ele>491</ele>
        <time>2021-08-15T06:14:35Z</time>
      </trkpt>
      <trkpt lat="45.86156" lon="3.05049">
        <ele>491</ele>
        <time>2021-08-15T06:14:36Z</time>
      </trkpt>
      <trkpt lat="45.86157" lon="3.05051">
        <ele>491</ele>
        <time>2021-08-15T06:14:37Z</time>
      </trkpt>
      <trkpt lat="45.86158" lon="3.05052">
        <ele>491</ele>
        <time>2021-08-15T06:14:38Z</time>
      </trkpt>
      <trkpt lat="45.86159" lon="3.05054">
        <ele>491</ele>
        <time>2021-08-15T06:14:39Z</time>
      </trkpt>
      <trkpt lat="45.8616" lon="3.05055">
        <ele>491</ele>
        <time>2021-08-15T06:14:40Z</time>
      </trkpt>
      <trkpt lat="45.86161" lon="3.05057">
        <ele>491</ele>
        <time>2021-08-15T06:14:41Z</time>
      </trkpt>
      <trkpt lat="45.86162" lon="3.05058">
        <ele>491</ele>
        <time>2021-08-15T06:14:42Z</time>
      </trkpt>
      <trkpt lat="45.86164" lon="3.05059">
        <ele>491</ele>
        <time>2021-08-15T06:14:43Z</time>
      </trkpt>
      <trkpt lat="45.86165" lon="3.05061">
        <ele>491</ele>
        <time>2021-08-15T06:14:44Z</time>
      </trkpt>
      <trkpt lat="45.86167" lon="3.05062">
        <ele>491</ele>
        <time>2021-08-15T06:14:45Z</time>
      </trkpt>
      <trkpt lat="45.86168" lon="3.05063">
        <ele>491</ele>
        <time>2021-08-15T06:14:46Z</time>
      </trkpt>
      <trkpt lat="45.86169" lon="3.05065">
        <ele>491</ele>
        <time>2021-08-15T06:14:47Z</time>
      </trkpt>
      <trkpt lat="45.8617" lon="3.05067">
        <ele>491</ele>
        <time>2021-08-15T06:14:48Z</time>
      </trkpt>
      <trkpt lat="45.86171" lon="3.0507">
        <ele>491</ele>
        <time>2021-08-15T06:14:50Z</time>
      </trkpt>
      <trkpt lat="45.86174" lon="3.05078">
        <ele>491</ele>
        <time>2021-08-15T06:14:51Z</time>
      </trkpt>
      <trkpt lat="45.86174" lon="3.05078">
        <ele>491</ele>
        <time>2021-08-15T06:14:52Z</time>
      </trkpt>
      <trkpt lat="45.86174" lon="3.05079">
        <ele>491</ele>
        <time>2021-08-15T06:14:53Z</time>
      </trkpt>
      <trkpt lat="45.86175" lon="3.05081">
        <ele>491</ele>
        <time>2021-08-15T06:14:54Z</time>
      </trkpt>
      <trkpt lat="45.86176" lon="3.05082">
        <ele>491</ele>
        <time>2021-08-15T06:14:55Z</time>
      </trkpt>
      <trkpt lat="45.86177" lon="3.05083">
        <ele>491</ele>
        <time>2021-08-15T06:14:56Z</time>
      </trkpt>
      <trkpt lat="45.86177" lon="3.05085">
        <ele>491</ele>
        <time>2021-08-15T06:14:57Z</time>
      </trkpt>
      <trkpt lat="45.86177" lon="3.05086">
        <ele>491</ele>
        <time>2021-08-15T06:14:58Z</time>
      </trkpt>
      <trkpt lat="45.86179" lon="3.05087">
        <ele>491</ele>
        <time>2021-08-15T06:14:59Z</time>
      </trkpt>
      <trkpt lat="45.8618" lon="3.05088">
        <ele>491</ele>
        <time>2021-08-15T06:15:00Z</time>
      </trkpt>
      <trkpt lat="45.86181" lon="3.05089">
        <ele>491</ele>
        <time>2021-08-15T06:15:01Z</time>
      </trkpt>
      <trkpt lat="45.86182" lon="3.0509">
        <ele>491</ele>
        <time>2021-08-15T06:15:02Z</time>
      </trkpt>
      <trkpt lat="45.86183" lon="3.05091">
        <ele>491</ele>
        <time>2021-08-15T06:15:03Z</time>
      </trkpt>
      <trkpt lat="45.86185" lon="3.05092">
        <ele>491</ele>
        <time>2021-08-15T06:15:04Z</time>
      </trkpt>
      <trkpt lat="45.86186" lon="3.05092">
        <ele>491</ele>
        <time>2021-08-15T06:15:05Z</time>
      </trkpt>
      <trkpt lat="45.86187" lon="3.05093">
        <ele>491</ele>
        <time>2021-08-15T06:15:06Z</time>
      </trkpt>
      <trkpt lat="45.86189" lon="3.05094">
        <ele>491</ele>
        <time>2021-08-15T06:15:07Z</time>
      </trkpt>
      <trkpt lat="45.8619" lon="3.05094">
        <ele>491</ele>
        <time>2021-08-15T06:15:08Z</time>
      </trkpt>
      <trkpt lat="45.86192" lon="3.05095">
        <ele>491</ele>
        <time>2021-08-15T06:15:09Z</time>
      </trkpt>
      <trkpt lat="45.86195" lon="3.05095">
        <ele>491</ele>
        <time>2021-08-15T06:15:10Z</time>
      </trkpt>
      <trkpt lat="45.86197" lon="3.05095">
        <ele>491</ele>
        <time>2021-08-15T06:15:11Z</time>
      </trkpt>
      <trkpt lat="45.86198" lon="3.05095">
        <ele>491</ele>
        <time>2021-08-15T06:15:12Z</time>
      </trkpt>
      <trkpt lat="45.862" lon="3.05095">
        <ele>491</ele>
        <time>2021-08-15T06:15:13Z</time>
      </trkpt>
      <trkpt lat="45.86202" lon="3.05095">
        <ele>491</ele>
        <time>2021-08-15T06:15:14Z</time>
      </trkpt>
      <trkpt lat="45.86204" lon="3.05095">
        <ele>491</ele>
        <time>2021-08-15T06:15:15Z</time>
      </trkpt>
      <trkpt lat="45.86205" lon="3.05096">
        <ele>491</ele>
        <time>2021-08-15T06:15:16Z</time>
      </trkpt>
      <trkpt lat="45.86207" lon="3.05096">
        <ele>491</ele>
        <time>2021-08-15T06:15:17Z</time>
      </trkpt>
      <trkpt lat="45.86209" lon="3.05096">
        <ele>491</ele>
        <time>2021-08-15T06:15:18Z</time>
      </trkpt>
      <trkpt lat="45.86211" lon="3.05097">
        <ele>491</ele>
        <time>2021-08-15T06:15:19Z</time>
      </trkpt>
      <trkpt lat="45.86213" lon="3.05098">
        <ele>491</ele>
        <time>2021-08-15T06:15:20Z</time>
      </trkpt>
      <trkpt lat="45.86214" lon="3.05098">
        <ele>491</ele>
        <time>2021-08-15T06:15:21Z</time>
      </trkpt>
      <trkpt lat="45.86216" lon="3.05099">
        <ele>491</ele>
        <time>2021-08-15T06:15:22Z</time>
      </trkpt>
      <trkpt lat="45.86218" lon="3.051">
        <ele>491</ele>
        <time>2021-08-15T06:15:23Z</time>
      </trkpt>
      <trkpt lat="45.86219" lon="3.051">
        <ele>491</ele>
        <time>2021-08-15T06:15:24Z</time>
      </trkpt>
      <trkpt lat="45.86221" lon="3.051">
        <ele>491</ele>
        <time>2021-08-15T06:15:25Z</time>
      </trkpt>
      <trkpt lat="45.86222" lon="3.051">
        <ele>491</ele>
        <time>2021-08-15T06:15:26Z</time>
      </trkpt>
      <trkpt lat="45.86224" lon="3.051">
        <ele>491</ele>
        <time>2021-08-15T06:15:27Z</time>
      </trkpt>
      <trkpt lat="45.86225" lon="3.051">
        <ele>491</ele>
        <time>2021-08-15T06:15:28Z</time>
      </trkpt>
      <trkpt lat="45.86227" lon="3.051">
        <ele>491</ele>
        <time>2021-08-15T06:15:29Z</time>
      </trkpt>
      <trkpt lat="45.86228" lon="3.051">
        <ele>491</ele>
        <time>2021-08-15T06:15:30Z</time>
      </trkpt>
      <trkpt lat="45.8623" lon="3.051">
        <ele>491</ele>
        <time>2021-08-15T06:15:31Z</time>
      </trkpt>
      <trkpt lat="45.86231" lon="3.05099">
        <ele>491</ele>
        <time>2021-08-15T06:15:32Z</time>
      </trkpt>
      <trkpt lat="45.86233" lon="3.05099">
        <ele>491</ele>
        <time>2021-08-15T06:15:33Z</time>
      </trkpt>
      <trkpt lat="45.86234" lon="3.05099">
        <ele>491</ele>
        <time>2021-08-15T06:15:34Z</time>
      </trkpt>
      <trkpt lat="45.86235" lon="3.05098">
        <ele>491</ele>
        <time>2021-08-15T06:15:35Z</time>
      </trkpt>
      <trkpt lat="45.86237" lon="3.05098">
        <ele>491</ele>
        <time>2021-08-15T06:15:36Z</time>
      </trkpt>
      <trkpt lat="45.86239" lon="3.05098">
        <ele>491</ele>
        <time>2021-08-15T06:15:37Z</time>
      </trkpt>
      <trkpt lat="45.8624" lon="3.05098">
        <ele>491</ele>
        <time>2021-08-15T06:15:38Z</time>
      </trkpt>
      <trkpt lat="45.86241" lon="3.05097">
        <ele>491</ele>
        <time>2021-08-15T06:15:39Z</time>
      </trkpt>
      <trkpt lat="45.86243" lon="3.05097">
        <ele>491</ele>
        <time>2021-08-15T06:15:40Z</time>
      </trkpt>
      <trkpt lat="45.86244" lon="3.05097">
        <ele>491</ele>
        <time>2021-08-15T06:15:41Z</time>
      </trkpt>
      <trkpt lat="45.86245" lon="3.05097">
        <ele>491</ele>
        <time>2021-08-15T06:15:42Z</time>
      </trkpt>
      <trkpt lat="45.86247" lon="3.05097">
        <ele>491</ele>
        <time>2021-08-15T06:15:43Z</time>
      </trkpt>
      <trkpt lat="45.86248" lon="3.05098">
        <ele>491</ele>
        <time>2021-08-15T06:15:44Z</time>
      </trkpt>
      <trkpt lat="45.8625" lon="3.05098">
        <ele>491</ele>
        <time>2021-08-15T06:15:45Z</time>
      </trkpt>
      <trkpt lat="45.86252" lon="3.05098">
        <ele>491</ele>
        <time>2021-08-15T06:15:46Z</time>
      </trkpt>
      <trkpt lat="45.86253" lon="3.05098">
        <ele>491</ele>
        <time>2021-08-15T06:15:47Z</time>
      </trkpt>
      <trkpt lat="45.86255" lon="3.05098">
        <ele>491</ele>
        <time>2021-08-15T06:15:49Z</time>
      </trkpt>
      <trkpt lat="45.86261" lon="3.05099">
        <ele>491</ele>
        <time>2021-08-15T06:15:51Z</time>
      </trkpt>
      <trkpt lat="45.86265" lon="3.05099">
        <ele>491</ele>
        <time>2021-08-15T06:15:52Z</time>
      </trkpt>
      <trkpt lat="45.86266" lon="3.05099">
        <ele>491</ele>
        <time>2021-08-15T06:15:53Z</time>
      </trkpt>
      <trkpt lat="45.86266" lon="3.05099">
        <ele>491</ele>
        <time>2021-08-15T06:15:54Z</time>
      </trkpt>
      <trkpt lat="45.86267" lon="3.05099">
        <ele>491</ele>
        <time>2021-08-15T06:15:55Z</time>
      </trkpt>
      <trkpt lat="45.86269" lon="3.051">
        <ele>491</ele>
        <time>2021-08-15T06:15:56Z</time>
      </trkpt>
      <trkpt lat="45.8627" lon="3.051">
        <ele>491</ele>
        <time>2021-08-15T06:15:57Z</time>
      </trkpt>
      <trkpt lat="45.86272" lon="3.051">
        <ele>491</ele>
        <time>2021-08-15T06:15:58Z</time>
      </trkpt>
      <trkpt lat="45.86273" lon="3.05101">
        <ele>491</ele>
        <time>2021-08-15T06:15:59Z</time>
      </trkpt>
      <trkpt lat="45.86275" lon="3.05102">
        <ele>491</ele>
        <time>2021-08-15T06:16:00Z</time>
      </trkpt>
      <trkpt lat="45.86276" lon="3.05104">
        <ele>491</ele>
        <time>2021-08-15T06:16:01Z</time>
      </trkpt>
      <trkpt lat="45.86278" lon="3.05105">
        <ele>491</ele>
        <time>2021-08-15T06:16:02Z</time>
      </trkpt>
      <trkpt lat="45.86279" lon="3.05107">
        <ele>491</ele>
        <time>2021-08-15T06:16:03Z</time>
      </trkpt>
      <trkpt lat="45.86281" lon="3.05108">
        <ele>491</ele>
        <time>2021-08-15T06:16:04Z</time>
      </trkpt>
      <trkpt lat="45.86282" lon="3.05109">
        <ele>491</ele>
        <time>2021-08-15T06:16:05Z</time>
      </trkpt>
      <trkpt lat="45.86284" lon="3.0511">
        <ele>491</ele>
        <time>2021-08-15T06:16:06Z</time>
      </trkpt>
      <trkpt lat="45.86285" lon="3.05111">
        <ele>491</ele>
        <time>2021-08-15T06:16:07Z</time>
      </trkpt>
      <trkpt lat="45.86287" lon="3.05112">
        <ele>491</ele>
        <time>2021-08-15T06:16:08Z</time>
      </trkpt>
      <trkpt lat="45.86288" lon="3.05113">
        <ele>491</ele>
        <time>2021-08-15T06:16:09Z</time>
      </trkpt>
      <trkpt lat="45.8629" lon="3.05114">
        <ele>491</ele>
        <time>2021-08-15T06:16:10Z</time>
      </trkpt>
      <trkpt lat="45.86291" lon="3.05115">
        <ele>491</ele>
        <time>2021-08-15T06:16:11Z</time>
      </trkpt>
      <trkpt lat="45.86292" lon="3.05116">
        <ele>491</ele>
        <time>2021-08-15T06:16:12Z</time>
      </trkpt>
      <trkpt lat="45.86294" lon="3.05117">
        <ele>491</ele>
        <time>2021-08-15T06:16:13Z</time>
      </trkpt>
      <trkpt lat="45.86295" lon="3.05118">
        <ele>491</ele>
        <time>2021-08-15T06:16:14Z</time>
      </trkpt>
      <trkpt lat="45.86296" lon="3.05119">
        <ele>491</ele>
        <time>2021-08-15T06:16:15Z</time>
      </trkpt>
      <trkpt lat="45.86297" lon="3.0512">
        <ele>491</ele>
        <time>2021-08-15T06:16:16Z</time>
      </trkpt>
      <trkpt lat="45.86298" lon="3.05121">
        <ele>491</ele>
        <time>2021-08-15T06:16:17Z</time>
      </trkpt>
      <trkpt lat="45.863" lon="3.05122">
        <ele>491</ele>
        <time>2021-08-15T06:16:18Z</time>
      </trkpt>
      <trkpt lat="45.863" lon="3.05124">
        <ele>491</ele>
        <time>2021-08-15T06:16:19Z</time>
      </trkpt>
      <trkpt lat="45.86301" lon="3.05125">
        <ele>491</ele>
        <time>2021-08-15T06:16:20Z</time>
      </trkpt>
      <trkpt lat="45.86301" lon="3.05127">
        <ele>491</ele>
        <time>2021-08-15T06:16:21Z</time>
      </trkpt>
      <trkpt lat="45.86303" lon="3.05128">
        <ele>491</ele>
        <time>2021-08-15T06:16:22Z</time>
      </trkpt>
      <trkpt lat="45.86303" lon="3.05129">
        <ele>491</ele>
        <time>2021-08-15T06:16:23Z</time>
      </trkpt>
      <trkpt lat="45.86304" lon="3.05131">
        <ele>491</ele>
        <time>2021-08-15T06:16:24Z</time>
      </trkpt>
      <trkpt lat="45.86305" lon="3.05132">
        <ele>491</ele>
        <time>2021-08-15T06:16:25Z</time>
      </trkpt>
      <trkpt lat="45.86306" lon="3.05133">
        <ele>491</ele>
        <time>2021-08-15T06:16:26Z</time>
      </trkpt>
      <trkpt lat="45.86308" lon="3.05134">
        <ele>491</ele>
        <time>2021-08-15T06:16:27Z</time>
      </trkpt>
      <trkpt lat="45.86309" lon="3.05135">
        <ele>491</ele>
        <time>2021-08-15T06:16:28Z</time>
      </trkpt>
      <trkpt lat="45.8631" lon="3.05135">
        <ele>491</ele>
        <time>2021-08-15T06:16:29Z</time>
      </trkpt>
      <trkpt lat="45.86311" lon="3.05136">
        <ele>491</ele>
        <time>2021-08-15T06:16:30Z</time>
      </trkpt>
      <trkpt lat="45.86313" lon="3.05136">
        <ele>491</ele>
        <time>2021-08-15T06:16:31Z</time>
      </trkpt>
      <trkpt lat="45.86314" lon="3.05137">
        <ele>491</ele>
        <time>2021-08-15T06:16:32Z</time>
      </trkpt>
      <trkpt lat="45.86315" lon="3.05138">
        <ele>491</ele>
        <time>2021-08-15T06:16:33Z</time>
      </trkpt>
      <trkpt lat="45.86316" lon="3.05139">
        <ele>491</ele>
        <time>2021-08-15T06:16:34Z</time>
      </trkpt>
      <trkpt lat="45.86317" lon="3.0514">
        <ele>491</ele>
        <time>2021-08-15T06:16:35Z</time>
      </trkpt>
      <trkpt lat="45.86318" lon="3.05141">
        <ele>491</ele>
        <time>2021-08-15T06:16:36Z</time>
      </trkpt>
      <trkpt lat="45.86319" lon="3.05142">
        <ele>491</ele>
        <time>2021-08-15T06:16:37Z</time>
      </trkpt>
      <trkpt lat="45.86321" lon="3.05143">
        <ele>491</ele>
        <time>2021-08-15T06:16:38Z</time>
      </trkpt>
      <trkpt lat="45.86322" lon="3.05144">
        <ele>491</ele>
        <time>2021-08-15T06:16:39Z</time>
      </trkpt>
      <trkpt lat="45.86324" lon="3.05145">
        <ele>491</ele>
        <time>2021-08-15T06:16:40Z</time>
      </trkpt>
      <trkpt lat="45.86325" lon="3.05145">
        <ele>491</ele>
        <time>2021-08-15T06:16:41Z</time>
      </trkpt>
      <trkpt lat="45.86327" lon="3.05145">
        <ele>491</ele>
        <time>2021-08-15T06:16:42Z</time>
      </trkpt>
      <trkpt lat="45.86328" lon="3.05146">
        <ele>491</ele>
        <time>2021-08-15T06:16:43Z</time>
      </trkpt>
      <trkpt lat="45.8633" lon="3.05146">
        <ele>491</ele>
        <time>2021-08-15T06:16:44Z</time>
      </trkpt>
      <trkpt lat="45.86331" lon="3.05146">
        <ele>491</ele>
        <time>2021-08-15T06:16:45Z</time>
      </trkpt>
      <trkpt lat="45.86333" lon="3.05146">
        <ele>491</ele>
        <time>2021-08-15T06:16:46Z</time>
      </trkpt>
      <trkpt lat="45.86334" lon="3.05147">
        <ele>491</ele>
        <time>2021-08-15T06:16:47Z</time>
      </trkpt>
      <trkpt lat="45.86335" lon="3.05147">
        <ele>491</ele>
        <time>2021-08-15T06:16:48Z</time>
      </trkpt>
      <trkpt lat="45.86336" lon="3.05147">
        <ele>491</ele>
        <time>2021-08-15T06:16:49Z</time>
      </trkpt>
      <trkpt lat="45.86337" lon="3.05148">
        <ele>491</ele>
        <time>2021-08-15T06:16:50Z</time>
      </trkpt>
      <trkpt lat="45.86339" lon="3.05148">
        <ele>491</ele>
        <time>2021-08-15T06:16:51Z</time>
      </trkpt>
      <trkpt lat="45.8634" lon="3.05149">
        <ele>491</ele>
        <time>2021-08-15T06:16:52Z</time>
      </trkpt>
      <trkpt lat="45.86341" lon="3.05149">
        <ele>491</ele>
        <time>2021-08-15T06:16:52Z</time>
      </trkpt>
      <trkpt lat="45.86342" lon="3.0515">
        <ele>491</ele>
        <time>2021-08-15T06:16:53Z</time>
      </trkpt>
      <trkpt lat="45.86343" lon="3.0515">
        <ele>491</ele>
        <time>2021-08-15T06:16:54Z</time>
      </trkpt>
      <trkpt lat="45.86345" lon="3.0515">
        <ele>491</ele>
        <time>2021-08-15T06:16:55Z</time>
      </trkpt>
      <trkpt lat="45.86346" lon="3.05151">
        <ele>491</ele>
        <time>2021-08-15T06:16:56Z</time>
      </trkpt>
      <trkpt lat="45.86348" lon="3.05151">
        <ele>491</ele>
        <time>2021-08-15T06:16:57Z</time>
      </trkpt>
      <trkpt lat="45.86349" lon="3.05152">
        <ele>491</ele>
        <time>2021-08-15T06:16:58Z</time>
      </trkpt>
      <trkpt lat="45.8635" lon="3.05153">
        <ele>491</ele>
        <time>2021-08-15T06:16:59Z</time>
      </trkpt>
      <trkpt lat="45.86351" lon="3.05154">
        <ele>491</ele>
        <time>2021-08-15T06:17:00Z</time>
      </trkpt>
      <trkpt lat="45.86353" lon="3.05155">
        <ele>491</ele>
        <time>2021-08-15T06:17:01Z</time>
      </trkpt>
      <trkpt lat="45.86353" lon="3.05157">
        <ele>491</ele>
        <time>2021-08-15T06:17:02Z</time>
      </trkpt>
      <trkpt lat="45.86355" lon="3.05157">
        <ele>491</ele>
        <time>2021-08-15T06:17:03Z</time>
      </trkpt>
      <trkpt lat="45.86356" lon="3.05158">
        <ele>491</ele>
        <time>2021-08-15T06:17:04Z</time>
      </trkpt>
      <trkpt lat="45.86357" lon="3.05159">
        <ele>491</ele>
        <time>2021-08-15T06:17:05Z</time>
      </trkpt>
      <trkpt lat="45.86358" lon="3.0516">
        <ele>491</ele>
        <time>2021-08-15T06:17:06Z</time>
      </trkpt>
      <trkpt lat="45.86359" lon="3.05161">
        <ele>491</ele>
        <time>2021-08-15T06:17:07Z</time>
      </trkpt>
      <trkpt lat="45.86361" lon="3.05161">
        <ele>491</ele>
        <time>2021-08-15T06:17:08Z</time>
      </trkpt>
      <trkpt lat="45.86362" lon="3.05162">
        <ele>491</ele>
        <time>2021-08-15T06:17:09Z</time>
      </trkpt>
      <trkpt lat="45.86363" lon="3.05163">
        <ele>491</ele>
        <time>2021-08-15T06:17:10Z</time>
      </trkpt>
      <trkpt lat="45.86366" lon="3.05164">
        <ele>491</ele>
        <time>2021-08-15T06:17:11Z</time>
      </trkpt>
      <trkpt lat="45.86367" lon="3.05166">
        <ele>491</ele>
        <time>2021-08-15T06:17:12Z</time>
      </trkpt>
      <trkpt lat="45.86369" lon="3.05167">
        <ele>491</ele>
        <time>2021-08-15T06:17:13Z</time>
      </trkpt>
      <trkpt lat="45.8637" lon="3.05168">
        <ele>491</ele>
        <time>2021-08-15T06:17:14Z</time>
      </trkpt>
      <trkpt lat="45.86372" lon="3.0517">
        <ele>491</ele>
        <time>2021-08-15T06:17:15Z</time>
      </trkpt>
      <trkpt lat="45.86373" lon="3.05171">
        <ele>491</ele>
        <time>2021-08-15T06:17:16Z</time>
      </trkpt>
      <trkpt lat="45.86375" lon="3.05172">
        <ele>491</ele>
        <time>2021-08-15T06:17:17Z</time>
      </trkpt>
      <trkpt lat="45.86377" lon="3.05173">
        <ele>491</ele>
        <time>2021-08-15T06:17:18Z</time>
      </trkpt>
      <trkpt lat="45.86378" lon="3.05174">
        <ele>491</ele>
        <time>2021-08-15T06:17:19Z</time>
      </trkpt>
      <trkpt lat="45.8638" lon="3.05175">
        <ele>491</ele>
        <time>2021-08-15T06:17:20Z</time>
      </trkpt>
      <trkpt lat="45.86381" lon="3.05176">
        <ele>491</ele>
        <time>2021-08-15T06:17:21Z</time>
      </trkpt>
      <trkpt lat="45.86383" lon="3.05176">
        <ele>491</ele>
        <time>2021-08-15T06:17:22Z</time>
      </trkpt>
      <trkpt lat="45.86385" lon="3.05177">
        <ele>491</ele>
        <time>2021-08-15T06:17:23Z</time>
      </trkpt>
      <trkpt lat="45.86388" lon="3.05178">
        <ele>491</ele>
        <time>2021-08-15T06:17:24Z</time>
      </trkpt>
      <trkpt lat="45.86389" lon="3.05179">
        <ele>491</ele>
        <time>2021-08-15T06:17:25Z</time>
      </trkpt>
      <trkpt lat="45.86391" lon="3.0518">
        <ele>491</ele>
        <time>2021-08-15T06:17:26Z</time>
      </trkpt>
      <trkpt lat="45.86392" lon="3.05182">
        <ele>491</ele>
        <time>2021-08-15T06:17:27Z</time>
      </trkpt>
      <trkpt lat="45.86394" lon="3.05183">
        <ele>491</ele>
        <time>2021-08-15T06:17:28Z</time>
      </trkpt>
      <trkpt lat="45.86395" lon="3.05184">
        <ele>491</ele>
        <time>2021-08-15T06:17:29Z</time>
      </trkpt>
      <trkpt lat="45.86396" lon="3.05186">
        <ele>491</ele>
        <time>2021-08-15T06:17:30Z</time>
      </trkpt>
      <trkpt lat="45.86397" lon="3.05188">
        <ele>491</ele>
        <time>2021-08-15T06:17:31Z</time>
      </trkpt>
      <trkpt lat="45.86398" lon="3.05189">
        <ele>491</ele>
        <time>2021-08-15T06:17:32Z</time>
      </trkpt>
      <trkpt lat="45.86399" lon="3.05191">
        <ele>491</ele>
        <time>2021-08-15T06:17:33Z</time>
      </trkpt>
      <trkpt lat="45.864" lon="3.05193">
        <ele>491</ele>
        <time>2021-08-15T06:17:34Z</time>
      </trkpt>
      <trkpt lat="45.86401" lon="3.05194">
        <ele>491</ele>
        <time>2021-08-15T06:17:35Z</time>
      </trkpt>
      <trkpt lat="45.86402" lon="3.05196">
        <ele>491</ele>
        <time>2021-08-15T06:17:36Z</time>
      </trkpt>
      <trkpt lat="45.86402" lon="3.05198">
        <ele>491</ele>
        <time>2021-08-15T06:17:37Z</time>
      </trkpt>
      <trkpt lat="45.86403" lon="3.052">
        <ele>491</ele>
        <time>2021-08-15T06:17:38Z</time>
      </trkpt>
      <trkpt lat="45.86404" lon="3.05202">
        <ele>491</ele>
        <time>2021-08-15T06:17:39Z</time>
      </trkpt>
      <trkpt lat="45.86406" lon="3.05203">
        <ele>491</ele>
        <time>2021-08-15T06:17:40Z</time>
      </trkpt>
      <trkpt lat="45.86406" lon="3.05205">
        <ele>491</ele>
        <time>2021-08-15T06:17:41Z</time>
      </trkpt>
      <trkpt lat="45.86408" lon="3.05206">
        <ele>491</ele>
        <time>2021-08-15T06:17:42Z</time>
      </trkpt>
      <trkpt lat="45.86409" lon="3.05207">
        <ele>491</ele>
        <time>2021-08-15T06:17:43Z</time>
      </trkpt>
      <trkpt lat="45.8641" lon="3.05209">
        <ele>491</ele>
        <time>2021-08-15T06:17:44Z</time>
      </trkpt>
      <trkpt lat="45.86411" lon="3.0521">
        <ele>491</ele>
        <time>2021-08-15T06:17:45Z</time>
      </trkpt>
      <trkpt lat="45.86412" lon="3.05211">
        <ele>491</ele>
        <time>2021-08-15T06:17:46Z</time>
      </trkpt>
      <trkpt lat="45.86414" lon="3.05212">
        <ele>491</ele>
        <time>2021-08-15T06:17:47Z</time>
      </trkpt>
      <trkpt lat="45.86415" lon="3.05213">
        <ele>491</ele>
        <time>2021-08-15T06:17:49Z</time>
      </trkpt>
      <trkpt lat="45.8642" lon="3.0522">
        <ele>491</ele>
        <time>2021-08-15T06:17:50Z</time>
      </trkpt>
      <trkpt lat="45.8642" lon="3.05221">
        <ele>491</ele>
        <time>2021-08-15T06:17:51Z</time>
      </trkpt>
      <trkpt lat="45.86421" lon="3.05221">
        <ele>491</ele>
        <time>2021-08-15T06:17:52Z</time>
      </trkpt>
      <trkpt lat="45.86421" lon="3.05222">
        <ele>491</ele>
        <time>2021-08-15T06:17:53Z</time>
      </trkpt>
      <trkpt lat="45.86422" lon="3.05223">
        <ele>491</ele>
        <time>2021-08-15T06:17:54Z</time>
      </trkpt>
      <trkpt lat="45.86423" lon="3.05224">
        <ele>491</ele>
        <time>2021-08-15T06:17:55Z</time>
      </trkpt>
      <trkpt lat="45.86424" lon="3.05225">
        <ele>491</ele>
        <time>2021-08-15T06:17:56Z</time>
      </trkpt>
      <trkpt lat="45.86425" lon="3.05225">
        <ele>491</ele>
        <time>2021-08-15T06:17:57Z</time>
      </trkpt>
      <trkpt lat="45.86426" lon="3.05226">
        <ele>491</ele>
        <time>2021-08-15T06:17:58Z</time>
      </trkpt>
      <trkpt lat="45.86427" lon="3.05227">
        <ele>491</ele>
        <time>2021-08-15T06:17:59Z</time>
      </trkpt>
      <trkpt lat="45.86428" lon="3.05228">
        <ele>491</ele>
        <time>2021-08-15T06:18:00Z</time>
      </trkpt>
      <trkpt lat="45.8643" lon="3.05229">
        <ele>491</ele>
        <time>2021-08-15T06:18:01Z</time>
      </trkpt>
      <trkpt lat="45.8643" lon="3.0523">
        <ele>491</ele>
        <time>2021-08-15T06:18:02Z</time>
      </trkpt>
      <trkpt lat="45.86432" lon="3.05231">
        <ele>491</ele>
        <time>2021-08-15T06:18:03Z</time>
      </trkpt>
      <trkpt lat="45.86433" lon="3.05232">
        <ele>491</ele>
        <time>2021-08-15T06:18:04Z</time>
      </trkpt>
      <trkpt lat="45.86434" lon="3.05233">
        <ele>491</ele>
        <time>2021-08-15T06:18:05Z</time>
      </trkpt>
      <trkpt lat="45.86436" lon="3.05234">
        <ele>491</ele>
        <time>2021-08-15T06:18:06Z</time>
      </trkpt>
      <trkpt lat="45.86437" lon="3.05235">
        <ele>491</ele>
        <time>2021-08-15T06:18:07Z</time>
      </trkpt>
      <trkpt lat="45.86438" lon="3.05236">
        <ele>491</ele>
        <time>2021-08-15T06:18:08Z</time>
      </trkpt>
      <trkpt lat="45.8644" lon="3.05237">
        <ele>491</ele>
        <time>2021-08-15T06:18:09Z</time>
      </trkpt>
      <trkpt lat="45.86441" lon="3.05237">
        <ele>491</ele>
        <time>2021-08-15T06:18:10Z</time>
      </trkpt>
      <trkpt lat="45.86443" lon="3.05238">
        <ele>491</ele>
        <time>2021-08-15T06:18:11Z</time>
      </trkpt>
      <trkpt lat="45.86445" lon="3.05239">
        <ele>491</ele>
        <time>2021-08-15T06:18:12Z</time>
      </trkpt>
      <trkpt lat="45.86445" lon="3.05239">
        <ele>491</ele>
        <time>2021-08-15T06:18:13Z</time>
      </trkpt>
      <trkpt lat="45.86447" lon="3.0524">
        <ele>491</ele>
        <time>2021-08-15T06:18:14Z</time>
      </trkpt>
      <trkpt lat="45.86448" lon="3.0524">
        <ele>491</ele>
        <time>2021-08-15T06:18:15Z</time>
      </trkpt>
      <trkpt lat="45.8645" lon="3.05241">
        <ele>491</ele>
        <time>2021-08-15T06:18:16Z</time>
      </trkpt>
      <trkpt lat="45.86451" lon="3.05241">
        <ele>491</ele>
        <time>2021-08-15T06:18:17Z</time>
      </trkpt>
      <trkpt lat="45.86453" lon="3.05242">
        <ele>491</ele>
        <time>2021-08-15T06:18:18Z</time>
      </trkpt>
      <trkpt lat="45.86454" lon="3.05242">
        <ele>491</ele>
        <time>2021-08-15T06:18:19Z</time>
      </trkpt>
      <trkpt lat="45.86456" lon="3.05242">
        <ele>491</ele>
        <time>2021-08-15T06:18:20Z</time>
      </trkpt>
      <trkpt lat="45.86457" lon="3.05243">
        <ele>491</ele>
        <time>2021-08-15T06:18:21Z</time>
      </trkpt>
      <trkpt lat="45.86459" lon="3.05244">
        <ele>491</ele>
        <time>2021-08-15T06:18:22Z</time>
      </trkpt>
      <trkpt lat="45.8646" lon="3.05245">
        <ele>491</ele>
        <time>2021-08-15T06:18:23Z</time>
      </trkpt>
      <trkpt lat="45.86462" lon="3.05246">
        <ele>491</ele>
        <time>2021-08-15T06:18:24Z</time>
      </trkpt>
      <trkpt lat="45.86463" lon="3.05247">
        <ele>491</ele>
        <time>2021-08-15T06:18:25Z</time>
      </trkpt>
      <trkpt lat="45.86464" lon="3.05248">
        <ele>491</ele>
        <time>2021-08-15T06:18:26Z</time>
      </trkpt>
      <trkpt lat="45.86466" lon="3.05249">
        <ele>491</ele>
        <time>2021-08-15T06:18:27Z</time>
      </trkpt>
      <trkpt lat="45.86467" lon="3.0525">
        <ele>491</ele>
        <time>2021-08-15T06:18:28Z</time>
      </trkpt>
      <trkpt lat="45.86468" lon="3.05252">
        <ele>491</ele>
        <time>2021-08-15T06:18:29Z</time>
      </trkpt>
      <trkpt lat="45.86469" lon="3.05253">
        <ele>491</ele>
        <time>2021-08-15T06:18:30Z</time>
      </trkpt>
      <trkpt lat="45.8647" lon="3.05255">
        <ele>491</ele>
        <time>2021-08-15T06:18:31Z</time>
      </trkpt>
      <trkpt lat="45.86471" lon="3.05256">
        <ele>491</ele>
        <time>2021-08-15T06:18:32Z</time>
      </trkpt>
      <trkpt lat="45.86472" lon="3.05257">
        <ele>491</ele>
        <time>2021-08-15T06:18:33Z</time>
      </trkpt>
      <trkpt lat="45.86473" lon="3.05258">
        <ele>491</ele>
        <time>2021-08-15T06:18:34Z</time>
      </trkpt>
      <trkpt lat="45.86474" lon="3.05258">
        <ele>491</ele>
        <time>2021-08-15T06:18:35Z</time>
      </trkpt>
      <trkpt lat="45.86475" lon="3.05259">
        <ele>491</ele>
        <time>2021-08-15T06:18:36Z</time>
      </trkpt>
      <trkpt lat="45.86476" lon="3.0526">
        <ele>491</ele>
        <time>2021-08-15T06:18:37Z</time>
      </trkpt>
      <trkpt lat="45.86477" lon="3.05262">
        <ele>491</ele>
        <time>2021-08-15T06:18:38Z</time>
      </trkpt>
      <trkpt lat="45.86478" lon="3.05263">
        <ele>491</ele>
        <time>2021-08-15T06:18:39Z</time>
      </trkpt>
      <trkpt lat="45.86478" lon="3.05264">
        <ele>491</ele>
        <time>2021-08-15T06:18:40Z</time>
      </trkpt>
      <trkpt lat="45.86479" lon="3.05265">
        <ele>491</ele>
        <time>2021-08-15T06:18:41Z</time>
      </trkpt>
      <trkpt lat="45.8648" lon="3.05267">
        <ele>491</ele>
        <time>2021-08-15T06:18:42Z</time>
      </trkpt>
      <trkpt lat="45.86481" lon="3.05269">
        <ele>491</ele>
        <time>2021-08-15T06:18:43Z</time>
      </trkpt>
      <trkpt lat="45.86481" lon="3.05271">
        <ele>491</ele>
        <time>2021-08-15T06:18:44Z</time>
      </trkpt>
      <trkpt lat="45.86482" lon="3.05273">
        <ele>491</ele>
        <time>2021-08-15T06:18:45Z</time>
      </trkpt>
      <trkpt lat="45.86483" lon="3.05274">
        <ele>491</ele>
        <time>2021-08-15T06:18:46Z</time>
      </trkpt>
      <trkpt lat="45.86484" lon="3.05276">
        <ele>491</ele>
        <time>2021-08-15T06:18:47Z</time>
      </trkpt>
      <trkpt lat="45.86485" lon="3.05278">
        <ele>491</ele>
        <time>2021-08-15T06:18:48Z</time>
      </trkpt>
      <trkpt lat="45.86486" lon="3.05279">
        <ele>491</ele>
        <time>2021-08-15T06:18:50Z</time>
      </trkpt>
      <trkpt lat="45.8649" lon="3.05285">
        <ele>491</ele>
        <time>2021-08-15T06:18:51Z</time>
      </trkpt>
      <trkpt lat="45.8649" lon="3.05285">
        <ele>491</ele>
        <time>2021-08-15T06:18:52Z</time>
      </trkpt>
      <trkpt lat="45.8649" lon="3.05286">
        <ele>491</ele>
        <time>2021-08-15T06:18:53Z</time>
      </trkpt>
      <trkpt lat="45.8649" lon="3.05286">
        <ele>491</ele>
        <time>2021-08-15T06:18:54Z</time>
      </trkpt>
      <trkpt lat="45.86491" lon="3.05287">
        <ele>491</ele>
        <time>2021-08-15T06:18:55Z</time>
      </trkpt>
      <trkpt lat="45.86492" lon="3.05288">
        <ele>491</ele>
        <time>2021-08-15T06:18:56Z</time>
      </trkpt>
      <trkpt lat="45.86493" lon="3.05288">
        <ele>491</ele>
        <time>2021-08-15T06:18:57Z</time>
      </trkpt>
      <trkpt lat="45.86493" lon="3.05289">
        <ele>491</ele>
        <time>2021-08-15T06:18:58Z</time>
      </trkpt>
      <trkpt lat="45.86494" lon="3.0529">
        <ele>491</ele>
        <time>2021-08-15T06:18:59Z</time>
      </trkpt>
      <trkpt lat="45.86496" lon="3.05292">
        <ele>491</ele>
        <time>2021-08-15T06:19:00Z</time>
      </trkpt>
      <trkpt lat="45.86496" lon="3.05293">
        <ele>491</ele>
        <time>2021-08-15T06:19:01Z</time>
      </trkpt>
      <trkpt lat="45.86498" lon="3.05294">
        <ele>491</ele>
        <time>2021-08-15T06:19:02Z</time>
      </trkpt>
      <trkpt lat="45.86499" lon="3.05296">
        <ele>491</ele>
        <time>2021-08-15T06:19:03Z</time>
      </trkpt>
      <trkpt lat="45.86501" lon="3.05298">
        <ele>491</ele>
        <time>2021-08-15T06:19:04Z</time>
      </trkpt>
      <trkpt lat="45.86502" lon="3.05299">
        <ele>491</ele>
        <time>2021-08-15T06:19:05Z</time>
      </trkpt>
      <trkpt lat="45.86503" lon="3.053">
        <ele>491</ele>
        <time>2021-08-15T06:19:06Z</time>
      </trkpt>
      <trkpt lat="45.86505" lon="3.05301">
        <ele>491</ele>
        <time>2021-08-15T06:19:07Z</time>
      </trkpt>
      <trkpt lat="45.86506" lon="3.05301">
        <ele>491</ele>
        <time>2021-08-15T06:19:08Z</time>
      </trkpt>
      <trkpt lat="45.86507" lon="3.05302">
        <ele>491</ele>
        <time>2021-08-15T06:19:09Z</time>
      </trkpt>
      <trkpt lat="45.86509" lon="3.05302">
        <ele>491</ele>
        <time>2021-08-15T06:19:10Z</time>
      </trkpt>
      <trkpt lat="45.86511" lon="3.05304">
        <ele>491</ele>
        <time>2021-08-15T06:19:11Z</time>
      </trkpt>
      <trkpt lat="45.86512" lon="3.05305">
        <ele>491</ele>
        <time>2021-08-15T06:19:12Z</time>
      </trkpt>
      <trkpt lat="45.86514" lon="3.05307">
        <ele>491</ele>
        <time>2021-08-15T06:19:13Z</time>
      </trkpt>
      <trkpt lat="45.86515" lon="3.05308">
        <ele>491</ele>
        <time>2021-08-15T06:19:14Z</time>
      </trkpt>
      <trkpt lat="45.86517" lon="3.0531">
        <ele>491</ele>
        <time>2021-08-15T06:19:15Z</time>
      </trkpt>
      <trkpt lat="45.86518" lon="3.05312">
        <ele>491</ele>
        <time>2021-08-15T06:19:16Z</time>
      </trkpt>
      <trkpt lat="45.8652" lon="3.05314">
        <ele>491</ele>
        <time>2021-08-15T06:19:17Z</time>
      </trkpt>
      <trkpt lat="45.8652" lon="3.05315">
        <ele>491</ele>
        <time>2021-08-15T06:19:18Z</time>
      </trkpt>
      <trkpt lat="45.86522" lon="3.05317">
        <ele>491</ele>
        <time>2021-08-15T06:19:19Z</time>
      </trkpt>
      <trkpt lat="45.86523" lon="3.05319">
        <ele>491</ele>
        <time>2021-08-15T06:19:20Z</time>
      </trkpt>
      <trkpt lat="45.86525" lon="3.05321">
        <ele>491</ele>
        <time>2021-08-15T06:19:21Z</time>
      </trkpt>
      <trkpt lat="45.86526" lon="3.05323">
        <ele>491</ele>
        <time>2021-08-15T06:19:22Z</time>
      </trkpt>
      <trkpt lat="45.86527" lon="3.05325">
        <ele>491</ele>
        <time>2021-08-15T06:19:23Z</time>
      </trkpt>
      <trkpt lat="45.86529" lon="3.05327">
        <ele>491</ele>
        <time>2021-08-15T06:19:24Z</time>
      </trkpt>
      <trkpt lat="45.86531" lon="3.05329">
        <ele>491</ele>
        <time>2021-08-15T06:19:25Z</time>
      </trkpt>
      <trkpt lat="45.86533" lon="3.0533">
        <ele>491</ele>
        <time>2021-08-15T06:19:26Z</time>
      </trkpt>
      <trkpt lat="45.86535" lon="3.05332">
        <ele>491</ele>
        <time>2021-08-15T06:19:27Z</time>
      </trkpt>
      <trkpt lat="45.86537" lon="3.05334">
        <ele>491</ele>
        <time>2021-08-15T06:19:28Z</time>
      </trkpt>
      <trkpt lat="45.86538" lon="3.05335">
        <ele>491</ele>
        <time>2021-08-15T06:19:29Z</time>
      </trkpt>
      <trkpt lat="45.8654" lon="3.05337">
        <ele>491</ele>
        <time>2021-08-15T06:19:30Z</time>
      </trkpt>
      <trkpt lat="45.86542" lon="3.05338">
        <ele>491</ele>
        <time>2021-08-15T06:19:31Z</time>
      </trkpt>
      <trkpt lat="45.86544" lon="3.05339">
        <ele>491</ele>
        <time>2021-08-15T06:19:32Z</time>
      </trkpt>
      <trkpt lat="45.86546" lon="3.0534">
        <ele>491</ele>
        <time>2021-08-15T06:19:33Z</time>
      </trkpt>
      <trkpt lat="45.86547" lon="3.05341">
        <ele>491</ele>
        <time>2021-08-15T06:19:34Z</time>
      </trkpt>
      <trkpt lat="45.86549" lon="3.05343">
        <ele>491</ele>
        <time>2021-08-15T06:19:35Z</time>
      </trkpt>
      <trkpt lat="45.8655" lon="3.05344">
        <ele>491</ele>
        <time>2021-08-15T06:19:36Z</time>
      </trkpt>
      <trkpt lat="45.86552" lon="3.05345">
        <ele>491</ele>
        <time>2021-08-15T06:19:37Z</time>
      </trkpt>
      <trkpt lat="45.86553" lon="3.05346">
        <ele>491</ele>
        <time>2021-08-15T06:19:38Z</time>
      </trkpt>
      <trkpt lat="45.86555" lon="3.05348">
        <ele>491</ele>
        <time>2021-08-15T06:19:39Z</time>
      </trkpt>
      <trkpt lat="45.86557" lon="3.05349">
        <ele>491</ele>
        <time>2021-08-15T06:19:40Z</time>
      </trkpt>
      <trkpt lat="45.86559" lon="3.05351">
        <ele>491</ele>
        <time>2021-08-15T06:19:41Z</time>
      </trkpt>
      <trkpt lat="45.8656" lon="3.05352">
        <ele>491</ele>
        <time>2021-08-15T06:19:42Z</time>
      </trkpt>
      <trkpt lat="45.86563" lon="3.05354">
        <ele>491</ele>
        <time>2021-08-15T06:19:43Z</time>
      </trkpt>
      <trkpt lat="45.86565" lon="3.05355">
        <ele>491</ele>
        <time>2021-08-15T06:19:44Z</time>
      </trkpt>
      <trkpt lat="45.86567" lon="3.05356">
        <ele>491</ele>
        <time>2021-08-15T06:19:45Z</time>
      </trkpt>
      <trkpt lat="45.86568" lon="3.05358">
        <ele>491</ele>
        <time>2021-08-15T06:19:46Z</time>
      </trkpt>
      <trkpt lat="45.8657" lon="3.0536">
        <ele>491</ele>
        <time>2021-08-15T06:19:47Z</time>
      </trkpt>
      <trkpt lat="45.86572" lon="3.05361">
        <ele>491</ele>
        <time>2021-08-15T06:19:49Z</time>
      </trkpt>
      <trkpt lat="45.86578" lon="3.05368">
        <ele>491</ele>
        <time>2021-08-15T06:19:50Z</time>
      </trkpt>
      <trkpt lat="45.86578" lon="3.05368">
        <ele>491</ele>
        <time>2021-08-15T06:19:51Z</time>
      </trkpt>
      <trkpt lat="45.86578" lon="3.0537">
        <ele>491</ele>
        <time>2021-08-15T06:19:52Z</time>
      </trkpt>
      <trkpt lat="45.8658" lon="3.05372">
        <ele>491</ele>
        <time>2021-08-15T06:19:53Z</time>
      </trkpt>
      <trkpt lat="45.86581" lon="3.05373">
        <ele>491</ele>
        <time>2021-08-15T06:19:54Z</time>
      </trkpt>
      <trkpt lat="45.86581" lon="3.05376">
        <ele>491</ele>
        <time>2021-08-15T06:19:55Z</time>
      </trkpt>
      <trkpt lat="45.86583" lon="3.05379">
        <ele>491</ele>
        <time>2021-08-15T06:19:56Z</time>
      </trkpt>
      <trkpt lat="45.86584" lon="3.05381">
        <ele>491</ele>
        <time>2021-08-15T06:19:57Z</time>
      </trkpt>
      <trkpt lat="45.86585" lon="3.05384">
        <ele>491</ele>
        <time>2021-08-15T06:19:58Z</time>
      </trkpt>
      <trkpt lat="45.86586" lon="3.05386">
        <ele>491</ele>
        <time>2021-08-15T06:19:59Z</time>
      </trkpt>
      <trkpt lat="45.86588" lon="3.05389">
        <ele>491</ele>
        <time>2021-08-15T06:20:00Z</time>
      </trkpt>
      <trkpt lat="45.86589" lon="3.05391">
        <ele>491</ele>
        <time>2021-08-15T06:20:01Z</time>
      </trkpt>
      <trkpt lat="45.8659" lon="3.05394">
        <ele>491</ele>
        <time>2021-08-15T06:20:02Z</time>
      </trkpt>
      <trkpt lat="45.86591" lon="3.05396">
        <ele>491</ele>
        <time>2021-08-15T06:20:03Z</time>
      </trkpt>
      <trkpt lat="45.86592" lon="3.05398">
        <ele>491</ele>
        <time>2021-08-15T06:20:04Z</time>
      </trkpt>
      <trkpt lat="45.86593" lon="3.054">
        <ele>491</ele>
        <time>2021-08-15T06:20:05Z</time>
      </trkpt>
      <trkpt lat="45.86594" lon="3.05401">
        <ele>491</ele>
        <time>2021-08-15T06:20:06Z</time>
      </trkpt>
      <trkpt lat="45.86595" lon="3.05403">
        <ele>491</ele>
        <time>2021-08-15T06:20:07Z</time>
      </trkpt>
      <trkpt lat="45.86596" lon="3.05405">
        <ele>491</ele>
        <time>2021-08-15T06:20:08Z</time>
      </trkpt>
      <trkpt lat="45.86598" lon="3.05407">
        <ele>491</ele>
        <time>2021-08-15T06:20:09Z</time>
      </trkpt>
      <trkpt lat="45.86599" lon="3.05409">
        <ele>491</ele>
        <time>2021-08-15T06:20:10Z</time>
      </trkpt>
      <trkpt lat="45.86601" lon="3.0541">
        <ele>491</ele>
        <time>2021-08-15T06:20:11Z</time>
      </trkpt>
      <trkpt lat="45.86602" lon="3.05412">
        <ele>491</ele>
        <time>2021-08-15T06:20:12Z</time>
      </trkpt>
      <trkpt lat="45.86603" lon="3.05414">
        <ele>491</ele>
        <time>2021-08-15T06:20:13Z</time>
      </trkpt>
      <trkpt lat="45.86605" lon="3.05417">
        <ele>491</ele>
        <time>2021-08-15T06:20:14Z</time>
      </trkpt>
      <trkpt lat="45.86606" lon="3.05419">
        <ele>491</ele>
        <time>2021-08-15T06:20:15Z</time>
      </trkpt>
      <trkpt lat="45.86607" lon="3.05421">
        <ele>491</ele>
        <time>2021-08-15T06:20:16Z</time>
      </trkpt>
      <trkpt lat="45.86608" lon="3.05424">
        <ele>491</ele>
        <time>2021-08-15T06:20:17Z</time>
      </trkpt>
      <trkpt lat="45.86609" lon="3.05426">
        <ele>491</ele>
        <time>2021-08-15T06:20:18Z</time>
      </trkpt>
      <trkpt lat="45.8661" lon="3.05428">
        <ele>491</ele>
        <time>2021-08-15T06:20:19Z</time>
      </trkpt>
      <trkpt lat="45.86611" lon="3.0543">
        <ele>491</ele>
        <time>2021-08-15T06:20:20Z</time>
      </trkpt>
      <trkpt lat="45.86612" lon="3.05432">
        <ele>491</ele>
        <time>2021-08-15T06:20:21Z</time>
      </trkpt>
      <trkpt lat="45.86613" lon="3.05433">
        <ele>491</ele>
        <time>2021-08-15T06:20:22Z</time>
      </trkpt>
      <trkpt lat="45.86614" lon="3.05435">
        <ele>491</ele>
        <time>2021-08-15T06:20:23Z</time>
      </trkpt>
      <trkpt lat="45.86618" lon="3.05441">
        <ele>491</ele>
        <time>2021-08-15T06:20:25Z</time>
      </trkpt>
      <trkpt lat="45.86618" lon="3.05441">
        <ele>491</ele>
        <time>2021-08-15T06:20:26Z</time>
      </trkpt>
      <trkpt lat="45.86618" lon="3.05441">
        <ele>491</ele>
        <time>2021-08-15T06:20:27Z</time>
      </trkpt>
      <trkpt lat="45.86618" lon="3.05441">
        <ele>491</ele>
        <time>2021-08-15T06:20:28Z</time>
      </trkpt>
      <trkpt lat="45.86618" lon="3.05441">
        <ele>491</ele>
        <time>2021-08-15T06:20:29Z</time>
      </trkpt>
      <trkpt lat="45.8662" lon="3.05442">
        <ele>491</ele>
        <time>2021-08-15T06:20:30Z</time>
      </trkpt>
      <trkpt lat="45.8662" lon="3.05443">
        <ele>491</ele>
        <time>2021-08-15T06:20:31Z</time>
      </trkpt>
      <trkpt lat="45.86622" lon="3.05443">
        <ele>491</ele>
        <time>2021-08-15T06:20:32Z</time>
      </trkpt>
      <trkpt lat="45.86623" lon="3.05444">
        <ele>491</ele>
        <time>2021-08-15T06:20:33Z</time>
      </trkpt>
      <trkpt lat="45.86623" lon="3.05445">
        <ele>491</ele>
        <time>2021-08-15T06:20:34Z</time>
      </trkpt>
      <trkpt lat="45.86625" lon="3.05446">
        <ele>491</ele>
        <time>2021-08-15T06:20:35Z</time>
      </trkpt>
      <trkpt lat="45.86626" lon="3.05448">
        <ele>491</ele>
        <time>2021-08-15T06:20:36Z</time>
      </trkpt>
      <trkpt lat="45.86627" lon="3.05449">
        <ele>491</ele>
        <time>2021-08-15T06:20:37Z</time>
      </trkpt>
      <trkpt lat="45.86628" lon="3.0545">
        <ele>491</ele>
        <time>2021-08-15T06:20:38Z</time>
      </trkpt>
      <trkpt lat="45.8663" lon="3.05452">
        <ele>491</ele>
        <time>2021-08-15T06:20:39Z</time>
      </trkpt>
      <trkpt lat="45.86631" lon="3.05453">
        <ele>491</ele>
        <time>2021-08-15T06:20:40Z</time>
      </trkpt>
      <trkpt lat="45.86632" lon="3.05455">
        <ele>491</ele>
        <time>2021-08-15T06:20:41Z</time>
      </trkpt>
      <trkpt lat="45.86633" lon="3.05457">
        <ele>491</ele>
        <time>2021-08-15T06:20:42Z</time>
      </trkpt>
      <trkpt lat="45.86634" lon="3.0546">
        <ele>491</ele>
        <time>2021-08-15T06:20:43Z</time>
      </trkpt>
      <trkpt lat="45.86635" lon="3.05462">
        <ele>491</ele>
        <time>2021-08-15T06:20:44Z</time>
      </trkpt>
      <trkpt lat="45.86636" lon="3.05464">
        <ele>491</ele>
        <time>2021-08-15T06:20:45Z</time>
      </trkpt>
      <trkpt lat="45.86638" lon="3.05466">
        <ele>491</ele>
        <time>2021-08-15T06:20:46Z</time>
      </trkpt>
      <trkpt lat="45.86638" lon="3.05468">
        <ele>491</ele>
        <time>2021-08-15T06:20:48Z</time>
      </trkpt>
      <trkpt lat="45.86643" lon="3.05476">
        <ele>491</ele>
        <time>2021-08-15T06:20:50Z</time>
      </trkpt>
      <trkpt lat="45.86644" lon="3.0548">
        <ele>491</ele>
        <time>2021-08-15T06:20:51Z</time>
      </trkpt>
      <trkpt lat="45.86645" lon="3.0548">
        <ele>491</ele>
        <time>2021-08-15T06:20:52Z</time>
      </trkpt>
      <trkpt lat="45.86646" lon="3.05482">
        <ele>491</ele>
        <time>2021-08-15T06:20:53Z</time>
      </trkpt>
      <trkpt lat="45.86647" lon="3.05483">
        <ele>491</ele>
        <time>2021-08-15T06:20:54Z</time>
      </trkpt>
      <trkpt lat="45.86647" lon="3.05486">
        <ele>491</ele>
        <time>2021-08-15T06:20:55Z</time>
      </trkpt>
      <trkpt lat="45.86975" lon="3.05793">
        <ele>491</ele>
        <time>2021-08-15T06:25:31Z</time>
      </trkpt>
      <trkpt lat="45.86975" lon="3.05793">
        <ele>491</ele>
        <time>2021-08-15T06:25:32Z</time>
      </trkpt>
      <trkpt lat="45.86975" lon="3.05792">
        <ele>491</ele>
        <time>2021-08-15T06:25:33Z</time>
      </trkpt>
      <trkpt lat="45.86975" lon="3.05792">
        <ele>491</ele>
        <time>2021-08-15T06:25:34Z</time>
      </trkpt>
      <trkpt lat="45.86974" lon="3.05792">
        <ele>491</ele>
        <time>2021-08-15T06:25:36Z</time>
      </trkpt>
      <trkpt lat="45.86975" lon="3.05795">
        <ele>491</ele>
        <time>2021-08-15T06:25:37Z</time>
      </trkpt>
      <trkpt lat="45.86975" lon="3.05795">
        <ele>491</ele>
        <time>2021-08-15T06:25:38Z</time>
      </trkpt>
      <trkpt lat="45.86977" lon="3.05796">
        <ele>491</ele>
        <time>2021-08-15T06:25:39Z</time>
      </trkpt>
      <trkpt lat="45.86978" lon="3.05798">
        <ele>491</ele>
        <time>2021-08-15T06:25:41Z</time>
      </trkpt>
      <trkpt lat="45.86979" lon="3.05799">
        <ele>491</ele>
        <time>2021-08-15T06:25:42Z</time>
      </trkpt>
      <trkpt lat="45.8698" lon="3.05801">
        <ele>491</ele>
        <time>2021-08-15T06:25:43Z</time>
      </trkpt>
      <trkpt lat="45.8698" lon="3.05802">
        <ele>491</ele>
        <time>2021-08-15T06:25:44Z</time>
      </trkpt>
      <trkpt lat="45.86981" lon="3.05804">
        <ele>491</ele>
        <time>2021-08-15T06:25:46Z</time>
      </trkpt>
      <trkpt lat="45.86984" lon="3.05809">
        <ele>491</ele>
        <time>2021-08-15T06:25:47Z</time>
      </trkpt>
      <trkpt lat="45.86984" lon="3.05809">
        <ele>491</ele>
        <time>2021-08-15T06:25:48Z</time>
      </trkpt>
      <trkpt lat="45.86985" lon="3.05809">
        <ele>491</ele>
        <time>2021-08-15T06:25:49Z</time>
      </trkpt>
      <trkpt lat="45.86985" lon="3.0581">
        <ele>491</ele>
        <time>2021-08-15T06:25:50Z</time>
      </trkpt>
      <trkpt lat="45.86985" lon="3.05811">
        <ele>491</ele>
        <time>2021-08-15T06:25:51Z</time>
      </trkpt>
      <trkpt lat="45.86987" lon="3.05812">
        <ele>491</ele>
        <time>2021-08-15T06:25:52Z</time>
      </trkpt>
      <trkpt lat="45.86988" lon="3.05813">
        <ele>491</ele>
        <time>2021-08-15T06:25:53Z</time>
      </trkpt>
      <trkpt lat="45.86988" lon="3.05815">
        <ele>491</ele>
        <time>2021-08-15T06:25:54Z</time>
      </trkpt>
      <trkpt lat="45.86989" lon="3.05816">
        <ele>491</ele>
        <time>2021-08-15T06:25:55Z</time>
      </trkpt>
      <trkpt lat="45.8699" lon="3.05818">
        <ele>491</ele>
        <time>2021-08-15T06:25:56Z</time>
      </trkpt>
      <trkpt lat="45.86991" lon="3.05819">
        <ele>491</ele>
        <time>2021-08-15T06:25:57Z</time>
      </trkpt>
      <trkpt lat="45.86991" lon="3.0582">
        <ele>491</ele>
        <time>2021-08-15T06:25:58Z</time>
      </trkpt>
      <trkpt lat="45.86992" lon="3.05822">
        <ele>491</ele>
        <time>2021-08-15T06:25:59Z</time>
      </trkpt>
      <trkpt lat="45.86993" lon="3.05823">
        <ele>491</ele>
        <time>2021-08-15T06:26:00Z</time>
      </trkpt>
      <trkpt lat="45.86993" lon="3.05825">
        <ele>491</ele>
        <time>2021-08-15T06:26:01Z</time>
      </trkpt>
      <trkpt lat="45.86994" lon="3.05827">
        <ele>491</ele>
        <time>2021-08-15T06:26:02Z</time>
      </trkpt>
      <trkpt lat="45.86994" lon="3.05829">
        <ele>491</ele>
        <time>2021-08-15T06:26:03Z</time>
      </trkpt>
      <trkpt lat="45.86995" lon="3.05831">
        <ele>491</ele>
        <time>2021-08-15T06:26:04Z</time>
      </trkpt>
      <trkpt lat="45.86995" lon="3.05833">
        <ele>491</ele>
        <time>2021-08-15T06:26:05Z</time>
      </trkpt>
      <trkpt lat="45.86996" lon="3.05835">
        <ele>491</ele>
        <time>2021-08-15T06:26:06Z</time>
      </trkpt>
      <trkpt lat="45.86996" lon="3.05836">
        <ele>491</ele>
        <time>2021-08-15T06:26:07Z</time>
      </trkpt>
      <trkpt lat="45.86997" lon="3.05838">
        <ele>491</ele>
        <time>2021-08-15T06:26:08Z</time>
      </trkpt>
      <trkpt lat="45.86998" lon="3.0584">
        <ele>491</ele>
        <time>2021-08-15T06:26:09Z</time>
      </trkpt>
      <trkpt lat="45.86999" lon="3.05842">
        <ele>491</ele>
        <time>2021-08-15T06:26:10Z</time>
      </trkpt>
      <trkpt lat="45.86999" lon="3.05844">
        <ele>491</ele>
        <time>2021-08-15T06:26:11Z</time>
      </trkpt>
      <trkpt lat="45.87" lon="3.05845">
        <ele>491</ele>
        <time>2021-08-15T06:26:12Z</time>
      </trkpt>
      <trkpt lat="45.87001" lon="3.05847">
        <ele>491</ele>
        <time>2021-08-15T06:26:13Z</time>
      </trkpt>
      <trkpt lat="45.87002" lon="3.05849">
        <ele>491</ele>
        <time>2021-08-15T06:26:14Z</time>
      </trkpt>
      <trkpt lat="45.87003" lon="3.05851">
        <ele>491</ele>
        <time>2021-08-15T06:26:15Z</time>
      </trkpt>
      <trkpt lat="45.87003" lon="3.05853">
        <ele>491</ele>
        <time>2021-08-15T06:26:16Z</time>
      </trkpt>
      <trkpt lat="45.87005" lon="3.05856">
        <ele>491</ele>
        <time>2021-08-15T06:26:17Z</time>
      </trkpt>
      <trkpt lat="45.87005" lon="3.05858">
        <ele>491</ele>
        <time>2021-08-15T06:26:18Z</time>
      </trkpt>
      <trkpt lat="45.87006" lon="3.0586">
        <ele>491</ele>
        <time>2021-08-15T06:26:19Z</time>
      </trkpt>
      <trkpt lat="45.87007" lon="3.05863">
        <ele>491</ele>
        <time>2021-08-15T06:26:20Z</time>
      </trkpt>
      <trkpt lat="45.87008" lon="3.05865">
        <ele>491</ele>
        <time>2021-08-15T06:26:21Z</time>
      </trkpt>
      <trkpt lat="45.87009" lon="3.05867">
        <ele>491</ele>
        <time>2021-08-15T06:26:22Z</time>
      </trkpt>
      <trkpt lat="45.8701" lon="3.05869">
        <ele>491</ele>
        <time>2021-08-15T06:26:23Z</time>
      </trkpt>
      <trkpt lat="45.87011" lon="3.05871">
        <ele>491</ele>
        <time>2021-08-15T06:26:24Z</time>
      </trkpt>
      <trkpt lat="45.87012" lon="3.05873">
        <ele>491</ele>
        <time>2021-08-15T06:26:25Z</time>
      </trkpt>
      <trkpt lat="45.87012" lon="3.05875">
        <ele>491</ele>
        <time>2021-08-15T06:26:26Z</time>
      </trkpt>
      <trkpt lat="45.87013" lon="3.05877">
        <ele>491</ele>
        <time>2021-08-15T06:26:27Z</time>
      </trkpt>
      <trkpt lat="45.87014" lon="3.05879">
        <ele>491</ele>
        <time>2021-08-15T06:26:28Z</time>
      </trkpt>
      <trkpt lat="45.87014" lon="3.05881">
        <ele>491</ele>
        <time>2021-08-15T06:26:29Z</time>
      </trkpt>
      <trkpt lat="45.87015" lon="3.05883">
        <ele>491</ele>
        <time>2021-08-15T06:26:30Z</time>
      </trkpt>
      <trkpt lat="45.87016" lon="3.05885">
        <ele>491</ele>
        <time>2021-08-15T06:26:31Z</time>
      </trkpt>
      <trkpt lat="45.87016" lon="3.05887">
        <ele>491</ele>
        <time>2021-08-15T06:26:32Z</time>
      </trkpt>
      <trkpt lat="45.87017" lon="3.05889">
        <ele>491</ele>
        <time>2021-08-15T06:26:33Z</time>
      </trkpt>
      <trkpt lat="45.87018" lon="3.05892">
        <ele>491</ele>
        <time>2021-08-15T06:26:34Z</time>
      </trkpt>
      <trkpt lat="45.87019" lon="3.05894">
        <ele>491</ele>
        <time>2021-08-15T06:26:35Z</time>
      </trkpt>
      <trkpt lat="45.8702" lon="3.05897">
        <ele>491</ele>
        <time>2021-08-15T06:26:36Z</time>
      </trkpt>
      <trkpt lat="45.8702" lon="3.05899">
        <ele>491</ele>
        <time>2021-08-15T06:26:37Z</time>
      </trkpt>
      <trkpt lat="45.87021" lon="3.05902">
        <ele>491</ele>
        <time>2021-08-15T06:26:38Z</time>
      </trkpt>
      <trkpt lat="45.87021" lon="3.05904">
        <ele>491</ele>
        <time>2021-08-15T06:26:39Z</time>
      </trkpt>
      <trkpt lat="45.87022" lon="3.05907">
        <ele>491</ele>
        <time>2021-08-15T06:26:40Z</time>
      </trkpt>
      <trkpt lat="45.87022" lon="3.05909">
        <ele>491</ele>
        <time>2021-08-15T06:26:41Z</time>
      </trkpt>
      <trkpt lat="45.87022" lon="3.05911">
        <ele>491</ele>
        <time>2021-08-15T06:26:42Z</time>
      </trkpt>
      <trkpt lat="45.87023" lon="3.05913">
        <ele>491</ele>
        <time>2021-08-15T06:26:43Z</time>
      </trkpt>
      <trkpt lat="45.87024" lon="3.05916">
        <ele>491</ele>
        <time>2021-08-15T06:26:44Z</time>
      </trkpt>
      <trkpt lat="45.87024" lon="3.05918">
        <ele>491</ele>
        <time>2021-08-15T06:26:45Z</time>
      </trkpt>
      <trkpt lat="45.87024" lon="3.05921">
        <ele>491</ele>
        <time>2021-08-15T06:26:46Z</time>
      </trkpt>
      <trkpt lat="45.87024" lon="3.05923">
        <ele>491</ele>
        <time>2021-08-15T06:26:48Z</time>
      </trkpt>
      <trkpt lat="45.87024" lon="3.05932">
        <ele>491</ele>
        <time>2021-08-15T06:26:49Z</time>
      </trkpt>
      <trkpt lat="45.87024" lon="3.05933">
        <ele>491</ele>
        <time>2021-08-15T06:26:50Z</time>
      </trkpt>
      <trkpt lat="45.87024" lon="3.05934">
        <ele>491</ele>
        <time>2021-08-15T06:26:51Z</time>
      </trkpt>
      <trkpt lat="45.87024" lon="3.05936">
        <ele>491</ele>
        <time>2021-08-15T06:26:52Z</time>
      </trkpt>
      <trkpt lat="45.87024" lon="3.05937">
        <ele>491</ele>
        <time>2021-08-15T06:26:53Z</time>
      </trkpt>
      <trkpt lat="45.87025" lon="3.05939">
        <ele>491</ele>
        <time>2021-08-15T06:26:54Z</time>
      </trkpt>
      <trkpt lat="45.87025" lon="3.05941">
        <ele>491</ele>
        <time>2021-08-15T06:26:55Z</time>
      </trkpt>
      <trkpt lat="45.87026" lon="3.05944">
        <ele>491</ele>
        <time>2021-08-15T06:26:56Z</time>
      </trkpt>
      <trkpt lat="45.87026" lon="3.05946">
        <ele>491</ele>
        <time>2021-08-15T06:26:57Z</time>
      </trkpt>
      <trkpt lat="45.87026" lon="3.05949">
        <ele>491</ele>
        <time>2021-08-15T06:26:58Z</time>
      </trkpt>
      <trkpt lat="45.87027" lon="3.05951">
        <ele>491</ele>
        <time>2021-08-15T06:26:59Z</time>
      </trkpt>
      <trkpt lat="45.87027" lon="3.05954">
        <ele>491</ele>
        <time>2021-08-15T06:27:00Z</time>
      </trkpt>
      <trkpt lat="45.87027" lon="3.05957">
        <ele>491</ele>
        <time>2021-08-15T06:27:01Z</time>
      </trkpt>
      <trkpt lat="45.87027" lon="3.0596">
        <ele>491</ele>
        <time>2021-08-15T06:27:02Z</time>
      </trkpt>
      <trkpt lat="45.87028" lon="3.05962">
        <ele>491</ele>
        <time>2021-08-15T06:27:03Z</time>
      </trkpt>
      <trkpt lat="45.87028" lon="3.05965">
        <ele>491</ele>
        <time>2021-08-15T06:27:04Z</time>
      </trkpt>
      <trkpt lat="45.87029" lon="3.05967">
        <ele>491</ele>
        <time>2021-08-15T06:27:05Z</time>
      </trkpt>
      <trkpt lat="45.87029" lon="3.05969">
        <ele>491</ele>
        <time>2021-08-15T06:27:06Z</time>
      </trkpt>
      <trkpt lat="45.87029" lon="3.05971">
        <ele>491</ele>
        <time>2021-08-15T06:27:07Z</time>
      </trkpt>
      <trkpt lat="45.8703" lon="3.05973">
        <ele>491</ele>
        <time>2021-08-15T06:27:08Z</time>
      </trkpt>
      <trkpt lat="45.8703" lon="3.05976">
        <ele>491</ele>
        <time>2021-08-15T06:27:09Z</time>
      </trkpt>
      <trkpt lat="45.87031" lon="3.05978">
        <ele>491</ele>
        <time>2021-08-15T06:27:10Z</time>
      </trkpt>
      <trkpt lat="45.87032" lon="3.0598">
        <ele>491</ele>
        <time>2021-08-15T06:27:11Z</time>
      </trkpt>
      <trkpt lat="45.87032" lon="3.05981">
        <ele>491</ele>
        <time>2021-08-15T06:27:12Z</time>
      </trkpt>
      <trkpt lat="45.87033" lon="3.05984">
        <ele>491</ele>
        <time>2021-08-15T06:27:13Z</time>
      </trkpt>
      <trkpt lat="45.87033" lon="3.05986">
        <ele>491</ele>
        <time>2021-08-15T06:27:14Z</time>
      </trkpt>
      <trkpt lat="45.87033" lon="3.05989">
        <ele>491</ele>
        <time>2021-08-15T06:27:15Z</time>
      </trkpt>
      <trkpt lat="45.87033" lon="3.05991">
        <ele>491</ele>
        <time>2021-08-15T06:27:16Z</time>
      </trkpt>
      <trkpt lat="45.87033" lon="3.05993">
        <ele>491</ele>
        <time>2021-08-15T06:27:17Z</time>
      </trkpt>
      <trkpt lat="45.87034" lon="3.05995">
        <ele>491</ele>
        <time>2021-08-15T06:27:18Z</time>
      </trkpt>
      <trkpt lat="45.87034" lon="3.05997">
        <ele>491</ele>
        <time>2021-08-15T06:27:19Z</time>
      </trkpt>
      <trkpt lat="45.87035" lon="3.05998">
        <ele>491</ele>
        <time>2021-08-15T06:27:20Z</time>
      </trkpt>
      <trkpt lat="45.87035" lon="3.06">
        <ele>491</ele>
        <time>2021-08-15T06:27:21Z</time>
      </trkpt>
      <trkpt lat="45.87036" lon="3.06001">
        <ele>491</ele>
        <time>2021-08-15T06:27:22Z</time>
      </trkpt>
      <trkpt lat="45.87037" lon="3.06003">
        <ele>491</ele>
        <time>2021-08-15T06:27:23Z</time>
      </trkpt>
      <trkpt lat="45.87038" lon="3.06005">
        <ele>491</ele>
        <time>2021-08-15T06:27:24Z</time>
      </trkpt>
      <trkpt lat="45.87038" lon="3.06006">
        <ele>491</ele>
        <time>2021-08-15T06:27:25Z</time>
      </trkpt>
      <trkpt lat="45.87039" lon="3.06008">
        <ele>491</ele>
        <time>2021-08-15T06:27:26Z</time>
      </trkpt>
      <trkpt lat="45.87039" lon="3.0601">
        <ele>491</ele>
        <time>2021-08-15T06:27:27Z</time>
      </trkpt>
      <trkpt lat="45.8704" lon="3.06011">
        <ele>491</ele>
        <time>2021-08-15T06:27:28Z</time>
      </trkpt>
      <trkpt lat="45.8704" lon="3.06014">
        <ele>491</ele>
        <time>2021-08-15T06:27:29Z</time>
      </trkpt>
      <trkpt lat="45.8704" lon="3.06016">
        <ele>491</ele>
        <time>2021-08-15T06:27:30Z</time>
      </trkpt>
      <trkpt lat="45.8704" lon="3.06018">
        <ele>491</ele>
        <time>2021-08-15T06:27:31Z</time>
      </trkpt>
      <trkpt lat="45.8704" lon="3.06021">
        <ele>491</ele>
        <time>2021-08-15T06:27:32Z</time>
      </trkpt>
      <trkpt lat="45.8704" lon="3.06023">
        <ele>491</ele>
        <time>2021-08-15T06:27:33Z</time>
      </trkpt>
      <trkpt lat="45.8704" lon="3.06026">
        <ele>491</ele>
        <time>2021-08-15T06:27:34Z</time>
      </trkpt>
      <trkpt lat="45.8704" lon="3.06028">
        <ele>491</ele>
        <time>2021-08-15T06:27:35Z</time>
      </trkpt>
      <trkpt lat="45.8704" lon="3.0603">
        <ele>491</ele>
        <time>2021-08-15T06:27:36Z</time>
      </trkpt>
      <trkpt lat="45.87041" lon="3.06032">
        <ele>491</ele>
        <time>2021-08-15T06:27:37Z</time>
      </trkpt>
      <trkpt lat="45.87041" lon="3.06034">
        <ele>491</ele>
        <time>2021-08-15T06:27:38Z</time>
      </trkpt>
      <trkpt lat="45.87041" lon="3.06036">
        <ele>491</ele>
        <time>2021-08-15T06:27:39Z</time>
      </trkpt>
      <trkpt lat="45.87042" lon="3.06038">
        <ele>491</ele>
        <time>2021-08-15T06:27:40Z</time>
      </trkpt>
      <trkpt lat="45.87042" lon="3.06041">
        <ele>491</ele>
        <time>2021-08-15T06:27:41Z</time>
      </trkpt>
      <trkpt lat="45.87043" lon="3.06043">
        <ele>491</ele>
        <time>2021-08-15T06:27:42Z</time>
      </trkpt>
      <trkpt lat="45.87044" lon="3.06044">
        <ele>491</ele>
        <time>2021-08-15T06:27:43Z</time>
      </trkpt>
      <trkpt lat="45.87045" lon="3.06046">
        <ele>491</ele>
        <time>2021-08-15T06:27:44Z</time>
      </trkpt>
      <trkpt lat="45.87045" lon="3.06048">
        <ele>491</ele>
        <time>2021-08-15T06:27:46Z</time>
      </trkpt>
      <trkpt lat="45.8705" lon="3.06055">
        <ele>491</ele>
        <time>2021-08-15T06:27:48Z</time>
      </trkpt>
      <trkpt lat="45.87051" lon="3.0606">
        <ele>491</ele>
        <time>2021-08-15T06:27:49Z</time>
      </trkpt>
      <trkpt lat="45.87051" lon="3.0606">
        <ele>491</ele>
        <time>2021-08-15T06:27:50Z</time>
      </trkpt>
      <trkpt lat="45.87051" lon="3.06061">
        <ele>491</ele>
        <time>2021-08-15T06:27:51Z</time>
      </trkpt>
      <trkpt lat="45.87051" lon="3.06062">
        <ele>491</ele>
        <time>2021-08-15T06:27:52Z</time>
      </trkpt>
      <trkpt lat="45.87052" lon="3.06064">
        <ele>491</ele>
        <time>2021-08-15T06:27:53Z</time>
      </trkpt>
      <trkpt lat="45.87053" lon="3.06066">
        <ele>491</ele>
        <time>2021-08-15T06:27:54Z</time>
      </trkpt>
      <trkpt lat="45.87054" lon="3.06068">
        <ele>491</ele>
        <time>2021-08-15T06:27:55Z</time>
      </trkpt>
      <trkpt lat="45.87054" lon="3.0607">
        <ele>491</ele>
        <time>2021-08-15T06:27:56Z</time>
      </trkpt>
      <trkpt lat="45.87055" lon="3.06071">
        <ele>491</ele>
        <time>2021-08-15T06:27:57Z</time>
      </trkpt>
      <trkpt lat="45.87056" lon="3.06073">
        <ele>491</ele>
        <time>2021-08-15T06:27:58Z</time>
      </trkpt>
      <trkpt lat="45.87057" lon="3.06075">
        <ele>491</ele>
        <time>2021-08-15T06:27:59Z</time>
      </trkpt>
      <trkpt lat="45.87058" lon="3.06076">
        <ele>491</ele>
        <time>2021-08-15T06:28:00Z</time>
      </trkpt>
      <trkpt lat="45.87059" lon="3.06078">
        <ele>491</ele>
        <time>2021-08-15T06:28:01Z</time>
      </trkpt>
      <trkpt lat="45.8706" lon="3.06079">
        <ele>491</ele>
        <time>2021-08-15T06:28:02Z</time>
      </trkpt>
      <trkpt lat="45.87061" lon="3.06081">
        <ele>491</ele>
        <time>2021-08-15T06:28:03Z</time>
      </trkpt>
      <trkpt lat="45.87063" lon="3.06083">
        <ele>491</ele>
        <time>2021-08-15T06:28:04Z</time>
      </trkpt>
      <trkpt lat="45.87063" lon="3.06085">
        <ele>491</ele>
        <time>2021-08-15T06:28:05Z</time>
      </trkpt>
      <trkpt lat="45.87065" lon="3.06087">
        <ele>491</ele>
        <time>2021-08-15T06:28:06Z</time>
      </trkpt>
      <trkpt lat="45.87066" lon="3.06089">
        <ele>491</ele>
        <time>2021-08-15T06:28:07Z</time>
      </trkpt>
      <trkpt lat="45.87067" lon="3.06092">
        <ele>491</ele>
        <time>2021-08-15T06:28:08Z</time>
      </trkpt>
      <trkpt lat="45.87069" lon="3.06095">
        <ele>491</ele>
        <time>2021-08-15T06:28:09Z</time>
      </trkpt>
      <trkpt lat="45.87069" lon="3.06098">
        <ele>491</ele>
        <time>2021-08-15T06:28:10Z</time>
      </trkpt>
      <trkpt lat="45.87071" lon="3.061">
        <ele>491</ele>
        <time>2021-08-15T06:28:11Z</time>
      </trkpt>
      <trkpt lat="45.87072" lon="3.06103">
        <ele>491</ele>
        <time>2021-08-15T06:28:12Z</time>
      </trkpt>
      <trkpt lat="45.87072" lon="3.06105">
        <ele>491</ele>
        <time>2021-08-15T06:28:13Z</time>
      </trkpt>
      <trkpt lat="45.87074" lon="3.06107">
        <ele>491</ele>
        <time>2021-08-15T06:28:14Z</time>
      </trkpt>
      <trkpt lat="45.87075" lon="3.06109">
        <ele>491</ele>
        <time>2021-08-15T06:28:15Z</time>
      </trkpt>
      <trkpt lat="45.87075" lon="3.06111">
        <ele>491</ele>
        <time>2021-08-15T06:28:16Z</time>
      </trkpt>
      <trkpt lat="45.87077" lon="3.06113">
        <ele>491</ele>
        <time>2021-08-15T06:28:17Z</time>
      </trkpt>
      <trkpt lat="45.87078" lon="3.06114">
        <ele>491</ele>
        <time>2021-08-15T06:28:18Z</time>
      </trkpt>
      <trkpt lat="45.87079" lon="3.06116">
        <ele>491</ele>
        <time>2021-08-15T06:28:19Z</time>
      </trkpt>
      <trkpt lat="45.8708" lon="3.06118">
        <ele>491</ele>
        <time>2021-08-15T06:28:20Z</time>
      </trkpt>
      <trkpt lat="45.87081" lon="3.0612">
        <ele>491</ele>
        <time>2021-08-15T06:28:21Z</time>
      </trkpt>
      <trkpt lat="45.87082" lon="3.06123">
        <ele>491</ele>
        <time>2021-08-15T06:28:22Z</time>
      </trkpt>
      <trkpt lat="45.87083" lon="3.06125">
        <ele>491</ele>
        <time>2021-08-15T06:28:23Z</time>
      </trkpt>
      <trkpt lat="45.87084" lon="3.06128">
        <ele>491</ele>
        <time>2021-08-15T06:28:24Z</time>
      </trkpt>
      <trkpt lat="45.87085" lon="3.0613">
        <ele>491</ele>
        <time>2021-08-15T06:28:25Z</time>
      </trkpt>
      <trkpt lat="45.87087" lon="3.06133">
        <ele>491</ele>
        <time>2021-08-15T06:28:26Z</time>
      </trkpt>
      <trkpt lat="45.87087" lon="3.06135">
        <ele>491</ele>
        <time>2021-08-15T06:28:27Z</time>
      </trkpt>
      <trkpt lat="45.87088" lon="3.06138">
        <ele>491</ele>
        <time>2021-08-15T06:28:28Z</time>
      </trkpt>
      <trkpt lat="45.8709" lon="3.0614">
        <ele>491</ele>
        <time>2021-08-15T06:28:29Z</time>
      </trkpt>
      <trkpt lat="45.8709" lon="3.06142">
        <ele>491</ele>
        <time>2021-08-15T06:28:30Z</time>
      </trkpt>
      <trkpt lat="45.87091" lon="3.06144">
        <ele>491</ele>
        <time>2021-08-15T06:28:31Z</time>
      </trkpt>
      <trkpt lat="45.87093" lon="3.06146">
        <ele>491</ele>
        <time>2021-08-15T06:28:32Z</time>
      </trkpt>
      <trkpt lat="45.87094" lon="3.06149">
        <ele>491</ele>
        <time>2021-08-15T06:28:33Z</time>
      </trkpt>
      <trkpt lat="45.87095" lon="3.06152">
        <ele>491</ele>
        <time>2021-08-15T06:28:34Z</time>
      </trkpt>
      <trkpt lat="45.87096" lon="3.06154">
        <ele>491</ele>
        <time>2021-08-15T06:28:35Z</time>
      </trkpt>
      <trkpt lat="45.87098" lon="3.06156">
        <ele>491</ele>
        <time>2021-08-15T06:28:36Z</time>
      </trkpt>
      <trkpt lat="45.87099" lon="3.06158">
        <ele>491</ele>
        <time>2021-08-15T06:28:37Z</time>
      </trkpt>
      <trkpt lat="45.871" lon="3.0616">
        <ele>491</ele>
        <time>2021-08-15T06:28:38Z</time>
      </trkpt>
      <trkpt lat="45.87101" lon="3.06162">
        <ele>491</ele>
        <time>2021-08-15T06:28:39Z</time>
      </trkpt>
      <trkpt lat="45.87102" lon="3.06164">
        <ele>491</ele>
        <time>2021-08-15T06:28:40Z</time>
      </trkpt>
      <trkpt lat="45.87102" lon="3.06167">
        <ele>491</ele>
        <time>2021-08-15T06:28:41Z</time>
      </trkpt>
      <trkpt lat="45.87103" lon="3.06169">
        <ele>491</ele>
        <time>2021-08-15T06:28:42Z</time>
      </trkpt>
      <trkpt lat="45.87104" lon="3.06172">
        <ele>491</ele>
        <time>2021-08-15T06:28:43Z</time>
      </trkpt>
      <trkpt lat="45.87104" lon="3.06174">
        <ele>491</ele>
        <time>2021-08-15T06:28:44Z</time>
      </trkpt>
      <trkpt lat="45.87105" lon="3.06177">
        <ele>491</ele>
        <time>2021-08-15T06:28:45Z</time>
      </trkpt>
      <trkpt lat="45.87106" lon="3.06179">
        <ele>491</ele>
        <time>2021-08-15T06:28:47Z</time>
      </trkpt>
      <trkpt lat="45.87106" lon="3.06181">
        <ele>491</ele>
        <time>2021-08-15T06:28:48Z</time>
      </trkpt>
      <trkpt lat="45.87108" lon="3.06188">
        <ele>491</ele>
        <time>2021-08-15T06:28:49Z</time>
      </trkpt>
      <trkpt lat="45.87108" lon="3.06188">
        <ele>491</ele>
        <time>2021-08-15T06:28:50Z</time>
      </trkpt>
      <trkpt lat="45.87108" lon="3.06189">
        <ele>491</ele>
        <time>2021-08-15T06:28:51Z</time>
      </trkpt>
      <trkpt lat="45.87107" lon="3.0619">
        <ele>491</ele>
        <time>2021-08-15T06:28:52Z</time>
      </trkpt>
      <trkpt lat="45.87107" lon="3.06192">
        <ele>491</ele>
        <time>2021-08-15T06:28:53Z</time>
      </trkpt>
      <trkpt lat="45.87107" lon="3.06193">
        <ele>491</ele>
        <time>2021-08-15T06:28:54Z</time>
      </trkpt>
      <trkpt lat="45.87108" lon="3.06194">
        <ele>491</ele>
        <time>2021-08-15T06:28:55Z</time>
      </trkpt>
      <trkpt lat="45.87108" lon="3.06196">
        <ele>491</ele>
        <time>2021-08-15T06:28:56Z</time>
      </trkpt>
      <trkpt lat="45.87108" lon="3.06198">
        <ele>491</ele>
        <time>2021-08-15T06:28:57Z</time>
      </trkpt>
      <trkpt lat="45.87108" lon="3.06199">
        <ele>491</ele>
        <time>2021-08-15T06:28:58Z</time>
      </trkpt>
      <trkpt lat="45.87108" lon="3.06201">
        <ele>491</ele>
        <time>2021-08-15T06:28:59Z</time>
      </trkpt>
      <trkpt lat="45.87108" lon="3.06203">
        <ele>491</ele>
        <time>2021-08-15T06:29:00Z</time>
      </trkpt>
      <trkpt lat="45.87109" lon="3.06205">
        <ele>491</ele>
        <time>2021-08-15T06:29:01Z</time>
      </trkpt>
      <trkpt lat="45.87109" lon="3.06207">
        <ele>491</ele>
        <time>2021-08-15T06:29:02Z</time>
      </trkpt>
      <trkpt lat="45.87109" lon="3.06209">
        <ele>491</ele>
        <time>2021-08-15T06:29:03Z</time>
      </trkpt>
      <trkpt lat="45.8711" lon="3.06211">
        <ele>491</ele>
        <time>2021-08-15T06:29:04Z</time>
      </trkpt>
      <trkpt lat="45.87111" lon="3.06213">
        <ele>491</ele>
        <time>2021-08-15T06:29:05Z</time>
      </trkpt>
      <trkpt lat="45.87111" lon="3.06215">
        <ele>491</ele>
        <time>2021-08-15T06:29:06Z</time>
      </trkpt>
      <trkpt lat="45.87111" lon="3.06218">
        <ele>491</ele>
        <time>2021-08-15T06:29:07Z</time>
      </trkpt>
      <trkpt lat="45.87111" lon="3.0622">
        <ele>491</ele>
        <time>2021-08-15T06:29:08Z</time>
      </trkpt>
      <trkpt lat="45.87112" lon="3.06222">
        <ele>491</ele>
        <time>2021-08-15T06:29:09Z</time>
      </trkpt>
      <trkpt lat="45.87112" lon="3.06225">
        <ele>491</ele>
        <time>2021-08-15T06:29:10Z</time>
      </trkpt>
      <trkpt lat="45.87112" lon="3.06227">
        <ele>491</ele>
        <time>2021-08-15T06:29:11Z</time>
      </trkpt>
      <trkpt lat="45.87113" lon="3.06228">
        <ele>491</ele>
        <time>2021-08-15T06:29:12Z</time>
      </trkpt>
      <trkpt lat="45.87113" lon="3.0623">
        <ele>491</ele>
        <time>2021-08-15T06:29:13Z</time>
      </trkpt>
      <trkpt lat="45.87113" lon="3.06233">
        <ele>491</ele>
        <time>2021-08-15T06:29:14Z</time>
      </trkpt>
      <trkpt lat="45.87113" lon="3.06235">
        <ele>491</ele>
        <time>2021-08-15T06:29:15Z</time>
      </trkpt>
      <trkpt lat="45.87113" lon="3.06237">
        <ele>491</ele>
        <time>2021-08-15T06:29:16Z</time>
      </trkpt>
      <trkpt lat="45.87113" lon="3.0624">
        <ele>491</ele>
        <time>2021-08-15T06:29:17Z</time>
      </trkpt>
      <trkpt lat="45.87113" lon="3.06242">
        <ele>491</ele>
        <time>2021-08-15T06:29:18Z</time>
      </trkpt>
      <trkpt lat="45.87113" lon="3.06244">
        <ele>491</ele>
        <time>2021-08-15T06:29:19Z</time>
      </trkpt>
      <trkpt lat="45.87112" lon="3.06246">
        <ele>491</ele>
        <time>2021-08-15T06:29:20Z</time>
      </trkpt>
      <trkpt lat="45.87112" lon="3.06249">
        <ele>491</ele>
        <time>2021-08-15T06:29:21Z</time>
      </trkpt>
      <trkpt lat="45.87112" lon="3.06251">
        <ele>491</ele>
        <time>2021-08-15T06:29:22Z</time>
      </trkpt>
      <trkpt lat="45.87112" lon="3.06253">
        <ele>491</ele>
        <time>2021-08-15T06:29:23Z</time>
      </trkpt>
      <trkpt lat="45.87112" lon="3.06256">
        <ele>491</ele>
        <time>2021-08-15T06:29:24Z</time>
      </trkpt>
      <trkpt lat="45.87112" lon="3.06258">
        <ele>491</ele>
        <time>2021-08-15T06:29:25Z</time>
      </trkpt>
      <trkpt lat="45.87111" lon="3.0626">
        <ele>491</ele>
        <time>2021-08-15T06:29:26Z</time>
      </trkpt>
      <trkpt lat="45.87111" lon="3.06263">
        <ele>491</ele>
        <time>2021-08-15T06:29:27Z</time>
      </trkpt>
      <trkpt lat="45.87111" lon="3.06265">
        <ele>491</ele>
        <time>2021-08-15T06:29:28Z</time>
      </trkpt>
      <trkpt lat="45.87111" lon="3.06267">
        <ele>491</ele>
        <time>2021-08-15T06:29:29Z</time>
      </trkpt>
      <trkpt lat="45.87111" lon="3.06269">
        <ele>491</ele>
        <time>2021-08-15T06:29:30Z</time>
      </trkpt>
      <trkpt lat="45.87111" lon="3.06271">
        <ele>491</ele>
        <time>2021-08-15T06:29:31Z</time>
      </trkpt>
      <trkpt lat="45.87111" lon="3.06273">
        <ele>491</ele>
        <time>2021-08-15T06:29:32Z</time>
      </trkpt>
      <trkpt lat="45.87111" lon="3.06276">
        <ele>491</ele>
        <time>2021-08-15T06:29:33Z</time>
      </trkpt>
      <trkpt lat="45.87111" lon="3.06279">
        <ele>491</ele>
        <time>2021-08-15T06:29:34Z</time>
      </trkpt>
      <trkpt lat="45.87111" lon="3.06281">
        <ele>491</ele>
        <time>2021-08-15T06:29:35Z</time>
      </trkpt>
      <trkpt lat="45.87111" lon="3.06284">
        <ele>491</ele>
        <time>2021-08-15T06:29:36Z</time>
      </trkpt>
      <trkpt lat="45.87111" lon="3.06286">
        <ele>491</ele>
        <time>2021-08-15T06:29:37Z</time>
      </trkpt>
      <trkpt lat="45.87111" lon="3.06289">
        <ele>491</ele>
        <time>2021-08-15T06:29:37Z</time>
      </trkpt>
      <trkpt lat="45.87111" lon="3.06291">
        <ele>491</ele>
        <time>2021-08-15T06:29:38Z</time>
      </trkpt>
      <trkpt lat="45.87111" lon="3.06294">
        <ele>491</ele>
        <time>2021-08-15T06:29:39Z</time>
      </trkpt>
      <trkpt lat="45.8711" lon="3.06297">
        <ele>491</ele>
        <time>2021-08-15T06:29:40Z</time>
      </trkpt>
      <trkpt lat="45.87109" lon="3.06299">
        <ele>491</ele>
        <time>2021-08-15T06:29:41Z</time>
      </trkpt>
      <trkpt lat="45.87109" lon="3.06302">
        <ele>491</ele>
        <time>2021-08-15T06:29:42Z</time>
      </trkpt>
      <trkpt lat="45.87109" lon="3.06305">
        <ele>491</ele>
        <time>2021-08-15T06:29:43Z</time>
      </trkpt>
      <trkpt lat="45.87109" lon="3.06308">
        <ele>491</ele>
        <time>2021-08-15T06:29:44Z</time>
      </trkpt>
      <trkpt lat="45.87109" lon="3.06311">
        <ele>491</ele>
        <time>2021-08-15T06:29:45Z</time>
      </trkpt>
      <trkpt lat="45.87108" lon="3.06313">
        <ele>491</ele>
        <time>2021-08-15T06:29:47Z</time>
      </trkpt>
      <trkpt lat="45.87108" lon="3.06322">
        <ele>491</ele>
        <time>2021-08-15T06:29:48Z</time>
      </trkpt>
      <trkpt lat="45.87108" lon="3.06323">
        <ele>491</ele>
        <time>2021-08-15T06:29:49Z</time>
      </trkpt>
      <trkpt lat="45.87108" lon="3.06324">
        <ele>491</ele>
        <time>2021-08-15T06:29:50Z</time>
      </trkpt>
      <trkpt lat="45.87108" lon="3.06325">
        <ele>491</ele>
        <time>2021-08-15T06:29:51Z</time>
      </trkpt>
      <trkpt lat="45.87109" lon="3.06327">
        <ele>491</ele>
        <time>2021-08-15T06:29:52Z</time>
      </trkpt>
      <trkpt lat="45.87109" lon="3.06328">
        <ele>491</ele>
        <time>2021-08-15T06:29:53Z</time>
      </trkpt>
      <trkpt lat="45.87109" lon="3.0633">
        <ele>491</ele>
        <time>2021-08-15T06:29:54Z</time>
      </trkpt>
      <trkpt lat="45.8711" lon="3.06332">
        <ele>491</ele>
        <time>2021-08-15T06:29:55Z</time>
      </trkpt>
      <trkpt lat="45.8711" lon="3.06333">
        <ele>491</ele>
        <time>2021-08-15T06:29:56Z</time>
      </trkpt>
      <trkpt lat="45.87111" lon="3.06335">
        <ele>491</ele>
        <time>2021-08-15T06:29:57Z</time>
      </trkpt>
      <trkpt lat="45.87111" lon="3.06337">
        <ele>491</ele>
        <time>2021-08-15T06:29:58Z</time>
      </trkpt>
      <trkpt lat="45.87111" lon="3.06339">
        <ele>491</ele>
        <time>2021-08-15T06:29:59Z</time>
      </trkpt>
      <trkpt lat="45.87111" lon="3.0634">
        <ele>491</ele>
        <time>2021-08-15T06:30:00Z</time>
      </trkpt>
      <trkpt lat="45.87112" lon="3.06342">
        <ele>491</ele>
        <time>2021-08-15T06:30:01Z</time>
      </trkpt>
      <trkpt lat="45.87112" lon="3.06344">
        <ele>491</ele>
        <time>2021-08-15T06:30:02Z</time>
      </trkpt>
      <trkpt lat="45.87112" lon="3.06347">
        <ele>491</ele>
        <time>2021-08-15T06:30:03Z</time>
      </trkpt>
      <trkpt lat="45.87112" lon="3.06349">
        <ele>491</ele>
        <time>2021-08-15T06:30:04Z</time>
      </trkpt>
      <trkpt lat="45.87112" lon="3.06351">
        <ele>491</ele>
        <time>2021-08-15T06:30:05Z</time>
      </trkpt>
      <trkpt lat="45.87111" lon="3.06354">
        <ele>491</ele>
        <time>2021-08-15T06:30:06Z</time>
      </trkpt>
      <trkpt lat="45.87111" lon="3.06357">
        <ele>491</ele>
        <time>2021-08-15T06:30:07Z</time>
      </trkpt>
      <trkpt lat="45.87111" lon="3.0636">
        <ele>491</ele>
        <time>2021-08-15T06:30:08Z</time>
      </trkpt>
      <trkpt lat="45.87111" lon="3.06363">
        <ele>491</ele>
        <time>2021-08-15T06:30:09Z</time>
      </trkpt>
      <trkpt lat="45.87111" lon="3.06365">
        <ele>491</ele>
        <time>2021-08-15T06:30:10Z</time>
      </trkpt>
      <trkpt lat="45.87111" lon="3.06368">
        <ele>491</ele>
        <time>2021-08-15T06:30:11Z</time>
      </trkpt>
      <trkpt lat="45.87111" lon="3.0637">
        <ele>491</ele>
        <time>2021-08-15T06:30:12Z</time>
      </trkpt>
      <trkpt lat="45.87111" lon="3.06372">
        <ele>491</ele>
        <time>2021-08-15T06:30:13Z</time>
      </trkpt>
      <trkpt lat="45.87111" lon="3.06374">
        <ele>491</ele>
        <time>2021-08-15T06:30:14Z</time>
      </trkpt>
      <trkpt lat="45.87111" lon="3.06376">
        <ele>491</ele>
        <time>2021-08-15T06:30:15Z</time>
      </trkpt>
      <trkpt lat="45.87111" lon="3.06378">
        <ele>491</ele>
        <time>2021-08-15T06:30:16Z</time>
      </trkpt>
      <trkpt lat="45.87111" lon="3.0638">
        <ele>491</ele>
        <time>2021-08-15T06:30:17Z</time>
      </trkpt>
      <trkpt lat="45.87111" lon="3.06382">
        <ele>491</ele>
        <time>2021-08-15T06:30:18Z</time>
      </trkpt>
      <trkpt lat="45.87111" lon="3.06384">
        <ele>491</ele>
        <time>2021-08-15T06:30:19Z</time>
      </trkpt>
      <trkpt lat="45.87111" lon="3.06387">
        <ele>491</ele>
        <time>2021-08-15T06:30:20Z</time>
      </trkpt>
      <trkpt lat="45.87111" lon="3.06389">
        <ele>491</ele>
        <time>2021-08-15T06:30:21Z</time>
      </trkpt>
      <trkpt lat="45.87111" lon="3.06391">
        <ele>491</ele>
        <time>2021-08-15T06:30:22Z</time>
      </trkpt>
      <trkpt lat="45.87111" lon="3.06394">
        <ele>491</ele>
        <time>2021-08-15T06:30:23Z</time>
      </trkpt>
      <trkpt lat="45.87111" lon="3.06396">
        <ele>491</ele>
        <time>2021-08-15T06:30:24Z</time>
      </trkpt>
      <trkpt lat="45.87111" lon="3.06399">
        <ele>491</ele>
        <time>2021-08-15T06:30:25Z</time>
      </trkpt>
      <trkpt lat="45.87111" lon="3.06401">
        <ele>491</ele>
        <time>2021-08-15T06:30:26Z</time>
      </trkpt>
      <trkpt lat="45.87111" lon="3.06404">
        <ele>491</ele>
        <time>2021-08-15T06:30:27Z</time>
      </trkpt>
      <trkpt lat="45.87111" lon="3.06406">
        <ele>491</ele>
        <time>2021-08-15T06:30:28Z</time>
      </trkpt>
      <trkpt lat="45.87112" lon="3.06409">
        <ele>491</ele>
        <time>2021-08-15T06:30:29Z</time>
      </trkpt>
      <trkpt lat="45.87112" lon="3.06411">
        <ele>491</ele>
        <time>2021-08-15T06:30:30Z</time>
      </trkpt>
      <trkpt lat="45.87112" lon="3.06413">
        <ele>491</ele>
        <time>2021-08-15T06:30:31Z</time>
      </trkpt>
      <trkpt lat="45.87113" lon="3.06416">
        <ele>491</ele>
        <time>2021-08-15T06:30:32Z</time>
      </trkpt>
      <trkpt lat="45.87114" lon="3.06418">
        <ele>491</ele>
        <time>2021-08-15T06:30:33Z</time>
      </trkpt>
      <trkpt lat="45.87114" lon="3.06421">
        <ele>491</ele>
        <time>2021-08-15T06:30:34Z</time>
      </trkpt>
      <trkpt lat="45.87114" lon="3.06424">
        <ele>491</ele>
        <time>2021-08-15T06:30:35Z</time>
      </trkpt>
      <trkpt lat="45.87114" lon="3.06427">
        <ele>491</ele>
        <time>2021-08-15T06:30:36Z</time>
      </trkpt>
      <trkpt lat="45.87114" lon="3.0643">
        <ele>491</ele>
        <time>2021-08-15T06:30:37Z</time>
      </trkpt>
      <trkpt lat="45.87114" lon="3.06433">
        <ele>491</ele>
        <time>2021-08-15T06:30:38Z</time>
      </trkpt>
      <trkpt lat="45.87115" lon="3.06436">
        <ele>491</ele>
        <time>2021-08-15T06:30:39Z</time>
      </trkpt>
      <trkpt lat="45.87115" lon="3.06438">
        <ele>491</ele>
        <time>2021-08-15T06:30:40Z</time>
      </trkpt>
      <trkpt lat="45.87115" lon="3.06441">
        <ele>491</ele>
        <time>2021-08-15T06:30:41Z</time>
      </trkpt>
      <trkpt lat="45.87115" lon="3.06443">
        <ele>491</ele>
        <time>2021-08-15T06:30:42Z</time>
      </trkpt>
      <trkpt lat="45.87115" lon="3.06446">
        <ele>491</ele>
        <time>2021-08-15T06:30:43Z</time>
      </trkpt>
      <trkpt lat="45.87115" lon="3.06448">
        <ele>491</ele>
        <time>2021-08-15T06:30:44Z</time>
      </trkpt>
      <trkpt lat="45.87115" lon="3.06451">
        <ele>491</ele>
        <time>2021-08-15T06:30:45Z</time>
      </trkpt>
      <trkpt lat="45.87115" lon="3.06454">
        <ele>491</ele>
        <time>2021-08-15T06:30:46Z</time>
      </trkpt>
      <trkpt lat="45.87115" lon="3.06457">
        <ele>491</ele>
        <time>2021-08-15T06:30:47Z</time>
      </trkpt>
      <trkpt lat="45.87115" lon="3.06459">
        <ele>491</ele>
        <time>2021-08-15T06:30:48Z</time>
      </trkpt>
      <trkpt lat="45.87115" lon="3.06462">
        <ele>491</ele>
        <time>2021-08-15T06:30:49Z</time>
      </trkpt>
      <trkpt lat="45.87116" lon="3.06465">
        <ele>491</ele>
        <time>2021-08-15T06:30:50Z</time>
      </trkpt>
      <trkpt lat="45.87116" lon="3.06467">
        <ele>491</ele>
        <time>2021-08-15T06:30:51Z</time>
      </trkpt>
      <trkpt lat="45.87116" lon="3.0647">
        <ele>491</ele>
        <time>2021-08-15T06:30:52Z</time>
      </trkpt>
      <trkpt lat="45.87116" lon="3.06473">
        <ele>491</ele>
        <time>2021-08-15T06:30:53Z</time>
      </trkpt>
      <trkpt lat="45.87116" lon="3.06475">
        <ele>491</ele>
        <time>2021-08-15T06:30:54Z</time>
      </trkpt>
      <trkpt lat="45.87116" lon="3.06477">
        <ele>491</ele>
        <time>2021-08-15T06:30:55Z</time>
      </trkpt>
      <trkpt lat="45.87116" lon="3.0648">
        <ele>491</ele>
        <time>2021-08-15T06:30:56Z</time>
      </trkpt>
      <trkpt lat="45.87116" lon="3.06482">
        <ele>491</ele>
        <time>2021-08-15T06:30:57Z</time>
      </trkpt>
      <trkpt lat="45.87116" lon="3.06484">
        <ele>491</ele>
        <time>2021-08-15T06:30:58Z</time>
      </trkpt>
      <trkpt lat="45.87116" lon="3.06486">
        <ele>491</ele>
        <time>2021-08-15T06:30:59Z</time>
      </trkpt>
      <trkpt lat="45.87116" lon="3.06488">
        <ele>491</ele>
        <time>2021-08-15T06:31:00Z</time>
      </trkpt>
      <trkpt lat="45.87116" lon="3.0649">
        <ele>491</ele>
        <time>2021-08-15T06:31:01Z</time>
      </trkpt>
      <trkpt lat="45.87116" lon="3.06492">
        <ele>491</ele>
        <time>2021-08-15T06:31:02Z</time>
      </trkpt>
      <trkpt lat="45.87116" lon="3.06494">
        <ele>491</ele>
        <time>2021-08-15T06:31:03Z</time>
      </trkpt>
      <trkpt lat="45.87117" lon="3.06496">
        <ele>491</ele>
        <time>2021-08-15T06:31:04Z</time>
      </trkpt>
      <trkpt lat="45.87117" lon="3.06498">
        <ele>491</ele>
        <time>2021-08-15T06:31:05Z</time>
      </trkpt>
      <trkpt lat="45.87117" lon="3.065">
        <ele>491</ele>
        <time>2021-08-15T06:31:06Z</time>
      </trkpt>
      <trkpt lat="45.87117" lon="3.06502">
        <ele>491</ele>
        <time>2021-08-15T06:31:07Z</time>
      </trkpt>
      <trkpt lat="45.87117" lon="3.06504">
        <ele>491</ele>
        <time>2021-08-15T06:31:08Z</time>
      </trkpt>
      <trkpt lat="45.87118" lon="3.06506">
        <ele>491</ele>
        <time>2021-08-15T06:31:09Z</time>
      </trkpt>
      <trkpt lat="45.87119" lon="3.06508">
        <ele>491</ele>
        <time>2021-08-15T06:31:10Z</time>
      </trkpt>
      <trkpt lat="45.87119" lon="3.0651">
        <ele>491</ele>
        <time>2021-08-15T06:31:11Z</time>
      </trkpt>
      <trkpt lat="45.87119" lon="3.06512">
        <ele>491</ele>
        <time>2021-08-15T06:31:12Z</time>
      </trkpt>
      <trkpt lat="45.8712" lon="3.06515">
        <ele>491</ele>
        <time>2021-08-15T06:31:13Z</time>
      </trkpt>
      <trkpt lat="45.8712" lon="3.06517">
        <ele>491</ele>
        <time>2021-08-15T06:31:14Z</time>
      </trkpt>
      <trkpt lat="45.87121" lon="3.06519">
        <ele>491</ele>
        <time>2021-08-15T06:31:15Z</time>
      </trkpt>
      <trkpt lat="45.87122" lon="3.06521">
        <ele>491</ele>
        <time>2021-08-15T06:31:16Z</time>
      </trkpt>
      <trkpt lat="45.87123" lon="3.06523">
        <ele>491</ele>
        <time>2021-08-15T06:31:17Z</time>
      </trkpt>
      <trkpt lat="45.87123" lon="3.06526">
        <ele>491</ele>
        <time>2021-08-15T06:31:18Z</time>
      </trkpt>
      <trkpt lat="45.87124" lon="3.06528">
        <ele>491</ele>
        <time>2021-08-15T06:31:19Z</time>
      </trkpt>
      <trkpt lat="45.87125" lon="3.06531">
        <ele>491</ele>
        <time>2021-08-15T06:31:20Z</time>
      </trkpt>
      <trkpt lat="45.87125" lon="3.06533">
        <ele>491</ele>
        <time>2021-08-15T06:31:21Z</time>
      </trkpt>
      <trkpt lat="45.87126" lon="3.06536">
        <ele>491</ele>
        <time>2021-08-15T06:31:22Z</time>
      </trkpt>
      <trkpt lat="45.87126" lon="3.06538">
        <ele>491</ele>
        <time>2021-08-15T06:31:23Z</time>
      </trkpt>
      <trkpt lat="45.87127" lon="3.06541">
        <ele>491</ele>
        <time>2021-08-15T06:31:24Z</time>
      </trkpt>
      <trkpt lat="45.87127" lon="3.06544">
        <ele>491</ele>
        <time>2021-08-15T06:31:25Z</time>
      </trkpt>
      <trkpt lat="45.87127" lon="3.06547">
        <ele>491</ele>
        <time>2021-08-15T06:31:26Z</time>
      </trkpt>
      <trkpt lat="45.87127" lon="3.0655">
        <ele>491</ele>
        <time>2021-08-15T06:31:27Z</time>
      </trkpt>
      <trkpt lat="45.87127" lon="3.06554">
        <ele>491</ele>
        <time>2021-08-15T06:31:28Z</time>
      </trkpt>
      <trkpt lat="45.87127" lon="3.06557">
        <ele>491</ele>
        <time>2021-08-15T06:31:29Z</time>
      </trkpt>
      <trkpt lat="45.87127" lon="3.0656">
        <ele>491</ele>
        <time>2021-08-15T06:31:30Z</time>
      </trkpt>
      <trkpt lat="45.87127" lon="3.06563">
        <ele>491</ele>
        <time>2021-08-15T06:31:31Z</time>
      </trkpt>
      <trkpt lat="45.87127" lon="3.06566">
        <ele>491</ele>
        <time>2021-08-15T06:31:32Z</time>
      </trkpt>
      <trkpt lat="45.87127" lon="3.06568">
        <ele>491</ele>
        <time>2021-08-15T06:31:33Z</time>
      </trkpt>
      <trkpt lat="45.87127" lon="3.06571">
        <ele>491</ele>
        <time>2021-08-15T06:31:34Z</time>
      </trkpt>
      <trkpt lat="45.87128" lon="3.06573">
        <ele>491</ele>
        <time>2021-08-15T06:31:35Z</time>
      </trkpt>
      <trkpt lat="45.87128" lon="3.06575">
        <ele>491</ele>
        <time>2021-08-15T06:31:36Z</time>
      </trkpt>
      <trkpt lat="45.87128" lon="3.06577">
        <ele>491</ele>
        <time>2021-08-15T06:31:37Z</time>
      </trkpt>
      <trkpt lat="45.87129" lon="3.0658">
        <ele>491</ele>
        <time>2021-08-15T06:31:38Z</time>
      </trkpt>
      <trkpt lat="45.8713" lon="3.06582">
        <ele>491</ele>
        <time>2021-08-15T06:31:39Z</time>
      </trkpt>
      <trkpt lat="45.8713" lon="3.06584">
        <ele>491</ele>
        <time>2021-08-15T06:31:40Z</time>
      </trkpt>
      <trkpt lat="45.87131" lon="3.06587">
        <ele>491</ele>
        <time>2021-08-15T06:31:41Z</time>
      </trkpt>
      <trkpt lat="45.87132" lon="3.06589">
        <ele>491</ele>
        <time>2021-08-15T06:31:42Z</time>
      </trkpt>
      <trkpt lat="45.87132" lon="3.06591">
        <ele>491</ele>
        <time>2021-08-15T06:31:43Z</time>
      </trkpt>
      <trkpt lat="45.87132" lon="3.06593">
        <ele>491</ele>
        <time>2021-08-15T06:31:44Z</time>
      </trkpt>
      <trkpt lat="45.87133" lon="3.06595">
        <ele>491</ele>
        <time>2021-08-15T06:31:45Z</time>
      </trkpt>
      <trkpt lat="45.87133" lon="3.06597">
        <ele>491</ele>
        <time>2021-08-15T06:31:47Z</time>
      </trkpt>
      <trkpt lat="45.87135" lon="3.06606">
        <ele>491</ele>
        <time>2021-08-15T06:31:48Z</time>
      </trkpt>
      <trkpt lat="45.87135" lon="3.06606">
        <ele>491</ele>
        <time>2021-08-15T06:31:49Z</time>
      </trkpt>
      <trkpt lat="45.87135" lon="3.06608">
        <ele>491</ele>
        <time>2021-08-15T06:31:50Z</time>
      </trkpt>
      <trkpt lat="45.87135" lon="3.0661">
        <ele>491</ele>
        <time>2021-08-15T06:31:51Z</time>
      </trkpt>
      <trkpt lat="45.87136" lon="3.06612">
        <ele>491</ele>
        <time>2021-08-15T06:31:52Z</time>
      </trkpt>
      <trkpt lat="45.87137" lon="3.06614">
        <ele>491</ele>
        <time>2021-08-15T06:31:53Z</time>
      </trkpt>
      <trkpt lat="45.87137" lon="3.06616">
        <ele>491</ele>
        <time>2021-08-15T06:31:54Z</time>
      </trkpt>
      <trkpt lat="45.87138" lon="3.06619">
        <ele>491</ele>
        <time>2021-08-15T06:31:55Z</time>
      </trkpt>
      <trkpt lat="45.87139" lon="3.06621">
        <ele>491</ele>
        <time>2021-08-15T06:31:56Z</time>
      </trkpt>
      <trkpt lat="45.87139" lon="3.06624">
        <ele>491</ele>
        <time>2021-08-15T06:31:57Z</time>
      </trkpt>
      <trkpt lat="45.8714" lon="3.06626">
        <ele>491</ele>
        <time>2021-08-15T06:31:58Z</time>
      </trkpt>
      <trkpt lat="45.87141" lon="3.06629">
        <ele>491</ele>
        <time>2021-08-15T06:31:59Z</time>
      </trkpt>
      <trkpt lat="45.87142" lon="3.06631">
        <ele>491</ele>
        <time>2021-08-15T06:32:00Z</time>
      </trkpt>
      <trkpt lat="45.87143" lon="3.06634">
        <ele>491</ele>
        <time>2021-08-15T06:32:01Z</time>
      </trkpt>
      <trkpt lat="45.87143" lon="3.06635">
        <ele>491</ele>
        <time>2021-08-15T06:32:02Z</time>
      </trkpt>
      <trkpt lat="45.87144" lon="3.06637">
        <ele>491</ele>
        <time>2021-08-15T06:32:03Z</time>
      </trkpt>
      <trkpt lat="45.87145" lon="3.06639">
        <ele>491</ele>
        <time>2021-08-15T06:32:04Z</time>
      </trkpt>
      <trkpt lat="45.87145" lon="3.06641">
        <ele>491</ele>
        <time>2021-08-15T06:32:05Z</time>
      </trkpt>
      <trkpt lat="45.87146" lon="3.06643">
        <ele>491</ele>
        <time>2021-08-15T06:32:06Z</time>
      </trkpt>
      <trkpt lat="45.87147" lon="3.06645">
        <ele>491</ele>
        <time>2021-08-15T06:32:07Z</time>
      </trkpt>
      <trkpt lat="45.87149" lon="3.06647">
        <ele>491</ele>
        <time>2021-08-15T06:32:08Z</time>
      </trkpt>
      <trkpt lat="45.8715" lon="3.06649">
        <ele>491</ele>
        <time>2021-08-15T06:32:09Z</time>
      </trkpt>
      <trkpt lat="45.8715" lon="3.06652">
        <ele>491</ele>
        <time>2021-08-15T06:32:10Z</time>
      </trkpt>
      <trkpt lat="45.87151" lon="3.06654">
        <ele>491</ele>
        <time>2021-08-15T06:32:11Z</time>
      </trkpt>
      <trkpt lat="45.87153" lon="3.06656">
        <ele>491</ele>
        <time>2021-08-15T06:32:12Z</time>
      </trkpt>
      <trkpt lat="45.87154" lon="3.06659">
        <ele>491</ele>
        <time>2021-08-15T06:32:13Z</time>
      </trkpt>
      <trkpt lat="45.87155" lon="3.06661">
        <ele>491</ele>
        <time>2021-08-15T06:32:14Z</time>
      </trkpt>
      <trkpt lat="45.87156" lon="3.06664">
        <ele>491</ele>
        <time>2021-08-15T06:32:15Z</time>
      </trkpt>
      <trkpt lat="45.87157" lon="3.06666">
        <ele>491</ele>
        <time>2021-08-15T06:32:16Z</time>
      </trkpt>
      <trkpt lat="45.87159" lon="3.06669">
        <ele>491</ele>
        <time>2021-08-15T06:32:17Z</time>
      </trkpt>
      <trkpt lat="45.87161" lon="3.06672">
        <ele>491</ele>
        <time>2021-08-15T06:32:18Z</time>
      </trkpt>
      <trkpt lat="45.87162" lon="3.06676">
        <ele>491</ele>
        <time>2021-08-15T06:32:19Z</time>
      </trkpt>
      <trkpt lat="45.87163" lon="3.06679">
        <ele>491</ele>
        <time>2021-08-15T06:32:20Z</time>
      </trkpt>
      <trkpt lat="45.87163" lon="3.06683">
        <ele>491</ele>
        <time>2021-08-15T06:32:21Z</time>
      </trkpt>
      <trkpt lat="45.87164" lon="3.06686">
        <ele>491</ele>
        <time>2021-08-15T06:32:22Z</time>
      </trkpt>
      <trkpt lat="45.87164" lon="3.06689">
        <ele>491</ele>
        <time>2021-08-15T06:32:23Z</time>
      </trkpt>
      <trkpt lat="45.87164" lon="3.06692">
        <ele>491</ele>
        <time>2021-08-15T06:32:24Z</time>
      </trkpt>
      <trkpt lat="45.87165" lon="3.06695">
        <ele>491</ele>
        <time>2021-08-15T06:32:25Z</time>
      </trkpt>
      <trkpt lat="45.87166" lon="3.06697">
        <ele>491</ele>
        <time>2021-08-15T06:32:26Z</time>
      </trkpt>
      <trkpt lat="45.87167" lon="3.067">
        <ele>491</ele>
        <time>2021-08-15T06:32:27Z</time>
      </trkpt>
      <trkpt lat="45.87167" lon="3.06703">
        <ele>491</ele>
        <time>2021-08-15T06:32:28Z</time>
      </trkpt>
      <trkpt lat="45.87168" lon="3.06706">
        <ele>491</ele>
        <time>2021-08-15T06:32:29Z</time>
      </trkpt>
      <trkpt lat="45.87169" lon="3.06708">
        <ele>491</ele>
        <time>2021-08-15T06:32:30Z</time>
      </trkpt>
      <trkpt lat="45.87169" lon="3.06711">
        <ele>491</ele>
        <time>2021-08-15T06:32:31Z</time>
      </trkpt>
      <trkpt lat="45.8717" lon="3.06713">
        <ele>491</ele>
        <time>2021-08-15T06:32:32Z</time>
      </trkpt>
      <trkpt lat="45.8717" lon="3.06716">
        <ele>491</ele>
        <time>2021-08-15T06:32:33Z</time>
      </trkpt>
      <trkpt lat="45.87171" lon="3.06718">
        <ele>491</ele>
        <time>2021-08-15T06:32:34Z</time>
      </trkpt>
      <trkpt lat="45.87172" lon="3.06721">
        <ele>491</ele>
        <time>2021-08-15T06:32:35Z</time>
      </trkpt>
      <trkpt lat="45.87172" lon="3.06723">
        <ele>491</ele>
        <time>2021-08-15T06:32:36Z</time>
      </trkpt>
      <trkpt lat="45.87172" lon="3.06726">
        <ele>491</ele>
        <time>2021-08-15T06:32:37Z</time>
      </trkpt>
      <trkpt lat="45.87172" lon="3.06728">
        <ele>491</ele>
        <time>2021-08-15T06:32:38Z</time>
      </trkpt>
      <trkpt lat="45.87171" lon="3.0673">
        <ele>491</ele>
        <time>2021-08-15T06:32:39Z</time>
      </trkpt>
      <trkpt lat="45.87171" lon="3.06732">
        <ele>491</ele>
        <time>2021-08-15T06:32:40Z</time>
      </trkpt>
      <trkpt lat="45.8717" lon="3.06733">
        <ele>491</ele>
        <time>2021-08-15T06:32:41Z</time>
      </trkpt>
      <trkpt lat="45.8717" lon="3.06735">
        <ele>491</ele>
        <time>2021-08-15T06:32:42Z</time>
      </trkpt>
      <trkpt lat="45.87169" lon="3.06737">
        <ele>491</ele>
        <time>2021-08-15T06:32:43Z</time>
      </trkpt>
      <trkpt lat="45.87168" lon="3.06738">
        <ele>491</ele>
        <time>2021-08-15T06:32:44Z</time>
      </trkpt>
      <trkpt lat="45.87167" lon="3.06738">
        <ele>491</ele>
        <time>2021-08-15T06:32:45Z</time>
      </trkpt>
      <trkpt lat="45.87166" lon="3.06738">
        <ele>491</ele>
        <time>2021-08-15T06:32:47Z</time>
      </trkpt>
      <trkpt lat="45.87163" lon="3.06738">
        <ele>491</ele>
        <time>2021-08-15T06:32:48Z</time>
      </trkpt>
      <trkpt lat="45.87163" lon="3.06738">
        <ele>491</ele>
        <time>2021-08-15T06:32:49Z</time>
      </trkpt>
      <trkpt lat="45.87162" lon="3.06737">
        <ele>491</ele>
        <time>2021-08-15T06:32:50Z</time>
      </trkpt>
      <trkpt lat="45.87161" lon="3.06737">
        <ele>491</ele>
        <time>2021-08-15T06:32:51Z</time>
      </trkpt>
      <trkpt lat="45.87161" lon="3.06736">
        <ele>491</ele>
        <time>2021-08-15T06:32:52Z</time>
      </trkpt>
      <trkpt lat="45.8716" lon="3.06735">
        <ele>491</ele>
        <time>2021-08-15T06:32:53Z</time>
      </trkpt>
      <trkpt lat="45.87159" lon="3.06734">
        <ele>491</ele>
        <time>2021-08-15T06:32:54Z</time>
      </trkpt>
      <trkpt lat="45.87159" lon="3.06733">
        <ele>491</ele>
        <time>2021-08-15T06:32:55Z</time>
      </trkpt>
      <trkpt lat="45.87158" lon="3.06732">
        <ele>491</ele>
        <time>2021-08-15T06:32:56Z</time>
      </trkpt>
      <trkpt lat="45.87157" lon="3.06731">
        <ele>491</ele>
        <time>2021-08-15T06:32:57Z</time>
      </trkpt>
      <trkpt lat="45.87157" lon="3.06729">
        <ele>491</ele>
        <time>2021-08-15T06:32:58Z</time>
      </trkpt>
      <trkpt lat="45.87156" lon="3.06727">
        <ele>491</ele>
        <time>2021-08-15T06:32:59Z</time>
      </trkpt>
      <trkpt lat="45.87156" lon="3.06725">
        <ele>491</ele>
        <time>2021-08-15T06:33:00Z</time>
      </trkpt>
      <trkpt lat="45.87156" lon="3.06723">
        <ele>491</ele>
        <time>2021-08-15T06:33:01Z</time>
      </trkpt>
      <trkpt lat="45.87156" lon="3.06721">
        <ele>491</ele>
        <time>2021-08-15T06:33:02Z</time>
      </trkpt>
      <trkpt lat="45.87155" lon="3.0672">
        <ele>491</ele>
        <time>2021-08-15T06:33:03Z</time>
      </trkpt>
      <trkpt lat="45.87154" lon="3.06718">
        <ele>491</ele>
        <time>2021-08-15T06:33:04Z</time>
      </trkpt>
      <trkpt lat="45.87154" lon="3.06716">
        <ele>491</ele>
        <time>2021-08-15T06:33:05Z</time>
      </trkpt>
      <trkpt lat="45.87153" lon="3.06715">
        <ele>491</ele>
        <time>2021-08-15T06:33:06Z</time>
      </trkpt>
      <trkpt lat="45.87153" lon="3.06713">
        <ele>491</ele>
        <time>2021-08-15T06:33:07Z</time>
      </trkpt>
      <trkpt lat="45.87152" lon="3.06711">
        <ele>491</ele>
        <time>2021-08-15T06:33:08Z</time>
      </trkpt>
      <trkpt lat="45.87151" lon="3.0671">
        <ele>491</ele>
        <time>2021-08-15T06:33:09Z</time>
      </trkpt>
      <trkpt lat="45.8715" lon="3.06709">
        <ele>491</ele>
        <time>2021-08-15T06:33:10Z</time>
      </trkpt>
      <trkpt lat="45.8715" lon="3.06707">
        <ele>491</ele>
        <time>2021-08-15T06:33:11Z</time>
      </trkpt>
      <trkpt lat="45.87149" lon="3.06706">
        <ele>491</ele>
        <time>2021-08-15T06:33:12Z</time>
      </trkpt>
      <trkpt lat="45.87148" lon="3.06704">
        <ele>491</ele>
        <time>2021-08-15T06:33:13Z</time>
      </trkpt>
      <trkpt lat="45.87147" lon="3.06703">
        <ele>491</ele>
        <time>2021-08-15T06:33:14Z</time>
      </trkpt>
      <trkpt lat="45.87146" lon="3.06701">
        <ele>491</ele>
        <time>2021-08-15T06:33:15Z</time>
      </trkpt>
      <trkpt lat="45.87145" lon="3.067">
        <ele>491</ele>
        <time>2021-08-15T06:33:16Z</time>
      </trkpt>
      <trkpt lat="45.87144" lon="3.06699">
        <ele>491</ele>
        <time>2021-08-15T06:33:17Z</time>
      </trkpt>
      <trkpt lat="45.87143" lon="3.06697">
        <ele>491</ele>
        <time>2021-08-15T06:33:18Z</time>
      </trkpt>
      <trkpt lat="45.87142" lon="3.06696">
        <ele>491</ele>
        <time>2021-08-15T06:33:19Z</time>
      </trkpt>
      <trkpt lat="45.87142" lon="3.06695">
        <ele>491</ele>
        <time>2021-08-15T06:33:20Z</time>
      </trkpt>
      <trkpt lat="45.87141" lon="3.06694">
        <ele>491</ele>
        <time>2021-08-15T06:33:21Z</time>
      </trkpt>
      <trkpt lat="45.8714" lon="3.06692">
        <ele>491</ele>
        <time>2021-08-15T06:33:22Z</time>
      </trkpt>
      <trkpt lat="45.87139" lon="3.06691">
        <ele>491</ele>
        <time>2021-08-15T06:33:23Z</time>
      </trkpt>
      <trkpt lat="45.87138" lon="3.0669">
        <ele>491</ele>
        <time>2021-08-15T06:33:24Z</time>
      </trkpt>
      <trkpt lat="45.87137" lon="3.06688">
        <ele>491</ele>
        <time>2021-08-15T06:33:25Z</time>
      </trkpt>
      <trkpt lat="45.87136" lon="3.06687">
        <ele>491</ele>
        <time>2021-08-15T06:33:26Z</time>
      </trkpt>
      <trkpt lat="45.87135" lon="3.06685">
        <ele>491</ele>
        <time>2021-08-15T06:33:27Z</time>
      </trkpt>
      <trkpt lat="45.87134" lon="3.06684">
        <ele>491</ele>
        <time>2021-08-15T06:33:28Z</time>
      </trkpt>
      <trkpt lat="45.87133" lon="3.06683">
        <ele>491</ele>
        <time>2021-08-15T06:33:29Z</time>
      </trkpt>
      <trkpt lat="45.87132" lon="3.06681">
        <ele>491</ele>
        <time>2021-08-15T06:33:30Z</time>
      </trkpt>
      <trkpt lat="45.87132" lon="3.0668">
        <ele>491</ele>
        <time>2021-08-15T06:33:31Z</time>
      </trkpt>
      <trkpt lat="45.87131" lon="3.06679">
        <ele>491</ele>
        <time>2021-08-15T06:33:32Z</time>
      </trkpt>
      <trkpt lat="45.8713" lon="3.06678">
        <ele>491</ele>
        <time>2021-08-15T06:33:33Z</time>
      </trkpt>
      <trkpt lat="45.8713" lon="3.06678">
        <ele>491</ele>
        <time>2021-08-15T06:33:34Z</time>
      </trkpt>
      <trkpt lat="45.87129" lon="3.06677">
        <ele>491</ele>
        <time>2021-08-15T06:33:35Z</time>
      </trkpt>
      <trkpt lat="45.87129" lon="3.06676">
        <ele>491</ele>
        <time>2021-08-15T06:33:36Z</time>
      </trkpt>
      <trkpt lat="45.87128" lon="3.06675">
        <ele>491</ele>
        <time>2021-08-15T06:33:37Z</time>
      </trkpt>
      <trkpt lat="45.87127" lon="3.06673">
        <ele>491</ele>
        <time>2021-08-15T06:33:38Z</time>
      </trkpt>
      <trkpt lat="45.87126" lon="3.06671">
        <ele>491</ele>
        <time>2021-08-15T06:33:39Z</time>
      </trkpt>
      <trkpt lat="45.87125" lon="3.06669">
        <ele>491</ele>
        <time>2021-08-15T06:33:40Z</time>
      </trkpt>
      <trkpt lat="45.87125" lon="3.06668">
        <ele>491</ele>
        <time>2021-08-15T06:33:41Z</time>
      </trkpt>
      <trkpt lat="45.87124" lon="3.06666">
        <ele>491</ele>
        <time>2021-08-15T06:33:42Z</time>
      </trkpt>
      <trkpt lat="45.87123" lon="3.06665">
        <ele>491</ele>
        <time>2021-08-15T06:33:43Z</time>
      </trkpt>
      <trkpt lat="45.87123" lon="3.06664">
        <ele>491</ele>
        <time>2021-08-15T06:33:45Z</time>
      </trkpt>
      <trkpt lat="45.87122" lon="3.06662">
        <ele>491</ele>
        <time>2021-08-15T06:33:46Z</time>
      </trkpt>
      <trkpt lat="45.8712" lon="3.06658">
        <ele>491</ele>
        <time>2021-08-15T06:33:47Z</time>
      </trkpt>
      <trkpt lat="45.8712" lon="3.06658">
        <ele>491</ele>
        <time>2021-08-15T06:33:48Z</time>
      </trkpt>
      <trkpt lat="45.87119" lon="3.06657">
        <ele>491</ele>
        <time>2021-08-15T06:33:49Z</time>
      </trkpt>
      <trkpt lat="45.87118" lon="3.06656">
        <ele>491</ele>
        <time>2021-08-15T06:33:50Z</time>
      </trkpt>
      <trkpt lat="45.87117" lon="3.06655">
        <ele>491</ele>
        <time>2021-08-15T06:33:51Z</time>
      </trkpt>
      <trkpt lat="45.87116" lon="3.06654">
        <ele>491</ele>
        <time>2021-08-15T06:33:52Z</time>
      </trkpt>
      <trkpt lat="45.87116" lon="3.06653">
        <ele>491</ele>
        <time>2021-08-15T06:33:52Z</time>
      </trkpt>
      <trkpt lat="45.87114" lon="3.06651">
        <ele>491</ele>
        <time>2021-08-15T06:33:53Z</time>
      </trkpt>
      <trkpt lat="45.87114" lon="3.0665">
        <ele>491</ele>
        <time>2021-08-15T06:33:54Z</time>
      </trkpt>
      <trkpt lat="45.87112" lon="3.06649">
        <ele>491</ele>
        <time>2021-08-15T06:33:55Z</time>
      </trkpt>
      <trkpt lat="45.87111" lon="3.06647">
        <ele>491</ele>
        <time>2021-08-15T06:33:56Z</time>
      </trkpt>
      <trkpt lat="45.87111" lon="3.06645">
        <ele>491</ele>
        <time>2021-08-15T06:33:57Z</time>
      </trkpt>
      <trkpt lat="45.87109" lon="3.06643">
        <ele>491</ele>
        <time>2021-08-15T06:33:58Z</time>
      </trkpt>
      <trkpt lat="45.87108" lon="3.06641">
        <ele>491</ele>
        <time>2021-08-15T06:33:59Z</time>
      </trkpt>
      <trkpt lat="45.87108" lon="3.0664">
        <ele>491</ele>
        <time>2021-08-15T06:34:00Z</time>
      </trkpt>
      <trkpt lat="45.87106" lon="3.06637">
        <ele>491</ele>
        <time>2021-08-15T06:34:01Z</time>
      </trkpt>
      <trkpt lat="45.87105" lon="3.06635">
        <ele>491</ele>
        <time>2021-08-15T06:34:02Z</time>
      </trkpt>
      <trkpt lat="45.87104" lon="3.06633">
        <ele>491</ele>
        <time>2021-08-15T06:34:03Z</time>
      </trkpt>
      <trkpt lat="45.87102" lon="3.06631">
        <ele>491</ele>
        <time>2021-08-15T06:34:04Z</time>
      </trkpt>
      <trkpt lat="45.87101" lon="3.06628">
        <ele>491</ele>
        <time>2021-08-15T06:34:05Z</time>
      </trkpt>
      <trkpt lat="45.871" lon="3.06626">
        <ele>491</ele>
        <time>2021-08-15T06:34:06Z</time>
      </trkpt>
      <trkpt lat="45.87099" lon="3.06623">
        <ele>491</ele>
        <time>2021-08-15T06:34:07Z</time>
      </trkpt>
      <trkpt lat="45.87098" lon="3.06621">
        <ele>491</ele>
        <time>2021-08-15T06:34:08Z</time>
      </trkpt>
      <trkpt lat="45.87096" lon="3.06619">
        <ele>491</ele>
        <time>2021-08-15T06:34:09Z</time>
      </trkpt>
      <trkpt lat="45.87096" lon="3.06617">
        <ele>491</ele>
        <time>2021-08-15T06:34:10Z</time>
      </trkpt>
      <trkpt lat="45.87095" lon="3.06615">
        <ele>491</ele>
        <time>2021-08-15T06:34:11Z</time>
      </trkpt>
      <trkpt lat="45.87093" lon="3.06613">
        <ele>491</ele>
        <time>2021-08-15T06:34:12Z</time>
      </trkpt>
      <trkpt lat="45.87093" lon="3.06611">
        <ele>491</ele>
        <time>2021-08-15T06:34:13Z</time>
      </trkpt>
      <trkpt lat="45.87091" lon="3.06609">
        <ele>491</ele>
        <time>2021-08-15T06:34:14Z</time>
      </trkpt>
      <trkpt lat="45.87091" lon="3.06607">
        <ele>491</ele>
        <time>2021-08-15T06:34:15Z</time>
      </trkpt>
      <trkpt lat="45.8709" lon="3.06604">
        <ele>491</ele>
        <time>2021-08-15T06:34:16Z</time>
      </trkpt>
      <trkpt lat="45.87088" lon="3.06602">
        <ele>491</ele>
        <time>2021-08-15T06:34:17Z</time>
      </trkpt>
      <trkpt lat="45.87087" lon="3.066">
        <ele>491</ele>
        <time>2021-08-15T06:34:18Z</time>
      </trkpt>
      <trkpt lat="45.87087" lon="3.06598">
        <ele>491</ele>
        <time>2021-08-15T06:34:19Z</time>
      </trkpt>
      <trkpt lat="45.87085" lon="3.06596">
        <ele>491</ele>
        <time>2021-08-15T06:34:20Z</time>
      </trkpt>
      <trkpt lat="45.87083" lon="3.06595">
        <ele>491</ele>
        <time>2021-08-15T06:34:21Z</time>
      </trkpt>
      <trkpt lat="45.87082" lon="3.06593">
        <ele>491</ele>
        <time>2021-08-15T06:34:22Z</time>
      </trkpt>
      <trkpt lat="45.87081" lon="3.06592">
        <ele>491</ele>
        <time>2021-08-15T06:34:23Z</time>
      </trkpt>
      <trkpt lat="45.8708" lon="3.06591">
        <ele>491</ele>
        <time>2021-08-15T06:34:24Z</time>
      </trkpt>
      <trkpt lat="45.87079" lon="3.0659">
        <ele>491</ele>
        <time>2021-08-15T06:34:25Z</time>
      </trkpt>
      <trkpt lat="45.87078" lon="3.06589">
        <ele>491</ele>
        <time>2021-08-15T06:34:26Z</time>
      </trkpt>
      <trkpt lat="45.87077" lon="3.06588">
        <ele>491</ele>
        <time>2021-08-15T06:34:27Z</time>
      </trkpt>
      <trkpt lat="45.87076" lon="3.06588">
        <ele>491</ele>
        <time>2021-08-15T06:34:28Z</time>
      </trkpt>
      <trkpt lat="45.87075" lon="3.06587">
        <ele>491</ele>
        <time>2021-08-15T06:34:29Z</time>
      </trkpt>
      <trkpt lat="45.87075" lon="3.06586">
        <ele>491</ele>
        <time>2021-08-15T06:34:30Z</time>
      </trkpt>
      <trkpt lat="45.87074" lon="3.06585">
        <ele>491</ele>
        <time>2021-08-15T06:34:31Z</time>
      </trkpt>
      <trkpt lat="45.87074" lon="3.06584">
        <ele>491</ele>
        <time>2021-08-15T06:34:32Z</time>
      </trkpt>
      <trkpt lat="45.87072" lon="3.06582">
        <ele>491</ele>
        <time>2021-08-15T06:34:33Z</time>
      </trkpt>
      <trkpt lat="45.87072" lon="3.06581">
        <ele>491</ele>
        <time>2021-08-15T06:34:34Z</time>
      </trkpt>
      <trkpt lat="45.87071" lon="3.06579">
        <ele>491</ele>
        <time>2021-08-15T06:34:35Z</time>
      </trkpt>
      <trkpt lat="45.87069" lon="3.06578">
        <ele>491</ele>
        <time>2021-08-15T06:34:36Z</time>
      </trkpt>
      <trkpt lat="45.87069" lon="3.06578">
        <ele>491</ele>
        <time>2021-08-15T06:34:37Z</time>
      </trkpt>
      <trkpt lat="45.87067" lon="3.06577">
        <ele>491</ele>
        <time>2021-08-15T06:34:38Z</time>
      </trkpt>
      <trkpt lat="45.87066" lon="3.06576">
        <ele>491</ele>
        <time>2021-08-15T06:34:39Z</time>
      </trkpt>
      <trkpt lat="45.87066" lon="3.06575">
        <ele>491</ele>
        <time>2021-08-15T06:34:40Z</time>
      </trkpt>
      <trkpt lat="45.87064" lon="3.06574">
        <ele>491</ele>
        <time>2021-08-15T06:34:41Z</time>
      </trkpt>
      <trkpt lat="45.87064" lon="3.06573">
        <ele>491</ele>
        <time>2021-08-15T06:34:42Z</time>
      </trkpt>
      <trkpt lat="45.87063" lon="3.06572">
        <ele>491</ele>
        <time>2021-08-15T06:34:43Z</time>
      </trkpt>
      <trkpt lat="45.87063" lon="3.06571">
        <ele>491</ele>
        <time>2021-08-15T06:34:44Z</time>
      </trkpt>
      <trkpt lat="45.87061" lon="3.0657">
        <ele>491</ele>
        <time>2021-08-15T06:34:46Z</time>
      </trkpt>
      <trkpt lat="45.87058" lon="3.06566">
        <ele>491</ele>
        <time>2021-08-15T06:34:47Z</time>
      </trkpt>
      <trkpt lat="45.87058" lon="3.06566">
        <ele>491</ele>
        <time>2021-08-15T06:34:48Z</time>
      </trkpt>
      <trkpt lat="45.87057" lon="3.06565">
        <ele>491</ele>
        <time>2021-08-15T06:34:49Z</time>
      </trkpt>
      <trkpt lat="45.87057" lon="3.06565">
        <ele>491</ele>
        <time>2021-08-15T06:34:50Z</time>
      </trkpt>
      <trkpt lat="45.87056" lon="3.06564">
        <ele>491</ele>
        <time>2021-08-15T06:34:52Z</time>
      </trkpt>
      <trkpt lat="45.87054" lon="3.0656">
        <ele>491</ele>
        <time>2021-08-15T06:34:53Z</time>
      </trkpt>
      <trkpt lat="45.87054" lon="3.06559">
        <ele>491</ele>
        <time>2021-08-15T06:34:54Z</time>
      </trkpt>
      <trkpt lat="45.87054" lon="3.06559">
        <ele>491</ele>
        <time>2021-08-15T06:34:55Z</time>
      </trkpt>
      <trkpt lat="45.87053" lon="3.06558">
        <ele>491</ele>
        <time>2021-08-15T06:34:56Z</time>
      </trkpt>
      <trkpt lat="45.87051" lon="3.06557">
        <ele>491</ele>
        <time>2021-08-15T06:34:57Z</time>
      </trkpt>
      <trkpt lat="45.87051" lon="3.06556">
        <ele>491</ele>
        <time>2021-08-15T06:34:58Z</time>
      </trkpt>
      <trkpt lat="45.87048" lon="3.06554">
        <ele>491</ele>
        <time>2021-08-15T06:34:59Z</time>
      </trkpt>
      <trkpt lat="45.87047" lon="3.06552">
        <ele>491</ele>
        <time>2021-08-15T06:35:00Z</time>
      </trkpt>
      <trkpt lat="45.87045" lon="3.0655">
        <ele>491</ele>
        <time>2021-08-15T06:35:01Z</time>
      </trkpt>
      <trkpt lat="45.87043" lon="3.06547">
        <ele>491</ele>
        <time>2021-08-15T06:35:02Z</time>
      </trkpt>
      <trkpt lat="45.87041" lon="3.06546">
        <ele>491</ele>
        <time>2021-08-15T06:35:03Z</time>
      </trkpt>
      <trkpt lat="45.8704" lon="3.06545">
        <ele>491</ele>
        <time>2021-08-15T06:35:04Z</time>
      </trkpt>
      <trkpt lat="45.87038" lon="3.06543">
        <ele>491</ele>
        <time>2021-08-15T06:35:05Z</time>
      </trkpt>
      <trkpt lat="45.87036" lon="3.06542">
        <ele>491</ele>
        <time>2021-08-15T06:35:06Z</time>
      </trkpt>
      <trkpt lat="45.87033" lon="3.06541">
        <ele>491</ele>
        <time>2021-08-15T06:35:07Z</time>
      </trkpt>
      <trkpt lat="45.8703" lon="3.0654">
        <ele>491</ele>
        <time>2021-08-15T06:35:08Z</time>
      </trkpt>
      <trkpt lat="45.87029" lon="3.06539">
        <ele>491</ele>
        <time>2021-08-15T06:35:09Z</time>
      </trkpt>
      <trkpt lat="45.87027" lon="3.06538">
        <ele>491</ele>
        <time>2021-08-15T06:35:10Z</time>
      </trkpt>
      <trkpt lat="45.87024" lon="3.06537">
        <ele>491</ele>
        <time>2021-08-15T06:35:11Z</time>
      </trkpt>
      <trkpt lat="45.87022" lon="3.06537">
        <ele>491</ele>
        <time>2021-08-15T06:35:12Z</time>
      </trkpt>
      <trkpt lat="45.87021" lon="3.06536">
        <ele>491</ele>
        <time>2021-08-15T06:35:13Z</time>
      </trkpt>
      <trkpt lat="45.87019" lon="3.06535">
        <ele>491</ele>
        <time>2021-08-15T06:35:14Z</time>
      </trkpt>
      <trkpt lat="45.87017" lon="3.06535">
        <ele>491</ele>
        <time>2021-08-15T06:35:15Z</time>
      </trkpt>
      <trkpt lat="45.87015" lon="3.06534">
        <ele>491</ele>
        <time>2021-08-15T06:35:16Z</time>
      </trkpt>
      <trkpt lat="45.87012" lon="3.06533">
        <ele>491</ele>
        <time>2021-08-15T06:35:17Z</time>
      </trkpt>
      <trkpt lat="45.8701" lon="3.06532">
        <ele>491</ele>
        <time>2021-08-15T06:35:18Z</time>
      </trkpt>
      <trkpt lat="45.87008" lon="3.06531">
        <ele>491</ele>
        <time>2021-08-15T06:35:19Z</time>
      </trkpt>
      <trkpt lat="45.87006" lon="3.06531">
        <ele>491</ele>
        <time>2021-08-15T06:35:20Z</time>
      </trkpt>
      <trkpt lat="45.87004" lon="3.0653">
        <ele>491</ele>
        <time>2021-08-15T06:35:21Z</time>
      </trkpt>
      <trkpt lat="45.87002" lon="3.0653">
        <ele>491</ele>
        <time>2021-08-15T06:35:22Z</time>
      </trkpt>
      <trkpt lat="45.87001" lon="3.06529">
        <ele>491</ele>
        <time>2021-08-15T06:35:23Z</time>
      </trkpt>
      <trkpt lat="45.86999" lon="3.06529">
        <ele>491</ele>
        <time>2021-08-15T06:35:24Z</time>
      </trkpt>
      <trkpt lat="45.86998" lon="3.06529">
        <ele>491</ele>
        <time>2021-08-15T06:35:25Z</time>
      </trkpt>
      <trkpt lat="45.86997" lon="3.06529">
        <ele>491</ele>
        <time>2021-08-15T06:35:26Z</time>
      </trkpt>
      <trkpt lat="45.86996" lon="3.06529">
        <ele>491</ele>
        <time>2021-08-15T06:35:27Z</time>
      </trkpt>
      <trkpt lat="45.86994" lon="3.06528">
        <ele>491</ele>
        <time>2021-08-15T06:35:28Z</time>
      </trkpt>
      <trkpt lat="45.86993" lon="3.06528">
        <ele>491</ele>
        <time>2021-08-15T06:35:29Z</time>
      </trkpt>
      <trkpt lat="45.86992" lon="3.06528">
        <ele>491</ele>
        <time>2021-08-15T06:35:30Z</time>
      </trkpt>
      <trkpt lat="45.86991" lon="3.06528">
        <ele>491</ele>
        <time>2021-08-15T06:35:31Z</time>
      </trkpt>
      <trkpt lat="45.8699" lon="3.06528">
        <ele>491</ele>
        <time>2021-08-15T06:35:32Z</time>
      </trkpt>
      <trkpt lat="45.86988" lon="3.06527">
        <ele>491</ele>
        <time>2021-08-15T06:35:33Z</time>
      </trkpt>
      <trkpt lat="45.86988" lon="3.06527">
        <ele>491</ele>
        <time>2021-08-15T06:35:34Z</time>
      </trkpt>
      <trkpt lat="45.86987" lon="3.06528">
        <ele>491</ele>
        <time>2021-08-15T06:35:35Z</time>
      </trkpt>
      <trkpt lat="45.86985" lon="3.06528">
        <ele>491</ele>
        <time>2021-08-15T06:35:36Z</time>
      </trkpt>
      <trkpt lat="45.86985" lon="3.06528">
        <ele>491</ele>
        <time>2021-08-15T06:35:37Z</time>
      </trkpt>
      <trkpt lat="45.86984" lon="3.06528">
        <ele>491</ele>
        <time>2021-08-15T06:35:38Z</time>
      </trkpt>
      <trkpt lat="45.86983" lon="3.06529">
        <ele>491</ele>
        <time>2021-08-15T06:35:39Z</time>
      </trkpt>
      <trkpt lat="45.86982" lon="3.06529">
        <ele>491</ele>
        <time>2021-08-15T06:35:40Z</time>
      </trkpt>
      <trkpt lat="45.86981" lon="3.06529">
        <ele>491</ele>
        <time>2021-08-15T06:35:41Z</time>
      </trkpt>
      <trkpt lat="45.8698" lon="3.06529">
        <ele>491</ele>
        <time>2021-08-15T06:35:42Z</time>
      </trkpt>
      <trkpt lat="45.86979" lon="3.06529">
        <ele>491</ele>
        <time>2021-08-15T06:35:43Z</time>
      </trkpt>
      <trkpt lat="45.86978" lon="3.0653">
        <ele>491</ele>
        <time>2021-08-15T06:35:45Z</time>
      </trkpt>
      <trkpt lat="45.86971" lon="3.06533">
        <ele>491</ele>
        <time>2021-08-15T06:35:46Z</time>
      </trkpt>
      <trkpt lat="45.86971" lon="3.06533">
        <ele>491</ele>
        <time>2021-08-15T06:35:47Z</time>
      </trkpt>
      <trkpt lat="45.8697" lon="3.06534">
        <ele>491</ele>
        <time>2021-08-15T06:35:48Z</time>
      </trkpt>
      <trkpt lat="45.86969" lon="3.06534">
        <ele>491</ele>
        <time>2021-08-15T06:35:49Z</time>
      </trkpt>
      <trkpt lat="45.86968" lon="3.06534">
        <ele>491</ele>
        <time>2021-08-15T06:35:50Z</time>
      </trkpt>
      <trkpt lat="45.86967" lon="3.06534">
        <ele>491</ele>
        <time>2021-08-15T06:35:51Z</time>
      </trkpt>
      <trkpt lat="45.86965" lon="3.06535">
        <ele>491</ele>
        <time>2021-08-15T06:35:52Z</time>
      </trkpt>
      <trkpt lat="45.86963" lon="3.06535">
        <ele>491</ele>
        <time>2021-08-15T06:35:53Z</time>
      </trkpt>
      <trkpt lat="45.86962" lon="3.06535">
        <ele>491</ele>
        <time>2021-08-15T06:35:54Z</time>
      </trkpt>
      <trkpt lat="45.8696" lon="3.06535">
        <ele>491</ele>
        <time>2021-08-15T06:35:55Z</time>
      </trkpt>
      <trkpt lat="45.86959" lon="3.06535">
        <ele>491</ele>
        <time>2021-08-15T06:35:56Z</time>
      </trkpt>
      <trkpt lat="45.86957" lon="3.06535">
        <ele>491</ele>
        <time>2021-08-15T06:35:57Z</time>
      </trkpt>
      <trkpt lat="45.86956" lon="3.06536">
        <ele>491</ele>
        <time>2021-08-15T06:35:58Z</time>
      </trkpt>
      <trkpt lat="45.86954" lon="3.06536">
        <ele>491</ele>
        <time>2021-08-15T06:35:59Z</time>
      </trkpt>
      <trkpt lat="45.86953" lon="3.06537">
        <ele>491</ele>
        <time>2021-08-15T06:36:00Z</time>
      </trkpt>
      <trkpt lat="45.86951" lon="3.06537">
        <ele>491</ele>
        <time>2021-08-15T06:36:01Z</time>
      </trkpt>
      <trkpt lat="45.8695" lon="3.06537">
        <ele>491</ele>
        <time>2021-08-15T06:36:02Z</time>
      </trkpt>
      <trkpt lat="45.86948" lon="3.06537">
        <ele>491</ele>
        <time>2021-08-15T06:36:03Z</time>
      </trkpt>
      <trkpt lat="45.86947" lon="3.06537">
        <ele>491</ele>
        <time>2021-08-15T06:36:04Z</time>
      </trkpt>
      <trkpt lat="45.86946" lon="3.06537">
        <ele>491</ele>
        <time>2021-08-15T06:36:05Z</time>
      </trkpt>
      <trkpt lat="45.86945" lon="3.06537">
        <ele>491</ele>
        <time>2021-08-15T06:36:06Z</time>
      </trkpt>
      <trkpt lat="45.86943" lon="3.06537">
        <ele>491</ele>
        <time>2021-08-15T06:36:07Z</time>
      </trkpt>
      <trkpt lat="45.86942" lon="3.06537">
        <ele>491</ele>
        <time>2021-08-15T06:36:08Z</time>
      </trkpt>
      <trkpt lat="45.86942" lon="3.06537">
        <ele>491</ele>
        <time>2021-08-15T06:36:09Z</time>
      </trkpt>
      <trkpt lat="45.8694" lon="3.06537">
        <ele>491</ele>
        <time>2021-08-15T06:36:10Z</time>
      </trkpt>
      <trkpt lat="45.8694" lon="3.06537">
        <ele>491</ele>
        <time>2021-08-15T06:36:11Z</time>
      </trkpt>
      <trkpt lat="45.86939" lon="3.06538">
        <ele>491</ele>
        <time>2021-08-15T06:36:12Z</time>
      </trkpt>
      <trkpt lat="45.86938" lon="3.06538">
        <ele>491</ele>
        <time>2021-08-15T06:36:13Z</time>
      </trkpt>
      <trkpt lat="45.86937" lon="3.06538">
        <ele>491</ele>
        <time>2021-08-15T06:36:14Z</time>
      </trkpt>
      <trkpt lat="45.86935" lon="3.06539">
        <ele>491</ele>
        <time>2021-08-15T06:36:15Z</time>
      </trkpt>
      <trkpt lat="45.86934" lon="3.06539">
        <ele>491</ele>
        <time>2021-08-15T06:36:16Z</time>
      </trkpt>
      <trkpt lat="45.86933" lon="3.0654">
        <ele>491</ele>
        <time>2021-08-15T06:36:17Z</time>
      </trkpt>
      <trkpt lat="45.86931" lon="3.0654">
        <ele>491</ele>
        <time>2021-08-15T06:36:18Z</time>
      </trkpt>
      <trkpt lat="45.8693" lon="3.06541">
        <ele>491</ele>
        <time>2021-08-15T06:36:19Z</time>
      </trkpt>
      <trkpt lat="45.86929" lon="3.06542">
        <ele>491</ele>
        <time>2021-08-15T06:36:20Z</time>
      </trkpt>
      <trkpt lat="45.86928" lon="3.06543">
        <ele>491</ele>
        <time>2021-08-15T06:36:21Z</time>
      </trkpt>
      <trkpt lat="45.86927" lon="3.06543">
        <ele>491</ele>
        <time>2021-08-15T06:36:22Z</time>
      </trkpt>
      <trkpt lat="45.86926" lon="3.06544">
        <ele>491</ele>
        <time>2021-08-15T06:36:23Z</time>
      </trkpt>
      <trkpt lat="45.86925" lon="3.06545">
        <ele>491</ele>
        <time>2021-08-15T06:36:24Z</time>
      </trkpt>
      <trkpt lat="45.86924" lon="3.06546">
        <ele>491</ele>
        <time>2021-08-15T06:36:25Z</time>
      </trkpt>
      <trkpt lat="45.86923" lon="3.06547">
        <ele>491</ele>
        <time>2021-08-15T06:36:26Z</time>
      </trkpt>
      <trkpt lat="45.86922" lon="3.06548">
        <ele>491</ele>
        <time>2021-08-15T06:36:27Z</time>
      </trkpt>
      <trkpt lat="45.86921" lon="3.06549">
        <ele>491</ele>
        <time>2021-08-15T06:36:28Z</time>
      </trkpt>
      <trkpt lat="45.8692" lon="3.0655">
        <ele>491</ele>
        <time>2021-08-15T06:36:29Z</time>
      </trkpt>
      <trkpt lat="45.86919" lon="3.06551">
        <ele>491</ele>
        <time>2021-08-15T06:36:30Z</time>
      </trkpt>
      <trkpt lat="45.86918" lon="3.06553">
        <ele>491</ele>
        <time>2021-08-15T06:36:31Z</time>
      </trkpt>
      <trkpt lat="45.86918" lon="3.06554">
        <ele>491</ele>
        <time>2021-08-15T06:36:32Z</time>
      </trkpt>
      <trkpt lat="45.86918" lon="3.06555">
        <ele>491</ele>
        <time>2021-08-15T06:36:33Z</time>
      </trkpt>
      <trkpt lat="45.86917" lon="3.06556">
        <ele>491</ele>
        <time>2021-08-15T06:36:34Z</time>
      </trkpt>
      <trkpt lat="45.86916" lon="3.06557">
        <ele>491</ele>
        <time>2021-08-15T06:36:35Z</time>
      </trkpt>
      <trkpt lat="45.86916" lon="3.06558">
        <ele>491</ele>
        <time>2021-08-15T06:36:36Z</time>
      </trkpt>
      <trkpt lat="45.86916" lon="3.06559">
        <ele>491</ele>
        <time>2021-08-15T06:36:37Z</time>
      </trkpt>
      <trkpt lat="45.86915" lon="3.0656">
        <ele>491</ele>
        <time>2021-08-15T06:36:38Z</time>
      </trkpt>
      <trkpt lat="45.86915" lon="3.06561">
        <ele>491</ele>
        <time>2021-08-15T06:36:39Z</time>
      </trkpt>
      <trkpt lat="45.86914" lon="3.06562">
        <ele>491</ele>
        <time>2021-08-15T06:36:40Z</time>
      </trkpt>
      <trkpt lat="45.86914" lon="3.06563">
        <ele>491</ele>
        <time>2021-08-15T06:36:41Z</time>
      </trkpt>
      <trkpt lat="45.86914" lon="3.06564">
        <ele>491</ele>
        <time>2021-08-15T06:36:42Z</time>
      </trkpt>
      <trkpt lat="45.86913" lon="3.06565">
        <ele>491</ele>
        <time>2021-08-15T06:36:44Z</time>
      </trkpt>
      <trkpt lat="45.86912" lon="3.06571">
        <ele>491</ele>
        <time>2021-08-15T06:36:46Z</time>
      </trkpt>
      <trkpt lat="45.86911" lon="3.06574">
        <ele>491</ele>
        <time>2021-08-15T06:36:47Z</time>
      </trkpt>
      <trkpt lat="45.86911" lon="3.06574">
        <ele>491</ele>
        <time>2021-08-15T06:36:48Z</time>
      </trkpt>
      <trkpt lat="45.86911" lon="3.06575">
        <ele>491</ele>
        <time>2021-08-15T06:36:49Z</time>
      </trkpt>
      <trkpt lat="45.86911" lon="3.06576">
        <ele>491</ele>
        <time>2021-08-15T06:36:50Z</time>
      </trkpt>
      <trkpt lat="45.86911" lon="3.06577">
        <ele>491</ele>
        <time>2021-08-15T06:36:51Z</time>
      </trkpt>
      <trkpt lat="45.8691" lon="3.06579">
        <ele>491</ele>
        <time>2021-08-15T06:36:52Z</time>
      </trkpt>
      <trkpt lat="45.8691" lon="3.06581">
        <ele>491</ele>
        <time>2021-08-15T06:36:53Z</time>
      </trkpt>
      <trkpt lat="45.86909" lon="3.06582">
        <ele>491</ele>
        <time>2021-08-15T06:36:54Z</time>
      </trkpt>
      <trkpt lat="45.86909" lon="3.06584">
        <ele>491</ele>
        <time>2021-08-15T06:36:55Z</time>
      </trkpt>
      <trkpt lat="45.86908" lon="3.06585">
        <ele>491</ele>
        <time>2021-08-15T06:36:56Z</time>
      </trkpt>
      <trkpt lat="45.86908" lon="3.06586">
        <ele>491</ele>
        <time>2021-08-15T06:36:57Z</time>
      </trkpt>
      <trkpt lat="45.86908" lon="3.06587">
        <ele>491</ele>
        <time>2021-08-15T06:36:58Z</time>
      </trkpt>
      <trkpt lat="45.86907" lon="3.06589">
        <ele>491</ele>
        <time>2021-08-15T06:36:59Z</time>
      </trkpt>
      <trkpt lat="45.86907" lon="3.0659">
        <ele>491</ele>
        <time>2021-08-15T06:37:00Z</time>
      </trkpt>
      <trkpt lat="45.86907" lon="3.06591">
        <ele>491</ele>
        <time>2021-08-15T06:37:01Z</time>
      </trkpt>
      <trkpt lat="45.86906" lon="3.06592">
        <ele>491</ele>
        <time>2021-08-15T06:37:02Z</time>
      </trkpt>
      <trkpt lat="45.86906" lon="3.06594">
        <ele>491</ele>
        <time>2021-08-15T06:37:03Z</time>
      </trkpt>
      <trkpt lat="45.86906" lon="3.06595">
        <ele>491</ele>
        <time>2021-08-15T06:37:04Z</time>
      </trkpt>
      <trkpt lat="45.86906" lon="3.06596">
        <ele>491</ele>
        <time>2021-08-15T06:37:05Z</time>
      </trkpt>
      <trkpt lat="45.86905" lon="3.06597">
        <ele>491</ele>
        <time>2021-08-15T06:37:06Z</time>
      </trkpt>
      <trkpt lat="45.86905" lon="3.06599">
        <ele>491</ele>
        <time>2021-08-15T06:37:07Z</time>
      </trkpt>
      <trkpt lat="45.86904" lon="3.06601">
        <ele>491</ele>
        <time>2021-08-15T06:37:08Z</time>
      </trkpt>
      <trkpt lat="45.86903" lon="3.06602">
        <ele>491</ele>
        <time>2021-08-15T06:37:09Z</time>
      </trkpt>
      <trkpt lat="45.86903" lon="3.06603">
        <ele>491</ele>
        <time>2021-08-15T06:37:10Z</time>
      </trkpt>
      <trkpt lat="45.86902" lon="3.06605">
        <ele>491</ele>
        <time>2021-08-15T06:37:11Z</time>
      </trkpt>
      <trkpt lat="45.86902" lon="3.06606">
        <ele>491</ele>
        <time>2021-08-15T06:37:12Z</time>
      </trkpt>
      <trkpt lat="45.86901" lon="3.06608">
        <ele>491</ele>
        <time>2021-08-15T06:37:13Z</time>
      </trkpt>
      <trkpt lat="45.869" lon="3.06609">
        <ele>491</ele>
        <time>2021-08-15T06:37:14Z</time>
      </trkpt>
      <trkpt lat="45.869" lon="3.0661">
        <ele>491</ele>
        <time>2021-08-15T06:37:15Z</time>
      </trkpt>
      <trkpt lat="45.86899" lon="3.06611">
        <ele>491</ele>
        <time>2021-08-15T06:37:16Z</time>
      </trkpt>
      <trkpt lat="45.86898" lon="3.06613">
        <ele>491</ele>
        <time>2021-08-15T06:37:17Z</time>
      </trkpt>
      <trkpt lat="45.86898" lon="3.06614">
        <ele>491</ele>
        <time>2021-08-15T06:37:18Z</time>
      </trkpt>
      <trkpt lat="45.86898" lon="3.06616">
        <ele>491</ele>
        <time>2021-08-15T06:37:19Z</time>
      </trkpt>
      <trkpt lat="45.86898" lon="3.06617">
        <ele>491</ele>
        <time>2021-08-15T06:37:20Z</time>
      </trkpt>
      <trkpt lat="45.86897" lon="3.06619">
        <ele>491</ele>
        <time>2021-08-15T06:37:21Z</time>
      </trkpt>
      <trkpt lat="45.86897" lon="3.06621">
        <ele>491</ele>
        <time>2021-08-15T06:37:22Z</time>
      </trkpt>
      <trkpt lat="45.86897" lon="3.06622">
        <ele>491</ele>
        <time>2021-08-15T06:37:23Z</time>
      </trkpt>
      <trkpt lat="45.86897" lon="3.06625">
        <ele>491</ele>
        <time>2021-08-15T06:37:24Z</time>
      </trkpt>
      <trkpt lat="45.86896" lon="3.06627">
        <ele>491</ele>
        <time>2021-08-15T06:37:25Z</time>
      </trkpt>
      <trkpt lat="45.86896" lon="3.06629">
        <ele>491</ele>
        <time>2021-08-15T06:37:26Z</time>
      </trkpt>
      <trkpt lat="45.86895" lon="3.06631">
        <ele>491</ele>
        <time>2021-08-15T06:37:27Z</time>
      </trkpt>
      <trkpt lat="45.86895" lon="3.06633">
        <ele>491</ele>
        <time>2021-08-15T06:37:28Z</time>
      </trkpt>
      <trkpt lat="45.86895" lon="3.06635">
        <ele>491</ele>
        <time>2021-08-15T06:37:29Z</time>
      </trkpt>
      <trkpt lat="45.86894" lon="3.06637">
        <ele>491</ele>
        <time>2021-08-15T06:37:30Z</time>
      </trkpt>
      <trkpt lat="45.86894" lon="3.06639">
        <ele>491</ele>
        <time>2021-08-15T06:37:31Z</time>
      </trkpt>
      <trkpt lat="45.86894" lon="3.06641">
        <ele>491</ele>
        <time>2021-08-15T06:37:32Z</time>
      </trkpt>
      <trkpt lat="45.86894" lon="3.06642">
        <ele>491</ele>
        <time>2021-08-15T06:37:33Z</time>
      </trkpt>
      <trkpt lat="45.86893" lon="3.06644">
        <ele>491</ele>
        <time>2021-08-15T06:37:34Z</time>
      </trkpt>
      <trkpt lat="45.86892" lon="3.06645">
        <ele>491</ele>
        <time>2021-08-15T06:37:35Z</time>
      </trkpt>
      <trkpt lat="45.86892" lon="3.06647">
        <ele>491</ele>
        <time>2021-08-15T06:37:36Z</time>
      </trkpt>
      <trkpt lat="45.86891" lon="3.06648">
        <ele>491</ele>
        <time>2021-08-15T06:37:37Z</time>
      </trkpt>
      <trkpt lat="45.8689" lon="3.0665">
        <ele>491</ele>
        <time>2021-08-15T06:37:38Z</time>
      </trkpt>
      <trkpt lat="45.8689" lon="3.06651">
        <ele>491</ele>
        <time>2021-08-15T06:37:39Z</time>
      </trkpt>
      <trkpt lat="45.86889" lon="3.06652">
        <ele>491</ele>
        <time>2021-08-15T06:37:40Z</time>
      </trkpt>
      <trkpt lat="45.86889" lon="3.06653">
        <ele>491</ele>
        <time>2021-08-15T06:37:41Z</time>
      </trkpt>
      <trkpt lat="45.86888" lon="3.06654">
        <ele>491</ele>
        <time>2021-08-15T06:37:42Z</time>
      </trkpt>
      <trkpt lat="45.86888" lon="3.06656">
        <ele>491</ele>
        <time>2021-08-15T06:37:44Z</time>
      </trkpt>
      <trkpt lat="45.86887" lon="3.06657">
        <ele>491</ele>
        <time>2021-08-15T06:37:45Z</time>
      </trkpt>
      <trkpt lat="45.86884" lon="3.06663">
        <ele>491</ele>
        <time>2021-08-15T06:37:46Z</time>
      </trkpt>
      <trkpt lat="45.86884" lon="3.06664">
        <ele>491</ele>
        <time>2021-08-15T06:37:47Z</time>
      </trkpt>
      <trkpt lat="45.86884" lon="3.06665">
        <ele>491</ele>
        <time>2021-08-15T06:37:48Z</time>
      </trkpt>
      <trkpt lat="45.86883" lon="3.06666">
        <ele>491</ele>
        <time>2021-08-15T06:37:49Z</time>
      </trkpt>
      <trkpt lat="45.86882" lon="3.06667">
        <ele>491</ele>
        <time>2021-08-15T06:37:50Z</time>
      </trkpt>
      <trkpt lat="45.86882" lon="3.06668">
        <ele>491</ele>
        <time>2021-08-15T06:37:51Z</time>
      </trkpt>
      <trkpt lat="45.86881" lon="3.06669">
        <ele>491</ele>
        <time>2021-08-15T06:37:52Z</time>
      </trkpt>
      <trkpt lat="45.8688" lon="3.06671">
        <ele>491</ele>
        <time>2021-08-15T06:37:53Z</time>
      </trkpt>
      <trkpt lat="45.86879" lon="3.06672">
        <ele>491</ele>
        <time>2021-08-15T06:37:54Z</time>
      </trkpt>
      <trkpt lat="45.86878" lon="3.06674">
        <ele>491</ele>
        <time>2021-08-15T06:37:55Z</time>
      </trkpt>
      <trkpt lat="45.86877" lon="3.06676">
        <ele>491</ele>
        <time>2021-08-15T06:37:56Z</time>
      </trkpt>
      <trkpt lat="45.86876" lon="3.06678">
        <ele>491</ele>
        <time>2021-08-15T06:37:57Z</time>
      </trkpt>
      <trkpt lat="45.86876" lon="3.06679">
        <ele>491</ele>
        <time>2021-08-15T06:37:58Z</time>
      </trkpt>
      <trkpt lat="45.86876" lon="3.06681">
        <ele>491</ele>
        <time>2021-08-15T06:37:59Z</time>
      </trkpt>
      <trkpt lat="45.86874" lon="3.06682">
        <ele>491</ele>
        <time>2021-08-15T06:38:00Z</time>
      </trkpt>
      <trkpt lat="45.86874" lon="3.06683">
        <ele>491</ele>
        <time>2021-08-15T06:38:01Z</time>
      </trkpt>
      <trkpt lat="45.86873" lon="3.06685">
        <ele>491</ele>
        <time>2021-08-15T06:38:02Z</time>
      </trkpt>
      <trkpt lat="45.86873" lon="3.06687">
        <ele>491</ele>
        <time>2021-08-15T06:38:03Z</time>
      </trkpt>
      <trkpt lat="45.86873" lon="3.06689">
        <ele>491</ele>
        <time>2021-08-15T06:38:04Z</time>
      </trkpt>
      <trkpt lat="45.86873" lon="3.06691">
        <ele>491</ele>
        <time>2021-08-15T06:38:05Z</time>
      </trkpt>
      <trkpt lat="45.86873" lon="3.06694">
        <ele>491</ele>
        <time>2021-08-15T06:38:06Z</time>
      </trkpt>
      <trkpt lat="45.86874" lon="3.06697">
        <ele>491</ele>
        <time>2021-08-15T06:38:07Z</time>
      </trkpt>
      <trkpt lat="45.86874" lon="3.067">
        <ele>491</ele>
        <time>2021-08-15T06:38:07Z</time>
      </trkpt>
      <trkpt lat="45.86874" lon="3.06703">
        <ele>491</ele>
        <time>2021-08-15T06:38:08Z</time>
      </trkpt>
      <trkpt lat="45.86874" lon="3.06705">
        <ele>491</ele>
        <time>2021-08-15T06:38:09Z</time>
      </trkpt>
      <trkpt lat="45.86874" lon="3.06707">
        <ele>491</ele>
        <time>2021-08-15T06:38:10Z</time>
      </trkpt>
      <trkpt lat="45.86874" lon="3.06708">
        <ele>491</ele>
        <time>2021-08-15T06:38:11Z</time>
      </trkpt>
      <trkpt lat="45.86874" lon="3.06709">
        <ele>491</ele>
        <time>2021-08-15T06:38:12Z</time>
      </trkpt>
      <trkpt lat="45.86874" lon="3.0671">
        <ele>491</ele>
        <time>2021-08-15T06:38:13Z</time>
      </trkpt>
      <trkpt lat="45.86874" lon="3.06712">
        <ele>491</ele>
        <time>2021-08-15T06:38:14Z</time>
      </trkpt>
      <trkpt lat="45.86874" lon="3.06713">
        <ele>491</ele>
        <time>2021-08-15T06:38:15Z</time>
      </trkpt>
      <trkpt lat="45.86874" lon="3.06714">
        <ele>491</ele>
        <time>2021-08-15T06:38:16Z</time>
      </trkpt>
      <trkpt lat="45.86874" lon="3.06716">
        <ele>491</ele>
        <time>2021-08-15T06:38:17Z</time>
      </trkpt>
      <trkpt lat="45.86874" lon="3.06718">
        <ele>491</ele>
        <time>2021-08-15T06:38:18Z</time>
      </trkpt>
      <trkpt lat="45.86874" lon="3.06719">
        <ele>491</ele>
        <time>2021-08-15T06:38:19Z</time>
      </trkpt>
      <trkpt lat="45.86874" lon="3.06721">
        <ele>491</ele>
        <time>2021-08-15T06:38:20Z</time>
      </trkpt>
      <trkpt lat="45.86875" lon="3.06722">
        <ele>491</ele>
        <time>2021-08-15T06:38:21Z</time>
      </trkpt>
      <trkpt lat="45.86875" lon="3.06723">
        <ele>491</ele>
        <time>2021-08-15T06:38:22Z</time>
      </trkpt>
      <trkpt lat="45.86874" lon="3.06724">
        <ele>491</ele>
        <time>2021-08-15T06:38:23Z</time>
      </trkpt>
      <trkpt lat="45.86874" lon="3.06725">
        <ele>491</ele>
        <time>2021-08-15T06:38:24Z</time>
      </trkpt>
      <trkpt lat="45.86874" lon="3.06726">
        <ele>491</ele>
        <time>2021-08-15T06:38:25Z</time>
      </trkpt>
      <trkpt lat="45.86874" lon="3.06727">
        <ele>491</ele>
        <time>2021-08-15T06:38:26Z</time>
      </trkpt>
      <trkpt lat="45.86873" lon="3.06727">
        <ele>491</ele>
        <time>2021-08-15T06:38:27Z</time>
      </trkpt>
      <trkpt lat="45.86873" lon="3.06728">
        <ele>491</ele>
        <time>2021-08-15T06:38:28Z</time>
      </trkpt>
      <trkpt lat="45.86873" lon="3.06728">
        <ele>491</ele>
        <time>2021-08-15T06:38:29Z</time>
      </trkpt>
      <trkpt lat="45.86873" lon="3.06729">
        <ele>491</ele>
        <time>2021-08-15T06:38:30Z</time>
      </trkpt>
      <trkpt lat="45.86872" lon="3.06729">
        <ele>491</ele>
        <time>2021-08-15T06:38:31Z</time>
      </trkpt>
      <trkpt lat="45.86871" lon="3.06729">
        <ele>491</ele>
        <time>2021-08-15T06:38:32Z</time>
      </trkpt>
      <trkpt lat="45.86871" lon="3.0673">
        <ele>491</ele>
        <time>2021-08-15T06:38:33Z</time>
      </trkpt>
      <trkpt lat="45.8687" lon="3.0673">
        <ele>491</ele>
        <time>2021-08-15T06:38:34Z</time>
      </trkpt>
      <trkpt lat="45.8687" lon="3.06731">
        <ele>491</ele>
        <time>2021-08-15T06:38:35Z</time>
      </trkpt>
      <trkpt lat="45.86869" lon="3.06732">
        <ele>491</ele>
        <time>2021-08-15T06:38:36Z</time>
      </trkpt>
      <trkpt lat="45.86868" lon="3.06733">
        <ele>491</ele>
        <time>2021-08-15T06:38:37Z</time>
      </trkpt>
      <trkpt lat="45.86868" lon="3.06734">
        <ele>491</ele>
        <time>2021-08-15T06:38:38Z</time>
      </trkpt>
      <trkpt lat="45.86867" lon="3.06735">
        <ele>491</ele>
        <time>2021-08-15T06:38:39Z</time>
      </trkpt>
      <trkpt lat="45.86867" lon="3.06735">
        <ele>491</ele>
        <time>2021-08-15T06:38:40Z</time>
      </trkpt>
      <trkpt lat="45.86867" lon="3.06736">
        <ele>491</ele>
        <time>2021-08-15T06:38:41Z</time>
      </trkpt>
      <trkpt lat="45.86867" lon="3.06737">
        <ele>491</ele>
        <time>2021-08-15T06:38:43Z</time>
      </trkpt>
      <trkpt lat="45.86868" lon="3.06742">
        <ele>491</ele>
        <time>2021-08-15T06:38:44Z</time>
      </trkpt>
      <trkpt lat="45.86868" lon="3.06742">
        <ele>491</ele>
        <time>2021-08-15T06:38:45Z</time>
      </trkpt>
      <trkpt lat="45.86868" lon="3.06743">
        <ele>491</ele>
        <time>2021-08-15T06:38:46Z</time>
      </trkpt>
      <trkpt lat="45.86868" lon="3.06743">
        <ele>491</ele>
        <time>2021-08-15T06:38:47Z</time>
      </trkpt>
      <trkpt lat="45.86868" lon="3.06744">
        <ele>491</ele>
        <time>2021-08-15T06:38:48Z</time>
      </trkpt>
      <trkpt lat="45.86867" lon="3.06745">
        <ele>491</ele>
        <time>2021-08-15T06:38:49Z</time>
      </trkpt>
      <trkpt lat="45.86867" lon="3.06745">
        <ele>491</ele>
        <time>2021-08-15T06:38:50Z</time>
      </trkpt>
      <trkpt lat="45.86867" lon="3.06746">
        <ele>491</ele>
        <time>2021-08-15T06:38:51Z</time>
      </trkpt>
      <trkpt lat="45.86867" lon="3.06747">
        <ele>491</ele>
        <time>2021-08-15T06:38:52Z</time>
      </trkpt>
      <trkpt lat="45.86867" lon="3.06748">
        <ele>491</ele>
        <time>2021-08-15T06:38:53Z</time>
      </trkpt>
      <trkpt lat="45.86866" lon="3.06749">
        <ele>491</ele>
        <time>2021-08-15T06:38:54Z</time>
      </trkpt>
      <trkpt lat="45.86866" lon="3.0675">
        <ele>491</ele>
        <time>2021-08-15T06:38:55Z</time>
      </trkpt>
      <trkpt lat="45.86865" lon="3.06751">
        <ele>491</ele>
        <time>2021-08-15T06:38:56Z</time>
      </trkpt>
      <trkpt lat="45.86865" lon="3.06751">
        <ele>491</ele>
        <time>2021-08-15T06:38:57Z</time>
      </trkpt>
      <trkpt lat="45.86864" lon="3.06752">
        <ele>491</ele>
        <time>2021-08-15T06:38:58Z</time>
      </trkpt>
      <trkpt lat="45.86863" lon="3.06753">
        <ele>491</ele>
        <time>2021-08-15T06:38:59Z</time>
      </trkpt>
      <trkpt lat="45.86863" lon="3.06754">
        <ele>491</ele>
        <time>2021-08-15T06:39:00Z</time>
      </trkpt>
      <trkpt lat="45.86862" lon="3.06755">
        <ele>491</ele>
        <time>2021-08-15T06:39:01Z</time>
      </trkpt>
      <trkpt lat="45.86861" lon="3.06756">
        <ele>491</ele>
        <time>2021-08-15T06:39:02Z</time>
      </trkpt>
      <trkpt lat="45.86861" lon="3.06757">
        <ele>491</ele>
        <time>2021-08-15T06:39:03Z</time>
      </trkpt>
      <trkpt lat="45.8686" lon="3.06758">
        <ele>491</ele>
        <time>2021-08-15T06:39:04Z</time>
      </trkpt>
      <trkpt lat="45.86858" lon="3.06758">
        <ele>491</ele>
        <time>2021-08-15T06:39:05Z</time>
      </trkpt>
      <trkpt lat="45.86858" lon="3.06759">
        <ele>491</ele>
        <time>2021-08-15T06:39:06Z</time>
      </trkpt>
      <trkpt lat="45.86857" lon="3.0676">
        <ele>491</ele>
        <time>2021-08-15T06:39:07Z</time>
      </trkpt>
      <trkpt lat="45.86855" lon="3.06761">
        <ele>491</ele>
        <time>2021-08-15T06:39:08Z</time>
      </trkpt>
      <trkpt lat="45.86855" lon="3.06762">
        <ele>491</ele>
        <time>2021-08-15T06:39:09Z</time>
      </trkpt>
      <trkpt lat="45.86853" lon="3.06763">
        <ele>491</ele>
        <time>2021-08-15T06:39:10Z</time>
      </trkpt>
      <trkpt lat="45.86853" lon="3.06764">
        <ele>491</ele>
        <time>2021-08-15T06:39:11Z</time>
      </trkpt>
      <trkpt lat="45.86852" lon="3.06765">
        <ele>491</ele>
        <time>2021-08-15T06:39:12Z</time>
      </trkpt>
      <trkpt lat="45.86851" lon="3.06766">
        <ele>491</ele>
        <time>2021-08-15T06:39:13Z</time>
      </trkpt>
      <trkpt lat="45.8685" lon="3.06767">
        <ele>491</ele>
        <time>2021-08-15T06:39:14Z</time>
      </trkpt>
      <trkpt lat="45.86849" lon="3.06767">
        <ele>491</ele>
        <time>2021-08-15T06:39:15Z</time>
      </trkpt>
      <trkpt lat="45.86848" lon="3.06768">
        <ele>491</ele>
        <time>2021-08-15T06:39:16Z</time>
      </trkpt>
      <trkpt lat="45.86847" lon="3.06768">
        <ele>491</ele>
        <time>2021-08-15T06:39:17Z</time>
      </trkpt>
      <trkpt lat="45.86846" lon="3.06769">
        <ele>491</ele>
        <time>2021-08-15T06:39:18Z</time>
      </trkpt>
      <trkpt lat="45.86845" lon="3.0677">
        <ele>491</ele>
        <time>2021-08-15T06:39:19Z</time>
      </trkpt>
      <trkpt lat="45.86844" lon="3.0677">
        <ele>491</ele>
        <time>2021-08-15T06:39:20Z</time>
      </trkpt>
      <trkpt lat="45.86843" lon="3.06771">
        <ele>491</ele>
        <time>2021-08-15T06:39:21Z</time>
      </trkpt>
      <trkpt lat="45.86842" lon="3.06771">
        <ele>491</ele>
        <time>2021-08-15T06:39:22Z</time>
      </trkpt>
      <trkpt lat="45.8684" lon="3.06772">
        <ele>491</ele>
        <time>2021-08-15T06:39:23Z</time>
      </trkpt>
      <trkpt lat="45.86839" lon="3.06772">
        <ele>491</ele>
        <time>2021-08-15T06:39:24Z</time>
      </trkpt>
      <trkpt lat="45.86837" lon="3.06773">
        <ele>491</ele>
        <time>2021-08-15T06:39:25Z</time>
      </trkpt>
      <trkpt lat="45.86837" lon="3.06773">
        <ele>491</ele>
        <time>2021-08-15T06:39:26Z</time>
      </trkpt>
      <trkpt lat="45.86836" lon="3.06774">
        <ele>491</ele>
        <time>2021-08-15T06:39:27Z</time>
      </trkpt>
      <trkpt lat="45.86834" lon="3.06774">
        <ele>491</ele>
        <time>2021-08-15T06:39:28Z</time>
      </trkpt>
      <trkpt lat="45.86833" lon="3.06775">
        <ele>491</ele>
        <time>2021-08-15T06:39:29Z</time>
      </trkpt>
      <trkpt lat="45.86832" lon="3.06775">
        <ele>491</ele>
        <time>2021-08-15T06:39:30Z</time>
      </trkpt>
      <trkpt lat="45.86831" lon="3.06776">
        <ele>491</ele>
        <time>2021-08-15T06:39:31Z</time>
      </trkpt>
      <trkpt lat="45.86829" lon="3.06777">
        <ele>491</ele>
        <time>2021-08-15T06:39:32Z</time>
      </trkpt>
      <trkpt lat="45.86828" lon="3.06777">
        <ele>491</ele>
        <time>2021-08-15T06:39:33Z</time>
      </trkpt>
      <trkpt lat="45.86827" lon="3.06778">
        <ele>491</ele>
        <time>2021-08-15T06:39:34Z</time>
      </trkpt>
      <trkpt lat="45.86826" lon="3.06778">
        <ele>491</ele>
        <time>2021-08-15T06:39:35Z</time>
      </trkpt>
      <trkpt lat="45.86825" lon="3.06778">
        <ele>491</ele>
        <time>2021-08-15T06:39:36Z</time>
      </trkpt>
      <trkpt lat="45.86824" lon="3.06779">
        <ele>491</ele>
        <time>2021-08-15T06:39:37Z</time>
      </trkpt>
      <trkpt lat="45.86823" lon="3.06779">
        <ele>491</ele>
        <time>2021-08-15T06:39:38Z</time>
      </trkpt>
      <trkpt lat="45.86822" lon="3.0678">
        <ele>491</ele>
        <time>2021-08-15T06:39:39Z</time>
      </trkpt>
      <trkpt lat="45.86821" lon="3.0678">
        <ele>491</ele>
        <time>2021-08-15T06:39:40Z</time>
      </trkpt>
      <trkpt lat="45.8682" lon="3.06781">
        <ele>491</ele>
        <time>2021-08-15T06:39:41Z</time>
      </trkpt>
      <trkpt lat="45.86819" lon="3.06781">
        <ele>491</ele>
        <time>2021-08-15T06:39:42Z</time>
      </trkpt>
      <trkpt lat="45.86818" lon="3.06782">
        <ele>491</ele>
        <time>2021-08-15T06:39:43Z</time>
      </trkpt>
      <trkpt lat="45.86816" lon="3.06782">
        <ele>491</ele>
        <time>2021-08-15T06:39:45Z</time>
      </trkpt>
      <trkpt lat="45.86809" lon="3.06778">
        <ele>491</ele>
        <time>2021-08-15T06:39:46Z</time>
      </trkpt>
      <trkpt lat="45.86809" lon="3.06778">
        <ele>491</ele>
        <time>2021-08-15T06:39:47Z</time>
      </trkpt>
      <trkpt lat="45.86808" lon="3.06778">
        <ele>491</ele>
        <time>2021-08-15T06:39:48Z</time>
      </trkpt>
      <trkpt lat="45.86807" lon="3.06778">
        <ele>491</ele>
        <time>2021-08-15T06:39:49Z</time>
      </trkpt>
      <trkpt lat="45.86806" lon="3.06777">
        <ele>491</ele>
        <time>2021-08-15T06:39:50Z</time>
      </trkpt>
      <trkpt lat="45.86804" lon="3.06777">
        <ele>491</ele>
        <time>2021-08-15T06:39:51Z</time>
      </trkpt>
      <trkpt lat="45.86803" lon="3.06776">
        <ele>491</ele>
        <time>2021-08-15T06:39:52Z</time>
      </trkpt>
      <trkpt lat="45.86802" lon="3.06776">
        <ele>491</ele>
        <time>2021-08-15T06:39:53Z</time>
      </trkpt>
      <trkpt lat="45.868" lon="3.06775">
        <ele>491</ele>
        <time>2021-08-15T06:39:54Z</time>
      </trkpt>
      <trkpt lat="45.86799" lon="3.06775">
        <ele>491</ele>
        <time>2021-08-15T06:39:55Z</time>
      </trkpt>
      <trkpt lat="45.86799" lon="3.06775">
        <ele>491</ele>
        <time>2021-08-15T06:39:56Z</time>
      </trkpt>
      <trkpt lat="45.86797" lon="3.06774">
        <ele>491</ele>
        <time>2021-08-15T06:39:57Z</time>
      </trkpt>
      <trkpt lat="45.86796" lon="3.06774">
        <ele>491</ele>
        <time>2021-08-15T06:39:58Z</time>
      </trkpt>
      <trkpt lat="45.86795" lon="3.06773">
        <ele>491</ele>
        <time>2021-08-15T06:39:59Z</time>
      </trkpt>
      <trkpt lat="45.86794" lon="3.06773">
        <ele>491</ele>
        <time>2021-08-15T06:40:00Z</time>
      </trkpt>
      <trkpt lat="45.86792" lon="3.06772">
        <ele>491</ele>
        <time>2021-08-15T06:40:01Z</time>
      </trkpt>
      <trkpt lat="45.86792" lon="3.06771">
        <ele>491</ele>
        <time>2021-08-15T06:40:02Z</time>
      </trkpt>
      <trkpt lat="45.86791" lon="3.06771">
        <ele>491</ele>
        <time>2021-08-15T06:40:03Z</time>
      </trkpt>
      <trkpt lat="45.86789" lon="3.06771">
        <ele>491</ele>
        <time>2021-08-15T06:40:04Z</time>
      </trkpt>
      <trkpt lat="45.86788" lon="3.06771">
        <ele>491</ele>
        <time>2021-08-15T06:40:05Z</time>
      </trkpt>
      <trkpt lat="45.86788" lon="3.0677">
        <ele>491</ele>
        <time>2021-08-15T06:40:06Z</time>
      </trkpt>
      <trkpt lat="45.86787" lon="3.0677">
        <ele>491</ele>
        <time>2021-08-15T06:40:07Z</time>
      </trkpt>
      <trkpt lat="45.86786" lon="3.0677">
        <ele>491</ele>
        <time>2021-08-15T06:40:08Z</time>
      </trkpt>
      <trkpt lat="45.86785" lon="3.0677">
        <ele>491</ele>
        <time>2021-08-15T06:40:09Z</time>
      </trkpt>
      <trkpt lat="45.86785" lon="3.0677">
        <ele>491</ele>
        <time>2021-08-15T06:40:10Z</time>
      </trkpt>
      <trkpt lat="45.86784" lon="3.0677">
        <ele>491</ele>
        <time>2021-08-15T06:40:11Z</time>
      </trkpt>
      <trkpt lat="45.86783" lon="3.0677">
        <ele>491</ele>
        <time>2021-08-15T06:40:12Z</time>
      </trkpt>
      <trkpt lat="45.86782" lon="3.06771">
        <ele>491</ele>
        <time>2021-08-15T06:40:14Z</time>
      </trkpt>
      <trkpt lat="45.86782" lon="3.06771">
        <ele>491</ele>
        <time>2021-08-15T06:40:15Z</time>
      </trkpt>
      <trkpt lat="45.86782" lon="3.06772">
        <ele>491</ele>
        <time>2021-08-15T06:40:16Z</time>
      </trkpt>
      <trkpt lat="45.86782" lon="3.06773">
        <ele>491</ele>
        <time>2021-08-15T06:40:17Z</time>
      </trkpt>
      <trkpt lat="45.86781" lon="3.06774">
        <ele>491</ele>
        <time>2021-08-15T06:40:18Z</time>
      </trkpt>
      <trkpt lat="45.86781" lon="3.06775">
        <ele>491</ele>
        <time>2021-08-15T06:40:19Z</time>
      </trkpt>
      <trkpt lat="45.86781" lon="3.06776">
        <ele>491</ele>
        <time>2021-08-15T06:40:20Z</time>
      </trkpt>
      <trkpt lat="45.86781" lon="3.06777">
        <ele>491</ele>
        <time>2021-08-15T06:40:21Z</time>
      </trkpt>
      <trkpt lat="45.8678" lon="3.06778">
        <ele>491</ele>
        <time>2021-08-15T06:40:22Z</time>
      </trkpt>
      <trkpt lat="45.8678" lon="3.0678">
        <ele>491</ele>
        <time>2021-08-15T06:40:23Z</time>
      </trkpt>
      <trkpt lat="45.8678" lon="3.06781">
        <ele>491</ele>
        <time>2021-08-15T06:40:24Z</time>
      </trkpt>
      <trkpt lat="45.8678" lon="3.06783">
        <ele>491</ele>
        <time>2021-08-15T06:40:25Z</time>
      </trkpt>
      <trkpt lat="45.8678" lon="3.06784">
        <ele>491</ele>
        <time>2021-08-15T06:40:26Z</time>
      </trkpt>
      <trkpt lat="45.8678" lon="3.06786">
        <ele>491</ele>
        <time>2021-08-15T06:40:27Z</time>
      </trkpt>
      <trkpt lat="45.8678" lon="3.06787">
        <ele>491</ele>
        <time>2021-08-15T06:40:28Z</time>
      </trkpt>
      <trkpt lat="45.86781" lon="3.06789">
        <ele>491</ele>
        <time>2021-08-15T06:40:29Z</time>
      </trkpt>
      <trkpt lat="45.86781" lon="3.0679">
        <ele>491</ele>
        <time>2021-08-15T06:40:30Z</time>
      </trkpt>
      <trkpt lat="45.86781" lon="3.06792">
        <ele>491</ele>
        <time>2021-08-15T06:40:31Z</time>
      </trkpt>
      <trkpt lat="45.86781" lon="3.06793">
        <ele>491</ele>
        <time>2021-08-15T06:40:32Z</time>
      </trkpt>
      <trkpt lat="45.86781" lon="3.06795">
        <ele>491</ele>
        <time>2021-08-15T06:40:33Z</time>
      </trkpt>
      <trkpt lat="45.8678" lon="3.06796">
        <ele>491</ele>
        <time>2021-08-15T06:40:34Z</time>
      </trkpt>
      <trkpt lat="45.8678" lon="3.06798">
        <ele>491</ele>
        <time>2021-08-15T06:40:35Z</time>
      </trkpt>
      <trkpt lat="45.8678" lon="3.068">
        <ele>491</ele>
        <time>2021-08-15T06:40:36Z</time>
      </trkpt>
      <trkpt lat="45.8678" lon="3.06801">
        <ele>491</ele>
        <time>2021-08-15T06:40:37Z</time>
      </trkpt>
      <trkpt lat="45.86779" lon="3.06802">
        <ele>491</ele>
        <time>2021-08-15T06:40:38Z</time>
      </trkpt>
      <trkpt lat="45.86779" lon="3.06804">
        <ele>491</ele>
        <time>2021-08-15T06:40:39Z</time>
      </trkpt>
      <trkpt lat="45.86779" lon="3.06805">
        <ele>491</ele>
        <time>2021-08-15T06:40:40Z</time>
      </trkpt>
      <trkpt lat="45.86779" lon="3.06807">
        <ele>491</ele>
        <time>2021-08-15T06:40:41Z</time>
      </trkpt>
      <trkpt lat="45.86779" lon="3.06809">
        <ele>491</ele>
        <time>2021-08-15T06:40:43Z</time>
      </trkpt>
      <trkpt lat="45.86778" lon="3.06811">
        <ele>491</ele>
        <time>2021-08-15T06:40:44Z</time>
      </trkpt>
      <trkpt lat="45.86778" lon="3.06813">
        <ele>491</ele>
        <time>2021-08-15T06:40:45Z</time>
      </trkpt>
      <trkpt lat="45.86778" lon="3.06821">
        <ele>491</ele>
        <time>2021-08-15T06:40:46Z</time>
      </trkpt>
      <trkpt lat="45.86778" lon="3.06822">
        <ele>491</ele>
        <time>2021-08-15T06:40:47Z</time>
      </trkpt>
      <trkpt lat="45.86778" lon="3.06822">
        <ele>491</ele>
        <time>2021-08-15T06:40:48Z</time>
      </trkpt>
      <trkpt lat="45.86778" lon="3.06823">
        <ele>491</ele>
        <time>2021-08-15T06:40:49Z</time>
      </trkpt>
      <trkpt lat="45.86778" lon="3.06825">
        <ele>491</ele>
        <time>2021-08-15T06:40:50Z</time>
      </trkpt>
      <trkpt lat="45.86778" lon="3.06826">
        <ele>491</ele>
        <time>2021-08-15T06:40:51Z</time>
      </trkpt>
      <trkpt lat="45.86778" lon="3.06828">
        <ele>491</ele>
        <time>2021-08-15T06:40:52Z</time>
      </trkpt>
      <trkpt lat="45.86778" lon="3.06829">
        <ele>491</ele>
        <time>2021-08-15T06:40:53Z</time>
      </trkpt>
      <trkpt lat="45.86778" lon="3.0683">
        <ele>491</ele>
        <time>2021-08-15T06:40:54Z</time>
      </trkpt>
      <trkpt lat="45.86778" lon="3.06832">
        <ele>491</ele>
        <time>2021-08-15T06:40:55Z</time>
      </trkpt>
      <trkpt lat="45.86778" lon="3.06833">
        <ele>491</ele>
        <time>2021-08-15T06:40:56Z</time>
      </trkpt>
      <trkpt lat="45.86778" lon="3.06835">
        <ele>491</ele>
        <time>2021-08-15T06:40:57Z</time>
      </trkpt>
      <trkpt lat="45.86778" lon="3.06837">
        <ele>491</ele>
        <time>2021-08-15T06:40:58Z</time>
      </trkpt>
      <trkpt lat="45.86778" lon="3.06839">
        <ele>491</ele>
        <time>2021-08-15T06:40:59Z</time>
      </trkpt>
      <trkpt lat="45.86778" lon="3.06841">
        <ele>491</ele>
        <time>2021-08-15T06:41:00Z</time>
      </trkpt>
      <trkpt lat="45.86777" lon="3.06843">
        <ele>491</ele>
        <time>2021-08-15T06:41:01Z</time>
      </trkpt>
      <trkpt lat="45.86777" lon="3.06845">
        <ele>491</ele>
        <time>2021-08-15T06:41:02Z</time>
      </trkpt>
      <trkpt lat="45.86776" lon="3.06847">
        <ele>491</ele>
        <time>2021-08-15T06:41:03Z</time>
      </trkpt>
      <trkpt lat="45.86776" lon="3.06849">
        <ele>491</ele>
        <time>2021-08-15T06:41:04Z</time>
      </trkpt>
      <trkpt lat="45.86776" lon="3.06851">
        <ele>491</ele>
        <time>2021-08-15T06:41:05Z</time>
      </trkpt>
      <trkpt lat="45.86774" lon="3.06853">
        <ele>491</ele>
        <time>2021-08-15T06:41:06Z</time>
      </trkpt>
      <trkpt lat="45.86774" lon="3.06856">
        <ele>491</ele>
        <time>2021-08-15T06:41:07Z</time>
      </trkpt>
      <trkpt lat="45.86774" lon="3.06858">
        <ele>491</ele>
        <time>2021-08-15T06:41:08Z</time>
      </trkpt>
      <trkpt lat="45.86773" lon="3.0686">
        <ele>491</ele>
        <time>2021-08-15T06:41:09Z</time>
      </trkpt>
      <trkpt lat="45.86773" lon="3.06862">
        <ele>491</ele>
        <time>2021-08-15T06:41:10Z</time>
      </trkpt>
      <trkpt lat="45.86773" lon="3.06864">
        <ele>491</ele>
        <time>2021-08-15T06:41:11Z</time>
      </trkpt>
      <trkpt lat="45.86772" lon="3.06866">
        <ele>491</ele>
        <time>2021-08-15T06:41:12Z</time>
      </trkpt>
      <trkpt lat="45.86771" lon="3.06868">
        <ele>491</ele>
        <time>2021-08-15T06:41:13Z</time>
      </trkpt>
      <trkpt lat="45.86771" lon="3.0687">
        <ele>491</ele>
        <time>2021-08-15T06:41:14Z</time>
      </trkpt>
      <trkpt lat="45.86771" lon="3.06873">
        <ele>491</ele>
        <time>2021-08-15T06:41:15Z</time>
      </trkpt>
      <trkpt lat="45.86771" lon="3.06875">
        <ele>491</ele>
        <time>2021-08-15T06:41:16Z</time>
      </trkpt>
      <trkpt lat="45.86771" lon="3.06878">
        <ele>491</ele>
        <time>2021-08-15T06:41:17Z</time>
      </trkpt>
      <trkpt lat="45.86771" lon="3.06881">
        <ele>491</ele>
        <time>2021-08-15T06:41:18Z</time>
      </trkpt>
      <trkpt lat="45.86771" lon="3.06885">
        <ele>491</ele>
        <time>2021-08-15T06:41:19Z</time>
      </trkpt>
      <trkpt lat="45.86771" lon="3.06888">
        <ele>491</ele>
        <time>2021-08-15T06:41:20Z</time>
      </trkpt>
      <trkpt lat="45.86771" lon="3.06892">
        <ele>491</ele>
        <time>2021-08-15T06:41:21Z</time>
      </trkpt>
      <trkpt lat="45.86771" lon="3.06895">
        <ele>491</ele>
        <time>2021-08-15T06:41:22Z</time>
      </trkpt>
      <trkpt lat="45.86772" lon="3.06899">
        <ele>491</ele>
        <time>2021-08-15T06:41:23Z</time>
      </trkpt>
      <trkpt lat="45.86772" lon="3.06902">
        <ele>491</ele>
        <time>2021-08-15T06:41:24Z</time>
      </trkpt>
      <trkpt lat="45.86773" lon="3.06905">
        <ele>491</ele>
        <time>2021-08-15T06:41:25Z</time>
      </trkpt>
      <trkpt lat="45.86773" lon="3.06908">
        <ele>491</ele>
        <time>2021-08-15T06:41:26Z</time>
      </trkpt>
      <trkpt lat="45.86773" lon="3.06912">
        <ele>491</ele>
        <time>2021-08-15T06:41:27Z</time>
      </trkpt>
      <trkpt lat="45.86773" lon="3.06915">
        <ele>491</ele>
        <time>2021-08-15T06:41:28Z</time>
      </trkpt>
      <trkpt lat="45.86773" lon="3.06919">
        <ele>491</ele>
        <time>2021-08-15T06:41:29Z</time>
      </trkpt>
      <trkpt lat="45.86774" lon="3.06923">
        <ele>491</ele>
        <time>2021-08-15T06:41:30Z</time>
      </trkpt>
      <trkpt lat="45.86774" lon="3.06926">
        <ele>491</ele>
        <time>2021-08-15T06:41:31Z</time>
      </trkpt>
      <trkpt lat="45.86774" lon="3.06929">
        <ele>491</ele>
        <time>2021-08-15T06:41:32Z</time>
      </trkpt>
      <trkpt lat="45.86774" lon="3.06933">
        <ele>491</ele>
        <time>2021-08-15T06:41:33Z</time>
      </trkpt>
      <trkpt lat="45.86774" lon="3.06936">
        <ele>491</ele>
        <time>2021-08-15T06:41:34Z</time>
      </trkpt>
      <trkpt lat="45.86774" lon="3.0694">
        <ele>491</ele>
        <time>2021-08-15T06:41:35Z</time>
      </trkpt>
      <trkpt lat="45.86773" lon="3.06943">
        <ele>491</ele>
        <time>2021-08-15T06:41:36Z</time>
      </trkpt>
      <trkpt lat="45.86773" lon="3.06946">
        <ele>491</ele>
        <time>2021-08-15T06:41:37Z</time>
      </trkpt>
      <trkpt lat="45.86773" lon="3.06949">
        <ele>491</ele>
        <time>2021-08-15T06:41:38Z</time>
      </trkpt>
      <trkpt lat="45.86773" lon="3.06952">
        <ele>491</ele>
        <time>2021-08-15T06:41:39Z</time>
      </trkpt>
      <trkpt lat="45.86772" lon="3.06955">
        <ele>491</ele>
        <time>2021-08-15T06:41:40Z</time>
      </trkpt>
      <trkpt lat="45.86772" lon="3.06959">
        <ele>491</ele>
        <time>2021-08-15T06:41:41Z</time>
      </trkpt>
      <trkpt lat="45.86772" lon="3.06962">
        <ele>491</ele>
        <time>2021-08-15T06:41:42Z</time>
      </trkpt>
      <trkpt lat="45.86772" lon="3.06965">
        <ele>491</ele>
        <time>2021-08-15T06:41:44Z</time>
      </trkpt>
      <trkpt lat="45.86772" lon="3.06975">
        <ele>491</ele>
        <time>2021-08-15T06:41:45Z</time>
      </trkpt>
      <trkpt lat="45.86772" lon="3.06976">
        <ele>491</ele>
        <time>2021-08-15T06:41:46Z</time>
      </trkpt>
      <trkpt lat="45.86773" lon="3.06977">
        <ele>491</ele>
        <time>2021-08-15T06:41:47Z</time>
      </trkpt>
      <trkpt lat="45.86773" lon="3.06979">
        <ele>491</ele>
        <time>2021-08-15T06:41:48Z</time>
      </trkpt>
      <trkpt lat="45.86773" lon="3.06981">
        <ele>491</ele>
        <time>2021-08-15T06:41:49Z</time>
      </trkpt>
      <trkpt lat="45.86773" lon="3.06983">
        <ele>491</ele>
        <time>2021-08-15T06:41:50Z</time>
      </trkpt>
      <trkpt lat="45.86773" lon="3.06985">
        <ele>491</ele>
        <time>2021-08-15T06:41:51Z</time>
      </trkpt>
      <trkpt lat="45.86773" lon="3.06987">
        <ele>491</ele>
        <time>2021-08-15T06:41:52Z</time>
      </trkpt>
      <trkpt lat="45.86774" lon="3.0699">
        <ele>491</ele>
        <time>2021-08-15T06:41:53Z</time>
      </trkpt>
      <trkpt lat="45.86774" lon="3.06992">
        <ele>491</ele>
        <time>2021-08-15T06:41:54Z</time>
      </trkpt>
      <trkpt lat="45.86774" lon="3.06995">
        <ele>491</ele>
        <time>2021-08-15T06:41:55Z</time>
      </trkpt>
      <trkpt lat="45.86774" lon="3.06997">
        <ele>491</ele>
        <time>2021-08-15T06:41:56Z</time>
      </trkpt>
      <trkpt lat="45.86774" lon="3.07">
        <ele>491</ele>
        <time>2021-08-15T06:41:57Z</time>
      </trkpt>
      <trkpt lat="45.86774" lon="3.07003">
        <ele>491</ele>
        <time>2021-08-15T06:41:58Z</time>
      </trkpt>
      <trkpt lat="45.86774" lon="3.07005">
        <ele>491</ele>
        <time>2021-08-15T06:41:59Z</time>
      </trkpt>
      <trkpt lat="45.86774" lon="3.07008">
        <ele>491</ele>
        <time>2021-08-15T06:42:00Z</time>
      </trkpt>
      <trkpt lat="45.86775" lon="3.0701">
        <ele>491</ele>
        <time>2021-08-15T06:42:01Z</time>
      </trkpt>
      <trkpt lat="45.86775" lon="3.07012">
        <ele>491</ele>
        <time>2021-08-15T06:42:02Z</time>
      </trkpt>
      <trkpt lat="45.86775" lon="3.07014">
        <ele>491</ele>
        <time>2021-08-15T06:42:03Z</time>
      </trkpt>
      <trkpt lat="45.86776" lon="3.07016">
        <ele>491</ele>
        <time>2021-08-15T06:42:04Z</time>
      </trkpt>
      <trkpt lat="45.86776" lon="3.07018">
        <ele>491</ele>
        <time>2021-08-15T06:42:05Z</time>
      </trkpt>
      <trkpt lat="45.86777" lon="3.07019">
        <ele>491</ele>
        <time>2021-08-15T06:42:06Z</time>
      </trkpt>
      <trkpt lat="45.86777" lon="3.07022">
        <ele>491</ele>
        <time>2021-08-15T06:42:07Z</time>
      </trkpt>
      <trkpt lat="45.86777" lon="3.07023">
        <ele>491</ele>
        <time>2021-08-15T06:42:08Z</time>
      </trkpt>
      <trkpt lat="45.86777" lon="3.07025">
        <ele>491</ele>
        <time>2021-08-15T06:42:09Z</time>
      </trkpt>
      <trkpt lat="45.86777" lon="3.07027">
        <ele>491</ele>
        <time>2021-08-15T06:42:10Z</time>
      </trkpt>
      <trkpt lat="45.86777" lon="3.07028">
        <ele>491</ele>
        <time>2021-08-15T06:42:58Z</time>
      </trkpt>
      <trkpt lat="45.86778" lon="3.0703">
        <ele>491</ele>
        <time>2021-08-15T06:42:59Z</time>
      </trkpt>
      <trkpt lat="45.86778" lon="3.07031">
        <ele>491</ele>
        <time>2021-08-15T06:43:00Z</time>
      </trkpt>
      <trkpt lat="45.86778" lon="3.07032">
        <ele>491</ele>
        <time>2021-08-15T06:43:01Z</time>
      </trkpt>
      <trkpt lat="45.86779" lon="3.07033">
        <ele>491</ele>
        <time>2021-08-15T06:43:02Z</time>
      </trkpt>
      <trkpt lat="45.86779" lon="3.07035">
        <ele>491</ele>
        <time>2021-08-15T06:43:03Z</time>
      </trkpt>
      <trkpt lat="45.8678" lon="3.07037">
        <ele>491</ele>
        <time>2021-08-15T06:43:04Z</time>
      </trkpt>
      <trkpt lat="45.8678" lon="3.07039">
        <ele>491</ele>
        <time>2021-08-15T06:43:05Z</time>
      </trkpt>
      <trkpt lat="45.8678" lon="3.07041">
        <ele>491</ele>
        <time>2021-08-15T06:43:06Z</time>
      </trkpt>
      <trkpt lat="45.86781" lon="3.07043">
        <ele>491</ele>
        <time>2021-08-15T06:43:07Z</time>
      </trkpt>
      <trkpt lat="45.86781" lon="3.07045">
        <ele>491</ele>
        <time>2021-08-15T06:43:08Z</time>
      </trkpt>
      <trkpt lat="45.86781" lon="3.07048">
        <ele>491</ele>
        <time>2021-08-15T06:43:09Z</time>
      </trkpt>
      <trkpt lat="45.86782" lon="3.0705">
        <ele>491</ele>
        <time>2021-08-15T06:43:10Z</time>
      </trkpt>
      <trkpt lat="45.86783" lon="3.07052">
        <ele>491</ele>
        <time>2021-08-15T06:43:11Z</time>
      </trkpt>
      <trkpt lat="45.86783" lon="3.07054">
        <ele>491</ele>
        <time>2021-08-15T06:43:12Z</time>
      </trkpt>
      <trkpt lat="45.86784" lon="3.07057">
        <ele>491</ele>
        <time>2021-08-15T06:43:13Z</time>
      </trkpt>
      <trkpt lat="45.86784" lon="3.07059">
        <ele>491</ele>
        <time>2021-08-15T06:43:14Z</time>
      </trkpt>
      <trkpt lat="45.86785" lon="3.07061">
        <ele>491</ele>
        <time>2021-08-15T06:43:15Z</time>
      </trkpt>
      <trkpt lat="45.86786" lon="3.07064">
        <ele>491</ele>
        <time>2021-08-15T06:43:16Z</time>
      </trkpt>
      <trkpt lat="45.86786" lon="3.07066">
        <ele>491</ele>
        <time>2021-08-15T06:43:17Z</time>
      </trkpt>
      <trkpt lat="45.86787" lon="3.07068">
        <ele>491</ele>
        <time>2021-08-15T06:43:18Z</time>
      </trkpt>
      <trkpt lat="45.86788" lon="3.0707">
        <ele>491</ele>
        <time>2021-08-15T06:43:19Z</time>
      </trkpt>
      <trkpt lat="45.86788" lon="3.07071">
        <ele>491</ele>
        <time>2021-08-15T06:43:20Z</time>
      </trkpt>
      <trkpt lat="45.86789" lon="3.07073">
        <ele>491</ele>
        <time>2021-08-15T06:43:21Z</time>
      </trkpt>
      <trkpt lat="45.86789" lon="3.07075">
        <ele>491</ele>
        <time>2021-08-15T06:43:22Z</time>
      </trkpt>
      <trkpt lat="45.86791" lon="3.07077">
        <ele>491</ele>
        <time>2021-08-15T06:43:23Z</time>
      </trkpt>
      <trkpt lat="45.86791" lon="3.07079">
        <ele>491</ele>
        <time>2021-08-15T06:43:24Z</time>
      </trkpt>
      <trkpt lat="45.86792" lon="3.07081">
        <ele>491</ele>
        <time>2021-08-15T06:43:25Z</time>
      </trkpt>
      <trkpt lat="45.86792" lon="3.07083">
        <ele>491</ele>
        <time>2021-08-15T06:43:26Z</time>
      </trkpt>
      <trkpt lat="45.86792" lon="3.07086">
        <ele>491</ele>
        <time>2021-08-15T06:43:27Z</time>
      </trkpt>
      <trkpt lat="45.86793" lon="3.07088">
        <ele>491</ele>
        <time>2021-08-15T06:43:28Z</time>
      </trkpt>
      <trkpt lat="45.86794" lon="3.0709">
        <ele>491</ele>
        <time>2021-08-15T06:43:29Z</time>
      </trkpt>
      <trkpt lat="45.86794" lon="3.07092">
        <ele>491</ele>
        <time>2021-08-15T06:43:30Z</time>
      </trkpt>
      <trkpt lat="45.86794" lon="3.07094">
        <ele>491</ele>
        <time>2021-08-15T06:43:31Z</time>
      </trkpt>
      <trkpt lat="45.86794" lon="3.07096">
        <ele>491</ele>
        <time>2021-08-15T06:43:32Z</time>
      </trkpt>
      <trkpt lat="45.86795" lon="3.07099">
        <ele>491</ele>
        <time>2021-08-15T06:43:33Z</time>
      </trkpt>
      <trkpt lat="45.86795" lon="3.07101">
        <ele>491</ele>
        <time>2021-08-15T06:43:34Z</time>
      </trkpt>
      <trkpt lat="45.86795" lon="3.07104">
        <ele>491</ele>
        <time>2021-08-15T06:43:35Z</time>
      </trkpt>
      <trkpt lat="45.86795" lon="3.07105">
        <ele>491</ele>
        <time>2021-08-15T06:43:36Z</time>
      </trkpt>
      <trkpt lat="45.86796" lon="3.07107">
        <ele>491</ele>
        <time>2021-08-15T06:43:37Z</time>
      </trkpt>
      <trkpt lat="45.86797" lon="3.07109">
        <ele>491</ele>
        <time>2021-08-15T06:43:38Z</time>
      </trkpt>
      <trkpt lat="45.86797" lon="3.0711">
        <ele>491</ele>
        <time>2021-08-15T06:43:39Z</time>
      </trkpt>
      <trkpt lat="45.86797" lon="3.07112">
        <ele>491</ele>
        <time>2021-08-15T06:43:40Z</time>
      </trkpt>
      <trkpt lat="45.86797" lon="3.07113">
        <ele>491</ele>
        <time>2021-08-15T06:43:41Z</time>
      </trkpt>
      <trkpt lat="45.86798" lon="3.07114">
        <ele>491</ele>
        <time>2021-08-15T06:43:43Z</time>
      </trkpt>
      <trkpt lat="45.86799" lon="3.07118">
        <ele>491</ele>
        <time>2021-08-15T06:43:44Z</time>
      </trkpt>
      <trkpt lat="45.86799" lon="3.07119">
        <ele>491</ele>
        <time>2021-08-15T06:43:45Z</time>
      </trkpt>
      <trkpt lat="45.86799" lon="3.07119">
        <ele>491</ele>
        <time>2021-08-15T06:43:46Z</time>
      </trkpt>
      <trkpt lat="45.86803" lon="3.07132">
        <ele>491</ele>
        <time>2021-08-15T06:44:09Z</time>
      </trkpt>
      <trkpt lat="45.86804" lon="3.07132">
        <ele>491</ele>
        <time>2021-08-15T06:44:10Z</time>
      </trkpt>
      <trkpt lat="45.86804" lon="3.07132">
        <ele>491</ele>
        <time>2021-08-15T06:44:11Z</time>
      </trkpt>
      <trkpt lat="45.86805" lon="3.07133">
        <ele>491</ele>
        <time>2021-08-15T06:44:12Z</time>
      </trkpt>
      <trkpt lat="45.86805" lon="3.07133">
        <ele>491</ele>
        <time>2021-08-15T06:44:13Z</time>
      </trkpt>
      <trkpt lat="45.86806" lon="3.07134">
        <ele>491</ele>
        <time>2021-08-15T06:44:14Z</time>
      </trkpt>
      <trkpt lat="45.86807" lon="3.07135">
        <ele>491</ele>
        <time>2021-08-15T06:44:15Z</time>
      </trkpt>
      <trkpt lat="45.86807" lon="3.07136">
        <ele>491</ele>
        <time>2021-08-15T06:44:16Z</time>
      </trkpt>
      <trkpt lat="45.86808" lon="3.07137">
        <ele>491</ele>
        <time>2021-08-15T06:44:17Z</time>
      </trkpt>
      <trkpt lat="45.86808" lon="3.07139">
        <ele>491</ele>
        <time>2021-08-15T06:44:18Z</time>
      </trkpt>
      <trkpt lat="45.86809" lon="3.0714">
        <ele>491</ele>
        <time>2021-08-15T06:44:19Z</time>
      </trkpt>
      <trkpt lat="45.8681" lon="3.07141">
        <ele>491</ele>
        <time>2021-08-15T06:44:20Z</time>
      </trkpt>
      <trkpt lat="45.86811" lon="3.07142">
        <ele>491</ele>
        <time>2021-08-15T06:44:21Z</time>
      </trkpt>
      <trkpt lat="45.86812" lon="3.07143">
        <ele>491</ele>
        <time>2021-08-15T06:44:22Z</time>
      </trkpt>
      <trkpt lat="45.86813" lon="3.07144">
        <ele>491</ele>
        <time>2021-08-15T06:44:23Z</time>
      </trkpt>
      <trkpt lat="45.86814" lon="3.07145">
        <ele>491</ele>
        <time>2021-08-15T06:44:24Z</time>
      </trkpt>
      <trkpt lat="45.86815" lon="3.07146">
        <ele>491</ele>
        <time>2021-08-15T06:44:25Z</time>
      </trkpt>
      <trkpt lat="45.86816" lon="3.07146">
        <ele>491</ele>
        <time>2021-08-15T06:44:26Z</time>
      </trkpt>
      <trkpt lat="45.86816" lon="3.07148">
        <ele>491</ele>
        <time>2021-08-15T06:44:27Z</time>
      </trkpt>
      <trkpt lat="45.86818" lon="3.07149">
        <ele>491</ele>
        <time>2021-08-15T06:44:28Z</time>
      </trkpt>
      <trkpt lat="45.86818" lon="3.0715">
        <ele>491</ele>
        <time>2021-08-15T06:44:29Z</time>
      </trkpt>
      <trkpt lat="45.86819" lon="3.07151">
        <ele>491</ele>
        <time>2021-08-15T06:44:30Z</time>
      </trkpt>
      <trkpt lat="45.8682" lon="3.07152">
        <ele>491</ele>
        <time>2021-08-15T06:44:31Z</time>
      </trkpt>
      <trkpt lat="45.8682" lon="3.07154">
        <ele>491</ele>
        <time>2021-08-15T06:44:32Z</time>
      </trkpt>
      <trkpt lat="45.86821" lon="3.07156">
        <ele>491</ele>
        <time>2021-08-15T06:44:33Z</time>
      </trkpt>
      <trkpt lat="45.86821" lon="3.07158">
        <ele>491</ele>
        <time>2021-08-15T06:44:34Z</time>
      </trkpt>
      <trkpt lat="45.86822" lon="3.07159">
        <ele>491</ele>
        <time>2021-08-15T06:44:35Z</time>
      </trkpt>
      <trkpt lat="45.86823" lon="3.07161">
        <ele>491</ele>
        <time>2021-08-15T06:44:36Z</time>
      </trkpt>
      <trkpt lat="45.86823" lon="3.07163">
        <ele>491</ele>
        <time>2021-08-15T06:44:37Z</time>
      </trkpt>
      <trkpt lat="45.86824" lon="3.07165">
        <ele>491</ele>
        <time>2021-08-15T06:44:38Z</time>
      </trkpt>
      <trkpt lat="45.86824" lon="3.07167">
        <ele>491</ele>
        <time>2021-08-15T06:44:39Z</time>
      </trkpt>
      <trkpt lat="45.86824" lon="3.07168">
        <ele>491</ele>
        <time>2021-08-15T06:44:41Z</time>
      </trkpt>
      <trkpt lat="45.86825" lon="3.07178">
        <ele>491</ele>
        <time>2021-08-15T06:44:42Z</time>
      </trkpt>
      <trkpt lat="45.86825" lon="3.07178">
        <ele>491</ele>
        <time>2021-08-15T06:44:43Z</time>
      </trkpt>
      <trkpt lat="45.86826" lon="3.07179">
        <ele>491</ele>
        <time>2021-08-15T06:44:45Z</time>
      </trkpt>
      <trkpt lat="45.86826" lon="3.07187">
        <ele>491</ele>
        <time>2021-08-15T06:44:46Z</time>
      </trkpt>
      <trkpt lat="45.86826" lon="3.07187">
        <ele>491</ele>
        <time>2021-08-15T06:44:47Z</time>
      </trkpt>
      <trkpt lat="45.86827" lon="3.07188">
        <ele>491</ele>
        <time>2021-08-15T06:44:48Z</time>
      </trkpt>
      <trkpt lat="45.86827" lon="3.0719">
        <ele>491</ele>
        <time>2021-08-15T06:44:49Z</time>
      </trkpt>
      <trkpt lat="45.86827" lon="3.07192">
        <ele>491</ele>
        <time>2021-08-15T06:44:50Z</time>
      </trkpt>
      <trkpt lat="45.86828" lon="3.07195">
        <ele>491</ele>
        <time>2021-08-15T06:44:51Z</time>
      </trkpt>
      <trkpt lat="45.86828" lon="3.07198">
        <ele>491</ele>
        <time>2021-08-15T06:44:52Z</time>
      </trkpt>
      <trkpt lat="45.86829" lon="3.072">
        <ele>491</ele>
        <time>2021-08-15T06:44:53Z</time>
      </trkpt>
      <trkpt lat="45.86829" lon="3.07203">
        <ele>491</ele>
        <time>2021-08-15T06:44:54Z</time>
      </trkpt>
      <trkpt lat="45.8683" lon="3.07206">
        <ele>491</ele>
        <time>2021-08-15T06:44:55Z</time>
      </trkpt>
      <trkpt lat="45.8683" lon="3.07209">
        <ele>491</ele>
        <time>2021-08-15T06:44:56Z</time>
      </trkpt>
      <trkpt lat="45.86831" lon="3.07212">
        <ele>491</ele>
        <time>2021-08-15T06:44:57Z</time>
      </trkpt>
      <trkpt lat="45.86831" lon="3.07215">
        <ele>491</ele>
        <time>2021-08-15T06:44:58Z</time>
      </trkpt>
      <trkpt lat="45.86831" lon="3.07217">
        <ele>491</ele>
        <time>2021-08-15T06:44:59Z</time>
      </trkpt>
      <trkpt lat="45.86832" lon="3.0722">
        <ele>491</ele>
        <time>2021-08-15T06:45:00Z</time>
      </trkpt>
      <trkpt lat="45.86832" lon="3.07222">
        <ele>491</ele>
        <time>2021-08-15T06:45:01Z</time>
      </trkpt>
      <trkpt lat="45.86832" lon="3.07224">
        <ele>491</ele>
        <time>2021-08-15T06:45:02Z</time>
      </trkpt>
      <trkpt lat="45.86832" lon="3.07226">
        <ele>491</ele>
        <time>2021-08-15T06:45:03Z</time>
      </trkpt>
      <trkpt lat="45.86833" lon="3.07228">
        <ele>491</ele>
        <time>2021-08-15T06:45:04Z</time>
      </trkpt>
      <trkpt lat="45.86834" lon="3.0723">
        <ele>491</ele>
        <time>2021-08-15T06:45:05Z</time>
      </trkpt>
      <trkpt lat="45.86834" lon="3.07232">
        <ele>491</ele>
        <time>2021-08-15T06:45:06Z</time>
      </trkpt>
      <trkpt lat="45.86834" lon="3.07234">
        <ele>491</ele>
        <time>2021-08-15T06:45:07Z</time>
      </trkpt>
      <trkpt lat="45.86835" lon="3.07236">
        <ele>491</ele>
        <time>2021-08-15T06:45:08Z</time>
      </trkpt>
      <trkpt lat="45.86836" lon="3.07238">
        <ele>491</ele>
        <time>2021-08-15T06:45:09Z</time>
      </trkpt>
      <trkpt lat="45.86836" lon="3.07241">
        <ele>491</ele>
        <time>2021-08-15T06:45:10Z</time>
      </trkpt>
      <trkpt lat="45.86836" lon="3.07243">
        <ele>491</ele>
        <time>2021-08-15T06:45:11Z</time>
      </trkpt>
      <trkpt lat="45.86837" lon="3.07245">
        <ele>491</ele>
        <time>2021-08-15T06:45:12Z</time>
      </trkpt>
      <trkpt lat="45.86837" lon="3.07247">
        <ele>491</ele>
        <time>2021-08-15T06:45:13Z</time>
      </trkpt>
      <trkpt lat="45.86837" lon="3.0725">
        <ele>491</ele>
        <time>2021-08-15T06:45:14Z</time>
      </trkpt>
      <trkpt lat="45.86838" lon="3.07252">
        <ele>491</ele>
        <time>2021-08-15T06:45:15Z</time>
      </trkpt>
      <trkpt lat="45.86839" lon="3.07254">
        <ele>491</ele>
        <time>2021-08-15T06:45:16Z</time>
      </trkpt>
      <trkpt lat="45.8684" lon="3.07257">
        <ele>491</ele>
        <time>2021-08-15T06:45:17Z</time>
      </trkpt>
      <trkpt lat="45.8684" lon="3.07259">
        <ele>491</ele>
        <time>2021-08-15T06:45:18Z</time>
      </trkpt>
      <trkpt lat="45.8684" lon="3.07262">
        <ele>491</ele>
        <time>2021-08-15T06:45:19Z</time>
      </trkpt>
      <trkpt lat="45.8684" lon="3.07264">
        <ele>491</ele>
        <time>2021-08-15T06:45:20Z</time>
      </trkpt>
      <trkpt lat="45.86841" lon="3.07266">
        <ele>491</ele>
        <time>2021-08-15T06:45:21Z</time>
      </trkpt>
      <trkpt lat="45.86841" lon="3.07268">
        <ele>491</ele>
        <time>2021-08-15T06:45:22Z</time>
      </trkpt>
      <trkpt lat="45.86842" lon="3.0727">
        <ele>491</ele>
        <time>2021-08-15T06:45:23Z</time>
      </trkpt>
      <trkpt lat="45.86842" lon="3.07272">
        <ele>491</ele>
        <time>2021-08-15T06:45:24Z</time>
      </trkpt>
      <trkpt lat="45.86842" lon="3.07273">
        <ele>491</ele>
        <time>2021-08-15T06:45:25Z</time>
      </trkpt>
      <trkpt lat="45.86842" lon="3.07275">
        <ele>491</ele>
        <time>2021-08-15T06:45:26Z</time>
      </trkpt>
      <trkpt lat="45.86842" lon="3.07277">
        <ele>491</ele>
        <time>2021-08-15T06:45:27Z</time>
      </trkpt>
      <trkpt lat="45.86843" lon="3.07279">
        <ele>491</ele>
        <time>2021-08-15T06:45:28Z</time>
      </trkpt>
      <trkpt lat="45.86843" lon="3.07281">
        <ele>491</ele>
        <time>2021-08-15T06:45:29Z</time>
      </trkpt>
      <trkpt lat="45.86843" lon="3.07282">
        <ele>491</ele>
        <time>2021-08-15T06:45:30Z</time>
      </trkpt>
      <trkpt lat="45.86843" lon="3.07284">
        <ele>491</ele>
        <time>2021-08-15T06:45:31Z</time>
      </trkpt>
      <trkpt lat="45.86843" lon="3.07286">
        <ele>491</ele>
        <time>2021-08-15T06:45:32Z</time>
      </trkpt>
      <trkpt lat="45.86842" lon="3.07288">
        <ele>491</ele>
        <time>2021-08-15T06:45:33Z</time>
      </trkpt>
      <trkpt lat="45.86842" lon="3.07291">
        <ele>491</ele>
        <time>2021-08-15T06:45:34Z</time>
      </trkpt>
      <trkpt lat="45.86842" lon="3.07293">
        <ele>491</ele>
        <time>2021-08-15T06:45:35Z</time>
      </trkpt>
      <trkpt lat="45.86842" lon="3.07295">
        <ele>491</ele>
        <time>2021-08-15T06:45:36Z</time>
      </trkpt>
      <trkpt lat="45.86842" lon="3.07297">
        <ele>491</ele>
        <time>2021-08-15T06:45:37Z</time>
      </trkpt>
      <trkpt lat="45.86842" lon="3.07299">
        <ele>491</ele>
        <time>2021-08-15T06:45:38Z</time>
      </trkpt>
      <trkpt lat="45.86842" lon="3.07301">
        <ele>491</ele>
        <time>2021-08-15T06:45:39Z</time>
      </trkpt>
      <trkpt lat="45.86842" lon="3.07302">
        <ele>491</ele>
        <time>2021-08-15T06:45:40Z</time>
      </trkpt>
      <trkpt lat="45.86843" lon="3.07304">
        <ele>491</ele>
        <time>2021-08-15T06:45:41Z</time>
      </trkpt>
      <trkpt lat="45.86843" lon="3.07306">
        <ele>491</ele>
        <time>2021-08-15T06:45:43Z</time>
      </trkpt>
      <trkpt lat="45.86843" lon="3.07307">
        <ele>491</ele>
        <time>2021-08-15T06:45:44Z</time>
      </trkpt>
      <trkpt lat="45.86844" lon="3.07315">
        <ele>491</ele>
        <time>2021-08-15T06:45:45Z</time>
      </trkpt>
      <trkpt lat="45.86845" lon="3.07315">
        <ele>491</ele>
        <time>2021-08-15T06:45:46Z</time>
      </trkpt>
      <trkpt lat="45.86845" lon="3.07316">
        <ele>491</ele>
        <time>2021-08-15T06:45:47Z</time>
      </trkpt>
      <trkpt lat="45.86845" lon="3.07317">
        <ele>491</ele>
        <time>2021-08-15T06:45:48Z</time>
      </trkpt>
      <trkpt lat="45.86846" lon="3.07319">
        <ele>491</ele>
        <time>2021-08-15T06:45:49Z</time>
      </trkpt>
      <trkpt lat="45.86846" lon="3.0732">
        <ele>491</ele>
        <time>2021-08-15T06:45:50Z</time>
      </trkpt>
      <trkpt lat="45.86847" lon="3.07321">
        <ele>491</ele>
        <time>2021-08-15T06:45:51Z</time>
      </trkpt>
      <trkpt lat="45.86848" lon="3.07323">
        <ele>491</ele>
        <time>2021-08-15T06:45:52Z</time>
      </trkpt>
      <trkpt lat="45.86849" lon="3.07325">
        <ele>491</ele>
        <time>2021-08-15T06:45:53Z</time>
      </trkpt>
      <trkpt lat="45.86849" lon="3.07327">
        <ele>491</ele>
        <time>2021-08-15T06:45:54Z</time>
      </trkpt>
      <trkpt lat="45.8685" lon="3.07329">
        <ele>491</ele>
        <time>2021-08-15T06:45:55Z</time>
      </trkpt>
      <trkpt lat="45.86851" lon="3.0733">
        <ele>491</ele>
        <time>2021-08-15T06:45:56Z</time>
      </trkpt>
      <trkpt lat="45.86852" lon="3.07333">
        <ele>491</ele>
        <time>2021-08-15T06:45:57Z</time>
      </trkpt>
      <trkpt lat="45.86852" lon="3.07334">
        <ele>491</ele>
        <time>2021-08-15T06:45:58Z</time>
      </trkpt>
      <trkpt lat="45.86853" lon="3.07336">
        <ele>491</ele>
        <time>2021-08-15T06:45:59Z</time>
      </trkpt>
      <trkpt lat="45.86854" lon="3.07338">
        <ele>491</ele>
        <time>2021-08-15T06:46:00Z</time>
      </trkpt>
      <trkpt lat="45.86855" lon="3.07339">
        <ele>491</ele>
        <time>2021-08-15T06:46:01Z</time>
      </trkpt>
      <trkpt lat="45.86855" lon="3.07341">
        <ele>491</ele>
        <time>2021-08-15T06:46:02Z</time>
      </trkpt>
      <trkpt lat="45.86856" lon="3.07342">
        <ele>491</ele>
        <time>2021-08-15T06:46:03Z</time>
      </trkpt>
      <trkpt lat="45.86856" lon="3.07344">
        <ele>491</ele>
        <time>2021-08-15T06:46:04Z</time>
      </trkpt>
      <trkpt lat="45.86857" lon="3.07346">
        <ele>491</ele>
        <time>2021-08-15T06:46:05Z</time>
      </trkpt>
      <trkpt lat="45.86857" lon="3.07348">
        <ele>491</ele>
        <time>2021-08-15T06:46:06Z</time>
      </trkpt>
      <trkpt lat="45.86857" lon="3.0735">
        <ele>491</ele>
        <time>2021-08-15T06:46:07Z</time>
      </trkpt>
      <trkpt lat="45.86857" lon="3.07352">
        <ele>491</ele>
        <time>2021-08-15T06:46:08Z</time>
      </trkpt>
      <trkpt lat="45.86858" lon="3.07354">
        <ele>491</ele>
        <time>2021-08-15T06:46:09Z</time>
      </trkpt>
      <trkpt lat="45.86858" lon="3.07356">
        <ele>491</ele>
        <time>2021-08-15T06:46:10Z</time>
      </trkpt>
      <trkpt lat="45.86858" lon="3.07358">
        <ele>491</ele>
        <time>2021-08-15T06:46:11Z</time>
      </trkpt>
      <trkpt lat="45.86859" lon="3.0736">
        <ele>491</ele>
        <time>2021-08-15T06:46:12Z</time>
      </trkpt>
      <trkpt lat="45.86859" lon="3.07362">
        <ele>491</ele>
        <time>2021-08-15T06:46:13Z</time>
      </trkpt>
      <trkpt lat="45.8686" lon="3.07364">
        <ele>491</ele>
        <time>2021-08-15T06:46:14Z</time>
      </trkpt>
      <trkpt lat="45.8686" lon="3.07366">
        <ele>491</ele>
        <time>2021-08-15T06:46:15Z</time>
      </trkpt>
      <trkpt lat="45.8686" lon="3.07368">
        <ele>491</ele>
        <time>2021-08-15T06:46:16Z</time>
      </trkpt>
      <trkpt lat="45.8686" lon="3.0737">
        <ele>491</ele>
        <time>2021-08-15T06:46:17Z</time>
      </trkpt>
      <trkpt lat="45.86861" lon="3.07372">
        <ele>491</ele>
        <time>2021-08-15T06:46:18Z</time>
      </trkpt>
      <trkpt lat="45.86861" lon="3.07375">
        <ele>491</ele>
        <time>2021-08-15T06:46:19Z</time>
      </trkpt>
      <trkpt lat="45.86861" lon="3.07377">
        <ele>491</ele>
        <time>2021-08-15T06:46:20Z</time>
      </trkpt>
      <trkpt lat="45.86861" lon="3.0738">
        <ele>491</ele>
        <time>2021-08-15T06:46:21Z</time>
      </trkpt>
      <trkpt lat="45.86862" lon="3.07382">
        <ele>491</ele>
        <time>2021-08-15T06:46:22Z</time>
      </trkpt>
      <trkpt lat="45.86862" lon="3.07384">
        <ele>491</ele>
        <time>2021-08-15T06:46:23Z</time>
      </trkpt>
      <trkpt lat="45.86863" lon="3.07387">
        <ele>491</ele>
        <time>2021-08-15T06:46:24Z</time>
      </trkpt>
      <trkpt lat="45.86863" lon="3.07389">
        <ele>491</ele>
        <time>2021-08-15T06:46:25Z</time>
      </trkpt>
      <trkpt lat="45.86863" lon="3.07392">
        <ele>491</ele>
        <time>2021-08-15T06:46:26Z</time>
      </trkpt>
      <trkpt lat="45.86863" lon="3.07394">
        <ele>491</ele>
        <time>2021-08-15T06:46:27Z</time>
      </trkpt>
      <trkpt lat="45.86863" lon="3.07396">
        <ele>491</ele>
        <time>2021-08-15T06:46:28Z</time>
      </trkpt>
      <trkpt lat="45.86863" lon="3.07399">
        <ele>491</ele>
        <time>2021-08-15T06:46:29Z</time>
      </trkpt>
      <trkpt lat="45.86863" lon="3.07401">
        <ele>491</ele>
        <time>2021-08-15T06:46:30Z</time>
      </trkpt>
      <trkpt lat="45.86863" lon="3.07403">
        <ele>491</ele>
        <time>2021-08-15T06:46:31Z</time>
      </trkpt>
      <trkpt lat="45.86864" lon="3.07406">
        <ele>491</ele>
        <time>2021-08-15T06:46:32Z</time>
      </trkpt>
      <trkpt lat="45.86864" lon="3.07409">
        <ele>491</ele>
        <time>2021-08-15T06:46:33Z</time>
      </trkpt>
      <trkpt lat="45.86864" lon="3.07412">
        <ele>491</ele>
        <time>2021-08-15T06:46:34Z</time>
      </trkpt>
      <trkpt lat="45.86865" lon="3.07416">
        <ele>491</ele>
        <time>2021-08-15T06:46:35Z</time>
      </trkpt>
      <trkpt lat="45.86865" lon="3.07419">
        <ele>491</ele>
        <time>2021-08-15T06:46:36Z</time>
      </trkpt>
      <trkpt lat="45.86865" lon="3.07423">
        <ele>491</ele>
        <time>2021-08-15T06:46:37Z</time>
      </trkpt>
      <trkpt lat="45.86866" lon="3.07426">
        <ele>491</ele>
        <time>2021-08-15T06:46:37Z</time>
      </trkpt>
      <trkpt lat="45.86866" lon="3.07429">
        <ele>491</ele>
        <time>2021-08-15T06:46:38Z</time>
      </trkpt>
      <trkpt lat="45.86866" lon="3.07432">
        <ele>491</ele>
        <time>2021-08-15T06:46:39Z</time>
      </trkpt>
      <trkpt lat="45.86866" lon="3.07435">
        <ele>491</ele>
        <time>2021-08-15T06:46:40Z</time>
      </trkpt>
      <trkpt lat="45.86866" lon="3.07437">
        <ele>491</ele>
        <time>2021-08-15T06:46:41Z</time>
      </trkpt>
      <trkpt lat="45.86866" lon="3.0744">
        <ele>491</ele>
        <time>2021-08-15T06:46:43Z</time>
      </trkpt>
      <trkpt lat="45.86866" lon="3.07448">
        <ele>491</ele>
        <time>2021-08-15T06:46:44Z</time>
      </trkpt>
      <trkpt lat="45.86866" lon="3.07448">
        <ele>491</ele>
        <time>2021-08-15T06:46:45Z</time>
      </trkpt>
      <trkpt lat="45.86866" lon="3.0745">
        <ele>491</ele>
        <time>2021-08-15T06:46:46Z</time>
      </trkpt>
      <trkpt lat="45.86866" lon="3.07452">
        <ele>491</ele>
        <time>2021-08-15T06:46:47Z</time>
      </trkpt>
      <trkpt lat="45.86865" lon="3.07454">
        <ele>491</ele>
        <time>2021-08-15T06:46:48Z</time>
      </trkpt>
      <trkpt lat="45.86865" lon="3.07455">
        <ele>491</ele>
        <time>2021-08-15T06:46:49Z</time>
      </trkpt>
      <trkpt lat="45.86864" lon="3.07457">
        <ele>491</ele>
        <time>2021-08-15T06:46:50Z</time>
      </trkpt>
      <trkpt lat="45.86864" lon="3.07458">
        <ele>491</ele>
        <time>2021-08-15T06:46:51Z</time>
      </trkpt>
      <trkpt lat="45.86863" lon="3.0746">
        <ele>491</ele>
        <time>2021-08-15T06:46:52Z</time>
      </trkpt>
      <trkpt lat="45.86863" lon="3.07461">
        <ele>491</ele>
        <time>2021-08-15T06:46:53Z</time>
      </trkpt>
      <trkpt lat="45.86862" lon="3.07463">
        <ele>491</ele>
        <time>2021-08-15T06:46:54Z</time>
      </trkpt>
      <trkpt lat="45.86861" lon="3.07465">
        <ele>491</ele>
        <time>2021-08-15T06:46:55Z</time>
      </trkpt>
      <trkpt lat="45.86861" lon="3.07466">
        <ele>491</ele>
        <time>2021-08-15T06:46:56Z</time>
      </trkpt>
      <trkpt lat="45.86861" lon="3.07468">
        <ele>491</ele>
        <time>2021-08-15T06:46:57Z</time>
      </trkpt>
      <trkpt lat="45.8686" lon="3.0747">
        <ele>491</ele>
        <time>2021-08-15T06:46:58Z</time>
      </trkpt>
      <trkpt lat="45.8686" lon="3.07472">
        <ele>491</ele>
        <time>2021-08-15T06:46:59Z</time>
      </trkpt>
      <trkpt lat="45.86859" lon="3.07474">
        <ele>491</ele>
        <time>2021-08-15T06:47:00Z</time>
      </trkpt>
      <trkpt lat="45.86859" lon="3.07476">
        <ele>491</ele>
        <time>2021-08-15T06:47:01Z</time>
      </trkpt>
      <trkpt lat="45.86858" lon="3.07478">
        <ele>491</ele>
        <time>2021-08-15T06:47:02Z</time>
      </trkpt>
      <trkpt lat="45.86858" lon="3.0748">
        <ele>491</ele>
        <time>2021-08-15T06:47:03Z</time>
      </trkpt>
      <trkpt lat="45.86858" lon="3.07482">
        <ele>491</ele>
        <time>2021-08-15T06:47:04Z</time>
      </trkpt>
      <trkpt lat="45.86857" lon="3.07484">
        <ele>491</ele>
        <time>2021-08-15T06:47:05Z</time>
      </trkpt>
      <trkpt lat="45.86857" lon="3.07487">
        <ele>491</ele>
        <time>2021-08-15T06:47:06Z</time>
      </trkpt>
      <trkpt lat="45.86857" lon="3.07489">
        <ele>491</ele>
        <time>2021-08-15T06:47:07Z</time>
      </trkpt>
      <trkpt lat="45.86857" lon="3.07491">
        <ele>491</ele>
        <time>2021-08-15T06:47:08Z</time>
      </trkpt>
      <trkpt lat="45.86856" lon="3.07493">
        <ele>491</ele>
        <time>2021-08-15T06:47:09Z</time>
      </trkpt>
      <trkpt lat="45.86856" lon="3.07496">
        <ele>491</ele>
        <time>2021-08-15T06:47:10Z</time>
      </trkpt>
      <trkpt lat="45.86856" lon="3.07499">
        <ele>491</ele>
        <time>2021-08-15T06:47:11Z</time>
      </trkpt>
      <trkpt lat="45.86855" lon="3.07502">
        <ele>491</ele>
        <time>2021-08-15T06:47:12Z</time>
      </trkpt>
      <trkpt lat="45.86855" lon="3.07505">
        <ele>491</ele>
        <time>2021-08-15T06:47:13Z</time>
      </trkpt>
      <trkpt lat="45.86855" lon="3.07508">
        <ele>491</ele>
        <time>2021-08-15T06:47:14Z</time>
      </trkpt>
      <trkpt lat="45.86855" lon="3.0751">
        <ele>491</ele>
        <time>2021-08-15T06:47:15Z</time>
      </trkpt>
      <trkpt lat="45.86855" lon="3.07513">
        <ele>491</ele>
        <time>2021-08-15T06:47:16Z</time>
      </trkpt>
      <trkpt lat="45.86855" lon="3.07516">
        <ele>491</ele>
        <time>2021-08-15T06:47:17Z</time>
      </trkpt>
      <trkpt lat="45.86855" lon="3.07518">
        <ele>491</ele>
        <time>2021-08-15T06:47:18Z</time>
      </trkpt>
      <trkpt lat="45.86855" lon="3.07521">
        <ele>491</ele>
        <time>2021-08-15T06:47:19Z</time>
      </trkpt>
      <trkpt lat="45.86855" lon="3.07524">
        <ele>491</ele>
        <time>2021-08-15T06:47:20Z</time>
      </trkpt>
      <trkpt lat="45.86855" lon="3.07527">
        <ele>491</ele>
        <time>2021-08-15T06:47:21Z</time>
      </trkpt>
      <trkpt lat="45.86856" lon="3.0753">
        <ele>491</ele>
        <time>2021-08-15T06:47:22Z</time>
      </trkpt>
      <trkpt lat="45.86856" lon="3.07534">
        <ele>491</ele>
        <time>2021-08-15T06:47:23Z</time>
      </trkpt>
      <trkpt lat="45.86856" lon="3.07537">
        <ele>491</ele>
        <time>2021-08-15T06:47:24Z</time>
      </trkpt>
      <trkpt lat="45.86857" lon="3.0754">
        <ele>491</ele>
        <time>2021-08-15T06:47:25Z</time>
      </trkpt>
      <trkpt lat="45.86857" lon="3.07543">
        <ele>491</ele>
        <time>2021-08-15T06:47:26Z</time>
      </trkpt>
      <trkpt lat="45.86858" lon="3.07546">
        <ele>491</ele>
        <time>2021-08-15T06:47:27Z</time>
      </trkpt>
      <trkpt lat="45.86858" lon="3.0755">
        <ele>491</ele>
        <time>2021-08-15T06:47:28Z</time>
      </trkpt>
      <trkpt lat="45.86858" lon="3.07553">
        <ele>491</ele>
        <time>2021-08-15T06:47:29Z</time>
      </trkpt>
      <trkpt lat="45.86859" lon="3.07556">
        <ele>491</ele>
        <time>2021-08-15T06:47:30Z</time>
      </trkpt>
      <trkpt lat="45.8686" lon="3.07559">
        <ele>491</ele>
        <time>2021-08-15T06:47:31Z</time>
      </trkpt>
      <trkpt lat="45.86861" lon="3.07563">
        <ele>491</ele>
        <time>2021-08-15T06:47:32Z</time>
      </trkpt>
      <trkpt lat="45.86863" lon="3.07566">
        <ele>491</ele>
        <time>2021-08-15T06:47:33Z</time>
      </trkpt>
      <trkpt lat="45.86864" lon="3.07569">
        <ele>491</ele>
        <time>2021-08-15T06:47:34Z</time>
      </trkpt>
      <trkpt lat="45.86865" lon="3.07572">
        <ele>491</ele>
        <time>2021-08-15T06:47:35Z</time>
      </trkpt>
      <trkpt lat="45.86866" lon="3.07575">
        <ele>491</ele>
        <time>2021-08-15T06:47:36Z</time>
      </trkpt>
      <trkpt lat="45.86867" lon="3.07578">
        <ele>491</ele>
        <time>2021-08-15T06:47:37Z</time>
      </trkpt>
      <trkpt lat="45.86868" lon="3.0758">
        <ele>491</ele>
        <time>2021-08-15T06:47:38Z</time>
      </trkpt>
      <trkpt lat="45.86869" lon="3.07583">
        <ele>491</ele>
        <time>2021-08-15T06:47:39Z</time>
      </trkpt>
      <trkpt lat="45.8687" lon="3.07585">
        <ele>491</ele>
        <time>2021-08-15T06:47:41Z</time>
      </trkpt>
      <trkpt lat="45.86874" lon="3.07595">
        <ele>491</ele>
        <time>2021-08-15T06:47:43Z</time>
      </trkpt>
      <trkpt lat="45.86876" lon="3.07599">
        <ele>491</ele>
        <time>2021-08-15T06:47:44Z</time>
      </trkpt>
      <trkpt lat="45.86876" lon="3.076">
        <ele>491</ele>
        <time>2021-08-15T06:47:45Z</time>
      </trkpt>
      <trkpt lat="45.86876" lon="3.07601">
        <ele>491</ele>
        <time>2021-08-15T06:47:46Z</time>
      </trkpt>
      <trkpt lat="45.86877" lon="3.07602">
        <ele>491</ele>
        <time>2021-08-15T06:47:47Z</time>
      </trkpt>
      <trkpt lat="45.86877" lon="3.07602">
        <ele>491</ele>
        <time>2021-08-15T06:47:48Z</time>
      </trkpt>
      <trkpt lat="45.86879" lon="3.07603">
        <ele>491</ele>
        <time>2021-08-15T06:47:49Z</time>
      </trkpt>
      <trkpt lat="45.86879" lon="3.07604">
        <ele>491</ele>
        <time>2021-08-15T06:47:50Z</time>
      </trkpt>
      <trkpt lat="45.86879" lon="3.07605">
        <ele>491</ele>
        <time>2021-08-15T06:47:51Z</time>
      </trkpt>
      <trkpt lat="45.8688" lon="3.07606">
        <ele>491</ele>
        <time>2021-08-15T06:47:52Z</time>
      </trkpt>
      <trkpt lat="45.86881" lon="3.07607">
        <ele>491</ele>
        <time>2021-08-15T06:47:53Z</time>
      </trkpt>
      <trkpt lat="45.86882" lon="3.07608">
        <ele>491</ele>
        <time>2021-08-15T06:47:54Z</time>
      </trkpt>
      <trkpt lat="45.86882" lon="3.07609">
        <ele>491</ele>
        <time>2021-08-15T06:47:55Z</time>
      </trkpt>
      <trkpt lat="45.86884" lon="3.07611">
        <ele>491</ele>
        <time>2021-08-15T06:47:56Z</time>
      </trkpt>
      <trkpt lat="45.86884" lon="3.07612">
        <ele>491</ele>
        <time>2021-08-15T06:47:57Z</time>
      </trkpt>
      <trkpt lat="45.86885" lon="3.07614">
        <ele>491</ele>
        <time>2021-08-15T06:47:58Z</time>
      </trkpt>
      <trkpt lat="45.86886" lon="3.07615">
        <ele>491</ele>
        <time>2021-08-15T06:47:59Z</time>
      </trkpt>
      <trkpt lat="45.86886" lon="3.07617">
        <ele>491</ele>
        <time>2021-08-15T06:48:00Z</time>
      </trkpt>
      <trkpt lat="45.86887" lon="3.07618">
        <ele>491</ele>
        <time>2021-08-15T06:48:01Z</time>
      </trkpt>
      <trkpt lat="45.86887" lon="3.07619">
        <ele>491</ele>
        <time>2021-08-15T06:48:02Z</time>
      </trkpt>
      <trkpt lat="45.86888" lon="3.07621">
        <ele>491</ele>
        <time>2021-08-15T06:48:03Z</time>
      </trkpt>
      <trkpt lat="45.86888" lon="3.07622">
        <ele>491</ele>
        <time>2021-08-15T06:48:04Z</time>
      </trkpt>
      <trkpt lat="45.86889" lon="3.07623">
        <ele>491</ele>
        <time>2021-08-15T06:48:05Z</time>
      </trkpt>
      <trkpt lat="45.86889" lon="3.07624">
        <ele>491</ele>
        <time>2021-08-15T06:48:06Z</time>
      </trkpt>
      <trkpt lat="45.8689" lon="3.07626">
        <ele>491</ele>
        <time>2021-08-15T06:48:07Z</time>
      </trkpt>
      <trkpt lat="45.8689" lon="3.07627">
        <ele>491</ele>
        <time>2021-08-15T06:48:08Z</time>
      </trkpt>
      <trkpt lat="45.86891" lon="3.07629">
        <ele>491</ele>
        <time>2021-08-15T06:48:09Z</time>
      </trkpt>
      <trkpt lat="45.86891" lon="3.07631">
        <ele>491</ele>
        <time>2021-08-15T06:48:10Z</time>
      </trkpt>
      <trkpt lat="45.86892" lon="3.07633">
        <ele>491</ele>
        <time>2021-08-15T06:48:11Z</time>
      </trkpt>
      <trkpt lat="45.86892" lon="3.07636">
        <ele>491</ele>
        <time>2021-08-15T06:48:12Z</time>
      </trkpt>
      <trkpt lat="45.86893" lon="3.07638">
        <ele>491</ele>
        <time>2021-08-15T06:48:13Z</time>
      </trkpt>
      <trkpt lat="45.86894" lon="3.07641">
        <ele>491</ele>
        <time>2021-08-15T06:48:14Z</time>
      </trkpt>
      <trkpt lat="45.86894" lon="3.07644">
        <ele>491</ele>
        <time>2021-08-15T06:48:15Z</time>
      </trkpt>
      <trkpt lat="45.86895" lon="3.07647">
        <ele>491</ele>
        <time>2021-08-15T06:48:16Z</time>
      </trkpt>
      <trkpt lat="45.86895" lon="3.0765">
        <ele>491</ele>
        <time>2021-08-15T06:48:17Z</time>
      </trkpt>
      <trkpt lat="45.86896" lon="3.07652">
        <ele>491</ele>
        <time>2021-08-15T06:48:18Z</time>
      </trkpt>
      <trkpt lat="45.86897" lon="3.07655">
        <ele>491</ele>
        <time>2021-08-15T06:48:19Z</time>
      </trkpt>
      <trkpt lat="45.86897" lon="3.07658">
        <ele>491</ele>
        <time>2021-08-15T06:48:20Z</time>
      </trkpt>
      <trkpt lat="45.86898" lon="3.0766">
        <ele>491</ele>
        <time>2021-08-15T06:48:21Z</time>
      </trkpt>
      <trkpt lat="45.86899" lon="3.07663">
        <ele>491</ele>
        <time>2021-08-15T06:48:22Z</time>
      </trkpt>
      <trkpt lat="45.869" lon="3.07666">
        <ele>491</ele>
        <time>2021-08-15T06:48:23Z</time>
      </trkpt>
      <trkpt lat="45.86901" lon="3.07669">
        <ele>491</ele>
        <time>2021-08-15T06:48:24Z</time>
      </trkpt>
      <trkpt lat="45.86902" lon="3.07672">
        <ele>491</ele>
        <time>2021-08-15T06:48:25Z</time>
      </trkpt>
      <trkpt lat="45.86903" lon="3.07674">
        <ele>491</ele>
        <time>2021-08-15T06:48:26Z</time>
      </trkpt>
      <trkpt lat="45.86903" lon="3.07676">
        <ele>491</ele>
        <time>2021-08-15T06:48:27Z</time>
      </trkpt>
      <trkpt lat="45.86905" lon="3.07679">
        <ele>491</ele>
        <time>2021-08-15T06:48:28Z</time>
      </trkpt>
      <trkpt lat="45.86906" lon="3.07681">
        <ele>491</ele>
        <time>2021-08-15T06:48:29Z</time>
      </trkpt>
      <trkpt lat="45.86907" lon="3.07683">
        <ele>491</ele>
        <time>2021-08-15T06:48:30Z</time>
      </trkpt>
      <trkpt lat="45.86908" lon="3.07686">
        <ele>491</ele>
        <time>2021-08-15T06:48:31Z</time>
      </trkpt>
      <trkpt lat="45.86909" lon="3.07688">
        <ele>491</ele>
        <time>2021-08-15T06:48:32Z</time>
      </trkpt>
      <trkpt lat="45.8691" lon="3.0769">
        <ele>491</ele>
        <time>2021-08-15T06:48:33Z</time>
      </trkpt>
      <trkpt lat="45.86911" lon="3.07692">
        <ele>491</ele>
        <time>2021-08-15T06:48:34Z</time>
      </trkpt>
      <trkpt lat="45.86912" lon="3.07694">
        <ele>491</ele>
        <time>2021-08-15T06:48:35Z</time>
      </trkpt>
      <trkpt lat="45.86912" lon="3.07696">
        <ele>491</ele>
        <time>2021-08-15T06:48:36Z</time>
      </trkpt>
      <trkpt lat="45.86913" lon="3.07698">
        <ele>491</ele>
        <time>2021-08-15T06:48:37Z</time>
      </trkpt>
      <trkpt lat="45.86914" lon="3.077">
        <ele>491</ele>
        <time>2021-08-15T06:48:38Z</time>
      </trkpt>
      <trkpt lat="45.86914" lon="3.07701">
        <ele>491</ele>
        <time>2021-08-15T06:48:39Z</time>
      </trkpt>
      <trkpt lat="45.86915" lon="3.07703">
        <ele>491</ele>
        <time>2021-08-15T06:48:40Z</time>
      </trkpt>
      <trkpt lat="45.86916" lon="3.07704">
        <ele>491</ele>
        <time>2021-08-15T06:48:42Z</time>
      </trkpt>
      <trkpt lat="45.86918" lon="3.07711">
        <ele>491</ele>
        <time>2021-08-15T06:48:43Z</time>
      </trkpt>
      <trkpt lat="45.86918" lon="3.07711">
        <ele>491</ele>
        <time>2021-08-15T06:48:44Z</time>
      </trkpt>
      <trkpt lat="45.86918" lon="3.07712">
        <ele>491</ele>
        <time>2021-08-15T06:48:45Z</time>
      </trkpt>
      <trkpt lat="45.86918" lon="3.07713">
        <ele>491</ele>
        <time>2021-08-15T06:48:46Z</time>
      </trkpt>
      <trkpt lat="45.86918" lon="3.07715">
        <ele>491</ele>
        <time>2021-08-15T06:48:47Z</time>
      </trkpt>
      <trkpt lat="45.86918" lon="3.07716">
        <ele>491</ele>
        <time>2021-08-15T06:48:48Z</time>
      </trkpt>
      <trkpt lat="45.86918" lon="3.07718">
        <ele>491</ele>
        <time>2021-08-15T06:48:49Z</time>
      </trkpt>
      <trkpt lat="45.86918" lon="3.0772">
        <ele>491</ele>
        <time>2021-08-15T06:48:50Z</time>
      </trkpt>
      <trkpt lat="45.86918" lon="3.07722">
        <ele>491</ele>
        <time>2021-08-15T06:48:51Z</time>
      </trkpt>
      <trkpt lat="45.86918" lon="3.07723">
        <ele>491</ele>
        <time>2021-08-15T06:48:52Z</time>
      </trkpt>
      <trkpt lat="45.86918" lon="3.07725">
        <ele>491</ele>
        <time>2021-08-15T06:48:53Z</time>
      </trkpt>
      <trkpt lat="45.86918" lon="3.07727">
        <ele>491</ele>
        <time>2021-08-15T06:48:54Z</time>
      </trkpt>
      <trkpt lat="45.86918" lon="3.07728">
        <ele>491</ele>
        <time>2021-08-15T06:48:55Z</time>
      </trkpt>
      <trkpt lat="45.86918" lon="3.0773">
        <ele>491</ele>
        <time>2021-08-15T06:48:56Z</time>
      </trkpt>
      <trkpt lat="45.86918" lon="3.07732">
        <ele>491</ele>
        <time>2021-08-15T06:48:57Z</time>
      </trkpt>
      <trkpt lat="45.86918" lon="3.07734">
        <ele>491</ele>
        <time>2021-08-15T06:48:58Z</time>
      </trkpt>
      <trkpt lat="45.86918" lon="3.07735">
        <ele>491</ele>
        <time>2021-08-15T06:48:59Z</time>
      </trkpt>
      <trkpt lat="45.86919" lon="3.07737">
        <ele>491</ele>
        <time>2021-08-15T06:49:00Z</time>
      </trkpt>
      <trkpt lat="45.86919" lon="3.07739">
        <ele>491</ele>
        <time>2021-08-15T06:49:01Z</time>
      </trkpt>
      <trkpt lat="45.86919" lon="3.07741">
        <ele>491</ele>
        <time>2021-08-15T06:49:02Z</time>
      </trkpt>
      <trkpt lat="45.86919" lon="3.07744">
        <ele>491</ele>
        <time>2021-08-15T06:49:03Z</time>
      </trkpt>
      <trkpt lat="45.86919" lon="3.07746">
        <ele>491</ele>
        <time>2021-08-15T06:49:04Z</time>
      </trkpt>
      <trkpt lat="45.86919" lon="3.07748">
        <ele>491</ele>
        <time>2021-08-15T06:49:05Z</time>
      </trkpt>
      <trkpt lat="45.86919" lon="3.07751">
        <ele>491</ele>
        <time>2021-08-15T06:49:06Z</time>
      </trkpt>
      <trkpt lat="45.86919" lon="3.07753">
        <ele>491</ele>
        <time>2021-08-15T06:49:07Z</time>
      </trkpt>
      <trkpt lat="45.86919" lon="3.07755">
        <ele>491</ele>
        <time>2021-08-15T06:49:08Z</time>
      </trkpt>
      <trkpt lat="45.86919" lon="3.07758">
        <ele>491</ele>
        <time>2021-08-15T06:49:09Z</time>
      </trkpt>
      <trkpt lat="45.86919" lon="3.0776">
        <ele>491</ele>
        <time>2021-08-15T06:49:10Z</time>
      </trkpt>
      <trkpt lat="45.86919" lon="3.07763">
        <ele>491</ele>
        <time>2021-08-15T06:49:11Z</time>
      </trkpt>
      <trkpt lat="45.86919" lon="3.07766">
        <ele>491</ele>
        <time>2021-08-15T06:49:12Z</time>
      </trkpt>
      <trkpt lat="45.86918" lon="3.07768">
        <ele>491</ele>
        <time>2021-08-15T06:49:13Z</time>
      </trkpt>
      <trkpt lat="45.86918" lon="3.07771">
        <ele>491</ele>
        <time>2021-08-15T06:49:14Z</time>
      </trkpt>
      <trkpt lat="45.86918" lon="3.07774">
        <ele>491</ele>
        <time>2021-08-15T06:49:15Z</time>
      </trkpt>
      <trkpt lat="45.86918" lon="3.07777">
        <ele>491</ele>
        <time>2021-08-15T06:49:16Z</time>
      </trkpt>
      <trkpt lat="45.86918" lon="3.07781">
        <ele>491</ele>
        <time>2021-08-15T06:49:17Z</time>
      </trkpt>
      <trkpt lat="45.86918" lon="3.07784">
        <ele>491</ele>
        <time>2021-08-15T06:49:18Z</time>
      </trkpt>
      <trkpt lat="45.86918" lon="3.07787">
        <ele>491</ele>
        <time>2021-08-15T06:49:19Z</time>
      </trkpt>
      <trkpt lat="45.86918" lon="3.07791">
        <ele>491</ele>
        <time>2021-08-15T06:49:20Z</time>
      </trkpt>
      <trkpt lat="45.86918" lon="3.07794">
        <ele>491</ele>
        <time>2021-08-15T06:49:21Z</time>
      </trkpt>
      <trkpt lat="45.86918" lon="3.07797">
        <ele>491</ele>
        <time>2021-08-15T06:49:22Z</time>
      </trkpt>
      <trkpt lat="45.86918" lon="3.078">
        <ele>491</ele>
        <time>2021-08-15T06:49:23Z</time>
      </trkpt>
      <trkpt lat="45.86918" lon="3.07804">
        <ele>491</ele>
        <time>2021-08-15T06:49:24Z</time>
      </trkpt>
      <trkpt lat="45.86918" lon="3.07807">
        <ele>491</ele>
        <time>2021-08-15T06:49:25Z</time>
      </trkpt>
      <trkpt lat="45.86918" lon="3.0781">
        <ele>491</ele>
        <time>2021-08-15T06:49:26Z</time>
      </trkpt>
      <trkpt lat="45.86918" lon="3.07813">
        <ele>491</ele>
        <time>2021-08-15T06:49:27Z</time>
      </trkpt>
      <trkpt lat="45.86918" lon="3.07816">
        <ele>491</ele>
        <time>2021-08-15T06:49:28Z</time>
      </trkpt>
      <trkpt lat="45.86918" lon="3.07819">
        <ele>491</ele>
        <time>2021-08-15T06:49:29Z</time>
      </trkpt>
      <trkpt lat="45.86918" lon="3.07821">
        <ele>491</ele>
        <time>2021-08-15T06:49:30Z</time>
      </trkpt>
      <trkpt lat="45.86918" lon="3.07823">
        <ele>491</ele>
        <time>2021-08-15T06:49:31Z</time>
      </trkpt>
      <trkpt lat="45.86918" lon="3.07826">
        <ele>491</ele>
        <time>2021-08-15T06:49:32Z</time>
      </trkpt>
      <trkpt lat="45.86919" lon="3.07828">
        <ele>491</ele>
        <time>2021-08-15T06:49:33Z</time>
      </trkpt>
      <trkpt lat="45.86919" lon="3.0783">
        <ele>491</ele>
        <time>2021-08-15T06:49:34Z</time>
      </trkpt>
      <trkpt lat="45.86919" lon="3.07832">
        <ele>491</ele>
        <time>2021-08-15T06:49:35Z</time>
      </trkpt>
      <trkpt lat="45.86919" lon="3.07834">
        <ele>491</ele>
        <time>2021-08-15T06:49:36Z</time>
      </trkpt>
      <trkpt lat="45.8692" lon="3.07836">
        <ele>491</ele>
        <time>2021-08-15T06:49:37Z</time>
      </trkpt>
      <trkpt lat="45.8692" lon="3.07838">
        <ele>491</ele>
        <time>2021-08-15T06:49:38Z</time>
      </trkpt>
      <trkpt lat="45.8692" lon="3.0784">
        <ele>491</ele>
        <time>2021-08-15T06:49:39Z</time>
      </trkpt>
      <trkpt lat="45.86919" lon="3.07842">
        <ele>491</ele>
        <time>2021-08-15T06:49:41Z</time>
      </trkpt>
      <trkpt lat="45.86919" lon="3.07844">
        <ele>491</ele>
        <time>2021-08-15T06:49:42Z</time>
      </trkpt>
      <trkpt lat="45.8692" lon="3.07852">
        <ele>491</ele>
        <time>2021-08-15T06:49:43Z</time>
      </trkpt>
      <trkpt lat="45.8692" lon="3.07853">
        <ele>491</ele>
        <time>2021-08-15T06:49:44Z</time>
      </trkpt>
      <trkpt lat="45.86921" lon="3.07854">
        <ele>491</ele>
        <time>2021-08-15T06:49:45Z</time>
      </trkpt>
      <trkpt lat="45.86921" lon="3.07855">
        <ele>491</ele>
        <time>2021-08-15T06:49:46Z</time>
      </trkpt>
      <trkpt lat="45.86921" lon="3.07857">
        <ele>491</ele>
        <time>2021-08-15T06:49:47Z</time>
      </trkpt>
      <trkpt lat="45.86921" lon="3.07858">
        <ele>491</ele>
        <time>2021-08-15T06:49:48Z</time>
      </trkpt>
      <trkpt lat="45.86921" lon="3.0786">
        <ele>491</ele>
        <time>2021-08-15T06:49:49Z</time>
      </trkpt>
      <trkpt lat="45.86921" lon="3.07862">
        <ele>491</ele>
        <time>2021-08-15T06:49:50Z</time>
      </trkpt>
      <trkpt lat="45.86922" lon="3.07864">
        <ele>491</ele>
        <time>2021-08-15T06:49:51Z</time>
      </trkpt>
      <trkpt lat="45.86923" lon="3.07866">
        <ele>491</ele>
        <time>2021-08-15T06:49:52Z</time>
      </trkpt>
      <trkpt lat="45.86923" lon="3.07868">
        <ele>491</ele>
        <time>2021-08-15T06:49:53Z</time>
      </trkpt>
      <trkpt lat="45.86924" lon="3.07869">
        <ele>491</ele>
        <time>2021-08-15T06:49:54Z</time>
      </trkpt>
      <trkpt lat="45.86924" lon="3.07871">
        <ele>491</ele>
        <time>2021-08-15T06:49:55Z</time>
      </trkpt>
      <trkpt lat="45.86925" lon="3.07873">
        <ele>491</ele>
        <time>2021-08-15T06:49:56Z</time>
      </trkpt>
      <trkpt lat="45.86927" lon="3.07876">
        <ele>491</ele>
        <time>2021-08-15T06:49:57Z</time>
      </trkpt>
      <trkpt lat="45.86927" lon="3.07878">
        <ele>491</ele>
        <time>2021-08-15T06:49:58Z</time>
      </trkpt>
      <trkpt lat="45.86928" lon="3.0788">
        <ele>491</ele>
        <time>2021-08-15T06:49:59Z</time>
      </trkpt>
      <trkpt lat="45.86928" lon="3.07882">
        <ele>491</ele>
        <time>2021-08-15T06:50:00Z</time>
      </trkpt>
      <trkpt lat="45.86929" lon="3.07885">
        <ele>491</ele>
        <time>2021-08-15T06:50:01Z</time>
      </trkpt>
      <trkpt lat="45.86929" lon="3.07888">
        <ele>491</ele>
        <time>2021-08-15T06:50:02Z</time>
      </trkpt>
      <trkpt lat="45.8693" lon="3.0789">
        <ele>491</ele>
        <time>2021-08-15T06:50:03Z</time>
      </trkpt>
      <trkpt lat="45.8693" lon="3.07893">
        <ele>491</ele>
        <time>2021-08-15T06:50:04Z</time>
      </trkpt>
      <trkpt lat="45.86931" lon="3.07896">
        <ele>491</ele>
        <time>2021-08-15T06:50:05Z</time>
      </trkpt>
      <trkpt lat="45.86931" lon="3.07899">
        <ele>491</ele>
        <time>2021-08-15T06:50:06Z</time>
      </trkpt>
      <trkpt lat="45.86932" lon="3.07902">
        <ele>491</ele>
        <time>2021-08-15T06:50:07Z</time>
      </trkpt>
      <trkpt lat="45.86933" lon="3.07904">
        <ele>491</ele>
        <time>2021-08-15T06:50:08Z</time>
      </trkpt>
      <trkpt lat="45.86934" lon="3.07907">
        <ele>491</ele>
        <time>2021-08-15T06:50:09Z</time>
      </trkpt>
      <trkpt lat="45.86934" lon="3.07909">
        <ele>491</ele>
        <time>2021-08-15T06:50:10Z</time>
      </trkpt>
      <trkpt lat="45.86935" lon="3.07911">
        <ele>491</ele>
        <time>2021-08-15T06:50:11Z</time>
      </trkpt>
      <trkpt lat="45.86936" lon="3.07913">
        <ele>491</ele>
        <time>2021-08-15T06:50:12Z</time>
      </trkpt>
      <trkpt lat="45.86937" lon="3.07916">
        <ele>491</ele>
        <time>2021-08-15T06:50:13Z</time>
      </trkpt>
      <trkpt lat="45.86938" lon="3.07919">
        <ele>491</ele>
        <time>2021-08-15T06:50:14Z</time>
      </trkpt>
      <trkpt lat="45.86939" lon="3.07921">
        <ele>491</ele>
        <time>2021-08-15T06:50:15Z</time>
      </trkpt>
      <trkpt lat="45.86939" lon="3.07924">
        <ele>491</ele>
        <time>2021-08-15T06:50:16Z</time>
      </trkpt>
      <trkpt lat="45.8694" lon="3.07926">
        <ele>491</ele>
        <time>2021-08-15T06:50:17Z</time>
      </trkpt>
      <trkpt lat="45.86942" lon="3.07929">
        <ele>491</ele>
        <time>2021-08-15T06:50:18Z</time>
      </trkpt>
      <trkpt lat="45.86942" lon="3.07931">
        <ele>491</ele>
        <time>2021-08-15T06:50:19Z</time>
      </trkpt>
      <trkpt lat="45.86943" lon="3.07933">
        <ele>491</ele>
        <time>2021-08-15T06:50:20Z</time>
      </trkpt>
      <trkpt lat="45.86945" lon="3.07936">
        <ele>491</ele>
        <time>2021-08-15T06:50:21Z</time>
      </trkpt>
      <trkpt lat="45.86946" lon="3.07938">
        <ele>491</ele>
        <time>2021-08-15T06:50:22Z</time>
      </trkpt>
      <trkpt lat="45.86947" lon="3.07941">
        <ele>491</ele>
        <time>2021-08-15T06:50:23Z</time>
      </trkpt>
      <trkpt lat="45.86948" lon="3.07944">
        <ele>491</ele>
        <time>2021-08-15T06:50:24Z</time>
      </trkpt>
      <trkpt lat="45.86949" lon="3.07947">
        <ele>491</ele>
        <time>2021-08-15T06:50:25Z</time>
      </trkpt>
      <trkpt lat="45.86949" lon="3.07949">
        <ele>491</ele>
        <time>2021-08-15T06:50:26Z</time>
      </trkpt>
      <trkpt lat="45.8695" lon="3.07952">
        <ele>491</ele>
        <time>2021-08-15T06:50:27Z</time>
      </trkpt>
      <trkpt lat="45.86951" lon="3.07954">
        <ele>491</ele>
        <time>2021-08-15T06:50:28Z</time>
      </trkpt>
      <trkpt lat="45.86952" lon="3.07956">
        <ele>491</ele>
        <time>2021-08-15T06:50:29Z</time>
      </trkpt>
      <trkpt lat="45.86953" lon="3.07958">
        <ele>491</ele>
        <time>2021-08-15T06:50:30Z</time>
      </trkpt>
      <trkpt lat="45.86954" lon="3.0796">
        <ele>491</ele>
        <time>2021-08-15T06:50:31Z</time>
      </trkpt>
      <trkpt lat="45.86954" lon="3.07962">
        <ele>491</ele>
        <time>2021-08-15T06:50:32Z</time>
      </trkpt>
      <trkpt lat="45.86955" lon="3.07964">
        <ele>491</ele>
        <time>2021-08-15T06:50:33Z</time>
      </trkpt>
      <trkpt lat="45.86956" lon="3.07967">
        <ele>491</ele>
        <time>2021-08-15T06:50:34Z</time>
      </trkpt>
      <trkpt lat="45.86957" lon="3.07969">
        <ele>491</ele>
        <time>2021-08-15T06:50:35Z</time>
      </trkpt>
      <trkpt lat="45.86958" lon="3.07971">
        <ele>491</ele>
        <time>2021-08-15T06:50:36Z</time>
      </trkpt>
      <trkpt lat="45.86959" lon="3.07973">
        <ele>491</ele>
        <time>2021-08-15T06:50:37Z</time>
      </trkpt>
      <trkpt lat="45.8696" lon="3.07975">
        <ele>491</ele>
        <time>2021-08-15T06:50:38Z</time>
      </trkpt>
      <trkpt lat="45.86961" lon="3.07977">
        <ele>491</ele>
        <time>2021-08-15T06:50:39Z</time>
      </trkpt>
      <trkpt lat="45.86962" lon="3.07979">
        <ele>491</ele>
        <time>2021-08-15T06:50:40Z</time>
      </trkpt>
      <trkpt lat="45.86963" lon="3.07981">
        <ele>491</ele>
        <time>2021-08-15T06:50:42Z</time>
      </trkpt>
      <trkpt lat="45.86967" lon="3.07991">
        <ele>491</ele>
        <time>2021-08-15T06:50:43Z</time>
      </trkpt>
      <trkpt lat="45.86967" lon="3.07991">
        <ele>491</ele>
        <time>2021-08-15T06:50:44Z</time>
      </trkpt>
      <trkpt lat="45.86968" lon="3.07993">
        <ele>491</ele>
        <time>2021-08-15T06:50:45Z</time>
      </trkpt>
      <trkpt lat="45.86969" lon="3.07994">
        <ele>491</ele>
        <time>2021-08-15T06:50:46Z</time>
      </trkpt>
      <trkpt lat="45.86969" lon="3.07997">
        <ele>491</ele>
        <time>2021-08-15T06:50:47Z</time>
      </trkpt>
      <trkpt lat="45.8697" lon="3.07999">
        <ele>491</ele>
        <time>2021-08-15T06:50:48Z</time>
      </trkpt>
      <trkpt lat="45.86971" lon="3.08002">
        <ele>491</ele>
        <time>2021-08-15T06:50:49Z</time>
      </trkpt>
      <trkpt lat="45.86972" lon="3.08004">
        <ele>491</ele>
        <time>2021-08-15T06:50:50Z</time>
      </trkpt>
      <trkpt lat="45.86973" lon="3.08006">
        <ele>491</ele>
        <time>2021-08-15T06:50:51Z</time>
      </trkpt>
      <trkpt lat="45.86974" lon="3.08009">
        <ele>491</ele>
        <time>2021-08-15T06:50:52Z</time>
      </trkpt>
      <trkpt lat="45.86975" lon="3.08012">
        <ele>491</ele>
        <time>2021-08-15T06:50:52Z</time>
      </trkpt>
      <trkpt lat="45.86976" lon="3.08015">
        <ele>491</ele>
        <time>2021-08-15T06:50:53Z</time>
      </trkpt>
      <trkpt lat="45.86976" lon="3.08017">
        <ele>491</ele>
        <time>2021-08-15T06:50:54Z</time>
      </trkpt>
      <trkpt lat="45.86977" lon="3.0802">
        <ele>491</ele>
        <time>2021-08-15T06:50:55Z</time>
      </trkpt>
      <trkpt lat="45.86978" lon="3.08023">
        <ele>491</ele>
        <time>2021-08-15T06:50:56Z</time>
      </trkpt>
      <trkpt lat="45.86978" lon="3.08025">
        <ele>491</ele>
        <time>2021-08-15T06:50:57Z</time>
      </trkpt>
      <trkpt lat="45.86979" lon="3.08028">
        <ele>491</ele>
        <time>2021-08-15T06:50:58Z</time>
      </trkpt>
      <trkpt lat="45.86979" lon="3.0803">
        <ele>491</ele>
        <time>2021-08-15T06:50:59Z</time>
      </trkpt>
      <trkpt lat="45.8698" lon="3.08033">
        <ele>491</ele>
        <time>2021-08-15T06:51:00Z</time>
      </trkpt>
      <trkpt lat="45.86981" lon="3.08035">
        <ele>491</ele>
        <time>2021-08-15T06:51:01Z</time>
      </trkpt>
      <trkpt lat="45.86981" lon="3.08038">
        <ele>491</ele>
        <time>2021-08-15T06:51:02Z</time>
      </trkpt>
      <trkpt lat="45.86982" lon="3.08041">
        <ele>491</ele>
        <time>2021-08-15T06:51:03Z</time>
      </trkpt>
      <trkpt lat="45.86984" lon="3.08043">
        <ele>491</ele>
        <time>2021-08-15T06:51:04Z</time>
      </trkpt>
      <trkpt lat="45.86984" lon="3.08046">
        <ele>491</ele>
        <time>2021-08-15T06:51:05Z</time>
      </trkpt>
      <trkpt lat="45.86985" lon="3.08049">
        <ele>491</ele>
        <time>2021-08-15T06:51:06Z</time>
      </trkpt>
      <trkpt lat="45.86985" lon="3.08051">
        <ele>491</ele>
        <time>2021-08-15T06:51:07Z</time>
      </trkpt>
      <trkpt lat="45.86985" lon="3.08054">
        <ele>491</ele>
        <time>2021-08-15T06:51:08Z</time>
      </trkpt>
      <trkpt lat="45.86986" lon="3.08056">
        <ele>491</ele>
        <time>2021-08-15T06:51:09Z</time>
      </trkpt>
      <trkpt lat="45.86987" lon="3.08059">
        <ele>491</ele>
        <time>2021-08-15T06:51:10Z</time>
      </trkpt>
      <trkpt lat="45.86988" lon="3.08061">
        <ele>491</ele>
        <time>2021-08-15T06:51:11Z</time>
      </trkpt>
      <trkpt lat="45.86988" lon="3.08064">
        <ele>491</ele>
        <time>2021-08-15T06:51:12Z</time>
      </trkpt>
      <trkpt lat="45.86988" lon="3.08067">
        <ele>491</ele>
        <time>2021-08-15T06:51:13Z</time>
      </trkpt>
      <trkpt lat="45.86989" lon="3.08069">
        <ele>491</ele>
        <time>2021-08-15T06:51:14Z</time>
      </trkpt>
      <trkpt lat="45.8699" lon="3.08072">
        <ele>491</ele>
        <time>2021-08-15T06:51:15Z</time>
      </trkpt>
      <trkpt lat="45.8699" lon="3.08075">
        <ele>491</ele>
        <time>2021-08-15T06:51:16Z</time>
      </trkpt>
      <trkpt lat="45.86991" lon="3.08078">
        <ele>491</ele>
        <time>2021-08-15T06:51:17Z</time>
      </trkpt>
      <trkpt lat="45.86992" lon="3.08081">
        <ele>491</ele>
        <time>2021-08-15T06:51:18Z</time>
      </trkpt>
      <trkpt lat="45.86992" lon="3.08084">
        <ele>491</ele>
        <time>2021-08-15T06:51:19Z</time>
      </trkpt>
      <trkpt lat="45.86993" lon="3.08086">
        <ele>491</ele>
        <time>2021-08-15T06:51:20Z</time>
      </trkpt>
      <trkpt lat="45.86993" lon="3.08088">
        <ele>491</ele>
        <time>2021-08-15T06:51:21Z</time>
      </trkpt>
      <trkpt lat="45.86993" lon="3.0809">
        <ele>491</ele>
        <time>2021-08-15T06:51:22Z</time>
      </trkpt>
      <trkpt lat="45.86993" lon="3.08092">
        <ele>491</ele>
        <time>2021-08-15T06:51:23Z</time>
      </trkpt>
      <trkpt lat="45.86994" lon="3.08094">
        <ele>491</ele>
        <time>2021-08-15T06:51:24Z</time>
      </trkpt>
      <trkpt lat="45.86994" lon="3.08097">
        <ele>491</ele>
        <time>2021-08-15T06:51:25Z</time>
      </trkpt>
      <trkpt lat="45.86994" lon="3.081">
        <ele>491</ele>
        <time>2021-08-15T06:51:26Z</time>
      </trkpt>
      <trkpt lat="45.86995" lon="3.08102">
        <ele>491</ele>
        <time>2021-08-15T06:51:27Z</time>
      </trkpt>
      <trkpt lat="45.86996" lon="3.08104">
        <ele>491</ele>
        <time>2021-08-15T06:51:28Z</time>
      </trkpt>
      <trkpt lat="45.86997" lon="3.08106">
        <ele>491</ele>
        <time>2021-08-15T06:51:29Z</time>
      </trkpt>
      <trkpt lat="45.86998" lon="3.08108">
        <ele>491</ele>
        <time>2021-08-15T06:51:30Z</time>
      </trkpt>
      <trkpt lat="45.86999" lon="3.08109">
        <ele>491</ele>
        <time>2021-08-15T06:51:31Z</time>
      </trkpt>
      <trkpt lat="45.86999" lon="3.08111">
        <ele>491</ele>
        <time>2021-08-15T06:51:32Z</time>
      </trkpt>
      <trkpt lat="45.87" lon="3.08113">
        <ele>491</ele>
        <time>2021-08-15T06:51:33Z</time>
      </trkpt>
      <trkpt lat="45.87" lon="3.08115">
        <ele>491</ele>
        <time>2021-08-15T06:51:34Z</time>
      </trkpt>
      <trkpt lat="45.87001" lon="3.08118">
        <ele>491</ele>
        <time>2021-08-15T06:51:35Z</time>
      </trkpt>
      <trkpt lat="45.87001" lon="3.0812">
        <ele>491</ele>
        <time>2021-08-15T06:51:36Z</time>
      </trkpt>
      <trkpt lat="45.87002" lon="3.08122">
        <ele>491</ele>
        <time>2021-08-15T06:51:37Z</time>
      </trkpt>
      <trkpt lat="45.87002" lon="3.08125">
        <ele>491</ele>
        <time>2021-08-15T06:51:38Z</time>
      </trkpt>
      <trkpt lat="45.87003" lon="3.08128">
        <ele>491</ele>
        <time>2021-08-15T06:51:39Z</time>
      </trkpt>
      <trkpt lat="45.87004" lon="3.0813">
        <ele>491</ele>
        <time>2021-08-15T06:51:41Z</time>
      </trkpt>
      <trkpt lat="45.87008" lon="3.08141">
        <ele>491</ele>
        <time>2021-08-15T06:51:42Z</time>
      </trkpt>
      <trkpt lat="45.87008" lon="3.08141">
        <ele>491</ele>
        <time>2021-08-15T06:51:43Z</time>
      </trkpt>
      <trkpt lat="45.87009" lon="3.08142">
        <ele>491</ele>
        <time>2021-08-15T06:51:44Z</time>
      </trkpt>
      <trkpt lat="45.87009" lon="3.08144">
        <ele>491</ele>
        <time>2021-08-15T06:51:45Z</time>
      </trkpt>
      <trkpt lat="45.8701" lon="3.08145">
        <ele>491</ele>
        <time>2021-08-15T06:51:46Z</time>
      </trkpt>
      <trkpt lat="45.87011" lon="3.08146">
        <ele>491</ele>
        <time>2021-08-15T06:51:47Z</time>
      </trkpt>
      <trkpt lat="45.87012" lon="3.08148">
        <ele>491</ele>
        <time>2021-08-15T06:51:48Z</time>
      </trkpt>
      <trkpt lat="45.87013" lon="3.08149">
        <ele>491</ele>
        <time>2021-08-15T06:51:49Z</time>
      </trkpt>
      <trkpt lat="45.87014" lon="3.08151">
        <ele>491</ele>
        <time>2021-08-15T06:51:50Z</time>
      </trkpt>
      <trkpt lat="45.87015" lon="3.08153">
        <ele>491</ele>
        <time>2021-08-15T06:51:51Z</time>
      </trkpt>
      <trkpt lat="45.87015" lon="3.08154">
        <ele>491</ele>
        <time>2021-08-15T06:51:52Z</time>
      </trkpt>
      <trkpt lat="45.87016" lon="3.08156">
        <ele>491</ele>
        <time>2021-08-15T06:51:53Z</time>
      </trkpt>
      <trkpt lat="45.87016" lon="3.08158">
        <ele>491</ele>
        <time>2021-08-15T06:51:54Z</time>
      </trkpt>
      <trkpt lat="45.87017" lon="3.08159">
        <ele>491</ele>
        <time>2021-08-15T06:51:55Z</time>
      </trkpt>
      <trkpt lat="45.87017" lon="3.08161">
        <ele>491</ele>
        <time>2021-08-15T06:51:56Z</time>
      </trkpt>
      <trkpt lat="45.87017" lon="3.08163">
        <ele>491</ele>
        <time>2021-08-15T06:51:57Z</time>
      </trkpt>
      <trkpt lat="45.87017" lon="3.08164">
        <ele>491</ele>
        <time>2021-08-15T06:51:58Z</time>
      </trkpt>
      <trkpt lat="45.87016" lon="3.08166">
        <ele>491</ele>
        <time>2021-08-15T06:51:59Z</time>
      </trkpt>
      <trkpt lat="45.87016" lon="3.08167">
        <ele>491</ele>
        <time>2021-08-15T06:52:00Z</time>
      </trkpt>
      <trkpt lat="45.87016" lon="3.08169">
        <ele>491</ele>
        <time>2021-08-15T06:52:01Z</time>
      </trkpt>
      <trkpt lat="45.87016" lon="3.0817">
        <ele>491</ele>
        <time>2021-08-15T06:52:02Z</time>
      </trkpt>
      <trkpt lat="45.87015" lon="3.08172">
        <ele>491</ele>
        <time>2021-08-15T06:52:03Z</time>
      </trkpt>
      <trkpt lat="45.87015" lon="3.08174">
        <ele>491</ele>
        <time>2021-08-15T06:52:04Z</time>
      </trkpt>
      <trkpt lat="45.87014" lon="3.08176">
        <ele>491</ele>
        <time>2021-08-15T06:52:05Z</time>
      </trkpt>
      <trkpt lat="45.87013" lon="3.08178">
        <ele>491</ele>
        <time>2021-08-15T06:52:06Z</time>
      </trkpt>
      <trkpt lat="45.87013" lon="3.0818">
        <ele>491</ele>
        <time>2021-08-15T06:52:07Z</time>
      </trkpt>
      <trkpt lat="45.87012" lon="3.08183">
        <ele>491</ele>
        <time>2021-08-15T06:52:08Z</time>
      </trkpt>
      <trkpt lat="45.87011" lon="3.08185">
        <ele>491</ele>
        <time>2021-08-15T06:52:09Z</time>
      </trkpt>
      <trkpt lat="45.8701" lon="3.08187">
        <ele>491</ele>
        <time>2021-08-15T06:52:10Z</time>
      </trkpt>
      <trkpt lat="45.87009" lon="3.08189">
        <ele>491</ele>
        <time>2021-08-15T06:52:11Z</time>
      </trkpt>
      <trkpt lat="45.87009" lon="3.08191">
        <ele>491</ele>
        <time>2021-08-15T06:52:12Z</time>
      </trkpt>
      <trkpt lat="45.87008" lon="3.08192">
        <ele>491</ele>
        <time>2021-08-15T06:52:13Z</time>
      </trkpt>
      <trkpt lat="45.87007" lon="3.08194">
        <ele>491</ele>
        <time>2021-08-15T06:52:14Z</time>
      </trkpt>
      <trkpt lat="45.87006" lon="3.08195">
        <ele>491</ele>
        <time>2021-08-15T06:52:15Z</time>
      </trkpt>
      <trkpt lat="45.87006" lon="3.08197">
        <ele>491</ele>
        <time>2021-08-15T06:52:16Z</time>
      </trkpt>
      <trkpt lat="45.87005" lon="3.08198">
        <ele>491</ele>
        <time>2021-08-15T06:52:17Z</time>
      </trkpt>
      <trkpt lat="45.87004" lon="3.082">
        <ele>491</ele>
        <time>2021-08-15T06:52:18Z</time>
      </trkpt>
      <trkpt lat="45.87003" lon="3.08202">
        <ele>491</ele>
        <time>2021-08-15T06:52:19Z</time>
      </trkpt>
      <trkpt lat="45.87002" lon="3.08204">
        <ele>491</ele>
        <time>2021-08-15T06:52:20Z</time>
      </trkpt>
      <trkpt lat="45.87001" lon="3.08206">
        <ele>491</ele>
        <time>2021-08-15T06:52:21Z</time>
      </trkpt>
      <trkpt lat="45.87" lon="3.08208">
        <ele>491</ele>
        <time>2021-08-15T06:52:22Z</time>
      </trkpt>
      <trkpt lat="45.86999" lon="3.08209">
        <ele>491</ele>
        <time>2021-08-15T06:52:23Z</time>
      </trkpt>
      <trkpt lat="45.86998" lon="3.08212">
        <ele>491</ele>
        <time>2021-08-15T06:52:24Z</time>
      </trkpt>
      <trkpt lat="45.86997" lon="3.08214">
        <ele>491</ele>
        <time>2021-08-15T06:52:25Z</time>
      </trkpt>
      <trkpt lat="45.86996" lon="3.08216">
        <ele>491</ele>
        <time>2021-08-15T06:52:26Z</time>
      </trkpt>
      <trkpt lat="45.86995" lon="3.08219">
        <ele>491</ele>
        <time>2021-08-15T06:52:27Z</time>
      </trkpt>
      <trkpt lat="45.86994" lon="3.08221">
        <ele>491</ele>
        <time>2021-08-15T06:52:28Z</time>
      </trkpt>
      <trkpt lat="45.86993" lon="3.08223">
        <ele>491</ele>
        <time>2021-08-15T06:52:29Z</time>
      </trkpt>
      <trkpt lat="45.86992" lon="3.08224">
        <ele>491</ele>
        <time>2021-08-15T06:52:30Z</time>
      </trkpt>
      <trkpt lat="45.86992" lon="3.08226">
        <ele>491</ele>
        <time>2021-08-15T06:52:31Z</time>
      </trkpt>
      <trkpt lat="45.86991" lon="3.08228">
        <ele>491</ele>
        <time>2021-08-15T06:52:32Z</time>
      </trkpt>
      <trkpt lat="45.8699" lon="3.0823">
        <ele>491</ele>
        <time>2021-08-15T06:52:33Z</time>
      </trkpt>
      <trkpt lat="45.8699" lon="3.08233">
        <ele>491</ele>
        <time>2021-08-15T06:52:34Z</time>
      </trkpt>
      <trkpt lat="45.86988" lon="3.08235">
        <ele>491</ele>
        <time>2021-08-15T06:52:35Z</time>
      </trkpt>
      <trkpt lat="45.86988" lon="3.08236">
        <ele>491</ele>
        <time>2021-08-15T06:52:36Z</time>
      </trkpt>
      <trkpt lat="45.86987" lon="3.08238">
        <ele>491</ele>
        <time>2021-08-15T06:52:37Z</time>
      </trkpt>
      <trkpt lat="45.86986" lon="3.0824">
        <ele>491</ele>
        <time>2021-08-15T06:52:38Z</time>
      </trkpt>
      <trkpt lat="45.86985" lon="3.08242">
        <ele>491</ele>
        <time>2021-08-15T06:52:39Z</time>
      </trkpt>
      <trkpt lat="45.86984" lon="3.08244">
        <ele>491</ele>
        <time>2021-08-15T06:52:40Z</time>
      </trkpt>
      <trkpt lat="45.86984" lon="3.08247">
        <ele>491</ele>
        <time>2021-08-15T06:52:42Z</time>
      </trkpt>
      <trkpt lat="45.8698" lon="3.08257">
        <ele>491</ele>
        <time>2021-08-15T06:52:43Z</time>
      </trkpt>
      <trkpt lat="45.8698" lon="3.08257">
        <ele>491</ele>
        <time>2021-08-15T06:52:44Z</time>
      </trkpt>
      <trkpt lat="45.8698" lon="3.08258">
        <ele>491</ele>
        <time>2021-08-15T06:52:45Z</time>
      </trkpt>
      <trkpt lat="45.8698" lon="3.0826">
        <ele>491</ele>
        <time>2021-08-15T06:52:46Z</time>
      </trkpt>
      <trkpt lat="45.8698" lon="3.08262">
        <ele>491</ele>
        <time>2021-08-15T06:52:47Z</time>
      </trkpt>
      <trkpt lat="45.86979" lon="3.08263">
        <ele>491</ele>
        <time>2021-08-15T06:52:48Z</time>
      </trkpt>
      <trkpt lat="45.86979" lon="3.08264">
        <ele>491</ele>
        <time>2021-08-15T06:52:49Z</time>
      </trkpt>
      <trkpt lat="45.86978" lon="3.08266">
        <ele>491</ele>
        <time>2021-08-15T06:52:50Z</time>
      </trkpt>
      <trkpt lat="45.86978" lon="3.08267">
        <ele>491</ele>
        <time>2021-08-15T06:52:51Z</time>
      </trkpt>
      <trkpt lat="45.86977" lon="3.08269">
        <ele>491</ele>
        <time>2021-08-15T06:52:52Z</time>
      </trkpt>
      <trkpt lat="45.86977" lon="3.0827">
        <ele>491</ele>
        <time>2021-08-15T06:52:53Z</time>
      </trkpt>
      <trkpt lat="45.86976" lon="3.08271">
        <ele>491</ele>
        <time>2021-08-15T06:52:54Z</time>
      </trkpt>
      <trkpt lat="45.86976" lon="3.08273">
        <ele>491</ele>
        <time>2021-08-15T06:52:55Z</time>
      </trkpt>
      <trkpt lat="45.86975" lon="3.08274">
        <ele>491</ele>
        <time>2021-08-15T06:52:56Z</time>
      </trkpt>
      <trkpt lat="45.86975" lon="3.08276">
        <ele>491</ele>
        <time>2021-08-15T06:52:57Z</time>
      </trkpt>
      <trkpt lat="45.86975" lon="3.08277">
        <ele>491</ele>
        <time>2021-08-15T06:52:58Z</time>
      </trkpt>
      <trkpt lat="45.86974" lon="3.08279">
        <ele>491</ele>
        <time>2021-08-15T06:52:59Z</time>
      </trkpt>
      <trkpt lat="45.86974" lon="3.0828">
        <ele>491</ele>
        <time>2021-08-15T06:53:00Z</time>
      </trkpt>
      <trkpt lat="45.86974" lon="3.08282">
        <ele>491</ele>
        <time>2021-08-15T06:53:01Z</time>
      </trkpt>
      <trkpt lat="45.86974" lon="3.08284">
        <ele>491</ele>
        <time>2021-08-15T06:53:02Z</time>
      </trkpt>
      <trkpt lat="45.86974" lon="3.08285">
        <ele>491</ele>
        <time>2021-08-15T06:53:03Z</time>
      </trkpt>
      <trkpt lat="45.86974" lon="3.08287">
        <ele>491</ele>
        <time>2021-08-15T06:53:04Z</time>
      </trkpt>
      <trkpt lat="45.86974" lon="3.08289">
        <ele>491</ele>
        <time>2021-08-15T06:53:05Z</time>
      </trkpt>
      <trkpt lat="45.86974" lon="3.0829">
        <ele>491</ele>
        <time>2021-08-15T06:53:06Z</time>
      </trkpt>
      <trkpt lat="45.86974" lon="3.08292">
        <ele>491</ele>
        <time>2021-08-15T06:53:07Z</time>
      </trkpt>
      <trkpt lat="45.86975" lon="3.08294">
        <ele>491</ele>
        <time>2021-08-15T06:53:08Z</time>
      </trkpt>
      <trkpt lat="45.86975" lon="3.08296">
        <ele>491</ele>
        <time>2021-08-15T06:53:09Z</time>
      </trkpt>
      <trkpt lat="45.86975" lon="3.08298">
        <ele>491</ele>
        <time>2021-08-15T06:53:10Z</time>
      </trkpt>
      <trkpt lat="45.86975" lon="3.083">
        <ele>491</ele>
        <time>2021-08-15T06:53:11Z</time>
      </trkpt>
      <trkpt lat="45.86976" lon="3.08302">
        <ele>491</ele>
        <time>2021-08-15T06:53:12Z</time>
      </trkpt>
      <trkpt lat="45.86976" lon="3.08304">
        <ele>491</ele>
        <time>2021-08-15T06:53:13Z</time>
      </trkpt>
      <trkpt lat="45.86976" lon="3.08306">
        <ele>491</ele>
        <time>2021-08-15T06:53:14Z</time>
      </trkpt>
      <trkpt lat="45.86976" lon="3.08308">
        <ele>491</ele>
        <time>2021-08-15T06:53:15Z</time>
      </trkpt>
      <trkpt lat="45.86977" lon="3.08311">
        <ele>491</ele>
        <time>2021-08-15T06:53:16Z</time>
      </trkpt>
      <trkpt lat="45.86977" lon="3.08313">
        <ele>491</ele>
        <time>2021-08-15T06:53:17Z</time>
      </trkpt>
      <trkpt lat="45.86977" lon="3.08315">
        <ele>491</ele>
        <time>2021-08-15T06:53:18Z</time>
      </trkpt>
      <trkpt lat="45.86978" lon="3.08317">
        <ele>491</ele>
        <time>2021-08-15T06:53:19Z</time>
      </trkpt>
      <trkpt lat="45.86978" lon="3.0832">
        <ele>491</ele>
        <time>2021-08-15T06:53:20Z</time>
      </trkpt>
      <trkpt lat="45.86979" lon="3.08322">
        <ele>491</ele>
        <time>2021-08-15T06:53:21Z</time>
      </trkpt>
      <trkpt lat="45.86979" lon="3.08324">
        <ele>491</ele>
        <time>2021-08-15T06:53:22Z</time>
      </trkpt>
      <trkpt lat="45.86979" lon="3.08327">
        <ele>491</ele>
        <time>2021-08-15T06:53:23Z</time>
      </trkpt>
      <trkpt lat="45.8698" lon="3.0833">
        <ele>491</ele>
        <time>2021-08-15T06:53:24Z</time>
      </trkpt>
      <trkpt lat="45.8698" lon="3.08333">
        <ele>491</ele>
        <time>2021-08-15T06:53:25Z</time>
      </trkpt>
      <trkpt lat="45.8698" lon="3.08336">
        <ele>491</ele>
        <time>2021-08-15T06:53:26Z</time>
      </trkpt>
      <trkpt lat="45.8698" lon="3.08339">
        <ele>491</ele>
        <time>2021-08-15T06:53:27Z</time>
      </trkpt>
      <trkpt lat="45.8698" lon="3.08343">
        <ele>491</ele>
        <time>2021-08-15T06:53:28Z</time>
      </trkpt>
      <trkpt lat="45.8698" lon="3.08346">
        <ele>491</ele>
        <time>2021-08-15T06:53:29Z</time>
      </trkpt>
      <trkpt lat="45.8698" lon="3.08349">
        <ele>491</ele>
        <time>2021-08-15T06:53:30Z</time>
      </trkpt>
      <trkpt lat="45.8698" lon="3.08352">
        <ele>491</ele>
        <time>2021-08-15T06:53:31Z</time>
      </trkpt>
      <trkpt lat="45.86981" lon="3.08355">
        <ele>491</ele>
        <time>2021-08-15T06:53:32Z</time>
      </trkpt>
      <trkpt lat="45.86981" lon="3.08357">
        <ele>491</ele>
        <time>2021-08-15T06:53:33Z</time>
      </trkpt>
      <trkpt lat="45.86982" lon="3.08359">
        <ele>491</ele>
        <time>2021-08-15T06:53:34Z</time>
      </trkpt>
      <trkpt lat="45.86984" lon="3.0836">
        <ele>491</ele>
        <time>2021-08-15T06:53:35Z</time>
      </trkpt>
      <trkpt lat="45.86984" lon="3.08362">
        <ele>491</ele>
        <time>2021-08-15T06:53:36Z</time>
      </trkpt>
      <trkpt lat="45.86985" lon="3.08363">
        <ele>491</ele>
        <time>2021-08-15T06:53:37Z</time>
      </trkpt>
      <trkpt lat="45.86986" lon="3.08365">
        <ele>491</ele>
        <time>2021-08-15T06:53:38Z</time>
      </trkpt>
      <trkpt lat="45.86987" lon="3.08367">
        <ele>491</ele>
        <time>2021-08-15T06:53:39Z</time>
      </trkpt>
      <trkpt lat="45.86988" lon="3.08369">
        <ele>491</ele>
        <time>2021-08-15T06:53:41Z</time>
      </trkpt>
      <trkpt lat="45.86991" lon="3.08377">
        <ele>491</ele>
        <time>2021-08-15T06:53:42Z</time>
      </trkpt>
      <trkpt lat="45.86991" lon="3.08378">
        <ele>491</ele>
        <time>2021-08-15T06:53:43Z</time>
      </trkpt>
      <trkpt lat="45.86991" lon="3.08379">
        <ele>491</ele>
        <time>2021-08-15T06:53:44Z</time>
      </trkpt>
      <trkpt lat="45.86991" lon="3.08382">
        <ele>491</ele>
        <time>2021-08-15T06:53:45Z</time>
      </trkpt>
      <trkpt lat="45.86992" lon="3.08384">
        <ele>491</ele>
        <time>2021-08-15T06:53:46Z</time>
      </trkpt>
      <trkpt lat="45.86992" lon="3.08387">
        <ele>491</ele>
        <time>2021-08-15T06:53:47Z</time>
      </trkpt>
      <trkpt lat="45.86992" lon="3.08389">
        <ele>491</ele>
        <time>2021-08-15T06:53:48Z</time>
      </trkpt>
      <trkpt lat="45.86992" lon="3.08392">
        <ele>491</ele>
        <time>2021-08-15T06:53:49Z</time>
      </trkpt>
      <trkpt lat="45.86993" lon="3.08396">
        <ele>491</ele>
        <time>2021-08-15T06:53:50Z</time>
      </trkpt>
      <trkpt lat="45.86993" lon="3.08399">
        <ele>491</ele>
        <time>2021-08-15T06:53:51Z</time>
      </trkpt>
      <trkpt lat="45.86994" lon="3.08402">
        <ele>491</ele>
        <time>2021-08-15T06:53:52Z</time>
      </trkpt>
      <trkpt lat="45.86995" lon="3.08405">
        <ele>491</ele>
        <time>2021-08-15T06:53:53Z</time>
      </trkpt>
      <trkpt lat="45.86996" lon="3.08408">
        <ele>491</ele>
        <time>2021-08-15T06:53:54Z</time>
      </trkpt>
      <trkpt lat="45.86996" lon="3.0841">
        <ele>491</ele>
        <time>2021-08-15T06:53:55Z</time>
      </trkpt>
      <trkpt lat="45.86996" lon="3.08413">
        <ele>491</ele>
        <time>2021-08-15T06:53:56Z</time>
      </trkpt>
      <trkpt lat="45.86997" lon="3.08416">
        <ele>491</ele>
        <time>2021-08-15T06:53:57Z</time>
      </trkpt>
      <trkpt lat="45.86997" lon="3.08419">
        <ele>491</ele>
        <time>2021-08-15T06:53:58Z</time>
      </trkpt>
      <trkpt lat="45.86998" lon="3.08421">
        <ele>491</ele>
        <time>2021-08-15T06:53:59Z</time>
      </trkpt>
      <trkpt lat="45.86998" lon="3.08424">
        <ele>491</ele>
        <time>2021-08-15T06:54:00Z</time>
      </trkpt>
      <trkpt lat="45.86999" lon="3.08426">
        <ele>491</ele>
        <time>2021-08-15T06:54:01Z</time>
      </trkpt>
      <trkpt lat="45.86999" lon="3.08428">
        <ele>491</ele>
        <time>2021-08-15T06:54:02Z</time>
      </trkpt>
      <trkpt lat="45.87" lon="3.0843">
        <ele>491</ele>
        <time>2021-08-15T06:54:03Z</time>
      </trkpt>
      <trkpt lat="45.87001" lon="3.08432">
        <ele>491</ele>
        <time>2021-08-15T06:54:04Z</time>
      </trkpt>
      <trkpt lat="45.87002" lon="3.08433">
        <ele>491</ele>
        <time>2021-08-15T06:54:05Z</time>
      </trkpt>
      <trkpt lat="45.87003" lon="3.08435">
        <ele>491</ele>
        <time>2021-08-15T06:54:06Z</time>
      </trkpt>
      <trkpt lat="45.87005" lon="3.08436">
        <ele>491</ele>
        <time>2021-08-15T06:54:07Z</time>
      </trkpt>
      <trkpt lat="45.87006" lon="3.08438">
        <ele>491</ele>
        <time>2021-08-15T06:54:08Z</time>
      </trkpt>
      <trkpt lat="45.87006" lon="3.08439">
        <ele>491</ele>
        <time>2021-08-15T06:54:09Z</time>
      </trkpt>
      <trkpt lat="45.87008" lon="3.08441">
        <ele>491</ele>
        <time>2021-08-15T06:54:10Z</time>
      </trkpt>
      <trkpt lat="45.87008" lon="3.08442">
        <ele>491</ele>
        <time>2021-08-15T06:54:11Z</time>
      </trkpt>
      <trkpt lat="45.87009" lon="3.08444">
        <ele>491</ele>
        <time>2021-08-15T06:54:12Z</time>
      </trkpt>
      <trkpt lat="45.87009" lon="3.08446">
        <ele>491</ele>
        <time>2021-08-15T06:54:13Z</time>
      </trkpt>
      <trkpt lat="45.8701" lon="3.08449">
        <ele>491</ele>
        <time>2021-08-15T06:54:14Z</time>
      </trkpt>
      <trkpt lat="45.87011" lon="3.08451">
        <ele>491</ele>
        <time>2021-08-15T06:54:15Z</time>
      </trkpt>
      <trkpt lat="45.87011" lon="3.08453">
        <ele>491</ele>
        <time>2021-08-15T06:54:16Z</time>
      </trkpt>
      <trkpt lat="45.87011" lon="3.08455">
        <ele>491</ele>
        <time>2021-08-15T06:54:17Z</time>
      </trkpt>
      <trkpt lat="45.87012" lon="3.08457">
        <ele>491</ele>
        <time>2021-08-15T06:54:18Z</time>
      </trkpt>
      <trkpt lat="45.87012" lon="3.08459">
        <ele>491</ele>
        <time>2021-08-15T06:54:19Z</time>
      </trkpt>
      <trkpt lat="45.87012" lon="3.08461">
        <ele>491</ele>
        <time>2021-08-15T06:54:20Z</time>
      </trkpt>
      <trkpt lat="45.87013" lon="3.08462">
        <ele>491</ele>
        <time>2021-08-15T06:54:21Z</time>
      </trkpt>
      <trkpt lat="45.87013" lon="3.08464">
        <ele>491</ele>
        <time>2021-08-15T06:54:22Z</time>
      </trkpt>
      <trkpt lat="45.87014" lon="3.08465">
        <ele>491</ele>
        <time>2021-08-15T06:54:23Z</time>
      </trkpt>
      <trkpt lat="45.87014" lon="3.08466">
        <ele>491</ele>
        <time>2021-08-15T06:54:24Z</time>
      </trkpt>
      <trkpt lat="45.87015" lon="3.08467">
        <ele>491</ele>
        <time>2021-08-15T06:54:25Z</time>
      </trkpt>
      <trkpt lat="45.87016" lon="3.08468">
        <ele>491</ele>
        <time>2021-08-15T06:54:26Z</time>
      </trkpt>
      <trkpt lat="45.87017" lon="3.08468">
        <ele>491</ele>
        <time>2021-08-15T06:54:27Z</time>
      </trkpt>
      <trkpt lat="45.87019" lon="3.08469">
        <ele>491</ele>
        <time>2021-08-15T06:54:28Z</time>
      </trkpt>
      <trkpt lat="45.8702" lon="3.0847">
        <ele>491</ele>
        <time>2021-08-15T06:54:29Z</time>
      </trkpt>
      <trkpt lat="45.87021" lon="3.08471">
        <ele>491</ele>
        <time>2021-08-15T06:54:30Z</time>
      </trkpt>
      <trkpt lat="45.87022" lon="3.08471">
        <ele>491</ele>
        <time>2021-08-15T06:54:31Z</time>
      </trkpt>
      <trkpt lat="45.87024" lon="3.08472">
        <ele>491</ele>
        <time>2021-08-15T06:54:32Z</time>
      </trkpt>
      <trkpt lat="45.87026" lon="3.08472">
        <ele>491</ele>
        <time>2021-08-15T06:54:33Z</time>
      </trkpt>
      <trkpt lat="45.87028" lon="3.08473">
        <ele>491</ele>
        <time>2021-08-15T06:54:34Z</time>
      </trkpt>
      <trkpt lat="45.8703" lon="3.08474">
        <ele>491</ele>
        <time>2021-08-15T06:54:35Z</time>
      </trkpt>
      <trkpt lat="45.87032" lon="3.08474">
        <ele>491</ele>
        <time>2021-08-15T06:54:36Z</time>
      </trkpt>
      <trkpt lat="45.87034" lon="3.08475">
        <ele>491</ele>
        <time>2021-08-15T06:54:37Z</time>
      </trkpt>
      <trkpt lat="45.87035" lon="3.08476">
        <ele>491</ele>
        <time>2021-08-15T06:54:38Z</time>
      </trkpt>
      <trkpt lat="45.87036" lon="3.08477">
        <ele>491</ele>
        <time>2021-08-15T06:54:39Z</time>
      </trkpt>
      <trkpt lat="45.87037" lon="3.08478">
        <ele>491</ele>
        <time>2021-08-15T06:54:41Z</time>
      </trkpt>
      <trkpt lat="45.87039" lon="3.08478">
        <ele>491</ele>
        <time>2021-08-15T06:54:42Z</time>
      </trkpt>
      <trkpt lat="45.87043" lon="3.08482">
        <ele>491</ele>
        <time>2021-08-15T06:54:43Z</time>
      </trkpt>
      <trkpt lat="45.87043" lon="3.08482">
        <ele>491</ele>
        <time>2021-08-15T06:54:44Z</time>
      </trkpt>
      <trkpt lat="45.87043" lon="3.08483">
        <ele>491</ele>
        <time>2021-08-15T06:54:45Z</time>
      </trkpt>
      <trkpt lat="45.87043" lon="3.08485">
        <ele>491</ele>
        <time>2021-08-15T06:54:46Z</time>
      </trkpt>
      <trkpt lat="45.87043" lon="3.08486">
        <ele>491</ele>
        <time>2021-08-15T06:54:47Z</time>
      </trkpt>
      <trkpt lat="45.87043" lon="3.08487">
        <ele>491</ele>
        <time>2021-08-15T06:54:48Z</time>
      </trkpt>
      <trkpt lat="45.87044" lon="3.08489">
        <ele>491</ele>
        <time>2021-08-15T06:54:49Z</time>
      </trkpt>
      <trkpt lat="45.87045" lon="3.0849">
        <ele>491</ele>
        <time>2021-08-15T06:54:50Z</time>
      </trkpt>
      <trkpt lat="45.87045" lon="3.08491">
        <ele>491</ele>
        <time>2021-08-15T06:54:51Z</time>
      </trkpt>
      <trkpt lat="45.87046" lon="3.08492">
        <ele>491</ele>
        <time>2021-08-15T06:54:52Z</time>
      </trkpt>
      <trkpt lat="45.87047" lon="3.08493">
        <ele>491</ele>
        <time>2021-08-15T06:54:53Z</time>
      </trkpt>
      <trkpt lat="45.87048" lon="3.08494">
        <ele>491</ele>
        <time>2021-08-15T06:54:54Z</time>
      </trkpt>
      <trkpt lat="45.87048" lon="3.08496">
        <ele>491</ele>
        <time>2021-08-15T06:54:55Z</time>
      </trkpt>
      <trkpt lat="45.87049" lon="3.08497">
        <ele>491</ele>
        <time>2021-08-15T06:54:56Z</time>
      </trkpt>
      <trkpt lat="45.8705" lon="3.08499">
        <ele>491</ele>
        <time>2021-08-15T06:54:57Z</time>
      </trkpt>
      <trkpt lat="45.8705" lon="3.085">
        <ele>491</ele>
        <time>2021-08-15T06:54:58Z</time>
      </trkpt>
      <trkpt lat="45.87051" lon="3.08502">
        <ele>491</ele>
        <time>2021-08-15T06:54:59Z</time>
      </trkpt>
      <trkpt lat="45.87051" lon="3.08504">
        <ele>491</ele>
        <time>2021-08-15T06:55:00Z</time>
      </trkpt>
      <trkpt lat="45.87051" lon="3.08506">
        <ele>491</ele>
        <time>2021-08-15T06:55:01Z</time>
      </trkpt>
      <trkpt lat="45.87051" lon="3.08508">
        <ele>491</ele>
        <time>2021-08-15T06:55:02Z</time>
      </trkpt>
      <trkpt lat="45.87052" lon="3.0851">
        <ele>491</ele>
        <time>2021-08-15T06:55:03Z</time>
      </trkpt>
      <trkpt lat="45.87053" lon="3.08511">
        <ele>491</ele>
        <time>2021-08-15T06:55:04Z</time>
      </trkpt>
      <trkpt lat="45.87053" lon="3.08513">
        <ele>491</ele>
        <time>2021-08-15T06:55:05Z</time>
      </trkpt>
      <trkpt lat="45.87054" lon="3.08515">
        <ele>491</ele>
        <time>2021-08-15T06:55:06Z</time>
      </trkpt>
      <trkpt lat="45.87054" lon="3.08517">
        <ele>491</ele>
        <time>2021-08-15T06:55:07Z</time>
      </trkpt>
      <trkpt lat="45.87054" lon="3.08519">
        <ele>491</ele>
        <time>2021-08-15T06:55:07Z</time>
      </trkpt>
      <trkpt lat="45.87054" lon="3.08521">
        <ele>491</ele>
        <time>2021-08-15T06:55:08Z</time>
      </trkpt>
      <trkpt lat="45.87054" lon="3.08522">
        <ele>491</ele>
        <time>2021-08-15T06:55:09Z</time>
      </trkpt>
      <trkpt lat="45.87054" lon="3.08524">
        <ele>491</ele>
        <time>2021-08-15T06:55:10Z</time>
      </trkpt>
      <trkpt lat="45.87054" lon="3.08526">
        <ele>491</ele>
        <time>2021-08-15T06:55:11Z</time>
      </trkpt>
      <trkpt lat="45.87055" lon="3.08529">
        <ele>491</ele>
        <time>2021-08-15T06:55:12Z</time>
      </trkpt>
      <trkpt lat="45.87055" lon="3.08531">
        <ele>491</ele>
        <time>2021-08-15T06:55:13Z</time>
      </trkpt>
      <trkpt lat="45.87056" lon="3.08533">
        <ele>491</ele>
        <time>2021-08-15T06:55:14Z</time>
      </trkpt>
      <trkpt lat="45.87056" lon="3.08535">
        <ele>491</ele>
        <time>2021-08-15T06:55:15Z</time>
      </trkpt>
      <trkpt lat="45.87056" lon="3.08538">
        <ele>491</ele>
        <time>2021-08-15T06:55:16Z</time>
      </trkpt>
      <trkpt lat="45.87056" lon="3.0854">
        <ele>491</ele>
        <time>2021-08-15T06:55:17Z</time>
      </trkpt>
      <trkpt lat="45.87056" lon="3.08542">
        <ele>491</ele>
        <time>2021-08-15T06:55:18Z</time>
      </trkpt>
      <trkpt lat="45.87056" lon="3.08544">
        <ele>491</ele>
        <time>2021-08-15T06:55:19Z</time>
      </trkpt>
      <trkpt lat="45.87056" lon="3.08546">
        <ele>491</ele>
        <time>2021-08-15T06:55:20Z</time>
      </trkpt>
      <trkpt lat="45.87056" lon="3.08548">
        <ele>491</ele>
        <time>2021-08-15T06:55:21Z</time>
      </trkpt>
      <trkpt lat="45.87056" lon="3.08551">
        <ele>491</ele>
        <time>2021-08-15T06:55:22Z</time>
      </trkpt>
      <trkpt lat="45.87057" lon="3.08553">
        <ele>491</ele>
        <time>2021-08-15T06:55:23Z</time>
      </trkpt>
      <trkpt lat="45.87057" lon="3.08555">
        <ele>491</ele>
        <time>2021-08-15T06:55:24Z</time>
      </trkpt>
      <trkpt lat="45.87057" lon="3.08557">
        <ele>491</ele>
        <time>2021-08-15T06:55:25Z</time>
      </trkpt>
      <trkpt lat="45.87057" lon="3.08559">
        <ele>491</ele>
        <time>2021-08-15T06:55:26Z</time>
      </trkpt>
      <trkpt lat="45.87057" lon="3.08562">
        <ele>491</ele>
        <time>2021-08-15T06:55:27Z</time>
      </trkpt>
      <trkpt lat="45.87057" lon="3.08564">
        <ele>491</ele>
        <time>2021-08-15T06:55:28Z</time>
      </trkpt>
      <trkpt lat="45.87057" lon="3.08566">
        <ele>491</ele>
        <time>2021-08-15T06:55:29Z</time>
      </trkpt>
      <trkpt lat="45.87057" lon="3.08568">
        <ele>491</ele>
        <time>2021-08-15T06:55:30Z</time>
      </trkpt>
      <trkpt lat="45.87057" lon="3.08571">
        <ele>491</ele>
        <time>2021-08-15T06:55:31Z</time>
      </trkpt>
      <trkpt lat="45.87057" lon="3.08574">
        <ele>491</ele>
        <time>2021-08-15T06:55:32Z</time>
      </trkpt>
      <trkpt lat="45.87057" lon="3.08577">
        <ele>491</ele>
        <time>2021-08-15T06:55:33Z</time>
      </trkpt>
      <trkpt lat="45.87058" lon="3.08581">
        <ele>491</ele>
        <time>2021-08-15T06:55:34Z</time>
      </trkpt>
      <trkpt lat="45.87058" lon="3.08585">
        <ele>491</ele>
        <time>2021-08-15T06:55:35Z</time>
      </trkpt>
      <trkpt lat="45.87058" lon="3.08588">
        <ele>491</ele>
        <time>2021-08-15T06:55:36Z</time>
      </trkpt>
      <trkpt lat="45.87058" lon="3.08591">
        <ele>491</ele>
        <time>2021-08-15T06:55:37Z</time>
      </trkpt>
      <trkpt lat="45.87058" lon="3.08594">
        <ele>491</ele>
        <time>2021-08-15T06:55:38Z</time>
      </trkpt>
      <trkpt lat="45.87058" lon="3.08597">
        <ele>491</ele>
        <time>2021-08-15T06:55:40Z</time>
      </trkpt>
      <trkpt lat="45.87059" lon="3.08599">
        <ele>491</ele>
        <time>2021-08-15T06:55:41Z</time>
      </trkpt>
      <trkpt lat="45.8706" lon="3.08609">
        <ele>491</ele>
        <time>2021-08-15T06:55:42Z</time>
      </trkpt>
      <trkpt lat="45.8706" lon="3.0861">
        <ele>491</ele>
        <time>2021-08-15T06:55:43Z</time>
      </trkpt>
      <trkpt lat="45.8706" lon="3.08611">
        <ele>491</ele>
        <time>2021-08-15T06:55:44Z</time>
      </trkpt>
      <trkpt lat="45.8706" lon="3.08612">
        <ele>491</ele>
        <time>2021-08-15T06:55:45Z</time>
      </trkpt>
      <trkpt lat="45.87061" lon="3.08613">
        <ele>491</ele>
        <time>2021-08-15T06:55:46Z</time>
      </trkpt>
      <trkpt lat="45.87061" lon="3.08615">
        <ele>491</ele>
        <time>2021-08-15T06:55:47Z</time>
      </trkpt>
      <trkpt lat="45.87062" lon="3.08617">
        <ele>491</ele>
        <time>2021-08-15T06:55:48Z</time>
      </trkpt>
      <trkpt lat="45.87063" lon="3.08619">
        <ele>491</ele>
        <time>2021-08-15T06:55:49Z</time>
      </trkpt>
      <trkpt lat="45.87063" lon="3.08621">
        <ele>491</ele>
        <time>2021-08-15T06:55:50Z</time>
      </trkpt>
      <trkpt lat="45.87063" lon="3.08624">
        <ele>491</ele>
        <time>2021-08-15T06:55:51Z</time>
      </trkpt>
      <trkpt lat="45.87063" lon="3.08627">
        <ele>491</ele>
        <time>2021-08-15T06:55:52Z</time>
      </trkpt>
      <trkpt lat="45.87064" lon="3.08629">
        <ele>491</ele>
        <time>2021-08-15T06:55:53Z</time>
      </trkpt>
      <trkpt lat="45.87064" lon="3.08632">
        <ele>491</ele>
        <time>2021-08-15T06:55:54Z</time>
      </trkpt>
      <trkpt lat="45.87064" lon="3.08634">
        <ele>491</ele>
        <time>2021-08-15T06:55:55Z</time>
      </trkpt>
      <trkpt lat="45.87065" lon="3.08636">
        <ele>491</ele>
        <time>2021-08-15T06:55:56Z</time>
      </trkpt>
      <trkpt lat="45.87066" lon="3.08639">
        <ele>491</ele>
        <time>2021-08-15T06:55:57Z</time>
      </trkpt>
      <trkpt lat="45.87066" lon="3.08641">
        <ele>491</ele>
        <time>2021-08-15T06:55:58Z</time>
      </trkpt>
      <trkpt lat="45.87067" lon="3.08643">
        <ele>491</ele>
        <time>2021-08-15T06:55:59Z</time>
      </trkpt>
      <trkpt lat="45.87069" lon="3.08645">
        <ele>491</ele>
        <time>2021-08-15T06:56:00Z</time>
      </trkpt>
      <trkpt lat="45.87069" lon="3.08647">
        <ele>491</ele>
        <time>2021-08-15T06:56:01Z</time>
      </trkpt>
      <trkpt lat="45.8707" lon="3.08649">
        <ele>491</ele>
        <time>2021-08-15T06:56:02Z</time>
      </trkpt>
      <trkpt lat="45.87071" lon="3.08651">
        <ele>491</ele>
        <time>2021-08-15T06:56:03Z</time>
      </trkpt>
      <trkpt lat="45.87071" lon="3.08653">
        <ele>491</ele>
        <time>2021-08-15T06:56:04Z</time>
      </trkpt>
      <trkpt lat="45.87072" lon="3.08656">
        <ele>491</ele>
        <time>2021-08-15T06:56:05Z</time>
      </trkpt>
      <trkpt lat="45.87072" lon="3.08658">
        <ele>491</ele>
        <time>2021-08-15T06:56:06Z</time>
      </trkpt>
      <trkpt lat="45.87073" lon="3.0866">
        <ele>491</ele>
        <time>2021-08-15T06:56:07Z</time>
      </trkpt>
      <trkpt lat="45.87074" lon="3.08661">
        <ele>491</ele>
        <time>2021-08-15T06:56:08Z</time>
      </trkpt>
      <trkpt lat="45.87075" lon="3.08664">
        <ele>491</ele>
        <time>2021-08-15T06:56:09Z</time>
      </trkpt>
      <trkpt lat="45.87075" lon="3.08665">
        <ele>491</ele>
        <time>2021-08-15T06:56:10Z</time>
      </trkpt>
      <trkpt lat="45.87076" lon="3.08667">
        <ele>491</ele>
        <time>2021-08-15T06:56:11Z</time>
      </trkpt>
      <trkpt lat="45.87077" lon="3.08669">
        <ele>491</ele>
        <time>2021-08-15T06:56:12Z</time>
      </trkpt>
      <trkpt lat="45.87078" lon="3.0867">
        <ele>491</ele>
        <time>2021-08-15T06:56:13Z</time>
      </trkpt>
      <trkpt lat="45.87078" lon="3.08672">
        <ele>491</ele>
        <time>2021-08-15T06:56:14Z</time>
      </trkpt>
      <trkpt lat="45.87079" lon="3.08674">
        <ele>491</ele>
        <time>2021-08-15T06:56:15Z</time>
      </trkpt>
      <trkpt lat="45.8708" lon="3.08675">
        <ele>491</ele>
        <time>2021-08-15T06:56:16Z</time>
      </trkpt>
      <trkpt lat="45.8708" lon="3.08677">
        <ele>491</ele>
        <time>2021-08-15T06:56:17Z</time>
      </trkpt>
      <trkpt lat="45.87081" lon="3.08678">
        <ele>491</ele>
        <time>2021-08-15T06:56:18Z</time>
      </trkpt>
      <trkpt lat="45.87082" lon="3.0868">
        <ele>491</ele>
        <time>2021-08-15T06:56:19Z</time>
      </trkpt>
      <trkpt lat="45.87082" lon="3.08681">
        <ele>491</ele>
        <time>2021-08-15T06:56:20Z</time>
      </trkpt>
      <trkpt lat="45.87082" lon="3.08683">
        <ele>491</ele>
        <time>2021-08-15T06:56:21Z</time>
      </trkpt>
      <trkpt lat="45.87083" lon="3.08684">
        <ele>491</ele>
        <time>2021-08-15T06:56:22Z</time>
      </trkpt>
      <trkpt lat="45.87084" lon="3.08686">
        <ele>491</ele>
        <time>2021-08-15T06:56:23Z</time>
      </trkpt>
      <trkpt lat="45.87084" lon="3.08688">
        <ele>491</ele>
        <time>2021-08-15T06:56:24Z</time>
      </trkpt>
      <trkpt lat="45.87085" lon="3.0869">
        <ele>491</ele>
        <time>2021-08-15T06:56:25Z</time>
      </trkpt>
      <trkpt lat="45.87086" lon="3.08692">
        <ele>491</ele>
        <time>2021-08-15T06:56:26Z</time>
      </trkpt>
      <trkpt lat="45.87087" lon="3.08694">
        <ele>491</ele>
        <time>2021-08-15T06:56:27Z</time>
      </trkpt>
      <trkpt lat="45.87087" lon="3.08696">
        <ele>491</ele>
        <time>2021-08-15T06:56:28Z</time>
      </trkpt>
      <trkpt lat="45.87087" lon="3.08698">
        <ele>491</ele>
        <time>2021-08-15T06:56:29Z</time>
      </trkpt>
      <trkpt lat="45.87088" lon="3.087">
        <ele>491</ele>
        <time>2021-08-15T06:56:30Z</time>
      </trkpt>
      <trkpt lat="45.87088" lon="3.08702">
        <ele>491</ele>
        <time>2021-08-15T06:56:31Z</time>
      </trkpt>
      <trkpt lat="45.87089" lon="3.08704">
        <ele>491</ele>
        <time>2021-08-15T06:56:32Z</time>
      </trkpt>
      <trkpt lat="45.87089" lon="3.08706">
        <ele>491</ele>
        <time>2021-08-15T06:56:33Z</time>
      </trkpt>
      <trkpt lat="45.8709" lon="3.08708">
        <ele>491</ele>
        <time>2021-08-15T06:56:34Z</time>
      </trkpt>
      <trkpt lat="45.8709" lon="3.0871">
        <ele>491</ele>
        <time>2021-08-15T06:56:35Z</time>
      </trkpt>
      <trkpt lat="45.8709" lon="3.08712">
        <ele>491</ele>
        <time>2021-08-15T06:56:36Z</time>
      </trkpt>
      <trkpt lat="45.8709" lon="3.08713">
        <ele>491</ele>
        <time>2021-08-15T06:56:37Z</time>
      </trkpt>
      <trkpt lat="45.8709" lon="3.08715">
        <ele>491</ele>
        <time>2021-08-15T06:56:41Z</time>
      </trkpt>
      <trkpt lat="45.8709" lon="3.08724">
        <ele>491</ele>
        <time>2021-08-15T06:56:42Z</time>
      </trkpt>
      <trkpt lat="45.87088" lon="3.08729">
        <ele>491</ele>
        <time>2021-08-15T06:56:43Z</time>
      </trkpt>
      <trkpt lat="45.87088" lon="3.08729">
        <ele>491</ele>
        <time>2021-08-15T06:56:44Z</time>
      </trkpt>
      <trkpt lat="45.87088" lon="3.0873">
        <ele>491</ele>
        <time>2021-08-15T06:56:45Z</time>
      </trkpt>
      <trkpt lat="45.87087" lon="3.08731">
        <ele>491</ele>
        <time>2021-08-15T06:56:46Z</time>
      </trkpt>
      <trkpt lat="45.87087" lon="3.08732">
        <ele>491</ele>
        <time>2021-08-15T06:56:47Z</time>
      </trkpt>
      <trkpt lat="45.87087" lon="3.08733">
        <ele>491</ele>
        <time>2021-08-15T06:56:48Z</time>
      </trkpt>
      <trkpt lat="45.87086" lon="3.08734">
        <ele>491</ele>
        <time>2021-08-15T06:56:49Z</time>
      </trkpt>
      <trkpt lat="45.87085" lon="3.08736">
        <ele>491</ele>
        <time>2021-08-15T06:56:50Z</time>
      </trkpt>
      <trkpt lat="45.87085" lon="3.08738">
        <ele>491</ele>
        <time>2021-08-15T06:56:51Z</time>
      </trkpt>
      <trkpt lat="45.87084" lon="3.0874">
        <ele>491</ele>
        <time>2021-08-15T06:56:52Z</time>
      </trkpt>
      <trkpt lat="45.87084" lon="3.08742">
        <ele>491</ele>
        <time>2021-08-15T06:56:53Z</time>
      </trkpt>
      <trkpt lat="45.87084" lon="3.08744">
        <ele>491</ele>
        <time>2021-08-15T06:56:54Z</time>
      </trkpt>
      <trkpt lat="45.87083" lon="3.08747">
        <ele>491</ele>
        <time>2021-08-15T06:56:55Z</time>
      </trkpt>
      <trkpt lat="45.87083" lon="3.08749">
        <ele>491</ele>
        <time>2021-08-15T06:56:56Z</time>
      </trkpt>
      <trkpt lat="45.87082" lon="3.08751">
        <ele>491</ele>
        <time>2021-08-15T06:56:57Z</time>
      </trkpt>
      <trkpt lat="45.87082" lon="3.08753">
        <ele>491</ele>
        <time>2021-08-15T06:56:58Z</time>
      </trkpt>
      <trkpt lat="45.87081" lon="3.08755">
        <ele>491</ele>
        <time>2021-08-15T06:56:59Z</time>
      </trkpt>
      <trkpt lat="45.8708" lon="3.08757">
        <ele>491</ele>
        <time>2021-08-15T06:57:00Z</time>
      </trkpt>
      <trkpt lat="45.87079" lon="3.0876">
        <ele>491</ele>
        <time>2021-08-15T06:57:01Z</time>
      </trkpt>
      <trkpt lat="45.87078" lon="3.08762">
        <ele>491</ele>
        <time>2021-08-15T06:57:02Z</time>
      </trkpt>
      <trkpt lat="45.87078" lon="3.08764">
        <ele>491</ele>
        <time>2021-08-15T06:57:03Z</time>
      </trkpt>
      <trkpt lat="45.87077" lon="3.08767">
        <ele>491</ele>
        <time>2021-08-15T06:57:04Z</time>
      </trkpt>
      <trkpt lat="45.87075" lon="3.08769">
        <ele>491</ele>
        <time>2021-08-15T06:57:05Z</time>
      </trkpt>
      <trkpt lat="45.87075" lon="3.08771">
        <ele>491</ele>
        <time>2021-08-15T06:57:06Z</time>
      </trkpt>
      <trkpt lat="45.87074" lon="3.08773">
        <ele>491</ele>
        <time>2021-08-15T06:57:07Z</time>
      </trkpt>
      <trkpt lat="45.87073" lon="3.08775">
        <ele>491</ele>
        <time>2021-08-15T06:57:08Z</time>
      </trkpt>
      <trkpt lat="45.87072" lon="3.08777">
        <ele>491</ele>
        <time>2021-08-15T06:57:09Z</time>
      </trkpt>
      <trkpt lat="45.87072" lon="3.08779">
        <ele>491</ele>
        <time>2021-08-15T06:57:10Z</time>
      </trkpt>
      <trkpt lat="45.87072" lon="3.08781">
        <ele>491</ele>
        <time>2021-08-15T06:57:11Z</time>
      </trkpt>
      <trkpt lat="45.87071" lon="3.08783">
        <ele>491</ele>
        <time>2021-08-15T06:57:12Z</time>
      </trkpt>
      <trkpt lat="45.8707" lon="3.08784">
        <ele>491</ele>
        <time>2021-08-15T06:57:13Z</time>
      </trkpt>
      <trkpt lat="45.87069" lon="3.08786">
        <ele>491</ele>
        <time>2021-08-15T06:57:14Z</time>
      </trkpt>
      <trkpt lat="45.87069" lon="3.08788">
        <ele>491</ele>
        <time>2021-08-15T06:57:15Z</time>
      </trkpt>
      <trkpt lat="45.87068" lon="3.08789">
        <ele>491</ele>
        <time>2021-08-15T06:57:16Z</time>
      </trkpt>
      <trkpt lat="45.87067" lon="3.08791">
        <ele>491</ele>
        <time>2021-08-15T06:57:17Z</time>
      </trkpt>
      <trkpt lat="45.87067" lon="3.08792">
        <ele>491</ele>
        <time>2021-08-15T06:57:18Z</time>
      </trkpt>
      <trkpt lat="45.87066" lon="3.08794">
        <ele>491</ele>
        <time>2021-08-15T06:57:19Z</time>
      </trkpt>
      <trkpt lat="45.87066" lon="3.08796">
        <ele>491</ele>
        <time>2021-08-15T06:57:20Z</time>
      </trkpt>
      <trkpt lat="45.87064" lon="3.08798">
        <ele>491</ele>
        <time>2021-08-15T06:57:21Z</time>
      </trkpt>
      <trkpt lat="45.87064" lon="3.088">
        <ele>491</ele>
        <time>2021-08-15T06:57:22Z</time>
      </trkpt>
      <trkpt lat="45.87063" lon="3.08802">
        <ele>491</ele>
        <time>2021-08-15T06:57:23Z</time>
      </trkpt>
      <trkpt lat="45.87063" lon="3.08804">
        <ele>491</ele>
        <time>2021-08-15T06:57:24Z</time>
      </trkpt>
      <trkpt lat="45.87062" lon="3.08806">
        <ele>491</ele>
        <time>2021-08-15T06:57:25Z</time>
      </trkpt>
      <trkpt lat="45.87061" lon="3.08809">
        <ele>491</ele>
        <time>2021-08-15T06:57:26Z</time>
      </trkpt>
      <trkpt lat="45.8706" lon="3.08811">
        <ele>491</ele>
        <time>2021-08-15T06:57:27Z</time>
      </trkpt>
      <trkpt lat="45.87059" lon="3.08814">
        <ele>491</ele>
        <time>2021-08-15T06:57:28Z</time>
      </trkpt>
      <trkpt lat="45.87058" lon="3.08816">
        <ele>491</ele>
        <time>2021-08-15T06:57:29Z</time>
      </trkpt>
      <trkpt lat="45.87058" lon="3.08817">
        <ele>491</ele>
        <time>2021-08-15T06:57:30Z</time>
      </trkpt>
      <trkpt lat="45.87057" lon="3.08819">
        <ele>491</ele>
        <time>2021-08-15T06:57:31Z</time>
      </trkpt>
      <trkpt lat="45.87057" lon="3.08821">
        <ele>491</ele>
        <time>2021-08-15T06:57:32Z</time>
      </trkpt>
      <trkpt lat="45.87056" lon="3.08823">
        <ele>491</ele>
        <time>2021-08-15T06:57:33Z</time>
      </trkpt>
      <trkpt lat="45.87056" lon="3.08825">
        <ele>491</ele>
        <time>2021-08-15T06:57:34Z</time>
      </trkpt>
      <trkpt lat="45.87055" lon="3.08827">
        <ele>491</ele>
        <time>2021-08-15T06:57:35Z</time>
      </trkpt>
      <trkpt lat="45.87054" lon="3.08829">
        <ele>491</ele>
        <time>2021-08-15T06:57:36Z</time>
      </trkpt>
      <trkpt lat="45.87054" lon="3.08832">
        <ele>491</ele>
        <time>2021-08-15T06:57:37Z</time>
      </trkpt>
      <trkpt lat="45.87054" lon="3.08834">
        <ele>491</ele>
        <time>2021-08-15T06:57:40Z</time>
      </trkpt>
      <trkpt lat="45.87054" lon="3.08844">
        <ele>491</ele>
        <time>2021-08-15T06:57:41Z</time>
      </trkpt>
      <trkpt lat="45.87054" lon="3.08845">
        <ele>491</ele>
        <time>2021-08-15T06:57:42Z</time>
      </trkpt>
      <trkpt lat="45.87054" lon="3.08846">
        <ele>491</ele>
        <time>2021-08-15T06:57:43Z</time>
      </trkpt>
      <trkpt lat="45.87054" lon="3.08848">
        <ele>491</ele>
        <time>2021-08-15T06:57:44Z</time>
      </trkpt>
      <trkpt lat="45.87054" lon="3.0885">
        <ele>491</ele>
        <time>2021-08-15T06:57:45Z</time>
      </trkpt>
      <trkpt lat="45.87054" lon="3.08852">
        <ele>491</ele>
        <time>2021-08-15T06:57:46Z</time>
      </trkpt>
      <trkpt lat="45.87054" lon="3.08854">
        <ele>491</ele>
        <time>2021-08-15T06:57:47Z</time>
      </trkpt>
      <trkpt lat="45.87053" lon="3.08856">
        <ele>491</ele>
        <time>2021-08-15T06:57:48Z</time>
      </trkpt>
      <trkpt lat="45.87053" lon="3.08858">
        <ele>491</ele>
        <time>2021-08-15T06:57:49Z</time>
      </trkpt>
      <trkpt lat="45.87053" lon="3.08861">
        <ele>491</ele>
        <time>2021-08-15T06:57:50Z</time>
      </trkpt>
      <trkpt lat="45.87051" lon="3.08864">
        <ele>491</ele>
        <time>2021-08-15T06:57:51Z</time>
      </trkpt>
      <trkpt lat="45.87051" lon="3.08866">
        <ele>491</ele>
        <time>2021-08-15T06:57:52Z</time>
      </trkpt>
      <trkpt lat="45.87051" lon="3.08868">
        <ele>491</ele>
        <time>2021-08-15T06:57:53Z</time>
      </trkpt>
      <trkpt lat="45.87051" lon="3.08871">
        <ele>491</ele>
        <time>2021-08-15T06:57:54Z</time>
      </trkpt>
      <trkpt lat="45.87051" lon="3.08873">
        <ele>491</ele>
        <time>2021-08-15T06:57:55Z</time>
      </trkpt>
      <trkpt lat="45.87051" lon="3.08875">
        <ele>491</ele>
        <time>2021-08-15T06:57:56Z</time>
      </trkpt>
      <trkpt lat="45.87051" lon="3.08877">
        <ele>491</ele>
        <time>2021-08-15T06:57:57Z</time>
      </trkpt>
      <trkpt lat="45.87051" lon="3.08879">
        <ele>491</ele>
        <time>2021-08-15T06:57:58Z</time>
      </trkpt>
      <trkpt lat="45.87051" lon="3.08881">
        <ele>491</ele>
        <time>2021-08-15T06:57:59Z</time>
      </trkpt>
      <trkpt lat="45.87051" lon="3.08883">
        <ele>491</ele>
        <time>2021-08-15T06:58:00Z</time>
      </trkpt>
      <trkpt lat="45.87051" lon="3.08885">
        <ele>491</ele>
        <time>2021-08-15T06:58:01Z</time>
      </trkpt>
      <trkpt lat="45.87052" lon="3.08886">
        <ele>491</ele>
        <time>2021-08-15T06:58:02Z</time>
      </trkpt>
      <trkpt lat="45.87052" lon="3.08888">
        <ele>491</ele>
        <time>2021-08-15T06:58:03Z</time>
      </trkpt>
      <trkpt lat="45.87053" lon="3.0889">
        <ele>491</ele>
        <time>2021-08-15T06:58:04Z</time>
      </trkpt>
      <trkpt lat="45.87053" lon="3.08892">
        <ele>491</ele>
        <time>2021-08-15T06:58:05Z</time>
      </trkpt>
      <trkpt lat="45.87053" lon="3.08894">
        <ele>491</ele>
        <time>2021-08-15T06:58:06Z</time>
      </trkpt>
      <trkpt lat="45.87053" lon="3.08895">
        <ele>491</ele>
        <time>2021-08-15T06:58:07Z</time>
      </trkpt>
      <trkpt lat="45.87053" lon="3.08897">
        <ele>491</ele>
        <time>2021-08-15T06:58:08Z</time>
      </trkpt>
      <trkpt lat="45.87052" lon="3.08899">
        <ele>491</ele>
        <time>2021-08-15T06:58:09Z</time>
      </trkpt>
      <trkpt lat="45.87052" lon="3.08901">
        <ele>491</ele>
        <time>2021-08-15T06:58:10Z</time>
      </trkpt>
      <trkpt lat="45.87052" lon="3.08903">
        <ele>491</ele>
        <time>2021-08-15T06:58:11Z</time>
      </trkpt>
      <trkpt lat="45.87052" lon="3.08905">
        <ele>491</ele>
        <time>2021-08-15T06:58:12Z</time>
      </trkpt>
      <trkpt lat="45.87052" lon="3.08907">
        <ele>491</ele>
        <time>2021-08-15T06:58:13Z</time>
      </trkpt>
      <trkpt lat="45.87052" lon="3.08909">
        <ele>491</ele>
        <time>2021-08-15T06:58:14Z</time>
      </trkpt>
      <trkpt lat="45.87051" lon="3.08911">
        <ele>491</ele>
        <time>2021-08-15T06:58:15Z</time>
      </trkpt>
      <trkpt lat="45.87051" lon="3.08913">
        <ele>491</ele>
        <time>2021-08-15T06:58:16Z</time>
      </trkpt>
      <trkpt lat="45.87051" lon="3.08915">
        <ele>491</ele>
        <time>2021-08-15T06:58:17Z</time>
      </trkpt>
      <trkpt lat="45.87051" lon="3.08918">
        <ele>491</ele>
        <time>2021-08-15T06:58:18Z</time>
      </trkpt>
      <trkpt lat="45.8705" lon="3.0892">
        <ele>491</ele>
        <time>2021-08-15T06:58:19Z</time>
      </trkpt>
      <trkpt lat="45.8705" lon="3.08922">
        <ele>491</ele>
        <time>2021-08-15T06:58:20Z</time>
      </trkpt>
      <trkpt lat="45.87049" lon="3.08924">
        <ele>491</ele>
        <time>2021-08-15T06:58:21Z</time>
      </trkpt>
      <trkpt lat="45.87049" lon="3.08926">
        <ele>491</ele>
        <time>2021-08-15T06:58:22Z</time>
      </trkpt>
      <trkpt lat="45.87048" lon="3.08928">
        <ele>491</ele>
        <time>2021-08-15T06:58:23Z</time>
      </trkpt>
      <trkpt lat="45.87048" lon="3.0893">
        <ele>491</ele>
        <time>2021-08-15T06:58:24Z</time>
      </trkpt>
      <trkpt lat="45.87048" lon="3.08932">
        <ele>491</ele>
        <time>2021-08-15T06:58:25Z</time>
      </trkpt>
      <trkpt lat="45.87049" lon="3.08934">
        <ele>491</ele>
        <time>2021-08-15T06:58:26Z</time>
      </trkpt>
      <trkpt lat="45.87049" lon="3.08936">
        <ele>491</ele>
        <time>2021-08-15T06:58:27Z</time>
      </trkpt>
      <trkpt lat="45.8705" lon="3.08938">
        <ele>491</ele>
        <time>2021-08-15T06:58:28Z</time>
      </trkpt>
      <trkpt lat="45.8705" lon="3.0894">
        <ele>491</ele>
        <time>2021-08-15T06:58:29Z</time>
      </trkpt>
      <trkpt lat="45.8705" lon="3.08942">
        <ele>491</ele>
        <time>2021-08-15T06:58:30Z</time>
      </trkpt>
      <trkpt lat="45.87049" lon="3.08943">
        <ele>491</ele>
        <time>2021-08-15T06:58:31Z</time>
      </trkpt>
      <trkpt lat="45.87048" lon="3.08945">
        <ele>491</ele>
        <time>2021-08-15T06:58:32Z</time>
      </trkpt>
      <trkpt lat="45.87048" lon="3.08947">
        <ele>491</ele>
        <time>2021-08-15T06:58:33Z</time>
      </trkpt>
      <trkpt lat="45.87048" lon="3.08948">
        <ele>491</ele>
        <time>2021-08-15T06:58:34Z</time>
      </trkpt>
      <trkpt lat="45.87047" lon="3.08949">
        <ele>491</ele>
        <time>2021-08-15T06:58:35Z</time>
      </trkpt>
      <trkpt lat="45.87046" lon="3.08951">
        <ele>491</ele>
        <time>2021-08-15T06:58:36Z</time>
      </trkpt>
      <trkpt lat="45.87046" lon="3.08953">
        <ele>491</ele>
        <time>2021-08-15T06:58:37Z</time>
      </trkpt>
      <trkpt lat="45.87045" lon="3.08955">
        <ele>491</ele>
        <time>2021-08-15T06:58:39Z</time>
      </trkpt>
      <trkpt lat="45.87043" lon="3.08962">
        <ele>491</ele>
        <time>2021-08-15T06:58:41Z</time>
      </trkpt>
      <trkpt lat="45.87042" lon="3.08965">
        <ele>491</ele>
        <time>2021-08-15T06:58:42Z</time>
      </trkpt>
      <trkpt lat="45.87042" lon="3.08965">
        <ele>491</ele>
        <time>2021-08-15T06:58:43Z</time>
      </trkpt>
      <trkpt lat="45.87042" lon="3.08966">
        <ele>491</ele>
        <time>2021-08-15T06:58:44Z</time>
      </trkpt>
      <trkpt lat="45.87041" lon="3.08968">
        <ele>491</ele>
        <time>2021-08-15T06:58:45Z</time>
      </trkpt>
      <trkpt lat="45.87041" lon="3.08969">
        <ele>491</ele>
        <time>2021-08-15T06:58:46Z</time>
      </trkpt>
      <trkpt lat="45.87041" lon="3.08971">
        <ele>491</ele>
        <time>2021-08-15T06:58:47Z</time>
      </trkpt>
      <trkpt lat="45.8704" lon="3.08972">
        <ele>491</ele>
        <time>2021-08-15T06:58:48Z</time>
      </trkpt>
      <trkpt lat="45.8704" lon="3.08974">
        <ele>491</ele>
        <time>2021-08-15T06:58:49Z</time>
      </trkpt>
      <trkpt lat="45.87039" lon="3.08976">
        <ele>491</ele>
        <time>2021-08-15T06:58:50Z</time>
      </trkpt>
      <trkpt lat="45.87039" lon="3.08978">
        <ele>491</ele>
        <time>2021-08-15T06:58:51Z</time>
      </trkpt>
      <trkpt lat="45.87038" lon="3.0898">
        <ele>491</ele>
        <time>2021-08-15T06:58:52Z</time>
      </trkpt>
      <trkpt lat="45.87038" lon="3.08982">
        <ele>491</ele>
        <time>2021-08-15T06:58:53Z</time>
      </trkpt>
      <trkpt lat="45.87037" lon="3.08984">
        <ele>491</ele>
        <time>2021-08-15T06:58:54Z</time>
      </trkpt>
      <trkpt lat="45.87037" lon="3.08985">
        <ele>491</ele>
        <time>2021-08-15T06:58:55Z</time>
      </trkpt>
      <trkpt lat="45.87036" lon="3.08987">
        <ele>491</ele>
        <time>2021-08-15T06:58:56Z</time>
      </trkpt>
      <trkpt lat="45.87036" lon="3.08989">
        <ele>491</ele>
        <time>2021-08-15T06:58:57Z</time>
      </trkpt>
      <trkpt lat="45.87035" lon="3.08991">
        <ele>491</ele>
        <time>2021-08-15T06:58:58Z</time>
      </trkpt>
      <trkpt lat="45.87034" lon="3.08993">
        <ele>491</ele>
        <time>2021-08-15T06:58:59Z</time>
      </trkpt>
      <trkpt lat="45.87033" lon="3.08994">
        <ele>491</ele>
        <time>2021-08-15T06:59:00Z</time>
      </trkpt>
      <trkpt lat="45.87033" lon="3.08996">
        <ele>491</ele>
        <time>2021-08-15T06:59:01Z</time>
      </trkpt>
      <trkpt lat="45.87032" lon="3.08998">
        <ele>491</ele>
        <time>2021-08-15T06:59:02Z</time>
      </trkpt>
      <trkpt lat="45.8703" lon="3.09">
        <ele>491</ele>
        <time>2021-08-15T06:59:03Z</time>
      </trkpt>
      <trkpt lat="45.8703" lon="3.09002">
        <ele>491</ele>
        <time>2021-08-15T06:59:04Z</time>
      </trkpt>
      <trkpt lat="45.87029" lon="3.09004">
        <ele>491</ele>
        <time>2021-08-15T06:59:05Z</time>
      </trkpt>
      <trkpt lat="45.87028" lon="3.09006">
        <ele>491</ele>
        <time>2021-08-15T06:59:06Z</time>
      </trkpt>
      <trkpt lat="45.87027" lon="3.09009">
        <ele>491</ele>
        <time>2021-08-15T06:59:07Z</time>
      </trkpt>
      <trkpt lat="45.87027" lon="3.09011">
        <ele>491</ele>
        <time>2021-08-15T06:59:08Z</time>
      </trkpt>
      <trkpt lat="45.87027" lon="3.09014">
        <ele>491</ele>
        <time>2021-08-15T06:59:09Z</time>
      </trkpt>
      <trkpt lat="45.87027" lon="3.09017">
        <ele>491</ele>
        <time>2021-08-15T06:59:10Z</time>
      </trkpt>
      <trkpt lat="45.87026" lon="3.09019">
        <ele>491</ele>
        <time>2021-08-15T06:59:11Z</time>
      </trkpt>
      <trkpt lat="45.87026" lon="3.09021">
        <ele>491</ele>
        <time>2021-08-15T06:59:12Z</time>
      </trkpt>
      <trkpt lat="45.87026" lon="3.09023">
        <ele>491</ele>
        <time>2021-08-15T06:59:13Z</time>
      </trkpt>
      <trkpt lat="45.87025" lon="3.09025">
        <ele>491</ele>
        <time>2021-08-15T06:59:14Z</time>
      </trkpt>
      <trkpt lat="45.87024" lon="3.09028">
        <ele>491</ele>
        <time>2021-08-15T06:59:15Z</time>
      </trkpt>
      <trkpt lat="45.87024" lon="3.0903">
        <ele>491</ele>
        <time>2021-08-15T06:59:16Z</time>
      </trkpt>
      <trkpt lat="45.87024" lon="3.09032">
        <ele>491</ele>
        <time>2021-08-15T06:59:17Z</time>
      </trkpt>
      <trkpt lat="45.87023" lon="3.09035">
        <ele>491</ele>
        <time>2021-08-15T06:59:18Z</time>
      </trkpt>
      <trkpt lat="45.87022" lon="3.09038">
        <ele>491</ele>
        <time>2021-08-15T06:59:19Z</time>
      </trkpt>
      <trkpt lat="45.87022" lon="3.09041">
        <ele>491</ele>
        <time>2021-08-15T06:59:20Z</time>
      </trkpt>
      <trkpt lat="45.87022" lon="3.09044">
        <ele>491</ele>
        <time>2021-08-15T06:59:21Z</time>
      </trkpt>
      <trkpt lat="45.87022" lon="3.09046">
        <ele>491</ele>
        <time>2021-08-15T06:59:22Z</time>
      </trkpt>
      <trkpt lat="45.87021" lon="3.09048">
        <ele>491</ele>
        <time>2021-08-15T06:59:22Z</time>
      </trkpt>
      <trkpt lat="45.87021" lon="3.09051">
        <ele>491</ele>
        <time>2021-08-15T06:59:23Z</time>
      </trkpt>
      <trkpt lat="45.8702" lon="3.09053">
        <ele>491</ele>
        <time>2021-08-15T06:59:24Z</time>
      </trkpt>
      <trkpt lat="45.8702" lon="3.09055">
        <ele>491</ele>
        <time>2021-08-15T06:59:25Z</time>
      </trkpt>
      <trkpt lat="45.87019" lon="3.09057">
        <ele>491</ele>
        <time>2021-08-15T06:59:26Z</time>
      </trkpt>
      <trkpt lat="45.87019" lon="3.09059">
        <ele>491</ele>
        <time>2021-08-15T06:59:27Z</time>
      </trkpt>
      <trkpt lat="45.87018" lon="3.09061">
        <ele>491</ele>
        <time>2021-08-15T06:59:28Z</time>
      </trkpt>
      <trkpt lat="45.87018" lon="3.09063">
        <ele>491</ele>
        <time>2021-08-15T06:59:29Z</time>
      </trkpt>
      <trkpt lat="45.87017" lon="3.09066">
        <ele>491</ele>
        <time>2021-08-15T06:59:30Z</time>
      </trkpt>
      <trkpt lat="45.87016" lon="3.09068">
        <ele>491</ele>
        <time>2021-08-15T06:59:31Z</time>
      </trkpt>
      <trkpt lat="45.87015" lon="3.09071">
        <ele>491</ele>
        <time>2021-08-15T06:59:32Z</time>
      </trkpt>
      <trkpt lat="45.87015" lon="3.09073">
        <ele>491</ele>
        <time>2021-08-15T06:59:33Z</time>
      </trkpt>
      <trkpt lat="45.87014" lon="3.09076">
        <ele>491</ele>
        <time>2021-08-15T06:59:34Z</time>
      </trkpt>
      <trkpt lat="45.87014" lon="3.09078">
        <ele>491</ele>
        <time>2021-08-15T06:59:35Z</time>
      </trkpt>
      <trkpt lat="45.87013" lon="3.09081">
        <ele>491</ele>
        <time>2021-08-15T06:59:36Z</time>
      </trkpt>
      <trkpt lat="45.87013" lon="3.09083">
        <ele>491</ele>
        <time>2021-08-15T06:59:37Z</time>
      </trkpt>
      <trkpt lat="45.87012" lon="3.09085">
        <ele>491</ele>
        <time>2021-08-15T06:59:38Z</time>
      </trkpt>
      <trkpt lat="45.87011" lon="3.09087">
        <ele>491</ele>
        <time>2021-08-15T06:59:40Z</time>
      </trkpt>
      <trkpt lat="45.87009" lon="3.09096">
        <ele>491</ele>
        <time>2021-08-15T06:59:41Z</time>
      </trkpt>
      <trkpt lat="45.87009" lon="3.09096">
        <ele>491</ele>
        <time>2021-08-15T06:59:42Z</time>
      </trkpt>
      <trkpt lat="45.87008" lon="3.09097">
        <ele>491</ele>
        <time>2021-08-15T06:59:43Z</time>
      </trkpt>
      <trkpt lat="45.87008" lon="3.09098">
        <ele>491</ele>
        <time>2021-08-15T06:59:44Z</time>
      </trkpt>
      <trkpt lat="45.87006" lon="3.09099">
        <ele>491</ele>
        <time>2021-08-15T06:59:45Z</time>
      </trkpt>
      <trkpt lat="45.87006" lon="3.09101">
        <ele>491</ele>
        <time>2021-08-15T06:59:46Z</time>
      </trkpt>
      <trkpt lat="45.87006" lon="3.09103">
        <ele>491</ele>
        <time>2021-08-15T06:59:47Z</time>
      </trkpt>
      <trkpt lat="45.87005" lon="3.09105">
        <ele>491</ele>
        <time>2021-08-15T06:59:48Z</time>
      </trkpt>
      <trkpt lat="45.87004" lon="3.09107">
        <ele>491</ele>
        <time>2021-08-15T06:59:49Z</time>
      </trkpt>
      <trkpt lat="45.87003" lon="3.09109">
        <ele>491</ele>
        <time>2021-08-15T06:59:50Z</time>
      </trkpt>
      <trkpt lat="45.87003" lon="3.09111">
        <ele>491</ele>
        <time>2021-08-15T06:59:51Z</time>
      </trkpt>
      <trkpt lat="45.87002" lon="3.09113">
        <ele>491</ele>
        <time>2021-08-15T06:59:52Z</time>
      </trkpt>
      <trkpt lat="45.87002" lon="3.09115">
        <ele>491</ele>
        <time>2021-08-15T06:59:53Z</time>
      </trkpt>
      <trkpt lat="45.87001" lon="3.09117">
        <ele>491</ele>
        <time>2021-08-15T06:59:54Z</time>
      </trkpt>
      <trkpt lat="45.87001" lon="3.09119">
        <ele>491</ele>
        <time>2021-08-15T06:59:55Z</time>
      </trkpt>
      <trkpt lat="45.87" lon="3.09121">
        <ele>491</ele>
        <time>2021-08-15T06:59:56Z</time>
      </trkpt>
      <trkpt lat="45.86999" lon="3.09123">
        <ele>491</ele>
        <time>2021-08-15T06:59:57Z</time>
      </trkpt>
      <trkpt lat="45.86999" lon="3.09125">
        <ele>491</ele>
        <time>2021-08-15T06:59:58Z</time>
      </trkpt>
      <trkpt lat="45.86998" lon="3.09127">
        <ele>491</ele>
        <time>2021-08-15T06:59:59Z</time>
      </trkpt>
      <trkpt lat="45.86997" lon="3.09129">
        <ele>491</ele>
        <time>2021-08-15T07:00:00Z</time>
      </trkpt>
      <trkpt lat="45.86997" lon="3.09131">
        <ele>491</ele>
        <time>2021-08-15T07:00:01Z</time>
      </trkpt>
      <trkpt lat="45.86996" lon="3.09133">
        <ele>491</ele>
        <time>2021-08-15T07:00:02Z</time>
      </trkpt>
      <trkpt lat="45.86995" lon="3.09134">
        <ele>491</ele>
        <time>2021-08-15T07:00:03Z</time>
      </trkpt>
      <trkpt lat="45.86994" lon="3.09136">
        <ele>491</ele>
        <time>2021-08-15T07:00:04Z</time>
      </trkpt>
      <trkpt lat="45.86993" lon="3.09138">
        <ele>491</ele>
        <time>2021-08-15T07:00:05Z</time>
      </trkpt>
      <trkpt lat="45.86993" lon="3.0914">
        <ele>491</ele>
        <time>2021-08-15T07:00:06Z</time>
      </trkpt>
      <trkpt lat="45.86992" lon="3.09142">
        <ele>491</ele>
        <time>2021-08-15T07:00:07Z</time>
      </trkpt>
      <trkpt lat="45.86992" lon="3.09143">
        <ele>491</ele>
        <time>2021-08-15T07:00:08Z</time>
      </trkpt>
      <trkpt lat="45.86991" lon="3.09145">
        <ele>491</ele>
        <time>2021-08-15T07:00:09Z</time>
      </trkpt>
      <trkpt lat="45.86991" lon="3.09147">
        <ele>491</ele>
        <time>2021-08-15T07:00:10Z</time>
      </trkpt>
      <trkpt lat="45.8699" lon="3.09149">
        <ele>491</ele>
        <time>2021-08-15T07:00:11Z</time>
      </trkpt>
      <trkpt lat="45.8699" lon="3.09151">
        <ele>491</ele>
        <time>2021-08-15T07:00:12Z</time>
      </trkpt>
      <trkpt lat="45.86989" lon="3.09152">
        <ele>491</ele>
        <time>2021-08-15T07:00:13Z</time>
      </trkpt>
      <trkpt lat="45.86988" lon="3.09154">
        <ele>491</ele>
        <time>2021-08-15T07:00:14Z</time>
      </trkpt>
      <trkpt lat="45.86988" lon="3.09155">
        <ele>491</ele>
        <time>2021-08-15T07:00:15Z</time>
      </trkpt>
      <trkpt lat="45.86988" lon="3.09157">
        <ele>491</ele>
        <time>2021-08-15T07:00:16Z</time>
      </trkpt>
      <trkpt lat="45.86987" lon="3.09158">
        <ele>491</ele>
        <time>2021-08-15T07:00:17Z</time>
      </trkpt>
      <trkpt lat="45.86987" lon="3.0916">
        <ele>491</ele>
        <time>2021-08-15T07:00:18Z</time>
      </trkpt>
      <trkpt lat="45.86985" lon="3.09162">
        <ele>491</ele>
        <time>2021-08-15T07:00:19Z</time>
      </trkpt>
      <trkpt lat="45.86985" lon="3.09163">
        <ele>491</ele>
        <time>2021-08-15T07:00:20Z</time>
      </trkpt>
      <trkpt lat="45.86984" lon="3.09165">
        <ele>491</ele>
        <time>2021-08-15T07:00:21Z</time>
      </trkpt>
      <trkpt lat="45.86983" lon="3.09167">
        <ele>491</ele>
        <time>2021-08-15T07:00:22Z</time>
      </trkpt>
      <trkpt lat="45.86982" lon="3.09168">
        <ele>491</ele>
        <time>2021-08-15T07:00:23Z</time>
      </trkpt>
      <trkpt lat="45.8698" lon="3.0917">
        <ele>491</ele>
        <time>2021-08-15T07:00:24Z</time>
      </trkpt>
      <trkpt lat="45.86979" lon="3.09171">
        <ele>491</ele>
        <time>2021-08-15T07:00:25Z</time>
      </trkpt>
      <trkpt lat="45.86978" lon="3.09172">
        <ele>491</ele>
        <time>2021-08-15T07:00:26Z</time>
      </trkpt>
      <trkpt lat="45.86976" lon="3.09173">
        <ele>491</ele>
        <time>2021-08-15T07:00:27Z</time>
      </trkpt>
      <trkpt lat="45.86975" lon="3.09174">
        <ele>491</ele>
        <time>2021-08-15T07:00:28Z</time>
      </trkpt>
      <trkpt lat="45.86974" lon="3.09175">
        <ele>491</ele>
        <time>2021-08-15T07:00:29Z</time>
      </trkpt>
      <trkpt lat="45.86973" lon="3.09176">
        <ele>491</ele>
        <time>2021-08-15T07:00:30Z</time>
      </trkpt>
      <trkpt lat="45.86971" lon="3.09177">
        <ele>491</ele>
        <time>2021-08-15T07:00:31Z</time>
      </trkpt>
      <trkpt lat="45.8697" lon="3.09178">
        <ele>491</ele>
        <time>2021-08-15T07:00:32Z</time>
      </trkpt>
      <trkpt lat="45.86969" lon="3.0918">
        <ele>491</ele>
        <time>2021-08-15T07:00:33Z</time>
      </trkpt>
      <trkpt lat="45.86968" lon="3.09181">
        <ele>491</ele>
        <time>2021-08-15T07:00:34Z</time>
      </trkpt>
      <trkpt lat="45.86967" lon="3.09183">
        <ele>491</ele>
        <time>2021-08-15T07:00:35Z</time>
      </trkpt>
      <trkpt lat="45.86966" lon="3.09185">
        <ele>491</ele>
        <time>2021-08-15T07:00:36Z</time>
      </trkpt>
      <trkpt lat="45.86964" lon="3.09186">
        <ele>491</ele>
        <time>2021-08-15T07:00:38Z</time>
      </trkpt>
      <trkpt lat="45.86963" lon="3.09188">
        <ele>491</ele>
        <time>2021-08-15T07:00:39Z</time>
      </trkpt>
      <trkpt lat="45.86963" lon="3.09189">
        <ele>491</ele>
        <time>2021-08-15T07:00:40Z</time>
      </trkpt>
      <trkpt lat="45.86957" lon="3.09194">
        <ele>491</ele>
        <time>2021-08-15T07:00:41Z</time>
      </trkpt>
      <trkpt lat="45.86957" lon="3.09195">
        <ele>491</ele>
        <time>2021-08-15T07:00:42Z</time>
      </trkpt>
      <trkpt lat="45.86956" lon="3.09195">
        <ele>491</ele>
        <time>2021-08-15T07:00:43Z</time>
      </trkpt>
      <trkpt lat="45.86956" lon="3.09196">
        <ele>491</ele>
        <time>2021-08-15T07:00:44Z</time>
      </trkpt>
      <trkpt lat="45.86955" lon="3.09197">
        <ele>491</ele>
        <time>2021-08-15T07:00:45Z</time>
      </trkpt>
      <trkpt lat="45.86954" lon="3.09199">
        <ele>491</ele>
        <time>2021-08-15T07:00:46Z</time>
      </trkpt>
      <trkpt lat="45.86953" lon="3.092">
        <ele>491</ele>
        <time>2021-08-15T07:00:47Z</time>
      </trkpt>
      <trkpt lat="45.86952" lon="3.09202">
        <ele>491</ele>
        <time>2021-08-15T07:00:48Z</time>
      </trkpt>
      <trkpt lat="45.86952" lon="3.09203">
        <ele>491</ele>
        <time>2021-08-15T07:00:49Z</time>
      </trkpt>
      <trkpt lat="45.86951" lon="3.09205">
        <ele>491</ele>
        <time>2021-08-15T07:00:50Z</time>
      </trkpt>
      <trkpt lat="45.8695" lon="3.09206">
        <ele>491</ele>
        <time>2021-08-15T07:00:51Z</time>
      </trkpt>
      <trkpt lat="45.8695" lon="3.09208">
        <ele>491</ele>
        <time>2021-08-15T07:00:52Z</time>
      </trkpt>
      <trkpt lat="45.86949" lon="3.09209">
        <ele>491</ele>
        <time>2021-08-15T07:00:53Z</time>
      </trkpt>
      <trkpt lat="45.86949" lon="3.0921">
        <ele>491</ele>
        <time>2021-08-15T07:00:54Z</time>
      </trkpt>
      <trkpt lat="45.86948" lon="3.09211">
        <ele>491</ele>
        <time>2021-08-15T07:00:55Z</time>
      </trkpt>
      <trkpt lat="45.86947" lon="3.09213">
        <ele>491</ele>
        <time>2021-08-15T07:00:56Z</time>
      </trkpt>
      <trkpt lat="45.86947" lon="3.09214">
        <ele>491</ele>
        <time>2021-08-15T07:00:57Z</time>
      </trkpt>
      <trkpt lat="45.86946" lon="3.09216">
        <ele>491</ele>
        <time>2021-08-15T07:00:58Z</time>
      </trkpt>
      <trkpt lat="45.86945" lon="3.09217">
        <ele>491</ele>
        <time>2021-08-15T07:00:59Z</time>
      </trkpt>
      <trkpt lat="45.86945" lon="3.09219">
        <ele>491</ele>
        <time>2021-08-15T07:01:00Z</time>
      </trkpt>
      <trkpt lat="45.86943" lon="3.0922">
        <ele>491</ele>
        <time>2021-08-15T07:01:01Z</time>
      </trkpt>
      <trkpt lat="45.86943" lon="3.09222">
        <ele>491</ele>
        <time>2021-08-15T07:01:02Z</time>
      </trkpt>
      <trkpt lat="45.86942" lon="3.09223">
        <ele>491</ele>
        <time>2021-08-15T07:01:03Z</time>
      </trkpt>
      <trkpt lat="45.86942" lon="3.09225">
        <ele>491</ele>
        <time>2021-08-15T07:01:04Z</time>
      </trkpt>
      <trkpt lat="45.8694" lon="3.09227">
        <ele>491</ele>
        <time>2021-08-15T07:01:05Z</time>
      </trkpt>
      <trkpt lat="45.8694" lon="3.09228">
        <ele>491</ele>
        <time>2021-08-15T07:01:06Z</time>
      </trkpt>
      <trkpt lat="45.86939" lon="3.0923">
        <ele>491</ele>
        <time>2021-08-15T07:01:07Z</time>
      </trkpt>
      <trkpt lat="45.86938" lon="3.09231">
        <ele>491</ele>
        <time>2021-08-15T07:01:08Z</time>
      </trkpt>
      <trkpt lat="45.86937" lon="3.09233">
        <ele>491</ele>
        <time>2021-08-15T07:01:09Z</time>
      </trkpt>
      <trkpt lat="45.86936" lon="3.09235">
        <ele>491</ele>
        <time>2021-08-15T07:01:10Z</time>
      </trkpt>
      <trkpt lat="45.86936" lon="3.09236">
        <ele>491</ele>
        <time>2021-08-15T07:01:11Z</time>
      </trkpt>
      <trkpt lat="45.86935" lon="3.09238">
        <ele>491</ele>
        <time>2021-08-15T07:01:12Z</time>
      </trkpt>
      <trkpt lat="45.86934" lon="3.0924">
        <ele>491</ele>
        <time>2021-08-15T07:01:13Z</time>
      </trkpt>
      <trkpt lat="45.86933" lon="3.09242">
        <ele>491</ele>
        <time>2021-08-15T07:01:14Z</time>
      </trkpt>
      <trkpt lat="45.86933" lon="3.09244">
        <ele>491</ele>
        <time>2021-08-15T07:01:15Z</time>
      </trkpt>
      <trkpt lat="45.86932" lon="3.09245">
        <ele>491</ele>
        <time>2021-08-15T07:01:16Z</time>
      </trkpt>
      <trkpt lat="45.86931" lon="3.09247">
        <ele>491</ele>
        <time>2021-08-15T07:01:17Z</time>
      </trkpt>
      <trkpt lat="45.8693" lon="3.09249">
        <ele>491</ele>
        <time>2021-08-15T07:01:18Z</time>
      </trkpt>
      <trkpt lat="45.8693" lon="3.09251">
        <ele>491</ele>
        <time>2021-08-15T07:01:19Z</time>
      </trkpt>
      <trkpt lat="45.86929" lon="3.09253">
        <ele>491</ele>
        <time>2021-08-15T07:01:20Z</time>
      </trkpt>
      <trkpt lat="45.86928" lon="3.09255">
        <ele>491</ele>
        <time>2021-08-15T07:01:21Z</time>
      </trkpt>
      <trkpt lat="45.86928" lon="3.09257">
        <ele>491</ele>
        <time>2021-08-15T07:01:22Z</time>
      </trkpt>
      <trkpt lat="45.86928" lon="3.09259">
        <ele>491</ele>
        <time>2021-08-15T07:01:23Z</time>
      </trkpt>
      <trkpt lat="45.86927" lon="3.0926">
        <ele>491</ele>
        <time>2021-08-15T07:01:24Z</time>
      </trkpt>
      <trkpt lat="45.86927" lon="3.09262">
        <ele>491</ele>
        <time>2021-08-15T07:01:25Z</time>
      </trkpt>
      <trkpt lat="45.86926" lon="3.09265">
        <ele>491</ele>
        <time>2021-08-15T07:01:26Z</time>
      </trkpt>
      <trkpt lat="45.86926" lon="3.09268">
        <ele>491</ele>
        <time>2021-08-15T07:01:27Z</time>
      </trkpt>
      <trkpt lat="45.86925" lon="3.09271">
        <ele>491</ele>
        <time>2021-08-15T07:01:28Z</time>
      </trkpt>
      <trkpt lat="45.86924" lon="3.09273">
        <ele>491</ele>
        <time>2021-08-15T07:01:29Z</time>
      </trkpt>
      <trkpt lat="45.86924" lon="3.09276">
        <ele>491</ele>
        <time>2021-08-15T07:01:30Z</time>
      </trkpt>
      <trkpt lat="45.86923" lon="3.09278">
        <ele>491</ele>
        <time>2021-08-15T07:01:31Z</time>
      </trkpt>
      <trkpt lat="45.86922" lon="3.0928">
        <ele>491</ele>
        <time>2021-08-15T07:01:32Z</time>
      </trkpt>
      <trkpt lat="45.86921" lon="3.09282">
        <ele>491</ele>
        <time>2021-08-15T07:01:33Z</time>
      </trkpt>
      <trkpt lat="45.86921" lon="3.09283">
        <ele>491</ele>
        <time>2021-08-15T07:01:34Z</time>
      </trkpt>
      <trkpt lat="45.86919" lon="3.09285">
        <ele>491</ele>
        <time>2021-08-15T07:01:35Z</time>
      </trkpt>
      <trkpt lat="45.86918" lon="3.09287">
        <ele>491</ele>
        <time>2021-08-15T07:01:36Z</time>
      </trkpt>
      <trkpt lat="45.86918" lon="3.09289">
        <ele>491</ele>
        <time>2021-08-15T07:01:37Z</time>
      </trkpt>
      <trkpt lat="45.86917" lon="3.09291">
        <ele>491</ele>
        <time>2021-08-15T07:01:39Z</time>
      </trkpt>
      <trkpt lat="45.86914" lon="3.09299">
        <ele>491</ele>
        <time>2021-08-15T07:01:40Z</time>
      </trkpt>
      <trkpt lat="45.86914" lon="3.09299">
        <ele>491</ele>
        <time>2021-08-15T07:01:41Z</time>
      </trkpt>
      <trkpt lat="45.86913" lon="3.093">
        <ele>491</ele>
        <time>2021-08-15T07:01:42Z</time>
      </trkpt>
      <trkpt lat="45.86913" lon="3.09301">
        <ele>491</ele>
        <time>2021-08-15T07:01:43Z</time>
      </trkpt>
      <trkpt lat="45.86912" lon="3.09302">
        <ele>491</ele>
        <time>2021-08-15T07:01:44Z</time>
      </trkpt>
      <trkpt lat="45.86911" lon="3.09304">
        <ele>491</ele>
        <time>2021-08-15T07:01:45Z</time>
      </trkpt>
      <trkpt lat="45.86911" lon="3.09306">
        <ele>491</ele>
        <time>2021-08-15T07:01:46Z</time>
      </trkpt>
      <trkpt lat="45.8691" lon="3.09308">
        <ele>491</ele>
        <time>2021-08-15T07:01:47Z</time>
      </trkpt>
      <trkpt lat="45.86909" lon="3.0931">
        <ele>491</ele>
        <time>2021-08-15T07:01:48Z</time>
      </trkpt>
      <trkpt lat="45.86909" lon="3.09313">
        <ele>491</ele>
        <time>2021-08-15T07:01:49Z</time>
      </trkpt>
      <trkpt lat="45.86908" lon="3.09315">
        <ele>491</ele>
        <time>2021-08-15T07:01:50Z</time>
      </trkpt>
      <trkpt lat="45.86908" lon="3.09318">
        <ele>491</ele>
        <time>2021-08-15T07:01:51Z</time>
      </trkpt>
      <trkpt lat="45.86907" lon="3.09321">
        <ele>491</ele>
        <time>2021-08-15T07:01:52Z</time>
      </trkpt>
      <trkpt lat="45.86906" lon="3.09323">
        <ele>491</ele>
        <time>2021-08-15T07:01:53Z</time>
      </trkpt>
      <trkpt lat="45.86905" lon="3.09326">
        <ele>491</ele>
        <time>2021-08-15T07:01:54Z</time>
      </trkpt>
      <trkpt lat="45.86904" lon="3.09329">
        <ele>491</ele>
        <time>2021-08-15T07:01:55Z</time>
      </trkpt>
      <trkpt lat="45.86903" lon="3.09331">
        <ele>491</ele>
        <time>2021-08-15T07:01:56Z</time>
      </trkpt>
      <trkpt lat="45.86903" lon="3.09333">
        <ele>491</ele>
        <time>2021-08-15T07:01:57Z</time>
      </trkpt>
      <trkpt lat="45.86902" lon="3.09335">
        <ele>491</ele>
        <time>2021-08-15T07:01:58Z</time>
      </trkpt>
      <trkpt lat="45.86902" lon="3.09337">
        <ele>491</ele>
        <time>2021-08-15T07:01:59Z</time>
      </trkpt>
      <trkpt lat="45.86902" lon="3.09339">
        <ele>491</ele>
        <time>2021-08-15T07:02:00Z</time>
      </trkpt>
      <trkpt lat="45.86901" lon="3.09342">
        <ele>491</ele>
        <time>2021-08-15T07:02:01Z</time>
      </trkpt>
      <trkpt lat="45.869" lon="3.09345">
        <ele>491</ele>
        <time>2021-08-15T07:02:02Z</time>
      </trkpt>
      <trkpt lat="45.869" lon="3.09347">
        <ele>491</ele>
        <time>2021-08-15T07:02:03Z</time>
      </trkpt>
      <trkpt lat="45.869" lon="3.09349">
        <ele>491</ele>
        <time>2021-08-15T07:02:04Z</time>
      </trkpt>
      <trkpt lat="45.869" lon="3.09351">
        <ele>491</ele>
        <time>2021-08-15T07:02:05Z</time>
      </trkpt>
      <trkpt lat="45.86899" lon="3.09353">
        <ele>491</ele>
        <time>2021-08-15T07:02:06Z</time>
      </trkpt>
      <trkpt lat="45.86898" lon="3.09355">
        <ele>491</ele>
        <time>2021-08-15T07:02:07Z</time>
      </trkpt>
      <trkpt lat="45.86897" lon="3.09357">
        <ele>491</ele>
        <time>2021-08-15T07:02:08Z</time>
      </trkpt>
      <trkpt lat="45.86897" lon="3.09359">
        <ele>491</ele>
        <time>2021-08-15T07:02:09Z</time>
      </trkpt>
      <trkpt lat="45.86897" lon="3.09361">
        <ele>491</ele>
        <time>2021-08-15T07:02:10Z</time>
      </trkpt>
      <trkpt lat="45.86896" lon="3.09362">
        <ele>491</ele>
        <time>2021-08-15T07:02:11Z</time>
      </trkpt>
      <trkpt lat="45.86895" lon="3.09364">
        <ele>491</ele>
        <time>2021-08-15T07:02:12Z</time>
      </trkpt>
      <trkpt lat="45.86895" lon="3.09366">
        <ele>491</ele>
        <time>2021-08-15T07:02:13Z</time>
      </trkpt>
      <trkpt lat="45.86894" lon="3.09368">
        <ele>491</ele>
        <time>2021-08-15T07:02:14Z</time>
      </trkpt>
      <trkpt lat="45.86894" lon="3.0937">
        <ele>491</ele>
        <time>2021-08-15T07:02:15Z</time>
      </trkpt>
      <trkpt lat="45.86892" lon="3.09372">
        <ele>491</ele>
        <time>2021-08-15T07:02:16Z</time>
      </trkpt>
      <trkpt lat="45.86891" lon="3.09374">
        <ele>491</ele>
        <time>2021-08-15T07:02:17Z</time>
      </trkpt>
      <trkpt lat="45.8689" lon="3.09376">
        <ele>491</ele>
        <time>2021-08-15T07:02:18Z</time>
      </trkpt>
      <trkpt lat="45.86889" lon="3.09378">
        <ele>491</ele>
        <time>2021-08-15T07:02:19Z</time>
      </trkpt>
      <trkpt lat="45.86888" lon="3.0938">
        <ele>491</ele>
        <time>2021-08-15T07:02:20Z</time>
      </trkpt>
      <trkpt lat="45.86887" lon="3.09382">
        <ele>491</ele>
        <time>2021-08-15T07:02:21Z</time>
      </trkpt>
      <trkpt lat="45.86886" lon="3.09384">
        <ele>491</ele>
        <time>2021-08-15T07:02:22Z</time>
      </trkpt>
      <trkpt lat="45.86885" lon="3.09386">
        <ele>491</ele>
        <time>2021-08-15T07:02:23Z</time>
      </trkpt>
      <trkpt lat="45.86883" lon="3.09388">
        <ele>491</ele>
        <time>2021-08-15T07:02:24Z</time>
      </trkpt>
      <trkpt lat="45.86882" lon="3.0939">
        <ele>491</ele>
        <time>2021-08-15T07:02:25Z</time>
      </trkpt>
      <trkpt lat="45.8688" lon="3.09392">
        <ele>491</ele>
        <time>2021-08-15T07:02:26Z</time>
      </trkpt>
      <trkpt lat="45.86879" lon="3.09394">
        <ele>491</ele>
        <time>2021-08-15T07:02:27Z</time>
      </trkpt>
      <trkpt lat="45.86877" lon="3.09396">
        <ele>491</ele>
        <time>2021-08-15T07:02:28Z</time>
      </trkpt>
      <trkpt lat="45.86876" lon="3.09398">
        <ele>491</ele>
        <time>2021-08-15T07:02:29Z</time>
      </trkpt>
      <trkpt lat="45.86874" lon="3.094">
        <ele>491</ele>
        <time>2021-08-15T07:02:30Z</time>
      </trkpt>
      <trkpt lat="45.86873" lon="3.09402">
        <ele>491</ele>
        <time>2021-08-15T07:02:31Z</time>
      </trkpt>
      <trkpt lat="45.86871" lon="3.09404">
        <ele>491</ele>
        <time>2021-08-15T07:02:32Z</time>
      </trkpt>
      <trkpt lat="45.8687" lon="3.09405">
        <ele>491</ele>
        <time>2021-08-15T07:02:33Z</time>
      </trkpt>
      <trkpt lat="45.86868" lon="3.09407">
        <ele>491</ele>
        <time>2021-08-15T07:02:34Z</time>
      </trkpt>
      <trkpt lat="45.86867" lon="3.09408">
        <ele>491</ele>
        <time>2021-08-15T07:02:35Z</time>
      </trkpt>
      <trkpt lat="45.86866" lon="3.0941">
        <ele>491</ele>
        <time>2021-08-15T07:02:36Z</time>
      </trkpt>
      <trkpt lat="45.86865" lon="3.09411">
        <ele>491</ele>
        <time>2021-08-15T07:02:38Z</time>
      </trkpt>
      <trkpt lat="45.8686" lon="3.09417">
        <ele>491</ele>
        <time>2021-08-15T07:02:40Z</time>
      </trkpt>
      <trkpt lat="45.86857" lon="3.09421">
        <ele>491</ele>
        <time>2021-08-15T07:02:41Z</time>
      </trkpt>
      <trkpt lat="45.86857" lon="3.09421">
        <ele>491</ele>
        <time>2021-08-15T07:02:42Z</time>
      </trkpt>
      <trkpt lat="45.86855" lon="3.09422">
        <ele>491</ele>
        <time>2021-08-15T07:02:43Z</time>
      </trkpt>
      <trkpt lat="45.86855" lon="3.09423">
        <ele>491</ele>
        <time>2021-08-15T07:02:44Z</time>
      </trkpt>
      <trkpt lat="45.86853" lon="3.09425">
        <ele>491</ele>
        <time>2021-08-15T07:02:45Z</time>
      </trkpt>
      <trkpt lat="45.86852" lon="3.09426">
        <ele>491</ele>
        <time>2021-08-15T07:02:46Z</time>
      </trkpt>
      <trkpt lat="45.8685" lon="3.09428">
        <ele>491</ele>
        <time>2021-08-15T07:02:47Z</time>
      </trkpt>
      <trkpt lat="45.86849" lon="3.0943">
        <ele>491</ele>
        <time>2021-08-15T07:02:48Z</time>
      </trkpt>
      <trkpt lat="45.86847" lon="3.09431">
        <ele>491</ele>
        <time>2021-08-15T07:02:49Z</time>
      </trkpt>
      <trkpt lat="45.86846" lon="3.09433">
        <ele>491</ele>
        <time>2021-08-15T07:02:50Z</time>
      </trkpt>
      <trkpt lat="45.86844" lon="3.09435">
        <ele>491</ele>
        <time>2021-08-15T07:02:51Z</time>
      </trkpt>
      <trkpt lat="45.86843" lon="3.09437">
        <ele>491</ele>
        <time>2021-08-15T07:02:52Z</time>
      </trkpt>
      <trkpt lat="45.86841" lon="3.09439">
        <ele>491</ele>
        <time>2021-08-15T07:02:53Z</time>
      </trkpt>
      <trkpt lat="45.8684" lon="3.09441">
        <ele>491</ele>
        <time>2021-08-15T07:02:54Z</time>
      </trkpt>
      <trkpt lat="45.86838" lon="3.09442">
        <ele>491</ele>
        <time>2021-08-15T07:02:55Z</time>
      </trkpt>
      <trkpt lat="45.86837" lon="3.09444">
        <ele>491</ele>
        <time>2021-08-15T07:02:56Z</time>
      </trkpt>
      <trkpt lat="45.86835" lon="3.09445">
        <ele>491</ele>
        <time>2021-08-15T07:02:57Z</time>
      </trkpt>
      <trkpt lat="45.86834" lon="3.09447">
        <ele>491</ele>
        <time>2021-08-15T07:02:58Z</time>
      </trkpt>
      <trkpt lat="45.86832" lon="3.09449">
        <ele>491</ele>
        <time>2021-08-15T07:02:59Z</time>
      </trkpt>
      <trkpt lat="45.86831" lon="3.0945">
        <ele>491</ele>
        <time>2021-08-15T07:03:00Z</time>
      </trkpt>
      <trkpt lat="45.86829" lon="3.09451">
        <ele>491</ele>
        <time>2021-08-15T07:03:01Z</time>
      </trkpt>
      <trkpt lat="45.86827" lon="3.09453">
        <ele>491</ele>
        <time>2021-08-15T07:03:02Z</time>
      </trkpt>
      <trkpt lat="45.86826" lon="3.09454">
        <ele>491</ele>
        <time>2021-08-15T07:03:03Z</time>
      </trkpt>
      <trkpt lat="45.86824" lon="3.09456">
        <ele>491</ele>
        <time>2021-08-15T07:03:04Z</time>
      </trkpt>
      <trkpt lat="45.86822" lon="3.09457">
        <ele>491</ele>
        <time>2021-08-15T07:03:05Z</time>
      </trkpt>
      <trkpt lat="45.8682" lon="3.09459">
        <ele>491</ele>
        <time>2021-08-15T07:03:06Z</time>
      </trkpt>
      <trkpt lat="45.86819" lon="3.0946">
        <ele>491</ele>
        <time>2021-08-15T07:03:07Z</time>
      </trkpt>
      <trkpt lat="45.86818" lon="3.09462">
        <ele>491</ele>
        <time>2021-08-15T07:03:08Z</time>
      </trkpt>
      <trkpt lat="45.86816" lon="3.09463">
        <ele>491</ele>
        <time>2021-08-15T07:03:09Z</time>
      </trkpt>
      <trkpt lat="45.86816" lon="3.09464">
        <ele>491</ele>
        <time>2021-08-15T07:03:10Z</time>
      </trkpt>
      <trkpt lat="45.86815" lon="3.09465">
        <ele>491</ele>
        <time>2021-08-15T07:03:11Z</time>
      </trkpt>
      <trkpt lat="45.86814" lon="3.09466">
        <ele>491</ele>
        <time>2021-08-15T07:03:12Z</time>
      </trkpt>
      <trkpt lat="45.86813" lon="3.09468">
        <ele>491</ele>
        <time>2021-08-15T07:03:13Z</time>
      </trkpt>
      <trkpt lat="45.86812" lon="3.09469">
        <ele>491</ele>
        <time>2021-08-15T07:03:14Z</time>
      </trkpt>
      <trkpt lat="45.86811" lon="3.0947">
        <ele>491</ele>
        <time>2021-08-15T07:03:15Z</time>
      </trkpt>
      <trkpt lat="45.86809" lon="3.09471">
        <ele>491</ele>
        <time>2021-08-15T07:03:16Z</time>
      </trkpt>
      <trkpt lat="45.86809" lon="3.09472">
        <ele>491</ele>
        <time>2021-08-15T07:03:17Z</time>
      </trkpt>
      <trkpt lat="45.86808" lon="3.09473">
        <ele>491</ele>
        <time>2021-08-15T07:03:18Z</time>
      </trkpt>
      <trkpt lat="45.86807" lon="3.09474">
        <ele>491</ele>
        <time>2021-08-15T07:03:19Z</time>
      </trkpt>
      <trkpt lat="45.86806" lon="3.09475">
        <ele>491</ele>
        <time>2021-08-15T07:03:20Z</time>
      </trkpt>
      <trkpt lat="45.86805" lon="3.09476">
        <ele>491</ele>
        <time>2021-08-15T07:03:21Z</time>
      </trkpt>
      <trkpt lat="45.86805" lon="3.09477">
        <ele>491</ele>
        <time>2021-08-15T07:03:22Z</time>
      </trkpt>
      <trkpt lat="45.86804" lon="3.09478">
        <ele>491</ele>
        <time>2021-08-15T07:03:23Z</time>
      </trkpt>
      <trkpt lat="45.86803" lon="3.09478">
        <ele>491</ele>
        <time>2021-08-15T07:03:24Z</time>
      </trkpt>
      <trkpt lat="45.86802" lon="3.0948">
        <ele>491</ele>
        <time>2021-08-15T07:03:25Z</time>
      </trkpt>
      <trkpt lat="45.86801" lon="3.0948">
        <ele>491</ele>
        <time>2021-08-15T07:03:26Z</time>
      </trkpt>
      <trkpt lat="45.868" lon="3.09481">
        <ele>491</ele>
        <time>2021-08-15T07:03:27Z</time>
      </trkpt>
      <trkpt lat="45.86799" lon="3.09482">
        <ele>491</ele>
        <time>2021-08-15T07:03:28Z</time>
      </trkpt>
      <trkpt lat="45.86797" lon="3.09484">
        <ele>491</ele>
        <time>2021-08-15T07:03:29Z</time>
      </trkpt>
      <trkpt lat="45.86796" lon="3.09485">
        <ele>491</ele>
        <time>2021-08-15T07:03:30Z</time>
      </trkpt>
      <trkpt lat="45.86795" lon="3.09486">
        <ele>491</ele>
        <time>2021-08-15T07:03:31Z</time>
      </trkpt>
      <trkpt lat="45.86794" lon="3.09486">
        <ele>491</ele>
        <time>2021-08-15T07:03:32Z</time>
      </trkpt>
      <trkpt lat="45.86793" lon="3.09487">
        <ele>491</ele>
        <time>2021-08-15T07:03:33Z</time>
      </trkpt>
      <trkpt lat="45.86792" lon="3.09488">
        <ele>491</ele>
        <time>2021-08-15T07:03:34Z</time>
      </trkpt>
      <trkpt lat="45.86791" lon="3.0949">
        <ele>491</ele>
        <time>2021-08-15T07:03:35Z</time>
      </trkpt>
      <trkpt lat="45.8679" lon="3.09491">
        <ele>491</ele>
        <time>2021-08-15T07:03:36Z</time>
      </trkpt>
      <trkpt lat="45.86788" lon="3.09492">
        <ele>491</ele>
        <time>2021-08-15T07:03:37Z</time>
      </trkpt>
      <trkpt lat="45.86787" lon="3.09494">
        <ele>491</ele>
        <time>2021-08-15T07:03:38Z</time>
      </trkpt>
      <trkpt lat="45.86786" lon="3.09494">
        <ele>491</ele>
        <time>2021-08-15T07:03:39Z</time>
      </trkpt>
      <trkpt lat="45.86782" lon="3.095">
        <ele>491</ele>
        <time>2021-08-15T07:03:40Z</time>
      </trkpt>
      <trkpt lat="45.86782" lon="3.095">
        <ele>491</ele>
        <time>2021-08-15T07:03:41Z</time>
      </trkpt>
      <trkpt lat="45.86781" lon="3.09501">
        <ele>491</ele>
        <time>2021-08-15T07:03:42Z</time>
      </trkpt>
      <trkpt lat="45.8678" lon="3.09501">
        <ele>491</ele>
        <time>2021-08-15T07:03:43Z</time>
      </trkpt>
      <trkpt lat="45.86779" lon="3.09502">
        <ele>491</ele>
        <time>2021-08-15T07:03:44Z</time>
      </trkpt>
      <trkpt lat="45.86778" lon="3.09503">
        <ele>491</ele>
        <time>2021-08-15T07:03:45Z</time>
      </trkpt>
      <trkpt lat="45.86776" lon="3.09504">
        <ele>491</ele>
        <time>2021-08-15T07:03:46Z</time>
      </trkpt>
      <trkpt lat="45.86774" lon="3.09505">
        <ele>491</ele>
        <time>2021-08-15T07:03:47Z</time>
      </trkpt>
      <trkpt lat="45.86773" lon="3.09506">
        <ele>491</ele>
        <time>2021-08-15T07:03:48Z</time>
      </trkpt>
      <trkpt lat="45.8677" lon="3.09508">
        <ele>491</ele>
        <time>2021-08-15T07:03:49Z</time>
      </trkpt>
      <trkpt lat="45.86769" lon="3.09509">
        <ele>491</ele>
        <time>2021-08-15T07:03:50Z</time>
      </trkpt>
      <trkpt lat="45.86767" lon="3.0951">
        <ele>491</ele>
        <time>2021-08-15T07:03:51Z</time>
      </trkpt>
      <trkpt lat="45.86765" lon="3.09511">
        <ele>491</ele>
        <time>2021-08-15T07:03:52Z</time>
      </trkpt>
      <trkpt lat="45.86763" lon="3.09512">
        <ele>491</ele>
        <time>2021-08-15T07:03:53Z</time>
      </trkpt>
      <trkpt lat="45.86761" lon="3.09513">
        <ele>491</ele>
        <time>2021-08-15T07:03:54Z</time>
      </trkpt>
      <trkpt lat="45.86759" lon="3.09514">
        <ele>491</ele>
        <time>2021-08-15T07:03:55Z</time>
      </trkpt>
      <trkpt lat="45.86757" lon="3.09515">
        <ele>491</ele>
        <time>2021-08-15T07:03:56Z</time>
      </trkpt>
      <trkpt lat="45.86755" lon="3.09517">
        <ele>491</ele>
        <time>2021-08-15T07:03:57Z</time>
      </trkpt>
      <trkpt lat="45.86754" lon="3.09518">
        <ele>491</ele>
        <time>2021-08-15T07:03:58Z</time>
      </trkpt>
      <trkpt lat="45.86752" lon="3.0952">
        <ele>491</ele>
        <time>2021-08-15T07:03:59Z</time>
      </trkpt>
      <trkpt lat="45.8675" lon="3.09522">
        <ele>491</ele>
        <time>2021-08-15T07:04:00Z</time>
      </trkpt>
      <trkpt lat="45.86749" lon="3.09523">
        <ele>491</ele>
        <time>2021-08-15T07:04:01Z</time>
      </trkpt>
      <trkpt lat="45.86747" lon="3.09525">
        <ele>491</ele>
        <time>2021-08-15T07:04:02Z</time>
      </trkpt>
      <trkpt lat="45.86746" lon="3.09526">
        <ele>491</ele>
        <time>2021-08-15T07:04:03Z</time>
      </trkpt>
      <trkpt lat="45.86744" lon="3.09528">
        <ele>491</ele>
        <time>2021-08-15T07:04:04Z</time>
      </trkpt>
      <trkpt lat="45.86743" lon="3.09529">
        <ele>491</ele>
        <time>2021-08-15T07:04:05Z</time>
      </trkpt>
      <trkpt lat="45.86741" lon="3.0953">
        <ele>491</ele>
        <time>2021-08-15T07:04:06Z</time>
      </trkpt>
      <trkpt lat="45.8674" lon="3.09532">
        <ele>491</ele>
        <time>2021-08-15T07:04:07Z</time>
      </trkpt>
      <trkpt lat="45.86739" lon="3.09533">
        <ele>491</ele>
        <time>2021-08-15T07:04:08Z</time>
      </trkpt>
      <trkpt lat="45.86738" lon="3.09535">
        <ele>491</ele>
        <time>2021-08-15T07:04:09Z</time>
      </trkpt>
      <trkpt lat="45.86737" lon="3.09537">
        <ele>491</ele>
        <time>2021-08-15T07:04:10Z</time>
      </trkpt>
      <trkpt lat="45.86736" lon="3.09539">
        <ele>491</ele>
        <time>2021-08-15T07:04:11Z</time>
      </trkpt>
      <trkpt lat="45.86735" lon="3.09541">
        <ele>491</ele>
        <time>2021-08-15T07:04:12Z</time>
      </trkpt>
      <trkpt lat="45.86734" lon="3.09543">
        <ele>491</ele>
        <time>2021-08-15T07:04:13Z</time>
      </trkpt>
      <trkpt lat="45.86733" lon="3.09546">
        <ele>491</ele>
        <time>2021-08-15T07:04:14Z</time>
      </trkpt>
      <trkpt lat="45.86733" lon="3.09548">
        <ele>491</ele>
        <time>2021-08-15T07:04:15Z</time>
      </trkpt>
      <trkpt lat="45.86731" lon="3.0955">
        <ele>491</ele>
        <time>2021-08-15T07:04:16Z</time>
      </trkpt>
      <trkpt lat="45.86731" lon="3.09553">
        <ele>491</ele>
        <time>2021-08-15T07:04:17Z</time>
      </trkpt>
      <trkpt lat="45.86729" lon="3.09556">
        <ele>491</ele>
        <time>2021-08-15T07:04:18Z</time>
      </trkpt>
      <trkpt lat="45.86728" lon="3.09559">
        <ele>491</ele>
        <time>2021-08-15T07:04:19Z</time>
      </trkpt>
      <trkpt lat="45.86727" lon="3.09563">
        <ele>491</ele>
        <time>2021-08-15T07:04:20Z</time>
      </trkpt>
      <trkpt lat="45.86726" lon="3.09566">
        <ele>491</ele>
        <time>2021-08-15T07:04:21Z</time>
      </trkpt>
      <trkpt lat="45.86725" lon="3.09569">
        <ele>491</ele>
        <time>2021-08-15T07:04:22Z</time>
      </trkpt>
      <trkpt lat="45.86724" lon="3.09573">
        <ele>491</ele>
        <time>2021-08-15T07:04:23Z</time>
      </trkpt>
      <trkpt lat="45.86723" lon="3.09576">
        <ele>491</ele>
        <time>2021-08-15T07:04:24Z</time>
      </trkpt>
      <trkpt lat="45.86722" lon="3.0958">
        <ele>491</ele>
        <time>2021-08-15T07:04:25Z</time>
      </trkpt>
      <trkpt lat="45.86721" lon="3.09583">
        <ele>491</ele>
        <time>2021-08-15T07:04:26Z</time>
      </trkpt>
      <trkpt lat="45.8672" lon="3.09586">
        <ele>491</ele>
        <time>2021-08-15T07:04:27Z</time>
      </trkpt>
      <trkpt lat="45.86719" lon="3.0959">
        <ele>491</ele>
        <time>2021-08-15T07:04:28Z</time>
      </trkpt>
      <trkpt lat="45.86719" lon="3.09594">
        <ele>491</ele>
        <time>2021-08-15T07:04:29Z</time>
      </trkpt>
      <trkpt lat="45.86718" lon="3.09598">
        <ele>491</ele>
        <time>2021-08-15T07:04:30Z</time>
      </trkpt>
      <trkpt lat="45.86717" lon="3.09602">
        <ele>491</ele>
        <time>2021-08-15T07:04:31Z</time>
      </trkpt>
      <trkpt lat="45.86717" lon="3.09606">
        <ele>491</ele>
        <time>2021-08-15T07:04:32Z</time>
      </trkpt>
      <trkpt lat="45.86716" lon="3.0961">
        <ele>491</ele>
        <time>2021-08-15T07:04:33Z</time>
      </trkpt>
      <trkpt lat="45.86716" lon="3.09614">
        <ele>491</ele>
        <time>2021-08-15T07:04:34Z</time>
      </trkpt>
      <trkpt lat="45.86715" lon="3.09619">
        <ele>491</ele>
        <time>2021-08-15T07:04:35Z</time>
      </trkpt>
      <trkpt lat="45.86714" lon="3.09623">
        <ele>491</ele>
        <time>2021-08-15T07:04:37Z</time>
      </trkpt>
      <trkpt lat="45.86713" lon="3.09627">
        <ele>491</ele>
        <time>2021-08-15T07:04:38Z</time>
      </trkpt>
      <trkpt lat="45.86711" lon="3.09643">
        <ele>491</ele>
        <time>2021-08-15T07:04:39Z</time>
      </trkpt>
      <trkpt lat="45.86711" lon="3.09644">
        <ele>491</ele>
        <time>2021-08-15T07:04:40Z</time>
      </trkpt>
      <trkpt lat="45.8671" lon="3.09646">
        <ele>491</ele>
        <time>2021-08-15T07:04:41Z</time>
      </trkpt>
      <trkpt lat="45.8671" lon="3.09648">
        <ele>491</ele>
        <time>2021-08-15T07:04:42Z</time>
      </trkpt>
      <trkpt lat="45.8671" lon="3.09651">
        <ele>491</ele>
        <time>2021-08-15T07:04:43Z</time>
      </trkpt>
      <trkpt lat="45.8671" lon="3.09653">
        <ele>491</ele>
        <time>2021-08-15T07:04:44Z</time>
      </trkpt>
      <trkpt lat="45.8671" lon="3.09655">
        <ele>491</ele>
        <time>2021-08-15T07:04:45Z</time>
      </trkpt>
      <trkpt lat="45.8671" lon="3.09658">
        <ele>491</ele>
        <time>2021-08-15T07:04:46Z</time>
      </trkpt>
      <trkpt lat="45.86709" lon="3.0966">
        <ele>491</ele>
        <time>2021-08-15T07:04:47Z</time>
      </trkpt>
      <trkpt lat="45.86709" lon="3.09663">
        <ele>491</ele>
        <time>2021-08-15T07:04:48Z</time>
      </trkpt>
      <trkpt lat="45.86709" lon="3.09665">
        <ele>491</ele>
        <time>2021-08-15T07:04:49Z</time>
      </trkpt>
      <trkpt lat="45.86709" lon="3.09668">
        <ele>491</ele>
        <time>2021-08-15T07:04:50Z</time>
      </trkpt>
      <trkpt lat="45.86708" lon="3.09671">
        <ele>491</ele>
        <time>2021-08-15T07:04:51Z</time>
      </trkpt>
      <trkpt lat="45.86707" lon="3.09673">
        <ele>491</ele>
        <time>2021-08-15T07:04:52Z</time>
      </trkpt>
      <trkpt lat="45.86707" lon="3.09676">
        <ele>491</ele>
        <time>2021-08-15T07:04:53Z</time>
      </trkpt>
      <trkpt lat="45.86707" lon="3.09679">
        <ele>491</ele>
        <time>2021-08-15T07:04:54Z</time>
      </trkpt>
      <trkpt lat="45.86706" lon="3.09682">
        <ele>491</ele>
        <time>2021-08-15T07:04:55Z</time>
      </trkpt>
      <trkpt lat="45.86705" lon="3.09685">
        <ele>491</ele>
        <time>2021-08-15T07:04:56Z</time>
      </trkpt>
      <trkpt lat="45.86705" lon="3.09688">
        <ele>491</ele>
        <time>2021-08-15T07:04:57Z</time>
      </trkpt>
      <trkpt lat="45.86704" lon="3.09691">
        <ele>491</ele>
        <time>2021-08-15T07:04:58Z</time>
      </trkpt>
      <trkpt lat="45.86704" lon="3.09693">
        <ele>491</ele>
        <time>2021-08-15T07:04:59Z</time>
      </trkpt>
      <trkpt lat="45.86704" lon="3.09696">
        <ele>491</ele>
        <time>2021-08-15T07:05:00Z</time>
      </trkpt>
      <trkpt lat="45.86703" lon="3.09698">
        <ele>491</ele>
        <time>2021-08-15T07:05:01Z</time>
      </trkpt>
      <trkpt lat="45.86702" lon="3.097">
        <ele>491</ele>
        <time>2021-08-15T07:05:02Z</time>
      </trkpt>
      <trkpt lat="45.86702" lon="3.09703">
        <ele>491</ele>
        <time>2021-08-15T07:05:03Z</time>
      </trkpt>
      <trkpt lat="45.86702" lon="3.09705">
        <ele>491</ele>
        <time>2021-08-15T07:05:04Z</time>
      </trkpt>
      <trkpt lat="45.86701" lon="3.09708">
        <ele>491</ele>
        <time>2021-08-15T07:05:05Z</time>
      </trkpt>
      <trkpt lat="45.867" lon="3.0971">
        <ele>491</ele>
        <time>2021-08-15T07:05:06Z</time>
      </trkpt>
      <trkpt lat="45.867" lon="3.09713">
        <ele>491</ele>
        <time>2021-08-15T07:05:07Z</time>
      </trkpt>
      <trkpt lat="45.86699" lon="3.09716">
        <ele>491</ele>
        <time>2021-08-15T07:05:08Z</time>
      </trkpt>
      <trkpt lat="45.86698" lon="3.09718">
        <ele>491</ele>
        <time>2021-08-15T07:05:09Z</time>
      </trkpt>
      <trkpt lat="45.86698" lon="3.09721">
        <ele>491</ele>
        <time>2021-08-15T07:05:10Z</time>
      </trkpt>
      <trkpt lat="45.86697" lon="3.09724">
        <ele>491</ele>
        <time>2021-08-15T07:05:11Z</time>
      </trkpt>
      <trkpt lat="45.86697" lon="3.09726">
        <ele>491</ele>
        <time>2021-08-15T07:05:12Z</time>
      </trkpt>
      <trkpt lat="45.86697" lon="3.09729">
        <ele>491</ele>
        <time>2021-08-15T07:05:13Z</time>
      </trkpt>
      <trkpt lat="45.86696" lon="3.0973">
        <ele>491</ele>
        <time>2021-08-15T07:05:14Z</time>
      </trkpt>
      <trkpt lat="45.86696" lon="3.09732">
        <ele>491</ele>
        <time>2021-08-15T07:05:15Z</time>
      </trkpt>
      <trkpt lat="45.86696" lon="3.09734">
        <ele>491</ele>
        <time>2021-08-15T07:05:16Z</time>
      </trkpt>
      <trkpt lat="45.86696" lon="3.09736">
        <ele>491</ele>
        <time>2021-08-15T07:05:17Z</time>
      </trkpt>
      <trkpt lat="45.86695" lon="3.09738">
        <ele>491</ele>
        <time>2021-08-15T07:05:18Z</time>
      </trkpt>
      <trkpt lat="45.86695" lon="3.0974">
        <ele>491</ele>
        <time>2021-08-15T07:05:19Z</time>
      </trkpt>
      <trkpt lat="45.86695" lon="3.09742">
        <ele>491</ele>
        <time>2021-08-15T07:05:20Z</time>
      </trkpt>
      <trkpt lat="45.86695" lon="3.09744">
        <ele>491</ele>
        <time>2021-08-15T07:05:21Z</time>
      </trkpt>
      <trkpt lat="45.86695" lon="3.09746">
        <ele>491</ele>
        <time>2021-08-15T07:05:22Z</time>
      </trkpt>
      <trkpt lat="45.86695" lon="3.09748">
        <ele>491</ele>
        <time>2021-08-15T07:05:23Z</time>
      </trkpt>
      <trkpt lat="45.86695" lon="3.09749">
        <ele>491</ele>
        <time>2021-08-15T07:05:24Z</time>
      </trkpt>
      <trkpt lat="45.86695" lon="3.09751">
        <ele>491</ele>
        <time>2021-08-15T07:05:25Z</time>
      </trkpt>
      <trkpt lat="45.86695" lon="3.09753">
        <ele>491</ele>
        <time>2021-08-15T07:05:26Z</time>
      </trkpt>
      <trkpt lat="45.86695" lon="3.09754">
        <ele>491</ele>
        <time>2021-08-15T07:05:27Z</time>
      </trkpt>
      <trkpt lat="45.86695" lon="3.09756">
        <ele>491</ele>
        <time>2021-08-15T07:05:28Z</time>
      </trkpt>
      <trkpt lat="45.86696" lon="3.09758">
        <ele>491</ele>
        <time>2021-08-15T07:05:29Z</time>
      </trkpt>
      <trkpt lat="45.86696" lon="3.0976">
        <ele>491</ele>
        <time>2021-08-15T07:05:30Z</time>
      </trkpt>
      <trkpt lat="45.86696" lon="3.09762">
        <ele>491</ele>
        <time>2021-08-15T07:05:31Z</time>
      </trkpt>
      <trkpt lat="45.86696" lon="3.09764">
        <ele>491</ele>
        <time>2021-08-15T07:05:32Z</time>
      </trkpt>
      <trkpt lat="45.86697" lon="3.09766">
        <ele>491</ele>
        <time>2021-08-15T07:05:33Z</time>
      </trkpt>
      <trkpt lat="45.86697" lon="3.09768">
        <ele>491</ele>
        <time>2021-08-15T07:05:34Z</time>
      </trkpt>
      <trkpt lat="45.86697" lon="3.0977">
        <ele>491</ele>
        <time>2021-08-15T07:05:35Z</time>
      </trkpt>
      <trkpt lat="45.86697" lon="3.09772">
        <ele>491</ele>
        <time>2021-08-15T07:05:37Z</time>
      </trkpt>
      <trkpt lat="45.86696" lon="3.09779">
        <ele>491</ele>
        <time>2021-08-15T07:05:38Z</time>
      </trkpt>
      <trkpt lat="45.86696" lon="3.09779">
        <ele>491</ele>
        <time>2021-08-15T07:05:39Z</time>
      </trkpt>
      <trkpt lat="45.86696" lon="3.0978">
        <ele>491</ele>
        <time>2021-08-15T07:05:40Z</time>
      </trkpt>
      <trkpt lat="45.86697" lon="3.09781">
        <ele>491</ele>
        <time>2021-08-15T07:05:41Z</time>
      </trkpt>
      <trkpt lat="45.86697" lon="3.09783">
        <ele>491</ele>
        <time>2021-08-15T07:05:42Z</time>
      </trkpt>
      <trkpt lat="45.86697" lon="3.09785">
        <ele>491</ele>
        <time>2021-08-15T07:05:43Z</time>
      </trkpt>
      <trkpt lat="45.86697" lon="3.09786">
        <ele>491</ele>
        <time>2021-08-15T07:05:44Z</time>
      </trkpt>
      <trkpt lat="45.86697" lon="3.09788">
        <ele>491</ele>
        <time>2021-08-15T07:05:45Z</time>
      </trkpt>
      <trkpt lat="45.86697" lon="3.0979">
        <ele>491</ele>
        <time>2021-08-15T07:05:46Z</time>
      </trkpt>
      <trkpt lat="45.86697" lon="3.09792">
        <ele>491</ele>
        <time>2021-08-15T07:05:47Z</time>
      </trkpt>
      <trkpt lat="45.86697" lon="3.09794">
        <ele>491</ele>
        <time>2021-08-15T07:05:48Z</time>
      </trkpt>
      <trkpt lat="45.86698" lon="3.09795">
        <ele>491</ele>
        <time>2021-08-15T07:05:49Z</time>
      </trkpt>
      <trkpt lat="45.86698" lon="3.09797">
        <ele>491</ele>
        <time>2021-08-15T07:05:50Z</time>
      </trkpt>
      <trkpt lat="45.86698" lon="3.09799">
        <ele>491</ele>
        <time>2021-08-15T07:05:51Z</time>
      </trkpt>
      <trkpt lat="45.86698" lon="3.098">
        <ele>491</ele>
        <time>2021-08-15T07:05:52Z</time>
      </trkpt>
      <trkpt lat="45.86698" lon="3.09802">
        <ele>491</ele>
        <time>2021-08-15T07:05:53Z</time>
      </trkpt>
      <trkpt lat="45.86699" lon="3.09803">
        <ele>491</ele>
        <time>2021-08-15T07:05:54Z</time>
      </trkpt>
      <trkpt lat="45.86699" lon="3.09805">
        <ele>491</ele>
        <time>2021-08-15T07:05:55Z</time>
      </trkpt>
      <trkpt lat="45.86699" lon="3.09806">
        <ele>491</ele>
        <time>2021-08-15T07:05:56Z</time>
      </trkpt>
      <trkpt lat="45.86699" lon="3.09808">
        <ele>491</ele>
        <time>2021-08-15T07:05:57Z</time>
      </trkpt>
      <trkpt lat="45.86699" lon="3.09809">
        <ele>491</ele>
        <time>2021-08-15T07:05:58Z</time>
      </trkpt>
      <trkpt lat="45.86699" lon="3.09811">
        <ele>491</ele>
        <time>2021-08-15T07:05:59Z</time>
      </trkpt>
      <trkpt lat="45.867" lon="3.09812">
        <ele>491</ele>
        <time>2021-08-15T07:06:00Z</time>
      </trkpt>
      <trkpt lat="45.867" lon="3.09814">
        <ele>491</ele>
        <time>2021-08-15T07:06:01Z</time>
      </trkpt>
      <trkpt lat="45.867" lon="3.09816">
        <ele>491</ele>
        <time>2021-08-15T07:06:02Z</time>
      </trkpt>
      <trkpt lat="45.867" lon="3.09818">
        <ele>491</ele>
        <time>2021-08-15T07:06:03Z</time>
      </trkpt>
      <trkpt lat="45.86701" lon="3.0982">
        <ele>491</ele>
        <time>2021-08-15T07:06:04Z</time>
      </trkpt>
      <trkpt lat="45.86701" lon="3.09822">
        <ele>491</ele>
        <time>2021-08-15T07:06:05Z</time>
      </trkpt>
      <trkpt lat="45.86701" lon="3.09824">
        <ele>491</ele>
        <time>2021-08-15T07:06:06Z</time>
      </trkpt>
      <trkpt lat="45.86702" lon="3.09826">
        <ele>491</ele>
        <time>2021-08-15T07:06:07Z</time>
      </trkpt>
      <trkpt lat="45.86702" lon="3.09827">
        <ele>491</ele>
        <time>2021-08-15T07:06:08Z</time>
      </trkpt>
      <trkpt lat="45.86703" lon="3.09829">
        <ele>491</ele>
        <time>2021-08-15T07:06:09Z</time>
      </trkpt>
      <trkpt lat="45.86704" lon="3.09831">
        <ele>491</ele>
        <time>2021-08-15T07:06:10Z</time>
      </trkpt>
      <trkpt lat="45.86704" lon="3.09833">
        <ele>491</ele>
        <time>2021-08-15T07:06:11Z</time>
      </trkpt>
      <trkpt lat="45.86704" lon="3.09834">
        <ele>491</ele>
        <time>2021-08-15T07:06:12Z</time>
      </trkpt>
      <trkpt lat="45.86704" lon="3.09837">
        <ele>491</ele>
        <time>2021-08-15T07:06:13Z</time>
      </trkpt>
      <trkpt lat="45.86705" lon="3.09838">
        <ele>491</ele>
        <time>2021-08-15T07:06:14Z</time>
      </trkpt>
      <trkpt lat="45.86705" lon="3.0984">
        <ele>491</ele>
        <time>2021-08-15T07:06:15Z</time>
      </trkpt>
      <trkpt lat="45.86704" lon="3.09842">
        <ele>491</ele>
        <time>2021-08-15T07:06:16Z</time>
      </trkpt>
      <trkpt lat="45.86704" lon="3.09844">
        <ele>491</ele>
        <time>2021-08-15T07:06:17Z</time>
      </trkpt>
      <trkpt lat="45.86704" lon="3.09846">
        <ele>491</ele>
        <time>2021-08-15T07:06:18Z</time>
      </trkpt>
      <trkpt lat="45.86704" lon="3.09848">
        <ele>491</ele>
        <time>2021-08-15T07:06:19Z</time>
      </trkpt>
      <trkpt lat="45.86704" lon="3.0985">
        <ele>491</ele>
        <time>2021-08-15T07:06:20Z</time>
      </trkpt>
      <trkpt lat="45.86704" lon="3.09852">
        <ele>491</ele>
        <time>2021-08-15T07:06:21Z</time>
      </trkpt>
      <trkpt lat="45.86704" lon="3.09854">
        <ele>491</ele>
        <time>2021-08-15T07:06:22Z</time>
      </trkpt>
      <trkpt lat="45.86704" lon="3.09856">
        <ele>491</ele>
        <time>2021-08-15T07:06:23Z</time>
      </trkpt>
      <trkpt lat="45.86704" lon="3.09859">
        <ele>491</ele>
        <time>2021-08-15T07:06:24Z</time>
      </trkpt>
      <trkpt lat="45.86705" lon="3.09861">
        <ele>491</ele>
        <time>2021-08-15T07:06:25Z</time>
      </trkpt>
      <trkpt lat="45.86705" lon="3.09863">
        <ele>491</ele>
        <time>2021-08-15T07:06:26Z</time>
      </trkpt>
      <trkpt lat="45.86705" lon="3.09865">
        <ele>491</ele>
        <time>2021-08-15T07:06:27Z</time>
      </trkpt>
      <trkpt lat="45.86705" lon="3.09868">
        <ele>491</ele>
        <time>2021-08-15T07:06:28Z</time>
      </trkpt>
      <trkpt lat="45.86705" lon="3.0987">
        <ele>491</ele>
        <time>2021-08-15T07:06:29Z</time>
      </trkpt>
      <trkpt lat="45.86705" lon="3.09872">
        <ele>491</ele>
        <time>2021-08-15T07:06:30Z</time>
      </trkpt>
      <trkpt lat="45.86705" lon="3.09875">
        <ele>491</ele>
        <time>2021-08-15T07:06:31Z</time>
      </trkpt>
      <trkpt lat="45.86705" lon="3.09877">
        <ele>491</ele>
        <time>2021-08-15T07:06:32Z</time>
      </trkpt>
      <trkpt lat="45.86706" lon="3.09879">
        <ele>491</ele>
        <time>2021-08-15T07:06:33Z</time>
      </trkpt>
      <trkpt lat="45.86706" lon="3.09882">
        <ele>491</ele>
        <time>2021-08-15T07:06:34Z</time>
      </trkpt>
      <trkpt lat="45.86706" lon="3.09884">
        <ele>491</ele>
        <time>2021-08-15T07:06:35Z</time>
      </trkpt>
      <trkpt lat="45.86707" lon="3.09886">
        <ele>491</ele>
        <time>2021-08-15T07:06:37Z</time>
      </trkpt>
      <trkpt lat="45.86707" lon="3.09888">
        <ele>491</ele>
        <time>2021-08-15T07:06:38Z</time>
      </trkpt>
      <trkpt lat="45.86707" lon="3.09898">
        <ele>491</ele>
        <time>2021-08-15T07:06:39Z</time>
      </trkpt>
      <trkpt lat="45.86707" lon="3.09898">
        <ele>491</ele>
        <time>2021-08-15T07:06:40Z</time>
      </trkpt>
      <trkpt lat="45.86707" lon="3.09899">
        <ele>491</ele>
        <time>2021-08-15T07:06:41Z</time>
      </trkpt>
      <trkpt lat="45.86708" lon="3.09901">
        <ele>491</ele>
        <time>2021-08-15T07:06:42Z</time>
      </trkpt>
      <trkpt lat="45.86709" lon="3.09902">
        <ele>491</ele>
        <time>2021-08-15T07:06:43Z</time>
      </trkpt>
      <trkpt lat="45.86709" lon="3.09904">
        <ele>491</ele>
        <time>2021-08-15T07:06:44Z</time>
      </trkpt>
      <trkpt lat="45.8671" lon="3.09906">
        <ele>491</ele>
        <time>2021-08-15T07:06:45Z</time>
      </trkpt>
      <trkpt lat="45.8671" lon="3.09908">
        <ele>491</ele>
        <time>2021-08-15T07:06:46Z</time>
      </trkpt>
      <trkpt lat="45.8671" lon="3.0991">
        <ele>491</ele>
        <time>2021-08-15T07:06:47Z</time>
      </trkpt>
      <trkpt lat="45.86711" lon="3.09912">
        <ele>491</ele>
        <time>2021-08-15T07:06:48Z</time>
      </trkpt>
      <trkpt lat="45.86712" lon="3.09914">
        <ele>491</ele>
        <time>2021-08-15T07:06:49Z</time>
      </trkpt>
      <trkpt lat="45.86712" lon="3.09916">
        <ele>491</ele>
        <time>2021-08-15T07:06:50Z</time>
      </trkpt>
      <trkpt lat="45.86713" lon="3.09918">
        <ele>491</ele>
        <time>2021-08-15T07:06:51Z</time>
      </trkpt>
      <trkpt lat="45.86713" lon="3.0992">
        <ele>491</ele>
        <time>2021-08-15T07:06:52Z</time>
      </trkpt>
      <trkpt lat="45.86714" lon="3.09922">
        <ele>491</ele>
        <time>2021-08-15T07:06:53Z</time>
      </trkpt>
      <trkpt lat="45.86715" lon="3.09924">
        <ele>491</ele>
        <time>2021-08-15T07:06:54Z</time>
      </trkpt>
      <trkpt lat="45.86716" lon="3.09926">
        <ele>491</ele>
        <time>2021-08-15T07:06:55Z</time>
      </trkpt>
      <trkpt lat="45.86716" lon="3.09927">
        <ele>491</ele>
        <time>2021-08-15T07:06:56Z</time>
      </trkpt>
      <trkpt lat="45.86717" lon="3.09929">
        <ele>491</ele>
        <time>2021-08-15T07:06:57Z</time>
      </trkpt>
      <trkpt lat="45.86717" lon="3.09931">
        <ele>491</ele>
        <time>2021-08-15T07:06:58Z</time>
      </trkpt>
      <trkpt lat="45.86717" lon="3.09932">
        <ele>491</ele>
        <time>2021-08-15T07:06:59Z</time>
      </trkpt>
      <trkpt lat="45.86717" lon="3.09934">
        <ele>491</ele>
        <time>2021-08-15T07:07:00Z</time>
      </trkpt>
      <trkpt lat="45.86717" lon="3.09936">
        <ele>491</ele>
        <time>2021-08-15T07:07:01Z</time>
      </trkpt>
      <trkpt lat="45.86718" lon="3.09939">
        <ele>491</ele>
        <time>2021-08-15T07:07:02Z</time>
      </trkpt>
      <trkpt lat="45.86718" lon="3.09941">
        <ele>491</ele>
        <time>2021-08-15T07:07:03Z</time>
      </trkpt>
      <trkpt lat="45.86718" lon="3.09943">
        <ele>491</ele>
        <time>2021-08-15T07:07:04Z</time>
      </trkpt>
      <trkpt lat="45.86718" lon="3.09945">
        <ele>491</ele>
        <time>2021-08-15T07:07:05Z</time>
      </trkpt>
      <trkpt lat="45.86719" lon="3.09947">
        <ele>491</ele>
        <time>2021-08-15T07:07:06Z</time>
      </trkpt>
      <trkpt lat="45.8672" lon="3.09949">
        <ele>491</ele>
        <time>2021-08-15T07:07:07Z</time>
      </trkpt>
      <trkpt lat="45.8672" lon="3.09951">
        <ele>491</ele>
        <time>2021-08-15T07:07:08Z</time>
      </trkpt>
      <trkpt lat="45.86721" lon="3.09953">
        <ele>491</ele>
        <time>2021-08-15T07:07:09Z</time>
      </trkpt>
      <trkpt lat="45.86722" lon="3.09955">
        <ele>491</ele>
        <time>2021-08-15T07:07:10Z</time>
      </trkpt>
      <trkpt lat="45.86722" lon="3.09957">
        <ele>491</ele>
        <time>2021-08-15T07:07:11Z</time>
      </trkpt>
      <trkpt lat="45.86723" lon="3.09959">
        <ele>491</ele>
        <time>2021-08-15T07:07:12Z</time>
      </trkpt>
      <trkpt lat="45.86725" lon="3.09961">
        <ele>491</ele>
        <time>2021-08-15T07:07:13Z</time>
      </trkpt>
      <trkpt lat="45.86725" lon="3.09963">
        <ele>491</ele>
        <time>2021-08-15T07:07:14Z</time>
      </trkpt>
      <trkpt lat="45.86727" lon="3.09965">
        <ele>491</ele>
        <time>2021-08-15T07:07:15Z</time>
      </trkpt>
      <trkpt lat="45.86728" lon="3.09967">
        <ele>491</ele>
        <time>2021-08-15T07:07:16Z</time>
      </trkpt>
      <trkpt lat="45.86729" lon="3.0997">
        <ele>491</ele>
        <time>2021-08-15T07:07:17Z</time>
      </trkpt>
      <trkpt lat="45.86731" lon="3.09972">
        <ele>491</ele>
        <time>2021-08-15T07:07:18Z</time>
      </trkpt>
      <trkpt lat="45.86731" lon="3.09975">
        <ele>491</ele>
        <time>2021-08-15T07:07:19Z</time>
      </trkpt>
      <trkpt lat="45.86732" lon="3.09977">
        <ele>491</ele>
        <time>2021-08-15T07:07:20Z</time>
      </trkpt>
      <trkpt lat="45.86733" lon="3.0998">
        <ele>491</ele>
        <time>2021-08-15T07:07:21Z</time>
      </trkpt>
      <trkpt lat="45.86734" lon="3.09982">
        <ele>491</ele>
        <time>2021-08-15T07:07:22Z</time>
      </trkpt>
      <trkpt lat="45.86734" lon="3.09984">
        <ele>491</ele>
        <time>2021-08-15T07:07:23Z</time>
      </trkpt>
      <trkpt lat="45.86735" lon="3.09987">
        <ele>491</ele>
        <time>2021-08-15T07:07:24Z</time>
      </trkpt>
      <trkpt lat="45.86736" lon="3.09989">
        <ele>491</ele>
        <time>2021-08-15T07:07:25Z</time>
      </trkpt>
      <trkpt lat="45.86736" lon="3.09991">
        <ele>491</ele>
        <time>2021-08-15T07:07:26Z</time>
      </trkpt>
      <trkpt lat="45.86737" lon="3.09993">
        <ele>491</ele>
        <time>2021-08-15T07:07:27Z</time>
      </trkpt>
      <trkpt lat="45.86737" lon="3.09996">
        <ele>491</ele>
        <time>2021-08-15T07:07:28Z</time>
      </trkpt>
      <trkpt lat="45.86738" lon="3.09998">
        <ele>491</ele>
        <time>2021-08-15T07:07:29Z</time>
      </trkpt>
      <trkpt lat="45.86739" lon="3.1">
        <ele>491</ele>
        <time>2021-08-15T07:07:30Z</time>
      </trkpt>
      <trkpt lat="45.86739" lon="3.10002">
        <ele>491</ele>
        <time>2021-08-15T07:07:31Z</time>
      </trkpt>
      <trkpt lat="45.8674" lon="3.10004">
        <ele>491</ele>
        <time>2021-08-15T07:07:32Z</time>
      </trkpt>
      <trkpt lat="45.86741" lon="3.10006">
        <ele>491</ele>
        <time>2021-08-15T07:07:33Z</time>
      </trkpt>
      <trkpt lat="45.86742" lon="3.10008">
        <ele>491</ele>
        <time>2021-08-15T07:07:34Z</time>
      </trkpt>
      <trkpt lat="45.86742" lon="3.1001">
        <ele>491</ele>
        <time>2021-08-15T07:07:35Z</time>
      </trkpt>
      <trkpt lat="45.86743" lon="3.10012">
        <ele>491</ele>
        <time>2021-08-15T07:07:36Z</time>
      </trkpt>
      <trkpt lat="45.86744" lon="3.10014">
        <ele>491</ele>
        <time>2021-08-15T07:07:37Z</time>
      </trkpt>
      <trkpt lat="45.86746" lon="3.10016">
        <ele>491</ele>
        <time>2021-08-15T07:07:38Z</time>
      </trkpt>
      <trkpt lat="45.86746" lon="3.10018">
        <ele>491</ele>
        <time>2021-08-15T07:07:39Z</time>
      </trkpt>
      <trkpt lat="45.86746" lon="3.1002">
        <ele>491</ele>
        <time>2021-08-15T07:07:40Z</time>
      </trkpt>
      <trkpt lat="45.86747" lon="3.10022">
        <ele>491</ele>
        <time>2021-08-15T07:07:41Z</time>
      </trkpt>
      <trkpt lat="45.86749" lon="3.10024">
        <ele>491</ele>
        <time>2021-08-15T07:07:42Z</time>
      </trkpt>
      <trkpt lat="45.8675" lon="3.10026">
        <ele>491</ele>
        <time>2021-08-15T07:07:43Z</time>
      </trkpt>
      <trkpt lat="45.86751" lon="3.10028">
        <ele>491</ele>
        <time>2021-08-15T07:07:44Z</time>
      </trkpt>
      <trkpt lat="45.86752" lon="3.1003">
        <ele>491</ele>
        <time>2021-08-15T07:07:45Z</time>
      </trkpt>
      <trkpt lat="45.86753" lon="3.10032">
        <ele>491</ele>
        <time>2021-08-15T07:07:46Z</time>
      </trkpt>
      <trkpt lat="45.86754" lon="3.10034">
        <ele>491</ele>
        <time>2021-08-15T07:07:47Z</time>
      </trkpt>
      <trkpt lat="45.86755" lon="3.10036">
        <ele>491</ele>
        <time>2021-08-15T07:07:48Z</time>
      </trkpt>
      <trkpt lat="45.86756" lon="3.10038">
        <ele>491</ele>
        <time>2021-08-15T07:07:49Z</time>
      </trkpt>
      <trkpt lat="45.86757" lon="3.1004">
        <ele>491</ele>
        <time>2021-08-15T07:07:50Z</time>
      </trkpt>
      <trkpt lat="45.86759" lon="3.10042">
        <ele>491</ele>
        <time>2021-08-15T07:07:51Z</time>
      </trkpt>
      <trkpt lat="45.8676" lon="3.10044">
        <ele>491</ele>
        <time>2021-08-15T07:07:52Z</time>
      </trkpt>
      <trkpt lat="45.86761" lon="3.10046">
        <ele>491</ele>
        <time>2021-08-15T07:07:52Z</time>
      </trkpt>
      <trkpt lat="45.86762" lon="3.10048">
        <ele>491</ele>
        <time>2021-08-15T07:07:53Z</time>
      </trkpt>
      <trkpt lat="45.86763" lon="3.1005">
        <ele>491</ele>
        <time>2021-08-15T07:07:54Z</time>
      </trkpt>
      <trkpt lat="45.86764" lon="3.10052">
        <ele>491</ele>
        <time>2021-08-15T07:07:55Z</time>
      </trkpt>
      <trkpt lat="45.86764" lon="3.10054">
        <ele>491</ele>
        <time>2021-08-15T07:07:56Z</time>
      </trkpt>
      <trkpt lat="45.86765" lon="3.10056">
        <ele>491</ele>
        <time>2021-08-15T07:07:57Z</time>
      </trkpt>
      <trkpt lat="45.86766" lon="3.10058">
        <ele>491</ele>
        <time>2021-08-15T07:07:58Z</time>
      </trkpt>
      <trkpt lat="45.86768" lon="3.10061">
        <ele>491</ele>
        <time>2021-08-15T07:07:59Z</time>
      </trkpt>
      <trkpt lat="45.86769" lon="3.10064">
        <ele>491</ele>
        <time>2021-08-15T07:08:00Z</time>
      </trkpt>
      <trkpt lat="45.8677" lon="3.10066">
        <ele>491</ele>
        <time>2021-08-15T07:08:01Z</time>
      </trkpt>
      <trkpt lat="45.8677" lon="3.10069">
        <ele>491</ele>
        <time>2021-08-15T07:08:02Z</time>
      </trkpt>
      <trkpt lat="45.86771" lon="3.10071">
        <ele>491</ele>
        <time>2021-08-15T07:08:03Z</time>
      </trkpt>
      <trkpt lat="45.86773" lon="3.10073">
        <ele>491</ele>
        <time>2021-08-15T07:08:04Z</time>
      </trkpt>
      <trkpt lat="45.86774" lon="3.10075">
        <ele>491</ele>
        <time>2021-08-15T07:08:05Z</time>
      </trkpt>
      <trkpt lat="45.86774" lon="3.10077">
        <ele>491</ele>
        <time>2021-08-15T07:08:06Z</time>
      </trkpt>
      <trkpt lat="45.86776" lon="3.10079">
        <ele>491</ele>
        <time>2021-08-15T07:08:07Z</time>
      </trkpt>
      <trkpt lat="45.86777" lon="3.10081">
        <ele>491</ele>
        <time>2021-08-15T07:08:08Z</time>
      </trkpt>
      <trkpt lat="45.86778" lon="3.10082">
        <ele>491</ele>
        <time>2021-08-15T07:08:09Z</time>
      </trkpt>
      <trkpt lat="45.86779" lon="3.10084">
        <ele>491</ele>
        <time>2021-08-15T07:08:10Z</time>
      </trkpt>
      <trkpt lat="45.8678" lon="3.10086">
        <ele>491</ele>
        <time>2021-08-15T07:08:11Z</time>
      </trkpt>
      <trkpt lat="45.86781" lon="3.10087">
        <ele>491</ele>
        <time>2021-08-15T07:08:12Z</time>
      </trkpt>
      <trkpt lat="45.86782" lon="3.10089">
        <ele>491</ele>
        <time>2021-08-15T07:08:13Z</time>
      </trkpt>
      <trkpt lat="45.86784" lon="3.1009">
        <ele>491</ele>
        <time>2021-08-15T07:08:14Z</time>
      </trkpt>
      <trkpt lat="45.86785" lon="3.10092">
        <ele>491</ele>
        <time>2021-08-15T07:08:15Z</time>
      </trkpt>
      <trkpt lat="45.86785" lon="3.10094">
        <ele>491</ele>
        <time>2021-08-15T07:08:16Z</time>
      </trkpt>
      <trkpt lat="45.86786" lon="3.10095">
        <ele>491</ele>
        <time>2021-08-15T07:08:17Z</time>
      </trkpt>
      <trkpt lat="45.86787" lon="3.10097">
        <ele>491</ele>
        <time>2021-08-15T07:08:18Z</time>
      </trkpt>
      <trkpt lat="45.86788" lon="3.10099">
        <ele>491</ele>
        <time>2021-08-15T07:08:19Z</time>
      </trkpt>
      <trkpt lat="45.86789" lon="3.101">
        <ele>491</ele>
        <time>2021-08-15T07:08:20Z</time>
      </trkpt>
      <trkpt lat="45.86791" lon="3.10102">
        <ele>491</ele>
        <time>2021-08-15T07:08:21Z</time>
      </trkpt>
      <trkpt lat="45.86791" lon="3.10103">
        <ele>491</ele>
        <time>2021-08-15T07:08:22Z</time>
      </trkpt>
      <trkpt lat="45.86792" lon="3.10105">
        <ele>491</ele>
        <time>2021-08-15T07:08:23Z</time>
      </trkpt>
      <trkpt lat="45.86793" lon="3.10107">
        <ele>491</ele>
        <time>2021-08-15T07:08:24Z</time>
      </trkpt>
      <trkpt lat="45.86794" lon="3.10109">
        <ele>491</ele>
        <time>2021-08-15T07:08:25Z</time>
      </trkpt>
      <trkpt lat="45.86795" lon="3.10111">
        <ele>491</ele>
        <time>2021-08-15T07:08:26Z</time>
      </trkpt>
      <trkpt lat="45.86795" lon="3.10113">
        <ele>491</ele>
        <time>2021-08-15T07:08:27Z</time>
      </trkpt>
      <trkpt lat="45.86797" lon="3.10115">
        <ele>491</ele>
        <time>2021-08-15T07:08:28Z</time>
      </trkpt>
      <trkpt lat="45.86798" lon="3.10117">
        <ele>491</ele>
        <time>2021-08-15T07:08:29Z</time>
      </trkpt>
      <trkpt lat="45.86799" lon="3.10118">
        <ele>491</ele>
        <time>2021-08-15T07:08:30Z</time>
      </trkpt>
      <trkpt lat="45.868" lon="3.1012">
        <ele>491</ele>
        <time>2021-08-15T07:08:31Z</time>
      </trkpt>
      <trkpt lat="45.86801" lon="3.10123">
        <ele>491</ele>
        <time>2021-08-15T07:08:32Z</time>
      </trkpt>
      <trkpt lat="45.86802" lon="3.10124">
        <ele>491</ele>
        <time>2021-08-15T07:08:33Z</time>
      </trkpt>
      <trkpt lat="45.86803" lon="3.10126">
        <ele>491</ele>
        <time>2021-08-15T07:08:34Z</time>
      </trkpt>
      <trkpt lat="45.86804" lon="3.10128">
        <ele>491</ele>
        <time>2021-08-15T07:08:35Z</time>
      </trkpt>
      <trkpt lat="45.86805" lon="3.1013">
        <ele>491</ele>
        <time>2021-08-15T07:08:37Z</time>
      </trkpt>
      <trkpt lat="45.86806" lon="3.10131">
        <ele>491</ele>
        <time>2021-08-15T07:08:38Z</time>
      </trkpt>
      <trkpt lat="45.86809" lon="3.10138">
        <ele>491</ele>
        <time>2021-08-15T07:08:39Z</time>
      </trkpt>
      <trkpt lat="45.86809" lon="3.10139">
        <ele>491</ele>
        <time>2021-08-15T07:08:40Z</time>
      </trkpt>
      <trkpt lat="45.86809" lon="3.1014">
        <ele>491</ele>
        <time>2021-08-15T07:08:41Z</time>
      </trkpt>
      <trkpt lat="45.8681" lon="3.10141">
        <ele>491</ele>
        <time>2021-08-15T07:08:42Z</time>
      </trkpt>
      <trkpt lat="45.8681" lon="3.10142">
        <ele>491</ele>
        <time>2021-08-15T07:08:43Z</time>
      </trkpt>
      <trkpt lat="45.86811" lon="3.10144">
        <ele>491</ele>
        <time>2021-08-15T07:08:44Z</time>
      </trkpt>
      <trkpt lat="45.86811" lon="3.10146">
        <ele>491</ele>
        <time>2021-08-15T07:08:45Z</time>
      </trkpt>
      <trkpt lat="45.86812" lon="3.10148">
        <ele>491</ele>
        <time>2021-08-15T07:08:46Z</time>
      </trkpt>
      <trkpt lat="45.86812" lon="3.1015">
        <ele>491</ele>
        <time>2021-08-15T07:08:47Z</time>
      </trkpt>
      <trkpt lat="45.86813" lon="3.10152">
        <ele>491</ele>
        <time>2021-08-15T07:08:48Z</time>
      </trkpt>
      <trkpt lat="45.86813" lon="3.10154">
        <ele>491</ele>
        <time>2021-08-15T07:08:49Z</time>
      </trkpt>
      <trkpt lat="45.86814" lon="3.10156">
        <ele>491</ele>
        <time>2021-08-15T07:08:50Z</time>
      </trkpt>
      <trkpt lat="45.86815" lon="3.10158">
        <ele>491</ele>
        <time>2021-08-15T07:08:51Z</time>
      </trkpt>
      <trkpt lat="45.86815" lon="3.1016">
        <ele>491</ele>
        <time>2021-08-15T07:08:52Z</time>
      </trkpt>
      <trkpt lat="45.86816" lon="3.10161">
        <ele>491</ele>
        <time>2021-08-15T07:08:53Z</time>
      </trkpt>
      <trkpt lat="45.86816" lon="3.10163">
        <ele>491</ele>
        <time>2021-08-15T07:08:54Z</time>
      </trkpt>
      <trkpt lat="45.86816" lon="3.10165">
        <ele>491</ele>
        <time>2021-08-15T07:08:55Z</time>
      </trkpt>
      <trkpt lat="45.86817" lon="3.10166">
        <ele>491</ele>
        <time>2021-08-15T07:08:56Z</time>
      </trkpt>
      <trkpt lat="45.86818" lon="3.10168">
        <ele>491</ele>
        <time>2021-08-15T07:08:57Z</time>
      </trkpt>
      <trkpt lat="45.86818" lon="3.1017">
        <ele>491</ele>
        <time>2021-08-15T07:08:58Z</time>
      </trkpt>
      <trkpt lat="45.86819" lon="3.10172">
        <ele>491</ele>
        <time>2021-08-15T07:08:59Z</time>
      </trkpt>
      <trkpt lat="45.8682" lon="3.10174">
        <ele>491</ele>
        <time>2021-08-15T07:09:00Z</time>
      </trkpt>
      <trkpt lat="45.8682" lon="3.10176">
        <ele>491</ele>
        <time>2021-08-15T07:09:01Z</time>
      </trkpt>
      <trkpt lat="45.86821" lon="3.10179">
        <ele>491</ele>
        <time>2021-08-15T07:09:02Z</time>
      </trkpt>
      <trkpt lat="45.86821" lon="3.10181">
        <ele>491</ele>
        <time>2021-08-15T07:09:03Z</time>
      </trkpt>
      <trkpt lat="45.86822" lon="3.10183">
        <ele>491</ele>
        <time>2021-08-15T07:09:04Z</time>
      </trkpt>
      <trkpt lat="45.86822" lon="3.10185">
        <ele>491</ele>
        <time>2021-08-15T07:09:05Z</time>
      </trkpt>
      <trkpt lat="45.86823" lon="3.10188">
        <ele>491</ele>
        <time>2021-08-15T07:09:06Z</time>
      </trkpt>
      <trkpt lat="45.86824" lon="3.10191">
        <ele>491</ele>
        <time>2021-08-15T07:09:07Z</time>
      </trkpt>
      <trkpt lat="45.86825" lon="3.10194">
        <ele>491</ele>
        <time>2021-08-15T07:09:08Z</time>
      </trkpt>
      <trkpt lat="45.86825" lon="3.10197">
        <ele>491</ele>
        <time>2021-08-15T07:09:10Z</time>
      </trkpt>
      <trkpt lat="45.86829" lon="3.10208">
        <ele>491</ele>
        <time>2021-08-15T07:09:11Z</time>
      </trkpt>
      <trkpt lat="45.86829" lon="3.10208">
        <ele>491</ele>
        <time>2021-08-15T07:09:12Z</time>
      </trkpt>
      <trkpt lat="45.8683" lon="3.1021">
        <ele>491</ele>
        <time>2021-08-15T07:09:13Z</time>
      </trkpt>
      <trkpt lat="45.86831" lon="3.10212">
        <ele>491</ele>
        <time>2021-08-15T07:09:14Z</time>
      </trkpt>
      <trkpt lat="45.86831" lon="3.10214">
        <ele>491</ele>
        <time>2021-08-15T07:09:15Z</time>
      </trkpt>
      <trkpt lat="45.86832" lon="3.10216">
        <ele>491</ele>
        <time>2021-08-15T07:09:16Z</time>
      </trkpt>
      <trkpt lat="45.86833" lon="3.10218">
        <ele>491</ele>
        <time>2021-08-15T07:09:17Z</time>
      </trkpt>
      <trkpt lat="45.86834" lon="3.1022">
        <ele>491</ele>
        <time>2021-08-15T07:09:18Z</time>
      </trkpt>
      <trkpt lat="45.86834" lon="3.10223">
        <ele>491</ele>
        <time>2021-08-15T07:09:19Z</time>
      </trkpt>
      <trkpt lat="45.86836" lon="3.10225">
        <ele>491</ele>
        <time>2021-08-15T07:09:20Z</time>
      </trkpt>
      <trkpt lat="45.86837" lon="3.10228">
        <ele>491</ele>
        <time>2021-08-15T07:09:21Z</time>
      </trkpt>
      <trkpt lat="45.86839" lon="3.1023">
        <ele>491</ele>
        <time>2021-08-15T07:09:22Z</time>
      </trkpt>
      <trkpt lat="45.8684" lon="3.10233">
        <ele>491</ele>
        <time>2021-08-15T07:09:23Z</time>
      </trkpt>
      <trkpt lat="45.86841" lon="3.10235">
        <ele>491</ele>
        <time>2021-08-15T07:09:24Z</time>
      </trkpt>
      <trkpt lat="45.86843" lon="3.10237">
        <ele>491</ele>
        <time>2021-08-15T07:09:25Z</time>
      </trkpt>
      <trkpt lat="45.86844" lon="3.10239">
        <ele>491</ele>
        <time>2021-08-15T07:09:26Z</time>
      </trkpt>
      <trkpt lat="45.86846" lon="3.1024">
        <ele>491</ele>
        <time>2021-08-15T07:09:27Z</time>
      </trkpt>
      <trkpt lat="45.86847" lon="3.10242">
        <ele>491</ele>
        <time>2021-08-15T07:09:28Z</time>
      </trkpt>
      <trkpt lat="45.86849" lon="3.10244">
        <ele>491</ele>
        <time>2021-08-15T07:09:29Z</time>
      </trkpt>
      <trkpt lat="45.8685" lon="3.10247">
        <ele>491</ele>
        <time>2021-08-15T07:09:30Z</time>
      </trkpt>
      <trkpt lat="45.86852" lon="3.10249">
        <ele>491</ele>
        <time>2021-08-15T07:09:31Z</time>
      </trkpt>
      <trkpt lat="45.86853" lon="3.10251">
        <ele>491</ele>
        <time>2021-08-15T07:09:32Z</time>
      </trkpt>
      <trkpt lat="45.86855" lon="3.10253">
        <ele>491</ele>
        <time>2021-08-15T07:09:33Z</time>
      </trkpt>
      <trkpt lat="45.86855" lon="3.10256">
        <ele>491</ele>
        <time>2021-08-15T07:09:34Z</time>
      </trkpt>
      <trkpt lat="45.86857" lon="3.10257">
        <ele>491</ele>
        <time>2021-08-15T07:09:35Z</time>
      </trkpt>
      <trkpt lat="45.86858" lon="3.10259">
        <ele>491</ele>
        <time>2021-08-15T07:09:37Z</time>
      </trkpt>
      <trkpt lat="45.86861" lon="3.10268">
        <ele>491</ele>
        <time>2021-08-15T07:09:38Z</time>
      </trkpt>
      <trkpt lat="45.86862" lon="3.10268">
        <ele>491</ele>
        <time>2021-08-15T07:09:39Z</time>
      </trkpt>
      <trkpt lat="45.86863" lon="3.1027">
        <ele>491</ele>
        <time>2021-08-15T07:09:40Z</time>
      </trkpt>
      <trkpt lat="45.86863" lon="3.10271">
        <ele>491</ele>
        <time>2021-08-15T07:09:41Z</time>
      </trkpt>
      <trkpt lat="45.86864" lon="3.10273">
        <ele>491</ele>
        <time>2021-08-15T07:09:42Z</time>
      </trkpt>
      <trkpt lat="45.86865" lon="3.10275">
        <ele>491</ele>
        <time>2021-08-15T07:09:43Z</time>
      </trkpt>
      <trkpt lat="45.86866" lon="3.10276">
        <ele>491</ele>
        <time>2021-08-15T07:09:44Z</time>
      </trkpt>
      <trkpt lat="45.86867" lon="3.10277">
        <ele>491</ele>
        <time>2021-08-15T07:09:45Z</time>
      </trkpt>
      <trkpt lat="45.86867" lon="3.10278">
        <ele>491</ele>
        <time>2021-08-15T07:09:46Z</time>
      </trkpt>
      <trkpt lat="45.86868" lon="3.10279">
        <ele>491</ele>
        <time>2021-08-15T07:09:47Z</time>
      </trkpt>
      <trkpt lat="45.8687" lon="3.10281">
        <ele>491</ele>
        <time>2021-08-15T07:09:48Z</time>
      </trkpt>
      <trkpt lat="45.86871" lon="3.10282">
        <ele>491</ele>
        <time>2021-08-15T07:09:49Z</time>
      </trkpt>
      <trkpt lat="45.86871" lon="3.10283">
        <ele>491</ele>
        <time>2021-08-15T07:09:50Z</time>
      </trkpt>
      <trkpt lat="45.86873" lon="3.10285">
        <ele>491</ele>
        <time>2021-08-15T07:09:51Z</time>
      </trkpt>
      <trkpt lat="45.86873" lon="3.10287">
        <ele>491</ele>
        <time>2021-08-15T07:09:52Z</time>
      </trkpt>
      <trkpt lat="45.86874" lon="3.10289">
        <ele>491</ele>
        <time>2021-08-15T07:09:53Z</time>
      </trkpt>
      <trkpt lat="45.86875" lon="3.1029">
        <ele>491</ele>
        <time>2021-08-15T07:09:54Z</time>
      </trkpt>
      <trkpt lat="45.86876" lon="3.10292">
        <ele>491</ele>
        <time>2021-08-15T07:09:55Z</time>
      </trkpt>
      <trkpt lat="45.86877" lon="3.10294">
        <ele>491</ele>
        <time>2021-08-15T07:09:56Z</time>
      </trkpt>
      <trkpt lat="45.86879" lon="3.10295">
        <ele>491</ele>
        <time>2021-08-15T07:09:57Z</time>
      </trkpt>
      <trkpt lat="45.86879" lon="3.10296">
        <ele>491</ele>
        <time>2021-08-15T07:09:58Z</time>
      </trkpt>
      <trkpt lat="45.86881" lon="3.10298">
        <ele>491</ele>
        <time>2021-08-15T07:09:59Z</time>
      </trkpt>
      <trkpt lat="45.86882" lon="3.10299">
        <ele>491</ele>
        <time>2021-08-15T07:10:00Z</time>
      </trkpt>
      <trkpt lat="45.86882" lon="3.10301">
        <ele>491</ele>
        <time>2021-08-15T07:10:01Z</time>
      </trkpt>
      <trkpt lat="45.86883" lon="3.10303">
        <ele>491</ele>
        <time>2021-08-15T07:10:02Z</time>
      </trkpt>
      <trkpt lat="45.86884" lon="3.10305">
        <ele>491</ele>
        <time>2021-08-15T07:10:03Z</time>
      </trkpt>
      <trkpt lat="45.86885" lon="3.10307">
        <ele>491</ele>
        <time>2021-08-15T07:10:04Z</time>
      </trkpt>
      <trkpt lat="45.86886" lon="3.10309">
        <ele>491</ele>
        <time>2021-08-15T07:10:05Z</time>
      </trkpt>
      <trkpt lat="45.86887" lon="3.10311">
        <ele>491</ele>
        <time>2021-08-15T07:10:06Z</time>
      </trkpt>
      <trkpt lat="45.86888" lon="3.10312">
        <ele>491</ele>
        <time>2021-08-15T07:10:07Z</time>
      </trkpt>
      <trkpt lat="45.86889" lon="3.10314">
        <ele>491</ele>
        <time>2021-08-15T07:10:08Z</time>
      </trkpt>
      <trkpt lat="45.8689" lon="3.10316">
        <ele>491</ele>
        <time>2021-08-15T07:10:09Z</time>
      </trkpt>
      <trkpt lat="45.86891" lon="3.10318">
        <ele>491</ele>
        <time>2021-08-15T07:10:10Z</time>
      </trkpt>
      <trkpt lat="45.86892" lon="3.1032">
        <ele>491</ele>
        <time>2021-08-15T07:10:11Z</time>
      </trkpt>
      <trkpt lat="45.86892" lon="3.10321">
        <ele>491</ele>
        <time>2021-08-15T07:10:12Z</time>
      </trkpt>
      <trkpt lat="45.86894" lon="3.10323">
        <ele>491</ele>
        <time>2021-08-15T07:10:13Z</time>
      </trkpt>
      <trkpt lat="45.86894" lon="3.10324">
        <ele>491</ele>
        <time>2021-08-15T07:10:14Z</time>
      </trkpt>
      <trkpt lat="45.86895" lon="3.10326">
        <ele>491</ele>
        <time>2021-08-15T07:10:15Z</time>
      </trkpt>
      <trkpt lat="45.86897" lon="3.10327">
        <ele>491</ele>
        <time>2021-08-15T07:10:16Z</time>
      </trkpt>
      <trkpt lat="45.86897" lon="3.10328">
        <ele>491</ele>
        <time>2021-08-15T07:10:17Z</time>
      </trkpt>
      <trkpt lat="45.86898" lon="3.1033">
        <ele>491</ele>
        <time>2021-08-15T07:10:18Z</time>
      </trkpt>
      <trkpt lat="45.86899" lon="3.1033">
        <ele>491</ele>
        <time>2021-08-15T07:10:19Z</time>
      </trkpt>
      <trkpt lat="45.869" lon="3.10331">
        <ele>491</ele>
        <time>2021-08-15T07:10:20Z</time>
      </trkpt>
      <trkpt lat="45.86901" lon="3.10332">
        <ele>491</ele>
        <time>2021-08-15T07:10:21Z</time>
      </trkpt>
      <trkpt lat="45.86902" lon="3.10334">
        <ele>491</ele>
        <time>2021-08-15T07:10:22Z</time>
      </trkpt>
      <trkpt lat="45.86903" lon="3.10335">
        <ele>491</ele>
        <time>2021-08-15T07:10:23Z</time>
      </trkpt>
      <trkpt lat="45.86904" lon="3.10336">
        <ele>491</ele>
        <time>2021-08-15T07:10:24Z</time>
      </trkpt>
      <trkpt lat="45.86905" lon="3.10337">
        <ele>491</ele>
        <time>2021-08-15T07:10:25Z</time>
      </trkpt>
      <trkpt lat="45.86906" lon="3.10339">
        <ele>491</ele>
        <time>2021-08-15T07:10:26Z</time>
      </trkpt>
      <trkpt lat="45.86907" lon="3.1034">
        <ele>491</ele>
        <time>2021-08-15T07:10:27Z</time>
      </trkpt>
      <trkpt lat="45.86908" lon="3.10341">
        <ele>491</ele>
        <time>2021-08-15T07:10:28Z</time>
      </trkpt>
      <trkpt lat="45.86908" lon="3.10342">
        <ele>491</ele>
        <time>2021-08-15T07:10:29Z</time>
      </trkpt>
      <trkpt lat="45.86909" lon="3.10344">
        <ele>491</ele>
        <time>2021-08-15T07:10:30Z</time>
      </trkpt>
      <trkpt lat="45.8691" lon="3.10345">
        <ele>491</ele>
        <time>2021-08-15T07:10:31Z</time>
      </trkpt>
      <trkpt lat="45.86911" lon="3.10346">
        <ele>491</ele>
        <time>2021-08-15T07:10:32Z</time>
      </trkpt>
      <trkpt lat="45.86911" lon="3.10347">
        <ele>491</ele>
        <time>2021-08-15T07:10:33Z</time>
      </trkpt>
      <trkpt lat="45.86912" lon="3.10349">
        <ele>491</ele>
        <time>2021-08-15T07:10:34Z</time>
      </trkpt>
      <trkpt lat="45.86913" lon="3.1035">
        <ele>491</ele>
        <time>2021-08-15T07:10:36Z</time>
      </trkpt>
      <trkpt lat="45.86915" lon="3.10357">
        <ele>491</ele>
        <time>2021-08-15T07:10:37Z</time>
      </trkpt>
      <trkpt lat="45.86915" lon="3.10357">
        <ele>491</ele>
        <time>2021-08-15T07:10:38Z</time>
      </trkpt>
      <trkpt lat="45.86915" lon="3.10358">
        <ele>491</ele>
        <time>2021-08-15T07:10:39Z</time>
      </trkpt>
      <trkpt lat="45.86915" lon="3.10358">
        <ele>491</ele>
        <time>2021-08-15T07:10:40Z</time>
      </trkpt>
      <trkpt lat="45.86916" lon="3.10359">
        <ele>491</ele>
        <time>2021-08-15T07:10:41Z</time>
      </trkpt>
      <trkpt lat="45.86916" lon="3.1036">
        <ele>491</ele>
        <time>2021-08-15T07:10:42Z</time>
      </trkpt>
      <trkpt lat="45.86918" lon="3.10361">
        <ele>491</ele>
        <time>2021-08-15T07:10:43Z</time>
      </trkpt>
      <trkpt lat="45.86918" lon="3.10362">
        <ele>491</ele>
        <time>2021-08-15T07:10:44Z</time>
      </trkpt>
      <trkpt lat="45.86918" lon="3.10363">
        <ele>491</ele>
        <time>2021-08-15T07:10:45Z</time>
      </trkpt>
      <trkpt lat="45.86919" lon="3.10364">
        <ele>491</ele>
        <time>2021-08-15T07:10:46Z</time>
      </trkpt>
      <trkpt lat="45.8692" lon="3.10365">
        <ele>491</ele>
        <time>2021-08-15T07:10:47Z</time>
      </trkpt>
      <trkpt lat="45.86921" lon="3.10366">
        <ele>491</ele>
        <time>2021-08-15T07:10:48Z</time>
      </trkpt>
      <trkpt lat="45.86921" lon="3.10368">
        <ele>491</ele>
        <time>2021-08-15T07:10:49Z</time>
      </trkpt>
      <trkpt lat="45.86921" lon="3.10369">
        <ele>491</ele>
        <time>2021-08-15T07:10:50Z</time>
      </trkpt>
      <trkpt lat="45.86921" lon="3.10371">
        <ele>491</ele>
        <time>2021-08-15T07:10:51Z</time>
      </trkpt>
      <trkpt lat="45.86922" lon="3.10372">
        <ele>491</ele>
        <time>2021-08-15T07:10:52Z</time>
      </trkpt>
      <trkpt lat="45.86923" lon="3.10374">
        <ele>491</ele>
        <time>2021-08-15T07:10:53Z</time>
      </trkpt>
      <trkpt lat="45.86923" lon="3.10375">
        <ele>491</ele>
        <time>2021-08-15T07:10:54Z</time>
      </trkpt>
      <trkpt lat="45.86923" lon="3.10377">
        <ele>491</ele>
        <time>2021-08-15T07:10:55Z</time>
      </trkpt>
      <trkpt lat="45.86924" lon="3.10378">
        <ele>491</ele>
        <time>2021-08-15T07:10:56Z</time>
      </trkpt>
      <trkpt lat="45.86924" lon="3.1038">
        <ele>491</ele>
        <time>2021-08-15T07:10:57Z</time>
      </trkpt>
      <trkpt lat="45.86925" lon="3.10382">
        <ele>491</ele>
        <time>2021-08-15T07:10:58Z</time>
      </trkpt>
      <trkpt lat="45.86925" lon="3.10383">
        <ele>491</ele>
        <time>2021-08-15T07:10:59Z</time>
      </trkpt>
      <trkpt lat="45.86926" lon="3.10385">
        <ele>491</ele>
        <time>2021-08-15T07:11:00Z</time>
      </trkpt>
      <trkpt lat="45.86926" lon="3.10386">
        <ele>491</ele>
        <time>2021-08-15T07:11:01Z</time>
      </trkpt>
      <trkpt lat="45.86927" lon="3.10388">
        <ele>491</ele>
        <time>2021-08-15T07:11:02Z</time>
      </trkpt>
      <trkpt lat="45.86927" lon="3.10389">
        <ele>491</ele>
        <time>2021-08-15T07:11:03Z</time>
      </trkpt>
      <trkpt lat="45.86927" lon="3.10391">
        <ele>491</ele>
        <time>2021-08-15T07:11:04Z</time>
      </trkpt>
      <trkpt lat="45.86928" lon="3.10393">
        <ele>491</ele>
        <time>2021-08-15T07:11:05Z</time>
      </trkpt>
      <trkpt lat="45.86928" lon="3.10395">
        <ele>491</ele>
        <time>2021-08-15T07:11:06Z</time>
      </trkpt>
      <trkpt lat="45.86929" lon="3.10397">
        <ele>491</ele>
        <time>2021-08-15T07:11:07Z</time>
      </trkpt>
      <trkpt lat="45.86929" lon="3.10399">
        <ele>491</ele>
        <time>2021-08-15T07:11:08Z</time>
      </trkpt>
      <trkpt lat="45.8693" lon="3.10401">
        <ele>491</ele>
        <time>2021-08-15T07:11:09Z</time>
      </trkpt>
      <trkpt lat="45.8693" lon="3.10403">
        <ele>491</ele>
        <time>2021-08-15T07:11:10Z</time>
      </trkpt>
      <trkpt lat="45.8693" lon="3.10405">
        <ele>491</ele>
        <time>2021-08-15T07:11:11Z</time>
      </trkpt>
      <trkpt lat="45.86931" lon="3.10407">
        <ele>491</ele>
        <time>2021-08-15T07:11:12Z</time>
      </trkpt>
      <trkpt lat="45.86931" lon="3.10409">
        <ele>491</ele>
        <time>2021-08-15T07:11:13Z</time>
      </trkpt>
      <trkpt lat="45.86932" lon="3.10411">
        <ele>491</ele>
        <time>2021-08-15T07:11:14Z</time>
      </trkpt>
      <trkpt lat="45.86932" lon="3.10414">
        <ele>491</ele>
        <time>2021-08-15T07:11:15Z</time>
      </trkpt>
      <trkpt lat="45.86932" lon="3.10416">
        <ele>491</ele>
        <time>2021-08-15T07:11:16Z</time>
      </trkpt>
      <trkpt lat="45.86933" lon="3.10418">
        <ele>491</ele>
        <time>2021-08-15T07:11:17Z</time>
      </trkpt>
      <trkpt lat="45.86933" lon="3.10419">
        <ele>491</ele>
        <time>2021-08-15T07:11:18Z</time>
      </trkpt>
      <trkpt lat="45.86934" lon="3.10421">
        <ele>491</ele>
        <time>2021-08-15T07:11:19Z</time>
      </trkpt>
      <trkpt lat="45.86934" lon="3.10423">
        <ele>491</ele>
        <time>2021-08-15T07:11:20Z</time>
      </trkpt>
      <trkpt lat="45.86934" lon="3.10425">
        <ele>491</ele>
        <time>2021-08-15T07:11:21Z</time>
      </trkpt>
      <trkpt lat="45.86935" lon="3.10428">
        <ele>491</ele>
        <time>2021-08-15T07:11:22Z</time>
      </trkpt>
      <trkpt lat="45.86936" lon="3.1043">
        <ele>491</ele>
        <time>2021-08-15T07:11:23Z</time>
      </trkpt>
      <trkpt lat="45.86937" lon="3.10433">
        <ele>491</ele>
        <time>2021-08-15T07:11:24Z</time>
      </trkpt>
      <trkpt lat="45.86937" lon="3.10435">
        <ele>491</ele>
        <time>2021-08-15T07:11:25Z</time>
      </trkpt>
      <trkpt lat="45.86939" lon="3.10439">
        <ele>491</ele>
        <time>2021-08-15T07:11:26Z</time>
      </trkpt>
      <trkpt lat="45.86939" lon="3.10442">
        <ele>491</ele>
        <time>2021-08-15T07:11:27Z</time>
      </trkpt>
      <trkpt lat="45.86939" lon="3.10445">
        <ele>491</ele>
        <time>2021-08-15T07:11:28Z</time>
      </trkpt>
      <trkpt lat="45.8694" lon="3.10448">
        <ele>491</ele>
        <time>2021-08-15T07:11:29Z</time>
      </trkpt>
      <trkpt lat="45.8694" lon="3.10451">
        <ele>491</ele>
        <time>2021-08-15T07:11:30Z</time>
      </trkpt>
      <trkpt lat="45.8694" lon="3.10455">
        <ele>491</ele>
        <time>2021-08-15T07:11:31Z</time>
      </trkpt>
      <trkpt lat="45.86941" lon="3.10457">
        <ele>491</ele>
        <time>2021-08-15T07:11:32Z</time>
      </trkpt>
      <trkpt lat="45.86942" lon="3.1046">
        <ele>491</ele>
        <time>2021-08-15T07:11:33Z</time>
      </trkpt>
      <trkpt lat="45.86942" lon="3.10462">
        <ele>491</ele>
        <time>2021-08-15T07:11:34Z</time>
      </trkpt>
      <trkpt lat="45.86942" lon="3.10465">
        <ele>491</ele>
        <time>2021-08-15T07:11:35Z</time>
      </trkpt>
      <trkpt lat="45.86942" lon="3.10468">
        <ele>491</ele>
        <time>2021-08-15T07:11:36Z</time>
      </trkpt>
      <trkpt lat="45.86943" lon="3.1047">
        <ele>491</ele>
        <time>2021-08-15T07:11:38Z</time>
      </trkpt>
      <trkpt lat="45.86945" lon="3.1048">
        <ele>491</ele>
        <time>2021-08-15T07:11:39Z</time>
      </trkpt>
      <trkpt lat="45.86945" lon="3.10481">
        <ele>491</ele>
        <time>2021-08-15T07:11:40Z</time>
      </trkpt>
      <trkpt lat="45.86945" lon="3.10482">
        <ele>491</ele>
        <time>2021-08-15T07:11:41Z</time>
      </trkpt>
      <trkpt lat="45.86945" lon="3.10484">
        <ele>491</ele>
        <time>2021-08-15T07:11:42Z</time>
      </trkpt>
      <trkpt lat="45.86946" lon="3.10486">
        <ele>491</ele>
        <time>2021-08-15T07:11:43Z</time>
      </trkpt>
      <trkpt lat="45.86947" lon="3.10488">
        <ele>491</ele>
        <time>2021-08-15T07:11:44Z</time>
      </trkpt>
      <trkpt lat="45.86947" lon="3.1049">
        <ele>491</ele>
        <time>2021-08-15T07:11:45Z</time>
      </trkpt>
      <trkpt lat="45.86948" lon="3.10492">
        <ele>491</ele>
        <time>2021-08-15T07:11:46Z</time>
      </trkpt>
      <trkpt lat="45.86949" lon="3.10494">
        <ele>491</ele>
        <time>2021-08-15T07:11:47Z</time>
      </trkpt>
      <trkpt lat="45.8695" lon="3.10496">
        <ele>491</ele>
        <time>2021-08-15T07:11:48Z</time>
      </trkpt>
      <trkpt lat="45.8695" lon="3.10498">
        <ele>491</ele>
        <time>2021-08-15T07:11:49Z</time>
      </trkpt>
      <trkpt lat="45.86951" lon="3.105">
        <ele>491</ele>
        <time>2021-08-15T07:11:50Z</time>
      </trkpt>
      <trkpt lat="45.86952" lon="3.10502">
        <ele>491</ele>
        <time>2021-08-15T07:11:51Z</time>
      </trkpt>
      <trkpt lat="45.86953" lon="3.10503">
        <ele>491</ele>
        <time>2021-08-15T07:11:52Z</time>
      </trkpt>
      <trkpt lat="45.86954" lon="3.10505">
        <ele>491</ele>
        <time>2021-08-15T07:11:53Z</time>
      </trkpt>
      <trkpt lat="45.86955" lon="3.10507">
        <ele>491</ele>
        <time>2021-08-15T07:11:54Z</time>
      </trkpt>
      <trkpt lat="45.86956" lon="3.10509">
        <ele>491</ele>
        <time>2021-08-15T07:11:55Z</time>
      </trkpt>
      <trkpt lat="45.86957" lon="3.1051">
        <ele>491</ele>
        <time>2021-08-15T07:11:56Z</time>
      </trkpt>
      <trkpt lat="45.86958" lon="3.10512">
        <ele>491</ele>
        <time>2021-08-15T07:11:57Z</time>
      </trkpt>
      <trkpt lat="45.86959" lon="3.10513">
        <ele>491</ele>
        <time>2021-08-15T07:11:58Z</time>
      </trkpt>
      <trkpt lat="45.8696" lon="3.10514">
        <ele>491</ele>
        <time>2021-08-15T07:11:59Z</time>
      </trkpt>
      <trkpt lat="45.86961" lon="3.10514">
        <ele>491</ele>
        <time>2021-08-15T07:12:00Z</time>
      </trkpt>
      <trkpt lat="45.86963" lon="3.10515">
        <ele>491</ele>
        <time>2021-08-15T07:12:01Z</time>
      </trkpt>
      <trkpt lat="45.86964" lon="3.10516">
        <ele>491</ele>
        <time>2021-08-15T07:12:02Z</time>
      </trkpt>
      <trkpt lat="45.86965" lon="3.10517">
        <ele>491</ele>
        <time>2021-08-15T07:12:03Z</time>
      </trkpt>
      <trkpt lat="45.86966" lon="3.10518">
        <ele>491</ele>
        <time>2021-08-15T07:12:04Z</time>
      </trkpt>
      <trkpt lat="45.86967" lon="3.10519">
        <ele>491</ele>
        <time>2021-08-15T07:12:05Z</time>
      </trkpt>
      <trkpt lat="45.86968" lon="3.10521">
        <ele>491</ele>
        <time>2021-08-15T07:12:06Z</time>
      </trkpt>
      <trkpt lat="45.86969" lon="3.10522">
        <ele>491</ele>
        <time>2021-08-15T07:12:07Z</time>
      </trkpt>
      <trkpt lat="45.8697" lon="3.10524">
        <ele>491</ele>
        <time>2021-08-15T07:12:07Z</time>
      </trkpt>
      <trkpt lat="45.86971" lon="3.10526">
        <ele>491</ele>
        <time>2021-08-15T07:12:08Z</time>
      </trkpt>
      <trkpt lat="45.86972" lon="3.10529">
        <ele>491</ele>
        <time>2021-08-15T07:12:09Z</time>
      </trkpt>
      <trkpt lat="45.86973" lon="3.10531">
        <ele>491</ele>
        <time>2021-08-15T07:12:10Z</time>
      </trkpt>
      <trkpt lat="45.86973" lon="3.10534">
        <ele>491</ele>
        <time>2021-08-15T07:12:11Z</time>
      </trkpt>
      <trkpt lat="45.86974" lon="3.10536">
        <ele>491</ele>
        <time>2021-08-15T07:12:12Z</time>
      </trkpt>
      <trkpt lat="45.86974" lon="3.10539">
        <ele>491</ele>
        <time>2021-08-15T07:12:13Z</time>
      </trkpt>
      <trkpt lat="45.86974" lon="3.10541">
        <ele>491</ele>
        <time>2021-08-15T07:12:14Z</time>
      </trkpt>
      <trkpt lat="45.86975" lon="3.10543">
        <ele>491</ele>
        <time>2021-08-15T07:12:15Z</time>
      </trkpt>
      <trkpt lat="45.86975" lon="3.10545">
        <ele>491</ele>
        <time>2021-08-15T07:12:16Z</time>
      </trkpt>
      <trkpt lat="45.86976" lon="3.10547">
        <ele>491</ele>
        <time>2021-08-15T07:12:17Z</time>
      </trkpt>
      <trkpt lat="45.86976" lon="3.10549">
        <ele>491</ele>
        <time>2021-08-15T07:12:18Z</time>
      </trkpt>
      <trkpt lat="45.86976" lon="3.10551">
        <ele>491</ele>
        <time>2021-08-15T07:12:19Z</time>
      </trkpt>
      <trkpt lat="45.86977" lon="3.10553">
        <ele>491</ele>
        <time>2021-08-15T07:12:20Z</time>
      </trkpt>
      <trkpt lat="45.86977" lon="3.10555">
        <ele>491</ele>
        <time>2021-08-15T07:12:21Z</time>
      </trkpt>
      <trkpt lat="45.86977" lon="3.10557">
        <ele>491</ele>
        <time>2021-08-15T07:12:22Z</time>
      </trkpt>
      <trkpt lat="45.86978" lon="3.1056">
        <ele>491</ele>
        <time>2021-08-15T07:12:23Z</time>
      </trkpt>
      <trkpt lat="45.86978" lon="3.10562">
        <ele>491</ele>
        <time>2021-08-15T07:12:24Z</time>
      </trkpt>
      <trkpt lat="45.86979" lon="3.10564">
        <ele>491</ele>
        <time>2021-08-15T07:12:25Z</time>
      </trkpt>
      <trkpt lat="45.86979" lon="3.10567">
        <ele>491</ele>
        <time>2021-08-15T07:12:26Z</time>
      </trkpt>
      <trkpt lat="45.86979" lon="3.10569">
        <ele>491</ele>
        <time>2021-08-15T07:12:27Z</time>
      </trkpt>
      <trkpt lat="45.8698" lon="3.10571">
        <ele>491</ele>
        <time>2021-08-15T07:12:28Z</time>
      </trkpt>
      <trkpt lat="45.8698" lon="3.10573">
        <ele>491</ele>
        <time>2021-08-15T07:12:29Z</time>
      </trkpt>
      <trkpt lat="45.8698" lon="3.10575">
        <ele>491</ele>
        <time>2021-08-15T07:12:30Z</time>
      </trkpt>
      <trkpt lat="45.8698" lon="3.10578">
        <ele>491</ele>
        <time>2021-08-15T07:12:31Z</time>
      </trkpt>
      <trkpt lat="45.86981" lon="3.1058">
        <ele>491</ele>
        <time>2021-08-15T07:12:32Z</time>
      </trkpt>
      <trkpt lat="45.86981" lon="3.10583">
        <ele>491</ele>
        <time>2021-08-15T07:12:33Z</time>
      </trkpt>
      <trkpt lat="45.86981" lon="3.10585">
        <ele>491</ele>
        <time>2021-08-15T07:12:35Z</time>
      </trkpt>
      <trkpt lat="45.86981" lon="3.10587">
        <ele>491</ele>
        <time>2021-08-15T07:12:36Z</time>
      </trkpt>
      <trkpt lat="45.86981" lon="3.10589">
        <ele>491</ele>
        <time>2021-08-15T07:12:37Z</time>
      </trkpt>
      <trkpt lat="45.86981" lon="3.10597">
        <ele>491</ele>
        <time>2021-08-15T07:12:38Z</time>
      </trkpt>
      <trkpt lat="45.86981" lon="3.10598">
        <ele>491</ele>
        <time>2021-08-15T07:12:39Z</time>
      </trkpt>
      <trkpt lat="45.86981" lon="3.10599">
        <ele>491</ele>
        <time>2021-08-15T07:12:40Z</time>
      </trkpt>
      <trkpt lat="45.86981" lon="3.10601">
        <ele>491</ele>
        <time>2021-08-15T07:12:41Z</time>
      </trkpt>
      <trkpt lat="45.86981" lon="3.10603">
        <ele>491</ele>
        <time>2021-08-15T07:12:42Z</time>
      </trkpt>
      <trkpt lat="45.86982" lon="3.10604">
        <ele>491</ele>
        <time>2021-08-15T07:12:43Z</time>
      </trkpt>
      <trkpt lat="45.86982" lon="3.10606">
        <ele>491</ele>
        <time>2021-08-15T07:12:44Z</time>
      </trkpt>
      <trkpt lat="45.86982" lon="3.10608">
        <ele>491</ele>
        <time>2021-08-15T07:12:45Z</time>
      </trkpt>
      <trkpt lat="45.86983" lon="3.10611">
        <ele>491</ele>
        <time>2021-08-15T07:12:46Z</time>
      </trkpt>
      <trkpt lat="45.86983" lon="3.10613">
        <ele>491</ele>
        <time>2021-08-15T07:12:47Z</time>
      </trkpt>
      <trkpt lat="45.86984" lon="3.10615">
        <ele>491</ele>
        <time>2021-08-15T07:12:48Z</time>
      </trkpt>
      <trkpt lat="45.86984" lon="3.10618">
        <ele>491</ele>
        <time>2021-08-15T07:12:49Z</time>
      </trkpt>
      <trkpt lat="45.86984" lon="3.1062">
        <ele>491</ele>
        <time>2021-08-15T07:12:50Z</time>
      </trkpt>
      <trkpt lat="45.86984" lon="3.10623">
        <ele>491</ele>
        <time>2021-08-15T07:12:51Z</time>
      </trkpt>
      <trkpt lat="45.86984" lon="3.10625">
        <ele>491</ele>
        <time>2021-08-15T07:12:52Z</time>
      </trkpt>
      <trkpt lat="45.86984" lon="3.10628">
        <ele>491</ele>
        <time>2021-08-15T07:12:53Z</time>
      </trkpt>
      <trkpt lat="45.86984" lon="3.10631">
        <ele>491</ele>
        <time>2021-08-15T07:12:54Z</time>
      </trkpt>
      <trkpt lat="45.86985" lon="3.10634">
        <ele>491</ele>
        <time>2021-08-15T07:12:55Z</time>
      </trkpt>
      <trkpt lat="45.86985" lon="3.10637">
        <ele>491</ele>
        <time>2021-08-15T07:12:56Z</time>
      </trkpt>
      <trkpt lat="45.86985" lon="3.1064">
        <ele>491</ele>
        <time>2021-08-15T07:12:57Z</time>
      </trkpt>
      <trkpt lat="45.86985" lon="3.10643">
        <ele>491</ele>
        <time>2021-08-15T07:12:58Z</time>
      </trkpt>
      <trkpt lat="45.86985" lon="3.10645">
        <ele>491</ele>
        <time>2021-08-15T07:12:59Z</time>
      </trkpt>
      <trkpt lat="45.86985" lon="3.10648">
        <ele>491</ele>
        <time>2021-08-15T07:13:00Z</time>
      </trkpt>
      <trkpt lat="45.86985" lon="3.1065">
        <ele>491</ele>
        <time>2021-08-15T07:13:01Z</time>
      </trkpt>
      <trkpt lat="45.86984" lon="3.10653">
        <ele>491</ele>
        <time>2021-08-15T07:13:02Z</time>
      </trkpt>
      <trkpt lat="45.86984" lon="3.10656">
        <ele>491</ele>
        <time>2021-08-15T07:13:03Z</time>
      </trkpt>
      <trkpt lat="45.86984" lon="3.10659">
        <ele>491</ele>
        <time>2021-08-15T07:13:04Z</time>
      </trkpt>
      <trkpt lat="45.86984" lon="3.10661">
        <ele>491</ele>
        <time>2021-08-15T07:13:05Z</time>
      </trkpt>
      <trkpt lat="45.86984" lon="3.10664">
        <ele>491</ele>
        <time>2021-08-15T07:13:06Z</time>
      </trkpt>
      <trkpt lat="45.86984" lon="3.10667">
        <ele>491</ele>
        <time>2021-08-15T07:13:07Z</time>
      </trkpt>
      <trkpt lat="45.86984" lon="3.1067">
        <ele>491</ele>
        <time>2021-08-15T07:13:08Z</time>
      </trkpt>
      <trkpt lat="45.86984" lon="3.10672">
        <ele>491</ele>
        <time>2021-08-15T07:13:09Z</time>
      </trkpt>
      <trkpt lat="45.86983" lon="3.10674">
        <ele>491</ele>
        <time>2021-08-15T07:13:10Z</time>
      </trkpt>
      <trkpt lat="45.86983" lon="3.10676">
        <ele>491</ele>
        <time>2021-08-15T07:13:11Z</time>
      </trkpt>
      <trkpt lat="45.86983" lon="3.10679">
        <ele>491</ele>
        <time>2021-08-15T07:13:12Z</time>
      </trkpt>
      <trkpt lat="45.86982" lon="3.10682">
        <ele>491</ele>
        <time>2021-08-15T07:13:13Z</time>
      </trkpt>
      <trkpt lat="45.86982" lon="3.10685">
        <ele>491</ele>
        <time>2021-08-15T07:13:14Z</time>
      </trkpt>
      <trkpt lat="45.86982" lon="3.10687">
        <ele>491</ele>
        <time>2021-08-15T07:13:15Z</time>
      </trkpt>
      <trkpt lat="45.86983" lon="3.1069">
        <ele>491</ele>
        <time>2021-08-15T07:13:16Z</time>
      </trkpt>
      <trkpt lat="45.86983" lon="3.10693">
        <ele>491</ele>
        <time>2021-08-15T07:13:17Z</time>
      </trkpt>
      <trkpt lat="45.86983" lon="3.10696">
        <ele>491</ele>
        <time>2021-08-15T07:13:18Z</time>
      </trkpt>
      <trkpt lat="45.86982" lon="3.10698">
        <ele>491</ele>
        <time>2021-08-15T07:13:19Z</time>
      </trkpt>
      <trkpt lat="45.86982" lon="3.10701">
        <ele>491</ele>
        <time>2021-08-15T07:13:20Z</time>
      </trkpt>
      <trkpt lat="45.86982" lon="3.10703">
        <ele>491</ele>
        <time>2021-08-15T07:13:21Z</time>
      </trkpt>
      <trkpt lat="45.86981" lon="3.10706">
        <ele>491</ele>
        <time>2021-08-15T07:13:22Z</time>
      </trkpt>
      <trkpt lat="45.86981" lon="3.1071">
        <ele>491</ele>
        <time>2021-08-15T07:13:23Z</time>
      </trkpt>
      <trkpt lat="45.8698" lon="3.10713">
        <ele>491</ele>
        <time>2021-08-15T07:13:24Z</time>
      </trkpt>
      <trkpt lat="45.8698" lon="3.10715">
        <ele>491</ele>
        <time>2021-08-15T07:13:25Z</time>
      </trkpt>
      <trkpt lat="45.86979" lon="3.10718">
        <ele>491</ele>
        <time>2021-08-15T07:13:26Z</time>
      </trkpt>
      <trkpt lat="45.86979" lon="3.1072">
        <ele>491</ele>
        <time>2021-08-15T07:13:27Z</time>
      </trkpt>
      <trkpt lat="45.86978" lon="3.10722">
        <ele>491</ele>
        <time>2021-08-15T07:13:28Z</time>
      </trkpt>
      <trkpt lat="45.86978" lon="3.10723">
        <ele>491</ele>
        <time>2021-08-15T07:13:29Z</time>
      </trkpt>
      <trkpt lat="45.86977" lon="3.10727">
        <ele>491</ele>
        <time>2021-08-15T07:13:31Z</time>
      </trkpt>
      <trkpt lat="45.86977" lon="3.10727">
        <ele>491</ele>
        <time>2021-08-15T07:13:32Z</time>
      </trkpt>
      <trkpt lat="45.86977" lon="3.10727">
        <ele>491</ele>
        <time>2021-08-15T07:13:33Z</time>
      </trkpt>
      <trkpt lat="45.86976" lon="3.10727">
        <ele>491</ele>
        <time>2021-08-15T07:13:35Z</time>
      </trkpt>
      <trkpt lat="45.86974" lon="3.10726">
        <ele>491</ele>
        <time>2021-08-15T07:13:37Z</time>
      </trkpt>
      <trkpt lat="45.86972" lon="3.10724">
        <ele>491</ele>
        <time>2021-08-15T07:13:38Z</time>
      </trkpt>
      <trkpt lat="45.86972" lon="3.10724">
        <ele>491</ele>
        <time>2021-08-15T07:13:39Z</time>
      </trkpt>
      <trkpt lat="45.86971" lon="3.10723">
        <ele>491</ele>
        <time>2021-08-15T07:13:40Z</time>
      </trkpt>
      <trkpt lat="45.86971" lon="3.10723">
        <ele>491</ele>
        <time>2021-08-15T07:13:41Z</time>
      </trkpt>
      <trkpt lat="45.86971" lon="3.10722">
        <ele>491</ele>
        <time>2021-08-15T07:13:42Z</time>
      </trkpt>
      <trkpt lat="45.8697" lon="3.10721">
        <ele>491</ele>
        <time>2021-08-15T07:13:43Z</time>
      </trkpt>
      <trkpt lat="45.8697" lon="3.1072">
        <ele>491</ele>
        <time>2021-08-15T07:13:44Z</time>
      </trkpt>
      <trkpt lat="45.86969" lon="3.10719">
        <ele>491</ele>
        <time>2021-08-15T07:13:45Z</time>
      </trkpt>
      <trkpt lat="45.86968" lon="3.10718">
        <ele>491</ele>
        <time>2021-08-15T07:13:46Z</time>
      </trkpt>
      <trkpt lat="45.86967" lon="3.10717">
        <ele>491</ele>
        <time>2021-08-15T07:13:47Z</time>
      </trkpt>
      <trkpt lat="45.86966" lon="3.10715">
        <ele>491</ele>
        <time>2021-08-15T07:13:48Z</time>
      </trkpt>
      <trkpt lat="45.86965" lon="3.10714">
        <ele>491</ele>
        <time>2021-08-15T07:13:49Z</time>
      </trkpt>
      <trkpt lat="45.86964" lon="3.10712">
        <ele>491</ele>
        <time>2021-08-15T07:13:50Z</time>
      </trkpt>
      <trkpt lat="45.86964" lon="3.10711">
        <ele>491</ele>
        <time>2021-08-15T07:13:51Z</time>
      </trkpt>
      <trkpt lat="45.86963" lon="3.10711">
        <ele>491</ele>
        <time>2021-08-15T07:13:52Z</time>
      </trkpt>
      <trkpt lat="45.86963" lon="3.1071">
        <ele>491</ele>
        <time>2021-08-15T07:13:53Z</time>
      </trkpt>
      <trkpt lat="45.86962" lon="3.10709">
        <ele>491</ele>
        <time>2021-08-15T07:13:54Z</time>
      </trkpt>
      <trkpt lat="45.86961" lon="3.10709">
        <ele>491</ele>
        <time>2021-08-15T07:13:55Z</time>
      </trkpt>
      <trkpt lat="45.8696" lon="3.10709">
        <ele>491</ele>
        <time>2021-08-15T07:13:56Z</time>
      </trkpt>
      <trkpt lat="45.86959" lon="3.10709">
        <ele>491</ele>
        <time>2021-08-15T07:13:57Z</time>
      </trkpt>
      <trkpt lat="45.86958" lon="3.10709">
        <ele>491</ele>
        <time>2021-08-15T07:13:58Z</time>
      </trkpt>
      <trkpt lat="45.86957" lon="3.1071">
        <ele>491</ele>
        <time>2021-08-15T07:13:59Z</time>
      </trkpt>
      <trkpt lat="45.86956" lon="3.10711">
        <ele>491</ele>
        <time>2021-08-15T07:14:00Z</time>
      </trkpt>
      <trkpt lat="45.86955" lon="3.10712">
        <ele>491</ele>
        <time>2021-08-15T07:14:01Z</time>
      </trkpt>
      <trkpt lat="45.86954" lon="3.10713">
        <ele>491</ele>
        <time>2021-08-15T07:14:02Z</time>
      </trkpt>
      <trkpt lat="45.86953" lon="3.10714">
        <ele>491</ele>
        <time>2021-08-15T07:14:03Z</time>
      </trkpt>
      <trkpt lat="45.86952" lon="3.10716">
        <ele>491</ele>
        <time>2021-08-15T07:14:04Z</time>
      </trkpt>
      <trkpt lat="45.86951" lon="3.10717">
        <ele>491</ele>
        <time>2021-08-15T07:14:05Z</time>
      </trkpt>
      <trkpt lat="45.8695" lon="3.10718">
        <ele>491</ele>
        <time>2021-08-15T07:14:06Z</time>
      </trkpt>
      <trkpt lat="45.86949" lon="3.10719">
        <ele>491</ele>
        <time>2021-08-15T07:14:07Z</time>
      </trkpt>
      <trkpt lat="45.86948" lon="3.10721">
        <ele>491</ele>
        <time>2021-08-15T07:14:08Z</time>
      </trkpt>
      <trkpt lat="45.86948" lon="3.10723">
        <ele>491</ele>
        <time>2021-08-15T07:14:09Z</time>
      </trkpt>
      <trkpt lat="45.86947" lon="3.10725">
        <ele>491</ele>
        <time>2021-08-15T07:14:10Z</time>
      </trkpt>
      <trkpt lat="45.86946" lon="3.10726">
        <ele>491</ele>
        <time>2021-08-15T07:14:11Z</time>
      </trkpt>
      <trkpt lat="45.86946" lon="3.10728">
        <ele>491</ele>
        <time>2021-08-15T07:14:12Z</time>
      </trkpt>
      <trkpt lat="45.86945" lon="3.1073">
        <ele>491</ele>
        <time>2021-08-15T07:14:13Z</time>
      </trkpt>
      <trkpt lat="45.86945" lon="3.10731">
        <ele>491</ele>
        <time>2021-08-15T07:14:14Z</time>
      </trkpt>
      <trkpt lat="45.86944" lon="3.10733">
        <ele>491</ele>
        <time>2021-08-15T07:14:15Z</time>
      </trkpt>
      <trkpt lat="45.86943" lon="3.10735">
        <ele>491</ele>
        <time>2021-08-15T07:14:16Z</time>
      </trkpt>
      <trkpt lat="45.86943" lon="3.10737">
        <ele>491</ele>
        <time>2021-08-15T07:14:17Z</time>
      </trkpt>
      <trkpt lat="45.86943" lon="3.10738">
        <ele>491</ele>
        <time>2021-08-15T07:14:18Z</time>
      </trkpt>
      <trkpt lat="45.86942" lon="3.1074">
        <ele>491</ele>
        <time>2021-08-15T07:14:19Z</time>
      </trkpt>
      <trkpt lat="45.86942" lon="3.10742">
        <ele>491</ele>
        <time>2021-08-15T07:14:20Z</time>
      </trkpt>
      <trkpt lat="45.86942" lon="3.10744">
        <ele>491</ele>
        <time>2021-08-15T07:14:21Z</time>
      </trkpt>
      <trkpt lat="45.86942" lon="3.10746">
        <ele>491</ele>
        <time>2021-08-15T07:14:22Z</time>
      </trkpt>
      <trkpt lat="45.86942" lon="3.10748">
        <ele>491</ele>
        <time>2021-08-15T07:14:23Z</time>
      </trkpt>
      <trkpt lat="45.86942" lon="3.1075">
        <ele>491</ele>
        <time>2021-08-15T07:14:24Z</time>
      </trkpt>
      <trkpt lat="45.86941" lon="3.10752">
        <ele>491</ele>
        <time>2021-08-15T07:14:25Z</time>
      </trkpt>
      <trkpt lat="45.86941" lon="3.10753">
        <ele>491</ele>
        <time>2021-08-15T07:14:26Z</time>
      </trkpt>
      <trkpt lat="45.86941" lon="3.10755">
        <ele>491</ele>
        <time>2021-08-15T07:14:27Z</time>
      </trkpt>
      <trkpt lat="45.86941" lon="3.10757">
        <ele>491</ele>
        <time>2021-08-15T07:14:28Z</time>
      </trkpt>
      <trkpt lat="45.86941" lon="3.10759">
        <ele>491</ele>
        <time>2021-08-15T07:14:29Z</time>
      </trkpt>
      <trkpt lat="45.86941" lon="3.10761">
        <ele>491</ele>
        <time>2021-08-15T07:14:30Z</time>
      </trkpt>
      <trkpt lat="45.86941" lon="3.10763">
        <ele>491</ele>
        <time>2021-08-15T07:14:31Z</time>
      </trkpt>
      <trkpt lat="45.86941" lon="3.10765">
        <ele>491</ele>
        <time>2021-08-15T07:14:32Z</time>
      </trkpt>
      <trkpt lat="45.86941" lon="3.10767">
        <ele>491</ele>
        <time>2021-08-15T07:14:33Z</time>
      </trkpt>
      <trkpt lat="45.8694" lon="3.10768">
        <ele>491</ele>
        <time>2021-08-15T07:14:34Z</time>
      </trkpt>
      <trkpt lat="45.8694" lon="3.10771">
        <ele>491</ele>
        <time>2021-08-15T07:14:36Z</time>
      </trkpt>
      <trkpt lat="45.8694" lon="3.10773">
        <ele>491</ele>
        <time>2021-08-15T07:14:37Z</time>
      </trkpt>
      <trkpt lat="45.86939" lon="3.10783">
        <ele>491</ele>
        <time>2021-08-15T07:14:38Z</time>
      </trkpt>
      <trkpt lat="45.86939" lon="3.10783">
        <ele>491</ele>
        <time>2021-08-15T07:14:39Z</time>
      </trkpt>
      <trkpt lat="45.86939" lon="3.10784">
        <ele>491</ele>
        <time>2021-08-15T07:14:40Z</time>
      </trkpt>
      <trkpt lat="45.86939" lon="3.10786">
        <ele>491</ele>
        <time>2021-08-15T07:14:41Z</time>
      </trkpt>
      <trkpt lat="45.86939" lon="3.10787">
        <ele>491</ele>
        <time>2021-08-15T07:14:42Z</time>
      </trkpt>
      <trkpt lat="45.86938" lon="3.10789">
        <ele>491</ele>
        <time>2021-08-15T07:14:43Z</time>
      </trkpt>
      <trkpt lat="45.86938" lon="3.10791">
        <ele>491</ele>
        <time>2021-08-15T07:14:44Z</time>
      </trkpt>
      <trkpt lat="45.86937" lon="3.10793">
        <ele>491</ele>
        <time>2021-08-15T07:14:45Z</time>
      </trkpt>
      <trkpt lat="45.86937" lon="3.10795">
        <ele>491</ele>
        <time>2021-08-15T07:14:46Z</time>
      </trkpt>
      <trkpt lat="45.86937" lon="3.10797">
        <ele>491</ele>
        <time>2021-08-15T07:14:47Z</time>
      </trkpt>
      <trkpt lat="45.86937" lon="3.10799">
        <ele>491</ele>
        <time>2021-08-15T07:14:48Z</time>
      </trkpt>
      <trkpt lat="45.86936" lon="3.10801">
        <ele>491</ele>
        <time>2021-08-15T07:14:49Z</time>
      </trkpt>
      <trkpt lat="45.86936" lon="3.10803">
        <ele>491</ele>
        <time>2021-08-15T07:14:50Z</time>
      </trkpt>
      <trkpt lat="45.86936" lon="3.10805">
        <ele>491</ele>
        <time>2021-08-15T07:14:51Z</time>
      </trkpt>
      <trkpt lat="45.86936" lon="3.10806">
        <ele>491</ele>
        <time>2021-08-15T07:14:52Z</time>
      </trkpt>
      <trkpt lat="45.86936" lon="3.10808">
        <ele>491</ele>
        <time>2021-08-15T07:14:53Z</time>
      </trkpt>
      <trkpt lat="45.86935" lon="3.1081">
        <ele>491</ele>
        <time>2021-08-15T07:14:54Z</time>
      </trkpt>
      <trkpt lat="45.86935" lon="3.10811">
        <ele>491</ele>
        <time>2021-08-15T07:14:55Z</time>
      </trkpt>
      <trkpt lat="45.86935" lon="3.10813">
        <ele>491</ele>
        <time>2021-08-15T07:14:56Z</time>
      </trkpt>
      <trkpt lat="45.86935" lon="3.10815">
        <ele>491</ele>
        <time>2021-08-15T07:14:57Z</time>
      </trkpt>
      <trkpt lat="45.86935" lon="3.10817">
        <ele>491</ele>
        <time>2021-08-15T07:14:58Z</time>
      </trkpt>
      <trkpt lat="45.86935" lon="3.10819">
        <ele>491</ele>
        <time>2021-08-15T07:14:59Z</time>
      </trkpt>
      <trkpt lat="45.86935" lon="3.10821">
        <ele>491</ele>
        <time>2021-08-15T07:15:00Z</time>
      </trkpt>
      <trkpt lat="45.86935" lon="3.10823">
        <ele>491</ele>
        <time>2021-08-15T07:15:01Z</time>
      </trkpt>
      <trkpt lat="45.86935" lon="3.10826">
        <ele>491</ele>
        <time>2021-08-15T07:15:02Z</time>
      </trkpt>
      <trkpt lat="45.86935" lon="3.10828">
        <ele>491</ele>
        <time>2021-08-15T07:15:03Z</time>
      </trkpt>
      <trkpt lat="45.86935" lon="3.1083">
        <ele>491</ele>
        <time>2021-08-15T07:15:04Z</time>
      </trkpt>
      <trkpt lat="45.86935" lon="3.10832">
        <ele>491</ele>
        <time>2021-08-15T07:15:05Z</time>
      </trkpt>
      <trkpt lat="45.86935" lon="3.10834">
        <ele>491</ele>
        <time>2021-08-15T07:15:06Z</time>
      </trkpt>
      <trkpt lat="45.86935" lon="3.10837">
        <ele>491</ele>
        <time>2021-08-15T07:15:07Z</time>
      </trkpt>
      <trkpt lat="45.86934" lon="3.10839">
        <ele>491</ele>
        <time>2021-08-15T07:15:08Z</time>
      </trkpt>
      <trkpt lat="45.86934" lon="3.10841">
        <ele>491</ele>
        <time>2021-08-15T07:15:09Z</time>
      </trkpt>
      <trkpt lat="45.86934" lon="3.10844">
        <ele>491</ele>
        <time>2021-08-15T07:15:10Z</time>
      </trkpt>
      <trkpt lat="45.86934" lon="3.10846">
        <ele>491</ele>
        <time>2021-08-15T07:15:11Z</time>
      </trkpt>
      <trkpt lat="45.86934" lon="3.10849">
        <ele>491</ele>
        <time>2021-08-15T07:15:12Z</time>
      </trkpt>
      <trkpt lat="45.86933" lon="3.10852">
        <ele>491</ele>
        <time>2021-08-15T07:15:13Z</time>
      </trkpt>
      <trkpt lat="45.86933" lon="3.10854">
        <ele>491</ele>
        <time>2021-08-15T07:15:14Z</time>
      </trkpt>
      <trkpt lat="45.86933" lon="3.10856">
        <ele>491</ele>
        <time>2021-08-15T07:15:15Z</time>
      </trkpt>
      <trkpt lat="45.86933" lon="3.10858">
        <ele>491</ele>
        <time>2021-08-15T07:15:16Z</time>
      </trkpt>
      <trkpt lat="45.86933" lon="3.1086">
        <ele>491</ele>
        <time>2021-08-15T07:15:17Z</time>
      </trkpt>
      <trkpt lat="45.86933" lon="3.10862">
        <ele>491</ele>
        <time>2021-08-15T07:15:18Z</time>
      </trkpt>
      <trkpt lat="45.86933" lon="3.10864">
        <ele>491</ele>
        <time>2021-08-15T07:15:19Z</time>
      </trkpt>
      <trkpt lat="45.86932" lon="3.10866">
        <ele>491</ele>
        <time>2021-08-15T07:15:20Z</time>
      </trkpt>
      <trkpt lat="45.86932" lon="3.10869">
        <ele>491</ele>
        <time>2021-08-15T07:15:21Z</time>
      </trkpt>
      <trkpt lat="45.86932" lon="3.10871">
        <ele>491</ele>
        <time>2021-08-15T07:15:22Z</time>
      </trkpt>
      <trkpt lat="45.86932" lon="3.10873">
        <ele>491</ele>
        <time>2021-08-15T07:15:23Z</time>
      </trkpt>
      <trkpt lat="45.86932" lon="3.10876">
        <ele>491</ele>
        <time>2021-08-15T07:15:24Z</time>
      </trkpt>
      <trkpt lat="45.86932" lon="3.10878">
        <ele>491</ele>
        <time>2021-08-15T07:15:25Z</time>
      </trkpt>
      <trkpt lat="45.86931" lon="3.10881">
        <ele>491</ele>
        <time>2021-08-15T07:15:26Z</time>
      </trkpt>
      <trkpt lat="45.86931" lon="3.10883">
        <ele>491</ele>
        <time>2021-08-15T07:15:27Z</time>
      </trkpt>
      <trkpt lat="45.86931" lon="3.10885">
        <ele>491</ele>
        <time>2021-08-15T07:15:28Z</time>
      </trkpt>
      <trkpt lat="45.8693" lon="3.10887">
        <ele>491</ele>
        <time>2021-08-15T07:15:29Z</time>
      </trkpt>
      <trkpt lat="45.8693" lon="3.10889">
        <ele>491</ele>
        <time>2021-08-15T07:15:30Z</time>
      </trkpt>
      <trkpt lat="45.86929" lon="3.10891">
        <ele>491</ele>
        <time>2021-08-15T07:15:31Z</time>
      </trkpt>
      <trkpt lat="45.86929" lon="3.10893">
        <ele>491</ele>
        <time>2021-08-15T07:15:32Z</time>
      </trkpt>
      <trkpt lat="45.86928" lon="3.10894">
        <ele>491</ele>
        <time>2021-08-15T07:15:33Z</time>
      </trkpt>
      <trkpt lat="45.86927" lon="3.10895">
        <ele>491</ele>
        <time>2021-08-15T07:15:35Z</time>
      </trkpt>
      <trkpt lat="45.86926" lon="3.10897">
        <ele>491</ele>
        <time>2021-08-15T07:15:36Z</time>
      </trkpt>
      <trkpt lat="45.86921" lon="3.10901">
        <ele>491</ele>
        <time>2021-08-15T07:15:37Z</time>
      </trkpt>
      <trkpt lat="45.86921" lon="3.10901">
        <ele>491</ele>
        <time>2021-08-15T07:15:38Z</time>
      </trkpt>
      <trkpt lat="45.86921" lon="3.10901">
        <ele>491</ele>
        <time>2021-08-15T07:15:39Z</time>
      </trkpt>
      <trkpt lat="45.8692" lon="3.10902">
        <ele>491</ele>
        <time>2021-08-15T07:15:40Z</time>
      </trkpt>
      <trkpt lat="45.86919" lon="3.10902">
        <ele>491</ele>
        <time>2021-08-15T07:15:41Z</time>
      </trkpt>
      <trkpt lat="45.86918" lon="3.10903">
        <ele>491</ele>
        <time>2021-08-15T07:15:42Z</time>
      </trkpt>
      <trkpt lat="45.86916" lon="3.10903">
        <ele>491</ele>
        <time>2021-08-15T07:15:43Z</time>
      </trkpt>
      <trkpt lat="45.86915" lon="3.10904">
        <ele>491</ele>
        <time>2021-08-15T07:15:44Z</time>
      </trkpt>
      <trkpt lat="45.86913" lon="3.10905">
        <ele>491</ele>
        <time>2021-08-15T07:15:45Z</time>
      </trkpt>
      <trkpt lat="45.86912" lon="3.10906">
        <ele>491</ele>
        <time>2021-08-15T07:15:46Z</time>
      </trkpt>
      <trkpt lat="45.86911" lon="3.10907">
        <ele>491</ele>
        <time>2021-08-15T07:15:47Z</time>
      </trkpt>
      <trkpt lat="45.86909" lon="3.10908">
        <ele>491</ele>
        <time>2021-08-15T07:15:48Z</time>
      </trkpt>
      <trkpt lat="45.86908" lon="3.10909">
        <ele>491</ele>
        <time>2021-08-15T07:15:49Z</time>
      </trkpt>
      <trkpt lat="45.86906" lon="3.10909">
        <ele>491</ele>
        <time>2021-08-15T07:15:50Z</time>
      </trkpt>
      <trkpt lat="45.86905" lon="3.1091">
        <ele>491</ele>
        <time>2021-08-15T07:15:51Z</time>
      </trkpt>
      <trkpt lat="45.86903" lon="3.1091">
        <ele>491</ele>
        <time>2021-08-15T07:15:52Z</time>
      </trkpt>
      <trkpt lat="45.86902" lon="3.10911">
        <ele>491</ele>
        <time>2021-08-15T07:15:53Z</time>
      </trkpt>
      <trkpt lat="45.869" lon="3.10911">
        <ele>491</ele>
        <time>2021-08-15T07:15:54Z</time>
      </trkpt>
      <trkpt lat="45.86899" lon="3.10912">
        <ele>491</ele>
        <time>2021-08-15T07:15:55Z</time>
      </trkpt>
      <trkpt lat="45.86897" lon="3.10912">
        <ele>491</ele>
        <time>2021-08-15T07:15:56Z</time>
      </trkpt>
      <trkpt lat="45.86896" lon="3.10913">
        <ele>491</ele>
        <time>2021-08-15T07:15:57Z</time>
      </trkpt>
      <trkpt lat="45.86895" lon="3.10914">
        <ele>491</ele>
        <time>2021-08-15T07:15:58Z</time>
      </trkpt>
      <trkpt lat="45.86894" lon="3.10914">
        <ele>491</ele>
        <time>2021-08-15T07:15:59Z</time>
      </trkpt>
      <trkpt lat="45.86891" lon="3.10915">
        <ele>491</ele>
        <time>2021-08-15T07:16:00Z</time>
      </trkpt>
      <trkpt lat="45.8689" lon="3.10916">
        <ele>491</ele>
        <time>2021-08-15T07:16:01Z</time>
      </trkpt>
      <trkpt lat="45.86889" lon="3.10917">
        <ele>491</ele>
        <time>2021-08-15T07:16:02Z</time>
      </trkpt>
      <trkpt lat="45.86888" lon="3.10917">
        <ele>491</ele>
        <time>2021-08-15T07:16:03Z</time>
      </trkpt>
      <trkpt lat="45.86887" lon="3.10918">
        <ele>491</ele>
        <time>2021-08-15T07:16:04Z</time>
      </trkpt>
      <trkpt lat="45.86885" lon="3.10919">
        <ele>491</ele>
        <time>2021-08-15T07:16:05Z</time>
      </trkpt>
      <trkpt lat="45.86884" lon="3.1092">
        <ele>491</ele>
        <time>2021-08-15T07:16:06Z</time>
      </trkpt>
      <trkpt lat="45.86882" lon="3.1092">
        <ele>491</ele>
        <time>2021-08-15T07:16:07Z</time>
      </trkpt>
      <trkpt lat="45.86882" lon="3.10921">
        <ele>491</ele>
        <time>2021-08-15T07:16:08Z</time>
      </trkpt>
      <trkpt lat="45.8688" lon="3.10922">
        <ele>491</ele>
        <time>2021-08-15T07:16:09Z</time>
      </trkpt>
      <trkpt lat="45.86879" lon="3.10923">
        <ele>491</ele>
        <time>2021-08-15T07:16:10Z</time>
      </trkpt>
      <trkpt lat="45.86877" lon="3.10924">
        <ele>491</ele>
        <time>2021-08-15T07:16:11Z</time>
      </trkpt>
      <trkpt lat="45.86876" lon="3.10924">
        <ele>491</ele>
        <time>2021-08-15T07:16:12Z</time>
      </trkpt>
      <trkpt lat="45.86874" lon="3.10925">
        <ele>491</ele>
        <time>2021-08-15T07:16:13Z</time>
      </trkpt>
      <trkpt lat="45.86873" lon="3.10926">
        <ele>491</ele>
        <time>2021-08-15T07:16:14Z</time>
      </trkpt>
      <trkpt lat="45.86873" lon="3.10927">
        <ele>491</ele>
        <time>2021-08-15T07:16:15Z</time>
      </trkpt>
      <trkpt lat="45.86871" lon="3.10928">
        <ele>491</ele>
        <time>2021-08-15T07:16:16Z</time>
      </trkpt>
      <trkpt lat="45.8687" lon="3.10929">
        <ele>491</ele>
        <time>2021-08-15T07:16:17Z</time>
      </trkpt>
      <trkpt lat="45.86869" lon="3.1093">
        <ele>491</ele>
        <time>2021-08-15T07:16:18Z</time>
      </trkpt>
      <trkpt lat="45.86868" lon="3.10931">
        <ele>491</ele>
        <time>2021-08-15T07:16:19Z</time>
      </trkpt>
      <trkpt lat="45.86867" lon="3.10932">
        <ele>491</ele>
        <time>2021-08-15T07:16:20Z</time>
      </trkpt>
      <trkpt lat="45.86865" lon="3.10934">
        <ele>491</ele>
        <time>2021-08-15T07:16:21Z</time>
      </trkpt>
      <trkpt lat="45.86864" lon="3.10935">
        <ele>491</ele>
        <time>2021-08-15T07:16:22Z</time>
      </trkpt>
      <trkpt lat="45.86863" lon="3.10936">
        <ele>491</ele>
        <time>2021-08-15T07:16:22Z</time>
      </trkpt>
      <trkpt lat="45.86862" lon="3.10938">
        <ele>491</ele>
        <time>2021-08-15T07:16:23Z</time>
      </trkpt>
      <trkpt lat="45.86861" lon="3.10939">
        <ele>491</ele>
        <time>2021-08-15T07:16:24Z</time>
      </trkpt>
      <trkpt lat="45.8686" lon="3.1094">
        <ele>491</ele>
        <time>2021-08-15T07:16:25Z</time>
      </trkpt>
      <trkpt lat="45.86859" lon="3.10941">
        <ele>491</ele>
        <time>2021-08-15T07:16:26Z</time>
      </trkpt>
      <trkpt lat="45.86858" lon="3.10942">
        <ele>491</ele>
        <time>2021-08-15T07:16:27Z</time>
      </trkpt>
      <trkpt lat="45.86857" lon="3.10944">
        <ele>491</ele>
        <time>2021-08-15T07:16:28Z</time>
      </trkpt>
      <trkpt lat="45.86856" lon="3.10945">
        <ele>491</ele>
        <time>2021-08-15T07:16:29Z</time>
      </trkpt>
      <trkpt lat="45.86855" lon="3.10946">
        <ele>491</ele>
        <time>2021-08-15T07:16:30Z</time>
      </trkpt>
      <trkpt lat="45.86855" lon="3.10947">
        <ele>491</ele>
        <time>2021-08-15T07:16:31Z</time>
      </trkpt>
      <trkpt lat="45.86853" lon="3.10949">
        <ele>491</ele>
        <time>2021-08-15T07:16:32Z</time>
      </trkpt>
      <trkpt lat="45.86852" lon="3.1095">
        <ele>491</ele>
        <time>2021-08-15T07:16:33Z</time>
      </trkpt>
      <trkpt lat="45.86851" lon="3.10952">
        <ele>491</ele>
        <time>2021-08-15T07:16:35Z</time>
      </trkpt>
      <trkpt lat="45.86846" lon="3.10958">
        <ele>491</ele>
        <time>2021-08-15T07:16:36Z</time>
      </trkpt>
      <trkpt lat="45.86846" lon="3.10958">
        <ele>491</ele>
        <time>2021-08-15T07:16:37Z</time>
      </trkpt>
      <trkpt lat="45.86845" lon="3.10958">
        <ele>491</ele>
        <time>2021-08-15T07:16:38Z</time>
      </trkpt>
      <trkpt lat="45.86844" lon="3.10959">
        <ele>491</ele>
        <time>2021-08-15T07:16:39Z</time>
      </trkpt>
      <trkpt lat="45.86843" lon="3.1096">
        <ele>491</ele>
        <time>2021-08-15T07:16:40Z</time>
      </trkpt>
      <trkpt lat="45.86842" lon="3.10961">
        <ele>491</ele>
        <time>2021-08-15T07:16:41Z</time>
      </trkpt>
      <trkpt lat="45.86841" lon="3.10963">
        <ele>491</ele>
        <time>2021-08-15T07:16:42Z</time>
      </trkpt>
      <trkpt lat="45.8684" lon="3.10964">
        <ele>491</ele>
        <time>2021-08-15T07:16:43Z</time>
      </trkpt>
      <trkpt lat="45.86839" lon="3.10965">
        <ele>491</ele>
        <time>2021-08-15T07:16:44Z</time>
      </trkpt>
      <trkpt lat="45.86837" lon="3.10966">
        <ele>491</ele>
        <time>2021-08-15T07:16:45Z</time>
      </trkpt>
      <trkpt lat="45.86837" lon="3.10967">
        <ele>491</ele>
        <time>2021-08-15T07:16:46Z</time>
      </trkpt>
      <trkpt lat="45.86836" lon="3.10968">
        <ele>491</ele>
        <time>2021-08-15T07:16:47Z</time>
      </trkpt>
      <trkpt lat="45.86834" lon="3.10969">
        <ele>491</ele>
        <time>2021-08-15T07:16:48Z</time>
      </trkpt>
      <trkpt lat="45.86833" lon="3.1097">
        <ele>491</ele>
        <time>2021-08-15T07:16:49Z</time>
      </trkpt>
      <trkpt lat="45.86832" lon="3.10971">
        <ele>491</ele>
        <time>2021-08-15T07:16:50Z</time>
      </trkpt>
      <trkpt lat="45.86831" lon="3.10972">
        <ele>491</ele>
        <time>2021-08-15T07:16:51Z</time>
      </trkpt>
      <trkpt lat="45.86829" lon="3.10973">
        <ele>491</ele>
        <time>2021-08-15T07:16:52Z</time>
      </trkpt>
      <trkpt lat="45.86828" lon="3.10974">
        <ele>491</ele>
        <time>2021-08-15T07:16:53Z</time>
      </trkpt>
      <trkpt lat="45.86827" lon="3.10976">
        <ele>491</ele>
        <time>2021-08-15T07:16:54Z</time>
      </trkpt>
      <trkpt lat="45.86825" lon="3.10977">
        <ele>491</ele>
        <time>2021-08-15T07:16:55Z</time>
      </trkpt>
      <trkpt lat="45.86824" lon="3.10978">
        <ele>491</ele>
        <time>2021-08-15T07:16:56Z</time>
      </trkpt>
      <trkpt lat="45.86823" lon="3.1098">
        <ele>491</ele>
        <time>2021-08-15T07:16:57Z</time>
      </trkpt>
      <trkpt lat="45.86821" lon="3.10981">
        <ele>491</ele>
        <time>2021-08-15T07:16:59Z</time>
      </trkpt>
      <trkpt lat="45.86816" lon="3.10987">
        <ele>491</ele>
        <time>2021-08-15T07:17:00Z</time>
      </trkpt>
      <trkpt lat="45.86815" lon="3.10987">
        <ele>491</ele>
        <time>2021-08-15T07:17:01Z</time>
      </trkpt>
      <trkpt lat="45.86815" lon="3.10988">
        <ele>491</ele>
        <time>2021-08-15T07:17:02Z</time>
      </trkpt>
      <trkpt lat="45.86813" lon="3.10989">
        <ele>491</ele>
        <time>2021-08-15T07:17:03Z</time>
      </trkpt>
      <trkpt lat="45.86813" lon="3.1099">
        <ele>491</ele>
        <time>2021-08-15T07:17:04Z</time>
      </trkpt>
      <trkpt lat="45.86811" lon="3.10991">
        <ele>491</ele>
        <time>2021-08-15T07:17:05Z</time>
      </trkpt>
      <trkpt lat="45.8681" lon="3.10992">
        <ele>491</ele>
        <time>2021-08-15T07:17:06Z</time>
      </trkpt>
      <trkpt lat="45.86809" lon="3.10993">
        <ele>491</ele>
        <time>2021-08-15T07:17:07Z</time>
      </trkpt>
      <trkpt lat="45.86808" lon="3.10995">
        <ele>491</ele>
        <time>2021-08-15T07:17:08Z</time>
      </trkpt>
      <trkpt lat="45.86806" lon="3.10996">
        <ele>491</ele>
        <time>2021-08-15T07:17:09Z</time>
      </trkpt>
      <trkpt lat="45.86805" lon="3.10998">
        <ele>491</ele>
        <time>2021-08-15T07:17:10Z</time>
      </trkpt>
      <trkpt lat="45.86804" lon="3.10999">
        <ele>491</ele>
        <time>2021-08-15T07:17:11Z</time>
      </trkpt>
      <trkpt lat="45.86803" lon="3.11001">
        <ele>491</ele>
        <time>2021-08-15T07:17:12Z</time>
      </trkpt>
      <trkpt lat="45.86801" lon="3.11003">
        <ele>491</ele>
        <time>2021-08-15T07:17:13Z</time>
      </trkpt>
      <trkpt lat="45.868" lon="3.11004">
        <ele>491</ele>
        <time>2021-08-15T07:17:14Z</time>
      </trkpt>
      <trkpt lat="45.86799" lon="3.11006">
        <ele>491</ele>
        <time>2021-08-15T07:17:15Z</time>
      </trkpt>
      <trkpt lat="45.86798" lon="3.11007">
        <ele>491</ele>
        <time>2021-08-15T07:17:16Z</time>
      </trkpt>
      <trkpt lat="45.86797" lon="3.11008">
        <ele>491</ele>
        <time>2021-08-15T07:17:17Z</time>
      </trkpt>
      <trkpt lat="45.86795" lon="3.1101">
        <ele>491</ele>
        <time>2021-08-15T07:17:18Z</time>
      </trkpt>
      <trkpt lat="45.86795" lon="3.11011">
        <ele>491</ele>
        <time>2021-08-15T07:17:19Z</time>
      </trkpt>
      <trkpt lat="45.86793" lon="3.11013">
        <ele>491</ele>
        <time>2021-08-15T07:17:20Z</time>
      </trkpt>
      <trkpt lat="45.86792" lon="3.11014">
        <ele>491</ele>
        <time>2021-08-15T07:17:21Z</time>
      </trkpt>
      <trkpt lat="45.86791" lon="3.11015">
        <ele>491</ele>
        <time>2021-08-15T07:17:22Z</time>
      </trkpt>
      <trkpt lat="45.8679" lon="3.11016">
        <ele>491</ele>
        <time>2021-08-15T07:17:23Z</time>
      </trkpt>
      <trkpt lat="45.86789" lon="3.11018">
        <ele>491</ele>
        <time>2021-08-15T07:17:24Z</time>
      </trkpt>
      <trkpt lat="45.86788" lon="3.11019">
        <ele>491</ele>
        <time>2021-08-15T07:17:25Z</time>
      </trkpt>
      <trkpt lat="45.86786" lon="3.1102">
        <ele>491</ele>
        <time>2021-08-15T07:17:26Z</time>
      </trkpt>
      <trkpt lat="45.86785" lon="3.11022">
        <ele>491</ele>
        <time>2021-08-15T07:17:27Z</time>
      </trkpt>
      <trkpt lat="45.86784" lon="3.11023">
        <ele>491</ele>
        <time>2021-08-15T07:17:28Z</time>
      </trkpt>
      <trkpt lat="45.86783" lon="3.11025">
        <ele>491</ele>
        <time>2021-08-15T07:17:29Z</time>
      </trkpt>
      <trkpt lat="45.86782" lon="3.11026">
        <ele>491</ele>
        <time>2021-08-15T07:17:30Z</time>
      </trkpt>
      <trkpt lat="45.86781" lon="3.11028">
        <ele>491</ele>
        <time>2021-08-15T07:17:31Z</time>
      </trkpt>
      <trkpt lat="45.8678" lon="3.11029">
        <ele>491</ele>
        <time>2021-08-15T07:17:32Z</time>
      </trkpt>
      <trkpt lat="45.86779" lon="3.11031">
        <ele>491</ele>
        <time>2021-08-15T07:17:33Z</time>
      </trkpt>
      <trkpt lat="45.86778" lon="3.11032">
        <ele>491</ele>
        <time>2021-08-15T07:17:35Z</time>
      </trkpt>
      <trkpt lat="45.86773" lon="3.11038">
        <ele>491</ele>
        <time>2021-08-15T07:17:36Z</time>
      </trkpt>
      <trkpt lat="45.86773" lon="3.11038">
        <ele>491</ele>
        <time>2021-08-15T07:17:37Z</time>
      </trkpt>
      <trkpt lat="45.86772" lon="3.11039">
        <ele>491</ele>
        <time>2021-08-15T07:17:38Z</time>
      </trkpt>
      <trkpt lat="45.86771" lon="3.1104">
        <ele>491</ele>
        <time>2021-08-15T07:17:39Z</time>
      </trkpt>
      <trkpt lat="45.8677" lon="3.11041">
        <ele>491</ele>
        <time>2021-08-15T07:17:40Z</time>
      </trkpt>
      <trkpt lat="45.86769" lon="3.11042">
        <ele>491</ele>
        <time>2021-08-15T07:17:41Z</time>
      </trkpt>
      <trkpt lat="45.86768" lon="3.11043">
        <ele>491</ele>
        <time>2021-08-15T07:17:42Z</time>
      </trkpt>
      <trkpt lat="45.86766" lon="3.11044">
        <ele>491</ele>
        <time>2021-08-15T07:17:43Z</time>
      </trkpt>
      <trkpt lat="45.86765" lon="3.11046">
        <ele>491</ele>
        <time>2021-08-15T07:17:44Z</time>
      </trkpt>
      <trkpt lat="45.86764" lon="3.11047">
        <ele>491</ele>
        <time>2021-08-15T07:17:45Z</time>
      </trkpt>
      <trkpt lat="45.86762" lon="3.11049">
        <ele>491</ele>
        <time>2021-08-15T07:17:46Z</time>
      </trkpt>
      <trkpt lat="45.86761" lon="3.1105">
        <ele>491</ele>
        <time>2021-08-15T07:17:47Z</time>
      </trkpt>
      <trkpt lat="45.8676" lon="3.11051">
        <ele>491</ele>
        <time>2021-08-15T07:17:48Z</time>
      </trkpt>
      <trkpt lat="45.86758" lon="3.11052">
        <ele>491</ele>
        <time>2021-08-15T07:17:49Z</time>
      </trkpt>
      <trkpt lat="45.86757" lon="3.11054">
        <ele>491</ele>
        <time>2021-08-15T07:17:50Z</time>
      </trkpt>
      <trkpt lat="45.86756" lon="3.11055">
        <ele>491</ele>
        <time>2021-08-15T07:17:51Z</time>
      </trkpt>
      <trkpt lat="45.86754" lon="3.11056">
        <ele>491</ele>
        <time>2021-08-15T07:17:52Z</time>
      </trkpt>
      <trkpt lat="45.86753" lon="3.11057">
        <ele>491</ele>
        <time>2021-08-15T07:17:53Z</time>
      </trkpt>
      <trkpt lat="45.86752" lon="3.11058">
        <ele>491</ele>
        <time>2021-08-15T07:17:54Z</time>
      </trkpt>
      <trkpt lat="45.8675" lon="3.1106">
        <ele>491</ele>
        <time>2021-08-15T07:17:55Z</time>
      </trkpt>
      <trkpt lat="45.86749" lon="3.11061">
        <ele>491</ele>
        <time>2021-08-15T07:17:56Z</time>
      </trkpt>
      <trkpt lat="45.86747" lon="3.11062">
        <ele>491</ele>
        <time>2021-08-15T07:17:57Z</time>
      </trkpt>
      <trkpt lat="45.86746" lon="3.11064">
        <ele>491</ele>
        <time>2021-08-15T07:17:58Z</time>
      </trkpt>
      <trkpt lat="45.86744" lon="3.11065">
        <ele>491</ele>
        <time>2021-08-15T07:17:59Z</time>
      </trkpt>
      <trkpt lat="45.86742" lon="3.11065">
        <ele>491</ele>
        <time>2021-08-15T07:18:00Z</time>
      </trkpt>
      <trkpt lat="45.86741" lon="3.11066">
        <ele>491</ele>
        <time>2021-08-15T07:18:01Z</time>
      </trkpt>
      <trkpt lat="45.8674" lon="3.11067">
        <ele>491</ele>
        <time>2021-08-15T07:18:02Z</time>
      </trkpt>
      <trkpt lat="45.86739" lon="3.11067">
        <ele>491</ele>
        <time>2021-08-15T07:18:04Z</time>
      </trkpt>
      <trkpt lat="45.86733" lon="3.11069">
        <ele>491</ele>
        <time>2021-08-15T07:18:05Z</time>
      </trkpt>
      <trkpt lat="45.86733" lon="3.1107">
        <ele>491</ele>
        <time>2021-08-15T07:18:06Z</time>
      </trkpt>
      <trkpt lat="45.86732" lon="3.1107">
        <ele>491</ele>
        <time>2021-08-15T07:18:07Z</time>
      </trkpt>
      <trkpt lat="45.86731" lon="3.1107">
        <ele>491</ele>
        <time>2021-08-15T07:18:08Z</time>
      </trkpt>
      <trkpt lat="45.8673" lon="3.1107">
        <ele>491</ele>
        <time>2021-08-15T07:18:09Z</time>
      </trkpt>
      <trkpt lat="45.86728" lon="3.11071">
        <ele>491</ele>
        <time>2021-08-15T07:18:10Z</time>
      </trkpt>
      <trkpt lat="45.86727" lon="3.11071">
        <ele>491</ele>
        <time>2021-08-15T07:18:11Z</time>
      </trkpt>
      <trkpt lat="45.86725" lon="3.11071">
        <ele>491</ele>
        <time>2021-08-15T07:18:12Z</time>
      </trkpt>
      <trkpt lat="45.86725" lon="3.11072">
        <ele>491</ele>
        <time>2021-08-15T07:18:13Z</time>
      </trkpt>
      <trkpt lat="45.86723" lon="3.11072">
        <ele>491</ele>
        <time>2021-08-15T07:18:14Z</time>
      </trkpt>
      <trkpt lat="45.86721" lon="3.11072">
        <ele>491</ele>
        <time>2021-08-15T07:18:15Z</time>
      </trkpt>
      <trkpt lat="45.8672" lon="3.11073">
        <ele>491</ele>
        <time>2021-08-15T07:18:16Z</time>
      </trkpt>
      <trkpt lat="45.86718" lon="3.11074">
        <ele>491</ele>
        <time>2021-08-15T07:18:17Z</time>
      </trkpt>
      <trkpt lat="45.86717" lon="3.11075">
        <ele>491</ele>
        <time>2021-08-15T07:18:18Z</time>
      </trkpt>
      <trkpt lat="45.85875" lon="3.09983">
        <ele>491</ele>
        <time>2021-08-15T07:37:56Z</time>
      </trkpt>
      <trkpt lat="45.85877" lon="3.09846">
        <ele>491</ele>
        <time>2021-08-15T07:37:57Z</time>
      </trkpt>
      <trkpt lat="45.85877" lon="3.09846">
        <ele>491</ele>
        <time>2021-08-15T07:37:59Z</time>
      </trkpt>
      <trkpt lat="45.85875" lon="3.09846">
        <ele>491</ele>
        <time>2021-08-15T07:38:00Z</time>
      </trkpt>
      <trkpt lat="45.85869" lon="3.09846">
        <ele>491</ele>
        <time>2021-08-15T07:38:01Z</time>
      </trkpt>
      <trkpt lat="45.85868" lon="3.09847">
        <ele>491</ele>
        <time>2021-08-15T07:38:03Z</time>
      </trkpt>
      <trkpt lat="45.85864" lon="3.09848">
        <ele>491</ele>
        <time>2021-08-15T07:38:05Z</time>
      </trkpt>
      <trkpt lat="45.85864" lon="3.09848">
        <ele>491</ele>
        <time>2021-08-15T07:38:06Z</time>
      </trkpt>
      <trkpt lat="45.85863" lon="3.09848">
        <ele>491</ele>
        <time>2021-08-15T07:38:07Z</time>
      </trkpt>
      <trkpt lat="45.85863" lon="3.09847">
        <ele>491</ele>
        <time>2021-08-15T07:38:08Z</time>
      </trkpt>
      <trkpt lat="45.85863" lon="3.09846">
        <ele>491</ele>
        <time>2021-08-15T07:38:09Z</time>
      </trkpt>
      <trkpt lat="45.85862" lon="3.09845">
        <ele>491</ele>
        <time>2021-08-15T07:38:10Z</time>
      </trkpt>
      <trkpt lat="45.85862" lon="3.09843">
        <ele>491</ele>
        <time>2021-08-15T07:38:11Z</time>
      </trkpt>
      <trkpt lat="45.85861" lon="3.09842">
        <ele>491</ele>
        <time>2021-08-15T07:38:12Z</time>
      </trkpt>
      <trkpt lat="45.8586" lon="3.0984">
        <ele>491</ele>
        <time>2021-08-15T07:38:13Z</time>
      </trkpt>
      <trkpt lat="45.8586" lon="3.09838">
        <ele>491</ele>
        <time>2021-08-15T07:38:14Z</time>
      </trkpt>
      <trkpt lat="45.8586" lon="3.09837">
        <ele>491</ele>
        <time>2021-08-15T07:38:15Z</time>
      </trkpt>
      <trkpt lat="45.8586" lon="3.09835">
        <ele>491</ele>
        <time>2021-08-15T07:38:16Z</time>
      </trkpt>
      <trkpt lat="45.8586" lon="3.09833">
        <ele>491</ele>
        <time>2021-08-15T07:38:17Z</time>
      </trkpt>
      <trkpt lat="45.8586" lon="3.09831">
        <ele>491</ele>
        <time>2021-08-15T07:38:18Z</time>
      </trkpt>
      <trkpt lat="45.8586" lon="3.09829">
        <ele>491</ele>
        <time>2021-08-15T07:38:19Z</time>
      </trkpt>
      <trkpt lat="45.8586" lon="3.09828">
        <ele>491</ele>
        <time>2021-08-15T07:38:20Z</time>
      </trkpt>
      <trkpt lat="45.8586" lon="3.09826">
        <ele>491</ele>
        <time>2021-08-15T07:38:21Z</time>
      </trkpt>
      <trkpt lat="45.8586" lon="3.09824">
        <ele>491</ele>
        <time>2021-08-15T07:38:22Z</time>
      </trkpt>
      <trkpt lat="45.8586" lon="3.09822">
        <ele>491</ele>
        <time>2021-08-15T07:38:23Z</time>
      </trkpt>
      <trkpt lat="45.8586" lon="3.0982">
        <ele>491</ele>
        <time>2021-08-15T07:38:24Z</time>
      </trkpt>
      <trkpt lat="45.8586" lon="3.09818">
        <ele>491</ele>
        <time>2021-08-15T07:38:25Z</time>
      </trkpt>
      <trkpt lat="45.8586" lon="3.09816">
        <ele>491</ele>
        <time>2021-08-15T07:38:26Z</time>
      </trkpt>
      <trkpt lat="45.8586" lon="3.09814">
        <ele>491</ele>
        <time>2021-08-15T07:38:27Z</time>
      </trkpt>
      <trkpt lat="45.8586" lon="3.09812">
        <ele>491</ele>
        <time>2021-08-15T07:38:29Z</time>
      </trkpt>
      <trkpt lat="45.8586" lon="3.09806">
        <ele>491</ele>
        <time>2021-08-15T07:38:31Z</time>
      </trkpt>
      <trkpt lat="45.8586" lon="3.09802">
        <ele>491</ele>
        <time>2021-08-15T07:38:32Z</time>
      </trkpt>
      <trkpt lat="45.8586" lon="3.09801">
        <ele>491</ele>
        <time>2021-08-15T07:38:33Z</time>
      </trkpt>
      <trkpt lat="45.85859" lon="3.09801">
        <ele>491</ele>
        <time>2021-08-15T07:38:34Z</time>
      </trkpt>
      <trkpt lat="45.85859" lon="3.09799">
        <ele>491</ele>
        <time>2021-08-15T07:38:35Z</time>
      </trkpt>
      <trkpt lat="45.85859" lon="3.09797">
        <ele>491</ele>
        <time>2021-08-15T07:38:36Z</time>
      </trkpt>
      <trkpt lat="45.85859" lon="3.09795">
        <ele>491</ele>
        <time>2021-08-15T07:38:37Z</time>
      </trkpt>
      <trkpt lat="45.85859" lon="3.09794">
        <ele>491</ele>
        <time>2021-08-15T07:38:38Z</time>
      </trkpt>
      <trkpt lat="45.85858" lon="3.09791">
        <ele>491</ele>
        <time>2021-08-15T07:38:39Z</time>
      </trkpt>
      <trkpt lat="45.85858" lon="3.09789">
        <ele>491</ele>
        <time>2021-08-15T07:38:40Z</time>
      </trkpt>
      <trkpt lat="45.85858" lon="3.09787">
        <ele>491</ele>
        <time>2021-08-15T07:38:41Z</time>
      </trkpt>
      <trkpt lat="45.85858" lon="3.09785">
        <ele>491</ele>
        <time>2021-08-15T07:38:42Z</time>
      </trkpt>
      <trkpt lat="45.85857" lon="3.09783">
        <ele>491</ele>
        <time>2021-08-15T07:38:43Z</time>
      </trkpt>
      <trkpt lat="45.85857" lon="3.09781">
        <ele>491</ele>
        <time>2021-08-15T07:38:44Z</time>
      </trkpt>
      <trkpt lat="45.85857" lon="3.09779">
        <ele>491</ele>
        <time>2021-08-15T07:38:45Z</time>
      </trkpt>
      <trkpt lat="45.85857" lon="3.09777">
        <ele>491</ele>
        <time>2021-08-15T07:38:46Z</time>
      </trkpt>
      <trkpt lat="45.85857" lon="3.09775">
        <ele>491</ele>
        <time>2021-08-15T07:38:47Z</time>
      </trkpt>
      <trkpt lat="45.85857" lon="3.09773">
        <ele>491</ele>
        <time>2021-08-15T07:38:48Z</time>
      </trkpt>
      <trkpt lat="45.85857" lon="3.09771">
        <ele>491</ele>
        <time>2021-08-15T07:38:49Z</time>
      </trkpt>
      <trkpt lat="45.85856" lon="3.09769">
        <ele>491</ele>
        <time>2021-08-15T07:38:50Z</time>
      </trkpt>
      <trkpt lat="45.85856" lon="3.09768">
        <ele>491</ele>
        <time>2021-08-15T07:38:51Z</time>
      </trkpt>
      <trkpt lat="45.85855" lon="3.09766">
        <ele>491</ele>
        <time>2021-08-15T07:38:52Z</time>
      </trkpt>
      <trkpt lat="45.85854" lon="3.09764">
        <ele>491</ele>
        <time>2021-08-15T07:38:53Z</time>
      </trkpt>
      <trkpt lat="45.85854" lon="3.09762">
        <ele>491</ele>
        <time>2021-08-15T07:38:54Z</time>
      </trkpt>
      <trkpt lat="45.85854" lon="3.0976">
        <ele>491</ele>
        <time>2021-08-15T07:38:55Z</time>
      </trkpt>
      <trkpt lat="45.85854" lon="3.09759">
        <ele>491</ele>
        <time>2021-08-15T07:38:56Z</time>
      </trkpt>
      <trkpt lat="45.85853" lon="3.09757">
        <ele>491</ele>
        <time>2021-08-15T07:38:57Z</time>
      </trkpt>
      <trkpt lat="45.85852" lon="3.09756">
        <ele>491</ele>
        <time>2021-08-15T07:38:58Z</time>
      </trkpt>
      <trkpt lat="45.85851" lon="3.09755">
        <ele>491</ele>
        <time>2021-08-15T07:38:59Z</time>
      </trkpt>
      <trkpt lat="45.85851" lon="3.09753">
        <ele>491</ele>
        <time>2021-08-15T07:39:00Z</time>
      </trkpt>
      <trkpt lat="45.8585" lon="3.09752">
        <ele>491</ele>
        <time>2021-08-15T07:39:01Z</time>
      </trkpt>
      <trkpt lat="45.85849" lon="3.09751">
        <ele>491</ele>
        <time>2021-08-15T07:39:02Z</time>
      </trkpt>
      <trkpt lat="45.85848" lon="3.09749">
        <ele>491</ele>
        <time>2021-08-15T07:39:03Z</time>
      </trkpt>
      <trkpt lat="45.85847" lon="3.09747">
        <ele>491</ele>
        <time>2021-08-15T07:39:04Z</time>
      </trkpt>
      <trkpt lat="45.85847" lon="3.09745">
        <ele>491</ele>
        <time>2021-08-15T07:39:05Z</time>
      </trkpt>
      <trkpt lat="45.85846" lon="3.09744">
        <ele>491</ele>
        <time>2021-08-15T07:39:06Z</time>
      </trkpt>
      <trkpt lat="45.85846" lon="3.09742">
        <ele>491</ele>
        <time>2021-08-15T07:39:07Z</time>
      </trkpt>
      <trkpt lat="45.85846" lon="3.0974">
        <ele>491</ele>
        <time>2021-08-15T07:39:08Z</time>
      </trkpt>
      <trkpt lat="45.85846" lon="3.09738">
        <ele>491</ele>
        <time>2021-08-15T07:39:09Z</time>
      </trkpt>
      <trkpt lat="45.85845" lon="3.09736">
        <ele>491</ele>
        <time>2021-08-15T07:39:10Z</time>
      </trkpt>
      <trkpt lat="45.85845" lon="3.09733">
        <ele>491</ele>
        <time>2021-08-15T07:39:11Z</time>
      </trkpt>
      <trkpt lat="45.85845" lon="3.09731">
        <ele>491</ele>
        <time>2021-08-15T07:39:12Z</time>
      </trkpt>
      <trkpt lat="45.85845" lon="3.09728">
        <ele>491</ele>
        <time>2021-08-15T07:39:13Z</time>
      </trkpt>
      <trkpt lat="45.85845" lon="3.09725">
        <ele>491</ele>
        <time>2021-08-15T07:39:14Z</time>
      </trkpt>
      <trkpt lat="45.85845" lon="3.09723">
        <ele>491</ele>
        <time>2021-08-15T07:39:15Z</time>
      </trkpt>
      <trkpt lat="45.85845" lon="3.0972">
        <ele>491</ele>
        <time>2021-08-15T07:39:16Z</time>
      </trkpt>
      <trkpt lat="45.85845" lon="3.09718">
        <ele>491</ele>
        <time>2021-08-15T07:39:17Z</time>
      </trkpt>
      <trkpt lat="45.85846" lon="3.09715">
        <ele>491</ele>
        <time>2021-08-15T07:39:18Z</time>
      </trkpt>
      <trkpt lat="45.85846" lon="3.09713">
        <ele>491</ele>
        <time>2021-08-15T07:39:19Z</time>
      </trkpt>
      <trkpt lat="45.85846" lon="3.0971">
        <ele>491</ele>
        <time>2021-08-15T07:39:20Z</time>
      </trkpt>
      <trkpt lat="45.85846" lon="3.09708">
        <ele>491</ele>
        <time>2021-08-15T07:39:21Z</time>
      </trkpt>
      <trkpt lat="45.85846" lon="3.09706">
        <ele>491</ele>
        <time>2021-08-15T07:39:22Z</time>
      </trkpt>
      <trkpt lat="45.85846" lon="3.09704">
        <ele>491</ele>
        <time>2021-08-15T07:39:23Z</time>
      </trkpt>
      <trkpt lat="45.85846" lon="3.09701">
        <ele>491</ele>
        <time>2021-08-15T07:39:24Z</time>
      </trkpt>
      <trkpt lat="45.85846" lon="3.09699">
        <ele>491</ele>
        <time>2021-08-15T07:39:25Z</time>
      </trkpt>
      <trkpt lat="45.85846" lon="3.09696">
        <ele>491</ele>
        <time>2021-08-15T07:39:26Z</time>
      </trkpt>
      <trkpt lat="45.85846" lon="3.09694">
        <ele>491</ele>
        <time>2021-08-15T07:39:27Z</time>
      </trkpt>
      <trkpt lat="45.85846" lon="3.09692">
        <ele>491</ele>
        <time>2021-08-15T07:39:29Z</time>
      </trkpt>
      <trkpt lat="45.85848" lon="3.09683">
        <ele>491</ele>
        <time>2021-08-15T07:39:31Z</time>
      </trkpt>
      <trkpt lat="45.85848" lon="3.09679">
        <ele>491</ele>
        <time>2021-08-15T07:39:32Z</time>
      </trkpt>
      <trkpt lat="45.85847" lon="3.09678">
        <ele>491</ele>
        <time>2021-08-15T07:39:33Z</time>
      </trkpt>
      <trkpt lat="45.85847" lon="3.09677">
        <ele>491</ele>
        <time>2021-08-15T07:39:34Z</time>
      </trkpt>
      <trkpt lat="45.85846" lon="3.09676">
        <ele>491</ele>
        <time>2021-08-15T07:39:35Z</time>
      </trkpt>
      <trkpt lat="45.85846" lon="3.09674">
        <ele>491</ele>
        <time>2021-08-15T07:39:36Z</time>
      </trkpt>
      <trkpt lat="45.85845" lon="3.09672">
        <ele>491</ele>
        <time>2021-08-15T07:39:37Z</time>
      </trkpt>
      <trkpt lat="45.85844" lon="3.0967">
        <ele>491</ele>
        <time>2021-08-15T07:39:38Z</time>
      </trkpt>
      <trkpt lat="45.85844" lon="3.09669">
        <ele>491</ele>
        <time>2021-08-15T07:39:39Z</time>
      </trkpt>
      <trkpt lat="45.85843" lon="3.09667">
        <ele>491</ele>
        <time>2021-08-15T07:39:40Z</time>
      </trkpt>
      <trkpt lat="45.85842" lon="3.09666">
        <ele>491</ele>
        <time>2021-08-15T07:39:41Z</time>
      </trkpt>
      <trkpt lat="45.85841" lon="3.09664">
        <ele>491</ele>
        <time>2021-08-15T07:39:42Z</time>
      </trkpt>
      <trkpt lat="45.8584" lon="3.09662">
        <ele>491</ele>
        <time>2021-08-15T07:39:43Z</time>
      </trkpt>
      <trkpt lat="45.8584" lon="3.09661">
        <ele>491</ele>
        <time>2021-08-15T07:39:44Z</time>
      </trkpt>
      <trkpt lat="45.85839" lon="3.09659">
        <ele>491</ele>
        <time>2021-08-15T07:39:45Z</time>
      </trkpt>
      <trkpt lat="45.85839" lon="3.09657">
        <ele>491</ele>
        <time>2021-08-15T07:39:46Z</time>
      </trkpt>
      <trkpt lat="45.85838" lon="3.09655">
        <ele>491</ele>
        <time>2021-08-15T07:39:47Z</time>
      </trkpt>
      <trkpt lat="45.85838" lon="3.09653">
        <ele>491</ele>
        <time>2021-08-15T07:39:48Z</time>
      </trkpt>
      <trkpt lat="45.85838" lon="3.09651">
        <ele>491</ele>
        <time>2021-08-15T07:39:49Z</time>
      </trkpt>
      <trkpt lat="45.85837" lon="3.09649">
        <ele>491</ele>
        <time>2021-08-15T07:39:50Z</time>
      </trkpt>
      <trkpt lat="45.85837" lon="3.09647">
        <ele>491</ele>
        <time>2021-08-15T07:39:51Z</time>
      </trkpt>
      <trkpt lat="45.85837" lon="3.09645">
        <ele>491</ele>
        <time>2021-08-15T07:39:52Z</time>
      </trkpt>
      <trkpt lat="45.85837" lon="3.09642">
        <ele>491</ele>
        <time>2021-08-15T07:39:53Z</time>
      </trkpt>
      <trkpt lat="45.85837" lon="3.0964">
        <ele>491</ele>
        <time>2021-08-15T07:39:54Z</time>
      </trkpt>
      <trkpt lat="45.85837" lon="3.09637">
        <ele>491</ele>
        <time>2021-08-15T07:39:55Z</time>
      </trkpt>
      <trkpt lat="45.85837" lon="3.09635">
        <ele>491</ele>
        <time>2021-08-15T07:39:56Z</time>
      </trkpt>
      <trkpt lat="45.85837" lon="3.09632">
        <ele>491</ele>
        <time>2021-08-15T07:39:57Z</time>
      </trkpt>
      <trkpt lat="45.85836" lon="3.0963">
        <ele>491</ele>
        <time>2021-08-15T07:39:58Z</time>
      </trkpt>
      <trkpt lat="45.85836" lon="3.09627">
        <ele>491</ele>
        <time>2021-08-15T07:39:59Z</time>
      </trkpt>
      <trkpt lat="45.85836" lon="3.09625">
        <ele>491</ele>
        <time>2021-08-15T07:40:00Z</time>
      </trkpt>
      <trkpt lat="45.85836" lon="3.09623">
        <ele>491</ele>
        <time>2021-08-15T07:40:01Z</time>
      </trkpt>
      <trkpt lat="45.85836" lon="3.09621">
        <ele>491</ele>
        <time>2021-08-15T07:40:02Z</time>
      </trkpt>
      <trkpt lat="45.85836" lon="3.09619">
        <ele>491</ele>
        <time>2021-08-15T07:40:03Z</time>
      </trkpt>
      <trkpt lat="45.85836" lon="3.09617">
        <ele>491</ele>
        <time>2021-08-15T07:40:04Z</time>
      </trkpt>
      <trkpt lat="45.85836" lon="3.09615">
        <ele>491</ele>
        <time>2021-08-15T07:40:05Z</time>
      </trkpt>
      <trkpt lat="45.85835" lon="3.09613">
        <ele>491</ele>
        <time>2021-08-15T07:40:06Z</time>
      </trkpt>
      <trkpt lat="45.85835" lon="3.09611">
        <ele>491</ele>
        <time>2021-08-15T07:40:07Z</time>
      </trkpt>
      <trkpt lat="45.85835" lon="3.09609">
        <ele>491</ele>
        <time>2021-08-15T07:40:08Z</time>
      </trkpt>
      <trkpt lat="45.85834" lon="3.09607">
        <ele>491</ele>
        <time>2021-08-15T07:40:09Z</time>
      </trkpt>
      <trkpt lat="45.85833" lon="3.09605">
        <ele>491</ele>
        <time>2021-08-15T07:40:10Z</time>
      </trkpt>
      <trkpt lat="45.85833" lon="3.09603">
        <ele>491</ele>
        <time>2021-08-15T07:40:11Z</time>
      </trkpt>
      <trkpt lat="45.85833" lon="3.09602">
        <ele>491</ele>
        <time>2021-08-15T07:40:12Z</time>
      </trkpt>
      <trkpt lat="45.85832" lon="3.096">
        <ele>491</ele>
        <time>2021-08-15T07:40:13Z</time>
      </trkpt>
      <trkpt lat="45.85832" lon="3.09598">
        <ele>491</ele>
        <time>2021-08-15T07:40:14Z</time>
      </trkpt>
      <trkpt lat="45.85831" lon="3.09596">
        <ele>491</ele>
        <time>2021-08-15T07:40:15Z</time>
      </trkpt>
      <trkpt lat="45.8583" lon="3.09595">
        <ele>491</ele>
        <time>2021-08-15T07:40:16Z</time>
      </trkpt>
      <trkpt lat="45.8583" lon="3.09593">
        <ele>491</ele>
        <time>2021-08-15T07:40:17Z</time>
      </trkpt>
      <trkpt lat="45.8583" lon="3.09592">
        <ele>491</ele>
        <time>2021-08-15T07:40:18Z</time>
      </trkpt>
      <trkpt lat="45.85828" lon="3.0959">
        <ele>491</ele>
        <time>2021-08-15T07:40:19Z</time>
      </trkpt>
      <trkpt lat="45.85828" lon="3.09588">
        <ele>491</ele>
        <time>2021-08-15T07:40:20Z</time>
      </trkpt>
      <trkpt lat="45.85827" lon="3.09586">
        <ele>491</ele>
        <time>2021-08-15T07:40:21Z</time>
      </trkpt>
      <trkpt lat="45.85827" lon="3.09584">
        <ele>491</ele>
        <time>2021-08-15T07:40:22Z</time>
      </trkpt>
      <trkpt lat="45.85826" lon="3.09583">
        <ele>491</ele>
        <time>2021-08-15T07:40:23Z</time>
      </trkpt>
      <trkpt lat="45.85825" lon="3.09581">
        <ele>491</ele>
        <time>2021-08-15T07:40:24Z</time>
      </trkpt>
      <trkpt lat="45.85824" lon="3.0958">
        <ele>491</ele>
        <time>2021-08-15T07:40:25Z</time>
      </trkpt>
      <trkpt lat="45.85823" lon="3.09578">
        <ele>491</ele>
        <time>2021-08-15T07:40:26Z</time>
      </trkpt>
      <trkpt lat="45.85822" lon="3.09577">
        <ele>491</ele>
        <time>2021-08-15T07:40:27Z</time>
      </trkpt>
      <trkpt lat="45.8582" lon="3.09576">
        <ele>491</ele>
        <time>2021-08-15T07:40:28Z</time>
      </trkpt>
      <trkpt lat="45.85819" lon="3.09575">
        <ele>491</ele>
        <time>2021-08-15T07:40:30Z</time>
      </trkpt>
      <trkpt lat="45.85814" lon="3.09569">
        <ele>491</ele>
        <time>2021-08-15T07:40:31Z</time>
      </trkpt>
      <trkpt lat="45.85814" lon="3.09569">
        <ele>491</ele>
        <time>2021-08-15T07:40:32Z</time>
      </trkpt>
      <trkpt lat="45.85813" lon="3.09568">
        <ele>491</ele>
        <time>2021-08-15T07:40:33Z</time>
      </trkpt>
      <trkpt lat="45.85812" lon="3.09566">
        <ele>491</ele>
        <time>2021-08-15T07:40:34Z</time>
      </trkpt>
      <trkpt lat="45.85811" lon="3.09565">
        <ele>491</ele>
        <time>2021-08-15T07:40:35Z</time>
      </trkpt>
      <trkpt lat="45.85809" lon="3.09563">
        <ele>491</ele>
        <time>2021-08-15T07:40:36Z</time>
      </trkpt>
      <trkpt lat="45.85809" lon="3.09561">
        <ele>491</ele>
        <time>2021-08-15T07:40:37Z</time>
      </trkpt>
      <trkpt lat="45.85807" lon="3.0956">
        <ele>491</ele>
        <time>2021-08-15T07:40:38Z</time>
      </trkpt>
      <trkpt lat="45.85806" lon="3.09558">
        <ele>491</ele>
        <time>2021-08-15T07:40:39Z</time>
      </trkpt>
      <trkpt lat="45.85805" lon="3.09556">
        <ele>491</ele>
        <time>2021-08-15T07:40:40Z</time>
      </trkpt>
      <trkpt lat="45.85804" lon="3.09555">
        <ele>491</ele>
        <time>2021-08-15T07:40:41Z</time>
      </trkpt>
      <trkpt lat="45.85803" lon="3.09553">
        <ele>491</ele>
        <time>2021-08-15T07:40:42Z</time>
      </trkpt>
      <trkpt lat="45.85802" lon="3.09551">
        <ele>491</ele>
        <time>2021-08-15T07:40:43Z</time>
      </trkpt>
      <trkpt lat="45.85801" lon="3.09549">
        <ele>491</ele>
        <time>2021-08-15T07:40:44Z</time>
      </trkpt>
      <trkpt lat="45.85801" lon="3.09548">
        <ele>491</ele>
        <time>2021-08-15T07:40:45Z</time>
      </trkpt>
      <trkpt lat="45.858" lon="3.09546">
        <ele>491</ele>
        <time>2021-08-15T07:40:46Z</time>
      </trkpt>
      <trkpt lat="45.85799" lon="3.09544">
        <ele>491</ele>
        <time>2021-08-15T07:40:47Z</time>
      </trkpt>
      <trkpt lat="45.85797" lon="3.09542">
        <ele>491</ele>
        <time>2021-08-15T07:40:48Z</time>
      </trkpt>
      <trkpt lat="45.85796" lon="3.0954">
        <ele>491</ele>
        <time>2021-08-15T07:40:49Z</time>
      </trkpt>
      <trkpt lat="45.85794" lon="3.09538">
        <ele>491</ele>
        <time>2021-08-15T07:40:50Z</time>
      </trkpt>
      <trkpt lat="45.85793" lon="3.09536">
        <ele>491</ele>
        <time>2021-08-15T07:40:51Z</time>
      </trkpt>
      <trkpt lat="45.85792" lon="3.09534">
        <ele>491</ele>
        <time>2021-08-15T07:40:52Z</time>
      </trkpt>
      <trkpt lat="45.85791" lon="3.09532">
        <ele>491</ele>
        <time>2021-08-15T07:40:53Z</time>
      </trkpt>
      <trkpt lat="45.8579" lon="3.0953">
        <ele>491</ele>
        <time>2021-08-15T07:40:54Z</time>
      </trkpt>
      <trkpt lat="45.85788" lon="3.09528">
        <ele>491</ele>
        <time>2021-08-15T07:40:55Z</time>
      </trkpt>
      <trkpt lat="45.85788" lon="3.09526">
        <ele>491</ele>
        <time>2021-08-15T07:40:56Z</time>
      </trkpt>
      <trkpt lat="45.85786" lon="3.09525">
        <ele>491</ele>
        <time>2021-08-15T07:40:57Z</time>
      </trkpt>
      <trkpt lat="45.85786" lon="3.09523">
        <ele>491</ele>
        <time>2021-08-15T07:40:58Z</time>
      </trkpt>
      <trkpt lat="45.85785" lon="3.09521">
        <ele>491</ele>
        <time>2021-08-15T07:40:59Z</time>
      </trkpt>
      <trkpt lat="45.85784" lon="3.0952">
        <ele>491</ele>
        <time>2021-08-15T07:41:00Z</time>
      </trkpt>
      <trkpt lat="45.85783" lon="3.09518">
        <ele>491</ele>
        <time>2021-08-15T07:41:01Z</time>
      </trkpt>
      <trkpt lat="45.85782" lon="3.09516">
        <ele>491</ele>
        <time>2021-08-15T07:41:02Z</time>
      </trkpt>
      <trkpt lat="45.85781" lon="3.09514">
        <ele>491</ele>
        <time>2021-08-15T07:41:03Z</time>
      </trkpt>
      <trkpt lat="45.85781" lon="3.09512">
        <ele>491</ele>
        <time>2021-08-15T07:41:04Z</time>
      </trkpt>
      <trkpt lat="45.8578" lon="3.0951">
        <ele>491</ele>
        <time>2021-08-15T07:41:05Z</time>
      </trkpt>
      <trkpt lat="45.85779" lon="3.09508">
        <ele>491</ele>
        <time>2021-08-15T07:41:06Z</time>
      </trkpt>
      <trkpt lat="45.85779" lon="3.09506">
        <ele>491</ele>
        <time>2021-08-15T07:41:07Z</time>
      </trkpt>
      <trkpt lat="45.85778" lon="3.09504">
        <ele>491</ele>
        <time>2021-08-15T07:41:08Z</time>
      </trkpt>
      <trkpt lat="45.85778" lon="3.09502">
        <ele>491</ele>
        <time>2021-08-15T07:41:09Z</time>
      </trkpt>
      <trkpt lat="45.85777" lon="3.095">
        <ele>491</ele>
        <time>2021-08-15T07:41:10Z</time>
      </trkpt>
      <trkpt lat="45.85777" lon="3.09498">
        <ele>491</ele>
        <time>2021-08-15T07:41:11Z</time>
      </trkpt>
      <trkpt lat="45.85776" lon="3.09497">
        <ele>491</ele>
        <time>2021-08-15T07:41:12Z</time>
      </trkpt>
      <trkpt lat="45.85775" lon="3.09495">
        <ele>491</ele>
        <time>2021-08-15T07:41:13Z</time>
      </trkpt>
      <trkpt lat="45.85774" lon="3.09493">
        <ele>491</ele>
        <time>2021-08-15T07:41:14Z</time>
      </trkpt>
      <trkpt lat="45.85773" lon="3.09491">
        <ele>491</ele>
        <time>2021-08-15T07:41:15Z</time>
      </trkpt>
      <trkpt lat="45.85772" lon="3.09489">
        <ele>491</ele>
        <time>2021-08-15T07:41:16Z</time>
      </trkpt>
      <trkpt lat="45.85771" lon="3.09487">
        <ele>491</ele>
        <time>2021-08-15T07:41:17Z</time>
      </trkpt>
      <trkpt lat="45.8577" lon="3.09486">
        <ele>491</ele>
        <time>2021-08-15T07:41:18Z</time>
      </trkpt>
      <trkpt lat="45.85769" lon="3.09484">
        <ele>491</ele>
        <time>2021-08-15T07:41:19Z</time>
      </trkpt>
      <trkpt lat="45.85768" lon="3.09482">
        <ele>491</ele>
        <time>2021-08-15T07:41:20Z</time>
      </trkpt>
      <trkpt lat="45.85767" lon="3.0948">
        <ele>491</ele>
        <time>2021-08-15T07:41:21Z</time>
      </trkpt>
      <trkpt lat="45.85766" lon="3.09478">
        <ele>491</ele>
        <time>2021-08-15T07:41:22Z</time>
      </trkpt>
      <trkpt lat="45.85764" lon="3.09477">
        <ele>491</ele>
        <time>2021-08-15T07:41:23Z</time>
      </trkpt>
      <trkpt lat="45.85763" lon="3.09475">
        <ele>491</ele>
        <time>2021-08-15T07:41:24Z</time>
      </trkpt>
      <trkpt lat="45.85762" lon="3.09473">
        <ele>491</ele>
        <time>2021-08-15T07:41:25Z</time>
      </trkpt>
      <trkpt lat="45.85761" lon="3.09471">
        <ele>491</ele>
        <time>2021-08-15T07:41:26Z</time>
      </trkpt>
      <trkpt lat="45.8576" lon="3.09469">
        <ele>491</ele>
        <time>2021-08-15T07:41:27Z</time>
      </trkpt>
      <trkpt lat="45.85759" lon="3.09467">
        <ele>491</ele>
        <time>2021-08-15T07:41:28Z</time>
      </trkpt>
      <trkpt lat="45.85758" lon="3.09465">
        <ele>491</ele>
        <time>2021-08-15T07:41:29Z</time>
      </trkpt>
      <trkpt lat="45.85757" lon="3.09463">
        <ele>491</ele>
        <time>2021-08-15T07:41:31Z</time>
      </trkpt>
      <trkpt lat="45.85753" lon="3.09455">
        <ele>491</ele>
        <time>2021-08-15T07:41:32Z</time>
      </trkpt>
      <trkpt lat="45.85753" lon="3.09454">
        <ele>491</ele>
        <time>2021-08-15T07:41:33Z</time>
      </trkpt>
      <trkpt lat="45.85753" lon="3.09453">
        <ele>491</ele>
        <time>2021-08-15T07:41:34Z</time>
      </trkpt>
      <trkpt lat="45.85752" lon="3.09452">
        <ele>491</ele>
        <time>2021-08-15T07:41:35Z</time>
      </trkpt>
      <trkpt lat="45.85751" lon="3.0945">
        <ele>491</ele>
        <time>2021-08-15T07:41:36Z</time>
      </trkpt>
      <trkpt lat="45.8575" lon="3.09448">
        <ele>491</ele>
        <time>2021-08-15T07:41:37Z</time>
      </trkpt>
      <trkpt lat="45.85749" lon="3.09446">
        <ele>491</ele>
        <time>2021-08-15T07:41:38Z</time>
      </trkpt>
      <trkpt lat="45.85748" lon="3.09444">
        <ele>491</ele>
        <time>2021-08-15T07:41:39Z</time>
      </trkpt>
      <trkpt lat="45.85746" lon="3.09443">
        <ele>491</ele>
        <time>2021-08-15T07:41:40Z</time>
      </trkpt>
      <trkpt lat="45.85745" lon="3.09441">
        <ele>491</ele>
        <time>2021-08-15T07:41:41Z</time>
      </trkpt>
      <trkpt lat="45.85744" lon="3.09439">
        <ele>491</ele>
        <time>2021-08-15T07:41:42Z</time>
      </trkpt>
      <trkpt lat="45.85742" lon="3.09437">
        <ele>491</ele>
        <time>2021-08-15T07:41:43Z</time>
      </trkpt>
      <trkpt lat="45.85741" lon="3.09435">
        <ele>491</ele>
        <time>2021-08-15T07:41:44Z</time>
      </trkpt>
      <trkpt lat="45.8574" lon="3.09433">
        <ele>491</ele>
        <time>2021-08-15T07:41:45Z</time>
      </trkpt>
      <trkpt lat="45.85739" lon="3.09431">
        <ele>491</ele>
        <time>2021-08-15T07:41:46Z</time>
      </trkpt>
      <trkpt lat="45.85739" lon="3.09429">
        <ele>491</ele>
        <time>2021-08-15T07:41:47Z</time>
      </trkpt>
      <trkpt lat="45.85738" lon="3.09427">
        <ele>491</ele>
        <time>2021-08-15T07:41:48Z</time>
      </trkpt>
      <trkpt lat="45.85737" lon="3.09425">
        <ele>491</ele>
        <time>2021-08-15T07:41:49Z</time>
      </trkpt>
      <trkpt lat="45.85735" lon="3.09423">
        <ele>491</ele>
        <time>2021-08-15T07:41:50Z</time>
      </trkpt>
      <trkpt lat="45.85734" lon="3.09421">
        <ele>491</ele>
        <time>2021-08-15T07:41:51Z</time>
      </trkpt>
      <trkpt lat="45.85733" lon="3.09418">
        <ele>491</ele>
        <time>2021-08-15T07:41:52Z</time>
      </trkpt>
      <trkpt lat="45.85732" lon="3.09416">
        <ele>491</ele>
        <time>2021-08-15T07:41:52Z</time>
      </trkpt>
      <trkpt lat="45.85731" lon="3.09414">
        <ele>491</ele>
        <time>2021-08-15T07:41:53Z</time>
      </trkpt>
      <trkpt lat="45.85729" lon="3.09411">
        <ele>491</ele>
        <time>2021-08-15T07:41:54Z</time>
      </trkpt>
      <trkpt lat="45.85728" lon="3.09409">
        <ele>491</ele>
        <time>2021-08-15T07:41:55Z</time>
      </trkpt>
      <trkpt lat="45.85727" lon="3.09407">
        <ele>491</ele>
        <time>2021-08-15T07:41:56Z</time>
      </trkpt>
      <trkpt lat="45.85726" lon="3.09405">
        <ele>491</ele>
        <time>2021-08-15T07:41:57Z</time>
      </trkpt>
      <trkpt lat="45.85725" lon="3.09403">
        <ele>491</ele>
        <time>2021-08-15T07:41:58Z</time>
      </trkpt>
      <trkpt lat="45.85724" lon="3.09401">
        <ele>491</ele>
        <time>2021-08-15T07:41:59Z</time>
      </trkpt>
      <trkpt lat="45.85723" lon="3.09399">
        <ele>491</ele>
        <time>2021-08-15T07:42:00Z</time>
      </trkpt>
      <trkpt lat="45.85722" lon="3.09397">
        <ele>491</ele>
        <time>2021-08-15T07:42:01Z</time>
      </trkpt>
      <trkpt lat="45.85721" lon="3.09396">
        <ele>491</ele>
        <time>2021-08-15T07:42:02Z</time>
      </trkpt>
      <trkpt lat="45.85721" lon="3.09394">
        <ele>491</ele>
        <time>2021-08-15T07:42:03Z</time>
      </trkpt>
      <trkpt lat="45.85719" lon="3.09392">
        <ele>491</ele>
        <time>2021-08-15T07:42:04Z</time>
      </trkpt>
      <trkpt lat="45.85718" lon="3.0939">
        <ele>491</ele>
        <time>2021-08-15T07:42:05Z</time>
      </trkpt>
      <trkpt lat="45.85718" lon="3.09388">
        <ele>491</ele>
        <time>2021-08-15T07:42:06Z</time>
      </trkpt>
      <trkpt lat="45.85717" lon="3.09386">
        <ele>491</ele>
        <time>2021-08-15T07:42:07Z</time>
      </trkpt>
      <trkpt lat="45.85716" lon="3.09384">
        <ele>491</ele>
        <time>2021-08-15T07:42:08Z</time>
      </trkpt>
      <trkpt lat="45.85715" lon="3.09382">
        <ele>491</ele>
        <time>2021-08-15T07:42:09Z</time>
      </trkpt>
      <trkpt lat="45.85714" lon="3.0938">
        <ele>491</ele>
        <time>2021-08-15T07:42:10Z</time>
      </trkpt>
      <trkpt lat="45.85713" lon="3.09378">
        <ele>491</ele>
        <time>2021-08-15T07:42:11Z</time>
      </trkpt>
      <trkpt lat="45.85712" lon="3.09376">
        <ele>491</ele>
        <time>2021-08-15T07:42:12Z</time>
      </trkpt>
      <trkpt lat="45.85712" lon="3.09375">
        <ele>491</ele>
        <time>2021-08-15T07:42:13Z</time>
      </trkpt>
      <trkpt lat="45.85711" lon="3.09373">
        <ele>491</ele>
        <time>2021-08-15T07:42:14Z</time>
      </trkpt>
      <trkpt lat="45.85711" lon="3.09371">
        <ele>491</ele>
        <time>2021-08-15T07:42:15Z</time>
      </trkpt>
      <trkpt lat="45.8571" lon="3.0937">
        <ele>491</ele>
        <time>2021-08-15T07:42:16Z</time>
      </trkpt>
      <trkpt lat="45.85709" lon="3.09368">
        <ele>491</ele>
        <time>2021-08-15T07:42:17Z</time>
      </trkpt>
      <trkpt lat="45.85709" lon="3.09366">
        <ele>491</ele>
        <time>2021-08-15T07:42:18Z</time>
      </trkpt>
      <trkpt lat="45.85709" lon="3.09364">
        <ele>491</ele>
        <time>2021-08-15T07:42:19Z</time>
      </trkpt>
      <trkpt lat="45.85709" lon="3.09362">
        <ele>491</ele>
        <time>2021-08-15T07:42:20Z</time>
      </trkpt>
      <trkpt lat="45.85708" lon="3.0936">
        <ele>491</ele>
        <time>2021-08-15T07:42:21Z</time>
      </trkpt>
      <trkpt lat="45.85708" lon="3.09358">
        <ele>491</ele>
        <time>2021-08-15T07:42:22Z</time>
      </trkpt>
      <trkpt lat="45.85707" lon="3.09356">
        <ele>491</ele>
        <time>2021-08-15T07:42:23Z</time>
      </trkpt>
      <trkpt lat="45.85706" lon="3.09354">
        <ele>491</ele>
        <time>2021-08-15T07:42:24Z</time>
      </trkpt>
      <trkpt lat="45.85705" lon="3.09352">
        <ele>491</ele>
        <time>2021-08-15T07:42:25Z</time>
      </trkpt>
      <trkpt lat="45.85704" lon="3.09349">
        <ele>491</ele>
        <time>2021-08-15T07:42:26Z</time>
      </trkpt>
      <trkpt lat="45.85703" lon="3.09347">
        <ele>491</ele>
        <time>2021-08-15T07:42:27Z</time>
      </trkpt>
      <trkpt lat="45.85703" lon="3.09345">
        <ele>491</ele>
        <time>2021-08-15T07:42:29Z</time>
      </trkpt>
      <trkpt lat="45.857" lon="3.09336">
        <ele>491</ele>
        <time>2021-08-15T07:42:30Z</time>
      </trkpt>
      <trkpt lat="45.857" lon="3.09335">
        <ele>491</ele>
        <time>2021-08-15T07:42:31Z</time>
      </trkpt>
      <trkpt lat="45.85699" lon="3.09334">
        <ele>491</ele>
        <time>2021-08-15T07:42:32Z</time>
      </trkpt>
      <trkpt lat="45.85699" lon="3.09333">
        <ele>491</ele>
        <time>2021-08-15T07:42:33Z</time>
      </trkpt>
      <trkpt lat="45.85698" lon="3.09332">
        <ele>491</ele>
        <time>2021-08-15T07:42:34Z</time>
      </trkpt>
      <trkpt lat="45.85698" lon="3.09329">
        <ele>491</ele>
        <time>2021-08-15T07:42:35Z</time>
      </trkpt>
      <trkpt lat="45.85697" lon="3.09327">
        <ele>491</ele>
        <time>2021-08-15T07:42:36Z</time>
      </trkpt>
      <trkpt lat="45.85697" lon="3.09325">
        <ele>491</ele>
        <time>2021-08-15T07:42:37Z</time>
      </trkpt>
      <trkpt lat="45.85696" lon="3.09322">
        <ele>491</ele>
        <time>2021-08-15T07:42:38Z</time>
      </trkpt>
      <trkpt lat="45.85695" lon="3.0932">
        <ele>491</ele>
        <time>2021-08-15T07:42:39Z</time>
      </trkpt>
      <trkpt lat="45.85694" lon="3.09317">
        <ele>491</ele>
        <time>2021-08-15T07:42:40Z</time>
      </trkpt>
      <trkpt lat="45.85694" lon="3.09315">
        <ele>491</ele>
        <time>2021-08-15T07:42:41Z</time>
      </trkpt>
      <trkpt lat="45.85693" lon="3.09313">
        <ele>491</ele>
        <time>2021-08-15T07:42:42Z</time>
      </trkpt>
      <trkpt lat="45.85692" lon="3.0931">
        <ele>491</ele>
        <time>2021-08-15T07:42:43Z</time>
      </trkpt>
      <trkpt lat="45.85692" lon="3.09308">
        <ele>491</ele>
        <time>2021-08-15T07:42:44Z</time>
      </trkpt>
      <trkpt lat="45.85691" lon="3.09305">
        <ele>491</ele>
        <time>2021-08-15T07:42:45Z</time>
      </trkpt>
      <trkpt lat="45.85691" lon="3.09303">
        <ele>491</ele>
        <time>2021-08-15T07:42:46Z</time>
      </trkpt>
      <trkpt lat="45.8569" lon="3.093">
        <ele>491</ele>
        <time>2021-08-15T07:42:47Z</time>
      </trkpt>
      <trkpt lat="45.8569" lon="3.09298">
        <ele>491</ele>
        <time>2021-08-15T07:42:48Z</time>
      </trkpt>
      <trkpt lat="45.85688" lon="3.09295">
        <ele>491</ele>
        <time>2021-08-15T07:42:49Z</time>
      </trkpt>
      <trkpt lat="45.85688" lon="3.09293">
        <ele>491</ele>
        <time>2021-08-15T07:42:50Z</time>
      </trkpt>
      <trkpt lat="45.85687" lon="3.09291">
        <ele>491</ele>
        <time>2021-08-15T07:42:51Z</time>
      </trkpt>
      <trkpt lat="45.85687" lon="3.09289">
        <ele>491</ele>
        <time>2021-08-15T07:42:52Z</time>
      </trkpt>
      <trkpt lat="45.85686" lon="3.09286">
        <ele>491</ele>
        <time>2021-08-15T07:42:53Z</time>
      </trkpt>
      <trkpt lat="45.85686" lon="3.09284">
        <ele>491</ele>
        <time>2021-08-15T07:42:54Z</time>
      </trkpt>
      <trkpt lat="45.85685" lon="3.09282">
        <ele>491</ele>
        <time>2021-08-15T07:42:55Z</time>
      </trkpt>
      <trkpt lat="45.85685" lon="3.09279">
        <ele>491</ele>
        <time>2021-08-15T07:42:56Z</time>
      </trkpt>
      <trkpt lat="45.85685" lon="3.09276">
        <ele>491</ele>
        <time>2021-08-15T07:42:57Z</time>
      </trkpt>
      <trkpt lat="45.85684" lon="3.09274">
        <ele>491</ele>
        <time>2021-08-15T07:42:58Z</time>
      </trkpt>
      <trkpt lat="45.85683" lon="3.09271">
        <ele>491</ele>
        <time>2021-08-15T07:42:59Z</time>
      </trkpt>
      <trkpt lat="45.85682" lon="3.09269">
        <ele>491</ele>
        <time>2021-08-15T07:43:00Z</time>
      </trkpt>
      <trkpt lat="45.85682" lon="3.09267">
        <ele>491</ele>
        <time>2021-08-15T07:43:01Z</time>
      </trkpt>
      <trkpt lat="45.85682" lon="3.09264">
        <ele>491</ele>
        <time>2021-08-15T07:43:02Z</time>
      </trkpt>
      <trkpt lat="45.85682" lon="3.09262">
        <ele>491</ele>
        <time>2021-08-15T07:43:03Z</time>
      </trkpt>
      <trkpt lat="45.85681" lon="3.0926">
        <ele>491</ele>
        <time>2021-08-15T07:43:04Z</time>
      </trkpt>
      <trkpt lat="45.8568" lon="3.09258">
        <ele>491</ele>
        <time>2021-08-15T07:43:05Z</time>
      </trkpt>
      <trkpt lat="45.8568" lon="3.09255">
        <ele>491</ele>
        <time>2021-08-15T07:43:06Z</time>
      </trkpt>
      <trkpt lat="45.85679" lon="3.09253">
        <ele>491</ele>
        <time>2021-08-15T07:43:07Z</time>
      </trkpt>
      <trkpt lat="45.85679" lon="3.09251">
        <ele>491</ele>
        <time>2021-08-15T07:43:08Z</time>
      </trkpt>
      <trkpt lat="45.85679" lon="3.09249">
        <ele>491</ele>
        <time>2021-08-15T07:43:09Z</time>
      </trkpt>
      <trkpt lat="45.85679" lon="3.09247">
        <ele>491</ele>
        <time>2021-08-15T07:43:10Z</time>
      </trkpt>
      <trkpt lat="45.85678" lon="3.09244">
        <ele>491</ele>
        <time>2021-08-15T07:43:11Z</time>
      </trkpt>
      <trkpt lat="45.85677" lon="3.09242">
        <ele>491</ele>
        <time>2021-08-15T07:43:12Z</time>
      </trkpt>
      <trkpt lat="45.85677" lon="3.0924">
        <ele>491</ele>
        <time>2021-08-15T07:43:13Z</time>
      </trkpt>
      <trkpt lat="45.85677" lon="3.09238">
        <ele>491</ele>
        <time>2021-08-15T07:43:14Z</time>
      </trkpt>
      <trkpt lat="45.85676" lon="3.09236">
        <ele>491</ele>
        <time>2021-08-15T07:43:15Z</time>
      </trkpt>
      <trkpt lat="45.85675" lon="3.09234">
        <ele>491</ele>
        <time>2021-08-15T07:43:16Z</time>
      </trkpt>
      <trkpt lat="45.85675" lon="3.09232">
        <ele>491</ele>
        <time>2021-08-15T07:43:17Z</time>
      </trkpt>
      <trkpt lat="45.85674" lon="3.09231">
        <ele>491</ele>
        <time>2021-08-15T07:43:18Z</time>
      </trkpt>
      <trkpt lat="45.85674" lon="3.09229">
        <ele>491</ele>
        <time>2021-08-15T07:43:19Z</time>
      </trkpt>
      <trkpt lat="45.85673" lon="3.09227">
        <ele>491</ele>
        <time>2021-08-15T07:43:20Z</time>
      </trkpt>
      <trkpt lat="45.85673" lon="3.09225">
        <ele>491</ele>
        <time>2021-08-15T07:43:21Z</time>
      </trkpt>
      <trkpt lat="45.85672" lon="3.09223">
        <ele>491</ele>
        <time>2021-08-15T07:43:22Z</time>
      </trkpt>
      <trkpt lat="45.85672" lon="3.09221">
        <ele>491</ele>
        <time>2021-08-15T07:43:23Z</time>
      </trkpt>
      <trkpt lat="45.85671" lon="3.09219">
        <ele>491</ele>
        <time>2021-08-15T07:43:24Z</time>
      </trkpt>
      <trkpt lat="45.85671" lon="3.09217">
        <ele>491</ele>
        <time>2021-08-15T07:43:25Z</time>
      </trkpt>
      <trkpt lat="45.8567" lon="3.09215">
        <ele>491</ele>
        <time>2021-08-15T07:43:26Z</time>
      </trkpt>
      <trkpt lat="45.8567" lon="3.09214">
        <ele>491</ele>
        <time>2021-08-15T07:43:29Z</time>
      </trkpt>
      <trkpt lat="45.85668" lon="3.09204">
        <ele>491</ele>
        <time>2021-08-15T07:43:30Z</time>
      </trkpt>
      <trkpt lat="45.85667" lon="3.09203">
        <ele>491</ele>
        <time>2021-08-15T07:43:31Z</time>
      </trkpt>
      <trkpt lat="45.85667" lon="3.09202">
        <ele>491</ele>
        <time>2021-08-15T07:43:32Z</time>
      </trkpt>
      <trkpt lat="45.85667" lon="3.092">
        <ele>491</ele>
        <time>2021-08-15T07:43:33Z</time>
      </trkpt>
      <trkpt lat="45.85666" lon="3.09198">
        <ele>491</ele>
        <time>2021-08-15T07:43:34Z</time>
      </trkpt>
      <trkpt lat="45.85666" lon="3.09196">
        <ele>491</ele>
        <time>2021-08-15T07:43:35Z</time>
      </trkpt>
      <trkpt lat="45.85665" lon="3.09195">
        <ele>491</ele>
        <time>2021-08-15T07:43:36Z</time>
      </trkpt>
      <trkpt lat="45.85664" lon="3.09193">
        <ele>491</ele>
        <time>2021-08-15T07:43:37Z</time>
      </trkpt>
      <trkpt lat="45.85664" lon="3.09191">
        <ele>491</ele>
        <time>2021-08-15T07:43:38Z</time>
      </trkpt>
      <trkpt lat="45.85664" lon="3.09189">
        <ele>491</ele>
        <time>2021-08-15T07:43:39Z</time>
      </trkpt>
      <trkpt lat="45.85664" lon="3.09187">
        <ele>491</ele>
        <time>2021-08-15T07:43:40Z</time>
      </trkpt>
      <trkpt lat="45.85663" lon="3.09185">
        <ele>491</ele>
        <time>2021-08-15T07:43:41Z</time>
      </trkpt>
      <trkpt lat="45.85663" lon="3.09183">
        <ele>491</ele>
        <time>2021-08-15T07:43:42Z</time>
      </trkpt>
      <trkpt lat="45.85663" lon="3.09181">
        <ele>491</ele>
        <time>2021-08-15T07:43:43Z</time>
      </trkpt>
      <trkpt lat="45.85662" lon="3.09179">
        <ele>491</ele>
        <time>2021-08-15T07:43:44Z</time>
      </trkpt>
      <trkpt lat="45.85661" lon="3.09177">
        <ele>491</ele>
        <time>2021-08-15T07:43:45Z</time>
      </trkpt>
      <trkpt lat="45.85661" lon="3.09174">
        <ele>491</ele>
        <time>2021-08-15T07:43:46Z</time>
      </trkpt>
      <trkpt lat="45.85661" lon="3.09171">
        <ele>491</ele>
        <time>2021-08-15T07:43:47Z</time>
      </trkpt>
      <trkpt lat="45.85661" lon="3.09169">
        <ele>491</ele>
        <time>2021-08-15T07:43:48Z</time>
      </trkpt>
      <trkpt lat="45.85661" lon="3.09166">
        <ele>491</ele>
        <time>2021-08-15T07:43:49Z</time>
      </trkpt>
      <trkpt lat="45.8566" lon="3.09164">
        <ele>491</ele>
        <time>2021-08-15T07:43:50Z</time>
      </trkpt>
      <trkpt lat="45.85659" lon="3.09161">
        <ele>491</ele>
        <time>2021-08-15T07:43:51Z</time>
      </trkpt>
      <trkpt lat="45.85658" lon="3.09158">
        <ele>491</ele>
        <time>2021-08-15T07:43:52Z</time>
      </trkpt>
      <trkpt lat="45.85658" lon="3.09156">
        <ele>491</ele>
        <time>2021-08-15T07:43:53Z</time>
      </trkpt>
      <trkpt lat="45.85657" lon="3.09154">
        <ele>491</ele>
        <time>2021-08-15T07:43:54Z</time>
      </trkpt>
      <trkpt lat="45.85656" lon="3.09152">
        <ele>491</ele>
        <time>2021-08-15T07:43:55Z</time>
      </trkpt>
      <trkpt lat="45.85655" lon="3.0915">
        <ele>491</ele>
        <time>2021-08-15T07:43:56Z</time>
      </trkpt>
      <trkpt lat="45.85654" lon="3.09149">
        <ele>491</ele>
        <time>2021-08-15T07:43:57Z</time>
      </trkpt>
      <trkpt lat="45.85653" lon="3.09147">
        <ele>491</ele>
        <time>2021-08-15T07:43:58Z</time>
      </trkpt>
      <trkpt lat="45.85653" lon="3.09145">
        <ele>491</ele>
        <time>2021-08-15T07:43:59Z</time>
      </trkpt>
      <trkpt lat="45.85652" lon="3.09144">
        <ele>491</ele>
        <time>2021-08-15T07:44:00Z</time>
      </trkpt>
      <trkpt lat="45.85651" lon="3.09142">
        <ele>491</ele>
        <time>2021-08-15T07:44:01Z</time>
      </trkpt>
      <trkpt lat="45.8565" lon="3.0914">
        <ele>491</ele>
        <time>2021-08-15T07:44:02Z</time>
      </trkpt>
      <trkpt lat="45.85649" lon="3.09138">
        <ele>491</ele>
        <time>2021-08-15T07:44:03Z</time>
      </trkpt>
      <trkpt lat="45.85648" lon="3.09136">
        <ele>491</ele>
        <time>2021-08-15T07:44:04Z</time>
      </trkpt>
      <trkpt lat="45.85646" lon="3.09134">
        <ele>491</ele>
        <time>2021-08-15T07:44:05Z</time>
      </trkpt>
      <trkpt lat="45.85644" lon="3.09131">
        <ele>491</ele>
        <time>2021-08-15T07:44:06Z</time>
      </trkpt>
      <trkpt lat="45.85643" lon="3.09129">
        <ele>491</ele>
        <time>2021-08-15T07:44:07Z</time>
      </trkpt>
      <trkpt lat="45.8564" lon="3.09127">
        <ele>491</ele>
        <time>2021-08-15T07:44:08Z</time>
      </trkpt>
      <trkpt lat="45.85639" lon="3.09125">
        <ele>491</ele>
        <time>2021-08-15T07:44:09Z</time>
      </trkpt>
      <trkpt lat="45.85637" lon="3.09123">
        <ele>491</ele>
        <time>2021-08-15T07:44:10Z</time>
      </trkpt>
      <trkpt lat="45.85635" lon="3.09122">
        <ele>491</ele>
        <time>2021-08-15T07:44:11Z</time>
      </trkpt>
      <trkpt lat="45.85634" lon="3.0912">
        <ele>491</ele>
        <time>2021-08-15T07:44:12Z</time>
      </trkpt>
      <trkpt lat="45.85632" lon="3.09118">
        <ele>491</ele>
        <time>2021-08-15T07:44:13Z</time>
      </trkpt>
      <trkpt lat="45.8563" lon="3.09117">
        <ele>491</ele>
        <time>2021-08-15T07:44:14Z</time>
      </trkpt>
      <trkpt lat="45.85629" lon="3.09115">
        <ele>491</ele>
        <time>2021-08-15T07:44:15Z</time>
      </trkpt>
      <trkpt lat="45.85627" lon="3.09114">
        <ele>491</ele>
        <time>2021-08-15T07:44:16Z</time>
      </trkpt>
      <trkpt lat="45.85625" lon="3.09112">
        <ele>491</ele>
        <time>2021-08-15T07:44:17Z</time>
      </trkpt>
      <trkpt lat="45.85624" lon="3.0911">
        <ele>491</ele>
        <time>2021-08-15T07:44:18Z</time>
      </trkpt>
      <trkpt lat="45.85622" lon="3.09108">
        <ele>491</ele>
        <time>2021-08-15T07:44:19Z</time>
      </trkpt>
      <trkpt lat="45.85621" lon="3.09107">
        <ele>491</ele>
        <time>2021-08-15T07:44:20Z</time>
      </trkpt>
      <trkpt lat="45.85619" lon="3.09105">
        <ele>491</ele>
        <time>2021-08-15T07:44:21Z</time>
      </trkpt>
      <trkpt lat="45.85617" lon="3.09104">
        <ele>491</ele>
        <time>2021-08-15T07:44:22Z</time>
      </trkpt>
      <trkpt lat="45.85616" lon="3.09102">
        <ele>491</ele>
        <time>2021-08-15T07:44:23Z</time>
      </trkpt>
      <trkpt lat="45.85615" lon="3.09101">
        <ele>491</ele>
        <time>2021-08-15T07:44:24Z</time>
      </trkpt>
      <trkpt lat="45.85613" lon="3.09099">
        <ele>491</ele>
        <time>2021-08-15T07:44:25Z</time>
      </trkpt>
      <trkpt lat="45.85612" lon="3.09098">
        <ele>491</ele>
        <time>2021-08-15T07:44:26Z</time>
      </trkpt>
      <trkpt lat="45.8561" lon="3.09097">
        <ele>491</ele>
        <time>2021-08-15T07:44:28Z</time>
      </trkpt>
      <trkpt lat="45.85608" lon="3.09096">
        <ele>491</ele>
        <time>2021-08-15T07:44:29Z</time>
      </trkpt>
      <trkpt lat="45.85607" lon="3.09095">
        <ele>491</ele>
        <time>2021-08-15T07:44:30Z</time>
      </trkpt>
      <trkpt lat="45.856" lon="3.09092">
        <ele>491</ele>
        <time>2021-08-15T07:44:31Z</time>
      </trkpt>
      <trkpt lat="45.856" lon="3.09092">
        <ele>491</ele>
        <time>2021-08-15T07:44:32Z</time>
      </trkpt>
      <trkpt lat="45.85598" lon="3.09091">
        <ele>491</ele>
        <time>2021-08-15T07:44:33Z</time>
      </trkpt>
      <trkpt lat="45.85598" lon="3.09091">
        <ele>491</ele>
        <time>2021-08-15T07:44:34Z</time>
      </trkpt>
      <trkpt lat="45.85596" lon="3.0909">
        <ele>491</ele>
        <time>2021-08-15T07:44:35Z</time>
      </trkpt>
      <trkpt lat="45.85595" lon="3.09089">
        <ele>491</ele>
        <time>2021-08-15T07:44:36Z</time>
      </trkpt>
      <trkpt lat="45.85593" lon="3.09088">
        <ele>491</ele>
        <time>2021-08-15T07:44:37Z</time>
      </trkpt>
      <trkpt lat="45.85592" lon="3.09087">
        <ele>491</ele>
        <time>2021-08-15T07:44:38Z</time>
      </trkpt>
      <trkpt lat="45.8559" lon="3.09086">
        <ele>491</ele>
        <time>2021-08-15T07:44:39Z</time>
      </trkpt>
      <trkpt lat="45.85589" lon="3.09085">
        <ele>491</ele>
        <time>2021-08-15T07:44:40Z</time>
      </trkpt>
      <trkpt lat="45.85587" lon="3.09084">
        <ele>491</ele>
        <time>2021-08-15T07:44:41Z</time>
      </trkpt>
      <trkpt lat="45.85586" lon="3.09083">
        <ele>491</ele>
        <time>2021-08-15T07:44:42Z</time>
      </trkpt>
      <trkpt lat="45.85584" lon="3.09083">
        <ele>491</ele>
        <time>2021-08-15T07:44:43Z</time>
      </trkpt>
      <trkpt lat="45.85583" lon="3.09082">
        <ele>491</ele>
        <time>2021-08-15T07:44:44Z</time>
      </trkpt>
      <trkpt lat="45.85581" lon="3.09081">
        <ele>491</ele>
        <time>2021-08-15T07:44:45Z</time>
      </trkpt>
      <trkpt lat="45.8558" lon="3.0908">
        <ele>491</ele>
        <time>2021-08-15T07:44:46Z</time>
      </trkpt>
      <trkpt lat="45.85578" lon="3.0908">
        <ele>491</ele>
        <time>2021-08-15T07:44:47Z</time>
      </trkpt>
      <trkpt lat="45.85577" lon="3.09079">
        <ele>491</ele>
        <time>2021-08-15T07:44:48Z</time>
      </trkpt>
      <trkpt lat="45.85575" lon="3.09078">
        <ele>491</ele>
        <time>2021-08-15T07:44:49Z</time>
      </trkpt>
      <trkpt lat="45.85573" lon="3.09078">
        <ele>491</ele>
        <time>2021-08-15T07:44:50Z</time>
      </trkpt>
      <trkpt lat="45.85572" lon="3.09077">
        <ele>491</ele>
        <time>2021-08-15T07:44:51Z</time>
      </trkpt>
      <trkpt lat="45.8557" lon="3.09076">
        <ele>491</ele>
        <time>2021-08-15T07:44:52Z</time>
      </trkpt>
      <trkpt lat="45.85569" lon="3.09076">
        <ele>491</ele>
        <time>2021-08-15T07:44:53Z</time>
      </trkpt>
      <trkpt lat="45.85567" lon="3.09075">
        <ele>491</ele>
        <time>2021-08-15T07:44:54Z</time>
      </trkpt>
      <trkpt lat="45.85566" lon="3.09075">
        <ele>491</ele>
        <time>2021-08-15T07:44:55Z</time>
      </trkpt>
      <trkpt lat="45.85564" lon="3.09074">
        <ele>491</ele>
        <time>2021-08-15T07:44:56Z</time>
      </trkpt>
      <trkpt lat="45.85562" lon="3.09073">
        <ele>491</ele>
        <time>2021-08-15T07:44:57Z</time>
      </trkpt>
      <trkpt lat="45.85561" lon="3.09073">
        <ele>491</ele>
        <time>2021-08-15T07:44:58Z</time>
      </trkpt>
      <trkpt lat="45.85559" lon="3.09072">
        <ele>491</ele>
        <time>2021-08-15T07:44:59Z</time>
      </trkpt>
      <trkpt lat="45.85557" lon="3.09071">
        <ele>491</ele>
        <time>2021-08-15T07:45:00Z</time>
      </trkpt>
      <trkpt lat="45.85555" lon="3.09071">
        <ele>491</ele>
        <time>2021-08-15T07:45:01Z</time>
      </trkpt>
      <trkpt lat="45.85553" lon="3.0907">
        <ele>491</ele>
        <time>2021-08-15T07:45:02Z</time>
      </trkpt>
      <trkpt lat="45.85552" lon="3.0907">
        <ele>491</ele>
        <time>2021-08-15T07:45:03Z</time>
      </trkpt>
      <trkpt lat="45.8555" lon="3.09069">
        <ele>491</ele>
        <time>2021-08-15T07:45:04Z</time>
      </trkpt>
      <trkpt lat="45.85549" lon="3.09069">
        <ele>491</ele>
        <time>2021-08-15T07:45:05Z</time>
      </trkpt>
      <trkpt lat="45.85547" lon="3.09068">
        <ele>491</ele>
        <time>2021-08-15T07:45:06Z</time>
      </trkpt>
      <trkpt lat="45.85546" lon="3.09067">
        <ele>491</ele>
        <time>2021-08-15T07:45:07Z</time>
      </trkpt>
      <trkpt lat="45.85544" lon="3.09066">
        <ele>491</ele>
        <time>2021-08-15T07:45:08Z</time>
      </trkpt>
      <trkpt lat="45.85543" lon="3.09066">
        <ele>491</ele>
        <time>2021-08-15T07:45:09Z</time>
      </trkpt>
      <trkpt lat="45.85541" lon="3.09065">
        <ele>491</ele>
        <time>2021-08-15T07:45:10Z</time>
      </trkpt>
      <trkpt lat="45.8554" lon="3.09064">
        <ele>491</ele>
        <time>2021-08-15T07:45:11Z</time>
      </trkpt>
      <trkpt lat="45.85538" lon="3.09063">
        <ele>491</ele>
        <time>2021-08-15T07:45:12Z</time>
      </trkpt>
      <trkpt lat="45.85537" lon="3.09063">
        <ele>491</ele>
        <time>2021-08-15T07:45:13Z</time>
      </trkpt>
      <trkpt lat="45.85535" lon="3.09062">
        <ele>491</ele>
        <time>2021-08-15T07:45:14Z</time>
      </trkpt>
      <trkpt lat="45.85534" lon="3.09061">
        <ele>491</ele>
        <time>2021-08-15T07:45:15Z</time>
      </trkpt>
      <trkpt lat="45.85532" lon="3.0906">
        <ele>491</ele>
        <time>2021-08-15T07:45:16Z</time>
      </trkpt>
      <trkpt lat="45.85531" lon="3.0906">
        <ele>491</ele>
        <time>2021-08-15T07:45:17Z</time>
      </trkpt>
      <trkpt lat="45.8553" lon="3.09059">
        <ele>491</ele>
        <time>2021-08-15T07:45:18Z</time>
      </trkpt>
      <trkpt lat="45.85529" lon="3.09058">
        <ele>491</ele>
        <time>2021-08-15T07:45:19Z</time>
      </trkpt>
      <trkpt lat="45.85527" lon="3.09058">
        <ele>491</ele>
        <time>2021-08-15T07:45:20Z</time>
      </trkpt>
      <trkpt lat="45.85526" lon="3.09057">
        <ele>491</ele>
        <time>2021-08-15T07:45:21Z</time>
      </trkpt>
      <trkpt lat="45.85525" lon="3.09056">
        <ele>491</ele>
        <time>2021-08-15T07:45:22Z</time>
      </trkpt>
      <trkpt lat="45.85524" lon="3.09056">
        <ele>491</ele>
        <time>2021-08-15T07:45:23Z</time>
      </trkpt>
      <trkpt lat="45.85522" lon="3.09055">
        <ele>491</ele>
        <time>2021-08-15T07:45:24Z</time>
      </trkpt>
      <trkpt lat="45.85521" lon="3.09054">
        <ele>491</ele>
        <time>2021-08-15T07:45:25Z</time>
      </trkpt>
      <trkpt lat="45.8552" lon="3.09053">
        <ele>491</ele>
        <time>2021-08-15T07:45:26Z</time>
      </trkpt>
      <trkpt lat="45.85519" lon="3.09053">
        <ele>491</ele>
        <time>2021-08-15T07:45:27Z</time>
      </trkpt>
      <trkpt lat="45.85518" lon="3.09052">
        <ele>491</ele>
        <time>2021-08-15T07:45:29Z</time>
      </trkpt>
      <trkpt lat="45.85513" lon="3.09049">
        <ele>491</ele>
        <time>2021-08-15T07:45:30Z</time>
      </trkpt>
      <trkpt lat="45.85513" lon="3.09049">
        <ele>491</ele>
        <time>2021-08-15T07:45:31Z</time>
      </trkpt>
      <trkpt lat="45.85512" lon="3.09049">
        <ele>491</ele>
        <time>2021-08-15T07:45:32Z</time>
      </trkpt>
      <trkpt lat="45.85511" lon="3.09049">
        <ele>491</ele>
        <time>2021-08-15T07:45:33Z</time>
      </trkpt>
      <trkpt lat="45.8551" lon="3.09049">
        <ele>491</ele>
        <time>2021-08-15T07:45:34Z</time>
      </trkpt>
      <trkpt lat="45.8551" lon="3.09049">
        <ele>491</ele>
        <time>2021-08-15T07:45:35Z</time>
      </trkpt>
      <trkpt lat="45.85508" lon="3.09049">
        <ele>491</ele>
        <time>2021-08-15T07:45:36Z</time>
      </trkpt>
      <trkpt lat="45.85507" lon="3.0905">
        <ele>491</ele>
        <time>2021-08-15T07:45:37Z</time>
      </trkpt>
      <trkpt lat="45.85506" lon="3.0905">
        <ele>491</ele>
        <time>2021-08-15T07:45:38Z</time>
      </trkpt>
      <trkpt lat="45.85504" lon="3.09051">
        <ele>491</ele>
        <time>2021-08-15T07:45:39Z</time>
      </trkpt>
      <trkpt lat="45.85503" lon="3.09051">
        <ele>491</ele>
        <time>2021-08-15T07:45:40Z</time>
      </trkpt>
      <trkpt lat="45.85502" lon="3.09051">
        <ele>491</ele>
        <time>2021-08-15T07:45:41Z</time>
      </trkpt>
      <trkpt lat="45.85501" lon="3.09051">
        <ele>491</ele>
        <time>2021-08-15T07:45:42Z</time>
      </trkpt>
      <trkpt lat="45.85499" lon="3.09051">
        <ele>491</ele>
        <time>2021-08-15T07:45:43Z</time>
      </trkpt>
      <trkpt lat="45.85498" lon="3.09051">
        <ele>491</ele>
        <time>2021-08-15T07:45:44Z</time>
      </trkpt>
      <trkpt lat="45.85496" lon="3.09051">
        <ele>491</ele>
        <time>2021-08-15T07:45:45Z</time>
      </trkpt>
      <trkpt lat="45.85495" lon="3.09051">
        <ele>491</ele>
        <time>2021-08-15T07:45:46Z</time>
      </trkpt>
      <trkpt lat="45.85493" lon="3.09052">
        <ele>491</ele>
        <time>2021-08-15T07:45:47Z</time>
      </trkpt>
      <trkpt lat="45.85492" lon="3.09052">
        <ele>491</ele>
        <time>2021-08-15T07:45:48Z</time>
      </trkpt>
      <trkpt lat="45.8549" lon="3.09052">
        <ele>491</ele>
        <time>2021-08-15T07:45:49Z</time>
      </trkpt>
      <trkpt lat="45.85489" lon="3.09052">
        <ele>491</ele>
        <time>2021-08-15T07:45:50Z</time>
      </trkpt>
      <trkpt lat="45.85487" lon="3.09053">
        <ele>491</ele>
        <time>2021-08-15T07:45:51Z</time>
      </trkpt>
      <trkpt lat="45.85486" lon="3.09054">
        <ele>491</ele>
        <time>2021-08-15T07:45:52Z</time>
      </trkpt>
      <trkpt lat="45.85484" lon="3.09054">
        <ele>491</ele>
        <time>2021-08-15T07:45:53Z</time>
      </trkpt>
      <trkpt lat="45.85482" lon="3.09055">
        <ele>491</ele>
        <time>2021-08-15T07:45:54Z</time>
      </trkpt>
      <trkpt lat="45.85481" lon="3.09056">
        <ele>491</ele>
        <time>2021-08-15T07:45:55Z</time>
      </trkpt>
      <trkpt lat="45.85479" lon="3.09057">
        <ele>491</ele>
        <time>2021-08-15T07:45:56Z</time>
      </trkpt>
      <trkpt lat="45.85477" lon="3.09057">
        <ele>491</ele>
        <time>2021-08-15T07:45:57Z</time>
      </trkpt>
      <trkpt lat="45.85476" lon="3.09058">
        <ele>491</ele>
        <time>2021-08-15T07:45:58Z</time>
      </trkpt>
      <trkpt lat="45.85474" lon="3.09058">
        <ele>491</ele>
        <time>2021-08-15T07:45:59Z</time>
      </trkpt>
      <trkpt lat="45.85472" lon="3.09059">
        <ele>491</ele>
        <time>2021-08-15T07:46:00Z</time>
      </trkpt>
      <trkpt lat="45.85471" lon="3.09059">
        <ele>491</ele>
        <time>2021-08-15T07:46:01Z</time>
      </trkpt>
      <trkpt lat="45.85469" lon="3.09059">
        <ele>491</ele>
        <time>2021-08-15T07:46:02Z</time>
      </trkpt>
      <trkpt lat="45.85468" lon="3.0906">
        <ele>491</ele>
        <time>2021-08-15T07:46:03Z</time>
      </trkpt>
      <trkpt lat="45.85466" lon="3.0906">
        <ele>491</ele>
        <time>2021-08-15T07:46:04Z</time>
      </trkpt>
      <trkpt lat="45.85465" lon="3.0906">
        <ele>491</ele>
        <time>2021-08-15T07:46:05Z</time>
      </trkpt>
      <trkpt lat="45.85463" lon="3.0906">
        <ele>491</ele>
        <time>2021-08-15T07:46:06Z</time>
      </trkpt>
      <trkpt lat="45.85461" lon="3.09061">
        <ele>491</ele>
        <time>2021-08-15T07:46:07Z</time>
      </trkpt>
      <trkpt lat="45.8546" lon="3.09061">
        <ele>491</ele>
        <time>2021-08-15T07:46:07Z</time>
      </trkpt>
      <trkpt lat="45.85458" lon="3.09062">
        <ele>491</ele>
        <time>2021-08-15T07:46:08Z</time>
      </trkpt>
      <trkpt lat="45.85457" lon="3.09062">
        <ele>491</ele>
        <time>2021-08-15T07:46:09Z</time>
      </trkpt>
      <trkpt lat="45.85456" lon="3.09062">
        <ele>491</ele>
        <time>2021-08-15T07:46:10Z</time>
      </trkpt>
      <trkpt lat="45.85454" lon="3.09062">
        <ele>491</ele>
        <time>2021-08-15T07:46:11Z</time>
      </trkpt>
      <trkpt lat="45.85453" lon="3.09062">
        <ele>491</ele>
        <time>2021-08-15T07:46:12Z</time>
      </trkpt>
      <trkpt lat="45.85451" lon="3.09062">
        <ele>491</ele>
        <time>2021-08-15T07:46:13Z</time>
      </trkpt>
      <trkpt lat="45.8545" lon="3.09062">
        <ele>491</ele>
        <time>2021-08-15T07:46:14Z</time>
      </trkpt>
      <trkpt lat="45.85449" lon="3.09061">
        <ele>491</ele>
        <time>2021-08-15T07:46:15Z</time>
      </trkpt>
      <trkpt lat="45.85447" lon="3.09061">
        <ele>491</ele>
        <time>2021-08-15T07:46:16Z</time>
      </trkpt>
      <trkpt lat="45.85445" lon="3.0906">
        <ele>491</ele>
        <time>2021-08-15T07:46:17Z</time>
      </trkpt>
      <trkpt lat="45.85444" lon="3.09059">
        <ele>491</ele>
        <time>2021-08-15T07:46:18Z</time>
      </trkpt>
      <trkpt lat="45.85444" lon="3.09059">
        <ele>491</ele>
        <time>2021-08-15T07:46:19Z</time>
      </trkpt>
      <trkpt lat="45.85442" lon="3.09058">
        <ele>491</ele>
        <time>2021-08-15T07:46:20Z</time>
      </trkpt>
      <trkpt lat="45.85441" lon="3.09058">
        <ele>491</ele>
        <time>2021-08-15T07:46:21Z</time>
      </trkpt>
      <trkpt lat="45.8544" lon="3.09057">
        <ele>491</ele>
        <time>2021-08-15T07:46:22Z</time>
      </trkpt>
      <trkpt lat="45.85439" lon="3.09056">
        <ele>491</ele>
        <time>2021-08-15T07:46:23Z</time>
      </trkpt>
      <trkpt lat="45.85438" lon="3.09055">
        <ele>491</ele>
        <time>2021-08-15T07:46:24Z</time>
      </trkpt>
      <trkpt lat="45.85436" lon="3.09054">
        <ele>491</ele>
        <time>2021-08-15T07:46:25Z</time>
      </trkpt>
      <trkpt lat="45.85435" lon="3.09054">
        <ele>491</ele>
        <time>2021-08-15T07:46:26Z</time>
      </trkpt>
      <trkpt lat="45.85434" lon="3.09053">
        <ele>491</ele>
        <time>2021-08-15T07:46:28Z</time>
      </trkpt>
      <trkpt lat="45.85433" lon="3.09052">
        <ele>491</ele>
        <time>2021-08-15T07:46:29Z</time>
      </trkpt>
      <trkpt lat="45.85429" lon="3.09048">
        <ele>491</ele>
        <time>2021-08-15T07:46:30Z</time>
      </trkpt>
      <trkpt lat="45.85429" lon="3.09048">
        <ele>491</ele>
        <time>2021-08-15T07:46:31Z</time>
      </trkpt>
      <trkpt lat="45.85428" lon="3.09048">
        <ele>491</ele>
        <time>2021-08-15T07:46:32Z</time>
      </trkpt>
      <trkpt lat="45.85428" lon="3.09047">
        <ele>491</ele>
        <time>2021-08-15T07:46:33Z</time>
      </trkpt>
      <trkpt lat="45.85426" lon="3.09047">
        <ele>491</ele>
        <time>2021-08-15T07:46:34Z</time>
      </trkpt>
      <trkpt lat="45.85426" lon="3.09046">
        <ele>491</ele>
        <time>2021-08-15T07:46:35Z</time>
      </trkpt>
      <trkpt lat="45.85424" lon="3.09045">
        <ele>491</ele>
        <time>2021-08-15T07:46:36Z</time>
      </trkpt>
      <trkpt lat="45.85423" lon="3.09044">
        <ele>491</ele>
        <time>2021-08-15T07:46:37Z</time>
      </trkpt>
      <trkpt lat="45.85423" lon="3.09043">
        <ele>491</ele>
        <time>2021-08-15T07:46:38Z</time>
      </trkpt>
      <trkpt lat="45.85421" lon="3.09042">
        <ele>491</ele>
        <time>2021-08-15T07:46:39Z</time>
      </trkpt>
      <trkpt lat="45.8542" lon="3.09041">
        <ele>491</ele>
        <time>2021-08-15T07:46:40Z</time>
      </trkpt>
      <trkpt lat="45.85419" lon="3.0904">
        <ele>491</ele>
        <time>2021-08-15T07:46:41Z</time>
      </trkpt>
      <trkpt lat="45.85418" lon="3.09039">
        <ele>491</ele>
        <time>2021-08-15T07:46:42Z</time>
      </trkpt>
      <trkpt lat="45.85417" lon="3.09038">
        <ele>491</ele>
        <time>2021-08-15T07:46:43Z</time>
      </trkpt>
      <trkpt lat="45.85415" lon="3.09036">
        <ele>491</ele>
        <time>2021-08-15T07:46:44Z</time>
      </trkpt>
      <trkpt lat="45.85414" lon="3.09035">
        <ele>491</ele>
        <time>2021-08-15T07:46:45Z</time>
      </trkpt>
      <trkpt lat="45.85413" lon="3.09033">
        <ele>491</ele>
        <time>2021-08-15T07:46:46Z</time>
      </trkpt>
      <trkpt lat="45.85413" lon="3.09031">
        <ele>491</ele>
        <time>2021-08-15T07:46:47Z</time>
      </trkpt>
      <trkpt lat="45.85412" lon="3.09029">
        <ele>491</ele>
        <time>2021-08-15T07:46:48Z</time>
      </trkpt>
      <trkpt lat="45.85411" lon="3.09028">
        <ele>491</ele>
        <time>2021-08-15T07:46:49Z</time>
      </trkpt>
      <trkpt lat="45.8541" lon="3.09026">
        <ele>491</ele>
        <time>2021-08-15T07:46:50Z</time>
      </trkpt>
      <trkpt lat="45.85408" lon="3.09025">
        <ele>491</ele>
        <time>2021-08-15T07:46:51Z</time>
      </trkpt>
      <trkpt lat="45.85408" lon="3.09024">
        <ele>491</ele>
        <time>2021-08-15T07:46:52Z</time>
      </trkpt>
      <trkpt lat="45.85406" lon="3.09023">
        <ele>491</ele>
        <time>2021-08-15T07:46:53Z</time>
      </trkpt>
      <trkpt lat="45.85405" lon="3.09022">
        <ele>491</ele>
        <time>2021-08-15T07:46:54Z</time>
      </trkpt>
      <trkpt lat="45.85403" lon="3.09021">
        <ele>491</ele>
        <time>2021-08-15T07:46:55Z</time>
      </trkpt>
      <trkpt lat="45.85402" lon="3.09021">
        <ele>491</ele>
        <time>2021-08-15T07:46:56Z</time>
      </trkpt>
      <trkpt lat="45.85401" lon="3.0902">
        <ele>491</ele>
        <time>2021-08-15T07:46:57Z</time>
      </trkpt>
      <trkpt lat="45.854" lon="3.0902">
        <ele>491</ele>
        <time>2021-08-15T07:46:58Z</time>
      </trkpt>
      <trkpt lat="45.85399" lon="3.09019">
        <ele>491</ele>
        <time>2021-08-15T07:46:59Z</time>
      </trkpt>
      <trkpt lat="45.85398" lon="3.09018">
        <ele>491</ele>
        <time>2021-08-15T07:47:00Z</time>
      </trkpt>
      <trkpt lat="45.85396" lon="3.09018">
        <ele>491</ele>
        <time>2021-08-15T07:47:01Z</time>
      </trkpt>
      <trkpt lat="45.85395" lon="3.09017">
        <ele>491</ele>
        <time>2021-08-15T07:47:02Z</time>
      </trkpt>
      <trkpt lat="45.85394" lon="3.09016">
        <ele>491</ele>
        <time>2021-08-15T07:47:03Z</time>
      </trkpt>
      <trkpt lat="45.85393" lon="3.09015">
        <ele>491</ele>
        <time>2021-08-15T07:47:04Z</time>
      </trkpt>
      <trkpt lat="45.85392" lon="3.09014">
        <ele>491</ele>
        <time>2021-08-15T07:47:05Z</time>
      </trkpt>
      <trkpt lat="45.8539" lon="3.09013">
        <ele>491</ele>
        <time>2021-08-15T07:47:06Z</time>
      </trkpt>
      <trkpt lat="45.85389" lon="3.09012">
        <ele>491</ele>
        <time>2021-08-15T07:47:07Z</time>
      </trkpt>
      <trkpt lat="45.85387" lon="3.0901">
        <ele>491</ele>
        <time>2021-08-15T07:47:08Z</time>
      </trkpt>
      <trkpt lat="45.85385" lon="3.09009">
        <ele>491</ele>
        <time>2021-08-15T07:47:09Z</time>
      </trkpt>
      <trkpt lat="45.85384" lon="3.09007">
        <ele>491</ele>
        <time>2021-08-15T07:47:10Z</time>
      </trkpt>
      <trkpt lat="45.85383" lon="3.09005">
        <ele>491</ele>
        <time>2021-08-15T07:47:11Z</time>
      </trkpt>
      <trkpt lat="45.85381" lon="3.09004">
        <ele>491</ele>
        <time>2021-08-15T07:47:12Z</time>
      </trkpt>
      <trkpt lat="45.85379" lon="3.09002">
        <ele>491</ele>
        <time>2021-08-15T07:47:13Z</time>
      </trkpt>
      <trkpt lat="45.85378" lon="3.09">
        <ele>491</ele>
        <time>2021-08-15T07:47:14Z</time>
      </trkpt>
      <trkpt lat="45.85377" lon="3.08998">
        <ele>491</ele>
        <time>2021-08-15T07:47:15Z</time>
      </trkpt>
      <trkpt lat="45.85376" lon="3.08997">
        <ele>491</ele>
        <time>2021-08-15T07:47:16Z</time>
      </trkpt>
      <trkpt lat="45.85375" lon="3.08996">
        <ele>491</ele>
        <time>2021-08-15T07:47:17Z</time>
      </trkpt>
      <trkpt lat="45.85375" lon="3.08994">
        <ele>491</ele>
        <time>2021-08-15T07:47:18Z</time>
      </trkpt>
      <trkpt lat="45.85374" lon="3.08993">
        <ele>491</ele>
        <time>2021-08-15T07:47:19Z</time>
      </trkpt>
      <trkpt lat="45.85373" lon="3.08992">
        <ele>491</ele>
        <time>2021-08-15T07:47:20Z</time>
      </trkpt>
      <trkpt lat="45.85372" lon="3.0899">
        <ele>491</ele>
        <time>2021-08-15T07:47:21Z</time>
      </trkpt>
      <trkpt lat="45.85371" lon="3.08989">
        <ele>491</ele>
        <time>2021-08-15T07:47:22Z</time>
      </trkpt>
      <trkpt lat="45.8537" lon="3.08988">
        <ele>491</ele>
        <time>2021-08-15T07:47:23Z</time>
      </trkpt>
      <trkpt lat="45.85369" lon="3.08986">
        <ele>491</ele>
        <time>2021-08-15T07:47:24Z</time>
      </trkpt>
      <trkpt lat="45.85368" lon="3.08985">
        <ele>491</ele>
        <time>2021-08-15T07:47:25Z</time>
      </trkpt>
      <trkpt lat="45.85367" lon="3.08983">
        <ele>491</ele>
        <time>2021-08-15T07:47:26Z</time>
      </trkpt>
      <trkpt lat="45.85366" lon="3.08981">
        <ele>491</ele>
        <time>2021-08-15T07:47:28Z</time>
      </trkpt>
      <trkpt lat="45.85362" lon="3.08972">
        <ele>491</ele>
        <time>2021-08-15T07:47:29Z</time>
      </trkpt>
      <trkpt lat="45.85362" lon="3.08972">
        <ele>491</ele>
        <time>2021-08-15T07:47:30Z</time>
      </trkpt>
      <trkpt lat="45.85361" lon="3.0897">
        <ele>491</ele>
        <time>2021-08-15T07:47:31Z</time>
      </trkpt>
      <trkpt lat="45.8536" lon="3.08969">
        <ele>491</ele>
        <time>2021-08-15T07:47:32Z</time>
      </trkpt>
      <trkpt lat="45.8536" lon="3.08966">
        <ele>491</ele>
        <time>2021-08-15T07:47:33Z</time>
      </trkpt>
      <trkpt lat="45.85359" lon="3.08964">
        <ele>491</ele>
        <time>2021-08-15T07:47:34Z</time>
      </trkpt>
      <trkpt lat="45.85358" lon="3.08962">
        <ele>491</ele>
        <time>2021-08-15T07:47:35Z</time>
      </trkpt>
      <trkpt lat="45.85357" lon="3.0896">
        <ele>491</ele>
        <time>2021-08-15T07:47:36Z</time>
      </trkpt>
      <trkpt lat="45.85357" lon="3.08957">
        <ele>491</ele>
        <time>2021-08-15T07:47:37Z</time>
      </trkpt>
      <trkpt lat="45.85356" lon="3.08955">
        <ele>491</ele>
        <time>2021-08-15T07:47:38Z</time>
      </trkpt>
      <trkpt lat="45.85356" lon="3.08953">
        <ele>491</ele>
        <time>2021-08-15T07:47:39Z</time>
      </trkpt>
      <trkpt lat="45.85355" lon="3.0895">
        <ele>491</ele>
        <time>2021-08-15T07:47:40Z</time>
      </trkpt>
      <trkpt lat="45.85354" lon="3.08948">
        <ele>491</ele>
        <time>2021-08-15T07:47:41Z</time>
      </trkpt>
      <trkpt lat="45.85354" lon="3.08946">
        <ele>491</ele>
        <time>2021-08-15T07:47:42Z</time>
      </trkpt>
      <trkpt lat="45.85353" lon="3.08944">
        <ele>491</ele>
        <time>2021-08-15T07:47:43Z</time>
      </trkpt>
      <trkpt lat="45.85353" lon="3.08942">
        <ele>491</ele>
        <time>2021-08-15T07:47:44Z</time>
      </trkpt>
      <trkpt lat="45.85353" lon="3.0894">
        <ele>491</ele>
        <time>2021-08-15T07:47:45Z</time>
      </trkpt>
      <trkpt lat="45.85352" lon="3.08939">
        <ele>491</ele>
        <time>2021-08-15T07:47:46Z</time>
      </trkpt>
      <trkpt lat="45.85351" lon="3.08936">
        <ele>491</ele>
        <time>2021-08-15T07:47:47Z</time>
      </trkpt>
      <trkpt lat="45.85351" lon="3.08934">
        <ele>491</ele>
        <time>2021-08-15T07:47:48Z</time>
      </trkpt>
      <trkpt lat="45.8535" lon="3.08932">
        <ele>491</ele>
        <time>2021-08-15T07:47:49Z</time>
      </trkpt>
      <trkpt lat="45.85349" lon="3.08929">
        <ele>491</ele>
        <time>2021-08-15T07:47:50Z</time>
      </trkpt>
      <trkpt lat="45.85348" lon="3.08927">
        <ele>491</ele>
        <time>2021-08-15T07:47:51Z</time>
      </trkpt>
      <trkpt lat="45.85348" lon="3.08925">
        <ele>491</ele>
        <time>2021-08-15T07:47:52Z</time>
      </trkpt>
      <trkpt lat="45.85347" lon="3.08923">
        <ele>491</ele>
        <time>2021-08-15T07:47:53Z</time>
      </trkpt>
      <trkpt lat="45.85347" lon="3.0892">
        <ele>491</ele>
        <time>2021-08-15T07:47:54Z</time>
      </trkpt>
      <trkpt lat="45.85347" lon="3.08918">
        <ele>491</ele>
        <time>2021-08-15T07:47:55Z</time>
      </trkpt>
      <trkpt lat="45.85346" lon="3.08916">
        <ele>491</ele>
        <time>2021-08-15T07:47:56Z</time>
      </trkpt>
      <trkpt lat="45.85347" lon="3.08914">
        <ele>491</ele>
        <time>2021-08-15T07:47:57Z</time>
      </trkpt>
      <trkpt lat="45.85347" lon="3.08912">
        <ele>491</ele>
        <time>2021-08-15T07:47:58Z</time>
      </trkpt>
      <trkpt lat="45.85347" lon="3.08911">
        <ele>491</ele>
        <time>2021-08-15T07:47:59Z</time>
      </trkpt>
      <trkpt lat="45.85347" lon="3.08909">
        <ele>491</ele>
        <time>2021-08-15T07:48:00Z</time>
      </trkpt>
      <trkpt lat="45.85347" lon="3.08907">
        <ele>491</ele>
        <time>2021-08-15T07:48:01Z</time>
      </trkpt>
      <trkpt lat="45.85347" lon="3.08905">
        <ele>491</ele>
        <time>2021-08-15T07:48:02Z</time>
      </trkpt>
      <trkpt lat="45.85346" lon="3.08903">
        <ele>491</ele>
        <time>2021-08-15T07:48:03Z</time>
      </trkpt>
      <trkpt lat="45.85346" lon="3.08902">
        <ele>491</ele>
        <time>2021-08-15T07:48:04Z</time>
      </trkpt>
      <trkpt lat="45.85346" lon="3.08901">
        <ele>491</ele>
        <time>2021-08-15T07:48:05Z</time>
      </trkpt>
      <trkpt lat="45.85346" lon="3.08899">
        <ele>491</ele>
        <time>2021-08-15T07:48:06Z</time>
      </trkpt>
      <trkpt lat="45.85345" lon="3.08897">
        <ele>491</ele>
        <time>2021-08-15T07:48:07Z</time>
      </trkpt>
      <trkpt lat="45.85345" lon="3.08895">
        <ele>491</ele>
        <time>2021-08-15T07:48:08Z</time>
      </trkpt>
      <trkpt lat="45.85345" lon="3.08894">
        <ele>491</ele>
        <time>2021-08-15T07:48:09Z</time>
      </trkpt>
      <trkpt lat="45.85345" lon="3.08892">
        <ele>491</ele>
        <time>2021-08-15T07:48:10Z</time>
      </trkpt>
      <trkpt lat="45.85345" lon="3.08891">
        <ele>491</ele>
        <time>2021-08-15T07:48:11Z</time>
      </trkpt>
      <trkpt lat="45.85345" lon="3.08889">
        <ele>491</ele>
        <time>2021-08-15T07:48:12Z</time>
      </trkpt>
      <trkpt lat="45.85345" lon="3.08887">
        <ele>491</ele>
        <time>2021-08-15T07:48:13Z</time>
      </trkpt>
      <trkpt lat="45.85345" lon="3.08885">
        <ele>491</ele>
        <time>2021-08-15T07:48:14Z</time>
      </trkpt>
      <trkpt lat="45.85346" lon="3.08883">
        <ele>491</ele>
        <time>2021-08-15T07:48:15Z</time>
      </trkpt>
      <trkpt lat="45.85346" lon="3.08881">
        <ele>491</ele>
        <time>2021-08-15T07:48:16Z</time>
      </trkpt>
      <trkpt lat="45.85346" lon="3.08879">
        <ele>491</ele>
        <time>2021-08-15T07:48:17Z</time>
      </trkpt>
      <trkpt lat="45.85346" lon="3.08877">
        <ele>491</ele>
        <time>2021-08-15T07:48:18Z</time>
      </trkpt>
      <trkpt lat="45.85347" lon="3.08875">
        <ele>491</ele>
        <time>2021-08-15T07:48:19Z</time>
      </trkpt>
      <trkpt lat="45.85347" lon="3.08874">
        <ele>491</ele>
        <time>2021-08-15T07:48:20Z</time>
      </trkpt>
      <trkpt lat="45.85348" lon="3.08872">
        <ele>491</ele>
        <time>2021-08-15T07:48:21Z</time>
      </trkpt>
      <trkpt lat="45.85348" lon="3.0887">
        <ele>491</ele>
        <time>2021-08-15T07:48:22Z</time>
      </trkpt>
      <trkpt lat="45.85348" lon="3.08869">
        <ele>491</ele>
        <time>2021-08-15T07:48:23Z</time>
      </trkpt>
      <trkpt lat="45.85349" lon="3.08867">
        <ele>491</ele>
        <time>2021-08-15T07:48:24Z</time>
      </trkpt>
      <trkpt lat="45.85349" lon="3.08865">
        <ele>491</ele>
        <time>2021-08-15T07:48:25Z</time>
      </trkpt>
      <trkpt lat="45.85349" lon="3.08863">
        <ele>491</ele>
        <time>2021-08-15T07:48:27Z</time>
      </trkpt>
      <trkpt lat="45.85349" lon="3.08861">
        <ele>491</ele>
        <time>2021-08-15T07:48:28Z</time>
      </trkpt>
      <trkpt lat="45.85351" lon="3.08851">
        <ele>491</ele>
        <time>2021-08-15T07:48:29Z</time>
      </trkpt>
      <trkpt lat="45.85351" lon="3.0885">
        <ele>491</ele>
        <time>2021-08-15T07:48:30Z</time>
      </trkpt>
      <trkpt lat="45.85351" lon="3.08849">
        <ele>491</ele>
        <time>2021-08-15T07:48:31Z</time>
      </trkpt>
      <trkpt lat="45.85352" lon="3.08848">
        <ele>491</ele>
        <time>2021-08-15T07:48:32Z</time>
      </trkpt>
      <trkpt lat="45.85352" lon="3.08846">
        <ele>491</ele>
        <time>2021-08-15T07:48:33Z</time>
      </trkpt>
      <trkpt lat="45.85352" lon="3.08843">
        <ele>491</ele>
        <time>2021-08-15T07:48:34Z</time>
      </trkpt>
      <trkpt lat="45.85352" lon="3.08841">
        <ele>491</ele>
        <time>2021-08-15T07:48:35Z</time>
      </trkpt>
      <trkpt lat="45.85353" lon="3.08838">
        <ele>491</ele>
        <time>2021-08-15T07:48:36Z</time>
      </trkpt>
      <trkpt lat="45.85353" lon="3.08836">
        <ele>491</ele>
        <time>2021-08-15T07:48:37Z</time>
      </trkpt>
      <trkpt lat="45.85353" lon="3.08834">
        <ele>491</ele>
        <time>2021-08-15T07:48:38Z</time>
      </trkpt>
      <trkpt lat="45.85353" lon="3.08833">
        <ele>491</ele>
        <time>2021-08-15T07:48:39Z</time>
      </trkpt>
      <trkpt lat="45.85352" lon="3.08832">
        <ele>491</ele>
        <time>2021-08-15T07:48:40Z</time>
      </trkpt>
      <trkpt lat="45.85352" lon="3.0883">
        <ele>491</ele>
        <time>2021-08-15T07:48:41Z</time>
      </trkpt>
      <trkpt lat="45.85351" lon="3.08829">
        <ele>491</ele>
        <time>2021-08-15T07:48:42Z</time>
      </trkpt>
      <trkpt lat="45.8535" lon="3.08829">
        <ele>491</ele>
        <time>2021-08-15T07:48:43Z</time>
      </trkpt>
      <trkpt lat="45.85349" lon="3.08828">
        <ele>491</ele>
        <time>2021-08-15T07:48:44Z</time>
      </trkpt>
      <trkpt lat="45.85348" lon="3.08828">
        <ele>491</ele>
        <time>2021-08-15T07:48:45Z</time>
      </trkpt>
      <trkpt lat="45.85346" lon="3.08828">
        <ele>491</ele>
        <time>2021-08-15T07:48:46Z</time>
      </trkpt>
      <trkpt lat="45.85345" lon="3.08827">
        <ele>491</ele>
        <time>2021-08-15T07:48:47Z</time>
      </trkpt>
      <trkpt lat="45.85344" lon="3.08827">
        <ele>491</ele>
        <time>2021-08-15T07:48:48Z</time>
      </trkpt>
      <trkpt lat="45.85341" lon="3.08828">
        <ele>491</ele>
        <time>2021-08-15T07:48:49Z</time>
      </trkpt>
      <trkpt lat="45.8534" lon="3.08828">
        <ele>491</ele>
        <time>2021-08-15T07:48:50Z</time>
      </trkpt>
      <trkpt lat="45.85338" lon="3.08828">
        <ele>491</ele>
        <time>2021-08-15T07:48:51Z</time>
      </trkpt>
      <trkpt lat="45.85337" lon="3.08828">
        <ele>491</ele>
        <time>2021-08-15T07:48:52Z</time>
      </trkpt>
      <trkpt lat="45.85335" lon="3.08829">
        <ele>491</ele>
        <time>2021-08-15T07:48:53Z</time>
      </trkpt>
      <trkpt lat="45.85334" lon="3.08829">
        <ele>491</ele>
        <time>2021-08-15T07:48:54Z</time>
      </trkpt>
      <trkpt lat="45.85332" lon="3.08829">
        <ele>491</ele>
        <time>2021-08-15T07:48:55Z</time>
      </trkpt>
      <trkpt lat="45.85331" lon="3.08829">
        <ele>491</ele>
        <time>2021-08-15T07:48:56Z</time>
      </trkpt>
      <trkpt lat="45.8533" lon="3.0883">
        <ele>491</ele>
        <time>2021-08-15T07:48:57Z</time>
      </trkpt>
      <trkpt lat="45.85329" lon="3.08829">
        <ele>491</ele>
        <time>2021-08-15T07:48:58Z</time>
      </trkpt>
      <trkpt lat="45.85327" lon="3.08829">
        <ele>491</ele>
        <time>2021-08-15T07:48:59Z</time>
      </trkpt>
      <trkpt lat="45.85326" lon="3.08829">
        <ele>491</ele>
        <time>2021-08-15T07:49:00Z</time>
      </trkpt>
      <trkpt lat="45.85325" lon="3.08828">
        <ele>491</ele>
        <time>2021-08-15T07:49:01Z</time>
      </trkpt>
      <trkpt lat="45.85324" lon="3.08827">
        <ele>491</ele>
        <time>2021-08-15T07:49:02Z</time>
      </trkpt>
      <trkpt lat="45.85323" lon="3.08826">
        <ele>491</ele>
        <time>2021-08-15T07:49:03Z</time>
      </trkpt>
      <trkpt lat="45.85321" lon="3.08824">
        <ele>491</ele>
        <time>2021-08-15T07:49:04Z</time>
      </trkpt>
      <trkpt lat="45.8532" lon="3.08823">
        <ele>491</ele>
        <time>2021-08-15T07:49:05Z</time>
      </trkpt>
      <trkpt lat="45.85318" lon="3.08823">
        <ele>491</ele>
        <time>2021-08-15T07:49:06Z</time>
      </trkpt>
      <trkpt lat="45.85317" lon="3.08822">
        <ele>491</ele>
        <time>2021-08-15T07:49:07Z</time>
      </trkpt>
      <trkpt lat="45.85315" lon="3.08821">
        <ele>491</ele>
        <time>2021-08-15T07:49:08Z</time>
      </trkpt>
      <trkpt lat="45.85313" lon="3.0882">
        <ele>491</ele>
        <time>2021-08-15T07:49:09Z</time>
      </trkpt>
      <trkpt lat="45.85312" lon="3.08819">
        <ele>491</ele>
        <time>2021-08-15T07:49:10Z</time>
      </trkpt>
      <trkpt lat="45.8531" lon="3.08818">
        <ele>491</ele>
        <time>2021-08-15T07:49:11Z</time>
      </trkpt>
      <trkpt lat="45.85308" lon="3.08817">
        <ele>491</ele>
        <time>2021-08-15T07:49:12Z</time>
      </trkpt>
      <trkpt lat="45.85306" lon="3.08816">
        <ele>491</ele>
        <time>2021-08-15T07:49:13Z</time>
      </trkpt>
      <trkpt lat="45.85304" lon="3.08816">
        <ele>491</ele>
        <time>2021-08-15T07:49:14Z</time>
      </trkpt>
      <trkpt lat="45.85302" lon="3.08816">
        <ele>491</ele>
        <time>2021-08-15T07:49:15Z</time>
      </trkpt>
      <trkpt lat="45.853" lon="3.08816">
        <ele>491</ele>
        <time>2021-08-15T07:49:16Z</time>
      </trkpt>
      <trkpt lat="45.85298" lon="3.08816">
        <ele>491</ele>
        <time>2021-08-15T07:49:17Z</time>
      </trkpt>
      <trkpt lat="45.85296" lon="3.08816">
        <ele>491</ele>
        <time>2021-08-15T07:49:18Z</time>
      </trkpt>
      <trkpt lat="45.85294" lon="3.08816">
        <ele>491</ele>
        <time>2021-08-15T07:49:19Z</time>
      </trkpt>
      <trkpt lat="45.85293" lon="3.08816">
        <ele>491</ele>
        <time>2021-08-15T07:49:20Z</time>
      </trkpt>
      <trkpt lat="45.85292" lon="3.08817">
        <ele>491</ele>
        <time>2021-08-15T07:49:21Z</time>
      </trkpt>
      <trkpt lat="45.85291" lon="3.08817">
        <ele>491</ele>
        <time>2021-08-15T07:49:22Z</time>
      </trkpt>
      <trkpt lat="45.8529" lon="3.08817">
        <ele>491</ele>
        <time>2021-08-15T07:49:23Z</time>
      </trkpt>
      <trkpt lat="45.85289" lon="3.08817">
        <ele>491</ele>
        <time>2021-08-15T07:49:24Z</time>
      </trkpt>
      <trkpt lat="45.85289" lon="3.08817">
        <ele>491</ele>
        <time>2021-08-15T07:49:25Z</time>
      </trkpt>
      <trkpt lat="45.85289" lon="3.08817">
        <ele>491</ele>
        <time>2021-08-15T07:49:27Z</time>
      </trkpt>
      <trkpt lat="45.85288" lon="3.08816">
        <ele>491</ele>
        <time>2021-08-15T07:49:28Z</time>
      </trkpt>
      <trkpt lat="45.85288" lon="3.08815">
        <ele>491</ele>
        <time>2021-08-15T07:49:29Z</time>
      </trkpt>
      <trkpt lat="45.85287" lon="3.08815">
        <ele>491</ele>
        <time>2021-08-15T07:49:30Z</time>
      </trkpt>
      <trkpt lat="45.85284" lon="3.08812">
        <ele>491</ele>
        <time>2021-08-15T07:49:31Z</time>
      </trkpt>
      <trkpt lat="45.85284" lon="3.08812">
        <ele>491</ele>
        <time>2021-08-15T07:49:32Z</time>
      </trkpt>
      <trkpt lat="45.85284" lon="3.08812">
        <ele>491</ele>
        <time>2021-08-15T07:49:33Z</time>
      </trkpt>
      <trkpt lat="45.85283" lon="3.08811">
        <ele>491</ele>
        <time>2021-08-15T07:49:34Z</time>
      </trkpt>
      <trkpt lat="45.85283" lon="3.0881">
        <ele>491</ele>
        <time>2021-08-15T07:49:35Z</time>
      </trkpt>
      <trkpt lat="45.85283" lon="3.08808">
        <ele>491</ele>
        <time>2021-08-15T07:49:36Z</time>
      </trkpt>
      <trkpt lat="45.85281" lon="3.08807">
        <ele>491</ele>
        <time>2021-08-15T07:49:37Z</time>
      </trkpt>
      <trkpt lat="45.85281" lon="3.08805">
        <ele>491</ele>
        <time>2021-08-15T07:49:38Z</time>
      </trkpt>
      <trkpt lat="45.85281" lon="3.08804">
        <ele>491</ele>
        <time>2021-08-15T07:49:39Z</time>
      </trkpt>
      <trkpt lat="45.8528" lon="3.08803">
        <ele>491</ele>
        <time>2021-08-15T07:49:40Z</time>
      </trkpt>
      <trkpt lat="45.85279" lon="3.08801">
        <ele>491</ele>
        <time>2021-08-15T07:49:41Z</time>
      </trkpt>
      <trkpt lat="45.85278" lon="3.08799">
        <ele>491</ele>
        <time>2021-08-15T07:49:42Z</time>
      </trkpt>
      <trkpt lat="45.85276" lon="3.08797">
        <ele>491</ele>
        <time>2021-08-15T07:49:43Z</time>
      </trkpt>
      <trkpt lat="45.85275" lon="3.08795">
        <ele>491</ele>
        <time>2021-08-15T07:49:44Z</time>
      </trkpt>
      <trkpt lat="45.85275" lon="3.08793">
        <ele>491</ele>
        <time>2021-08-15T07:49:45Z</time>
      </trkpt>
      <trkpt lat="45.85273" lon="3.08792">
        <ele>491</ele>
        <time>2021-08-15T07:49:46Z</time>
      </trkpt>
      <trkpt lat="45.85273" lon="3.08789">
        <ele>491</ele>
        <time>2021-08-15T07:49:47Z</time>
      </trkpt>
      <trkpt lat="45.85272" lon="3.08787">
        <ele>491</ele>
        <time>2021-08-15T07:49:48Z</time>
      </trkpt>
      <trkpt lat="45.85272" lon="3.08785">
        <ele>491</ele>
        <time>2021-08-15T07:49:49Z</time>
      </trkpt>
      <trkpt lat="45.85271" lon="3.08783">
        <ele>491</ele>
        <time>2021-08-15T07:49:50Z</time>
      </trkpt>
      <trkpt lat="45.8527" lon="3.08781">
        <ele>491</ele>
        <time>2021-08-15T07:49:51Z</time>
      </trkpt>
      <trkpt lat="45.85269" lon="3.08779">
        <ele>491</ele>
        <time>2021-08-15T07:49:52Z</time>
      </trkpt>
      <trkpt lat="45.85269" lon="3.08777">
        <ele>491</ele>
        <time>2021-08-15T07:49:53Z</time>
      </trkpt>
      <trkpt lat="45.85269" lon="3.08775">
        <ele>491</ele>
        <time>2021-08-15T07:49:54Z</time>
      </trkpt>
      <trkpt lat="45.85269" lon="3.08773">
        <ele>491</ele>
        <time>2021-08-15T07:49:55Z</time>
      </trkpt>
      <trkpt lat="45.85269" lon="3.08771">
        <ele>491</ele>
        <time>2021-08-15T07:49:56Z</time>
      </trkpt>
      <trkpt lat="45.85268" lon="3.08768">
        <ele>491</ele>
        <time>2021-08-15T07:49:57Z</time>
      </trkpt>
      <trkpt lat="45.85268" lon="3.08766">
        <ele>491</ele>
        <time>2021-08-15T07:49:58Z</time>
      </trkpt>
      <trkpt lat="45.85267" lon="3.08763">
        <ele>491</ele>
        <time>2021-08-15T07:49:59Z</time>
      </trkpt>
      <trkpt lat="45.85266" lon="3.08761">
        <ele>491</ele>
        <time>2021-08-15T07:50:00Z</time>
      </trkpt>
      <trkpt lat="45.85266" lon="3.08758">
        <ele>491</ele>
        <time>2021-08-15T07:50:01Z</time>
      </trkpt>
      <trkpt lat="45.85265" lon="3.08755">
        <ele>491</ele>
        <time>2021-08-15T07:50:02Z</time>
      </trkpt>
      <trkpt lat="45.85264" lon="3.08753">
        <ele>491</ele>
        <time>2021-08-15T07:50:03Z</time>
      </trkpt>
      <trkpt lat="45.85263" lon="3.0875">
        <ele>491</ele>
        <time>2021-08-15T07:50:04Z</time>
      </trkpt>
      <trkpt lat="45.85263" lon="3.08748">
        <ele>491</ele>
        <time>2021-08-15T07:50:05Z</time>
      </trkpt>
      <trkpt lat="45.85262" lon="3.08745">
        <ele>491</ele>
        <time>2021-08-15T07:50:06Z</time>
      </trkpt>
      <trkpt lat="45.85262" lon="3.08742">
        <ele>491</ele>
        <time>2021-08-15T07:50:07Z</time>
      </trkpt>
      <trkpt lat="45.85262" lon="3.0874">
        <ele>491</ele>
        <time>2021-08-15T07:50:08Z</time>
      </trkpt>
      <trkpt lat="45.85261" lon="3.08738">
        <ele>491</ele>
        <time>2021-08-15T07:50:09Z</time>
      </trkpt>
      <trkpt lat="45.85261" lon="3.08735">
        <ele>491</ele>
        <time>2021-08-15T07:50:10Z</time>
      </trkpt>
      <trkpt lat="45.85261" lon="3.08733">
        <ele>491</ele>
        <time>2021-08-15T07:50:11Z</time>
      </trkpt>
      <trkpt lat="45.8526" lon="3.08731">
        <ele>491</ele>
        <time>2021-08-15T07:50:12Z</time>
      </trkpt>
      <trkpt lat="45.8526" lon="3.08729">
        <ele>491</ele>
        <time>2021-08-15T07:50:13Z</time>
      </trkpt>
      <trkpt lat="45.8526" lon="3.08727">
        <ele>491</ele>
        <time>2021-08-15T07:50:14Z</time>
      </trkpt>
      <trkpt lat="45.8526" lon="3.08724">
        <ele>491</ele>
        <time>2021-08-15T07:50:15Z</time>
      </trkpt>
      <trkpt lat="45.8526" lon="3.08722">
        <ele>491</ele>
        <time>2021-08-15T07:50:16Z</time>
      </trkpt>
      <trkpt lat="45.85259" lon="3.0872">
        <ele>491</ele>
        <time>2021-08-15T07:50:17Z</time>
      </trkpt>
      <trkpt lat="45.85259" lon="3.08718">
        <ele>491</ele>
        <time>2021-08-15T07:50:18Z</time>
      </trkpt>
      <trkpt lat="45.85259" lon="3.08717">
        <ele>491</ele>
        <time>2021-08-15T07:50:19Z</time>
      </trkpt>
      <trkpt lat="45.85258" lon="3.08715">
        <ele>491</ele>
        <time>2021-08-15T07:50:20Z</time>
      </trkpt>
      <trkpt lat="45.85258" lon="3.08713">
        <ele>491</ele>
        <time>2021-08-15T07:50:21Z</time>
      </trkpt>
      <trkpt lat="45.85257" lon="3.08711">
        <ele>491</ele>
        <time>2021-08-15T07:50:22Z</time>
      </trkpt>
      <trkpt lat="45.85257" lon="3.08709">
        <ele>491</ele>
        <time>2021-08-15T07:50:22Z</time>
      </trkpt>
      <trkpt lat="45.85257" lon="3.08707">
        <ele>491</ele>
        <time>2021-08-15T07:50:23Z</time>
      </trkpt>
      <trkpt lat="45.85257" lon="3.08705">
        <ele>491</ele>
        <time>2021-08-15T07:50:24Z</time>
      </trkpt>
      <trkpt lat="45.85257" lon="3.08702">
        <ele>491</ele>
        <time>2021-08-15T07:50:26Z</time>
      </trkpt>
      <trkpt lat="45.85254" lon="3.08694">
        <ele>491</ele>
        <time>2021-08-15T07:50:28Z</time>
      </trkpt>
      <trkpt lat="45.85252" lon="3.08691">
        <ele>491</ele>
        <time>2021-08-15T07:50:29Z</time>
      </trkpt>
      <trkpt lat="45.85252" lon="3.0869">
        <ele>491</ele>
        <time>2021-08-15T07:50:30Z</time>
      </trkpt>
      <trkpt lat="45.85252" lon="3.08689">
        <ele>491</ele>
        <time>2021-08-15T07:50:31Z</time>
      </trkpt>
      <trkpt lat="45.85251" lon="3.08688">
        <ele>491</ele>
        <time>2021-08-15T07:50:32Z</time>
      </trkpt>
      <trkpt lat="45.85251" lon="3.08687">
        <ele>491</ele>
        <time>2021-08-15T07:50:33Z</time>
      </trkpt>
      <trkpt lat="45.85251" lon="3.08685">
        <ele>491</ele>
        <time>2021-08-15T07:50:34Z</time>
      </trkpt>
      <trkpt lat="45.85249" lon="3.08684">
        <ele>491</ele>
        <time>2021-08-15T07:50:36Z</time>
      </trkpt>
      <trkpt lat="45.85246" lon="3.08677">
        <ele>491</ele>
        <time>2021-08-15T07:50:37Z</time>
      </trkpt>
      <trkpt lat="45.85246" lon="3.08677">
        <ele>491</ele>
        <time>2021-08-15T07:50:38Z</time>
      </trkpt>
      <trkpt lat="45.85245" lon="3.08676">
        <ele>491</ele>
        <time>2021-08-15T07:50:39Z</time>
      </trkpt>
      <trkpt lat="45.85245" lon="3.08676">
        <ele>491</ele>
        <time>2021-08-15T07:50:40Z</time>
      </trkpt>
      <trkpt lat="45.85244" lon="3.08675">
        <ele>491</ele>
        <time>2021-08-15T07:50:41Z</time>
      </trkpt>
      <trkpt lat="45.85244" lon="3.08674">
        <ele>491</ele>
        <time>2021-08-15T07:50:42Z</time>
      </trkpt>
      <trkpt lat="45.85243" lon="3.08672">
        <ele>491</ele>
        <time>2021-08-15T07:50:43Z</time>
      </trkpt>
      <trkpt lat="45.85242" lon="3.08671">
        <ele>491</ele>
        <time>2021-08-15T07:50:44Z</time>
      </trkpt>
      <trkpt lat="45.85242" lon="3.08669">
        <ele>491</ele>
        <time>2021-08-15T07:50:45Z</time>
      </trkpt>
      <trkpt lat="45.85241" lon="3.08668">
        <ele>491</ele>
        <time>2021-08-15T07:50:46Z</time>
      </trkpt>
      <trkpt lat="45.8524" lon="3.08667">
        <ele>491</ele>
        <time>2021-08-15T07:50:47Z</time>
      </trkpt>
      <trkpt lat="45.85239" lon="3.08665">
        <ele>491</ele>
        <time>2021-08-15T07:50:48Z</time>
      </trkpt>
      <trkpt lat="45.85239" lon="3.08664">
        <ele>491</ele>
        <time>2021-08-15T07:50:49Z</time>
      </trkpt>
      <trkpt lat="45.85239" lon="3.08662">
        <ele>491</ele>
        <time>2021-08-15T07:50:50Z</time>
      </trkpt>
      <trkpt lat="45.85238" lon="3.08661">
        <ele>491</ele>
        <time>2021-08-15T07:50:51Z</time>
      </trkpt>
      <trkpt lat="45.85236" lon="3.08659">
        <ele>491</ele>
        <time>2021-08-15T07:50:52Z</time>
      </trkpt>
      <trkpt lat="45.85236" lon="3.08657">
        <ele>491</ele>
        <time>2021-08-15T07:50:53Z</time>
      </trkpt>
      <trkpt lat="45.85235" lon="3.08656">
        <ele>491</ele>
        <time>2021-08-15T07:50:54Z</time>
      </trkpt>
      <trkpt lat="45.85234" lon="3.08654">
        <ele>491</ele>
        <time>2021-08-15T07:50:55Z</time>
      </trkpt>
      <trkpt lat="45.85233" lon="3.08653">
        <ele>491</ele>
        <time>2021-08-15T07:50:56Z</time>
      </trkpt>
      <trkpt lat="45.85233" lon="3.08652">
        <ele>491</ele>
        <time>2021-08-15T07:50:57Z</time>
      </trkpt>
      <trkpt lat="45.85233" lon="3.0865">
        <ele>491</ele>
        <time>2021-08-15T07:50:58Z</time>
      </trkpt>
      <trkpt lat="45.85232" lon="3.08649">
        <ele>491</ele>
        <time>2021-08-15T07:50:59Z</time>
      </trkpt>
      <trkpt lat="45.85231" lon="3.08647">
        <ele>491</ele>
        <time>2021-08-15T07:51:00Z</time>
      </trkpt>
      <trkpt lat="45.85231" lon="3.08646">
        <ele>491</ele>
        <time>2021-08-15T07:51:01Z</time>
      </trkpt>
      <trkpt lat="45.8523" lon="3.08644">
        <ele>491</ele>
        <time>2021-08-15T07:51:02Z</time>
      </trkpt>
      <trkpt lat="45.8523" lon="3.08643">
        <ele>491</ele>
        <time>2021-08-15T07:51:03Z</time>
      </trkpt>
      <trkpt lat="45.85229" lon="3.08641">
        <ele>491</ele>
        <time>2021-08-15T07:51:04Z</time>
      </trkpt>
      <trkpt lat="45.85228" lon="3.08639">
        <ele>491</ele>
        <time>2021-08-15T07:51:05Z</time>
      </trkpt>
      <trkpt lat="45.85227" lon="3.08637">
        <ele>491</ele>
        <time>2021-08-15T07:51:06Z</time>
      </trkpt>
      <trkpt lat="45.85227" lon="3.08636">
        <ele>491</ele>
        <time>2021-08-15T07:51:07Z</time>
      </trkpt>
      <trkpt lat="45.85226" lon="3.08634">
        <ele>491</ele>
        <time>2021-08-15T07:51:08Z</time>
      </trkpt>
      <trkpt lat="45.85226" lon="3.08633">
        <ele>491</ele>
        <time>2021-08-15T07:51:09Z</time>
      </trkpt>
      <trkpt lat="45.85225" lon="3.08631">
        <ele>491</ele>
        <time>2021-08-15T07:51:10Z</time>
      </trkpt>
      <trkpt lat="45.85225" lon="3.0863">
        <ele>491</ele>
        <time>2021-08-15T07:51:11Z</time>
      </trkpt>
      <trkpt lat="45.85224" lon="3.08628">
        <ele>491</ele>
        <time>2021-08-15T07:51:12Z</time>
      </trkpt>
      <trkpt lat="45.85222" lon="3.08626">
        <ele>491</ele>
        <time>2021-08-15T07:51:13Z</time>
      </trkpt>
      <trkpt lat="45.85221" lon="3.08624">
        <ele>491</ele>
        <time>2021-08-15T07:51:14Z</time>
      </trkpt>
      <trkpt lat="45.8522" lon="3.08621">
        <ele>491</ele>
        <time>2021-08-15T07:51:15Z</time>
      </trkpt>
      <trkpt lat="45.85218" lon="3.08619">
        <ele>491</ele>
        <time>2021-08-15T07:51:16Z</time>
      </trkpt>
      <trkpt lat="45.85218" lon="3.08617">
        <ele>491</ele>
        <time>2021-08-15T07:51:17Z</time>
      </trkpt>
      <trkpt lat="45.85217" lon="3.08615">
        <ele>491</ele>
        <time>2021-08-15T07:51:18Z</time>
      </trkpt>
      <trkpt lat="45.85216" lon="3.08613">
        <ele>491</ele>
        <time>2021-08-15T07:51:19Z</time>
      </trkpt>
      <trkpt lat="45.85215" lon="3.08611">
        <ele>491</ele>
        <time>2021-08-15T07:51:20Z</time>
      </trkpt>
      <trkpt lat="45.85214" lon="3.08608">
        <ele>491</ele>
        <time>2021-08-15T07:51:21Z</time>
      </trkpt>
      <trkpt lat="45.85213" lon="3.08606">
        <ele>491</ele>
        <time>2021-08-15T07:51:22Z</time>
      </trkpt>
      <trkpt lat="45.85212" lon="3.08604">
        <ele>491</ele>
        <time>2021-08-15T07:51:23Z</time>
      </trkpt>
      <trkpt lat="45.85211" lon="3.08601">
        <ele>491</ele>
        <time>2021-08-15T07:51:24Z</time>
      </trkpt>
      <trkpt lat="45.8521" lon="3.08599">
        <ele>491</ele>
        <time>2021-08-15T07:51:25Z</time>
      </trkpt>
      <trkpt lat="45.85209" lon="3.08597">
        <ele>491</ele>
        <time>2021-08-15T07:51:27Z</time>
      </trkpt>
      <trkpt lat="45.85208" lon="3.08594">
        <ele>491</ele>
        <time>2021-08-15T07:51:28Z</time>
      </trkpt>
      <trkpt lat="45.85204" lon="3.08587">
        <ele>491</ele>
        <time>2021-08-15T07:51:29Z</time>
      </trkpt>
      <trkpt lat="45.85204" lon="3.08587">
        <ele>491</ele>
        <time>2021-08-15T07:51:30Z</time>
      </trkpt>
      <trkpt lat="45.85204" lon="3.08586">
        <ele>491</ele>
        <time>2021-08-15T07:51:31Z</time>
      </trkpt>
      <trkpt lat="45.85204" lon="3.08585">
        <ele>491</ele>
        <time>2021-08-15T07:51:32Z</time>
      </trkpt>
      <trkpt lat="45.85203" lon="3.08583">
        <ele>491</ele>
        <time>2021-08-15T07:51:33Z</time>
      </trkpt>
      <trkpt lat="45.85202" lon="3.08582">
        <ele>491</ele>
        <time>2021-08-15T07:51:34Z</time>
      </trkpt>
      <trkpt lat="45.85202" lon="3.0858">
        <ele>491</ele>
        <time>2021-08-15T07:51:35Z</time>
      </trkpt>
      <trkpt lat="45.85201" lon="3.08578">
        <ele>491</ele>
        <time>2021-08-15T07:51:36Z</time>
      </trkpt>
      <trkpt lat="45.852" lon="3.08576">
        <ele>491</ele>
        <time>2021-08-15T07:51:37Z</time>
      </trkpt>
      <trkpt lat="45.852" lon="3.08574">
        <ele>491</ele>
        <time>2021-08-15T07:51:38Z</time>
      </trkpt>
      <trkpt lat="45.85199" lon="3.08573">
        <ele>491</ele>
        <time>2021-08-15T07:51:39Z</time>
      </trkpt>
      <trkpt lat="45.85198" lon="3.08571">
        <ele>491</ele>
        <time>2021-08-15T07:51:40Z</time>
      </trkpt>
      <trkpt lat="45.85197" lon="3.0857">
        <ele>491</ele>
        <time>2021-08-15T07:51:41Z</time>
      </trkpt>
      <trkpt lat="45.85197" lon="3.08568">
        <ele>491</ele>
        <time>2021-08-15T07:51:42Z</time>
      </trkpt>
      <trkpt lat="45.85197" lon="3.08566">
        <ele>491</ele>
        <time>2021-08-15T07:51:43Z</time>
      </trkpt>
      <trkpt lat="45.85196" lon="3.08565">
        <ele>491</ele>
        <time>2021-08-15T07:51:44Z</time>
      </trkpt>
      <trkpt lat="45.85194" lon="3.08563">
        <ele>491</ele>
        <time>2021-08-15T07:51:45Z</time>
      </trkpt>
      <trkpt lat="45.85194" lon="3.08561">
        <ele>491</ele>
        <time>2021-08-15T07:51:46Z</time>
      </trkpt>
      <trkpt lat="45.85193" lon="3.0856">
        <ele>491</ele>
        <time>2021-08-15T07:51:47Z</time>
      </trkpt>
      <trkpt lat="45.85192" lon="3.08559">
        <ele>491</ele>
        <time>2021-08-15T07:51:48Z</time>
      </trkpt>
      <trkpt lat="45.85191" lon="3.08558">
        <ele>491</ele>
        <time>2021-08-15T07:51:49Z</time>
      </trkpt>
      <trkpt lat="45.85191" lon="3.08556">
        <ele>491</ele>
        <time>2021-08-15T07:51:50Z</time>
      </trkpt>
      <trkpt lat="45.85189" lon="3.08555">
        <ele>491</ele>
        <time>2021-08-15T07:51:51Z</time>
      </trkpt>
      <trkpt lat="45.85188" lon="3.08554">
        <ele>491</ele>
        <time>2021-08-15T07:51:52Z</time>
      </trkpt>
      <trkpt lat="45.85188" lon="3.08552">
        <ele>491</ele>
        <time>2021-08-15T07:51:53Z</time>
      </trkpt>
      <trkpt lat="45.85187" lon="3.08551">
        <ele>491</ele>
        <time>2021-08-15T07:51:54Z</time>
      </trkpt>
      <trkpt lat="45.85186" lon="3.08549">
        <ele>491</ele>
        <time>2021-08-15T07:51:55Z</time>
      </trkpt>
      <trkpt lat="45.85185" lon="3.08547">
        <ele>491</ele>
        <time>2021-08-15T07:51:56Z</time>
      </trkpt>
      <trkpt lat="45.85184" lon="3.08545">
        <ele>491</ele>
        <time>2021-08-15T07:51:57Z</time>
      </trkpt>
      <trkpt lat="45.85184" lon="3.08543">
        <ele>491</ele>
        <time>2021-08-15T07:51:58Z</time>
      </trkpt>
      <trkpt lat="45.85183" lon="3.08541">
        <ele>491</ele>
        <time>2021-08-15T07:51:59Z</time>
      </trkpt>
      <trkpt lat="45.85182" lon="3.0854">
        <ele>491</ele>
        <time>2021-08-15T07:52:00Z</time>
      </trkpt>
      <trkpt lat="45.85181" lon="3.08538">
        <ele>491</ele>
        <time>2021-08-15T07:52:01Z</time>
      </trkpt>
      <trkpt lat="45.8518" lon="3.08535">
        <ele>491</ele>
        <time>2021-08-15T07:52:02Z</time>
      </trkpt>
      <trkpt lat="45.85179" lon="3.08533">
        <ele>491</ele>
        <time>2021-08-15T07:52:03Z</time>
      </trkpt>
      <trkpt lat="45.85177" lon="3.08529">
        <ele>491</ele>
        <time>2021-08-15T07:52:04Z</time>
      </trkpt>
      <trkpt lat="45.85176" lon="3.08526">
        <ele>491</ele>
        <time>2021-08-15T07:52:05Z</time>
      </trkpt>
      <trkpt lat="45.85175" lon="3.08522">
        <ele>491</ele>
        <time>2021-08-15T07:52:06Z</time>
      </trkpt>
      <trkpt lat="45.85173" lon="3.08519">
        <ele>491</ele>
        <time>2021-08-15T07:52:07Z</time>
      </trkpt>
      <trkpt lat="45.85172" lon="3.08516">
        <ele>491</ele>
        <time>2021-08-15T07:52:08Z</time>
      </trkpt>
      <trkpt lat="45.8517" lon="3.08513">
        <ele>491</ele>
        <time>2021-08-15T07:52:09Z</time>
      </trkpt>
      <trkpt lat="45.85169" lon="3.0851">
        <ele>491</ele>
        <time>2021-08-15T07:52:10Z</time>
      </trkpt>
      <trkpt lat="45.85168" lon="3.08508">
        <ele>491</ele>
        <time>2021-08-15T07:52:11Z</time>
      </trkpt>
      <trkpt lat="45.85167" lon="3.08505">
        <ele>491</ele>
        <time>2021-08-15T07:52:12Z</time>
      </trkpt>
      <trkpt lat="45.85165" lon="3.08503">
        <ele>491</ele>
        <time>2021-08-15T07:52:13Z</time>
      </trkpt>
      <trkpt lat="45.85163" lon="3.08501">
        <ele>491</ele>
        <time>2021-08-15T07:52:14Z</time>
      </trkpt>
      <trkpt lat="45.85162" lon="3.08499">
        <ele>491</ele>
        <time>2021-08-15T07:52:15Z</time>
      </trkpt>
      <trkpt lat="45.8516" lon="3.08497">
        <ele>491</ele>
        <time>2021-08-15T07:52:16Z</time>
      </trkpt>
      <trkpt lat="45.85158" lon="3.08495">
        <ele>491</ele>
        <time>2021-08-15T07:52:17Z</time>
      </trkpt>
      <trkpt lat="45.85157" lon="3.08493">
        <ele>491</ele>
        <time>2021-08-15T07:52:18Z</time>
      </trkpt>
      <trkpt lat="45.85155" lon="3.08492">
        <ele>491</ele>
        <time>2021-08-15T07:52:19Z</time>
      </trkpt>
      <trkpt lat="45.85153" lon="3.08491">
        <ele>491</ele>
        <time>2021-08-15T07:52:20Z</time>
      </trkpt>
      <trkpt lat="45.85152" lon="3.0849">
        <ele>491</ele>
        <time>2021-08-15T07:52:21Z</time>
      </trkpt>
      <trkpt lat="45.8515" lon="3.0849">
        <ele>491</ele>
        <time>2021-08-15T07:52:22Z</time>
      </trkpt>
      <trkpt lat="45.85148" lon="3.08489">
        <ele>491</ele>
        <time>2021-08-15T07:52:23Z</time>
      </trkpt>
      <trkpt lat="45.85147" lon="3.08489">
        <ele>491</ele>
        <time>2021-08-15T07:52:24Z</time>
      </trkpt>
      <trkpt lat="45.85146" lon="3.08489">
        <ele>491</ele>
        <time>2021-08-15T07:52:26Z</time>
      </trkpt>
      <trkpt lat="45.8514" lon="3.0849">
        <ele>491</ele>
        <time>2021-08-15T07:52:28Z</time>
      </trkpt>
      <trkpt lat="45.85138" lon="3.08491">
        <ele>491</ele>
        <time>2021-08-15T07:52:29Z</time>
      </trkpt>
      <trkpt lat="45.85137" lon="3.08492">
        <ele>491</ele>
        <time>2021-08-15T07:52:30Z</time>
      </trkpt>
      <trkpt lat="45.85137" lon="3.08492">
        <ele>491</ele>
        <time>2021-08-15T07:52:31Z</time>
      </trkpt>
      <trkpt lat="45.85136" lon="3.08492">
        <ele>491</ele>
        <time>2021-08-15T07:52:32Z</time>
      </trkpt>
      <trkpt lat="45.85135" lon="3.08493">
        <ele>491</ele>
        <time>2021-08-15T07:52:33Z</time>
      </trkpt>
      <trkpt lat="45.85134" lon="3.08493">
        <ele>491</ele>
        <time>2021-08-15T07:52:34Z</time>
      </trkpt>
      <trkpt lat="45.85133" lon="3.08494">
        <ele>491</ele>
        <time>2021-08-15T07:52:35Z</time>
      </trkpt>
      <trkpt lat="45.85132" lon="3.08494">
        <ele>491</ele>
        <time>2021-08-15T07:52:36Z</time>
      </trkpt>
      <trkpt lat="45.8513" lon="3.08495">
        <ele>491</ele>
        <time>2021-08-15T07:52:37Z</time>
      </trkpt>
      <trkpt lat="45.85129" lon="3.08495">
        <ele>491</ele>
        <time>2021-08-15T07:52:38Z</time>
      </trkpt>
      <trkpt lat="45.85127" lon="3.08495">
        <ele>491</ele>
        <time>2021-08-15T07:52:39Z</time>
      </trkpt>
      <trkpt lat="45.85127" lon="3.08496">
        <ele>491</ele>
        <time>2021-08-15T07:52:40Z</time>
      </trkpt>
      <trkpt lat="45.85125" lon="3.08496">
        <ele>491</ele>
        <time>2021-08-15T07:52:41Z</time>
      </trkpt>
      <trkpt lat="45.85123" lon="3.08496">
        <ele>491</ele>
        <time>2021-08-15T07:52:42Z</time>
      </trkpt>
      <trkpt lat="45.85122" lon="3.08497">
        <ele>491</ele>
        <time>2021-08-15T07:52:43Z</time>
      </trkpt>
      <trkpt lat="45.8512" lon="3.08497">
        <ele>491</ele>
        <time>2021-08-15T07:52:44Z</time>
      </trkpt>
      <trkpt lat="45.85118" lon="3.08498">
        <ele>491</ele>
        <time>2021-08-15T07:52:45Z</time>
      </trkpt>
      <trkpt lat="45.85116" lon="3.08498">
        <ele>491</ele>
        <time>2021-08-15T07:52:46Z</time>
      </trkpt>
      <trkpt lat="45.85115" lon="3.08499">
        <ele>491</ele>
        <time>2021-08-15T07:52:47Z</time>
      </trkpt>
      <trkpt lat="45.85113" lon="3.08499">
        <ele>491</ele>
        <time>2021-08-15T07:52:48Z</time>
      </trkpt>
      <trkpt lat="45.85111" lon="3.08499">
        <ele>491</ele>
        <time>2021-08-15T07:52:49Z</time>
      </trkpt>
      <trkpt lat="45.85109" lon="3.085">
        <ele>491</ele>
        <time>2021-08-15T07:52:50Z</time>
      </trkpt>
      <trkpt lat="45.85107" lon="3.085">
        <ele>491</ele>
        <time>2021-08-15T07:52:51Z</time>
      </trkpt>
      <trkpt lat="45.85106" lon="3.085">
        <ele>491</ele>
        <time>2021-08-15T07:52:52Z</time>
      </trkpt>
      <trkpt lat="45.85104" lon="3.085">
        <ele>491</ele>
        <time>2021-08-15T07:52:53Z</time>
      </trkpt>
      <trkpt lat="45.85103" lon="3.085">
        <ele>491</ele>
        <time>2021-08-15T07:52:54Z</time>
      </trkpt>
      <trkpt lat="45.85101" lon="3.08499">
        <ele>491</ele>
        <time>2021-08-15T07:52:55Z</time>
      </trkpt>
      <trkpt lat="45.85099" lon="3.08499">
        <ele>491</ele>
        <time>2021-08-15T07:52:56Z</time>
      </trkpt>
      <trkpt lat="45.85098" lon="3.085">
        <ele>491</ele>
        <time>2021-08-15T07:52:57Z</time>
      </trkpt>
      <trkpt lat="45.85097" lon="3.085">
        <ele>491</ele>
        <time>2021-08-15T07:52:58Z</time>
      </trkpt>
      <trkpt lat="45.85096" lon="3.085">
        <ele>491</ele>
        <time>2021-08-15T07:52:59Z</time>
      </trkpt>
      <trkpt lat="45.85096" lon="3.085">
        <ele>491</ele>
        <time>2021-08-15T07:53:00Z</time>
      </trkpt>
      <trkpt lat="45.85096" lon="3.085">
        <ele>491</ele>
        <time>2021-08-15T07:53:01Z</time>
      </trkpt>
      <trkpt lat="45.85095" lon="3.085">
        <ele>491</ele>
        <time>2021-08-15T07:53:02Z</time>
      </trkpt>
      <trkpt lat="45.85095" lon="3.085">
        <ele>491</ele>
        <time>2021-08-15T07:53:33Z</time>
      </trkpt>
      <trkpt lat="45.85094" lon="3.08501">
        <ele>491</ele>
        <time>2021-08-15T07:53:34Z</time>
      </trkpt>
      <trkpt lat="45.85094" lon="3.08501">
        <ele>491</ele>
        <time>2021-08-15T07:53:35Z</time>
      </trkpt>
      <trkpt lat="45.85094" lon="3.08502">
        <ele>491</ele>
        <time>2021-08-15T07:53:36Z</time>
      </trkpt>
      <trkpt lat="45.85094" lon="3.08502">
        <ele>491</ele>
        <time>2021-08-15T07:53:37Z</time>
      </trkpt>
      <trkpt lat="45.85095" lon="3.08502">
        <ele>491</ele>
        <time>2021-08-15T07:53:38Z</time>
      </trkpt>
      <trkpt lat="45.85095" lon="3.08503">
        <ele>491</ele>
        <time>2021-08-15T07:53:39Z</time>
      </trkpt>
      <trkpt lat="45.85095" lon="3.08503">
        <ele>491</ele>
        <time>2021-08-15T07:53:40Z</time>
      </trkpt>
      <trkpt lat="45.85096" lon="3.08505">
        <ele>491</ele>
        <time>2021-08-15T07:53:42Z</time>
      </trkpt>
      <trkpt lat="45.85095" lon="3.08505">
        <ele>491</ele>
        <time>2021-08-15T07:53:43Z</time>
      </trkpt>
      <trkpt lat="45.85095" lon="3.08505">
        <ele>491</ele>
        <time>2021-08-15T07:53:44Z</time>
      </trkpt>
      <trkpt lat="45.85087" lon="3.08515">
        <ele>491</ele>
        <time>2021-08-15T07:54:07Z</time>
      </trkpt>
      <trkpt lat="45.85086" lon="3.08515">
        <ele>491</ele>
        <time>2021-08-15T07:54:08Z</time>
      </trkpt>
      <trkpt lat="45.85086" lon="3.08516">
        <ele>491</ele>
        <time>2021-08-15T07:54:10Z</time>
      </trkpt>
      <trkpt lat="45.85083" lon="3.0852">
        <ele>491</ele>
        <time>2021-08-15T07:54:11Z</time>
      </trkpt>
      <trkpt lat="45.85083" lon="3.0852">
        <ele>491</ele>
        <time>2021-08-15T07:54:12Z</time>
      </trkpt>
      <trkpt lat="45.85083" lon="3.0852">
        <ele>491</ele>
        <time>2021-08-15T07:54:13Z</time>
      </trkpt>
      <trkpt lat="45.85083" lon="3.08521">
        <ele>491</ele>
        <time>2021-08-15T07:54:14Z</time>
      </trkpt>
      <trkpt lat="45.85083" lon="3.08521">
        <ele>491</ele>
        <time>2021-08-15T07:54:15Z</time>
      </trkpt>
      <trkpt lat="45.85082" lon="3.08522">
        <ele>491</ele>
        <time>2021-08-15T07:54:16Z</time>
      </trkpt>
      <trkpt lat="45.85082" lon="3.08522">
        <ele>491</ele>
        <time>2021-08-15T07:54:17Z</time>
      </trkpt>
      <trkpt lat="45.85081" lon="3.08522">
        <ele>491</ele>
        <time>2021-08-15T07:54:18Z</time>
      </trkpt>
      <trkpt lat="45.8508" lon="3.08523">
        <ele>491</ele>
        <time>2021-08-15T07:54:19Z</time>
      </trkpt>
      <trkpt lat="45.85079" lon="3.08524">
        <ele>491</ele>
        <time>2021-08-15T07:54:20Z</time>
      </trkpt>
      <trkpt lat="45.85078" lon="3.08525">
        <ele>491</ele>
        <time>2021-08-15T07:54:21Z</time>
      </trkpt>
      <trkpt lat="45.85077" lon="3.08526">
        <ele>491</ele>
        <time>2021-08-15T07:54:22Z</time>
      </trkpt>
      <trkpt lat="45.85076" lon="3.08528">
        <ele>491</ele>
        <time>2021-08-15T07:54:23Z</time>
      </trkpt>
      <trkpt lat="45.85076" lon="3.08529">
        <ele>491</ele>
        <time>2021-08-15T07:54:24Z</time>
      </trkpt>
      <trkpt lat="45.85075" lon="3.0853">
        <ele>491</ele>
        <time>2021-08-15T07:54:25Z</time>
      </trkpt>
      <trkpt lat="45.85074" lon="3.08532">
        <ele>491</ele>
        <time>2021-08-15T07:54:27Z</time>
      </trkpt>
      <trkpt lat="45.85069" lon="3.08538">
        <ele>491</ele>
        <time>2021-08-15T07:54:28Z</time>
      </trkpt>
      <trkpt lat="45.85069" lon="3.08538">
        <ele>491</ele>
        <time>2021-08-15T07:54:29Z</time>
      </trkpt>
      <trkpt lat="45.85068" lon="3.08539">
        <ele>491</ele>
        <time>2021-08-15T07:54:30Z</time>
      </trkpt>
      <trkpt lat="45.85067" lon="3.08539">
        <ele>491</ele>
        <time>2021-08-15T07:54:31Z</time>
      </trkpt>
      <trkpt lat="45.85066" lon="3.08539">
        <ele>491</ele>
        <time>2021-08-15T07:54:32Z</time>
      </trkpt>
      <trkpt lat="45.85064" lon="3.0854">
        <ele>491</ele>
        <time>2021-08-15T07:54:33Z</time>
      </trkpt>
      <trkpt lat="45.85063" lon="3.0854">
        <ele>491</ele>
        <time>2021-08-15T07:54:34Z</time>
      </trkpt>
      <trkpt lat="45.85062" lon="3.0854">
        <ele>491</ele>
        <time>2021-08-15T07:54:35Z</time>
      </trkpt>
      <trkpt lat="45.85061" lon="3.0854">
        <ele>491</ele>
        <time>2021-08-15T07:54:36Z</time>
      </trkpt>
      <trkpt lat="45.85059" lon="3.0854">
        <ele>491</ele>
        <time>2021-08-15T07:54:37Z</time>
      </trkpt>
      <trkpt lat="45.85058" lon="3.0854">
        <ele>491</ele>
        <time>2021-08-15T07:54:37Z</time>
      </trkpt>
      <trkpt lat="45.85057" lon="3.08541">
        <ele>491</ele>
        <time>2021-08-15T07:54:38Z</time>
      </trkpt>
      <trkpt lat="45.85056" lon="3.08541">
        <ele>491</ele>
        <time>2021-08-15T07:54:39Z</time>
      </trkpt>
      <trkpt lat="45.85054" lon="3.08541">
        <ele>491</ele>
        <time>2021-08-15T07:54:40Z</time>
      </trkpt>
      <trkpt lat="45.85053" lon="3.08542">
        <ele>491</ele>
        <time>2021-08-15T07:54:41Z</time>
      </trkpt>
      <trkpt lat="45.85052" lon="3.08543">
        <ele>491</ele>
        <time>2021-08-15T07:54:42Z</time>
      </trkpt>
      <trkpt lat="45.85051" lon="3.08545">
        <ele>491</ele>
        <time>2021-08-15T07:54:43Z</time>
      </trkpt>
      <trkpt lat="45.85049" lon="3.08547">
        <ele>491</ele>
        <time>2021-08-15T07:54:44Z</time>
      </trkpt>
      <trkpt lat="45.85048" lon="3.08548">
        <ele>491</ele>
        <time>2021-08-15T07:54:45Z</time>
      </trkpt>
      <trkpt lat="45.85046" lon="3.08548">
        <ele>491</ele>
        <time>2021-08-15T07:54:46Z</time>
      </trkpt>
      <trkpt lat="45.85044" lon="3.08549">
        <ele>491</ele>
        <time>2021-08-15T07:54:47Z</time>
      </trkpt>
      <trkpt lat="45.85042" lon="3.08549">
        <ele>491</ele>
        <time>2021-08-15T07:54:48Z</time>
      </trkpt>
      <trkpt lat="45.8504" lon="3.08549">
        <ele>491</ele>
        <time>2021-08-15T07:54:49Z</time>
      </trkpt>
      <trkpt lat="45.85039" lon="3.08548">
        <ele>491</ele>
        <time>2021-08-15T07:54:50Z</time>
      </trkpt>
      <trkpt lat="45.85037" lon="3.08548">
        <ele>491</ele>
        <time>2021-08-15T07:54:51Z</time>
      </trkpt>
      <trkpt lat="45.85036" lon="3.08548">
        <ele>491</ele>
        <time>2021-08-15T07:54:52Z</time>
      </trkpt>
      <trkpt lat="45.85035" lon="3.08549">
        <ele>491</ele>
        <time>2021-08-15T07:54:53Z</time>
      </trkpt>
      <trkpt lat="45.85034" lon="3.08549">
        <ele>491</ele>
        <time>2021-08-15T07:54:54Z</time>
      </trkpt>
      <trkpt lat="45.85032" lon="3.0855">
        <ele>491</ele>
        <time>2021-08-15T07:54:55Z</time>
      </trkpt>
      <trkpt lat="45.85031" lon="3.0855">
        <ele>491</ele>
        <time>2021-08-15T07:54:56Z</time>
      </trkpt>
      <trkpt lat="45.8503" lon="3.08551">
        <ele>491</ele>
        <time>2021-08-15T07:54:57Z</time>
      </trkpt>
      <trkpt lat="45.85029" lon="3.08552">
        <ele>491</ele>
        <time>2021-08-15T07:54:58Z</time>
      </trkpt>
      <trkpt lat="45.85029" lon="3.08553">
        <ele>491</ele>
        <time>2021-08-15T07:54:59Z</time>
      </trkpt>
      <trkpt lat="45.85028" lon="3.08554">
        <ele>491</ele>
        <time>2021-08-15T07:55:00Z</time>
      </trkpt>
      <trkpt lat="45.85028" lon="3.08555">
        <ele>491</ele>
        <time>2021-08-15T07:55:01Z</time>
      </trkpt>
      <trkpt lat="45.85027" lon="3.08556">
        <ele>491</ele>
        <time>2021-08-15T07:55:02Z</time>
      </trkpt>
      <trkpt lat="45.85026" lon="3.08557">
        <ele>491</ele>
        <time>2021-08-15T07:55:03Z</time>
      </trkpt>
      <trkpt lat="45.85025" lon="3.08558">
        <ele>491</ele>
        <time>2021-08-15T07:55:04Z</time>
      </trkpt>
      <trkpt lat="45.85025" lon="3.08558">
        <ele>491</ele>
        <time>2021-08-15T07:55:05Z</time>
      </trkpt>
      <trkpt lat="45.85024" lon="3.08559">
        <ele>491</ele>
        <time>2021-08-15T07:55:06Z</time>
      </trkpt>
      <trkpt lat="45.85022" lon="3.08559">
        <ele>491</ele>
        <time>2021-08-15T07:55:07Z</time>
      </trkpt>
      <trkpt lat="45.85021" lon="3.08558">
        <ele>491</ele>
        <time>2021-08-15T07:55:08Z</time>
      </trkpt>
      <trkpt lat="45.8502" lon="3.08558">
        <ele>491</ele>
        <time>2021-08-15T07:55:09Z</time>
      </trkpt>
      <trkpt lat="45.85018" lon="3.08557">
        <ele>491</ele>
        <time>2021-08-15T07:55:10Z</time>
      </trkpt>
      <trkpt lat="45.85016" lon="3.08557">
        <ele>491</ele>
        <time>2021-08-15T07:55:11Z</time>
      </trkpt>
      <trkpt lat="45.85014" lon="3.08556">
        <ele>491</ele>
        <time>2021-08-15T07:55:12Z</time>
      </trkpt>
      <trkpt lat="45.85012" lon="3.08556">
        <ele>491</ele>
        <time>2021-08-15T07:55:13Z</time>
      </trkpt>
      <trkpt lat="45.8501" lon="3.08556">
        <ele>491</ele>
        <time>2021-08-15T07:55:14Z</time>
      </trkpt>
      <trkpt lat="45.85008" lon="3.08556">
        <ele>491</ele>
        <time>2021-08-15T07:55:15Z</time>
      </trkpt>
      <trkpt lat="45.85007" lon="3.08556">
        <ele>491</ele>
        <time>2021-08-15T07:55:16Z</time>
      </trkpt>
      <trkpt lat="45.85006" lon="3.08556">
        <ele>491</ele>
        <time>2021-08-15T07:55:17Z</time>
      </trkpt>
      <trkpt lat="45.85005" lon="3.08556">
        <ele>491</ele>
        <time>2021-08-15T07:55:18Z</time>
      </trkpt>
      <trkpt lat="45.85004" lon="3.08556">
        <ele>491</ele>
        <time>2021-08-15T07:55:19Z</time>
      </trkpt>
      <trkpt lat="45.85003" lon="3.08555">
        <ele>491</ele>
        <time>2021-08-15T07:55:20Z</time>
      </trkpt>
      <trkpt lat="45.85001" lon="3.08555">
        <ele>491</ele>
        <time>2021-08-15T07:55:21Z</time>
      </trkpt>
      <trkpt lat="45.85" lon="3.08555">
        <ele>491</ele>
        <time>2021-08-15T07:55:22Z</time>
      </trkpt>
      <trkpt lat="45.84998" lon="3.08554">
        <ele>491</ele>
        <time>2021-08-15T07:55:23Z</time>
      </trkpt>
      <trkpt lat="45.84996" lon="3.08554">
        <ele>491</ele>
        <time>2021-08-15T07:55:24Z</time>
      </trkpt>
      <trkpt lat="45.84995" lon="3.08553">
        <ele>491</ele>
        <time>2021-08-15T07:55:25Z</time>
      </trkpt>
      <trkpt lat="45.84994" lon="3.08553">
        <ele>491</ele>
        <time>2021-08-15T07:55:27Z</time>
      </trkpt>
      <trkpt lat="45.84987" lon="3.08551">
        <ele>491</ele>
        <time>2021-08-15T07:55:28Z</time>
      </trkpt>
      <trkpt lat="45.84987" lon="3.08551">
        <ele>491</ele>
        <time>2021-08-15T07:55:29Z</time>
      </trkpt>
      <trkpt lat="45.84987" lon="3.0855">
        <ele>491</ele>
        <time>2021-08-15T07:55:30Z</time>
      </trkpt>
      <trkpt lat="45.84986" lon="3.0855">
        <ele>491</ele>
        <time>2021-08-15T07:55:31Z</time>
      </trkpt>
      <trkpt lat="45.84985" lon="3.08549">
        <ele>491</ele>
        <time>2021-08-15T07:55:32Z</time>
      </trkpt>
      <trkpt lat="45.84985" lon="3.08549">
        <ele>491</ele>
        <time>2021-08-15T07:55:33Z</time>
      </trkpt>
      <trkpt lat="45.84984" lon="3.08548">
        <ele>491</ele>
        <time>2021-08-15T07:55:34Z</time>
      </trkpt>
      <trkpt lat="45.84983" lon="3.08547">
        <ele>491</ele>
        <time>2021-08-15T07:55:35Z</time>
      </trkpt>
      <trkpt lat="45.84982" lon="3.08546">
        <ele>491</ele>
        <time>2021-08-15T07:55:36Z</time>
      </trkpt>
      <trkpt lat="45.8498" lon="3.08546">
        <ele>491</ele>
        <time>2021-08-15T07:55:37Z</time>
      </trkpt>
      <trkpt lat="45.84979" lon="3.08545">
        <ele>491</ele>
        <time>2021-08-15T07:55:38Z</time>
      </trkpt>
      <trkpt lat="45.84978" lon="3.08544">
        <ele>491</ele>
        <time>2021-08-15T07:55:39Z</time>
      </trkpt>
      <trkpt lat="45.84976" lon="3.08544">
        <ele>491</ele>
        <time>2021-08-15T07:55:40Z</time>
      </trkpt>
      <trkpt lat="45.84974" lon="3.08543">
        <ele>491</ele>
        <time>2021-08-15T07:55:41Z</time>
      </trkpt>
      <trkpt lat="45.84973" lon="3.08543">
        <ele>491</ele>
        <time>2021-08-15T07:55:42Z</time>
      </trkpt>
      <trkpt lat="45.84971" lon="3.08542">
        <ele>491</ele>
        <time>2021-08-15T07:55:43Z</time>
      </trkpt>
      <trkpt lat="45.8497" lon="3.08542">
        <ele>491</ele>
        <time>2021-08-15T07:55:44Z</time>
      </trkpt>
      <trkpt lat="45.84969" lon="3.08542">
        <ele>491</ele>
        <time>2021-08-15T07:55:45Z</time>
      </trkpt>
      <trkpt lat="45.84967" lon="3.08541">
        <ele>491</ele>
        <time>2021-08-15T07:55:46Z</time>
      </trkpt>
      <trkpt lat="45.84966" lon="3.0854">
        <ele>491</ele>
        <time>2021-08-15T07:55:47Z</time>
      </trkpt>
      <trkpt lat="45.84965" lon="3.0854">
        <ele>491</ele>
        <time>2021-08-15T07:55:48Z</time>
      </trkpt>
      <trkpt lat="45.84964" lon="3.08539">
        <ele>491</ele>
        <time>2021-08-15T07:55:49Z</time>
      </trkpt>
      <trkpt lat="45.84963" lon="3.08538">
        <ele>491</ele>
        <time>2021-08-15T07:55:50Z</time>
      </trkpt>
      <trkpt lat="45.84962" lon="3.08537">
        <ele>491</ele>
        <time>2021-08-15T07:55:51Z</time>
      </trkpt>
      <trkpt lat="45.84961" lon="3.08536">
        <ele>491</ele>
        <time>2021-08-15T07:55:52Z</time>
      </trkpt>
      <trkpt lat="45.84959" lon="3.08535">
        <ele>491</ele>
        <time>2021-08-15T07:55:53Z</time>
      </trkpt>
      <trkpt lat="45.84959" lon="3.08533">
        <ele>491</ele>
        <time>2021-08-15T07:55:54Z</time>
      </trkpt>
      <trkpt lat="45.84959" lon="3.08532">
        <ele>491</ele>
        <time>2021-08-15T07:55:55Z</time>
      </trkpt>
      <trkpt lat="45.84959" lon="3.08531">
        <ele>491</ele>
        <time>2021-08-15T07:55:56Z</time>
      </trkpt>
      <trkpt lat="45.84958" lon="3.08529">
        <ele>491</ele>
        <time>2021-08-15T07:55:57Z</time>
      </trkpt>
      <trkpt lat="45.84958" lon="3.08528">
        <ele>491</ele>
        <time>2021-08-15T07:55:58Z</time>
      </trkpt>
      <trkpt lat="45.84958" lon="3.08526">
        <ele>491</ele>
        <time>2021-08-15T07:55:59Z</time>
      </trkpt>
      <trkpt lat="45.84958" lon="3.08525">
        <ele>491</ele>
        <time>2021-08-15T07:56:00Z</time>
      </trkpt>
      <trkpt lat="45.84957" lon="3.08524">
        <ele>491</ele>
        <time>2021-08-15T07:56:01Z</time>
      </trkpt>
      <trkpt lat="45.84956" lon="3.08523">
        <ele>491</ele>
        <time>2021-08-15T07:56:02Z</time>
      </trkpt>
      <trkpt lat="45.84956" lon="3.08521">
        <ele>491</ele>
        <time>2021-08-15T07:56:03Z</time>
      </trkpt>
      <trkpt lat="45.84956" lon="3.0852">
        <ele>491</ele>
        <time>2021-08-15T07:56:04Z</time>
      </trkpt>
      <trkpt lat="45.84956" lon="3.08519">
        <ele>491</ele>
        <time>2021-08-15T07:56:05Z</time>
      </trkpt>
      <trkpt lat="45.84956" lon="3.08518">
        <ele>491</ele>
        <time>2021-08-15T07:56:06Z</time>
      </trkpt>
      <trkpt lat="45.84956" lon="3.08517">
        <ele>491</ele>
        <time>2021-08-15T07:56:07Z</time>
      </trkpt>
      <trkpt lat="45.84956" lon="3.08516">
        <ele>491</ele>
        <time>2021-08-15T07:56:08Z</time>
      </trkpt>
      <trkpt lat="45.84956" lon="3.08515">
        <ele>491</ele>
        <time>2021-08-15T07:56:09Z</time>
      </trkpt>
      <trkpt lat="45.84956" lon="3.08514">
        <ele>491</ele>
        <time>2021-08-15T07:56:10Z</time>
      </trkpt>
      <trkpt lat="45.84956" lon="3.08512">
        <ele>491</ele>
        <time>2021-08-15T07:56:11Z</time>
      </trkpt>
      <trkpt lat="45.84956" lon="3.08511">
        <ele>491</ele>
        <time>2021-08-15T07:56:12Z</time>
      </trkpt>
      <trkpt lat="45.84955" lon="3.08509">
        <ele>491</ele>
        <time>2021-08-15T07:56:13Z</time>
      </trkpt>
      <trkpt lat="45.84955" lon="3.08507">
        <ele>491</ele>
        <time>2021-08-15T07:56:14Z</time>
      </trkpt>
      <trkpt lat="45.84955" lon="3.08506">
        <ele>491</ele>
        <time>2021-08-15T07:56:15Z</time>
      </trkpt>
      <trkpt lat="45.84955" lon="3.08504">
        <ele>491</ele>
        <time>2021-08-15T07:56:16Z</time>
      </trkpt>
      <trkpt lat="45.84955" lon="3.08502">
        <ele>491</ele>
        <time>2021-08-15T07:56:17Z</time>
      </trkpt>
      <trkpt lat="45.84955" lon="3.085">
        <ele>491</ele>
        <time>2021-08-15T07:56:18Z</time>
      </trkpt>
      <trkpt lat="45.84955" lon="3.08498">
        <ele>491</ele>
        <time>2021-08-15T07:56:19Z</time>
      </trkpt>
      <trkpt lat="45.84955" lon="3.08497">
        <ele>491</ele>
        <time>2021-08-15T07:56:20Z</time>
      </trkpt>
      <trkpt lat="45.84954" lon="3.08494">
        <ele>491</ele>
        <time>2021-08-15T07:56:21Z</time>
      </trkpt>
      <trkpt lat="45.84954" lon="3.08492">
        <ele>491</ele>
        <time>2021-08-15T07:56:22Z</time>
      </trkpt>
      <trkpt lat="45.84953" lon="3.0849">
        <ele>491</ele>
        <time>2021-08-15T07:56:23Z</time>
      </trkpt>
      <trkpt lat="45.84953" lon="3.08488">
        <ele>491</ele>
        <time>2021-08-15T07:56:24Z</time>
      </trkpt>
      <trkpt lat="45.84952" lon="3.08486">
        <ele>491</ele>
        <time>2021-08-15T07:56:27Z</time>
      </trkpt>
      <trkpt lat="45.84952" lon="3.08479">
        <ele>491</ele>
        <time>2021-08-15T07:56:28Z</time>
      </trkpt>
      <trkpt lat="45.84953" lon="3.08476">
        <ele>491</ele>
        <time>2021-08-15T07:56:29Z</time>
      </trkpt>
      <trkpt lat="45.84953" lon="3.08475">
        <ele>491</ele>
        <time>2021-08-15T07:56:30Z</time>
      </trkpt>
      <trkpt lat="45.84953" lon="3.08474">
        <ele>491</ele>
        <time>2021-08-15T07:56:31Z</time>
      </trkpt>
      <trkpt lat="45.84953" lon="3.08473">
        <ele>491</ele>
        <time>2021-08-15T07:56:32Z</time>
      </trkpt>
      <trkpt lat="45.84953" lon="3.08472">
        <ele>491</ele>
        <time>2021-08-15T07:56:33Z</time>
      </trkpt>
      <trkpt lat="45.84953" lon="3.08471">
        <ele>491</ele>
        <time>2021-08-15T07:56:34Z</time>
      </trkpt>
      <trkpt lat="45.84953" lon="3.08469">
        <ele>491</ele>
        <time>2021-08-15T07:56:35Z</time>
      </trkpt>
      <trkpt lat="45.84953" lon="3.08468">
        <ele>491</ele>
        <time>2021-08-15T07:56:36Z</time>
      </trkpt>
      <trkpt lat="45.84956" lon="3.0847">
        <ele>491</ele>
        <time>2021-08-15T07:57:10Z</time>
      </trkpt>
    </trkseg>
  </trk>
</gpx>